<?xml version='1.0' encoding='UTF-8'?><gpx version="1.1" creator="JPX - https://github.com/jenetics/jpx" xmlns="http://www.topografix.com/GPX/1/1"><trk><trkseg><trkpt lat="45.73614720827772" lon="11.678631559519816"><ele>87.66666666666666</ele><time>2026-05-03T07:00:26.992Z</time></trkpt><trkpt lat="45.73606833703917" lon="11.678358552792083"><ele>87.33333333333333</ele><time>2026-05-03T07:00:27.991Z</time></trkpt><trkpt lat="45.73597675401165" lon="11.678101290481873"><ele>87.0</ele><time>2026-05-03T07:00:28.991Z</time></trkpt><trkpt lat="45.735883441795686" lon="11.677839210053358"><ele>88.0</ele><time>2026-05-03T07:00:29.991Z</time></trkpt><trkpt lat="45.73578912403571" lon="11.677575394300908"><ele>89.0</ele><time>2026-05-03T07:00:30.991Z</time></trkpt><trkpt lat="45.73569426544226" lon="11.677310065792994"><ele>90.0</ele><time>2026-05-03T07:00:31.991Z</time></trkpt><trkpt lat="45.735600773196325" lon="11.67704717894995"><ele>89.0</ele><time>2026-05-03T07:00:32.991Z</time></trkpt><trkpt lat="45.735505996329735" lon="11.676778606557853"><ele>88.0</ele><time>2026-05-03T07:00:33.991Z</time></trkpt><trkpt lat="45.73541010777487" lon="11.6765053259744"><ele>87.0</ele><time>2026-05-03T07:00:34.991Z</time></trkpt><trkpt lat="45.73531694505734" lon="11.676239814076316"><ele>87.0</ele><time>2026-05-03T07:00:35.991Z</time></trkpt><trkpt lat="45.73521400637963" lon="11.675961189212384"><ele>87.0</ele><time>2026-05-03T07:00:36.991Z</time></trkpt><trkpt lat="45.735091771933234" lon="11.675693580985145"><ele>87.0</ele><time>2026-05-03T07:00:37.991Z</time></trkpt><trkpt lat="45.734975444961144" lon="11.675423575002108"><ele>87.33333333333333</ele><time>2026-05-03T07:00:38.991Z</time></trkpt><trkpt lat="45.73486348190164" lon="11.675177783842782"><ele>87.66666666666666</ele><time>2026-05-03T07:00:39.991Z</time></trkpt><trkpt lat="45.73474968265075" lon="11.674948985696638"><ele>88.0</ele><time>2026-05-03T07:00:40.991Z</time></trkpt><trkpt lat="45.7346444700105" lon="11.674731796909638"><ele>87.5</ele><time>2026-05-03T07:00:41.991Z</time></trkpt><trkpt lat="45.73444848897089" lon="11.674333388385026"><ele>87.0</ele><time>2026-05-03T07:00:43.991Z</time></trkpt><trkpt lat="45.73435737947826" lon="11.674147468240172"><ele>87.0</ele><time>2026-05-03T07:00:44.991Z</time></trkpt><trkpt lat="45.73426254356261" lon="11.673960662245637"><ele>87.0</ele><time>2026-05-03T07:00:45.991Z</time></trkpt><trkpt lat="45.73415078812533" lon="11.673756293407163"><ele>87.0</ele><time>2026-05-03T07:00:46.991Z</time></trkpt><trkpt lat="45.734028147292655" lon="11.67353447490661"><ele>87.66666666666667</ele><time>2026-05-03T07:00:47.991Z</time></trkpt><trkpt lat="45.7338995935712" lon="11.673303219426888"><ele>88.33333333333334</ele><time>2026-05-03T07:00:48.991Z</time></trkpt><trkpt lat="45.7337558524649" lon="11.673061209412651"><ele>89.0</ele><time>2026-05-03T07:00:49.991Z</time></trkpt><trkpt lat="45.733595560813754" lon="11.672809342466959"><ele>88.0</ele><time>2026-05-03T07:00:50.991Z</time></trkpt><trkpt lat="45.73342900356066" lon="11.672552842296117"><ele>87.0</ele><time>2026-05-03T07:00:51.991Z</time></trkpt><trkpt lat="45.73324863559566" lon="11.672295970851595"><ele>87.0</ele><time>2026-05-03T07:00:52.991Z</time></trkpt><trkpt lat="45.73305555125396" lon="11.672038671127222"><ele>87.0</ele><time>2026-05-03T07:00:53.991Z</time></trkpt><trkpt lat="45.73285627185519" lon="11.671779505909878"><ele>87.5</ele><time>2026-05-03T07:00:54.991Z</time></trkpt><trkpt lat="45.7326494878143" lon="11.671528850065094"><ele>88.0</ele><time>2026-05-03T07:00:55.991Z</time></trkpt><trkpt lat="45.732455568825806" lon="11.67129319600583"><ele>87.5</ele><time>2026-05-03T07:00:56.991Z</time></trkpt><trkpt lat="45.7322889306316" lon="11.671046406833069"><ele>87.0</ele><time>2026-05-03T07:00:57.991Z</time></trkpt><trkpt lat="45.73211817125276" lon="11.67082527552205"><ele>87.0</ele><time>2026-05-03T07:00:58.991Z</time></trkpt><trkpt lat="45.731958467078414" lon="11.67061846059877"><ele>87.0</ele><time>2026-05-03T07:00:59.991Z</time></trkpt><trkpt lat="45.73181228104215" lon="11.670429875009965"><ele>87.0</ele><time>2026-05-03T07:01:00.991Z</time></trkpt><trkpt lat="45.73167504420995" lon="11.670252852574423"><ele>86.66666666666667</ele><time>2026-05-03T07:01:01.991Z</time></trkpt><trkpt lat="45.73154350050878" lon="11.670082232405774"><ele>86.33333333333334</ele><time>2026-05-03T07:01:02.991Z</time></trkpt><trkpt lat="45.73141163565889" lon="11.669911195780504"><ele>86.0</ele><time>2026-05-03T07:01:03.991Z</time></trkpt><trkpt lat="45.73127313348396" lon="11.669731550056657"><ele>86.0</ele><time>2026-05-03T07:01:04.991Z</time></trkpt><trkpt lat="45.73112734877285" lon="11.669536474854423"><ele>86.0</ele><time>2026-05-03T07:01:05.991Z</time></trkpt><trkpt lat="45.730973925320434" lon="11.669329158413865"><ele>86.0</ele><time>2026-05-03T07:01:06.991Z</time></trkpt><trkpt lat="45.73082359157754" lon="11.669119653202157"><ele>86.0</ele><time>2026-05-03T07:01:07.991Z</time></trkpt><trkpt lat="45.730688724103466" lon="11.668927656535724"><ele>86.0</ele><time>2026-05-03T07:01:08.991Z</time></trkpt><trkpt lat="45.730565876844686" lon="11.668748513401518"><ele>86.0</ele><time>2026-05-03T07:01:09.991Z</time></trkpt><trkpt lat="45.730455749570964" lon="11.668579920651645"><ele>85.75</ele><time>2026-05-03T07:01:10.991Z</time></trkpt><trkpt lat="45.730346691120815" lon="11.668412964170063"><ele>85.5</ele><time>2026-05-03T07:01:11.991Z</time></trkpt><trkpt lat="45.730246954189035" lon="11.668260277923746"><ele>85.25</ele><time>2026-05-03T07:01:12.991Z</time></trkpt><trkpt lat="45.73015544050207" lon="11.668113550649638"><ele>85.0</ele><time>2026-05-03T07:01:13.991Z</time></trkpt><trkpt lat="45.73006627536761" lon="11.667968419267762"><ele>85.0</ele><time>2026-05-03T07:01:14.991Z</time></trkpt><trkpt lat="45.72998323152537" lon="11.667833250545755"><ele>85.0</ele><time>2026-05-03T07:01:15.991Z</time></trkpt><trkpt lat="45.72989623759229" lon="11.667699012763858"><ele>85.0</ele><time>2026-05-03T07:01:16.991Z</time></trkpt><trkpt lat="45.729818708998216" lon="11.667565759376126"><ele>85.0</ele><time>2026-05-03T07:01:17.991Z</time></trkpt><trkpt lat="45.72973733520702" lon="11.667438038441816"><ele>85.0</ele><time>2026-05-03T07:01:18.991Z</time></trkpt><trkpt lat="45.72966907220398" lon="11.667311758095668"><ele>85.0</ele><time>2026-05-03T07:01:19.991Z</time></trkpt><trkpt lat="45.72960882054832" lon="11.66719650339311"><ele>85.0</ele><time>2026-05-03T07:01:20.991Z</time></trkpt><trkpt lat="45.729556094820964" lon="11.667075393108794"><ele>85.0</ele><time>2026-05-03T07:01:21.991Z</time></trkpt><trkpt lat="45.72951228251464" lon="11.66695034595735"><ele>85.0</ele><time>2026-05-03T07:01:22.991Z</time></trkpt><trkpt lat="45.72947524954697" lon="11.666825098428673"><ele>85.16666666666666</ele><time>2026-05-03T07:01:23.991Z</time></trkpt><trkpt lat="45.729444676540034" lon="11.666698920716767"><ele>85.33333333333333</ele><time>2026-05-03T07:01:24.991Z</time></trkpt><trkpt lat="45.72942437515551" lon="11.666579538647564"><ele>85.5</ele><time>2026-05-03T07:01:25.991Z</time></trkpt><trkpt lat="45.729406119261895" lon="11.666465838299883"><ele>85.66666666666667</ele><time>2026-05-03T07:01:26.991Z</time></trkpt><trkpt lat="45.72938989785492" lon="11.666360943835134"><ele>85.83333333333334</ele><time>2026-05-03T07:01:27.991Z</time></trkpt><trkpt lat="45.729373834245116" lon="11.666262800184064"><ele>86.0</ele><time>2026-05-03T07:01:28.991Z</time></trkpt><trkpt lat="45.7293643176416" lon="11.666172422999074"><ele>86.0</ele><time>2026-05-03T07:01:29.991Z</time></trkpt><trkpt lat="45.72936913519839" lon="11.666069699739438"><ele>86.0</ele><time>2026-05-03T07:01:30.991Z</time></trkpt><trkpt lat="45.72940953281312" lon="11.665961446329517"><ele>86.0</ele><time>2026-05-03T07:01:31.991Z</time></trkpt><trkpt lat="45.72945368265948" lon="11.665849908745312"><ele>86.0</ele><time>2026-05-03T07:01:32.991Z</time></trkpt><trkpt lat="45.729466501431844" lon="11.66571398799526"><ele>86.0</ele><time>2026-05-03T07:01:33.991Z</time></trkpt><trkpt lat="45.72945887486047" lon="11.66556387802598"><ele>86.0</ele><time>2026-05-03T07:01:34.991Z</time></trkpt><trkpt lat="45.72945736233297" lon="11.665405752151884"><ele>86.25</ele><time>2026-05-03T07:01:35.991Z</time></trkpt><trkpt lat="45.72949362792982" lon="11.665249003330192"><ele>86.5</ele><time>2026-05-03T07:01:36.991Z</time></trkpt><trkpt lat="45.72956671238692" lon="11.66509476473197"><ele>86.75</ele><time>2026-05-03T07:01:37.991Z</time></trkpt><trkpt lat="45.729646748577004" lon="11.664938921638225"><ele>87.0</ele><time>2026-05-03T07:01:38.991Z</time></trkpt><trkpt lat="45.72972270463283" lon="11.664780105996359"><ele>87.0</ele><time>2026-05-03T07:01:39.991Z</time></trkpt><trkpt lat="45.72980020516768" lon="11.664621563961154"><ele>87.0</ele><time>2026-05-03T07:01:40.991Z</time></trkpt><trkpt lat="45.729885245313206" lon="11.664479858583416"><ele>87.0</ele><time>2026-05-03T07:01:41.991Z</time></trkpt><trkpt lat="45.72998099198085" lon="11.664379417887876"><ele>87.0</ele><time>2026-05-03T07:01:42.991Z</time></trkpt><trkpt lat="45.73008980537313" lon="11.664314756596958"><ele>87.25</ele><time>2026-05-03T07:01:43.991Z</time></trkpt><trkpt lat="45.73021025755733" lon="11.664255862120347"><ele>87.5</ele><time>2026-05-03T07:01:44.991Z</time></trkpt><trkpt lat="45.730330172586555" lon="11.664187413683416"><ele>87.75</ele><time>2026-05-03T07:01:45.991Z</time></trkpt><trkpt lat="45.73045763124943" lon="11.664119265673007"><ele>88.0</ele><time>2026-05-03T07:01:46.991Z</time></trkpt><trkpt lat="45.73058861681935" lon="11.664045325861533"><ele>88.0</ele><time>2026-05-03T07:01:47.991Z</time></trkpt><trkpt lat="45.73072455273722" lon="11.663975088063308"><ele>88.0</ele><time>2026-05-03T07:01:48.991Z</time></trkpt><trkpt lat="45.7308643708159" lon="11.663903283661314"><ele>88.0</ele><time>2026-05-03T07:01:49.991Z</time></trkpt><trkpt lat="45.73100157686355" lon="11.663825776810313"><ele>88.0</ele><time>2026-05-03T07:01:50.991Z</time></trkpt><trkpt lat="45.73113125620775" lon="11.663746226271764"><ele>87.5</ele><time>2026-05-03T07:01:51.991Z</time></trkpt><trkpt lat="45.73125884471006" lon="11.663663822176158"><ele>87.0</ele><time>2026-05-03T07:01:52.991Z</time></trkpt><trkpt lat="45.731384383307656" lon="11.663593367820335"><ele>86.5</ele><time>2026-05-03T07:01:53.991Z</time></trkpt><trkpt lat="45.731510814481986" lon="11.663525472486286"><ele>86.0</ele><time>2026-05-03T07:01:54.991Z</time></trkpt><trkpt lat="45.7316362409008" lon="11.663448985092842"><ele>85.75</ele><time>2026-05-03T07:01:55.99Z</time></trkpt><trkpt lat="45.731765622670984" lon="11.663369137373873"><ele>85.5</ele><time>2026-05-03T07:01:56.99Z</time></trkpt><trkpt lat="45.73189863803199" lon="11.663290994762605"><ele>85.25</ele><time>2026-05-03T07:01:57.99Z</time></trkpt><trkpt lat="45.732032033388464" lon="11.663221484136063"><ele>85.0</ele><time>2026-05-03T07:01:58.99Z</time></trkpt><trkpt lat="45.73216919748214" lon="11.663148167840692"><ele>85.75</ele><time>2026-05-03T07:01:59.99Z</time></trkpt><trkpt lat="45.73231748871386" lon="11.663081101979603"><ele>86.5</ele><time>2026-05-03T07:02:00.99Z</time></trkpt><trkpt lat="45.73244761644086" lon="11.663004455308915"><ele>87.25</ele><time>2026-05-03T07:02:01.99Z</time></trkpt><trkpt lat="45.732583820379425" lon="11.662920330707347"><ele>88.0</ele><time>2026-05-03T07:02:02.99Z</time></trkpt><trkpt lat="45.73272884560405" lon="11.662837134375328"><ele>89.0</ele><time>2026-05-03T07:02:03.99Z</time></trkpt><trkpt lat="45.73287571087077" lon="11.662758178202841"><ele>90.0</ele><time>2026-05-03T07:02:04.99Z</time></trkpt><trkpt lat="45.733017602158206" lon="11.662679913200794"><ele>91.0</ele><time>2026-05-03T07:02:05.99Z</time></trkpt><trkpt lat="45.73314792491439" lon="11.662602398584978"><ele>91.0</ele><time>2026-05-03T07:02:06.99Z</time></trkpt><trkpt lat="45.733278567524714" lon="11.662524579979047"><ele>91.0</ele><time>2026-05-03T07:02:07.99Z</time></trkpt><trkpt lat="45.73340587202815" lon="11.662440382852449"><ele>91.0</ele><time>2026-05-03T07:02:08.99Z</time></trkpt><trkpt lat="45.73353532656807" lon="11.662371095357324"><ele>91.0</ele><time>2026-05-03T07:02:09.99Z</time></trkpt><trkpt lat="45.73366175694508" lon="11.662282509411417"><ele>91.25</ele><time>2026-05-03T07:02:10.989Z</time></trkpt><trkpt lat="45.73379144994852" lon="11.66221053263255"><ele>91.5</ele><time>2026-05-03T07:02:11.989Z</time></trkpt><trkpt lat="45.73392614459906" lon="11.662129486512496"><ele>91.75</ele><time>2026-05-03T07:02:12.989Z</time></trkpt><trkpt lat="45.73407329232079" lon="11.66203602033702"><ele>92.0</ele><time>2026-05-03T07:02:13.989Z</time></trkpt><trkpt lat="45.73422018377906" lon="11.661938828340494"><ele>92.0</ele><time>2026-05-03T07:02:14.989Z</time></trkpt><trkpt lat="45.734374759042055" lon="11.661843918323884"><ele>92.0</ele><time>2026-05-03T07:02:15.989Z</time></trkpt><trkpt lat="45.7345360857855" lon="11.661745317328036"><ele>92.0</ele><time>2026-05-03T07:02:16.989Z</time></trkpt><trkpt lat="45.734691932105704" lon="11.661650845919867"><ele>92.0</ele><time>2026-05-03T07:02:17.989Z</time></trkpt><trkpt lat="45.734833613615685" lon="11.6615655798892"><ele>92.0</ele><time>2026-05-03T07:02:18.989Z</time></trkpt><trkpt lat="45.734962823602444" lon="11.661473713200893"><ele>92.0</ele><time>2026-05-03T07:02:19.989Z</time></trkpt><trkpt lat="45.73510083047235" lon="11.661435482753479"><ele>92.0</ele><time>2026-05-03T07:02:20.989Z</time></trkpt><trkpt lat="45.7352355924185" lon="11.661353208682327"><ele>92.0</ele><time>2026-05-03T07:02:21.989Z</time></trkpt><trkpt lat="45.73537963720985" lon="11.661265267346675"><ele>92.0</ele><time>2026-05-03T07:02:22.989Z</time></trkpt><trkpt lat="45.73551317356173" lon="11.661183741546653"><ele>92.0</ele><time>2026-05-03T07:02:23.989Z</time></trkpt><trkpt lat="45.73565186408069" lon="11.66109906902163"><ele>92.0</ele><time>2026-05-03T07:02:24.989Z</time></trkpt><trkpt lat="45.73578793540133" lon="11.661016567298775"><ele>92.0</ele><time>2026-05-03T07:02:25.989Z</time></trkpt><trkpt lat="45.73592180098155" lon="11.660935497994238"><ele>92.0</ele><time>2026-05-03T07:02:26.989Z</time></trkpt><trkpt lat="45.73606057415521" lon="11.660851456626418"><ele>92.0</ele><time>2026-05-03T07:02:27.989Z</time></trkpt><trkpt lat="45.73619408669536" lon="11.660770600863003"><ele>92.25</ele><time>2026-05-03T07:02:28.989Z</time></trkpt><trkpt lat="45.7363267003624" lon="11.660689416962398"><ele>92.5</ele><time>2026-05-03T07:02:29.989Z</time></trkpt><trkpt lat="45.73645186178731" lon="11.660607511430056"><ele>92.75</ele><time>2026-05-03T07:02:30.989Z</time></trkpt><trkpt lat="45.736571790330196" lon="11.66052518263185"><ele>93.0</ele><time>2026-05-03T07:02:31.989Z</time></trkpt><trkpt lat="45.736694573777505" lon="11.660450706034656"><ele>93.0</ele><time>2026-05-03T07:02:32.989Z</time></trkpt><trkpt lat="45.73682618195233" lon="11.660382227445828"><ele>93.0</ele><time>2026-05-03T07:02:33.989Z</time></trkpt><trkpt lat="45.73696305793626" lon="11.660338578916129"><ele>93.0</ele><time>2026-05-03T07:02:34.989Z</time></trkpt><trkpt lat="45.73710477413313" lon="11.66028095139279"><ele>93.0</ele><time>2026-05-03T07:02:35.989Z</time></trkpt><trkpt lat="45.73724545740877" lon="11.660234778051095"><ele>93.0</ele><time>2026-05-03T07:02:36.989Z</time></trkpt><trkpt lat="45.737379663000084" lon="11.660140589304563"><ele>93.0</ele><time>2026-05-03T07:02:37.989Z</time></trkpt><trkpt lat="45.73752624189798" lon="11.66011723284041"><ele>93.0</ele><time>2026-05-03T07:02:38.989Z</time></trkpt><trkpt lat="45.737661577295015" lon="11.660067506939074"><ele>93.0</ele><time>2026-05-03T07:02:39.989Z</time></trkpt><trkpt lat="45.73779033151345" lon="11.660016169296687"><ele>93.0</ele><time>2026-05-03T07:02:40.989Z</time></trkpt><trkpt lat="45.737934923776756" lon="11.660050612980118"><ele>93.0</ele><time>2026-05-03T07:02:41.989Z</time></trkpt><trkpt lat="45.73807246897371" lon="11.660014805384055"><ele>93.0</ele><time>2026-05-03T07:02:42.989Z</time></trkpt><trkpt lat="45.73821174754745" lon="11.659978503639175"><ele>93.0</ele><time>2026-05-03T07:02:43.989Z</time></trkpt><trkpt lat="45.73835633644752" lon="11.65993993614065"><ele>93.0</ele><time>2026-05-03T07:02:44.989Z</time></trkpt><trkpt lat="45.738499444146825" lon="11.659901319492095"><ele>93.0</ele><time>2026-05-03T07:02:45.989Z</time></trkpt><trkpt lat="45.738634893159706" lon="11.659763736178403"><ele>93.0</ele><time>2026-05-03T07:02:46.989Z</time></trkpt><trkpt lat="45.738783420114416" lon="11.659731854798972"><ele>93.33333333333333</ele><time>2026-05-03T07:02:47.989Z</time></trkpt><trkpt lat="45.73892808521952" lon="11.659698368412034"><ele>93.66666666666666</ele><time>2026-05-03T07:02:48.989Z</time></trkpt><trkpt lat="45.739073296164335" lon="11.659659893043612"><ele>94.0</ele><time>2026-05-03T07:02:49.989Z</time></trkpt><trkpt lat="45.73924345623352" lon="11.659702488635423"><ele>95.0</ele><time>2026-05-03T07:02:50.989Z</time></trkpt><trkpt lat="45.73940473654741" lon="11.659658943896371"><ele>96.0</ele><time>2026-05-03T07:02:51.989Z</time></trkpt><trkpt lat="45.739572051302154" lon="11.659614135781384"><ele>97.0</ele><time>2026-05-03T07:02:52.989Z</time></trkpt><trkpt lat="45.73973875068611" lon="11.659570190630602"><ele>97.0</ele><time>2026-05-03T07:02:53.989Z</time></trkpt><trkpt lat="45.73990114842141" lon="11.659527379478424"><ele>97.0</ele><time>2026-05-03T07:02:54.989Z</time></trkpt><trkpt lat="45.740050218273176" lon="11.659488315405644"><ele>97.0</ele><time>2026-05-03T07:02:55.989Z</time></trkpt><trkpt lat="45.74019588369786" lon="11.659450215255752"><ele>97.25</ele><time>2026-05-03T07:02:56.989Z</time></trkpt><trkpt lat="45.74033557476612" lon="11.659397265717116"><ele>97.5</ele><time>2026-05-03T07:02:57.989Z</time></trkpt><trkpt lat="45.740471711451384" lon="11.659360621112334"><ele>97.75</ele><time>2026-05-03T07:02:58.989Z</time></trkpt><trkpt lat="45.740589728526885" lon="11.659329304967596"><ele>98.0</ele><time>2026-05-03T07:02:59.989Z</time></trkpt><trkpt lat="45.740687650236275" lon="11.659302628469602"><ele>98.0</ele><time>2026-05-03T07:03:00.989Z</time></trkpt><trkpt lat="45.74077667257944" lon="11.659288312854997"><ele>98.0</ele><time>2026-05-03T07:03:01.988Z</time></trkpt><trkpt lat="45.740861113010475" lon="11.65926796049494"><ele>98.0</ele><time>2026-05-03T07:03:02.988Z</time></trkpt><trkpt lat="45.74093830894562" lon="11.659236818528388"><ele>98.0</ele><time>2026-05-03T07:03:03.988Z</time></trkpt><trkpt lat="45.74104443057266" lon="11.659167042297867"><ele>98.0</ele><time>2026-05-03T07:03:05.988Z</time></trkpt><trkpt lat="45.74113646469331" lon="11.659132102964586"><ele>97.99999999999999</ele><time>2026-05-03T07:03:07.988Z</time></trkpt><trkpt lat="45.74120130818356" lon="11.659121375436436"><ele>98.0</ele><time>2026-05-03T07:03:08.988Z</time></trkpt><trkpt lat="45.741284543491" lon="11.659091489469017"><ele>98.0</ele><time>2026-05-03T07:03:09.988Z</time></trkpt><trkpt lat="45.74135890935635" lon="11.659042172017175"><ele>98.0</ele><time>2026-05-03T07:03:10.988Z</time></trkpt><trkpt lat="45.74143059508472" lon="11.658934956615534"><ele>97.99999999999999</ele><time>2026-05-03T07:03:11.988Z</time></trkpt><trkpt lat="45.74149118856747" lon="11.658823519560027"><ele>98.0</ele><time>2026-05-03T07:03:12.988Z</time></trkpt><trkpt lat="45.741571652157404" lon="11.658725503814217"><ele>98.0</ele><time>2026-05-03T07:03:13.988Z</time></trkpt><trkpt lat="45.74167209201082" lon="11.658654516076034"><ele>98.0</ele><time>2026-05-03T07:03:14.988Z</time></trkpt><trkpt lat="45.74179963234377" lon="11.658614912239033"><ele>98.0</ele><time>2026-05-03T07:03:15.988Z</time></trkpt><trkpt lat="45.7419312042534" lon="11.658578483504662"><ele>98.0</ele><time>2026-05-03T07:03:16.988Z</time></trkpt><trkpt lat="45.74207253607971" lon="11.658552439263943"><ele>98.0</ele><time>2026-05-03T07:03:17.988Z</time></trkpt><trkpt lat="45.7422212218147" lon="11.65854957970285"><ele>98.0</ele><time>2026-05-03T07:03:18.988Z</time></trkpt><trkpt lat="45.74236764320264" lon="11.658531670754838"><ele>98.0</ele><time>2026-05-03T07:03:19.988Z</time></trkpt><trkpt lat="45.742506478325" lon="11.65850853938256"><ele>98.0</ele><time>2026-05-03T07:03:20.988Z</time></trkpt><trkpt lat="45.74263870816117" lon="11.658496464283006"><ele>98.75</ele><time>2026-05-03T07:03:21.988Z</time></trkpt><trkpt lat="45.74277060859657" lon="11.65852172744689"><ele>99.5</ele><time>2026-05-03T07:03:22.988Z</time></trkpt><trkpt lat="45.742889851108956" lon="11.658505855993537"><ele>100.25</ele><time>2026-05-03T07:03:23.988Z</time></trkpt><trkpt lat="45.743001776200195" lon="11.658488143392265"><ele>101.0</ele><time>2026-05-03T07:03:24.988Z</time></trkpt><trkpt lat="45.743105338653336" lon="11.658472571952673"><ele>101.0</ele><time>2026-05-03T07:03:25.988Z</time></trkpt><trkpt lat="45.743207944023126" lon="11.658461861651432"><ele>101.0</ele><time>2026-05-03T07:03:26.988Z</time></trkpt><trkpt lat="45.74331623148885" lon="11.65845426325554"><ele>101.0</ele><time>2026-05-03T07:03:27.988Z</time></trkpt><trkpt lat="45.74342957167773" lon="11.658444330786066"><ele>101.0</ele><time>2026-05-03T07:03:28.988Z</time></trkpt><trkpt lat="45.743541837282706" lon="11.65842864630971"><ele>101.0</ele><time>2026-05-03T07:03:29.988Z</time></trkpt><trkpt lat="45.743649340263744" lon="11.658415846387216"><ele>100.8</ele><time>2026-05-03T07:03:30.988Z</time></trkpt><trkpt lat="45.74375563855518" lon="11.658404277328868"><ele>100.6</ele><time>2026-05-03T07:03:31.988Z</time></trkpt><trkpt lat="45.743860624343824" lon="11.65839732423544"><ele>100.4</ele><time>2026-05-03T07:03:32.988Z</time></trkpt><trkpt lat="45.7439651806204" lon="11.658389615810512"><ele>100.2</ele><time>2026-05-03T07:03:33.988Z</time></trkpt><trkpt lat="45.74407166855975" lon="11.658378065321036"><ele>100.0</ele><time>2026-05-03T07:03:34.988Z</time></trkpt><trkpt lat="45.74418665576298" lon="11.658403675953943"><ele>100.0</ele><time>2026-05-03T07:03:35.988Z</time></trkpt><trkpt lat="45.744287461230066" lon="11.658402731144863"><ele>100.0</ele><time>2026-05-03T07:03:36.988Z</time></trkpt><trkpt lat="45.74439087466147" lon="11.658397553564674"><ele>100.0</ele><time>2026-05-03T07:03:37.988Z</time></trkpt><trkpt lat="45.7444909383908" lon="11.658395058259753"><ele>100.0</ele><time>2026-05-03T07:03:38.988Z</time></trkpt><trkpt lat="45.74458854986242" lon="11.658403410244519"><ele>100.0</ele><time>2026-05-03T07:03:39.988Z</time></trkpt><trkpt lat="45.744675030629665" lon="11.65841462279694"><ele>100.00000000000001</ele><time>2026-05-03T07:03:40.988Z</time></trkpt><trkpt lat="45.74475188558764" lon="11.658427273172594"><ele>100.0</ele><time>2026-05-03T07:03:41.988Z</time></trkpt><trkpt lat="45.74482566796711" lon="11.65844367129687"><ele>100.0</ele><time>2026-05-03T07:03:42.988Z</time></trkpt><trkpt lat="45.7448963904949" lon="11.658459299257418"><ele>100.0</ele><time>2026-05-03T07:03:43.988Z</time></trkpt><trkpt lat="45.74496279800405" lon="11.658475894202605"><ele>100.00000000000001</ele><time>2026-05-03T07:03:44.988Z</time></trkpt><trkpt lat="45.74502725384829" lon="11.658490464047944"><ele>100.0</ele><time>2026-05-03T07:03:45.988Z</time></trkpt><trkpt lat="45.74514454134807" lon="11.658520926422376"><ele>100.0</ele><time>2026-05-03T07:03:47.988Z</time></trkpt><trkpt lat="45.74525002092458" lon="11.658555415394803"><ele>100.0</ele><time>2026-05-03T07:03:49.988Z</time></trkpt><trkpt lat="45.745355277591294" lon="11.658590186573573"><ele>100.0</ele><time>2026-05-03T07:03:51.988Z</time></trkpt><trkpt lat="45.745457539887056" lon="11.65863941900781"><ele>100.0</ele><time>2026-05-03T07:03:53.988Z</time></trkpt><trkpt lat="45.745548387447464" lon="11.658680434678681"><ele>100.0</ele><time>2026-05-03T07:03:55.988Z</time></trkpt><trkpt lat="45.745633331495135" lon="11.65872822579224"><ele>100.00000000000001</ele><time>2026-05-03T07:03:57.988Z</time></trkpt><trkpt lat="45.7457085531965" lon="11.65876213128245"><ele>100.0</ele><time>2026-05-03T07:03:59.988Z</time></trkpt><trkpt lat="45.74579354585955" lon="11.658799629984712"><ele>100.0</ele><time>2026-05-03T07:04:02.988Z</time></trkpt><trkpt lat="45.74589215278845" lon="11.658859963389093"><ele>100.0</ele><time>2026-05-03T07:04:04.988Z</time></trkpt><trkpt lat="45.745954033326015" lon="11.658911311643031"><ele>100.00000000000001</ele><time>2026-05-03T07:04:05.988Z</time></trkpt><trkpt lat="45.74602373318844" lon="11.658977493301926"><ele>100.0</ele><time>2026-05-03T07:04:06.988Z</time></trkpt><trkpt lat="45.746104054227104" lon="11.659069557914846"><ele>100.25</ele><time>2026-05-03T07:04:07.988Z</time></trkpt><trkpt lat="45.74619179558781" lon="11.659180860060143"><ele>100.5</ele><time>2026-05-03T07:04:08.988Z</time></trkpt><trkpt lat="45.74628780332835" lon="11.659306835483038"><ele>100.75</ele><time>2026-05-03T07:04:09.988Z</time></trkpt><trkpt lat="45.74638292724686" lon="11.659448066265234"><ele>101.0</ele><time>2026-05-03T07:04:10.988Z</time></trkpt><trkpt lat="45.74648941088845" lon="11.659599571116178"><ele>101.33333333333333</ele><time>2026-05-03T07:04:11.988Z</time></trkpt><trkpt lat="45.74660290328902" lon="11.659770673782242"><ele>101.66666666666666</ele><time>2026-05-03T07:04:12.988Z</time></trkpt><trkpt lat="45.74671639390695" lon="11.65995478235539"><ele>102.0</ele><time>2026-05-03T07:04:13.988Z</time></trkpt><trkpt lat="45.74681757511144" lon="11.660156350254223"><ele>102.0</ele><time>2026-05-03T07:04:14.988Z</time></trkpt><trkpt lat="45.74690769506314" lon="11.660367028032606"><ele>102.0</ele><time>2026-05-03T07:04:15.988Z</time></trkpt><trkpt lat="45.746972924420724" lon="11.660564351909397"><ele>102.0</ele><time>2026-05-03T07:04:16.988Z</time></trkpt><trkpt lat="45.747021836671756" lon="11.66075328979248"><ele>102.0</ele><time>2026-05-03T07:04:17.988Z</time></trkpt><trkpt lat="45.74705177526888" lon="11.660937767028873"><ele>102.0</ele><time>2026-05-03T07:04:18.988Z</time></trkpt><trkpt lat="45.74706516737191" lon="11.66109354258773"><ele>102.0</ele><time>2026-05-03T07:04:19.988Z</time></trkpt><trkpt lat="45.74706641507758" lon="11.661238143240297"><ele>102.0</ele><time>2026-05-03T07:04:20.987Z</time></trkpt><trkpt lat="45.74705709537479" lon="11.661337758512246"><ele>102.0</ele><time>2026-05-03T07:04:21.987Z</time></trkpt><trkpt lat="45.74715371422352" lon="11.661347924246362"><ele>102.19999999999999</ele><time>2026-05-03T07:04:22.987Z</time></trkpt><trkpt lat="45.74708343967389" lon="11.661521715192546"><ele>102.4</ele><time>2026-05-03T07:04:24.987Z</time></trkpt><trkpt lat="45.74714113189754" lon="11.661571233505507"><ele>102.6</ele><time>2026-05-03T07:04:25.987Z</time></trkpt><trkpt lat="45.747229738443714" lon="11.661628834691701"><ele>102.80000000000001</ele><time>2026-05-03T07:04:26.987Z</time></trkpt><trkpt lat="45.7473138442113" lon="11.661762568378272"><ele>103.0</ele><time>2026-05-03T07:04:28.988Z</time></trkpt><trkpt lat="45.74734007275425" lon="11.661846977964954"><ele>103.16666666666667</ele><time>2026-05-03T07:04:29.988Z</time></trkpt><trkpt lat="45.747363347006576" lon="11.661951287425753"><ele>103.33333333333334</ele><time>2026-05-03T07:04:30.988Z</time></trkpt><trkpt lat="45.74739369129563" lon="11.66205822930609"><ele>103.5</ele><time>2026-05-03T07:04:31.988Z</time></trkpt><trkpt lat="45.747439441416915" lon="11.66213789457706"><ele>103.66666666666666</ele><time>2026-05-03T07:04:32.988Z</time></trkpt><trkpt lat="45.747503941638634" lon="11.66216271368828"><ele>103.83333333333333</ele><time>2026-05-03T07:04:33.988Z</time></trkpt><trkpt lat="45.74757773379275" lon="11.662138740390663"><ele>104.0</ele><time>2026-05-03T07:04:34.987Z</time></trkpt><trkpt lat="45.74764787079573" lon="11.662065191295886"><ele>104.0</ele><time>2026-05-03T07:04:35.987Z</time></trkpt><trkpt lat="45.747749819507064" lon="11.662006325559876"><ele>104.0</ele><time>2026-05-03T07:04:36.988Z</time></trkpt><trkpt lat="45.74786885151493" lon="11.661975393194195"><ele>104.0</ele><time>2026-05-03T07:04:37.988Z</time></trkpt><trkpt lat="45.74799087235469" lon="11.661953869950137"><ele>104.0</ele><time>2026-05-03T07:04:38.988Z</time></trkpt><trkpt lat="45.74811073894852" lon="11.661939913348485"><ele>104.0</ele><time>2026-05-03T07:04:39.988Z</time></trkpt><trkpt lat="45.74824184777997" lon="11.661920684805931"><ele>104.0</ele><time>2026-05-03T07:04:40.988Z</time></trkpt><trkpt lat="45.74838287860028" lon="11.661907359324303"><ele>104.0</ele><time>2026-05-03T07:04:41.988Z</time></trkpt><trkpt lat="45.74852278517595" lon="11.661868895143977"><ele>104.0</ele><time>2026-05-03T07:04:42.988Z</time></trkpt><trkpt lat="45.74866120895032" lon="11.66182787172394"><ele>104.0</ele><time>2026-05-03T07:04:43.988Z</time></trkpt><trkpt lat="45.748806895480456" lon="11.661801857647474"><ele>104.0</ele><time>2026-05-03T07:04:44.988Z</time></trkpt><trkpt lat="45.74895827747274" lon="11.661776592668598"><ele>104.0</ele><time>2026-05-03T07:04:45.988Z</time></trkpt><trkpt lat="45.74911380145336" lon="11.66177202929523"><ele>104.0</ele><time>2026-05-03T07:04:46.988Z</time></trkpt><trkpt lat="45.749268305819584" lon="11.661749143750361"><ele>104.0</ele><time>2026-05-03T07:04:47.988Z</time></trkpt><trkpt lat="45.749422375441284" lon="11.66172632260077"><ele>104.0</ele><time>2026-05-03T07:04:48.988Z</time></trkpt><trkpt lat="45.74956683207281" lon="11.661704925346367"><ele>104.25</ele><time>2026-05-03T07:04:49.988Z</time></trkpt><trkpt lat="45.7497050337057" lon="11.661651546875799"><ele>104.5</ele><time>2026-05-03T07:04:50.988Z</time></trkpt><trkpt lat="45.74983272859301" lon="11.661630374949633"><ele>104.75</ele><time>2026-05-03T07:04:51.988Z</time></trkpt><trkpt lat="45.749963453148176" lon="11.661605073642187"><ele>105.0</ele><time>2026-05-03T07:04:52.988Z</time></trkpt><trkpt lat="45.750095716583225" lon="11.661579594833576"><ele>105.25</ele><time>2026-05-03T07:04:53.988Z</time></trkpt><trkpt lat="45.75022545211492" lon="11.661550000991127"><ele>105.5</ele><time>2026-05-03T07:04:54.988Z</time></trkpt><trkpt lat="45.75034907798318" lon="11.661528950566554"><ele>105.75</ele><time>2026-05-03T07:04:55.988Z</time></trkpt><trkpt lat="45.75047419413872" lon="11.661570836604804"><ele>106.0</ele><time>2026-05-03T07:04:56.988Z</time></trkpt><trkpt lat="45.75058954407135" lon="11.661553787039185"><ele>106.0</ele><time>2026-05-03T07:04:57.988Z</time></trkpt><trkpt lat="45.75070635697679" lon="11.66153652125585"><ele>106.0</ele><time>2026-05-03T07:04:58.988Z</time></trkpt><trkpt lat="45.75083051079497" lon="11.661518893052003"><ele>106.0</ele><time>2026-05-03T07:04:59.988Z</time></trkpt><trkpt lat="45.75095649508412" lon="11.661501403835153"><ele>106.0</ele><time>2026-05-03T07:05:00.988Z</time></trkpt><trkpt lat="45.751067043452906" lon="11.66148655055318"><ele>106.25</ele><time>2026-05-03T07:05:01.987Z</time></trkpt><trkpt lat="45.75117328565625" lon="11.661473638932526"><ele>106.5</ele><time>2026-05-03T07:05:02.987Z</time></trkpt><trkpt lat="45.75128804942448" lon="11.661435742852495"><ele>106.75</ele><time>2026-05-03T07:05:03.987Z</time></trkpt><trkpt lat="45.75139247499783" lon="11.661353455982354"><ele>107.0</ele><time>2026-05-03T07:05:04.987Z</time></trkpt><trkpt lat="45.75150019317519" lon="11.661260105831769"><ele>107.0</ele><time>2026-05-03T07:05:05.987Z</time></trkpt><trkpt lat="45.7516148684541" lon="11.661197996454948"><ele>107.0</ele><time>2026-05-03T07:05:06.987Z</time></trkpt><trkpt lat="45.75172804693891" lon="11.661151400685165"><ele>107.0</ele><time>2026-05-03T07:05:07.987Z</time></trkpt><trkpt lat="45.75184555259455" lon="11.661134212906925"><ele>107.0</ele><time>2026-05-03T07:05:08.987Z</time></trkpt><trkpt lat="45.75196280825076" lon="11.661132993109543"><ele>107.0</ele><time>2026-05-03T07:05:09.987Z</time></trkpt><trkpt lat="45.75208498151946" lon="11.66113451726639"><ele>107.0</ele><time>2026-05-03T07:05:10.987Z</time></trkpt><trkpt lat="45.75220197741424" lon="11.661137487325409"><ele>107.0</ele><time>2026-05-03T07:05:11.987Z</time></trkpt><trkpt lat="45.75232918779719" lon="11.661140592875626"><ele>107.0</ele><time>2026-05-03T07:05:12.987Z</time></trkpt><trkpt lat="45.7524474201522" lon="11.661053396541364"><ele>106.99999999999999</ele><time>2026-05-03T07:05:13.987Z</time></trkpt><trkpt lat="45.752557727457365" lon="11.661065818448087"><ele>107.0</ele><time>2026-05-03T07:05:14.987Z</time></trkpt><trkpt lat="45.752637127272" lon="11.66107086284566"><ele>107.0</ele><time>2026-05-03T07:05:15.987Z</time></trkpt><trkpt lat="45.75270491092317" lon="11.661070956496982"><ele>107.0</ele><time>2026-05-03T07:05:16.987Z</time></trkpt><trkpt lat="45.752774885413935" lon="11.661150342864236"><ele>106.99999999999999</ele><time>2026-05-03T07:05:17.987Z</time></trkpt><trkpt lat="45.752853115471574" lon="11.661152089230495"><ele>107.0</ele><time>2026-05-03T07:05:18.987Z</time></trkpt><trkpt lat="45.7529314131863" lon="11.66115388026613"><ele>106.8</ele><time>2026-05-03T07:05:19.987Z</time></trkpt><trkpt lat="45.75300870571571" lon="11.661155648309187"><ele>106.6</ele><time>2026-05-03T07:05:20.987Z</time></trkpt><trkpt lat="45.75308886012622" lon="11.661157481815414"><ele>106.39999999999999</ele><time>2026-05-03T07:05:21.987Z</time></trkpt><trkpt lat="45.75317422568968" lon="11.661159606599124"><ele>106.19999999999999</ele><time>2026-05-03T07:05:22.987Z</time></trkpt><trkpt lat="45.753262897116386" lon="11.661161802036265"><ele>106.0</ele><time>2026-05-03T07:05:23.987Z</time></trkpt><trkpt lat="45.75345021824347" lon="11.661166822428441"><ele>106.19999999999999</ele><time>2026-05-03T07:05:25.987Z</time></trkpt><trkpt lat="45.75355446382072" lon="11.661169672628434"><ele>106.39999999999999</ele><time>2026-05-03T07:05:26.987Z</time></trkpt><trkpt lat="45.75365413425755" lon="11.661172397750855"><ele>106.6</ele><time>2026-05-03T07:05:27.987Z</time></trkpt><trkpt lat="45.753750444018856" lon="11.661152963427705"><ele>106.8</ele><time>2026-05-03T07:05:28.987Z</time></trkpt><trkpt lat="45.753851212617036" lon="11.661169744062361"><ele>107.0</ele><time>2026-05-03T07:05:29.987Z</time></trkpt><trkpt lat="45.75394693379684" lon="11.661173248566644"><ele>107.0</ele><time>2026-05-03T07:05:30.987Z</time></trkpt><trkpt lat="45.75403820756207" lon="11.661159940597077"><ele>106.99999999999999</ele><time>2026-05-03T07:05:31.987Z</time></trkpt><trkpt lat="45.75412319670186" lon="11.661113580093895"><ele>106.99999999999999</ele><time>2026-05-03T07:05:32.987Z</time></trkpt><trkpt lat="45.754196777986444" lon="11.66102831402361"><ele>107.0</ele><time>2026-05-03T07:05:33.987Z</time></trkpt><trkpt lat="45.75425396923906" lon="11.660915224401705"><ele>107.0</ele><time>2026-05-03T07:05:34.987Z</time></trkpt><trkpt lat="45.75428985686855" lon="11.660775764014623"><ele>107.25</ele><time>2026-05-03T07:05:35.987Z</time></trkpt><trkpt lat="45.75431259481199" lon="11.660621251062734"><ele>107.5</ele><time>2026-05-03T07:05:36.987Z</time></trkpt><trkpt lat="45.75434044120793" lon="11.660462164219629"><ele>107.75</ele><time>2026-05-03T07:05:37.987Z</time></trkpt><trkpt lat="45.75436855772853" lon="11.66030738557984"><ele>108.0</ele><time>2026-05-03T07:05:38.987Z</time></trkpt><trkpt lat="45.75439593879488" lon="11.660132163034215"><ele>108.0</ele><time>2026-05-03T07:05:39.987Z</time></trkpt><trkpt lat="45.75442904381852" lon="11.659950926793126"><ele>108.0</ele><time>2026-05-03T07:05:40.987Z</time></trkpt><trkpt lat="45.754462467540115" lon="11.659758679294436"><ele>108.0</ele><time>2026-05-03T07:05:41.987Z</time></trkpt><trkpt lat="45.754488511350104" lon="11.659553256853597"><ele>108.0</ele><time>2026-05-03T07:05:42.987Z</time></trkpt><trkpt lat="45.75451571996913" lon="11.659350036186467"><ele>108.0</ele><time>2026-05-03T07:05:43.987Z</time></trkpt><trkpt lat="45.754544541428395" lon="11.659145958076012"><ele>108.0</ele><time>2026-05-03T07:05:44.987Z</time></trkpt><trkpt lat="45.754571799177036" lon="11.658950179967457"><ele>108.0</ele><time>2026-05-03T07:05:45.987Z</time></trkpt><trkpt lat="45.754595175336064" lon="11.658757878086375"><ele>108.0</ele><time>2026-05-03T07:05:46.987Z</time></trkpt><trkpt lat="45.75463687599469" lon="11.658573091237947"><ele>108.5</ele><time>2026-05-03T07:05:47.987Z</time></trkpt><trkpt lat="45.75466643014093" lon="11.658388836864736"><ele>109.0</ele><time>2026-05-03T07:05:48.987Z</time></trkpt><trkpt lat="45.754694783318286" lon="11.658212070060168"><ele>109.5</ele><time>2026-05-03T07:05:49.987Z</time></trkpt><trkpt lat="45.75472325879802" lon="11.658034540643532"><ele>110.0</ele><time>2026-05-03T07:05:50.987Z</time></trkpt><trkpt lat="45.754751176834034" lon="11.657855175773701"><ele>110.0</ele><time>2026-05-03T07:05:51.987Z</time></trkpt><trkpt lat="45.75477938914718" lon="11.657672265111042"><ele>110.0</ele><time>2026-05-03T07:05:52.987Z</time></trkpt><trkpt lat="45.75480826595087" lon="11.65748768999299"><ele>110.0</ele><time>2026-05-03T07:05:53.987Z</time></trkpt><trkpt lat="45.75483827926201" lon="11.657296824648636"><ele>110.0</ele><time>2026-05-03T07:05:54.987Z</time></trkpt><trkpt lat="45.7548557313698" lon="11.65708488732871"><ele>110.33333333333333</ele><time>2026-05-03T07:05:55.987Z</time></trkpt><trkpt lat="45.75490162853161" lon="11.65687205030711"><ele>110.66666666666666</ele><time>2026-05-03T07:05:56.987Z</time></trkpt><trkpt lat="45.75494140323407" lon="11.656656328067792"><ele>111.0</ele><time>2026-05-03T07:05:57.987Z</time></trkpt><trkpt lat="45.75497982908519" lon="11.656439896358043"><ele>111.0</ele><time>2026-05-03T07:05:58.987Z</time></trkpt><trkpt lat="45.75501802294183" lon="11.65622374297077"><ele>111.0</ele><time>2026-05-03T07:05:59.987Z</time></trkpt><trkpt lat="45.755060347699896" lon="11.65600698183658"><ele>111.0</ele><time>2026-05-03T07:06:00.987Z</time></trkpt><trkpt lat="45.7551068911483" lon="11.655792147435449"><ele>111.0</ele><time>2026-05-03T07:06:01.987Z</time></trkpt><trkpt lat="45.755167267829776" lon="11.655578363996414"><ele>111.0</ele><time>2026-05-03T07:06:02.987Z</time></trkpt><trkpt lat="45.755233973817035" lon="11.655368822092285"><ele>111.0</ele><time>2026-05-03T07:06:03.987Z</time></trkpt><trkpt lat="45.75530731361559" lon="11.655163402513862"><ele>111.33333333333334</ele><time>2026-05-03T07:06:04.987Z</time></trkpt><trkpt lat="45.75538541566175" lon="11.654957327431124"><ele>111.66666666666667</ele><time>2026-05-03T07:06:05.987Z</time></trkpt><trkpt lat="45.755464955491874" lon="11.65475214602136"><ele>112.0</ele><time>2026-05-03T07:06:06.987Z</time></trkpt><trkpt lat="45.755543267053355" lon="11.654541740310048"><ele>111.66666666666667</ele><time>2026-05-03T07:06:07.987Z</time></trkpt><trkpt lat="45.75562305755753" lon="11.65433097074182"><ele>111.33333333333334</ele><time>2026-05-03T07:06:08.987Z</time></trkpt><trkpt lat="45.75570488916548" lon="11.654114299032539"><ele>111.0</ele><time>2026-05-03T07:06:09.987Z</time></trkpt><trkpt lat="45.755785230104486" lon="11.653896683439976"><ele>111.0</ele><time>2026-05-03T07:06:10.987Z</time></trkpt><trkpt lat="45.755861476271114" lon="11.65370029354048"><ele>111.0</ele><time>2026-05-03T07:06:11.987Z</time></trkpt><trkpt lat="45.75593650889639" lon="11.653510070083232"><ele>111.0</ele><time>2026-05-03T07:06:12.987Z</time></trkpt><trkpt lat="45.756011285489535" lon="11.653313698201009"><ele>111.5</ele><time>2026-05-03T07:06:13.987Z</time></trkpt><trkpt lat="45.75608244364044" lon="11.653121781756461"><ele>112.0</ele><time>2026-05-03T07:06:14.987Z</time></trkpt><trkpt lat="45.75615761477747" lon="11.652939279273792"><ele>112.5</ele><time>2026-05-03T07:06:15.987Z</time></trkpt><trkpt lat="45.756233470244396" lon="11.652766655700963"><ele>113.0</ele><time>2026-05-03T07:06:16.987Z</time></trkpt><trkpt lat="45.756307651688374" lon="11.652605710058484"><ele>113.75</ele><time>2026-05-03T07:06:17.987Z</time></trkpt><trkpt lat="45.75638401165261" lon="11.652455802671748"><ele>114.5</ele><time>2026-05-03T07:06:18.987Z</time></trkpt><trkpt lat="45.75647239534239" lon="11.65231418809645"><ele>115.25</ele><time>2026-05-03T07:06:19.987Z</time></trkpt><trkpt lat="45.756565068127486" lon="11.652172398856347"><ele>116.0</ele><time>2026-05-03T07:06:20.987Z</time></trkpt><trkpt lat="45.75665623938734" lon="11.652036697647333"><ele>116.0</ele><time>2026-05-03T07:06:21.987Z</time></trkpt><trkpt lat="45.75674385307658" lon="11.65190015559428"><ele>116.0</ele><time>2026-05-03T07:06:22.987Z</time></trkpt><trkpt lat="45.75683028459559" lon="11.651770442807436"><ele>116.0</ele><time>2026-05-03T07:06:23.987Z</time></trkpt><trkpt lat="45.75691021609158" lon="11.651646985641818"><ele>116.0</ele><time>2026-05-03T07:06:24.986Z</time></trkpt><trkpt lat="45.75699392651131" lon="11.651522497390676"><ele>116.0</ele><time>2026-05-03T07:06:25.986Z</time></trkpt><trkpt lat="45.7570787713354" lon="11.651393449418894"><ele>116.0</ele><time>2026-05-03T07:06:26.986Z</time></trkpt><trkpt lat="45.75715961425142" lon="11.65126215239515"><ele>116.0</ele><time>2026-05-03T07:06:27.986Z</time></trkpt><trkpt lat="45.7572497117282" lon="11.651123189207544"><ele>116.0</ele><time>2026-05-03T07:06:28.986Z</time></trkpt><trkpt lat="45.757333291489644" lon="11.650970678608473"><ele>116.33333333333333</ele><time>2026-05-03T07:06:29.986Z</time></trkpt><trkpt lat="45.75739785875216" lon="11.650777667363446"><ele>116.66666666666666</ele><time>2026-05-03T07:06:30.986Z</time></trkpt><trkpt lat="45.75743999739177" lon="11.650549233402584"><ele>117.0</ele><time>2026-05-03T07:06:31.986Z</time></trkpt><trkpt lat="45.75745998226924" lon="11.650316507552526"><ele>117.33333333333334</ele><time>2026-05-03T07:06:32.986Z</time></trkpt><trkpt lat="45.75749713974616" lon="11.65008056578376"><ele>117.66666666666667</ele><time>2026-05-03T07:06:33.987Z</time></trkpt><trkpt lat="45.75754294533344" lon="11.649847131920968"><ele>118.0</ele><time>2026-05-03T07:06:34.987Z</time></trkpt><trkpt lat="45.75760798450272" lon="11.649620313663846"><ele>120.33333333333334</ele><time>2026-05-03T07:06:35.987Z</time></trkpt><trkpt lat="45.75770274531485" lon="11.649403144486797"><ele>122.66666666666666</ele><time>2026-05-03T07:06:36.987Z</time></trkpt><trkpt lat="45.75782086811252" lon="11.649193532787068"><ele>125.0</ele><time>2026-05-03T07:06:37.988Z</time></trkpt><trkpt lat="45.757946790652014" lon="11.648979660071882"><ele>125.0</ele><time>2026-05-03T07:06:38.988Z</time></trkpt><trkpt lat="45.75807289522696" lon="11.648763659399139"><ele>125.0</ele><time>2026-05-03T07:06:39.987Z</time></trkpt><trkpt lat="45.758228199179584" lon="11.648575973786716"><ele>125.0</ele><time>2026-05-03T07:06:40.988Z</time></trkpt><trkpt lat="45.75841180119522" lon="11.648457651527375"><ele>125.0</ele><time>2026-05-03T07:06:41.988Z</time></trkpt><trkpt lat="45.758607267945784" lon="11.648360781003435"><ele>125.0</ele><time>2026-05-03T07:06:42.987Z</time></trkpt><trkpt lat="45.75879918671835" lon="11.64826421382124"><ele>125.0</ele><time>2026-05-03T07:06:43.987Z</time></trkpt><trkpt lat="45.75899179608609" lon="11.648160549498396"><ele>125.0</ele><time>2026-05-03T07:06:44.987Z</time></trkpt><trkpt lat="45.75918426416431" lon="11.648045973601482"><ele>125.0</ele><time>2026-05-03T07:06:45.988Z</time></trkpt><trkpt lat="45.759374713888846" lon="11.64794017672208"><ele>125.0</ele><time>2026-05-03T07:06:46.987Z</time></trkpt><trkpt lat="45.75954834066205" lon="11.647844690149277"><ele>125.66666666666666</ele><time>2026-05-03T07:06:47.987Z</time></trkpt><trkpt lat="45.75971262652416" lon="11.64774347497668"><ele>126.33333333333334</ele><time>2026-05-03T07:06:48.987Z</time></trkpt><trkpt lat="45.75987151663619" lon="11.647662787834335"><ele>127.0</ele><time>2026-05-03T07:06:49.987Z</time></trkpt><trkpt lat="45.76002482732416" lon="11.647569855822917"><ele>127.0</ele><time>2026-05-03T07:06:50.987Z</time></trkpt><trkpt lat="45.76018658927468" lon="11.647501912897594"><ele>127.0</ele><time>2026-05-03T07:06:51.987Z</time></trkpt><trkpt lat="45.760359645546174" lon="11.647491735316121"><ele>127.0</ele><time>2026-05-03T07:06:52.987Z</time></trkpt><trkpt lat="45.76052038927454" lon="11.647496940775172"><ele>126.75</ele><time>2026-05-03T07:06:53.987Z</time></trkpt><trkpt lat="45.76066567345982" lon="11.647485518153076"><ele>126.5</ele><time>2026-05-03T07:06:54.987Z</time></trkpt><trkpt lat="45.760809866790034" lon="11.647459560769688"><ele>126.25</ele><time>2026-05-03T07:06:55.987Z</time></trkpt><trkpt lat="45.76094965335123" lon="11.647419138109973"><ele>126.0</ele><time>2026-05-03T07:06:56.987Z</time></trkpt><trkpt lat="45.761077114174796" lon="11.64734310916803"><ele>125.75</ele><time>2026-05-03T07:06:57.987Z</time></trkpt><trkpt lat="45.761181929222786" lon="11.647246955301357"><ele>125.5</ele><time>2026-05-03T07:06:58.987Z</time></trkpt><trkpt lat="45.76126859781829" lon="11.647111151099324"><ele>125.25</ele><time>2026-05-03T07:06:59.987Z</time></trkpt><trkpt lat="45.761353861166604" lon="11.646959568875886"><ele>125.0</ele><time>2026-05-03T07:07:00.987Z</time></trkpt><trkpt lat="45.76142646762744" lon="11.646828125858057"><ele>125.6</ele><time>2026-05-03T07:07:01.987Z</time></trkpt><trkpt lat="45.761493021513594" lon="11.646706983754191"><ele>126.2</ele><time>2026-05-03T07:07:02.987Z</time></trkpt><trkpt lat="45.76154974637508" lon="11.64660177520411"><ele>126.80000000000001</ele><time>2026-05-03T07:07:03.987Z</time></trkpt><trkpt lat="45.76160904038281" lon="11.6464999292733"><ele>127.4</ele><time>2026-05-03T07:07:04.987Z</time></trkpt><trkpt lat="45.76167437293711" lon="11.646390524532313"><ele>128.0</ele><time>2026-05-03T07:07:05.987Z</time></trkpt><trkpt lat="45.761747112965125" lon="11.646277806480837"><ele>128.0</ele><time>2026-05-03T07:07:06.987Z</time></trkpt><trkpt lat="45.761826970707055" lon="11.646154110500492"><ele>128.0</ele><time>2026-05-03T07:07:07.987Z</time></trkpt><trkpt lat="45.76190487487157" lon="11.646017607550306"><ele>128.0</ele><time>2026-05-03T07:07:08.987Z</time></trkpt><trkpt lat="45.76198682621691" lon="11.645881122543045"><ele>128.0</ele><time>2026-05-03T07:07:09.987Z</time></trkpt><trkpt lat="45.762063472239305" lon="11.645754000642956"><ele>128.0</ele><time>2026-05-03T07:07:10.987Z</time></trkpt><trkpt lat="45.76214478823452" lon="11.645643399580788"><ele>128.0</ele><time>2026-05-03T07:07:11.987Z</time></trkpt><trkpt lat="45.762223169535496" lon="11.645539885931868"><ele>128.0</ele><time>2026-05-03T07:07:12.987Z</time></trkpt><trkpt lat="45.7622886447297" lon="11.645401562647782"><ele>128.0</ele><time>2026-05-03T07:07:13.987Z</time></trkpt><trkpt lat="45.76234627476602" lon="11.645216206720658"><ele>128.33333333333331</ele><time>2026-05-03T07:07:14.987Z</time></trkpt><trkpt lat="45.76238551472281" lon="11.644999821963934"><ele>128.66666666666666</ele><time>2026-05-03T07:07:15.987Z</time></trkpt><trkpt lat="45.762438419736036" lon="11.644795949183889"><ele>129.0</ele><time>2026-05-03T07:07:16.987Z</time></trkpt><trkpt lat="45.76249903955691" lon="11.644591013953594"><ele>129.25</ele><time>2026-05-03T07:07:17.987Z</time></trkpt><trkpt lat="45.762565150751335" lon="11.644386236200448"><ele>129.5</ele><time>2026-05-03T07:07:18.987Z</time></trkpt><trkpt lat="45.76263461376591" lon="11.644200346395936"><ele>129.75</ele><time>2026-05-03T07:07:19.987Z</time></trkpt><trkpt lat="45.76271858074575" lon="11.644034331166061"><ele>130.0</ele><time>2026-05-03T07:07:20.987Z</time></trkpt><trkpt lat="45.76280838738877" lon="11.643879020313143"><ele>132.25</ele><time>2026-05-03T07:07:21.987Z</time></trkpt><trkpt lat="45.762869646662296" lon="11.64368152074993"><ele>134.5</ele><time>2026-05-03T07:07:22.987Z</time></trkpt><trkpt lat="45.76295883118833" lon="11.64351425772547"><ele>136.75</ele><time>2026-05-03T07:07:23.987Z</time></trkpt><trkpt lat="45.76302411528966" lon="11.643348738739697"><ele>139.0</ele><time>2026-05-03T07:07:24.987Z</time></trkpt><trkpt lat="45.76308373656212" lon="11.6432096862487"><ele>139.8</ele><time>2026-05-03T07:07:25.987Z</time></trkpt><trkpt lat="45.76315368578363" lon="11.643095169703855"><ele>140.60000000000002</ele><time>2026-05-03T07:07:26.986Z</time></trkpt><trkpt lat="45.76321032302173" lon="11.642966706160099"><ele>141.4</ele><time>2026-05-03T07:07:27.986Z</time></trkpt><trkpt lat="45.76326842731019" lon="11.642835224756196"><ele>142.20000000000002</ele><time>2026-05-03T07:07:28.986Z</time></trkpt><trkpt lat="45.76332372467475" lon="11.642700685128222"><ele>143.0</ele><time>2026-05-03T07:07:29.986Z</time></trkpt><trkpt lat="45.76337378913996" lon="11.642558616413885"><ele>143.0</ele><time>2026-05-03T07:07:30.986Z</time></trkpt><trkpt lat="45.76344498012107" lon="11.642435731126811"><ele>143.0</ele><time>2026-05-03T07:07:31.986Z</time></trkpt><trkpt lat="45.76350090589545" lon="11.642306047483762"><ele>143.0</ele><time>2026-05-03T07:07:32.986Z</time></trkpt><trkpt lat="45.76356208417688" lon="11.642177748979154"><ele>143.0</ele><time>2026-05-03T07:07:33.986Z</time></trkpt><trkpt lat="45.76362344829648" lon="11.642045049878105"><ele>143.0</ele><time>2026-05-03T07:07:34.986Z</time></trkpt><trkpt lat="45.7636848993583" lon="11.641903740384706"><ele>147.5</ele><time>2026-05-03T07:07:35.986Z</time></trkpt><trkpt lat="45.76375188591908" lon="11.641781612566676"><ele>152.0</ele><time>2026-05-03T07:07:36.986Z</time></trkpt><trkpt lat="45.76385251464629" lon="11.641672904473408"><ele>156.5</ele><time>2026-05-03T07:07:37.986Z</time></trkpt><trkpt lat="45.76397835538578" lon="11.641558671270223"><ele>161.0</ele><time>2026-05-03T07:07:38.986Z</time></trkpt><trkpt lat="45.76410215716272" lon="11.641440269995798"><ele>161.0</ele><time>2026-05-03T07:07:39.986Z</time></trkpt><trkpt lat="45.76422803836375" lon="11.641319548776803"><ele>161.0</ele><time>2026-05-03T07:07:40.986Z</time></trkpt><trkpt lat="45.764342795374674" lon="11.641204641508839"><ele>161.0</ele><time>2026-05-03T07:07:41.986Z</time></trkpt><trkpt lat="45.76442297778265" lon="11.641078832560138"><ele>161.0</ele><time>2026-05-03T07:07:42.986Z</time></trkpt><trkpt lat="45.76448035012471" lon="11.640905462815109"><ele>165.5</ele><time>2026-05-03T07:07:43.986Z</time></trkpt><trkpt lat="45.7645447329924" lon="11.640759696503135"><ele>170.0</ele><time>2026-05-03T07:07:44.986Z</time></trkpt><trkpt lat="45.7646269925584" lon="11.64048139815328"><ele>174.5</ele><time>2026-05-03T07:07:45.986Z</time></trkpt><trkpt lat="45.76470250527485" lon="11.640365378130829"><ele>179.0</ele><time>2026-05-03T07:07:46.986Z</time></trkpt><trkpt lat="45.7648012395881" lon="11.640301752259203"><ele>179.0</ele><time>2026-05-03T07:07:47.986Z</time></trkpt><trkpt lat="45.76490137716452" lon="11.640288263374096"><ele>179.0</ele><time>2026-05-03T07:07:48.986Z</time></trkpt><trkpt lat="45.76499761317114" lon="11.640329273640274"><ele>179.0</ele><time>2026-05-03T07:07:49.986Z</time></trkpt><trkpt lat="45.765111119142254" lon="11.640407806639717"><ele>179.0</ele><time>2026-05-03T07:07:50.986Z</time></trkpt><trkpt lat="45.76523041840963" lon="11.640522072664346"><ele>180.66666666666666</ele><time>2026-05-03T07:07:51.986Z</time></trkpt><trkpt lat="45.76536640193363" lon="11.640656079330187"><ele>182.33333333333334</ele><time>2026-05-03T07:07:52.986Z</time></trkpt><trkpt lat="45.765505250598544" lon="11.640791028950266"><ele>184.0</ele><time>2026-05-03T07:07:53.986Z</time></trkpt><trkpt lat="45.765639537261514" lon="11.640918326548528"><ele>184.0</ele><time>2026-05-03T07:07:54.986Z</time></trkpt><trkpt lat="45.76575365227158" lon="11.641026502349135"><ele>184.0</ele><time>2026-05-03T07:07:55.986Z</time></trkpt><trkpt lat="45.765846947544276" lon="11.641114942054289"><ele>184.0</ele><time>2026-05-03T07:07:56.986Z</time></trkpt><trkpt lat="45.765917857078854" lon="11.641182157367691"><ele>184.0</ele><time>2026-05-03T07:07:57.986Z</time></trkpt><trkpt lat="45.76599324482381" lon="11.641252184952293"><ele>184.0</ele><time>2026-05-03T07:07:58.986Z</time></trkpt><trkpt lat="45.7660678154865" lon="11.641321453554934"><ele>186.79999999999998</ele><time>2026-05-03T07:07:59.986Z</time></trkpt><trkpt lat="45.7661526652812" lon="11.641372670253828"><ele>189.6</ele><time>2026-05-03T07:08:00.986Z</time></trkpt><trkpt lat="45.76624686149979" lon="11.641442722756453"><ele>192.4</ele><time>2026-05-03T07:08:01.986Z</time></trkpt><trkpt lat="45.76635562568942" lon="11.641506038015063"><ele>195.2</ele><time>2026-05-03T07:08:02.986Z</time></trkpt><trkpt lat="45.766482190955905" lon="11.641532637435088"><ele>198.0</ele><time>2026-05-03T07:08:03.986Z</time></trkpt><trkpt lat="45.766613361553134" lon="11.64152872650604"><ele>198.0</ele><time>2026-05-03T07:08:04.986Z</time></trkpt><trkpt lat="45.766744633327995" lon="11.641511976159016"><ele>198.0</ele><time>2026-05-03T07:08:05.986Z</time></trkpt><trkpt lat="45.76687924288057" lon="11.641477229849102"><ele>198.0</ele><time>2026-05-03T07:08:06.986Z</time></trkpt><trkpt lat="45.766998004331896" lon="11.641450035088113"><ele>198.0</ele><time>2026-05-03T07:08:07.986Z</time></trkpt><trkpt lat="45.76707799912665" lon="11.64149249920013"><ele>200.2</ele><time>2026-05-03T07:08:08.986Z</time></trkpt><trkpt lat="45.76719415664743" lon="11.641553299181135"><ele>202.4</ele><time>2026-05-03T07:08:09.986Z</time></trkpt><trkpt lat="45.767310623400164" lon="11.641595269123593"><ele>204.6</ele><time>2026-05-03T07:08:10.986Z</time></trkpt><trkpt lat="45.767393479868886" lon="11.641627880316792"><ele>206.79999999999998</ele><time>2026-05-03T07:08:11.986Z</time></trkpt><trkpt lat="45.767457818782944" lon="11.641599774061358"><ele>209.0</ele><time>2026-05-03T07:08:12.986Z</time></trkpt><trkpt lat="45.76752386484134" lon="11.641518011590724"><ele>209.0</ele><time>2026-05-03T07:08:13.986Z</time></trkpt><trkpt lat="45.76758611868619" lon="11.641401583659338"><ele>209.0</ele><time>2026-05-03T07:08:14.986Z</time></trkpt><trkpt lat="45.76761753476758" lon="11.641225332071778"><ele>209.0</ele><time>2026-05-03T07:08:15.986Z</time></trkpt><trkpt lat="45.767634146620765" lon="11.641029927333147"><ele>209.0</ele><time>2026-05-03T07:08:16.986Z</time></trkpt><trkpt lat="45.767652038376795" lon="11.640875787682818"><ele>213.39999999999998</ele><time>2026-05-03T07:08:17.986Z</time></trkpt><trkpt lat="45.76769550103831" lon="11.640745193874707"><ele>217.8</ele><time>2026-05-03T07:08:18.986Z</time></trkpt><trkpt lat="45.76773309078843" lon="11.640605576026816"><ele>222.20000000000002</ele><time>2026-05-03T07:08:19.986Z</time></trkpt><trkpt lat="45.76776450496824" lon="11.640454833422396"><ele>226.60000000000002</ele><time>2026-05-03T07:08:20.986Z</time></trkpt><trkpt lat="45.76774951507135" lon="11.640286607550845"><ele>231.0</ele><time>2026-05-03T07:08:21.986Z</time></trkpt><trkpt lat="45.76771776833773" lon="11.640122057568178"><ele>225.5</ele><time>2026-05-03T07:08:22.986Z</time></trkpt><trkpt lat="45.76765975362495" lon="11.639992138261375"><ele>220.0</ele><time>2026-05-03T07:08:23.986Z</time></trkpt><trkpt lat="45.76757877714889" lon="11.639866662765558"><ele>214.5</ele><time>2026-05-03T07:08:24.986Z</time></trkpt><trkpt lat="45.767490578519805" lon="11.63974827235509"><ele>209.0</ele><time>2026-05-03T07:08:25.986Z</time></trkpt><trkpt lat="45.7674098564083" lon="11.639614255810356"><ele>209.0</ele><time>2026-05-03T07:08:26.986Z</time></trkpt><trkpt lat="45.767331065268564" lon="11.639475843095642"><ele>209.0</ele><time>2026-05-03T07:08:27.986Z</time></trkpt><trkpt lat="45.76724250776337" lon="11.639336787926826"><ele>209.0</ele><time>2026-05-03T07:08:28.986Z</time></trkpt><trkpt lat="45.76715047444787" lon="11.639201360275022"><ele>209.0</ele><time>2026-05-03T07:08:29.986Z</time></trkpt><trkpt lat="45.76704411860835" lon="11.639080481207722"><ele>208.79999999999998</ele><time>2026-05-03T07:08:30.986Z</time></trkpt><trkpt lat="45.76693493488961" lon="11.638981435483498"><ele>208.6</ele><time>2026-05-03T07:08:31.986Z</time></trkpt><trkpt lat="45.76683481486747" lon="11.638889893053054"><ele>208.4</ele><time>2026-05-03T07:08:32.986Z</time></trkpt><trkpt lat="45.76675018806488" lon="11.638815111126343"><ele>208.2</ele><time>2026-05-03T07:08:33.986Z</time></trkpt><trkpt lat="45.766673185696405" lon="11.638722824441793"><ele>208.0</ele><time>2026-05-03T07:08:34.986Z</time></trkpt><trkpt lat="45.766641966278264" lon="11.638607415711354"><ele>208.0</ele><time>2026-05-03T07:08:35.986Z</time></trkpt><trkpt lat="45.766666259521436" lon="11.638464473191272"><ele>208.0</ele><time>2026-05-03T07:08:36.986Z</time></trkpt><trkpt lat="45.766754811020355" lon="11.638349393786745"><ele>208.0</ele><time>2026-05-03T07:08:37.986Z</time></trkpt><trkpt lat="45.76687198932064" lon="11.638321837344446"><ele>208.0</ele><time>2026-05-03T07:08:38.986Z</time></trkpt><trkpt lat="45.767010355894996" lon="11.638289388136426"><ele>214.0</ele><time>2026-05-03T07:08:39.987Z</time></trkpt><trkpt lat="45.76714870581357" lon="11.638228120908718"><ele>220.0</ele><time>2026-05-03T07:08:40.987Z</time></trkpt><trkpt lat="45.76726015291455" lon="11.638147739377217"><ele>226.0</ele><time>2026-05-03T07:08:41.987Z</time></trkpt><trkpt lat="45.76734941766974" lon="11.638071950677821"><ele>232.0</ele><time>2026-05-03T07:08:42.987Z</time></trkpt><trkpt lat="45.76741941800656" lon="11.637993689625855"><ele>231.99999999999997</ele><time>2026-05-03T07:08:43.987Z</time></trkpt><trkpt lat="45.76749128273309" lon="11.637924994801624"><ele>232.0</ele><time>2026-05-03T07:08:44.987Z</time></trkpt><trkpt lat="45.76754993745517" lon="11.637875881793969"><ele>232.0</ele><time>2026-05-03T07:08:45.987Z</time></trkpt><trkpt lat="45.76761381621022" lon="11.637818974651832"><ele>232.0</ele><time>2026-05-03T07:08:46.987Z</time></trkpt><trkpt lat="45.76767649300366" lon="11.63775601281999"><ele>231.99999999999997</ele><time>2026-05-03T07:08:47.987Z</time></trkpt><trkpt lat="45.767747076394635" lon="11.63768713367653"><ele>232.0</ele><time>2026-05-03T07:08:48.987Z</time></trkpt><trkpt lat="45.767832626644086" lon="11.637597673075954"><ele>233.5</ele><time>2026-05-03T07:08:49.987Z</time></trkpt><trkpt lat="45.76792012133458" lon="11.637504867774068"><ele>235.0</ele><time>2026-05-03T07:08:50.987Z</time></trkpt><trkpt lat="45.768004321790904" lon="11.637401834684635"><ele>236.5</ele><time>2026-05-03T07:08:51.987Z</time></trkpt><trkpt lat="45.76808060341553" lon="11.637276516348221"><ele>238.0</ele><time>2026-05-03T07:08:52.987Z</time></trkpt><trkpt lat="45.76815503209879" lon="11.637145405988361"><ele>238.0</ele><time>2026-05-03T07:08:53.987Z</time></trkpt><trkpt lat="45.7682335198933" lon="11.637018464037764"><ele>238.0</ele><time>2026-05-03T07:08:54.987Z</time></trkpt><trkpt lat="45.76830924068601" lon="11.636895018310389"><ele>238.0</ele><time>2026-05-03T07:08:55.987Z</time></trkpt><trkpt lat="45.768378984641664" lon="11.636784348581477"><ele>238.0</ele><time>2026-05-03T07:08:56.987Z</time></trkpt><trkpt lat="45.76844745908929" lon="11.636672290729491"><ele>238.0</ele><time>2026-05-03T07:08:57.987Z</time></trkpt><trkpt lat="45.768507982280255" lon="11.636578965263652"><ele>239.99999999999997</ele><time>2026-05-03T07:08:58.987Z</time></trkpt><trkpt lat="45.76855796106633" lon="11.636498463139489"><ele>242.0</ele><time>2026-05-03T07:08:59.987Z</time></trkpt><trkpt lat="45.76859884455239" lon="11.636424548876487"><ele>244.0</ele><time>2026-05-03T07:09:00.987Z</time></trkpt><trkpt lat="45.768629304402474" lon="11.636296782542043"><ele>246.0</ele><time>2026-05-03T07:09:02.987Z</time></trkpt><trkpt lat="45.76864176278701" lon="11.63618168980718"><ele>247.99999999999997</ele><time>2026-05-03T07:09:05.987Z</time></trkpt><trkpt lat="45.76867115836185" lon="11.636031359348403"><ele>250.0</ele><time>2026-05-03T07:09:07.987Z</time></trkpt><trkpt lat="45.7687346799243" lon="11.635931230645117"><ele>250.0</ele><time>2026-05-03T07:09:09.987Z</time></trkpt><trkpt lat="45.76880849125156" lon="11.636108999207712"><ele>250.0</ele><time>2026-05-03T07:09:11.987Z</time></trkpt><trkpt lat="45.76879420309863" lon="11.636301250399478"><ele>250.0</ele><time>2026-05-03T07:09:12.987Z</time></trkpt><trkpt lat="45.76877801437298" lon="11.636488969940924"><ele>250.0</ele><time>2026-05-03T07:09:13.987Z</time></trkpt><trkpt lat="45.76873801393978" lon="11.63663477508994"><ele>250.4</ele><time>2026-05-03T07:09:14.987Z</time></trkpt><trkpt lat="45.76865773450612" lon="11.636728063368693"><ele>250.8</ele><time>2026-05-03T07:09:15.987Z</time></trkpt><trkpt lat="45.76856427002742" lon="11.636837454650609"><ele>251.2</ele><time>2026-05-03T07:09:16.987Z</time></trkpt><trkpt lat="45.768511736212936" lon="11.636911671411879"><ele>251.6</ele><time>2026-05-03T07:09:17.987Z</time></trkpt><trkpt lat="45.76845330052311" lon="11.637040615774394"><ele>252.0</ele><time>2026-05-03T07:09:19.987Z</time></trkpt><trkpt lat="45.76856688402668" lon="11.637112394381505"><ele>252.0</ele><time>2026-05-03T07:09:21.987Z</time></trkpt><trkpt lat="45.76867519128329" lon="11.637059161427837"><ele>252.0</ele><time>2026-05-03T07:09:22.987Z</time></trkpt><trkpt lat="45.76878191424703" lon="11.63694317026741"><ele>252.0</ele><time>2026-05-03T07:09:23.987Z</time></trkpt><trkpt lat="45.768883160542885" lon="11.636826928216609"><ele>252.0</ele><time>2026-05-03T07:09:24.987Z</time></trkpt><trkpt lat="45.76897761084368" lon="11.636741243669885"><ele>252.0</ele><time>2026-05-03T07:09:25.987Z</time></trkpt><trkpt lat="45.769067763681655" lon="11.636635599597545"><ele>252.0</ele><time>2026-05-03T07:09:26.987Z</time></trkpt><trkpt lat="45.769174915895086" lon="11.636532273909141"><ele>252.0</ele><time>2026-05-03T07:09:27.987Z</time></trkpt><trkpt lat="45.7692850869125" lon="11.636432059694096"><ele>252.0</ele><time>2026-05-03T07:09:28.987Z</time></trkpt><trkpt lat="45.76937254209058" lon="11.636324718995144"><ele>254.2</ele><time>2026-05-03T07:09:29.987Z</time></trkpt><trkpt lat="45.769448554118235" lon="11.636243311368823"><ele>256.4</ele><time>2026-05-03T07:09:30.986Z</time></trkpt><trkpt lat="45.76952728650516" lon="11.636164110403449"><ele>258.6</ele><time>2026-05-03T07:09:31.986Z</time></trkpt><trkpt lat="45.7696068555776" lon="11.6360872169145"><ele>260.8</ele><time>2026-05-03T07:09:32.986Z</time></trkpt><trkpt lat="45.769697161277975" lon="11.636043952231525"><ele>263.0</ele><time>2026-05-03T07:09:33.986Z</time></trkpt><trkpt lat="45.769781935328524" lon="11.635993931254466"><ele>263.0</ele><time>2026-05-03T07:09:34.986Z</time></trkpt><trkpt lat="45.76987557779505" lon="11.635942547332906"><ele>263.0</ele><time>2026-05-03T07:09:35.986Z</time></trkpt><trkpt lat="45.76996970651345" lon="11.635907588725344"><ele>263.0</ele><time>2026-05-03T07:09:36.986Z</time></trkpt><trkpt lat="45.7700628398779" lon="11.6358723209803"><ele>263.0</ele><time>2026-05-03T07:09:37.986Z</time></trkpt><trkpt lat="45.77015768874194" lon="11.635833686666802"><ele>263.0</ele><time>2026-05-03T07:09:38.986Z</time></trkpt><trkpt lat="45.77024761872843" lon="11.63578923601366"><ele>264.4</ele><time>2026-05-03T07:09:39.986Z</time></trkpt><trkpt lat="45.77033266585593" lon="11.635736852631272"><ele>265.8</ele><time>2026-05-03T07:09:40.986Z</time></trkpt><trkpt lat="45.770417598094085" lon="11.635669266516047"><ele>267.2</ele><time>2026-05-03T07:09:41.986Z</time></trkpt><trkpt lat="45.77050282259274" lon="11.635581707912923"><ele>268.6</ele><time>2026-05-03T07:09:42.986Z</time></trkpt><trkpt lat="45.77056666709787" lon="11.635471070297225"><ele>270.0</ele><time>2026-05-03T07:09:43.986Z</time></trkpt><trkpt lat="45.77063635454825" lon="11.635380969100042"><ele>269.5</ele><time>2026-05-03T07:09:44.986Z</time></trkpt><trkpt lat="45.77069013123167" lon="11.635300583111926"><ele>269.0</ele><time>2026-05-03T07:09:45.986Z</time></trkpt><trkpt lat="45.770747563486424" lon="11.635240811192258"><ele>268.5</ele><time>2026-05-03T07:09:46.986Z</time></trkpt><trkpt lat="45.77080223329221" lon="11.635170383161535"><ele>268.0</ele><time>2026-05-03T07:09:47.986Z</time></trkpt><trkpt lat="45.77086574221281" lon="11.63511467958806"><ele>267.5</ele><time>2026-05-03T07:09:48.986Z</time></trkpt><trkpt lat="45.7709393113459" lon="11.635076305299421"><ele>267.0</ele><time>2026-05-03T07:09:49.986Z</time></trkpt><trkpt lat="45.77101833148925" lon="11.635056810844809"><ele>270.75</ele><time>2026-05-03T07:09:50.986Z</time></trkpt><trkpt lat="45.77110782042093" lon="11.635063771499281"><ele>274.5</ele><time>2026-05-03T07:09:51.986Z</time></trkpt><trkpt lat="45.771210329272684" lon="11.635089693050165"><ele>278.25</ele><time>2026-05-03T07:09:52.986Z</time></trkpt><trkpt lat="45.77132969591108" lon="11.635122395061535"><ele>282.0</ele><time>2026-05-03T07:09:53.986Z</time></trkpt><trkpt lat="45.771467966635285" lon="11.635160895073327"><ele>282.0</ele><time>2026-05-03T07:09:54.986Z</time></trkpt><trkpt lat="45.771583891067294" lon="11.635194152141244"><ele>282.0</ele><time>2026-05-03T07:09:55.986Z</time></trkpt><trkpt lat="45.771692985243426" lon="11.635215147612621"><ele>282.0</ele><time>2026-05-03T07:09:56.986Z</time></trkpt><trkpt lat="45.77177567031731" lon="11.635226309938442"><ele>282.0</ele><time>2026-05-03T07:09:57.986Z</time></trkpt><trkpt lat="45.7718325065635" lon="11.635284878367019"><ele>282.0</ele><time>2026-05-03T07:09:58.986Z</time></trkpt><trkpt lat="45.77189432932063" lon="11.63533985994905"><ele>285.2</ele><time>2026-05-03T07:09:59.986Z</time></trkpt><trkpt lat="45.77195658647849" lon="11.635413725212223"><ele>288.4</ele><time>2026-05-03T07:10:00.986Z</time></trkpt><trkpt lat="45.771986444622364" lon="11.635512615807068"><ele>291.6</ele><time>2026-05-03T07:10:01.986Z</time></trkpt><trkpt lat="45.772017736656856" lon="11.635624547399635"><ele>294.8</ele><time>2026-05-03T07:10:03.986Z</time></trkpt><trkpt lat="45.772115118195764" lon="11.635682174897536"><ele>298.0</ele><time>2026-05-03T07:10:05.986Z</time></trkpt><trkpt lat="45.77216882590525" lon="11.635517286552085"><ele>298.0</ele><time>2026-05-03T07:10:07.986Z</time></trkpt><trkpt lat="45.77216089594484" lon="11.635370960526432"><ele>298.0</ele><time>2026-05-03T07:10:08.986Z</time></trkpt><trkpt lat="45.77214072032691" lon="11.635205906196143"><ele>298.0</ele><time>2026-05-03T07:10:09.986Z</time></trkpt><trkpt lat="45.772128939062796" lon="11.635010516368684"><ele>298.0</ele><time>2026-05-03T07:10:10.986Z</time></trkpt><trkpt lat="45.77212212087757" lon="11.634775833069257"><ele>299.3333333333333</ele><time>2026-05-03T07:10:11.986Z</time></trkpt><trkpt lat="45.7721152011646" lon="11.634504649561999"><ele>300.6666666666667</ele><time>2026-05-03T07:10:12.986Z</time></trkpt><trkpt lat="45.772114628072444" lon="11.634189211053245"><ele>302.0</ele><time>2026-05-03T07:10:13.986Z</time></trkpt><trkpt lat="45.77211459196575" lon="11.633895442084322"><ele>302.0</ele><time>2026-05-03T07:10:14.986Z</time></trkpt><trkpt lat="45.77211452139551" lon="11.633666506951041"><ele>302.0</ele><time>2026-05-03T07:10:15.986Z</time></trkpt><trkpt lat="45.772127824824366" lon="11.633496683974561"><ele>302.0</ele><time>2026-05-03T07:10:16.986Z</time></trkpt><trkpt lat="45.772112550564586" lon="11.633354646704253"><ele>302.0</ele><time>2026-05-03T07:10:17.986Z</time></trkpt><trkpt lat="45.77210618629687" lon="11.63322060971761"><ele>302.8</ele><time>2026-05-03T07:10:18.986Z</time></trkpt><trkpt lat="45.772077732874536" lon="11.633093682023876"><ele>303.6</ele><time>2026-05-03T07:10:19.986Z</time></trkpt><trkpt lat="45.77201837157568" lon="11.632988132422273"><ele>304.40000000000003</ele><time>2026-05-03T07:10:20.986Z</time></trkpt><trkpt lat="45.771958323601076" lon="11.632837564798983"><ele>305.2</ele><time>2026-05-03T07:10:21.986Z</time></trkpt><trkpt lat="45.77188058588165" lon="11.632677417256613"><ele>306.0</ele><time>2026-05-03T07:10:22.986Z</time></trkpt><trkpt lat="45.77181246577493" lon="11.632486472367662"><ele>306.0</ele><time>2026-05-03T07:10:23.986Z</time></trkpt><trkpt lat="45.77172424294164" lon="11.63231591806455"><ele>306.0</ele><time>2026-05-03T07:10:24.986Z</time></trkpt><trkpt lat="45.771662853474645" lon="11.632172120693626"><ele>306.0</ele><time>2026-05-03T07:10:25.986Z</time></trkpt><trkpt lat="45.77160295298864" lon="11.632020334606144"><ele>306.0</ele><time>2026-05-03T07:10:26.986Z</time></trkpt><trkpt lat="45.771561827432365" lon="11.63189001390053"><ele>308.0</ele><time>2026-05-03T07:10:27.986Z</time></trkpt><trkpt lat="45.77152787514489" lon="11.631741482569073"><ele>310.0</ele><time>2026-05-03T07:10:28.986Z</time></trkpt><trkpt lat="45.77151219974463" lon="11.631570788643867"><ele>312.0</ele><time>2026-05-03T07:10:29.986Z</time></trkpt><trkpt lat="45.77151001472185" lon="11.631379929967386"><ele>314.0</ele><time>2026-05-03T07:10:30.986Z</time></trkpt><trkpt lat="45.771555759531886" lon="11.631192161749247"><ele>314.75</ele><time>2026-05-03T07:10:31.986Z</time></trkpt><trkpt lat="45.77159269885534" lon="11.63098513752951"><ele>315.5</ele><time>2026-05-03T07:10:32.986Z</time></trkpt><trkpt lat="45.77163592468884" lon="11.630773345365556"><ele>316.25</ele><time>2026-05-03T07:10:33.986Z</time></trkpt><trkpt lat="45.771668750005034" lon="11.630577052254289"><ele>317.0</ele><time>2026-05-03T07:10:34.986Z</time></trkpt><trkpt lat="45.77170608448738" lon="11.630394377094506"><ele>316.25</ele><time>2026-05-03T07:10:35.986Z</time></trkpt><trkpt lat="45.771744657754624" lon="11.630216558432364"><ele>315.5</ele><time>2026-05-03T07:10:36.986Z</time></trkpt><trkpt lat="45.771782497299455" lon="11.630034562139512"><ele>314.75</ele><time>2026-05-03T07:10:37.986Z</time></trkpt><trkpt lat="45.771813807153244" lon="11.62983199906125"><ele>314.0</ele><time>2026-05-03T07:10:38.986Z</time></trkpt><trkpt lat="45.771826456682845" lon="11.629642122975948"><ele>315.4</ele><time>2026-05-03T07:10:39.986Z</time></trkpt><trkpt lat="45.77183287331012" lon="11.62945068351988"><ele>316.79999999999995</ele><time>2026-05-03T07:10:40.986Z</time></trkpt><trkpt lat="45.77182545420636" lon="11.629287523739773"><ele>318.20000000000005</ele><time>2026-05-03T07:10:41.986Z</time></trkpt><trkpt lat="45.771814467889776" lon="11.629148695152782"><ele>319.6</ele><time>2026-05-03T07:10:42.986Z</time></trkpt><trkpt lat="45.77180122729792" lon="11.629018160734041"><ele>321.0</ele><time>2026-05-03T07:10:43.986Z</time></trkpt><trkpt lat="45.771784447154694" lon="11.628869847162166"><ele>321.0</ele><time>2026-05-03T07:10:44.986Z</time></trkpt><trkpt lat="45.771755683585226" lon="11.628711373340275"><ele>321.0</ele><time>2026-05-03T07:10:45.986Z</time></trkpt><trkpt lat="45.77173888250225" lon="11.62857203176292"><ele>321.0</ele><time>2026-05-03T07:10:46.987Z</time></trkpt><trkpt lat="45.77171611303408" lon="11.628470007109136"><ele>321.0</ele><time>2026-05-03T07:10:47.987Z</time></trkpt><trkpt lat="45.77168717389062" lon="11.628341126888689"><ele>321.0</ele><time>2026-05-03T07:10:49.986Z</time></trkpt><trkpt lat="45.771656969554776" lon="11.628213893746656"><ele>322.0</ele><time>2026-05-03T07:10:51.987Z</time></trkpt><trkpt lat="45.77169711353883" lon="11.628117510073775"><ele>323.0</ele><time>2026-05-03T07:10:53.986Z</time></trkpt><trkpt lat="45.77178172322742" lon="11.628179252854059"><ele>324.0</ele><time>2026-05-03T07:10:54.986Z</time></trkpt><trkpt lat="45.771850896491905" lon="11.628294502947265"><ele>325.0</ele><time>2026-05-03T07:10:55.986Z</time></trkpt><trkpt lat="45.77193407365763" lon="11.628438957479196"><ele>326.0</ele><time>2026-05-03T07:10:56.986Z</time></trkpt><trkpt lat="45.77187652286812" lon="11.628343695811994"><ele>332.33333333333337</ele><time>2026-05-03T07:10:57.987Z</time></trkpt><trkpt lat="45.7719701195117" lon="11.628511920218411"><ele>338.6666666666667</ele><time>2026-05-03T07:10:58.987Z</time></trkpt><trkpt lat="45.77208826082263" lon="11.628718619583614"><ele>345.0</ele><time>2026-05-03T07:10:59.987Z</time></trkpt><trkpt lat="45.77221713446148" lon="11.628940384959133"><ele>345.0</ele><time>2026-05-03T07:11:00.987Z</time></trkpt><trkpt lat="45.77231218558131" lon="11.629101958602543"><ele>345.0</ele><time>2026-05-03T07:11:01.987Z</time></trkpt><trkpt lat="45.77242350702759" lon="11.629282684093754"><ele>345.0</ele><time>2026-05-03T07:11:02.987Z</time></trkpt><trkpt lat="45.772530687350454" lon="11.6295080413333"><ele>341.6666666666667</ele><time>2026-05-03T07:11:03.987Z</time></trkpt><trkpt lat="45.77262851237542" lon="11.62974629501877"><ele>338.33333333333337</ele><time>2026-05-03T07:11:04.987Z</time></trkpt><trkpt lat="45.77270400453009" lon="11.62997498713968"><ele>335.0</ele><time>2026-05-03T07:11:05.987Z</time></trkpt><trkpt lat="45.77277648383995" lon="11.630162863213716"><ele>338.2</ele><time>2026-05-03T07:11:06.987Z</time></trkpt><trkpt lat="45.77282580984357" lon="11.630336434518444"><ele>341.4</ele><time>2026-05-03T07:11:07.987Z</time></trkpt><trkpt lat="45.77287629139967" lon="11.630485537593717"><ele>344.6</ele><time>2026-05-03T07:11:08.987Z</time></trkpt><trkpt lat="45.77291675946747" lon="11.630625919077014"><ele>347.8</ele><time>2026-05-03T07:11:09.987Z</time></trkpt><trkpt lat="45.77293896876231" lon="11.630722861875105"><ele>351.0</ele><time>2026-05-03T07:11:10.987Z</time></trkpt><trkpt lat="45.772968618728434" lon="11.630835703150094"><ele>351.0</ele><time>2026-05-03T07:11:13.987Z</time></trkpt><trkpt lat="45.773007641818936" lon="11.630968515516672"><ele>351.0</ele><time>2026-05-03T07:11:17.987Z</time></trkpt><trkpt lat="45.773041255918635" lon="11.631085302212849"><ele>351.0</ele><time>2026-05-03T07:11:19.987Z</time></trkpt><trkpt lat="45.77307818317278" lon="11.631185699033095"><ele>351.0</ele><time>2026-05-03T07:11:21.986Z</time></trkpt><trkpt lat="45.77316110444553" lon="11.631147883783097"><ele>351.0</ele><time>2026-05-03T07:11:23.986Z</time></trkpt><trkpt lat="45.77320371926034" lon="11.630909697166874"><ele>351.0</ele><time>2026-05-03T07:11:25.986Z</time></trkpt><trkpt lat="45.773124394056836" lon="11.630750133370114"><ele>351.0</ele><time>2026-05-03T07:11:26.986Z</time></trkpt><trkpt lat="45.77307901251392" lon="11.630581764987438"><ele>351.0</ele><time>2026-05-03T07:11:27.986Z</time></trkpt><trkpt lat="45.77302067817254" lon="11.630370418467518"><ele>351.0</ele><time>2026-05-03T07:11:28.986Z</time></trkpt><trkpt lat="45.7729718681141" lon="11.63016470892047"><ele>354.0</ele><time>2026-05-03T07:11:29.986Z</time></trkpt><trkpt lat="45.77293385794361" lon="11.629951790790075"><ele>357.0</ele><time>2026-05-03T07:11:30.986Z</time></trkpt><trkpt lat="45.772899633431464" lon="11.629735488576047"><ele>360.0</ele><time>2026-05-03T07:11:31.986Z</time></trkpt><trkpt lat="45.77287138129607" lon="11.629523112913942"><ele>364.0</ele><time>2026-05-03T07:11:32.986Z</time></trkpt><trkpt lat="45.77283900658119" lon="11.629288865888626"><ele>368.0</ele><time>2026-05-03T07:11:33.986Z</time></trkpt><trkpt lat="45.77280465560131" lon="11.629048460675751"><ele>372.0</ele><time>2026-05-03T07:11:34.986Z</time></trkpt><trkpt lat="45.77277123640794" lon="11.628805528315192"><ele>373.5</ele><time>2026-05-03T07:11:35.986Z</time></trkpt><trkpt lat="45.77274288915739" lon="11.628573590564132"><ele>375.0</ele><time>2026-05-03T07:11:36.986Z</time></trkpt><trkpt lat="45.77274148063936" lon="11.628368668772978"><ele>376.5</ele><time>2026-05-03T07:11:37.986Z</time></trkpt><trkpt lat="45.77275977975647" lon="11.628204499757523"><ele>378.0</ele><time>2026-05-03T07:11:38.986Z</time></trkpt><trkpt lat="45.772806765726806" lon="11.628038318530288"><ele>378.0</ele><time>2026-05-03T07:11:39.986Z</time></trkpt><trkpt lat="45.77288092125824" lon="11.627857240372963"><ele>378.0</ele><time>2026-05-03T07:11:40.986Z</time></trkpt><trkpt lat="45.77295552649568" lon="11.627639351981886"><ele>378.0</ele><time>2026-05-03T07:11:41.986Z</time></trkpt><trkpt lat="45.77304279378504" lon="11.627478931704152"><ele>376.5</ele><time>2026-05-03T07:11:42.986Z</time></trkpt><trkpt lat="45.773112026748024" lon="11.62729496136535"><ele>375.0</ele><time>2026-05-03T07:11:43.986Z</time></trkpt><trkpt lat="45.7731677969235" lon="11.62710282976034"><ele>373.5</ele><time>2026-05-03T07:11:44.986Z</time></trkpt><trkpt lat="45.77319890949972" lon="11.626945772547435"><ele>372.0</ele><time>2026-05-03T07:11:45.986Z</time></trkpt><trkpt lat="45.773227081293285" lon="11.626790718860692"><ele>372.25</ele><time>2026-05-03T07:11:46.986Z</time></trkpt><trkpt lat="45.773243003080495" lon="11.626628835627136"><ele>372.5</ele><time>2026-05-03T07:11:47.986Z</time></trkpt><trkpt lat="45.77323772631465" lon="11.62644677010214"><ele>372.75</ele><time>2026-05-03T07:11:48.986Z</time></trkpt><trkpt lat="45.773199760488964" lon="11.626237293372785"><ele>373.0</ele><time>2026-05-03T07:11:49.986Z</time></trkpt><trkpt lat="45.77315389559068" lon="11.626042222650126"><ele>373.0</ele><time>2026-05-03T07:11:50.986Z</time></trkpt><trkpt lat="45.773112567298995" lon="11.625867182399517"><ele>373.0</ele><time>2026-05-03T07:11:51.986Z</time></trkpt><trkpt lat="45.77309984667334" lon="11.62569177901567"><ele>373.0</ele><time>2026-05-03T07:11:52.986Z</time></trkpt><trkpt lat="45.773080969140615" lon="11.625544382257333"><ele>373.0</ele><time>2026-05-03T07:11:53.986Z</time></trkpt><trkpt lat="45.773071556771704" lon="11.625373869929156"><ele>374.25</ele><time>2026-05-03T07:11:54.986Z</time></trkpt><trkpt lat="45.77312914001949" lon="11.625201613842751"><ele>375.5</ele><time>2026-05-03T07:11:55.986Z</time></trkpt><trkpt lat="45.77313850120663" lon="11.625036108943233"><ele>376.75</ele><time>2026-05-03T07:11:56.986Z</time></trkpt><trkpt lat="45.773146468571404" lon="11.62491913928616"><ele>378.0</ele><time>2026-05-03T07:11:57.986Z</time></trkpt><trkpt lat="45.77313170372863" lon="11.62470814814456"><ele>379.0</ele><time>2026-05-03T07:11:58.986Z</time></trkpt><trkpt lat="45.77308598106658" lon="11.62443398565791"><ele>380.0</ele><time>2026-05-03T07:11:59.986Z</time></trkpt><trkpt lat="45.77305989519828" lon="11.624078791443981"><ele>381.0</ele><time>2026-05-03T07:12:00.986Z</time></trkpt><trkpt lat="45.77306920721233" lon="11.623833421190524"><ele>381.3333333333333</ele><time>2026-05-03T07:12:01.986Z</time></trkpt><trkpt lat="45.773156169957424" lon="11.623587811862949"><ele>381.66666666666663</ele><time>2026-05-03T07:12:02.986Z</time></trkpt><trkpt lat="45.77321927533861" lon="11.623465571753606"><ele>382.0</ele><time>2026-05-03T07:12:03.986Z</time></trkpt><trkpt lat="45.77331243900995" lon="11.623280776852068"><ele>382.0</ele><time>2026-05-03T07:12:04.986Z</time></trkpt><trkpt lat="45.77337844442639" lon="11.623130043333514"><ele>382.0</ele><time>2026-05-03T07:12:05.986Z</time></trkpt><trkpt lat="45.77343026311986" lon="11.62297767416815"><ele>382.0</ele><time>2026-05-03T07:12:06.986Z</time></trkpt><trkpt lat="45.77345819819827" lon="11.622757772278607"><ele>382.0</ele><time>2026-05-03T07:12:07.986Z</time></trkpt><trkpt lat="45.77344821263859" lon="11.622589351280556"><ele>382.20000000000005</ele><time>2026-05-03T07:12:08.986Z</time></trkpt><trkpt lat="45.7734284927999" lon="11.622465514401881"><ele>382.4</ele><time>2026-05-03T07:12:09.986Z</time></trkpt><trkpt lat="45.77342229965933" lon="11.62236361618785"><ele>382.6</ele><time>2026-05-03T07:12:10.986Z</time></trkpt><trkpt lat="45.77342656080459" lon="11.622181010401286"><ele>382.79999999999995</ele><time>2026-05-03T07:12:12.986Z</time></trkpt><trkpt lat="45.77344716388798" lon="11.622083945241071"><ele>383.0</ele><time>2026-05-03T07:12:13.986Z</time></trkpt><trkpt lat="45.77348871312805" lon="11.621936622411859"><ele>386.6666666666667</ele><time>2026-05-03T07:12:15.986Z</time></trkpt><trkpt lat="45.773530820451825" lon="11.621779991543441"><ele>390.33333333333337</ele><time>2026-05-03T07:12:17.986Z</time></trkpt><trkpt lat="45.77357029910776" lon="11.621701421898745"><ele>394.0</ele><time>2026-05-03T07:12:18.986Z</time></trkpt><trkpt lat="45.773585983026855" lon="11.621612239066465"><ele>397.6666666666667</ele><time>2026-05-03T07:12:19.986Z</time></trkpt><trkpt lat="45.77359627629534" lon="11.621522977592074"><ele>401.3333333333333</ele><time>2026-05-03T07:12:20.986Z</time></trkpt><trkpt lat="45.773588654521106" lon="11.621416848107648"><ele>405.0</ele><time>2026-05-03T07:12:21.986Z</time></trkpt><trkpt lat="45.773558008605804" lon="11.62130724798465"><ele>405.0</ele><time>2026-05-03T07:12:22.986Z</time></trkpt><trkpt lat="45.773536610222486" lon="11.621220015711897"><ele>405.0</ele><time>2026-05-03T07:12:23.986Z</time></trkpt><trkpt lat="45.77349763181677" lon="11.621059527301572"><ele>405.0</ele><time>2026-05-03T07:12:25.986Z</time></trkpt><trkpt lat="45.77350708885725" lon="11.620894826933371"><ele>405.0</ele><time>2026-05-03T07:12:27.986Z</time></trkpt><trkpt lat="45.77354225709091" lon="11.620814392141986"><ele>405.0</ele><time>2026-05-03T07:12:28.986Z</time></trkpt><trkpt lat="45.77358383079951" lon="11.620730567140589"><ele>405.0</ele><time>2026-05-03T07:12:29.986Z</time></trkpt><trkpt lat="45.77362229473672" lon="11.620634544403748"><ele>405.8333333333333</ele><time>2026-05-03T07:12:30.986Z</time></trkpt><trkpt lat="45.77366907294048" lon="11.62054260371893"><ele>406.66666666666663</ele><time>2026-05-03T07:12:31.986Z</time></trkpt><trkpt lat="45.77370830647105" lon="11.62044084485671"><ele>407.5</ele><time>2026-05-03T07:12:32.986Z</time></trkpt><trkpt lat="45.77373322365467" lon="11.620333723229859"><ele>408.3333333333333</ele><time>2026-05-03T07:12:33.986Z</time></trkpt><trkpt lat="45.77374799105818" lon="11.620221930938927"><ele>409.16666666666663</ele><time>2026-05-03T07:12:34.986Z</time></trkpt><trkpt lat="45.77374127525869" lon="11.620089018654058"><ele>410.0</ele><time>2026-05-03T07:12:35.986Z</time></trkpt><trkpt lat="45.77373041569303" lon="11.619958241511299"><ele>410.4</ele><time>2026-05-03T07:12:36.986Z</time></trkpt><trkpt lat="45.77371667656616" lon="11.619822720194335"><ele>410.8</ele><time>2026-05-03T07:12:37.986Z</time></trkpt><trkpt lat="45.77370731978173" lon="11.61968370714367"><ele>411.20000000000005</ele><time>2026-05-03T07:12:38.986Z</time></trkpt><trkpt lat="45.77370507611875" lon="11.619551825728255"><ele>411.6</ele><time>2026-05-03T07:12:39.986Z</time></trkpt><trkpt lat="45.773714526606035" lon="11.619425918107524"><ele>412.0</ele><time>2026-05-03T07:12:40.986Z</time></trkpt><trkpt lat="45.773729953518185" lon="11.619301839436847"><ele>413.20000000000005</ele><time>2026-05-03T07:12:41.986Z</time></trkpt><trkpt lat="45.77374834390049" lon="11.619160088251565"><ele>414.4</ele><time>2026-05-03T07:12:42.986Z</time></trkpt><trkpt lat="45.773763493971344" lon="11.619007507358262"><ele>415.6</ele><time>2026-05-03T07:12:43.986Z</time></trkpt><trkpt lat="45.7737640908723" lon="11.618851409079966"><ele>416.79999999999995</ele><time>2026-05-03T07:12:44.986Z</time></trkpt><trkpt lat="45.77375154387958" lon="11.618693769658016"><ele>418.0</ele><time>2026-05-03T07:12:45.985Z</time></trkpt><trkpt lat="45.77371851271452" lon="11.618538904837834"><ele>418.75</ele><time>2026-05-03T07:12:46.985Z</time></trkpt><trkpt lat="45.7736844997081" lon="11.618399341725967"><ele>419.5</ele><time>2026-05-03T07:12:47.985Z</time></trkpt><trkpt lat="45.7736490675307" lon="11.618241810612751"><ele>420.25</ele><time>2026-05-03T07:12:48.985Z</time></trkpt><trkpt lat="45.77360996659805" lon="11.618083031337239"><ele>421.0</ele><time>2026-05-03T07:12:49.985Z</time></trkpt><trkpt lat="45.773575306518914" lon="11.617922514330985"><ele>421.4</ele><time>2026-05-03T07:12:50.985Z</time></trkpt><trkpt lat="45.77353148187781" lon="11.61775612342557"><ele>421.8</ele><time>2026-05-03T07:12:51.985Z</time></trkpt><trkpt lat="45.77350860871591" lon="11.617594073071547"><ele>422.2</ele><time>2026-05-03T07:12:52.986Z</time></trkpt><trkpt lat="45.77348915714061" lon="11.617468570137918"><ele>422.59999999999997</ele><time>2026-05-03T07:12:53.986Z</time></trkpt><trkpt lat="45.77347741380696" lon="11.61737237654422"><ele>423.0</ele><time>2026-05-03T07:12:54.985Z</time></trkpt><trkpt lat="45.77346822967047" lon="11.617213345018257"><ele>423.0</ele><time>2026-05-03T07:12:56.986Z</time></trkpt><trkpt lat="45.77350082355937" lon="11.617128305651674"><ele>423.0</ele><time>2026-05-03T07:12:57.986Z</time></trkpt><trkpt lat="45.77356080896037" lon="11.617065329701266"><ele>423.0</ele><time>2026-05-03T07:12:58.985Z</time></trkpt><trkpt lat="45.77363897207823" lon="11.617032424554036"><ele>423.0</ele><time>2026-05-03T07:12:59.985Z</time></trkpt><trkpt lat="45.77372139572759" lon="11.617026142595543"><ele>423.0</ele><time>2026-05-03T07:13:00.986Z</time></trkpt><trkpt lat="45.77379536210623" lon="11.617008117241992"><ele>423.0</ele><time>2026-05-03T07:13:01.985Z</time></trkpt><trkpt lat="45.773872798776615" lon="11.616994068196348"><ele>423.0</ele><time>2026-05-03T07:13:02.985Z</time></trkpt><trkpt lat="45.7739305820374" lon="11.616924481294586"><ele>423.0</ele><time>2026-05-03T07:13:03.986Z</time></trkpt><trkpt lat="45.773962386893245" lon="11.61681434690501"><ele>423.0</ele><time>2026-05-03T07:13:04.986Z</time></trkpt><trkpt lat="45.77397032944665" lon="11.616686656500297"><ele>423.0</ele><time>2026-05-03T07:13:05.986Z</time></trkpt><trkpt lat="45.77395279809351" lon="11.616554175873787"><ele>423.0</ele><time>2026-05-03T07:13:06.986Z</time></trkpt><trkpt lat="45.77391387429869" lon="11.616432412207518"><ele>423.0</ele><time>2026-05-03T07:13:07.986Z</time></trkpt><trkpt lat="45.77388378797639" lon="11.616308885658881"><ele>423.0</ele><time>2026-05-03T07:13:08.986Z</time></trkpt><trkpt lat="45.77386034355462" lon="11.616176972050006"><ele>423.0</ele><time>2026-05-03T07:13:09.986Z</time></trkpt><trkpt lat="45.773839790187964" lon="11.616048199389008"><ele>423.0</ele><time>2026-05-03T07:13:10.986Z</time></trkpt><trkpt lat="45.773817774551134" lon="11.61591630956357"><ele>423.0</ele><time>2026-05-03T07:13:11.986Z</time></trkpt><trkpt lat="45.77379823604005" lon="11.615783085368319"><ele>423.0</ele><time>2026-05-03T07:13:12.986Z</time></trkpt><trkpt lat="45.77377526139954" lon="11.615635910023196"><ele>424.59999999999997</ele><time>2026-05-03T07:13:13.986Z</time></trkpt><trkpt lat="45.773751882736796" lon="11.615481549696675"><ele>426.2</ele><time>2026-05-03T07:13:14.986Z</time></trkpt><trkpt lat="45.77372829256069" lon="11.615333430621385"><ele>427.8</ele><time>2026-05-03T07:13:15.986Z</time></trkpt><trkpt lat="45.77370724775115" lon="11.615189040639315"><ele>429.4</ele><time>2026-05-03T07:13:16.986Z</time></trkpt><trkpt lat="45.77371874976669" lon="11.615055232289377"><ele>431.0</ele><time>2026-05-03T07:13:17.986Z</time></trkpt><trkpt lat="45.77372177657212" lon="11.614946686122348"><ele>431.20000000000005</ele><time>2026-05-03T07:13:18.986Z</time></trkpt><trkpt lat="45.773715427114425" lon="11.614847652095955"><ele>431.40000000000003</ele><time>2026-05-03T07:13:19.986Z</time></trkpt><trkpt lat="45.773726196505564" lon="11.614699514509454"><ele>431.6</ele><time>2026-05-03T07:13:21.986Z</time></trkpt><trkpt lat="45.77372793081673" lon="11.614566949183322"><ele>431.8</ele><time>2026-05-03T07:13:23.986Z</time></trkpt><trkpt lat="45.77371961364707" lon="11.614402539738588"><ele>432.0</ele><time>2026-05-03T07:13:25.986Z</time></trkpt><trkpt lat="45.77371589518067" lon="11.614254902069499"><ele>432.0</ele><time>2026-05-03T07:13:27.986Z</time></trkpt><trkpt lat="45.77370454919725" lon="11.614106406207778"><ele>432.00000000000006</ele><time>2026-05-03T07:13:29.985Z</time></trkpt><trkpt lat="45.77371142135531" lon="11.613959081746929"><ele>432.00000000000006</ele><time>2026-05-03T07:13:31.985Z</time></trkpt><trkpt lat="45.77375443360713" lon="11.613821947853626"><ele>432.0</ele><time>2026-05-03T07:13:33.985Z</time></trkpt><trkpt lat="45.77384373381725" lon="11.613712828310407"><ele>432.0</ele><time>2026-05-03T07:13:35.985Z</time></trkpt><trkpt lat="45.773895288163175" lon="11.61365984412997"><ele>431.20000000000005</ele><time>2026-05-03T07:13:36.985Z</time></trkpt><trkpt lat="45.77398371166832" lon="11.61355937699473"><ele>430.40000000000003</ele><time>2026-05-03T07:13:38.985Z</time></trkpt><trkpt lat="45.77406541448155" lon="11.613439822000077"><ele>429.59999999999997</ele><time>2026-05-03T07:13:40.985Z</time></trkpt><trkpt lat="45.77414800567464" lon="11.613329097655898"><ele>428.79999999999995</ele><time>2026-05-03T07:13:42.985Z</time></trkpt><trkpt lat="45.77419404873872" lon="11.613259423929687"><ele>428.0</ele><time>2026-05-03T07:13:43.985Z</time></trkpt><trkpt lat="45.77423236378019" lon="11.613105860920255"><ele>428.0</ele><time>2026-05-03T07:13:45.985Z</time></trkpt><trkpt lat="45.774263812433176" lon="11.612951393654749"><ele>428.0</ele><time>2026-05-03T07:13:47.985Z</time></trkpt><trkpt lat="45.77386216380678" lon="11.613035933716796"><ele>428.0</ele><time>2026-05-03T07:13:48.985Z</time></trkpt><trkpt lat="45.77381484410466" lon="11.612935932298537"><ele>427.99999999999994</ele><time>2026-05-03T07:13:49.985Z</time></trkpt><trkpt lat="45.77376711136249" lon="11.612835057988455"><ele>427.99999999999994</ele><time>2026-05-03T07:13:50.985Z</time></trkpt><trkpt lat="45.773720944205" lon="11.612737492259352"><ele>428.0</ele><time>2026-05-03T07:13:51.985Z</time></trkpt><trkpt lat="45.77368228250476" lon="11.612631894135747"><ele>428.0</ele><time>2026-05-03T07:13:52.985Z</time></trkpt><trkpt lat="45.773990108644014" lon="11.612207081970766"><ele>428.0</ele><time>2026-05-03T07:13:53.985Z</time></trkpt><trkpt lat="45.7740242316187" lon="11.612074235582899"><ele>428.0</ele><time>2026-05-03T07:13:54.985Z</time></trkpt><trkpt lat="45.77406657634415" lon="11.611939516907036"><ele>428.0</ele><time>2026-05-03T07:13:55.985Z</time></trkpt><trkpt lat="45.77412594110385" lon="11.611788590434688"><ele>428.0</ele><time>2026-05-03T07:13:56.985Z</time></trkpt><trkpt lat="45.7741960643032" lon="11.611630195885988"><ele>427.4</ele><time>2026-05-03T07:13:57.985Z</time></trkpt><trkpt lat="45.77426077783626" lon="11.611465828873538"><ele>426.79999999999995</ele><time>2026-05-03T07:13:58.985Z</time></trkpt><trkpt lat="45.77432081541752" lon="11.611322488981882"><ele>426.2</ele><time>2026-05-03T07:13:59.985Z</time></trkpt><trkpt lat="45.77437537352925" lon="11.611205049142445"><ele>425.6</ele><time>2026-05-03T07:14:00.985Z</time></trkpt><trkpt lat="45.77443134898249" lon="11.611121019146823"><ele>425.0</ele><time>2026-05-03T07:14:01.985Z</time></trkpt><trkpt lat="45.77450518368539" lon="11.611064383560052"><ele>428.66666666666663</ele><time>2026-05-03T07:14:02.985Z</time></trkpt><trkpt lat="45.77458760998563" lon="11.611036615172868"><ele>432.3333333333333</ele><time>2026-05-03T07:14:03.985Z</time></trkpt><trkpt lat="45.77467581855383" lon="11.611007321157336"><ele>436.0</ele><time>2026-05-03T07:14:04.985Z</time></trkpt><trkpt lat="45.77475936725547" lon="11.610952179215474"><ele>439.66666666666663</ele><time>2026-05-03T07:14:05.985Z</time></trkpt><trkpt lat="45.774823106519584" lon="11.61087323200404"><ele>443.3333333333333</ele><time>2026-05-03T07:14:06.985Z</time></trkpt><trkpt lat="45.77486791092139" lon="11.610775834545148"><ele>447.0</ele><time>2026-05-03T07:14:07.985Z</time></trkpt><trkpt lat="45.77489582705965" lon="11.61065761014018"><ele>447.0</ele><time>2026-05-03T07:14:08.985Z</time></trkpt><trkpt lat="45.774904376144335" lon="11.610522730062987"><ele>447.00000000000006</ele><time>2026-05-03T07:14:09.985Z</time></trkpt><trkpt lat="45.77489690810849" lon="11.610379066756952"><ele>447.00000000000006</ele><time>2026-05-03T07:14:10.985Z</time></trkpt><trkpt lat="45.77489200345911" lon="11.610230256309295"><ele>447.0</ele><time>2026-05-03T07:14:11.985Z</time></trkpt><trkpt lat="45.774901115629135" lon="11.61007161376279"><ele>447.0</ele><time>2026-05-03T07:14:12.985Z</time></trkpt><trkpt lat="45.77491545685798" lon="11.609907039367519"><ele>446.25</ele><time>2026-05-03T07:14:13.985Z</time></trkpt><trkpt lat="45.774939791651846" lon="11.609737414465526"><ele>445.5</ele><time>2026-05-03T07:14:14.985Z</time></trkpt><trkpt lat="45.7749606296293" lon="11.609560330382767"><ele>444.75</ele><time>2026-05-03T07:14:15.985Z</time></trkpt><trkpt lat="45.77499443172274" lon="11.60938105494679"><ele>444.0</ele><time>2026-05-03T07:14:16.985Z</time></trkpt><trkpt lat="45.774996254138344" lon="11.609181632031097"><ele>443.75</ele><time>2026-05-03T07:14:17.985Z</time></trkpt><trkpt lat="45.77500005369401" lon="11.60899552007202"><ele>443.5</ele><time>2026-05-03T07:14:18.985Z</time></trkpt><trkpt lat="45.77501818919465" lon="11.608824777036734"><ele>443.25</ele><time>2026-05-03T07:14:19.985Z</time></trkpt><trkpt lat="45.77503210326867" lon="11.608645397284437"><ele>443.0</ele><time>2026-05-03T07:14:20.985Z</time></trkpt><trkpt lat="45.77505706454481" lon="11.608472455070856"><ele>441.66666666666663</ele><time>2026-05-03T07:14:21.985Z</time></trkpt><trkpt lat="45.77511226519937" lon="11.608278816596522"><ele>440.33333333333337</ele><time>2026-05-03T07:14:22.985Z</time></trkpt><trkpt lat="45.77519276644615" lon="11.608066481765873"><ele>439.0</ele><time>2026-05-03T07:14:23.985Z</time></trkpt><trkpt lat="45.775256422788644" lon="11.607834665886548"><ele>453.33333333333337</ele><time>2026-05-03T07:14:24.985Z</time></trkpt><trkpt lat="45.77530010185593" lon="11.607586486651792"><ele>467.66666666666663</ele><time>2026-05-03T07:14:25.985Z</time></trkpt><trkpt lat="45.77533479716955" lon="11.607364744169248"><ele>482.0</ele><time>2026-05-03T07:14:26.985Z</time></trkpt><trkpt lat="45.775370054394884" lon="11.607150079454103"><ele>480.8</ele><time>2026-05-03T07:14:27.985Z</time></trkpt><trkpt lat="45.775403320403726" lon="11.606953151476398"><ele>479.6</ele><time>2026-05-03T07:14:28.985Z</time></trkpt><trkpt lat="45.77543206780785" lon="11.606784225877242"><ele>478.40000000000003</ele><time>2026-05-03T07:14:29.985Z</time></trkpt><trkpt lat="45.775455049358996" lon="11.606649180426041"><ele>477.20000000000005</ele><time>2026-05-03T07:14:30.985Z</time></trkpt><trkpt lat="45.77547391400186" lon="11.606538327442081"><ele>476.0</ele><time>2026-05-03T07:14:31.985Z</time></trkpt><trkpt lat="45.77547797016263" lon="11.606416719504775"><ele>476.0</ele><time>2026-05-03T07:14:32.985Z</time></trkpt><trkpt lat="45.77550396327543" lon="11.6062805410912"><ele>476.0</ele><time>2026-05-03T07:14:33.985Z</time></trkpt><trkpt lat="45.7755427323224" lon="11.606138514670901"><ele>476.0</ele><time>2026-05-03T07:14:34.985Z</time></trkpt><trkpt lat="45.77557810385303" lon="11.605979569705415"><ele>476.0</ele><time>2026-05-03T07:14:35.985Z</time></trkpt><trkpt lat="45.77560915058019" lon="11.605812388498471"><ele>476.0</ele><time>2026-05-03T07:14:36.985Z</time></trkpt><trkpt lat="45.775636093097425" lon="11.605654137662405"><ele>474.4</ele><time>2026-05-03T07:14:37.985Z</time></trkpt><trkpt lat="45.775663994350275" lon="11.605526117329568"><ele>472.8</ele><time>2026-05-03T07:14:38.985Z</time></trkpt><trkpt lat="45.77569474375334" lon="11.605418905878357"><ele>471.19999999999993</ele><time>2026-05-03T07:14:39.985Z</time></trkpt><trkpt lat="45.77573149891059" lon="11.605314673067973"><ele>469.59999999999997</ele><time>2026-05-03T07:14:40.985Z</time></trkpt><trkpt lat="45.77577360708832" lon="11.605212808272473"><ele>468.0</ele><time>2026-05-03T07:14:41.985Z</time></trkpt><trkpt lat="45.77582114873425" lon="11.605065949887772"><ele>465.6666666666667</ele><time>2026-05-03T07:14:43.985Z</time></trkpt><trkpt lat="45.77586545213673" lon="11.6049712797671"><ele>463.33333333333337</ele><time>2026-05-03T07:14:45.985Z</time></trkpt><trkpt lat="45.77591643088197" lon="11.604850720497641"><ele>461.0</ele><time>2026-05-03T07:14:48.985Z</time></trkpt><trkpt lat="45.77595763592218" lon="11.604756908022216"><ele>458.6666666666667</ele><time>2026-05-03T07:14:50.985Z</time></trkpt><trkpt lat="45.77602491729681" lon="11.604762233480834"><ele>456.33333333333337</ele><time>2026-05-03T07:14:52.985Z</time></trkpt><trkpt lat="45.77600651178695" lon="11.604906120754046"><ele>454.0</ele><time>2026-05-03T07:14:54.984Z</time></trkpt><trkpt lat="45.775955450131306" lon="11.604975683830537"><ele>454.0</ele><time>2026-05-03T07:14:55.984Z</time></trkpt><trkpt lat="45.77590024620572" lon="11.605057959644485"><ele>454.0</ele><time>2026-05-03T07:14:56.984Z</time></trkpt><trkpt lat="45.77585379123255" lon="11.60515990480868"><ele>454.0</ele><time>2026-05-03T07:14:57.985Z</time></trkpt><trkpt lat="45.775813247434954" lon="11.60526558256178"><ele>454.0</ele><time>2026-05-03T07:14:58.985Z</time></trkpt><trkpt lat="45.775775051228194" lon="11.605394838502068"><ele>454.0</ele><time>2026-05-03T07:14:59.985Z</time></trkpt><trkpt lat="45.77575641149104" lon="11.60556189815211"><ele>458.6666666666667</ele><time>2026-05-03T07:15:00.985Z</time></trkpt><trkpt lat="45.77572023787842" lon="11.605736162087036"><ele>463.33333333333337</ele><time>2026-05-03T07:15:01.985Z</time></trkpt><trkpt lat="45.775706290635696" lon="11.605983734956745"><ele>468.0</ele><time>2026-05-03T07:15:02.985Z</time></trkpt><trkpt lat="45.775686277966805" lon="11.606284859917292"><ele>472.0</ele><time>2026-05-03T07:15:03.985Z</time></trkpt><trkpt lat="45.77565298186563" lon="11.606629170171264"><ele>476.0</ele><time>2026-05-03T07:15:04.985Z</time></trkpt><trkpt lat="45.77562340233012" lon="11.607012343887666"><ele>479.0</ele><time>2026-05-03T07:15:05.985Z</time></trkpt><trkpt lat="45.77560398694222" lon="11.607405775206594"><ele>482.0</ele><time>2026-05-03T07:15:06.985Z</time></trkpt><trkpt lat="45.775596341252644" lon="11.60776235694978"><ele>482.0</ele><time>2026-05-03T07:15:07.985Z</time></trkpt><trkpt lat="45.77559707122799" lon="11.608072456498387"><ele>482.0</ele><time>2026-05-03T07:15:08.985Z</time></trkpt><trkpt lat="45.775595935421045" lon="11.608336627408589"><ele>482.0</ele><time>2026-05-03T07:15:09.985Z</time></trkpt><trkpt lat="45.77559205322987" lon="11.60856884754968"><ele>481.8</ele><time>2026-05-03T07:15:10.985Z</time></trkpt><trkpt lat="45.77558683521997" lon="11.608743911426036"><ele>481.6</ele><time>2026-05-03T07:15:11.985Z</time></trkpt><trkpt lat="45.77558420899835" lon="11.608880580430474"><ele>481.40000000000003</ele><time>2026-05-03T07:15:12.985Z</time></trkpt><trkpt lat="45.77558891518347" lon="11.608984703290481"><ele>481.20000000000005</ele><time>2026-05-03T07:15:13.985Z</time></trkpt><trkpt lat="45.7756123763798" lon="11.609097328955206"><ele>481.0</ele><time>2026-05-03T07:15:15.985Z</time></trkpt><trkpt lat="45.77568958431991" lon="11.60910551541376"><ele>481.0</ele><time>2026-05-03T07:15:17.985Z</time></trkpt><trkpt lat="45.77574960400754" lon="11.608867837906644"><ele>481.0</ele><time>2026-05-03T07:15:19.985Z</time></trkpt><trkpt lat="45.77574516596057" lon="11.608678949867132"><ele>481.0</ele><time>2026-05-03T07:15:20.985Z</time></trkpt><trkpt lat="45.775745326917814" lon="11.60848964432003"><ele>481.0</ele><time>2026-05-03T07:15:21.985Z</time></trkpt><trkpt lat="45.775756715914156" lon="11.608296204261386"><ele>481.33333333333337</ele><time>2026-05-03T07:15:22.985Z</time></trkpt><trkpt lat="45.77577831343674" lon="11.608088578759023"><ele>481.66666666666663</ele><time>2026-05-03T07:15:23.985Z</time></trkpt><trkpt lat="45.77580352620707" lon="11.607867326626359"><ele>482.0</ele><time>2026-05-03T07:15:24.985Z</time></trkpt><trkpt lat="45.77583867003821" lon="11.607636472544387"><ele>482.0</ele><time>2026-05-03T07:15:25.985Z</time></trkpt><trkpt lat="45.77586860603067" lon="11.607391842750236"><ele>482.0</ele><time>2026-05-03T07:15:26.985Z</time></trkpt><trkpt lat="45.77590595307506" lon="11.60713845705791"><ele>482.0</ele><time>2026-05-03T07:15:27.985Z</time></trkpt><trkpt lat="45.77594616175379" lon="11.606890988190372"><ele>480.0</ele><time>2026-05-03T07:15:28.985Z</time></trkpt><trkpt lat="45.77598602463331" lon="11.606664463372693"><ele>478.0</ele><time>2026-05-03T07:15:29.985Z</time></trkpt><trkpt lat="45.77603197175555" lon="11.606462260874077"><ele>476.0</ele><time>2026-05-03T07:15:30.985Z</time></trkpt><trkpt lat="45.776072439361926" lon="11.606268305139054"><ele>481.0</ele><time>2026-05-03T07:15:31.985Z</time></trkpt><trkpt lat="45.77611040409165" lon="11.606093481761878"><ele>486.0</ele><time>2026-05-03T07:15:32.985Z</time></trkpt><trkpt lat="45.77613032309658" lon="11.60593116297172"><ele>491.0</ele><time>2026-05-03T07:15:33.985Z</time></trkpt><trkpt lat="45.77615586462414" lon="11.605794397710271"><ele>496.0</ele><time>2026-05-03T07:15:34.985Z</time></trkpt><trkpt lat="45.77618363651131" lon="11.605671362212021"><ele>501.0</ele><time>2026-05-03T07:15:35.985Z</time></trkpt><trkpt lat="45.776217306276905" lon="11.605560928393535"><ele>501.0</ele><time>2026-05-03T07:15:36.985Z</time></trkpt><trkpt lat="45.77625331667058" lon="11.605440983688414"><ele>501.0</ele><time>2026-05-03T07:15:37.985Z</time></trkpt><trkpt lat="45.77629579205875" lon="11.60531522210521"><ele>501.0</ele><time>2026-05-03T07:15:38.985Z</time></trkpt><trkpt lat="45.77634250128083" lon="11.605197104167544"><ele>501.0</ele><time>2026-05-03T07:15:39.985Z</time></trkpt><trkpt lat="45.77641131123039" lon="11.605111196909062"><ele>501.0</ele><time>2026-05-03T07:15:40.985Z</time></trkpt><trkpt lat="45.77649292217494" lon="11.605053795266247"><ele>500.20000000000005</ele><time>2026-05-03T07:15:41.985Z</time></trkpt><trkpt lat="45.77659379699449" lon="11.605050164626427"><ele>499.40000000000003</ele><time>2026-05-03T07:15:42.985Z</time></trkpt><trkpt lat="45.77669310533967" lon="11.605106097895119"><ele>498.6</ele><time>2026-05-03T07:15:43.985Z</time></trkpt><trkpt lat="45.776790008041175" lon="11.605204115984963"><ele>497.8</ele><time>2026-05-03T07:15:44.985Z</time></trkpt><trkpt lat="45.77687897655227" lon="11.605321446075223"><ele>497.0</ele><time>2026-05-03T07:15:45.985Z</time></trkpt><trkpt lat="45.7769668568333" lon="11.60544379035777"><ele>497.0</ele><time>2026-05-03T07:15:46.985Z</time></trkpt><trkpt lat="45.77704136384475" lon="11.605583843335218"><ele>497.0</ele><time>2026-05-03T07:15:47.985Z</time></trkpt><trkpt lat="45.777108384765505" lon="11.605722691225749"><ele>497.0</ele><time>2026-05-03T07:15:48.985Z</time></trkpt><trkpt lat="45.777172732764136" lon="11.605851826995243"><ele>497.0</ele><time>2026-05-03T07:15:49.985Z</time></trkpt><trkpt lat="45.7772450609116" lon="11.605968145471598"><ele>497.0</ele><time>2026-05-03T07:15:50.985Z</time></trkpt><trkpt lat="45.77732007646214" lon="11.606091775568542"><ele>497.00000000000006</ele><time>2026-05-03T07:15:51.985Z</time></trkpt><trkpt lat="45.77739892548699" lon="11.606190813465188"><ele>497.00000000000006</ele><time>2026-05-03T07:15:52.985Z</time></trkpt><trkpt lat="45.7774833045502" lon="11.606259908057835"><ele>497.0</ele><time>2026-05-03T07:15:53.985Z</time></trkpt><trkpt lat="45.77756436181214" lon="11.606290725353633"><ele>497.0</ele><time>2026-05-03T07:15:54.985Z</time></trkpt><trkpt lat="45.77765787042497" lon="11.606299435947363"><ele>502.0</ele><time>2026-05-03T07:15:55.985Z</time></trkpt><trkpt lat="45.77775947066518" lon="11.606263129103192"><ele>507.0</ele><time>2026-05-03T07:15:56.985Z</time></trkpt><trkpt lat="45.77785194365816" lon="11.606169706233588"><ele>512.0</ele><time>2026-05-03T07:15:57.985Z</time></trkpt><trkpt lat="45.77794802943188" lon="11.606049618120029"><ele>517.0</ele><time>2026-05-03T07:15:58.985Z</time></trkpt><trkpt lat="45.778031879932115" lon="11.605915740988909"><ele>517.0</ele><time>2026-05-03T07:15:59.985Z</time></trkpt><trkpt lat="45.77814758497435" lon="11.6058190479136"><ele>517.0</ele><time>2026-05-03T07:16:00.985Z</time></trkpt><trkpt lat="45.778257579123306" lon="11.605685208981328"><ele>517.0</ele><time>2026-05-03T07:16:01.985Z</time></trkpt><trkpt lat="45.77837968526787" lon="11.605537490736486"><ele>517.0</ele><time>2026-05-03T07:16:02.985Z</time></trkpt><trkpt lat="45.77850118239312" lon="11.605385572890256"><ele>525.0</ele><time>2026-05-03T07:16:03.985Z</time></trkpt><trkpt lat="45.77861265848284" lon="11.605220912801917"><ele>533.0</ele><time>2026-05-03T07:16:04.985Z</time></trkpt><trkpt lat="45.77871831820815" lon="11.605053113084917"><ele>541.0</ele><time>2026-05-03T07:16:05.985Z</time></trkpt><trkpt lat="45.778820183894446" lon="11.604876333774033"><ele>541.0</ele><time>2026-05-03T07:16:06.985Z</time></trkpt><trkpt lat="45.778916527946116" lon="11.604673758364418"><ele>541.0</ele><time>2026-05-03T07:16:07.985Z</time></trkpt><trkpt lat="45.77900713850796" lon="11.604470084258546"><ele>541.0</ele><time>2026-05-03T07:16:08.985Z</time></trkpt><trkpt lat="45.77910274602819" lon="11.604258286657869"><ele>541.6666666666667</ele><time>2026-05-03T07:16:09.985Z</time></trkpt><trkpt lat="45.779188516782064" lon="11.604050089154883"><ele>542.3333333333334</ele><time>2026-05-03T07:16:10.985Z</time></trkpt><trkpt lat="45.77927761244229" lon="11.603842795579983"><ele>543.0</ele><time>2026-05-03T07:16:11.985Z</time></trkpt><trkpt lat="45.77936022779781" lon="11.603644986418884"><ele>543.0</ele><time>2026-05-03T07:16:12.985Z</time></trkpt><trkpt lat="45.779448586160576" lon="11.60346485232868"><ele>543.0</ele><time>2026-05-03T07:16:13.985Z</time></trkpt><trkpt lat="45.77953655243224" lon="11.603298843213107"><ele>543.0</ele><time>2026-05-03T07:16:14.985Z</time></trkpt><trkpt lat="45.779626303404434" lon="11.603157077977293"><ele>543.0</ele><time>2026-05-03T07:16:15.985Z</time></trkpt><trkpt lat="45.77969721216999" lon="11.603015563501291"><ele>543.0</ele><time>2026-05-03T07:16:16.985Z</time></trkpt><trkpt lat="45.779783110807735" lon="11.602902115475704"><ele>543.0</ele><time>2026-05-03T07:16:17.985Z</time></trkpt><trkpt lat="45.77986093487371" lon="11.602780840701033"><ele>543.0</ele><time>2026-05-03T07:16:18.985Z</time></trkpt><trkpt lat="45.77994109722321" lon="11.60266216762562"><ele>543.0</ele><time>2026-05-03T07:16:19.985Z</time></trkpt><trkpt lat="45.78001743272914" lon="11.602569806922487"><ele>543.0</ele><time>2026-05-03T07:16:20.985Z</time></trkpt><trkpt lat="45.780098942898555" lon="11.602509713762228"><ele>539.1999999999999</ele><time>2026-05-03T07:16:21.985Z</time></trkpt><trkpt lat="45.780195920563756" lon="11.602485697230582"><ele>535.4</ele><time>2026-05-03T07:16:22.985Z</time></trkpt><trkpt lat="45.780289917165895" lon="11.602517206790212"><ele>531.5999999999999</ele><time>2026-05-03T07:16:23.985Z</time></trkpt><trkpt lat="45.78038952416055" lon="11.602574114452352"><ele>527.8</ele><time>2026-05-03T07:16:24.985Z</time></trkpt><trkpt lat="45.78049476102377" lon="11.602637905737941"><ele>524.0</ele><time>2026-05-03T07:16:25.985Z</time></trkpt><trkpt lat="45.78060671451161" lon="11.60270291025633"><ele>524.0</ele><time>2026-05-03T07:16:26.985Z</time></trkpt><trkpt lat="45.780730795450204" lon="11.602765251257253"><ele>524.0</ele><time>2026-05-03T07:16:27.985Z</time></trkpt><trkpt lat="45.780852478002544" lon="11.602810612533295"><ele>524.0</ele><time>2026-05-03T07:16:28.984Z</time></trkpt><trkpt lat="45.78098744589592" lon="11.602850367932918"><ele>524.0</ele><time>2026-05-03T07:16:29.984Z</time></trkpt><trkpt lat="45.78111937853088" lon="11.602872431717344"><ele>532.5</ele><time>2026-05-03T07:16:30.984Z</time></trkpt><trkpt lat="45.781245707356376" lon="11.602893460146849"><ele>541.0</ele><time>2026-05-03T07:16:31.984Z</time></trkpt><trkpt lat="45.781370825606544" lon="11.602916290548757"><ele>549.5</ele><time>2026-05-03T07:16:32.984Z</time></trkpt><trkpt lat="45.78149368619707" lon="11.602938930543235"><ele>558.0</ele><time>2026-05-03T07:16:33.984Z</time></trkpt><trkpt lat="45.7816068138482" lon="11.60296435369498"><ele>558.0</ele><time>2026-05-03T07:16:34.984Z</time></trkpt><trkpt lat="45.78171384455294" lon="11.60300495911446"><ele>558.0</ele><time>2026-05-03T07:16:35.984Z</time></trkpt><trkpt lat="45.78180455074267" lon="11.60307611418022"><ele>558.0</ele><time>2026-05-03T07:16:36.984Z</time></trkpt><trkpt lat="45.78187692360415" lon="11.603140783192746"><ele>558.0</ele><time>2026-05-03T07:16:37.984Z</time></trkpt><trkpt lat="45.78192731292849" lon="11.603201463766938"><ele>558.0</ele><time>2026-05-03T07:16:38.984Z</time></trkpt><trkpt lat="45.782025868741506" lon="11.603261653672323"><ele>561.0</ele><time>2026-05-03T07:16:40.984Z</time></trkpt><trkpt lat="45.78211749688054" lon="11.603178877083762"><ele>564.0</ele><time>2026-05-03T07:16:42.984Z</time></trkpt><trkpt lat="45.782129196653024" lon="11.6030458452348"><ele>567.0</ele><time>2026-05-03T07:16:43.984Z</time></trkpt><trkpt lat="45.78208519506202" lon="11.602908833552736"><ele>570.0</ele><time>2026-05-03T07:16:44.984Z</time></trkpt><trkpt lat="45.78203265889893" lon="11.602778802206736"><ele>573.0</ele><time>2026-05-03T07:16:45.984Z</time></trkpt><trkpt lat="45.781952762997875" lon="11.602658805993565"><ele>573.0</ele><time>2026-05-03T07:16:46.984Z</time></trkpt><trkpt lat="45.78189839078985" lon="11.602515932118722"><ele>573.0</ele><time>2026-05-03T07:16:47.984Z</time></trkpt><trkpt lat="45.78185070048282" lon="11.602402357148232"><ele>573.0</ele><time>2026-05-03T07:16:48.984Z</time></trkpt><trkpt lat="45.78181090624385" lon="11.602298289620565"><ele>573.0</ele><time>2026-05-03T07:16:49.984Z</time></trkpt><trkpt lat="45.78176903250756" lon="11.602198283193927"><ele>573.0</ele><time>2026-05-03T07:16:50.984Z</time></trkpt><trkpt lat="45.78173704024594" lon="11.60211794806192"><ele>573.0</ele><time>2026-05-03T07:16:51.984Z</time></trkpt><trkpt lat="45.781736385491435" lon="11.602018476799051"><ele>571.8</ele><time>2026-05-03T07:16:52.984Z</time></trkpt><trkpt lat="45.7817675993758" lon="11.601917181375605"><ele>570.5999999999999</ele><time>2026-05-03T07:16:53.984Z</time></trkpt><trkpt lat="45.78181513152515" lon="11.60182630556347"><ele>569.4000000000001</ele><time>2026-05-03T07:16:54.984Z</time></trkpt><trkpt lat="45.781863138267084" lon="11.601736768053708"><ele>568.2</ele><time>2026-05-03T07:16:55.984Z</time></trkpt><trkpt lat="45.781931268070174" lon="11.601637158484326"><ele>567.0</ele><time>2026-05-03T07:16:56.984Z</time></trkpt><trkpt lat="45.782023746494644" lon="11.601528782246698"><ele>567.0</ele><time>2026-05-03T07:16:57.984Z</time></trkpt><trkpt lat="45.78210489611014" lon="11.601393806035206"><ele>567.0</ele><time>2026-05-03T07:16:58.984Z</time></trkpt><trkpt lat="45.78218065919508" lon="11.601254825236268"><ele>567.0</ele><time>2026-05-03T07:16:59.984Z</time></trkpt><trkpt lat="45.78224823643816" lon="11.601104840467386"><ele>567.0</ele><time>2026-05-03T07:17:00.984Z</time></trkpt><trkpt lat="45.78230763837855" lon="11.600942853660674"><ele>561.75</ele><time>2026-05-03T07:17:01.984Z</time></trkpt><trkpt lat="45.78237990481107" lon="11.60078246701548"><ele>556.5</ele><time>2026-05-03T07:17:02.984Z</time></trkpt><trkpt lat="45.78245105838363" lon="11.60061636803247"><ele>551.25</ele><time>2026-05-03T07:17:03.984Z</time></trkpt><trkpt lat="45.782527244912835" lon="11.6004617276129"><ele>546.0</ele><time>2026-05-03T07:17:04.984Z</time></trkpt><trkpt lat="45.78261757861975" lon="11.600299816878362"><ele>549.3333333333334</ele><time>2026-05-03T07:17:05.984Z</time></trkpt><trkpt lat="45.78271967035895" lon="11.600151905483035"><ele>552.6666666666667</ele><time>2026-05-03T07:17:06.984Z</time></trkpt><trkpt lat="45.782836917868245" lon="11.600002095425621"><ele>556.0</ele><time>2026-05-03T07:17:07.984Z</time></trkpt><trkpt lat="45.78295549565427" lon="11.599863619483173"><ele>556.0</ele><time>2026-05-03T07:17:08.984Z</time></trkpt><trkpt lat="45.783076823438634" lon="11.59971591308119"><ele>556.0</ele><time>2026-05-03T07:17:09.984Z</time></trkpt><trkpt lat="45.783210808146876" lon="11.599584501538086"><ele>556.0</ele><time>2026-05-03T07:17:10.984Z</time></trkpt><trkpt lat="45.783333568835445" lon="11.59948387603195"><ele>555.5</ele><time>2026-05-03T07:17:11.984Z</time></trkpt><trkpt lat="45.78344986444019" lon="11.599395173897616"><ele>555.0</ele><time>2026-05-03T07:17:12.984Z</time></trkpt><trkpt lat="45.78356555045254" lon="11.59932224748621"><ele>554.5</ele><time>2026-05-03T07:17:13.985Z</time></trkpt><trkpt lat="45.783674771526734" lon="11.599258147539118"><ele>554.0</ele><time>2026-05-03T07:17:14.985Z</time></trkpt><trkpt lat="45.78376764534952" lon="11.599191073336423"><ele>554.0</ele><time>2026-05-03T07:17:15.984Z</time></trkpt><trkpt lat="45.78384415859456" lon="11.599138417804918"><ele>554.0</ele><time>2026-05-03T07:17:16.984Z</time></trkpt><trkpt lat="45.783927539657384" lon="11.59908706083027"><ele>554.0</ele><time>2026-05-03T07:17:17.984Z</time></trkpt><trkpt lat="45.78401871989935" lon="11.599042651680527"><ele>554.0</ele><time>2026-05-03T07:17:18.984Z</time></trkpt><trkpt lat="45.784093929797706" lon="11.598955017778241"><ele>554.0</ele><time>2026-05-03T07:17:19.984Z</time></trkpt><trkpt lat="45.78417987784468" lon="11.598869156794157"><ele>554.0</ele><time>2026-05-03T07:17:20.984Z</time></trkpt><trkpt lat="45.78425656160473" lon="11.598792537085108"><ele>554.0</ele><time>2026-05-03T07:17:21.984Z</time></trkpt><trkpt lat="45.78432629021048" lon="11.598721864361254"><ele>554.0</ele><time>2026-05-03T07:17:22.984Z</time></trkpt><trkpt lat="45.784388578510395" lon="11.598640812310181"><ele>554.0</ele><time>2026-05-03T07:17:23.984Z</time></trkpt><trkpt lat="45.78445010816745" lon="11.59856447748816"><ele>554.0</ele><time>2026-05-03T07:17:24.984Z</time></trkpt><trkpt lat="45.784525121910875" lon="11.598496794740068"><ele>554.0</ele><time>2026-05-03T07:17:25.984Z</time></trkpt><trkpt lat="45.784610152369176" lon="11.598416993194117"><ele>554.0</ele><time>2026-05-03T07:17:26.984Z</time></trkpt><trkpt lat="45.78472284486687" lon="11.598357541854485"><ele>554.0</ele><time>2026-05-03T07:17:27.984Z</time></trkpt><trkpt lat="45.7848413663256" lon="11.598290937654639"><ele>554.0</ele><time>2026-05-03T07:17:28.984Z</time></trkpt><trkpt lat="45.78497107376549" lon="11.59822366141048"><ele>554.0</ele><time>2026-05-03T07:17:29.984Z</time></trkpt><trkpt lat="45.78510165312113" lon="11.598161665867979"><ele>553.75</ele><time>2026-05-03T07:17:30.984Z</time></trkpt><trkpt lat="45.78525039383226" lon="11.598097838734368"><ele>553.5</ele><time>2026-05-03T07:17:31.984Z</time></trkpt><trkpt lat="45.78539028109983" lon="11.598039347916258"><ele>553.25</ele><time>2026-05-03T07:17:32.984Z</time></trkpt><trkpt lat="45.78551548142659" lon="11.597973968021423"><ele>553.0</ele><time>2026-05-03T07:17:33.984Z</time></trkpt><trkpt lat="45.78563161055656" lon="11.597893402627616"><ele>554.3333333333334</ele><time>2026-05-03T07:17:34.984Z</time></trkpt><trkpt lat="45.785760116074826" lon="11.597764921078085"><ele>555.6666666666666</ele><time>2026-05-03T07:17:35.984Z</time></trkpt><trkpt lat="45.78589270316788" lon="11.597602254033571"><ele>557.0</ele><time>2026-05-03T07:17:36.984Z</time></trkpt><trkpt lat="45.7860241028596" lon="11.597419839746943"><ele>557.0</ele><time>2026-05-03T07:17:37.984Z</time></trkpt><trkpt lat="45.786168650572826" lon="11.597269940830316"><ele>557.0</ele><time>2026-05-03T07:17:38.984Z</time></trkpt><trkpt lat="45.786292555214516" lon="11.597177523094945"><ele>557.0</ele><time>2026-05-03T07:17:39.984Z</time></trkpt><trkpt lat="45.78641104909791" lon="11.597118154207118"><ele>557.0</ele><time>2026-05-03T07:17:40.984Z</time></trkpt><trkpt lat="45.786547289747546" lon="11.597056863796297"><ele>557.0</ele><time>2026-05-03T07:17:41.984Z</time></trkpt><trkpt lat="45.786680571523895" lon="11.597049922687914"><ele>557.0</ele><time>2026-05-03T07:17:42.984Z</time></trkpt><trkpt lat="45.78680894212535" lon="11.59705069428111"><ele>557.0</ele><time>2026-05-03T07:17:43.984Z</time></trkpt><trkpt lat="45.7869334346846" lon="11.597046139741805"><ele>557.0</ele><time>2026-05-03T07:17:44.984Z</time></trkpt><trkpt lat="45.78707221751905" lon="11.596987954672347"><ele>558.0</ele><time>2026-05-03T07:17:45.984Z</time></trkpt><trkpt lat="45.78722510638835" lon="11.596921521968532"><ele>559.0</ele><time>2026-05-03T07:17:46.984Z</time></trkpt><trkpt lat="45.78737057615887" lon="11.596847085553977"><ele>560.0</ele><time>2026-05-03T07:17:47.984Z</time></trkpt><trkpt lat="45.78762938016144" lon="11.596631656094855"><ele>560.0</ele><time>2026-05-03T07:17:49.984Z</time></trkpt><trkpt lat="45.78773735752041" lon="11.59650157793193"><ele>560.0</ele><time>2026-05-03T07:17:50.984Z</time></trkpt><trkpt lat="45.78783554382318" lon="11.596363849288823"><ele>560.0</ele><time>2026-05-03T07:17:51.984Z</time></trkpt><trkpt lat="45.78794266827202" lon="11.596256657471448"><ele>560.0</ele><time>2026-05-03T07:17:52.984Z</time></trkpt><trkpt lat="45.78806943243433" lon="11.596172837967192"><ele>560.25</ele><time>2026-05-03T07:17:53.984Z</time></trkpt><trkpt lat="45.788199421072086" lon="11.596081078983554"><ele>560.5</ele><time>2026-05-03T07:17:54.984Z</time></trkpt><trkpt lat="45.788326790545746" lon="11.5959958953354"><ele>560.75</ele><time>2026-05-03T07:17:55.984Z</time></trkpt><trkpt lat="45.78845599259309" lon="11.595909870294047"><ele>561.0</ele><time>2026-05-03T07:17:56.984Z</time></trkpt><trkpt lat="45.78857781398161" lon="11.595829873823282"><ele>561.0</ele><time>2026-05-03T07:17:57.984Z</time></trkpt><trkpt lat="45.78869465507242" lon="11.595752699232213"><ele>561.0</ele><time>2026-05-03T07:17:58.984Z</time></trkpt><trkpt lat="45.78880000325107" lon="11.595659163125546"><ele>561.0</ele><time>2026-05-03T07:17:59.984Z</time></trkpt><trkpt lat="45.78893345239968" lon="11.595625292882918"><ele>561.0</ele><time>2026-05-03T07:18:00.984Z</time></trkpt><trkpt lat="45.78907037297774" lon="11.595585392740462"><ele>561.0</ele><time>2026-05-03T07:18:01.984Z</time></trkpt><trkpt lat="45.78920442387592" lon="11.595562240218277"><ele>561.0</ele><time>2026-05-03T07:18:02.984Z</time></trkpt><trkpt lat="45.78933224526394" lon="11.595557289959862"><ele>561.0</ele><time>2026-05-03T07:18:03.984Z</time></trkpt><trkpt lat="45.789458551200106" lon="11.595557289957695"><ele>561.0</ele><time>2026-05-03T07:18:04.984Z</time></trkpt><trkpt lat="45.78958939619234" lon="11.595556295013134"><ele>562.0</ele><time>2026-05-03T07:18:05.984Z</time></trkpt><trkpt lat="45.789728342100446" lon="11.595533581011987"><ele>563.0</ele><time>2026-05-03T07:18:06.984Z</time></trkpt><trkpt lat="45.789859203323914" lon="11.595478361634902"><ele>564.0</ele><time>2026-05-03T07:18:07.984Z</time></trkpt><trkpt lat="45.789970867686044" lon="11.595401266983679"><ele>565.0</ele><time>2026-05-03T07:18:08.984Z</time></trkpt><trkpt lat="45.79008877762624" lon="11.59530069986405"><ele>566.6666666666667</ele><time>2026-05-03T07:18:09.984Z</time></trkpt><trkpt lat="45.79021902550915" lon="11.595182792090723"><ele>568.3333333333334</ele><time>2026-05-03T07:18:10.984Z</time></trkpt><trkpt lat="45.790383709376414" lon="11.595033704927582"><ele>570.0</ele><time>2026-05-03T07:18:11.984Z</time></trkpt><trkpt lat="45.79054670730949" lon="11.594886144028338"><ele>570.0</ele><time>2026-05-03T07:18:12.984Z</time></trkpt><trkpt lat="45.79070541412923" lon="11.594745232529897"><ele>570.0</ele><time>2026-05-03T07:18:13.984Z</time></trkpt><trkpt lat="45.79086537356142" lon="11.594637897960625"><ele>570.0</ele><time>2026-05-03T07:18:14.984Z</time></trkpt><trkpt lat="45.791018040635166" lon="11.594548748878163"><ele>570.4</ele><time>2026-05-03T07:18:15.984Z</time></trkpt><trkpt lat="45.79114475596968" lon="11.594468316491023"><ele>570.8</ele><time>2026-05-03T07:18:16.984Z</time></trkpt><trkpt lat="45.79123520252791" lon="11.594439779688207"><ele>571.2</ele><time>2026-05-03T07:18:17.983Z</time></trkpt><trkpt lat="45.791324866371404" lon="11.594391450846858"><ele>571.6</ele><time>2026-05-03T07:18:18.983Z</time></trkpt><trkpt lat="45.79142000522752" lon="11.59434578200495"><ele>572.0</ele><time>2026-05-03T07:18:19.983Z</time></trkpt><trkpt lat="45.79150026530493" lon="11.59427972711063"><ele>572.0</ele><time>2026-05-03T07:18:20.983Z</time></trkpt><trkpt lat="45.791585765556825" lon="11.594212503707217"><ele>572.0</ele><time>2026-05-03T07:18:21.983Z</time></trkpt><trkpt lat="45.79167399346041" lon="11.59407144718576"><ele>572.0</ele><time>2026-05-03T07:18:23.983Z</time></trkpt><trkpt lat="45.791613556180295" lon="11.593892542575553"><ele>572.0</ele><time>2026-05-03T07:18:25.983Z</time></trkpt><trkpt lat="45.79154618924788" lon="11.593754622346754"><ele>572.6666666666666</ele><time>2026-05-03T07:18:26.983Z</time></trkpt><trkpt lat="45.79145598908174" lon="11.593581551539119"><ele>573.3333333333334</ele><time>2026-05-03T07:18:27.983Z</time></trkpt><trkpt lat="45.79136832593703" lon="11.593386519929672"><ele>574.0</ele><time>2026-05-03T07:18:28.983Z</time></trkpt><trkpt lat="45.79131152431648" lon="11.593147806417644"><ele>574.0</ele><time>2026-05-03T07:18:29.983Z</time></trkpt><trkpt lat="45.79125614620411" lon="11.592908117802672"><ele>574.0</ele><time>2026-05-03T07:18:30.983Z</time></trkpt><trkpt lat="45.791198471283685" lon="11.592637626385951"><ele>574.0</ele><time>2026-05-03T07:18:31.983Z</time></trkpt><trkpt lat="45.791141888351014" lon="11.592371799297114"><ele>575.0</ele><time>2026-05-03T07:18:32.983Z</time></trkpt><trkpt lat="45.791096801256344" lon="11.592127410151734"><ele>576.0</ele><time>2026-05-03T07:18:33.983Z</time></trkpt><trkpt lat="45.791069822720495" lon="11.591915521444712"><ele>577.0</ele><time>2026-05-03T07:18:34.983Z</time></trkpt><trkpt lat="45.79107185909026" lon="11.591748284882764"><ele>578.0</ele><time>2026-05-03T07:18:35.983Z</time></trkpt><trkpt lat="45.79108917307345" lon="11.591515762882796"><ele>579.0</ele><time>2026-05-03T07:18:36.983Z</time></trkpt><trkpt lat="45.79108694573009" lon="11.591276676545096"><ele>580.0</ele><time>2026-05-03T07:18:37.983Z</time></trkpt><trkpt lat="45.79105200371829" lon="11.59102920338874"><ele>581.0</ele><time>2026-05-03T07:18:38.983Z</time></trkpt><trkpt lat="45.7910106919464" lon="11.590803443751247"><ele>582.6666666666666</ele><time>2026-05-03T07:18:39.983Z</time></trkpt><trkpt lat="45.790971953313296" lon="11.590600788036687"><ele>584.3333333333334</ele><time>2026-05-03T07:18:40.983Z</time></trkpt><trkpt lat="45.79092951503623" lon="11.590379096706766"><ele>586.0</ele><time>2026-05-03T07:18:41.983Z</time></trkpt><trkpt lat="45.79088291568183" lon="11.590138857769102"><ele>586.0</ele><time>2026-05-03T07:18:42.983Z</time></trkpt><trkpt lat="45.79081756695178" lon="11.589875026508327"><ele>586.0</ele><time>2026-05-03T07:18:43.983Z</time></trkpt><trkpt lat="45.79072747332026" lon="11.589561627874485"><ele>586.0</ele><time>2026-05-03T07:18:44.983Z</time></trkpt><trkpt lat="45.79062606363388" lon="11.589249468583624"><ele>588.5</ele><time>2026-05-03T07:18:45.983Z</time></trkpt><trkpt lat="45.790527390560335" lon="11.588897515343502"><ele>591.0</ele><time>2026-05-03T07:18:46.983Z</time></trkpt><trkpt lat="45.790449415129146" lon="11.588557971237808"><ele>593.3333333333334</ele><time>2026-05-03T07:18:47.983Z</time></trkpt><trkpt lat="45.79038483307061" lon="11.588253820478448"><ele>595.6666666666667</ele><time>2026-05-03T07:18:48.983Z</time></trkpt><trkpt lat="45.79032654119583" lon="11.58797470014721"><ele>598.0</ele><time>2026-05-03T07:18:49.983Z</time></trkpt><trkpt lat="45.7902615619269" lon="11.587725026471718"><ele>598.25</ele><time>2026-05-03T07:18:50.983Z</time></trkpt><trkpt lat="45.79022084219442" lon="11.587507084787541"><ele>598.5</ele><time>2026-05-03T07:18:51.983Z</time></trkpt><trkpt lat="45.790182334534975" lon="11.587321426470098"><ele>598.75</ele><time>2026-05-03T07:18:52.983Z</time></trkpt><trkpt lat="45.79015267772397" lon="11.58715186155514"><ele>599.0</ele><time>2026-05-03T07:18:53.983Z</time></trkpt><trkpt lat="45.79012266896884" lon="11.58700311167894"><ele>599.4</ele><time>2026-05-03T07:18:54.983Z</time></trkpt><trkpt lat="45.79009337946954" lon="11.58687247435329"><ele>599.8</ele><time>2026-05-03T07:18:55.983Z</time></trkpt><trkpt lat="45.79006881415299" lon="11.586763819377676"><ele>600.2</ele><time>2026-05-03T07:18:56.983Z</time></trkpt><trkpt lat="45.79001780813657" lon="11.586637337152718"><ele>600.6</ele><time>2026-05-03T07:18:57.983Z</time></trkpt><trkpt lat="45.78996101639617" lon="11.586504673611008"><ele>601.0</ele><time>2026-05-03T07:18:58.983Z</time></trkpt><trkpt lat="45.78992170031603" lon="11.58635312344457"><ele>601.0</ele><time>2026-05-03T07:18:59.983Z</time></trkpt><trkpt lat="45.78989381689995" lon="11.58619465242966"><ele>601.0</ele><time>2026-05-03T07:19:00.983Z</time></trkpt><trkpt lat="45.78986471372206" lon="11.586040833326544"><ele>601.0</ele><time>2026-05-03T07:19:01.983Z</time></trkpt><trkpt lat="45.78982056982501" lon="11.585898855208065"><ele>601.0</ele><time>2026-05-03T07:19:02.983Z</time></trkpt><trkpt lat="45.78976886371078" lon="11.585757752040296"><ele>601.0</ele><time>2026-05-03T07:19:03.983Z</time></trkpt><trkpt lat="45.78973103257107" lon="11.585605839423913"><ele>601.2</ele><time>2026-05-03T07:19:04.983Z</time></trkpt><trkpt lat="45.789696205474165" lon="11.585446162492271"><ele>601.4000000000001</ele><time>2026-05-03T07:19:05.983Z</time></trkpt><trkpt lat="45.789667020787576" lon="11.585296136562683"><ele>601.6</ele><time>2026-05-03T07:19:06.983Z</time></trkpt><trkpt lat="45.78963843946419" lon="11.585145397501792"><ele>601.8000000000001</ele><time>2026-05-03T07:19:07.983Z</time></trkpt><trkpt lat="45.78960710930715" lon="11.584997947164767"><ele>602.0</ele><time>2026-05-03T07:19:08.983Z</time></trkpt><trkpt lat="45.7895804676866" lon="11.584845835437484"><ele>603.75</ele><time>2026-05-03T07:19:09.984Z</time></trkpt><trkpt lat="45.78956750981958" lon="11.584675132224792"><ele>605.5</ele><time>2026-05-03T07:19:10.984Z</time></trkpt><trkpt lat="45.789569924313035" lon="11.584489311361816"><ele>607.25</ele><time>2026-05-03T07:19:11.984Z</time></trkpt><trkpt lat="45.78958517310024" lon="11.584290818758923"><ele>609.0</ele><time>2026-05-03T07:19:12.984Z</time></trkpt><trkpt lat="45.789599378464516" lon="11.584080162382225"><ele>611.0</ele><time>2026-05-03T07:19:13.984Z</time></trkpt><trkpt lat="45.78961788732233" lon="11.583852326950637"><ele>613.0</ele><time>2026-05-03T07:19:14.984Z</time></trkpt><trkpt lat="45.789633251716246" lon="11.58361435387825"><ele>615.0</ele><time>2026-05-03T07:19:15.983Z</time></trkpt><trkpt lat="45.78964199103603" lon="11.583389558435261"><ele>616.0</ele><time>2026-05-03T07:19:16.983Z</time></trkpt><trkpt lat="45.78966832144755" lon="11.583214061246357"><ele>617.0</ele><time>2026-05-03T07:19:17.983Z</time></trkpt><trkpt lat="45.78967687607173" lon="11.58308225279095"><ele>618.0</ele><time>2026-05-03T07:19:18.984Z</time></trkpt><trkpt lat="45.789670600197425" lon="11.58296737448981"><ele>619.0</ele><time>2026-05-03T07:19:19.984Z</time></trkpt><trkpt lat="45.789646624042696" lon="11.582880904090375"><ele>620.0</ele><time>2026-05-03T07:19:20.984Z</time></trkpt><trkpt lat="45.78952825870041" lon="11.582853358696632"><ele>620.0</ele><time>2026-05-03T07:19:22.984Z</time></trkpt><trkpt lat="45.78943479910843" lon="11.583007495130577"><ele>620.0</ele><time>2026-05-03T07:19:24.984Z</time></trkpt><trkpt lat="45.789398453233716" lon="11.583125757882435"><ele>620.0</ele><time>2026-05-03T07:19:25.984Z</time></trkpt><trkpt lat="45.78936474635152" lon="11.58323351379153"><ele>620.0</ele><time>2026-05-03T07:19:26.984Z</time></trkpt><trkpt lat="45.78932871078051" lon="11.583357848012213"><ele>620.0</ele><time>2026-05-03T07:19:27.984Z</time></trkpt><trkpt lat="45.789282209399005" lon="11.583498859222342"><ele>619.8</ele><time>2026-05-03T07:19:28.984Z</time></trkpt><trkpt lat="45.78923384556436" lon="11.58363070539351"><ele>619.6</ele><time>2026-05-03T07:19:29.984Z</time></trkpt><trkpt lat="45.789167066180646" lon="11.583719512622862"><ele>619.4</ele><time>2026-05-03T07:19:30.984Z</time></trkpt><trkpt lat="45.789105587638375" lon="11.583810802342015"><ele>619.2</ele><time>2026-05-03T07:19:31.984Z</time></trkpt><trkpt lat="45.7890239451928" lon="11.583826197348898"><ele>619.0</ele><time>2026-05-03T07:19:32.984Z</time></trkpt><trkpt lat="45.78894125983372" lon="11.583791085562739"><ele>619.0</ele><time>2026-05-03T07:19:33.984Z</time></trkpt><trkpt lat="45.7888316977886" lon="11.583747985669936"><ele>619.0</ele><time>2026-05-03T07:19:34.984Z</time></trkpt><trkpt lat="45.78871267773077" lon="11.583643747960938"><ele>619.0</ele><time>2026-05-03T07:19:35.984Z</time></trkpt><trkpt lat="45.78861128775516" lon="11.58351296135259"><ele>619.0</ele><time>2026-05-03T07:19:36.984Z</time></trkpt><trkpt lat="45.788525288146495" lon="11.58335110680818"><ele>619.75</ele><time>2026-05-03T07:19:37.984Z</time></trkpt><trkpt lat="45.788406314182026" lon="11.583220794479912"><ele>620.5</ele><time>2026-05-03T07:19:38.984Z</time></trkpt><trkpt lat="45.78830286341171" lon="11.58307908265528"><ele>621.25</ele><time>2026-05-03T07:19:39.984Z</time></trkpt><trkpt lat="45.78821672086019" lon="11.582949111709544"><ele>622.0</ele><time>2026-05-03T07:19:40.984Z</time></trkpt><trkpt lat="45.788124844911586" lon="11.582836370255954"><ele>624.4</ele><time>2026-05-03T07:19:41.984Z</time></trkpt><trkpt lat="45.788034390062236" lon="11.582731185980338"><ele>626.8000000000001</ele><time>2026-05-03T07:19:42.984Z</time></trkpt><trkpt lat="45.78794326711073" lon="11.582650137852028"><ele>629.2</ele><time>2026-05-03T07:19:43.984Z</time></trkpt><trkpt lat="45.78787943624051" lon="11.582600615174066"><ele>631.6</ele><time>2026-05-03T07:19:44.984Z</time></trkpt><trkpt lat="45.78780610051299" lon="11.582509906640782"><ele>634.0</ele><time>2026-05-03T07:19:46.984Z</time></trkpt><trkpt lat="45.78784906901102" lon="11.582407428006867"><ele>634.0</ele><time>2026-05-03T07:19:48.984Z</time></trkpt><trkpt lat="45.78798003501513" lon="11.582483065158092"><ele>634.0</ele><time>2026-05-03T07:19:50.984Z</time></trkpt><trkpt lat="45.78807737675549" lon="11.582494545765417"><ele>634.0</ele><time>2026-05-03T07:19:51.984Z</time></trkpt><trkpt lat="45.7881719690855" lon="11.58248829649081"><ele>634.0</ele><time>2026-05-03T07:19:52.984Z</time></trkpt><trkpt lat="45.78826837685597" lon="11.582473122721824"><ele>634.0</ele><time>2026-05-03T07:19:53.984Z</time></trkpt><trkpt lat="45.788372687242386" lon="11.582446803293871"><ele>634.0</ele><time>2026-05-03T07:19:54.984Z</time></trkpt><trkpt lat="45.788488038893476" lon="11.582405235225782"><ele>634.0</ele><time>2026-05-03T07:19:55.984Z</time></trkpt><trkpt lat="45.78862733903412" lon="11.582333822766403"><ele>634.0</ele><time>2026-05-03T07:19:56.984Z</time></trkpt><trkpt lat="45.788748329392064" lon="11.58220015245866"><ele>634.0</ele><time>2026-05-03T07:19:57.984Z</time></trkpt><trkpt lat="45.78884467687946" lon="11.582018415689497"><ele>634.6666666666667</ele><time>2026-05-03T07:19:58.984Z</time></trkpt><trkpt lat="45.78891477709354" lon="11.581816607788607"><ele>635.3333333333334</ele><time>2026-05-03T07:19:59.984Z</time></trkpt><trkpt lat="45.78897573885702" lon="11.5816092240896"><ele>636.0</ele><time>2026-05-03T07:20:00.984Z</time></trkpt><trkpt lat="45.7890380068358" lon="11.581389355944388"><ele>638.6666666666666</ele><time>2026-05-03T07:20:01.984Z</time></trkpt><trkpt lat="45.78910329303962" lon="11.581164511006248"><ele>641.3333333333333</ele><time>2026-05-03T07:20:02.984Z</time></trkpt><trkpt lat="45.78917087134784" lon="11.580933493979257"><ele>644.0</ele><time>2026-05-03T07:20:03.984Z</time></trkpt><trkpt lat="45.78923816459548" lon="11.580703249959345"><ele>644.0</ele><time>2026-05-03T07:20:04.984Z</time></trkpt><trkpt lat="45.78930079289607" lon="11.580488724325777"><ele>644.0</ele><time>2026-05-03T07:20:05.984Z</time></trkpt><trkpt lat="45.78934950686175" lon="11.580289981715993"><ele>644.0</ele><time>2026-05-03T07:20:06.984Z</time></trkpt><trkpt lat="45.789378328228516" lon="11.580107392749268"><ele>644.0</ele><time>2026-05-03T07:20:07.984Z</time></trkpt><trkpt lat="45.78937226720778" lon="11.579938558556309"><ele>645.0</ele><time>2026-05-03T07:20:08.984Z</time></trkpt><trkpt lat="45.789320982593075" lon="11.57977987202169"><ele>646.0</ele><time>2026-05-03T07:20:09.984Z</time></trkpt><trkpt lat="45.78929377887509" lon="11.579651626495481"><ele>647.0</ele><time>2026-05-03T07:20:10.984Z</time></trkpt><trkpt lat="45.78924628824761" lon="11.579566156908278"><ele>648.0</ele><time>2026-05-03T07:20:11.984Z</time></trkpt><trkpt lat="45.78918129388586" lon="11.579536427655102"><ele>649.0</ele><time>2026-05-03T07:20:12.984Z</time></trkpt><trkpt lat="45.78910912827281" lon="11.579657366619175"><ele>649.0</ele><time>2026-05-03T07:20:14.984Z</time></trkpt><trkpt lat="45.789102063842144" lon="11.579787946816"><ele>649.0</ele><time>2026-05-03T07:20:15.984Z</time></trkpt><trkpt lat="45.78908399238216" lon="11.579943231628922"><ele>649.0</ele><time>2026-05-03T07:20:16.984Z</time></trkpt><trkpt lat="45.78904741738774" lon="11.580105995106177"><ele>649.0</ele><time>2026-05-03T07:20:17.984Z</time></trkpt><trkpt lat="45.788991952137714" lon="11.58026043117556"><ele>649.0</ele><time>2026-05-03T07:20:18.983Z</time></trkpt><trkpt lat="45.78891729588746" lon="11.580417176447895"><ele>647.75</ele><time>2026-05-03T07:20:19.983Z</time></trkpt><trkpt lat="45.788835439801495" lon="11.580571283583943"><ele>646.5</ele><time>2026-05-03T07:20:20.983Z</time></trkpt><trkpt lat="45.788736673051815" lon="11.580733326716732"><ele>645.25</ele><time>2026-05-03T07:20:21.983Z</time></trkpt><trkpt lat="45.78863916312652" lon="11.580906905066465"><ele>644.0</ele><time>2026-05-03T07:20:22.983Z</time></trkpt><trkpt lat="45.78854606838878" lon="11.58107542472822"><ele>645.75</ele><time>2026-05-03T07:20:23.983Z</time></trkpt><trkpt lat="45.78844757317012" lon="11.581214699834202"><ele>647.5</ele><time>2026-05-03T07:20:24.983Z</time></trkpt><trkpt lat="45.78834761153542" lon="11.581335577843834"><ele>649.25</ele><time>2026-05-03T07:20:25.983Z</time></trkpt><trkpt lat="45.7882594506376" lon="11.58144568560753"><ele>651.0</ele><time>2026-05-03T07:20:26.983Z</time></trkpt><trkpt lat="45.78812413357714" lon="11.58146899291415"><ele>651.0</ele><time>2026-05-03T07:20:27.983Z</time></trkpt><trkpt lat="45.78801824080278" lon="11.58148119991206"><ele>651.0</ele><time>2026-05-03T07:20:28.983Z</time></trkpt><trkpt lat="45.78790672357658" lon="11.581421907464193"><ele>651.0</ele><time>2026-05-03T07:20:29.983Z</time></trkpt><trkpt lat="45.78773902581236" lon="11.58135078879383"><ele>651.0</ele><time>2026-05-03T07:20:30.983Z</time></trkpt><trkpt lat="45.78754935780628" lon="11.581277934478852"><ele>651.0</ele><time>2026-05-03T07:20:31.983Z</time></trkpt><trkpt lat="45.787360908696826" lon="11.581207773972952"><ele>651.0</ele><time>2026-05-03T07:20:32.983Z</time></trkpt><trkpt lat="45.787170240809914" lon="11.581137799730929"><ele>651.0</ele><time>2026-05-03T07:20:33.983Z</time></trkpt><trkpt lat="45.786990420124816" lon="11.58107273687117"><ele>656.0</ele><time>2026-05-03T07:20:34.983Z</time></trkpt><trkpt lat="45.78683517197736" lon="11.581016751957321"><ele>661.0</ele><time>2026-05-03T07:20:35.983Z</time></trkpt><trkpt lat="45.78670657002169" lon="11.580968290108279"><ele>666.0</ele><time>2026-05-03T07:20:36.983Z</time></trkpt><trkpt lat="45.78660863480183" lon="11.580927815284145"><ele>671.0</ele><time>2026-05-03T07:20:37.983Z</time></trkpt><trkpt lat="45.78654496253813" lon="11.580900238361421"><ele>671.0</ele><time>2026-05-03T07:20:38.983Z</time></trkpt><trkpt lat="45.786473240019596" lon="11.580860608315017"><ele>671.0</ele><time>2026-05-03T07:20:40.983Z</time></trkpt><trkpt lat="45.78643948595885" lon="11.580772014505154"><ele>671.0</ele><time>2026-05-03T07:20:43.983Z</time></trkpt><trkpt lat="45.78654872739114" lon="11.58075571228875"><ele>671.0</ele><time>2026-05-03T07:20:45.983Z</time></trkpt><trkpt lat="45.78663835445695" lon="11.580791697344567"><ele>671.0</ele><time>2026-05-03T07:20:46.983Z</time></trkpt><trkpt lat="45.78676813191917" lon="11.580825733371046"><ele>672.0</ele><time>2026-05-03T07:20:47.983Z</time></trkpt><trkpt lat="45.78694062465322" lon="11.580850586095766"><ele>673.0</ele><time>2026-05-03T07:20:48.983Z</time></trkpt><trkpt lat="45.78713425543735" lon="11.58085282191391"><ele>674.0</ele><time>2026-05-03T07:20:49.983Z</time></trkpt><trkpt lat="45.787373329491835" lon="11.580828856908374"><ele>674.0</ele><time>2026-05-03T07:20:50.983Z</time></trkpt><trkpt lat="45.787605424638166" lon="11.58078788511176"><ele>674.0</ele><time>2026-05-03T07:20:51.983Z</time></trkpt><trkpt lat="45.787756262098824" lon="11.580735372321934"><ele>674.0</ele><time>2026-05-03T07:20:52.983Z</time></trkpt><trkpt lat="45.78790386655157" lon="11.580678949492178"><ele>673.75</ele><time>2026-05-03T07:20:53.983Z</time></trkpt><trkpt lat="45.78805437777894" lon="11.580583924377772"><ele>673.5</ele><time>2026-05-03T07:20:54.983Z</time></trkpt><trkpt lat="45.78817753267292" lon="11.580449173987613"><ele>673.25</ele><time>2026-05-03T07:20:55.983Z</time></trkpt><trkpt lat="45.78824385683816" lon="11.580294842534146"><ele>673.0</ele><time>2026-05-03T07:20:56.983Z</time></trkpt><trkpt lat="45.78824662876391" lon="11.580189783002155"><ele>673.0</ele><time>2026-05-03T07:20:57.983Z</time></trkpt><trkpt lat="45.78825232284056" lon="11.580083940014973"><ele>673.0</ele><time>2026-05-03T07:20:59.983Z</time></trkpt><trkpt lat="45.78816966200178" lon="11.580028499969114"><ele>673.0</ele><time>2026-05-03T07:21:01.983Z</time></trkpt><trkpt lat="45.788094381387374" lon="11.58005331539356"><ele>673.0</ele><time>2026-05-03T07:21:02.983Z</time></trkpt><trkpt lat="45.788021641040324" lon="11.580137231668278"><ele>673.0</ele><time>2026-05-03T07:21:03.983Z</time></trkpt><trkpt lat="45.787958713620576" lon="11.580265331514553"><ele>673.0</ele><time>2026-05-03T07:21:04.983Z</time></trkpt><trkpt lat="45.78786591451285" lon="11.58036288537979"><ele>673.25</ele><time>2026-05-03T07:21:05.983Z</time></trkpt><trkpt lat="45.78774952769764" lon="11.58039519586122"><ele>673.5</ele><time>2026-05-03T07:21:06.983Z</time></trkpt><trkpt lat="45.78761298379794" lon="11.580371150017067"><ele>673.75</ele><time>2026-05-03T07:21:07.983Z</time></trkpt><trkpt lat="45.78744644886718" lon="11.58030785322827"><ele>674.0</ele><time>2026-05-03T07:21:08.983Z</time></trkpt><trkpt lat="45.787262304645964" lon="11.58025363975283"><ele>679.0</ele><time>2026-05-03T07:21:09.983Z</time></trkpt><trkpt lat="45.78707700597152" lon="11.580213426164914"><ele>684.0</ele><time>2026-05-03T07:21:10.983Z</time></trkpt><trkpt lat="45.78690158137272" lon="11.580189171341571"><ele>689.0</ele><time>2026-05-03T07:21:11.983Z</time></trkpt><trkpt lat="45.78674553555442" lon="11.580167131496568"><ele>689.0</ele><time>2026-05-03T07:21:12.983Z</time></trkpt><trkpt lat="45.7865999712196" lon="11.580127271050392"><ele>689.0</ele><time>2026-05-03T07:21:13.983Z</time></trkpt><trkpt lat="45.78646230116382" lon="11.580040022914675"><ele>689.0</ele><time>2026-05-03T07:21:14.983Z</time></trkpt><trkpt lat="45.78633906907528" lon="11.579902207274497"><ele>689.0</ele><time>2026-05-03T07:21:15.983Z</time></trkpt><trkpt lat="45.7862360313298" lon="11.579718501575705"><ele>689.0</ele><time>2026-05-03T07:21:16.984Z</time></trkpt><trkpt lat="45.786126858817" lon="11.579515582220122"><ele>689.0</ele><time>2026-05-03T07:21:17.984Z</time></trkpt><trkpt lat="45.786014731471084" lon="11.579308799358284"><ele>689.6666666666666</ele><time>2026-05-03T07:21:18.983Z</time></trkpt><trkpt lat="45.7859080927181" lon="11.579117383364753"><ele>690.3333333333334</ele><time>2026-05-03T07:21:19.983Z</time></trkpt><trkpt lat="45.78580834319468" lon="11.578939990159691"><ele>691.0</ele><time>2026-05-03T07:21:20.983Z</time></trkpt><trkpt lat="45.78570695165776" lon="11.57876831846382"><ele>698.0</ele><time>2026-05-03T07:21:21.983Z</time></trkpt><trkpt lat="45.78560271845631" lon="11.578594964463507"><ele>705.0</ele><time>2026-05-03T07:21:22.983Z</time></trkpt><trkpt lat="45.7855013468652" lon="11.57842955837663"><ele>712.0</ele><time>2026-05-03T07:21:23.983Z</time></trkpt><trkpt lat="45.78541753033297" lon="11.578277075579509"><ele>719.0</ele><time>2026-05-03T07:21:24.983Z</time></trkpt><trkpt lat="45.7853411131093" lon="11.578152290714414"><ele>719.0</ele><time>2026-05-03T07:21:25.983Z</time></trkpt><trkpt lat="45.7852540434524" lon="11.578047185676974"><ele>719.0</ele><time>2026-05-03T07:21:26.983Z</time></trkpt><trkpt lat="45.78514912673043" lon="11.577988047414093"><ele>719.0</ele><time>2026-05-03T07:21:27.983Z</time></trkpt><trkpt lat="45.78503181755099" lon="11.577997904310282"><ele>719.0</ele><time>2026-05-03T07:21:28.983Z</time></trkpt><trkpt lat="45.784886429117314" lon="11.578095434102089"><ele>715.25</ele><time>2026-05-03T07:21:29.983Z</time></trkpt><trkpt lat="45.78476346163137" lon="11.57820870955086"><ele>711.5</ele><time>2026-05-03T07:21:30.983Z</time></trkpt><trkpt lat="45.78465526352293" lon="11.578328242129619"><ele>707.75</ele><time>2026-05-03T07:21:31.983Z</time></trkpt><trkpt lat="45.78455211816494" lon="11.578439509703673"><ele>704.0</ele><time>2026-05-03T07:21:32.983Z</time></trkpt><trkpt lat="45.78449900613252" lon="11.578575357884413"><ele>704.0</ele><time>2026-05-03T07:21:33.983Z</time></trkpt><trkpt lat="45.78446234025622" lon="11.578690796669706"><ele>704.0</ele><time>2026-05-03T07:21:34.983Z</time></trkpt><trkpt lat="45.78444296571387" lon="11.578804802608314"><ele>704.0</ele><time>2026-05-03T07:21:35.983Z</time></trkpt><trkpt lat="45.78441791411289" lon="11.578892097589534"><ele>704.0</ele><time>2026-05-03T07:21:36.983Z</time></trkpt><trkpt lat="45.78432951174614" lon="11.578887849917725"><ele>704.0</ele><time>2026-05-03T07:21:38.983Z</time></trkpt><trkpt lat="45.7843272975776" lon="11.57879197373603"><ele>704.0</ele><time>2026-05-03T07:21:39.983Z</time></trkpt><trkpt lat="45.78434578305487" lon="11.57869528739243"><ele>704.0</ele><time>2026-05-03T07:21:40.983Z</time></trkpt><trkpt lat="45.784364518907154" lon="11.578557355753215"><ele>704.0</ele><time>2026-05-03T07:21:41.983Z</time></trkpt><trkpt lat="45.784401741556245" lon="11.578393666444681"><ele>704.0</ele><time>2026-05-03T07:21:42.983Z</time></trkpt><trkpt lat="45.78443661439495" lon="11.578210183018637"><ele>704.0</ele><time>2026-05-03T07:21:43.983Z</time></trkpt><trkpt lat="45.78443107384415" lon="11.57801469920486"><ele>703.0</ele><time>2026-05-03T07:21:44.983Z</time></trkpt><trkpt lat="45.78439128024577" lon="11.57779419001505"><ele>702.0</ele><time>2026-05-03T07:21:45.983Z</time></trkpt><trkpt lat="45.78435433890998" lon="11.577573560375162"><ele>701.0</ele><time>2026-05-03T07:21:46.983Z</time></trkpt><trkpt lat="45.784333729672795" lon="11.577365942254902"><ele>701.0</ele><time>2026-05-03T07:21:47.983Z</time></trkpt><trkpt lat="45.7843108257804" lon="11.5771634072252"><ele>701.0</ele><time>2026-05-03T07:21:48.983Z</time></trkpt><trkpt lat="45.78428909112268" lon="11.576980486029006"><ele>701.0</ele><time>2026-05-03T07:21:49.983Z</time></trkpt><trkpt lat="45.78427285192942" lon="11.576807285097152"><ele>701.0</ele><time>2026-05-03T07:21:50.983Z</time></trkpt><trkpt lat="45.784261415838465" lon="11.57664316727725"><ele>702.75</ele><time>2026-05-03T07:21:51.983Z</time></trkpt><trkpt lat="45.78427248697839" lon="11.576463498164141"><ele>704.5</ele><time>2026-05-03T07:21:52.983Z</time></trkpt><trkpt lat="45.78429452174465" lon="11.576275181601357"><ele>706.25</ele><time>2026-05-03T07:21:53.983Z</time></trkpt><trkpt lat="45.78430992667868" lon="11.576098698437093"><ele>708.0</ele><time>2026-05-03T07:21:54.983Z</time></trkpt><trkpt lat="45.78430540296928" lon="11.575922912479008"><ele>709.5</ele><time>2026-05-03T07:21:55.983Z</time></trkpt><trkpt lat="45.78428368442969" lon="11.575740428013143"><ele>711.0</ele><time>2026-05-03T07:21:56.983Z</time></trkpt><trkpt lat="45.78423230912805" lon="11.575546053176577"><ele>712.5</ele><time>2026-05-03T07:21:57.983Z</time></trkpt><trkpt lat="45.784159174463774" lon="11.575327288226756"><ele>714.0</ele><time>2026-05-03T07:21:58.983Z</time></trkpt><trkpt lat="45.78407014370019" lon="11.575114553304397"><ele>717.6666666666666</ele><time>2026-05-03T07:21:59.983Z</time></trkpt><trkpt lat="45.78397911114643" lon="11.574901016961268"><ele>721.3333333333333</ele><time>2026-05-03T07:22:00.983Z</time></trkpt><trkpt lat="45.783890576088545" lon="11.57467225214263"><ele>725.0</ele><time>2026-05-03T07:22:01.983Z</time></trkpt><trkpt lat="45.783809448845425" lon="11.574440583079395"><ele>727.5</ele><time>2026-05-03T07:22:02.983Z</time></trkpt><trkpt lat="45.78374713100295" lon="11.574230035183314"><ele>730.0</ele><time>2026-05-03T07:22:03.983Z</time></trkpt><trkpt lat="45.78369955410744" lon="11.574031288087435"><ele>732.5</ele><time>2026-05-03T07:22:04.983Z</time></trkpt><trkpt lat="45.78364852636849" lon="11.573865536357323"><ele>735.0</ele><time>2026-05-03T07:22:05.983Z</time></trkpt><trkpt lat="45.783597460549245" lon="11.57372202528839"><ele>737.8333333333334</ele><time>2026-05-03T07:22:06.983Z</time></trkpt><trkpt lat="45.78357296277212" lon="11.57358625315177"><ele>740.6666666666666</ele><time>2026-05-03T07:22:07.983Z</time></trkpt><trkpt lat="45.783549866040524" lon="11.573472631244302"><ele>743.5</ele><time>2026-05-03T07:22:08.983Z</time></trkpt><trkpt lat="45.78353330134378" lon="11.573384028359317"><ele>746.3333333333333</ele><time>2026-05-03T07:22:09.983Z</time></trkpt><trkpt lat="45.78354381989183" lon="11.573253515614068"><ele>749.1666666666666</ele><time>2026-05-03T07:22:11.983Z</time></trkpt><trkpt lat="45.78363258252496" lon="11.573321315477132"><ele>752.0</ele><time>2026-05-03T07:22:13.983Z</time></trkpt><trkpt lat="45.78363393755099" lon="11.573421895610977"><ele>752.0</ele><time>2026-05-03T07:22:14.983Z</time></trkpt><trkpt lat="45.78364765695655" lon="11.573551041231726"><ele>752.0</ele><time>2026-05-03T07:22:15.983Z</time></trkpt><trkpt lat="45.78373028259252" lon="11.57374463934919"><ele>752.0</ele><time>2026-05-03T07:22:16.983Z</time></trkpt><trkpt lat="45.78382371577491" lon="11.573893654463822"><ele>752.0</ele><time>2026-05-03T07:22:17.983Z</time></trkpt><trkpt lat="45.7839185501893" lon="11.574067222568083"><ele>746.3333333333333</ele><time>2026-05-03T07:22:18.982Z</time></trkpt><trkpt lat="45.78401859707713" lon="11.57425904803586"><ele>740.6666666666666</ele><time>2026-05-03T07:22:19.982Z</time></trkpt><trkpt lat="45.7841139415209" lon="11.574455060765413"><ele>735.0</ele><time>2026-05-03T07:22:20.982Z</time></trkpt><trkpt lat="45.7842013845665" lon="11.57464473804144"><ele>732.5</ele><time>2026-05-03T07:22:21.982Z</time></trkpt><trkpt lat="45.78428273679096" lon="11.574822322199651"><ele>730.0</ele><time>2026-05-03T07:22:22.982Z</time></trkpt><trkpt lat="45.784356938242965" lon="11.574953514849234"><ele>727.5</ele><time>2026-05-03T07:22:23.982Z</time></trkpt><trkpt lat="45.784402523753684" lon="11.575075211690852"><ele>725.0</ele><time>2026-05-03T07:22:24.982Z</time></trkpt><trkpt lat="45.78444357281032" lon="11.575185684104044"><ele>728.0</ele><time>2026-05-03T07:22:25.982Z</time></trkpt><trkpt lat="45.78449491240518" lon="11.575276113941266"><ele>731.0</ele><time>2026-05-03T07:22:26.982Z</time></trkpt><trkpt lat="45.78453145178105" lon="11.57536295247169"><ele>734.0</ele><time>2026-05-03T07:22:27.982Z</time></trkpt><trkpt lat="45.78456672472376" lon="11.575438677677699"><ele>737.0</ele><time>2026-05-03T07:22:28.982Z</time></trkpt><trkpt lat="45.784641077953545" lon="11.575558353151802"><ele>740.0</ele><time>2026-05-03T07:22:30.982Z</time></trkpt><trkpt lat="45.784704774196356" lon="11.575670954842257"><ele>743.0</ele><time>2026-05-03T07:22:32.982Z</time></trkpt><trkpt lat="45.78473490766955" lon="11.575828179723214"><ele>743.0</ele><time>2026-05-03T07:22:34.982Z</time></trkpt><trkpt lat="45.7847911169353" lon="11.575962864024497"><ele>743.0</ele><time>2026-05-03T07:22:36.982Z</time></trkpt><trkpt lat="45.784823642060786" lon="11.576042574036297"><ele>743.0</ele><time>2026-05-03T07:22:37.982Z</time></trkpt><trkpt lat="45.784856103075" lon="11.576122820454943"><ele>743.0</ele><time>2026-05-03T07:22:38.982Z</time></trkpt><trkpt lat="45.78492259332244" lon="11.576269558190914"><ele>743.0</ele><time>2026-05-03T07:22:40.982Z</time></trkpt><trkpt lat="45.78498581277581" lon="11.576398913867054"><ele>741.5</ele><time>2026-05-03T07:22:42.982Z</time></trkpt><trkpt lat="45.78503801556986" lon="11.57649703378631"><ele>740.0</ele><time>2026-05-03T07:22:45.982Z</time></trkpt><trkpt lat="45.7850924977233" lon="11.576590916362177"><ele>738.5</ele><time>2026-05-03T07:22:47.982Z</time></trkpt><trkpt lat="45.78514853402427" lon="11.576679684562654"><ele>737.0</ele><time>2026-05-03T07:22:49.982Z</time></trkpt><trkpt lat="45.78522092572726" lon="11.576775301337442"><ele>735.5</ele><time>2026-05-03T07:22:51.982Z</time></trkpt><trkpt lat="45.78529184387646" lon="11.57685340889058"><ele>734.0</ele><time>2026-05-03T07:22:53.982Z</time></trkpt><trkpt lat="45.78537057839427" lon="11.576919615656287"><ele>738.4000000000001</ele><time>2026-05-03T07:22:55.982Z</time></trkpt><trkpt lat="45.78544897480637" lon="11.576986733634483"><ele>742.8</ele><time>2026-05-03T07:22:57.982Z</time></trkpt><trkpt lat="45.78552092828448" lon="11.576990198058082"><ele>747.2</ele><time>2026-05-03T07:22:59.982Z</time></trkpt><trkpt lat="45.78551237029877" lon="11.576777449354422"><ele>751.5999999999999</ele><time>2026-05-03T07:23:01.982Z</time></trkpt><trkpt lat="45.78545773598176" lon="11.576672396511148"><ele>756.0</ele><time>2026-05-03T07:23:02.982Z</time></trkpt><trkpt lat="45.78543488270204" lon="11.576556228946588"><ele>756.0</ele><time>2026-05-03T07:23:03.982Z</time></trkpt><trkpt lat="45.78538513169155" lon="11.57645934249405"><ele>756.0</ele><time>2026-05-03T07:23:04.982Z</time></trkpt><trkpt lat="45.785349448622505" lon="11.576357942764025"><ele>756.0</ele><time>2026-05-03T07:23:05.982Z</time></trkpt><trkpt lat="45.78531913125891" lon="11.576267071485393"><ele>756.0</ele><time>2026-05-03T07:23:06.982Z</time></trkpt><trkpt lat="45.78531348568258" lon="11.576144337028705"><ele>756.0</ele><time>2026-05-03T07:23:08.982Z</time></trkpt><trkpt lat="45.785347725853036" lon="11.575998034211361"><ele>756.0</ele><time>2026-05-03T07:23:10.982Z</time></trkpt><trkpt lat="45.785353829476634" lon="11.575907651623712"><ele>758.4</ele><time>2026-05-03T07:23:11.982Z</time></trkpt><trkpt lat="45.78529121636275" lon="11.575821259005515"><ele>760.8</ele><time>2026-05-03T07:23:12.982Z</time></trkpt><trkpt lat="45.78530199982021" lon="11.575665817956729"><ele>763.1999999999999</ele><time>2026-05-03T07:23:13.982Z</time></trkpt><trkpt lat="45.78525254601215" lon="11.575531739210104"><ele>765.5999999999999</ele><time>2026-05-03T07:23:14.982Z</time></trkpt><trkpt lat="45.78523269154999" lon="11.575427894379533"><ele>768.0</ele><time>2026-05-03T07:23:15.982Z</time></trkpt><trkpt lat="45.7851952201699" lon="11.57530967774151"><ele>768.0</ele><time>2026-05-03T07:23:17.982Z</time></trkpt><trkpt lat="45.78522896813047" lon="11.575221397271685"><ele>768.0</ele><time>2026-05-03T07:23:19.982Z</time></trkpt><trkpt lat="45.7853008792168" lon="11.575293081336063"><ele>768.0</ele><time>2026-05-03T07:23:21.983Z</time></trkpt><trkpt lat="45.785344090015144" lon="11.57537669445728"><ele>768.0</ele><time>2026-05-03T07:23:22.983Z</time></trkpt><trkpt lat="45.785411233511645" lon="11.5754706594957"><ele>768.0</ele><time>2026-05-03T07:23:23.983Z</time></trkpt><trkpt lat="45.78545970377306" lon="11.575611078802222"><ele>768.0</ele><time>2026-05-03T07:23:24.983Z</time></trkpt><trkpt lat="45.78549812183673" lon="11.57573301411999"><ele>768.0</ele><time>2026-05-03T07:23:25.983Z</time></trkpt><trkpt lat="45.78552730779154" lon="11.57586389393647"><ele>768.0</ele><time>2026-05-03T07:23:26.983Z</time></trkpt><trkpt lat="45.78556234343399" lon="11.576040738588535"><ele>768.0</ele><time>2026-05-03T07:23:28.983Z</time></trkpt><trkpt lat="45.785650316806425" lon="11.576145305162077"><ele>768.0</ele><time>2026-05-03T07:23:30.983Z</time></trkpt><trkpt lat="45.78574002861666" lon="11.576097121806995"><ele>768.0</ele><time>2026-05-03T07:23:32.982Z</time></trkpt><trkpt lat="45.78571811271866" lon="11.575911171828219"><ele>768.0</ele><time>2026-05-03T07:23:33.983Z</time></trkpt><trkpt lat="45.785691162402614" lon="11.575792795236305"><ele>768.0</ele><time>2026-05-03T07:23:34.983Z</time></trkpt><trkpt lat="45.785657847153075" lon="11.575637895411717"><ele>768.0</ele><time>2026-05-03T07:23:35.983Z</time></trkpt><trkpt lat="45.785620045517724" lon="11.575459647854423"><ele>768.0</ele><time>2026-05-03T07:23:36.983Z</time></trkpt><trkpt lat="45.78557157831903" lon="11.575255492813977"><ele>773.0</ele><time>2026-05-03T07:23:37.983Z</time></trkpt><trkpt lat="45.78551849435331" lon="11.575030267117276"><ele>778.0</ele><time>2026-05-03T07:23:38.983Z</time></trkpt><trkpt lat="45.78546253796606" lon="11.574788223432602"><ele>783.0</ele><time>2026-05-03T07:23:39.983Z</time></trkpt><trkpt lat="45.785411341381696" lon="11.574555997395912"><ele>778.3333333333333</ele><time>2026-05-03T07:23:40.983Z</time></trkpt><trkpt lat="45.785348879452634" lon="11.57433174734365"><ele>773.6666666666666</ele><time>2026-05-03T07:23:41.983Z</time></trkpt><trkpt lat="45.78525860460888" lon="11.574128595842222"><ele>769.0</ele><time>2026-05-03T07:23:42.983Z</time></trkpt><trkpt lat="45.785150265911575" lon="11.57392826425235"><ele>769.0</ele><time>2026-05-03T07:23:43.983Z</time></trkpt><trkpt lat="45.78504845445002" lon="11.573719883503832"><ele>769.0</ele><time>2026-05-03T07:23:44.983Z</time></trkpt><trkpt lat="45.78494791559944" lon="11.573511222933519"><ele>769.0</ele><time>2026-05-03T07:23:45.983Z</time></trkpt><trkpt lat="45.784841423168785" lon="11.573310537558175"><ele>778.3333333333333</ele><time>2026-05-03T07:23:46.983Z</time></trkpt><trkpt lat="45.78472826709557" lon="11.573126326883557"><ele>787.6666666666667</ele><time>2026-05-03T07:23:47.983Z</time></trkpt><trkpt lat="45.78459930614492" lon="11.572965541148724"><ele>797.0</ele><time>2026-05-03T07:23:48.983Z</time></trkpt><trkpt lat="45.784463162269844" lon="11.572797848528612"><ele>792.0</ele><time>2026-05-03T07:23:49.983Z</time></trkpt><trkpt lat="45.78433161704535" lon="11.57262492577932"><ele>787.0</ele><time>2026-05-03T07:23:50.983Z</time></trkpt><trkpt lat="45.78420900355974" lon="11.572451759842803"><ele>782.0</ele><time>2026-05-03T07:23:51.983Z</time></trkpt><trkpt lat="45.78410139626069" lon="11.572295184261275"><ele>782.0</ele><time>2026-05-03T07:23:52.983Z</time></trkpt><trkpt lat="45.78400494996101" lon="11.572151628018444"><ele>782.0</ele><time>2026-05-03T07:23:53.982Z</time></trkpt><trkpt lat="45.78392994887613" lon="11.571989745056557"><ele>782.0</ele><time>2026-05-03T07:23:54.982Z</time></trkpt><trkpt lat="45.78385909334628" lon="11.571831281596287"><ele>782.0</ele><time>2026-05-03T07:23:55.982Z</time></trkpt><trkpt lat="45.783794677051425" lon="11.57167224339979"><ele>784.0</ele><time>2026-05-03T07:23:56.982Z</time></trkpt><trkpt lat="45.78372816725699" lon="11.571507855837423"><ele>786.0</ele><time>2026-05-03T07:23:57.982Z</time></trkpt><trkpt lat="45.78364875166579" lon="11.571343304903813"><ele>788.0</ele><time>2026-05-03T07:23:58.982Z</time></trkpt><trkpt lat="45.783579127976836" lon="11.571157527821052"><ele>790.0</ele><time>2026-05-03T07:23:59.982Z</time></trkpt><trkpt lat="45.78350627519507" lon="11.570970576561677"><ele>790.0</ele><time>2026-05-03T07:24:00.982Z</time></trkpt><trkpt lat="45.78343922569174" lon="11.57076398697692"><ele>790.0</ele><time>2026-05-03T07:24:01.982Z</time></trkpt><trkpt lat="45.78336506943671" lon="11.570567658743755"><ele>790.0</ele><time>2026-05-03T07:24:02.982Z</time></trkpt><trkpt lat="45.78331526971074" lon="11.570378744609627"><ele>792.6</ele><time>2026-05-03T07:24:03.982Z</time></trkpt><trkpt lat="45.783283272855286" lon="11.570192883984499"><ele>795.2</ele><time>2026-05-03T07:24:04.982Z</time></trkpt><trkpt lat="45.783247960277144" lon="11.57004686095277"><ele>797.8</ele><time>2026-05-03T07:24:05.982Z</time></trkpt><trkpt lat="45.78324309067652" lon="11.569917558722953"><ele>800.4</ele><time>2026-05-03T07:24:06.982Z</time></trkpt><trkpt lat="45.78329190614083" lon="11.5698140921856"><ele>803.0</ele><time>2026-05-03T07:24:07.982Z</time></trkpt><trkpt lat="45.78333634540127" lon="11.569707899806005"><ele>803.0</ele><time>2026-05-03T07:24:08.982Z</time></trkpt><trkpt lat="45.78342989723962" lon="11.569665182420673"><ele>803.0</ele><time>2026-05-03T07:24:09.982Z</time></trkpt><trkpt lat="45.783528529891235" lon="11.569593528377697"><ele>803.0</ele><time>2026-05-03T07:24:10.982Z</time></trkpt><trkpt lat="45.78364061658254" lon="11.569517176500783"><ele>803.0</ele><time>2026-05-03T07:24:11.982Z</time></trkpt><trkpt lat="45.78378341006244" lon="11.569482843143634"><ele>802.0</ele><time>2026-05-03T07:24:12.982Z</time></trkpt><trkpt lat="45.78394186080878" lon="11.569435256386015"><ele>801.0</ele><time>2026-05-03T07:24:13.982Z</time></trkpt><trkpt lat="45.78409431217928" lon="11.569375836156187"><ele>800.0</ele><time>2026-05-03T07:24:14.982Z</time></trkpt><trkpt lat="45.78423559181471" lon="11.569311229693284"><ele>804.25</ele><time>2026-05-03T07:24:15.982Z</time></trkpt><trkpt lat="45.7843757142899" lon="11.569243978916475"><ele>808.5</ele><time>2026-05-03T07:24:16.982Z</time></trkpt><trkpt lat="45.78450420461681" lon="11.569159255171567"><ele>812.75</ele><time>2026-05-03T07:24:17.982Z</time></trkpt><trkpt lat="45.78463182690472" lon="11.569097120502297"><ele>817.0</ele><time>2026-05-03T07:24:18.982Z</time></trkpt><trkpt lat="45.78476735855141" lon="11.569039974407413"><ele>817.0</ele><time>2026-05-03T07:24:19.982Z</time></trkpt><trkpt lat="45.78490476417489" lon="11.568983615137522"><ele>817.0</ele><time>2026-05-03T07:24:20.982Z</time></trkpt><trkpt lat="45.785040930656656" lon="11.568923811507709"><ele>817.0</ele><time>2026-05-03T07:24:21.982Z</time></trkpt><trkpt lat="45.785177779725586" lon="11.568848348799138"><ele>817.0</ele><time>2026-05-03T07:24:22.982Z</time></trkpt><trkpt lat="45.78532011301913" lon="11.568749520187131"><ele>817.3333333333333</ele><time>2026-05-03T07:24:23.982Z</time></trkpt><trkpt lat="45.78545853435094" lon="11.568628753910316"><ele>817.6666666666667</ele><time>2026-05-03T07:24:24.982Z</time></trkpt><trkpt lat="45.78559545413842" lon="11.568500990186916"><ele>818.0</ele><time>2026-05-03T07:24:25.982Z</time></trkpt><trkpt lat="45.78573514949757" lon="11.568365622064299"><ele>818.0</ele><time>2026-05-03T07:24:26.982Z</time></trkpt><trkpt lat="45.78588161103355" lon="11.568233539053885"><ele>818.0</ele><time>2026-05-03T07:24:27.982Z</time></trkpt><trkpt lat="45.78603104398991" lon="11.56810440661654"><ele>818.0</ele><time>2026-05-03T07:24:28.982Z</time></trkpt><trkpt lat="45.786193539097354" lon="11.567989285782364"><ele>816.0</ele><time>2026-05-03T07:24:29.982Z</time></trkpt><trkpt lat="45.7863598630468" lon="11.567879735051205"><ele>814.0</ele><time>2026-05-03T07:24:30.982Z</time></trkpt><trkpt lat="45.78652184776791" lon="11.567771938198824"><ele>812.0</ele><time>2026-05-03T07:24:31.982Z</time></trkpt><trkpt lat="45.78668413429638" lon="11.567641361155156"><ele>812.0</ele><time>2026-05-03T07:24:32.982Z</time></trkpt><trkpt lat="45.7868434904937" lon="11.567508874149894"><ele>812.0</ele><time>2026-05-03T07:24:33.982Z</time></trkpt><trkpt lat="45.78699820701838" lon="11.56740230663784"><ele>812.0</ele><time>2026-05-03T07:24:34.982Z</time></trkpt><trkpt lat="45.78714279364942" lon="11.567313725356215"><ele>813.0</ele><time>2026-05-03T07:24:35.982Z</time></trkpt><trkpt lat="45.78727935503317" lon="11.567213388019216"><ele>814.0</ele><time>2026-05-03T07:24:36.982Z</time></trkpt><trkpt lat="45.78740512744209" lon="11.567093550667915"><ele>815.0</ele><time>2026-05-03T07:24:37.982Z</time></trkpt><trkpt lat="45.78751779645977" lon="11.566919546557806"><ele>815.0</ele><time>2026-05-03T07:24:38.982Z</time></trkpt><trkpt lat="45.787613193020896" lon="11.566734574811504"><ele>815.0</ele><time>2026-05-03T07:24:39.982Z</time></trkpt><trkpt lat="45.78770631845906" lon="11.566548096747491"><ele>815.0</ele><time>2026-05-03T07:24:40.982Z</time></trkpt><trkpt lat="45.787782098834214" lon="11.566391839328709"><ele>818.0</ele><time>2026-05-03T07:24:41.982Z</time></trkpt><trkpt lat="45.78785406256417" lon="11.566246888788548"><ele>821.0</ele><time>2026-05-03T07:24:42.982Z</time></trkpt><trkpt lat="45.78796448303285" lon="11.566121101296861"><ele>824.0</ele><time>2026-05-03T07:24:43.982Z</time></trkpt><trkpt lat="45.78806715258498" lon="11.56598119428668"><ele>827.0</ele><time>2026-05-03T07:24:44.982Z</time></trkpt><trkpt lat="45.788162986599716" lon="11.565856042507438"><ele>827.0</ele><time>2026-05-03T07:24:45.982Z</time></trkpt><trkpt lat="45.78826612069637" lon="11.565723828740289"><ele>827.0</ele><time>2026-05-03T07:24:46.982Z</time></trkpt><trkpt lat="45.78836882789598" lon="11.565587955685714"><ele>827.0</ele><time>2026-05-03T07:24:47.982Z</time></trkpt><trkpt lat="45.788471857732496" lon="11.565441078388329"><ele>827.0</ele><time>2026-05-03T07:24:48.982Z</time></trkpt><trkpt lat="45.78856245585217" lon="11.565276766998322"><ele>829.75</ele><time>2026-05-03T07:24:49.982Z</time></trkpt><trkpt lat="45.788633984779686" lon="11.565098153608364"><ele>832.5</ele><time>2026-05-03T07:24:50.982Z</time></trkpt><trkpt lat="45.78868582631011" lon="11.56490433728353"><ele>835.25</ele><time>2026-05-03T07:24:51.982Z</time></trkpt><trkpt lat="45.78872304426376" lon="11.564727251319662"><ele>838.0</ele><time>2026-05-03T07:24:52.982Z</time></trkpt><trkpt lat="45.78875710134893" lon="11.564553401149697"><ele>837.25</ele><time>2026-05-03T07:24:53.982Z</time></trkpt><trkpt lat="45.78878985070016" lon="11.564372761333042"><ele>836.5</ele><time>2026-05-03T07:24:54.982Z</time></trkpt><trkpt lat="45.78880949351729" lon="11.564200135564647"><ele>835.75</ele><time>2026-05-03T07:24:55.982Z</time></trkpt><trkpt lat="45.78885234805821" lon="11.564056258206376"><ele>835.0</ele><time>2026-05-03T07:24:56.982Z</time></trkpt><trkpt lat="45.78891428397709" lon="11.56390948747431"><ele>835.0</ele><time>2026-05-03T07:24:57.982Z</time></trkpt><trkpt lat="45.789010854988966" lon="11.563778481654435"><ele>835.0</ele><time>2026-05-03T07:24:58.982Z</time></trkpt><trkpt lat="45.789091952888825" lon="11.56362064005509"><ele>835.0</ele><time>2026-05-03T07:24:59.982Z</time></trkpt><trkpt lat="45.78918500398122" lon="11.563483709012342"><ele>835.0</ele><time>2026-05-03T07:25:00.982Z</time></trkpt><trkpt lat="45.78927112265732" lon="11.563338369328877"><ele>835.5</ele><time>2026-05-03T07:25:01.982Z</time></trkpt><trkpt lat="45.789353064557965" lon="11.563188834146521"><ele>836.0</ele><time>2026-05-03T07:25:02.982Z</time></trkpt><trkpt lat="45.789410006368" lon="11.563019069805527"><ele>836.5</ele><time>2026-05-03T07:25:03.982Z</time></trkpt><trkpt lat="45.789450947436436" lon="11.562855526358161"><ele>837.0</ele><time>2026-05-03T07:25:04.982Z</time></trkpt><trkpt lat="45.789467752513325" lon="11.562674170331656"><ele>837.0</ele><time>2026-05-03T07:25:05.982Z</time></trkpt><trkpt lat="45.78949168821348" lon="11.562509421700653"><ele>837.0</ele><time>2026-05-03T07:25:06.982Z</time></trkpt><trkpt lat="45.78952656361338" lon="11.562345262393869"><ele>837.0</ele><time>2026-05-03T07:25:07.982Z</time></trkpt><trkpt lat="45.78954506673889" lon="11.562182979459783"><ele>837.0</ele><time>2026-05-03T07:25:08.982Z</time></trkpt><trkpt lat="45.78957361466531" lon="11.562025616113125"><ele>835.8333333333334</ele><time>2026-05-03T07:25:09.982Z</time></trkpt><trkpt lat="45.789616727121874" lon="11.56188264646685"><ele>834.6666666666667</ele><time>2026-05-03T07:25:10.982Z</time></trkpt><trkpt lat="45.789661358987864" lon="11.56176209448999"><ele>833.5</ele><time>2026-05-03T07:25:11.982Z</time></trkpt><trkpt lat="45.78969969179219" lon="11.56167560184768"><ele>832.3333333333334</ele><time>2026-05-03T07:25:12.982Z</time></trkpt><trkpt lat="45.789720469923665" lon="11.561589528060345"><ele>831.1666666666667</ele><time>2026-05-03T07:25:13.982Z</time></trkpt><trkpt lat="45.789745767824236" lon="11.561499683749481"><ele>830.0</ele><time>2026-05-03T07:25:14.982Z</time></trkpt><trkpt lat="45.78977084257724" lon="11.561413217688788"><ele>830.0000000000001</ele><time>2026-05-03T07:25:15.982Z</time></trkpt><trkpt lat="45.78979516147132" lon="11.561316430931821"><ele>830.0</ele><time>2026-05-03T07:25:16.982Z</time></trkpt><trkpt lat="45.78981939019086" lon="11.561202290914283"><ele>830.0</ele><time>2026-05-03T07:25:17.981Z</time></trkpt><trkpt lat="45.78983973720081" lon="11.561077143382212"><ele>830.0</ele><time>2026-05-03T07:25:18.981Z</time></trkpt><trkpt lat="45.78985440732712" lon="11.560950109987516"><ele>830.0000000000001</ele><time>2026-05-03T07:25:19.981Z</time></trkpt><trkpt lat="45.789859220256545" lon="11.560834769698523"><ele>830.0</ele><time>2026-05-03T07:25:20.981Z</time></trkpt><trkpt lat="45.78985993586085" lon="11.560714956644484"><ele>829.8</ele><time>2026-05-03T07:25:21.981Z</time></trkpt><trkpt lat="45.78985806845832" lon="11.56058686739663"><ele>829.6</ele><time>2026-05-03T07:25:22.981Z</time></trkpt><trkpt lat="45.78985289704193" lon="11.560448910966372"><ele>829.4000000000001</ele><time>2026-05-03T07:25:23.981Z</time></trkpt><trkpt lat="45.789846242973475" lon="11.560291342422868"><ele>829.2</ele><time>2026-05-03T07:25:24.981Z</time></trkpt><trkpt lat="45.789847210851136" lon="11.56013106607389"><ele>829.0</ele><time>2026-05-03T07:25:25.981Z</time></trkpt><trkpt lat="45.789847514709116" lon="11.559975076449863"><ele>830.0</ele><time>2026-05-03T07:25:26.982Z</time></trkpt><trkpt lat="45.789851268712596" lon="11.55982351548934"><ele>831.0</ele><time>2026-05-03T07:25:27.982Z</time></trkpt><trkpt lat="45.78985205686031" lon="11.559673336935335"><ele>832.0</ele><time>2026-05-03T07:25:28.982Z</time></trkpt><trkpt lat="45.78985360894075" lon="11.559521251070661"><ele>833.0</ele><time>2026-05-03T07:25:29.982Z</time></trkpt><trkpt lat="45.789856691687426" lon="11.559362593454743"><ele>834.0</ele><time>2026-05-03T07:25:30.982Z</time></trkpt><trkpt lat="45.78985575551347" lon="11.559194250147469"><ele>835.25</ele><time>2026-05-03T07:25:31.982Z</time></trkpt><trkpt lat="45.78984733727747" lon="11.55901740998532"><ele>836.5</ele><time>2026-05-03T07:25:32.982Z</time></trkpt><trkpt lat="45.78984327858973" lon="11.558837501403739"><ele>837.75</ele><time>2026-05-03T07:25:33.982Z</time></trkpt><trkpt lat="45.78984024354281" lon="11.558650610964625"><ele>839.0</ele><time>2026-05-03T07:25:34.982Z</time></trkpt><trkpt lat="45.78983947893726" lon="11.558468364118538"><ele>840.5</ele><time>2026-05-03T07:25:35.983Z</time></trkpt><trkpt lat="45.78983036218718" lon="11.558290829589422"><ele>842.0</ele><time>2026-05-03T07:25:36.982Z</time></trkpt><trkpt lat="45.78982248410139" lon="11.55810904767264"><ele>843.5</ele><time>2026-05-03T07:25:37.982Z</time></trkpt><trkpt lat="45.789813094035544" lon="11.557922028026802"><ele>845.0</ele><time>2026-05-03T07:25:38.982Z</time></trkpt><trkpt lat="45.78980195268646" lon="11.557732531330567"><ele>846.8</ele><time>2026-05-03T07:25:39.982Z</time></trkpt><trkpt lat="45.78979074544119" lon="11.557560405458355"><ele>848.6</ele><time>2026-05-03T07:25:40.982Z</time></trkpt><trkpt lat="45.78978271903353" lon="11.55739929734653"><ele>850.4000000000001</ele><time>2026-05-03T07:25:41.982Z</time></trkpt><trkpt lat="45.7897745571885" lon="11.557257945335127"><ele>852.2</ele><time>2026-05-03T07:25:42.982Z</time></trkpt><trkpt lat="45.789766789538" lon="11.557148094816796"><ele>854.0</ele><time>2026-05-03T07:25:43.982Z</time></trkpt><trkpt lat="45.789752871641426" lon="11.557055099009277"><ele>854.0</ele><time>2026-05-03T07:25:44.982Z</time></trkpt><trkpt lat="45.78975148755617" lon="11.556909004130837"><ele>854.0000000000001</ele><time>2026-05-03T07:25:46.982Z</time></trkpt><trkpt lat="45.78976590495132" lon="11.556805524783432"><ele>854.0000000000001</ele><time>2026-05-03T07:25:48.982Z</time></trkpt><trkpt lat="45.78984313913834" lon="11.556916127237486"><ele>854.0</ele><time>2026-05-03T07:25:51.982Z</time></trkpt><trkpt lat="45.78983956501295" lon="11.557024951175586"><ele>854.0</ele><time>2026-05-03T07:25:52.982Z</time></trkpt><trkpt lat="45.7898449206908" lon="11.557161689555125"><ele>854.0</ele><time>2026-05-03T07:25:53.982Z</time></trkpt><trkpt lat="45.78986285398663" lon="11.557314845285488"><ele>854.0</ele><time>2026-05-03T07:25:54.982Z</time></trkpt><trkpt lat="45.78989380912176" lon="11.557480219759723"><ele>854.0</ele><time>2026-05-03T07:25:55.982Z</time></trkpt><trkpt lat="45.78994542836712" lon="11.55766657215135"><ele>854.0</ele><time>2026-05-03T07:25:56.982Z</time></trkpt><trkpt lat="45.78999111855617" lon="11.557821573322574"><ele>852.2</ele><time>2026-05-03T07:25:57.982Z</time></trkpt><trkpt lat="45.79003637899802" lon="11.557958768833007"><ele>850.4000000000001</ele><time>2026-05-03T07:25:58.982Z</time></trkpt><trkpt lat="45.79005559342526" lon="11.558061896258925"><ele>848.6</ele><time>2026-05-03T07:25:59.982Z</time></trkpt><trkpt lat="45.79010907631209" lon="11.558197952832256"><ele>846.8</ele><time>2026-05-03T07:26:01.982Z</time></trkpt><trkpt lat="45.790209293512866" lon="11.558211021086633"><ele>845.0</ele><time>2026-05-03T07:26:03.982Z</time></trkpt><trkpt lat="45.79024255934841" lon="11.5580257052541"><ele>847.25</ele><time>2026-05-03T07:26:05.982Z</time></trkpt><trkpt lat="45.790214919925084" lon="11.557883644839233"><ele>849.5</ele><time>2026-05-03T07:26:06.982Z</time></trkpt><trkpt lat="45.79021102984013" lon="11.557721356696678"><ele>851.75</ele><time>2026-05-03T07:26:07.982Z</time></trkpt><trkpt lat="45.79019276206437" lon="11.557530701748464"><ele>854.0</ele><time>2026-05-03T07:26:08.982Z</time></trkpt><trkpt lat="45.790173973118605" lon="11.557328209980232"><ele>854.0</ele><time>2026-05-03T07:26:09.982Z</time></trkpt><trkpt lat="45.79015294255169" lon="11.557101559408489"><ele>854.0</ele><time>2026-05-03T07:26:10.982Z</time></trkpt><trkpt lat="45.79012958808677" lon="11.556848835700034"><ele>854.0</ele><time>2026-05-03T07:26:11.982Z</time></trkpt><trkpt lat="45.79010229587359" lon="11.556576319626686"><ele>855.3333333333334</ele><time>2026-05-03T07:26:12.982Z</time></trkpt><trkpt lat="45.79006589919587" lon="11.556308236704293"><ele>856.6666666666667</ele><time>2026-05-03T07:26:13.982Z</time></trkpt><trkpt lat="45.79001678756315" lon="11.556025266561488"><ele>858.0</ele><time>2026-05-03T07:26:14.982Z</time></trkpt><trkpt lat="45.78995579642464" lon="11.555738354706696"><ele>863.5</ele><time>2026-05-03T07:26:15.982Z</time></trkpt><trkpt lat="45.78988621265379" lon="11.555430438212444"><ele>869.0</ele><time>2026-05-03T07:26:16.982Z</time></trkpt><trkpt lat="45.78980995915388" lon="11.555094096420392"><ele>872.3333333333334</ele><time>2026-05-03T07:26:17.982Z</time></trkpt><trkpt lat="45.789742314274015" lon="11.554798067560512"><ele>875.6666666666667</ele><time>2026-05-03T07:26:18.982Z</time></trkpt><trkpt lat="45.789681799245535" lon="11.55453324040883"><ele>879.0</ele><time>2026-05-03T07:26:19.982Z</time></trkpt><trkpt lat="45.78960522199617" lon="11.55429211667373"><ele>879.25</ele><time>2026-05-03T07:26:20.982Z</time></trkpt><trkpt lat="45.78956155173789" lon="11.554076548680055"><ele>879.5</ele><time>2026-05-03T07:26:21.982Z</time></trkpt><trkpt lat="45.7895185617229" lon="11.553894231166176"><ele>879.75</ele><time>2026-05-03T07:26:22.982Z</time></trkpt><trkpt lat="45.789486532032726" lon="11.553751647551291"><ele>880.0</ele><time>2026-05-03T07:26:23.982Z</time></trkpt><trkpt lat="45.789457378644634" lon="11.553643631994863"><ele>880.3333333333333</ele><time>2026-05-03T07:26:24.982Z</time></trkpt><trkpt lat="45.78944118484037" lon="11.553546040673224"><ele>880.6666666666666</ele><time>2026-05-03T07:26:25.982Z</time></trkpt><trkpt lat="45.78949054254335" lon="11.553453375440723"><ele>881.0</ele><time>2026-05-03T07:26:27.982Z</time></trkpt><trkpt lat="45.789603816332885" lon="11.553502894761033"><ele>881.3333333333333</ele><time>2026-05-03T07:26:29.982Z</time></trkpt><trkpt lat="45.78966838756269" lon="11.553594545564511"><ele>881.6666666666666</ele><time>2026-05-03T07:26:30.982Z</time></trkpt><trkpt lat="45.78973989788722" lon="11.553653292373184"><ele>882.0</ele><time>2026-05-03T07:26:31.982Z</time></trkpt><trkpt lat="45.789812541590265" lon="11.553673814102938"><ele>882.0</ele><time>2026-05-03T07:26:32.982Z</time></trkpt><trkpt lat="45.789889782954454" lon="11.553671883121453"><ele>882.0</ele><time>2026-05-03T07:26:33.982Z</time></trkpt><trkpt lat="45.78998783720257" lon="11.5536164563537"><ele>882.0</ele><time>2026-05-03T07:26:34.982Z</time></trkpt><trkpt lat="45.79007262360589" lon="11.553462863478998"><ele>882.0</ele><time>2026-05-03T07:26:35.982Z</time></trkpt><trkpt lat="45.79015721328427" lon="11.553300936561309"><ele>880.5</ele><time>2026-05-03T07:26:36.982Z</time></trkpt><trkpt lat="45.79026804295318" lon="11.553172034624184"><ele>879.0</ele><time>2026-05-03T07:26:37.982Z</time></trkpt><trkpt lat="45.79040601594621" lon="11.553082357740028"><ele>877.5</ele><time>2026-05-03T07:26:38.982Z</time></trkpt><trkpt lat="45.79054526131746" lon="11.552986997909656"><ele>876.0</ele><time>2026-05-03T07:26:39.982Z</time></trkpt><trkpt lat="45.79069217144065" lon="11.55288776450901"><ele>880.0</ele><time>2026-05-03T07:26:40.982Z</time></trkpt><trkpt lat="45.790840861223764" lon="11.55280831236678"><ele>884.0</ele><time>2026-05-03T07:26:41.982Z</time></trkpt><trkpt lat="45.79097377472311" lon="11.55271827904994"><ele>888.0</ele><time>2026-05-03T07:26:42.982Z</time></trkpt><trkpt lat="45.79109742025703" lon="11.552634264256008"><ele>892.0</ele><time>2026-05-03T07:26:43.982Z</time></trkpt><trkpt lat="45.791205285332126" lon="11.552560972022787"><ele>892.0</ele><time>2026-05-03T07:26:44.982Z</time></trkpt><trkpt lat="45.791303932129814" lon="11.552498575545423"><ele>892.0</ele><time>2026-05-03T07:26:45.982Z</time></trkpt><trkpt lat="45.79140541253819" lon="11.552455714163294"><ele>892.0</ele><time>2026-05-03T07:26:46.982Z</time></trkpt><trkpt lat="45.791514205009456" lon="11.55244187115361"><ele>892.0</ele><time>2026-05-03T07:26:47.982Z</time></trkpt><trkpt lat="45.791633769210826" lon="11.552452078467848"><ele>892.0</ele><time>2026-05-03T07:26:48.982Z</time></trkpt><trkpt lat="45.79176528102974" lon="11.552541767795681"><ele>888.6666666666666</ele><time>2026-05-03T07:26:49.982Z</time></trkpt><trkpt lat="45.79190019583779" lon="11.55266438757587"><ele>885.3333333333333</ele><time>2026-05-03T07:26:50.982Z</time></trkpt><trkpt lat="45.79202945317334" lon="11.552787018183471"><ele>882.0</ele><time>2026-05-03T07:26:51.982Z</time></trkpt><trkpt lat="45.79215299388046" lon="11.552886799209745"><ele>882.0</ele><time>2026-05-03T07:26:52.982Z</time></trkpt><trkpt lat="45.792286136612674" lon="11.552961381828904"><ele>882.0</ele><time>2026-05-03T07:26:53.982Z</time></trkpt><trkpt lat="45.792439768464604" lon="11.55302431218483"><ele>882.0</ele><time>2026-05-03T07:26:54.982Z</time></trkpt><trkpt lat="45.792604899638" lon="11.553045018437109"><ele>883.6666666666667</ele><time>2026-05-03T07:26:55.982Z</time></trkpt><trkpt lat="45.792758599933144" lon="11.55303153638793"><ele>885.3333333333334</ele><time>2026-05-03T07:26:56.982Z</time></trkpt><trkpt lat="45.79289939627083" lon="11.552955782191372"><ele>887.0</ele><time>2026-05-03T07:26:57.981Z</time></trkpt><trkpt lat="45.79304506175011" lon="11.552833906498101"><ele>891.0</ele><time>2026-05-03T07:26:58.981Z</time></trkpt><trkpt lat="45.793202852256265" lon="11.552701324622273"><ele>895.0</ele><time>2026-05-03T07:26:59.981Z</time></trkpt><trkpt lat="45.79335587972805" lon="11.552671381991367"><ele>899.0</ele><time>2026-05-03T07:27:00.981Z</time></trkpt><trkpt lat="45.79345599253063" lon="11.55271179894058"><ele>903.0</ele><time>2026-05-03T07:27:02.981Z</time></trkpt><trkpt lat="45.793603431724584" lon="11.552746141887686"><ele>901.75</ele><time>2026-05-03T07:27:04.981Z</time></trkpt><trkpt lat="45.79371084033002" lon="11.552808250452626"><ele>900.5</ele><time>2026-05-03T07:27:05.981Z</time></trkpt><trkpt lat="45.79383060673718" lon="11.552881050824883"><ele>899.25</ele><time>2026-05-03T07:27:06.981Z</time></trkpt><trkpt lat="45.79395593875889" lon="11.552963159953574"><ele>898.0</ele><time>2026-05-03T07:27:07.981Z</time></trkpt><trkpt lat="45.79408153983625" lon="11.55304776295364"><ele>898.0</ele><time>2026-05-03T07:27:08.981Z</time></trkpt><trkpt lat="45.79420816583724" lon="11.553139558455651"><ele>898.0</ele><time>2026-05-03T07:27:09.981Z</time></trkpt><trkpt lat="45.7943313844625" lon="11.553228436784401"><ele>898.0</ele><time>2026-05-03T07:27:10.981Z</time></trkpt><trkpt lat="45.79446400365398" lon="11.553309814294925"><ele>898.0</ele><time>2026-05-03T07:27:11.981Z</time></trkpt><trkpt lat="45.79458877940529" lon="11.55337474348462"><ele>901.75</ele><time>2026-05-03T07:27:12.981Z</time></trkpt><trkpt lat="45.794696312220694" lon="11.553439461687057"><ele>905.5</ele><time>2026-05-03T07:27:13.981Z</time></trkpt><trkpt lat="45.7947791767101" lon="11.553518709196394"><ele>909.25</ele><time>2026-05-03T07:27:14.981Z</time></trkpt><trkpt lat="45.79485903540005" lon="11.553674076965258"><ele>913.0</ele><time>2026-05-03T07:27:15.981Z</time></trkpt><trkpt lat="45.79496639715027" lon="11.553787125298387"><ele>913.0</ele><time>2026-05-03T07:27:16.981Z</time></trkpt><trkpt lat="45.79503819256384" lon="11.553928282452532"><ele>913.0</ele><time>2026-05-03T07:27:17.981Z</time></trkpt><trkpt lat="45.79512162431694" lon="11.554059654486688"><ele>913.0</ele><time>2026-05-03T07:27:18.981Z</time></trkpt><trkpt lat="45.79519093130736" lon="11.554211058159046"><ele>913.0</ele><time>2026-05-03T07:27:19.981Z</time></trkpt><trkpt lat="45.79525463467758" lon="11.554365069092164"><ele>915.5</ele><time>2026-05-03T07:27:20.981Z</time></trkpt><trkpt lat="45.79530764233601" lon="11.55453117967953"><ele>918.0</ele><time>2026-05-03T07:27:21.981Z</time></trkpt><trkpt lat="45.795374457284105" lon="11.554681771746646"><ele>920.5</ele><time>2026-05-03T07:27:22.981Z</time></trkpt><trkpt lat="45.79546451728719" lon="11.554802882700725"><ele>923.0</ele><time>2026-05-03T07:27:23.981Z</time></trkpt><trkpt lat="45.795578853670094" lon="11.554882511416444"><ele>923.0</ele><time>2026-05-03T07:27:24.981Z</time></trkpt><trkpt lat="45.79570752144762" lon="11.554913569147491"><ele>923.0</ele><time>2026-05-03T07:27:25.981Z</time></trkpt><trkpt lat="45.79582230546654" lon="11.554937253480913"><ele>923.0</ele><time>2026-05-03T07:27:26.981Z</time></trkpt><trkpt lat="45.79592041040358" lon="11.554974855617733"><ele>923.0</ele><time>2026-05-03T07:27:27.981Z</time></trkpt><trkpt lat="45.79599367743005" lon="11.555061431027573"><ele>923.0</ele><time>2026-05-03T07:27:28.981Z</time></trkpt><trkpt lat="45.796057441886134" lon="11.555196503899799"><ele>927.75</ele><time>2026-05-03T07:27:29.981Z</time></trkpt><trkpt lat="45.7960990223769" lon="11.55536627586219"><ele>932.5</ele><time>2026-05-03T07:27:30.981Z</time></trkpt><trkpt lat="45.79613794806694" lon="11.555536721602401"><ele>937.25</ele><time>2026-05-03T07:27:31.981Z</time></trkpt><trkpt lat="45.79618839891529" lon="11.555704508302505"><ele>942.0</ele><time>2026-05-03T07:27:32.981Z</time></trkpt><trkpt lat="45.79624911782284" lon="11.555867549300622"><ele>942.0</ele><time>2026-05-03T07:27:33.981Z</time></trkpt><trkpt lat="45.79632376669263" lon="11.55604584934664"><ele>942.0</ele><time>2026-05-03T07:27:34.981Z</time></trkpt><trkpt lat="45.79640704989462" lon="11.556216308245567"><ele>942.0</ele><time>2026-05-03T07:27:35.981Z</time></trkpt><trkpt lat="45.796497498228085" lon="11.556382644056304"><ele>942.0</ele><time>2026-05-03T07:27:36.981Z</time></trkpt><trkpt lat="45.79661252712693" lon="11.556540307743585"><ele>937.25</ele><time>2026-05-03T07:27:37.981Z</time></trkpt><trkpt lat="45.79670333349113" lon="11.556677334201709"><ele>932.5</ele><time>2026-05-03T07:27:38.982Z</time></trkpt><trkpt lat="45.79676639663059" lon="11.556847376703931"><ele>927.75</ele><time>2026-05-03T07:27:39.982Z</time></trkpt><trkpt lat="45.796784140753346" lon="11.55704792878106"><ele>923.0</ele><time>2026-05-03T07:27:40.982Z</time></trkpt><trkpt lat="45.79682908273165" lon="11.557220102144392"><ele>924.5</ele><time>2026-05-03T07:27:41.982Z</time></trkpt><trkpt lat="45.796900102958105" lon="11.557394421183773"><ele>926.0</ele><time>2026-05-03T07:27:42.982Z</time></trkpt><trkpt lat="45.797011172617516" lon="11.557514670530798"><ele>927.5</ele><time>2026-05-03T07:27:43.982Z</time></trkpt><trkpt lat="45.79714262902457" lon="11.557582422798985"><ele>929.0</ele><time>2026-05-03T07:27:44.982Z</time></trkpt><trkpt lat="45.79729502624075" lon="11.55765531818707"><ele>929.0</ele><time>2026-05-03T07:27:45.982Z</time></trkpt><trkpt lat="45.79748656295472" lon="11.55774338057167"><ele>929.0</ele><time>2026-05-03T07:27:46.982Z</time></trkpt><trkpt lat="45.79771091153285" lon="11.557848059094589"><ele>929.0</ele><time>2026-05-03T07:27:47.982Z</time></trkpt><trkpt lat="45.79794172965743" lon="11.557955754233678"><ele>931.6666666666667</ele><time>2026-05-03T07:27:48.982Z</time></trkpt><trkpt lat="45.79814051848389" lon="11.55804850523458"><ele>934.3333333333333</ele><time>2026-05-03T07:27:49.982Z</time></trkpt><trkpt lat="45.79830142856372" lon="11.558124673221895"><ele>937.0</ele><time>2026-05-03T07:27:50.982Z</time></trkpt><trkpt lat="45.798402337545035" lon="11.558190376905355"><ele>935.25</ele><time>2026-05-03T07:27:51.982Z</time></trkpt><trkpt lat="45.79850394423146" lon="11.558344241718977"><ele>933.5</ele><time>2026-05-03T07:27:52.982Z</time></trkpt><trkpt lat="45.79854620452629" lon="11.558498826174866"><ele>931.75</ele><time>2026-05-03T07:27:53.982Z</time></trkpt><trkpt lat="45.798539876037985" lon="11.558690357625823"><ele>930.0</ele><time>2026-05-03T07:27:54.982Z</time></trkpt><trkpt lat="45.79849188058424" lon="11.558902271654564"><ele>930.0</ele><time>2026-05-03T07:27:55.982Z</time></trkpt><trkpt lat="45.79843650742507" lon="11.559069313352735"><ele>930.0</ele><time>2026-05-03T07:27:56.982Z</time></trkpt><trkpt lat="45.798421557591205" lon="11.559242725464388"><ele>930.0</ele><time>2026-05-03T07:27:57.982Z</time></trkpt><trkpt lat="45.79847199412631" lon="11.559402587837086"><ele>930.0</ele><time>2026-05-03T07:27:58.982Z</time></trkpt><trkpt lat="45.7985754100613" lon="11.559558392566135"><ele>929.0</ele><time>2026-05-03T07:27:59.982Z</time></trkpt><trkpt lat="45.79870254120171" lon="11.559593921603582"><ele>928.0</ele><time>2026-05-03T07:28:00.981Z</time></trkpt><trkpt lat="45.79888250549464" lon="11.559553918067238"><ele>927.0</ele><time>2026-05-03T07:28:01.981Z</time></trkpt><trkpt lat="45.79904709074618" lon="11.559495349143717"><ele>932.0</ele><time>2026-05-03T07:28:02.981Z</time></trkpt><trkpt lat="45.799208693178535" lon="11.559394947412365"><ele>937.0</ele><time>2026-05-03T07:28:03.981Z</time></trkpt><trkpt lat="45.79937422650631" lon="11.559282366464075"><ele>942.0</ele><time>2026-05-03T07:28:04.981Z</time></trkpt><trkpt lat="45.7995277781241" lon="11.559153287227547"><ele>942.0</ele><time>2026-05-03T07:28:05.981Z</time></trkpt><trkpt lat="45.79966674298643" lon="11.559036469796247"><ele>942.0</ele><time>2026-05-03T07:28:06.981Z</time></trkpt><trkpt lat="45.79979092024499" lon="11.55893308262715"><ele>942.0</ele><time>2026-05-03T07:28:07.981Z</time></trkpt><trkpt lat="45.79989958606233" lon="11.558842642937519"><ele>942.0</ele><time>2026-05-03T07:28:08.981Z</time></trkpt><trkpt lat="45.79999063939956" lon="11.558766861592893"><ele>942.0</ele><time>2026-05-03T07:28:09.981Z</time></trkpt><trkpt lat="45.800078895404624" lon="11.5587033282359"><ele>942.0</ele><time>2026-05-03T07:28:10.981Z</time></trkpt><trkpt lat="45.8001695686842" lon="11.558659891227446"><ele>942.0</ele><time>2026-05-03T07:28:11.981Z</time></trkpt><trkpt lat="45.80026565120534" lon="11.558664742492025"><ele>942.0</ele><time>2026-05-03T07:28:12.981Z</time></trkpt><trkpt lat="45.80036512816598" lon="11.558708606106274"><ele>942.0</ele><time>2026-05-03T07:28:13.981Z</time></trkpt><trkpt lat="45.80045933762548" lon="11.558796521519307"><ele>947.0</ele><time>2026-05-03T07:28:14.981Z</time></trkpt><trkpt lat="45.800560392340905" lon="11.558930305521821"><ele>952.0</ele><time>2026-05-03T07:28:15.981Z</time></trkpt><trkpt lat="45.80061569019609" lon="11.559134735201711"><ele>957.0</ele><time>2026-05-03T07:28:16.981Z</time></trkpt><trkpt lat="45.800620585844946" lon="11.5593511933333"><ele>962.0</ele><time>2026-05-03T07:28:17.981Z</time></trkpt><trkpt lat="45.80063476260762" lon="11.559534301652915"><ele>962.0</ele><time>2026-05-03T07:28:18.981Z</time></trkpt><trkpt lat="45.80064351147522" lon="11.559758718300902"><ele>962.0</ele><time>2026-05-03T07:28:19.981Z</time></trkpt><trkpt lat="45.800651351436045" lon="11.560020557446288"><ele>962.0</ele><time>2026-05-03T07:28:20.981Z</time></trkpt><trkpt lat="45.80064944106075" lon="11.560291419109301"><ele>962.0</ele><time>2026-05-03T07:28:21.981Z</time></trkpt><trkpt lat="45.800643282272944" lon="11.560568359875914"><ele>962.0</ele><time>2026-05-03T07:28:22.981Z</time></trkpt><trkpt lat="45.80061441090885" lon="11.56085980501363"><ele>962.0</ele><time>2026-05-03T07:28:23.981Z</time></trkpt><trkpt lat="45.80056596629863" lon="11.561155181012273"><ele>963.6666666666667</ele><time>2026-05-03T07:28:24.981Z</time></trkpt><trkpt lat="45.800492213442396" lon="11.561415438907629"><ele>965.3333333333333</ele><time>2026-05-03T07:28:25.981Z</time></trkpt><trkpt lat="45.80042363495618" lon="11.561627744090385"><ele>967.0</ele><time>2026-05-03T07:28:26.981Z</time></trkpt><trkpt lat="45.800376649582304" lon="11.56178694299608"><ele>967.0</ele><time>2026-05-03T07:28:27.981Z</time></trkpt><trkpt lat="45.80037092810071" lon="11.561932879009214"><ele>967.0</ele><time>2026-05-03T07:28:28.981Z</time></trkpt><trkpt lat="45.80041510437856" lon="11.56209395044289"><ele>967.0</ele><time>2026-05-03T07:28:29.981Z</time></trkpt><trkpt lat="45.80049902261837" lon="11.562281430954421"><ele>967.0</ele><time>2026-05-03T07:28:30.981Z</time></trkpt><trkpt lat="45.800600033957416" lon="11.562517362016855"><ele>967.0</ele><time>2026-05-03T07:28:31.981Z</time></trkpt><trkpt lat="45.80069083601288" lon="11.562767805460473"><ele>967.0</ele><time>2026-05-03T07:28:32.981Z</time></trkpt><trkpt lat="45.80078060649806" lon="11.563013355074148"><ele>967.0</ele><time>2026-05-03T07:28:33.981Z</time></trkpt><trkpt lat="45.80085466083444" lon="11.563207598582338"><ele>965.5</ele><time>2026-05-03T07:28:34.981Z</time></trkpt><trkpt lat="45.800917986830434" lon="11.5633509837489"><ele>964.0</ele><time>2026-05-03T07:28:35.981Z</time></trkpt><trkpt lat="45.800992531837736" lon="11.563473555405535"><ele>962.5</ele><time>2026-05-03T07:28:36.981Z</time></trkpt><trkpt lat="45.80110705571671" lon="11.563548685227419"><ele>961.0</ele><time>2026-05-03T07:28:37.981Z</time></trkpt><trkpt lat="45.80128384166912" lon="11.56355522157613"><ele>966.6666666666666</ele><time>2026-05-03T07:28:38.981Z</time></trkpt><trkpt lat="45.80148354691777" lon="11.563553447904555"><ele>972.3333333333333</ele><time>2026-05-03T07:28:39.981Z</time></trkpt><trkpt lat="45.80164872871555" lon="11.563530660152967"><ele>978.0</ele><time>2026-05-03T07:28:40.981Z</time></trkpt><trkpt lat="45.80175862395724" lon="11.563495231203063"><ele>981.0</ele><time>2026-05-03T07:28:41.981Z</time></trkpt><trkpt lat="45.801851538424934" lon="11.563522733558393"><ele>984.0</ele><time>2026-05-03T07:28:42.981Z</time></trkpt><trkpt lat="45.801930939698835" lon="11.563645268081324"><ele>987.0</ele><time>2026-05-03T07:28:43.981Z</time></trkpt><trkpt lat="45.802002782131446" lon="11.563777497874748"><ele>990.0</ele><time>2026-05-03T07:28:44.981Z</time></trkpt><trkpt lat="45.802006693986584" lon="11.5639989688143"><ele>990.0</ele><time>2026-05-03T07:28:45.981Z</time></trkpt><trkpt lat="45.802020904785145" lon="11.564250138105962"><ele>990.0</ele><time>2026-05-03T07:28:46.981Z</time></trkpt><trkpt lat="45.802055869914916" lon="11.564456187218575"><ele>990.0</ele><time>2026-05-03T07:28:47.981Z</time></trkpt><trkpt lat="45.802081706728025" lon="11.564641436771748"><ele>987.3333333333333</ele><time>2026-05-03T07:28:48.981Z</time></trkpt><trkpt lat="45.802189033540024" lon="11.564792110923635"><ele>984.6666666666666</ele><time>2026-05-03T07:28:49.981Z</time></trkpt><trkpt lat="45.802317456698454" lon="11.564937099342886"><ele>982.0</ele><time>2026-05-03T07:28:50.981Z</time></trkpt><trkpt lat="45.80244526922052" lon="11.565098599256121"><ele>982.0</ele><time>2026-05-03T07:28:51.981Z</time></trkpt><trkpt lat="45.80256662679054" lon="11.565206924954785"><ele>982.0</ele><time>2026-05-03T07:28:52.981Z</time></trkpt><trkpt lat="45.80269329730238" lon="11.565261817422353"><ele>982.0</ele><time>2026-05-03T07:28:53.981Z</time></trkpt><trkpt lat="45.80284925309112" lon="11.565252813639404"><ele>982.0</ele><time>2026-05-03T07:28:54.981Z</time></trkpt><trkpt lat="45.803061672217126" lon="11.565221799591889"><ele>985.0</ele><time>2026-05-03T07:28:55.981Z</time></trkpt><trkpt lat="45.80326903311903" lon="11.565188695366883"><ele>988.0</ele><time>2026-05-03T07:28:56.981Z</time></trkpt><trkpt lat="45.80344316881848" lon="11.565213258294849"><ele>991.0</ele><time>2026-05-03T07:28:57.981Z</time></trkpt><trkpt lat="45.80358776322986" lon="11.565297598311098"><ele>992.0</ele><time>2026-05-03T07:28:58.981Z</time></trkpt><trkpt lat="45.80374864704261" lon="11.565439622374335"><ele>993.0</ele><time>2026-05-03T07:28:59.981Z</time></trkpt><trkpt lat="45.80391836860385" lon="11.56561400528062"><ele>994.0</ele><time>2026-05-03T07:29:00.981Z</time></trkpt><trkpt lat="45.804077461764294" lon="11.565828959300482"><ele>994.0</ele><time>2026-05-03T07:29:01.981Z</time></trkpt><trkpt lat="45.804248506921695" lon="11.5660813430919"><ele>994.0</ele><time>2026-05-03T07:29:02.981Z</time></trkpt><trkpt lat="45.804405524905185" lon="11.566314765181778"><ele>997.6666666666666</ele><time>2026-05-03T07:29:03.981Z</time></trkpt><trkpt lat="45.80454553370393" lon="11.566528747631013"><ele>1001.3333333333333</ele><time>2026-05-03T07:29:04.981Z</time></trkpt><trkpt lat="45.8046742600624" lon="11.566699493773513"><ele>1005.0</ele><time>2026-05-03T07:29:05.981Z</time></trkpt><trkpt lat="45.804800066122226" lon="11.566844976608852"><ele>1005.0</ele><time>2026-05-03T07:29:06.981Z</time></trkpt><trkpt lat="45.80493399753601" lon="11.566948584312247"><ele>1005.0</ele><time>2026-05-03T07:29:07.981Z</time></trkpt><trkpt lat="45.80507774657569" lon="11.56699807034386"><ele>1005.0</ele><time>2026-05-03T07:29:08.981Z</time></trkpt><trkpt lat="45.80523023003606" lon="11.567000522185523"><ele>1007.3333333333333</ele><time>2026-05-03T07:29:09.981Z</time></trkpt><trkpt lat="45.80538196147884" lon="11.566959399158097"><ele>1009.6666666666666</ele><time>2026-05-03T07:29:10.981Z</time></trkpt><trkpt lat="45.8055374439181" lon="11.566843034352054"><ele>1012.0</ele><time>2026-05-03T07:29:11.981Z</time></trkpt><trkpt lat="45.8056756817984" lon="11.566738137392653"><ele>1012.0</ele><time>2026-05-03T07:29:12.981Z</time></trkpt><trkpt lat="45.80579981119255" lon="11.566653984876691"><ele>1012.0</ele><time>2026-05-03T07:29:13.981Z</time></trkpt><trkpt lat="45.805946007220534" lon="11.566635678719907"><ele>1012.0</ele><time>2026-05-03T07:29:14.981Z</time></trkpt><trkpt lat="45.8060864402399" lon="11.566636145031666"><ele>1012.0</ele><time>2026-05-03T07:29:15.981Z</time></trkpt><trkpt lat="45.80622479470746" lon="11.566688072561622"><ele>1013.6666666666666</ele><time>2026-05-03T07:29:16.981Z</time></trkpt><trkpt lat="45.80637351531653" lon="11.566802380783331"><ele>1015.3333333333333</ele><time>2026-05-03T07:29:17.981Z</time></trkpt><trkpt lat="45.806549908150345" lon="11.566951019020868"><ele>1017.0</ele><time>2026-05-03T07:29:18.981Z</time></trkpt><trkpt lat="45.806695512259175" lon="11.567080839885666"><ele>1017.0</ele><time>2026-05-03T07:29:19.981Z</time></trkpt><trkpt lat="45.80681651328489" lon="11.567188630969573"><ele>1017.0</ele><time>2026-05-03T07:29:20.981Z</time></trkpt><trkpt lat="45.80692184073064" lon="11.567293311489795"><ele>1017.0</ele><time>2026-05-03T07:29:21.981Z</time></trkpt><trkpt lat="45.80700352491334" lon="11.567414634143825"><ele>1017.0</ele><time>2026-05-03T07:29:22.981Z</time></trkpt><trkpt lat="45.80707429422338" lon="11.567576815288025"><ele>1022.6666666666667</ele><time>2026-05-03T07:29:23.981Z</time></trkpt><trkpt lat="45.80714263305043" lon="11.56778307001513"><ele>1028.3333333333335</ele><time>2026-05-03T07:29:24.98Z</time></trkpt><trkpt lat="45.8072172378444" lon="11.56801713121864"><ele>1034.0</ele><time>2026-05-03T07:29:25.98Z</time></trkpt><trkpt lat="45.80729532252718" lon="11.568263319991198"><ele>1034.0</ele><time>2026-05-03T07:29:26.98Z</time></trkpt><trkpt lat="45.807368640943544" lon="11.568485486435678"><ele>1034.0</ele><time>2026-05-03T07:29:27.98Z</time></trkpt><trkpt lat="45.80743418453743" lon="11.568683135939672"><ele>1034.0</ele><time>2026-05-03T07:29:28.98Z</time></trkpt><trkpt lat="45.80749343795416" lon="11.568873953017757"><ele>1032.6666666666667</ele><time>2026-05-03T07:29:29.98Z</time></trkpt><trkpt lat="45.80753654621028" lon="11.569077592699662"><ele>1031.3333333333333</ele><time>2026-05-03T07:29:30.98Z</time></trkpt><trkpt lat="45.80757375318902" lon="11.56929509794219"><ele>1030.0</ele><time>2026-05-03T07:29:31.98Z</time></trkpt><trkpt lat="45.80761299613553" lon="11.569534237038484"><ele>1029.6666666666665</ele><time>2026-05-03T07:29:32.98Z</time></trkpt><trkpt lat="45.80765486800707" lon="11.569792666404703"><ele>1029.3333333333333</ele><time>2026-05-03T07:29:33.98Z</time></trkpt><trkpt lat="45.80769740815745" lon="11.570038800146978"><ele>1029.0</ele><time>2026-05-03T07:29:34.98Z</time></trkpt><trkpt lat="45.80775405895684" lon="11.570270560607733"><ele>1037.0</ele><time>2026-05-03T07:29:35.98Z</time></trkpt><trkpt lat="45.80787036379937" lon="11.570496945683754"><ele>1045.0</ele><time>2026-05-03T07:29:36.98Z</time></trkpt><trkpt lat="45.80797813878323" lon="11.570731580506376"><ele>1053.0</ele><time>2026-05-03T07:29:37.981Z</time></trkpt><trkpt lat="45.80805306613099" lon="11.570934815264467"><ele>1053.0</ele><time>2026-05-03T07:29:38.981Z</time></trkpt><trkpt lat="45.80810754928094" lon="11.571132612818616"><ele>1053.0</ele><time>2026-05-03T07:29:39.981Z</time></trkpt><trkpt lat="45.80814207554821" lon="11.571344252313896"><ele>1053.0</ele><time>2026-05-03T07:29:40.981Z</time></trkpt><trkpt lat="45.80816939476819" lon="11.571579461077034"><ele>1051.6666666666667</ele><time>2026-05-03T07:29:41.981Z</time></trkpt><trkpt lat="45.80822068852611" lon="11.571865340823049"><ele>1050.3333333333335</ele><time>2026-05-03T07:29:42.981Z</time></trkpt><trkpt lat="45.80825216864788" lon="11.572187462907312"><ele>1049.0</ele><time>2026-05-03T07:29:43.982Z</time></trkpt><trkpt lat="45.80830654151547" lon="11.572512316877757"><ele>1049.0</ele><time>2026-05-03T07:29:44.981Z</time></trkpt><trkpt lat="45.80836687310985" lon="11.572855650977214"><ele>1049.0</ele><time>2026-05-03T07:29:45.981Z</time></trkpt><trkpt lat="45.80842944615589" lon="11.573207637842607"><ele>1065.0</ele><time>2026-05-03T07:29:46.981Z</time></trkpt><trkpt lat="45.80851554943014" lon="11.573553933399275"><ele>1081.0</ele><time>2026-05-03T07:29:47.981Z</time></trkpt><trkpt lat="45.80860310162847" lon="11.573862188881526"><ele>1081.0</ele><time>2026-05-03T07:29:48.981Z</time></trkpt><trkpt lat="45.80865879864038" lon="11.574150151623387"><ele>1081.0</ele><time>2026-05-03T07:29:49.981Z</time></trkpt><trkpt lat="45.808721014953726" lon="11.57440465269023"><ele>1081.0</ele><time>2026-05-03T07:29:50.981Z</time></trkpt><trkpt lat="45.80878090832174" lon="11.574636670844065"><ele>1080.0</ele><time>2026-05-03T07:29:51.981Z</time></trkpt><trkpt lat="45.80883862500227" lon="11.574858599982887"><ele>1079.0</ele><time>2026-05-03T07:29:52.981Z</time></trkpt><trkpt lat="45.80890636368186" lon="11.575056036801543"><ele>1078.0</ele><time>2026-05-03T07:29:53.981Z</time></trkpt><trkpt lat="45.80895349099292" lon="11.575252114601085"><ele>1075.75</ele><time>2026-05-03T07:29:54.981Z</time></trkpt><trkpt lat="45.8089952758569" lon="11.57542808519263"><ele>1073.5</ele><time>2026-05-03T07:29:55.981Z</time></trkpt><trkpt lat="45.8090386156899" lon="11.575604818194146"><ele>1071.25</ele><time>2026-05-03T07:29:56.981Z</time></trkpt><trkpt lat="45.80908059682637" lon="11.575776696385969"><ele>1069.0</ele><time>2026-05-03T07:29:57.98Z</time></trkpt><trkpt lat="45.80912781497" lon="11.575957196712025"><ele>1069.0</ele><time>2026-05-03T07:29:58.98Z</time></trkpt><trkpt lat="45.80918674560602" lon="11.576133543304843"><ele>1069.0</ele><time>2026-05-03T07:29:59.98Z</time></trkpt><trkpt lat="45.809260437590844" lon="11.576291521718556"><ele>1069.0</ele><time>2026-05-03T07:30:00.98Z</time></trkpt><trkpt lat="45.8093596116865" lon="11.576425621512898"><ele>1069.0</ele><time>2026-05-03T07:30:01.98Z</time></trkpt><trkpt lat="45.80944648820632" lon="11.576548916663102"><ele>1072.4</ele><time>2026-05-03T07:30:02.98Z</time></trkpt><trkpt lat="45.80953168831967" lon="11.576665631313212"><ele>1075.8000000000002</ele><time>2026-05-03T07:30:03.98Z</time></trkpt><trkpt lat="45.809608494791334" lon="11.576773645630874"><ele>1079.1999999999998</ele><time>2026-05-03T07:30:04.98Z</time></trkpt><trkpt lat="45.80968411062641" lon="11.576872415749625"><ele>1082.6</ele><time>2026-05-03T07:30:05.98Z</time></trkpt><trkpt lat="45.80974368509528" lon="11.576958321378667"><ele>1086.0</ele><time>2026-05-03T07:30:06.98Z</time></trkpt><trkpt lat="45.809801758542626" lon="11.577044352873816"><ele>1086.0</ele><time>2026-05-03T07:30:07.98Z</time></trkpt><trkpt lat="45.80986133268254" lon="11.577149237414016"><ele>1086.0</ele><time>2026-05-03T07:30:08.98Z</time></trkpt><trkpt lat="45.80992229380558" lon="11.577272799836875"><ele>1086.0</ele><time>2026-05-03T07:30:09.98Z</time></trkpt><trkpt lat="45.809967894904794" lon="11.577426691688274"><ele>1086.0</ele><time>2026-05-03T07:30:10.98Z</time></trkpt><trkpt lat="45.809992939863946" lon="11.577607044306042"><ele>1086.0</ele><time>2026-05-03T07:30:11.98Z</time></trkpt><trkpt lat="45.80999572530834" lon="11.577796865460163"><ele>1085.0</ele><time>2026-05-03T07:30:12.98Z</time></trkpt><trkpt lat="45.80999532893719" lon="11.578007484827227"><ele>1084.0</ele><time>2026-05-03T07:30:13.98Z</time></trkpt><trkpt lat="45.809986651414505" lon="11.578243111384563"><ele>1083.0</ele><time>2026-05-03T07:30:14.98Z</time></trkpt><trkpt lat="45.809992083620884" lon="11.578479312406898"><ele>1083.0</ele><time>2026-05-03T07:30:15.98Z</time></trkpt><trkpt lat="45.81001451252471" lon="11.57870925203372"><ele>1083.0</ele><time>2026-05-03T07:30:16.98Z</time></trkpt><trkpt lat="45.81006233094204" lon="11.578928341998527"><ele>1083.0</ele><time>2026-05-03T07:30:17.98Z</time></trkpt><trkpt lat="45.810113862207324" lon="11.57912842839896"><ele>1083.0</ele><time>2026-05-03T07:30:18.98Z</time></trkpt><trkpt lat="45.81014538360732" lon="11.579295063083856"><ele>1083.0</ele><time>2026-05-03T07:30:19.98Z</time></trkpt><trkpt lat="45.810161113017905" lon="11.579426388278437"><ele>1083.0</ele><time>2026-05-03T07:30:20.98Z</time></trkpt><trkpt lat="45.8101860305856" lon="11.57954561751059"><ele>1083.0</ele><time>2026-05-03T07:30:21.98Z</time></trkpt><trkpt lat="45.81021177942249" lon="11.579664718522254"><ele>1083.0</ele><time>2026-05-03T07:30:22.98Z</time></trkpt><trkpt lat="45.810209903776894" lon="11.5797863840754"><ele>1086.6666666666667</ele><time>2026-05-03T07:30:23.98Z</time></trkpt><trkpt lat="45.81022764552711" lon="11.579885705174762"><ele>1090.3333333333333</ele><time>2026-05-03T07:30:24.98Z</time></trkpt><trkpt lat="45.810252184945966" lon="11.579982802800476"><ele>1094.0</ele><time>2026-05-03T07:30:25.98Z</time></trkpt><trkpt lat="45.81028308385554" lon="11.580100245533469"><ele>1097.6666666666665</ele><time>2026-05-03T07:30:26.98Z</time></trkpt><trkpt lat="45.810328055305" lon="11.58021442258464"><ele>1101.3333333333333</ele><time>2026-05-03T07:30:27.98Z</time></trkpt><trkpt lat="45.81039642804687" lon="11.58034220655339"><ele>1105.0</ele><time>2026-05-03T07:30:28.98Z</time></trkpt><trkpt lat="45.81047385108564" lon="11.580491383575495"><ele>1105.0</ele><time>2026-05-03T07:30:29.98Z</time></trkpt><trkpt lat="45.810552605539876" lon="11.580653106735522"><ele>1105.0</ele><time>2026-05-03T07:30:30.98Z</time></trkpt><trkpt lat="45.81063761500426" lon="11.580830692343929"><ele>1105.0</ele><time>2026-05-03T07:30:31.98Z</time></trkpt><trkpt lat="45.81072796783593" lon="11.58101777118788"><ele>1105.0</ele><time>2026-05-03T07:30:32.98Z</time></trkpt><trkpt lat="45.8108104868752" lon="11.581210908605186"><ele>1099.6666666666665</ele><time>2026-05-03T07:30:33.98Z</time></trkpt><trkpt lat="45.81088946234209" lon="11.581421776217905"><ele>1094.3333333333333</ele><time>2026-05-03T07:30:34.98Z</time></trkpt><trkpt lat="45.810956510119276" lon="11.581646705320345"><ele>1089.0</ele><time>2026-05-03T07:30:35.98Z</time></trkpt><trkpt lat="45.81101752096967" lon="11.581881677517279"><ele>1097.6666666666667</ele><time>2026-05-03T07:30:36.98Z</time></trkpt><trkpt lat="45.81106472924148" lon="11.582116737383688"><ele>1106.3333333333335</ele><time>2026-05-03T07:30:37.98Z</time></trkpt><trkpt lat="45.811113168120905" lon="11.582345009070728"><ele>1115.0</ele><time>2026-05-03T07:30:38.98Z</time></trkpt><trkpt lat="45.81116862995818" lon="11.582551951721657"><ele>1115.0</ele><time>2026-05-03T07:30:39.98Z</time></trkpt><trkpt lat="45.81123129586999" lon="11.582759947841694"><ele>1115.0</ele><time>2026-05-03T07:30:40.98Z</time></trkpt><trkpt lat="45.811302917839605" lon="11.582957954879282"><ele>1115.0</ele><time>2026-05-03T07:30:41.98Z</time></trkpt><trkpt lat="45.811393065331096" lon="11.58315108794478"><ele>1109.6666666666667</ele><time>2026-05-03T07:30:42.98Z</time></trkpt><trkpt lat="45.81148991713374" lon="11.583357695280288"><ele>1104.3333333333333</ele><time>2026-05-03T07:30:43.98Z</time></trkpt><trkpt lat="45.81158469001829" lon="11.583582743749014"><ele>1099.0</ele><time>2026-05-03T07:30:44.98Z</time></trkpt><trkpt lat="45.81167493358902" lon="11.583812697795075"><ele>1093.6666666666665</ele><time>2026-05-03T07:30:45.98Z</time></trkpt><trkpt lat="45.811760498457005" lon="11.584034099779087"><ele>1088.3333333333333</ele><time>2026-05-03T07:30:46.98Z</time></trkpt><trkpt lat="45.81183877773441" lon="11.584258121763819"><ele>1083.0</ele><time>2026-05-03T07:30:47.98Z</time></trkpt><trkpt lat="45.81192061005966" lon="11.58449337200546"><ele>1089.6666666666667</ele><time>2026-05-03T07:30:48.98Z</time></trkpt><trkpt lat="45.812001301741525" lon="11.584727255011463"><ele>1096.3333333333335</ele><time>2026-05-03T07:30:49.98Z</time></trkpt><trkpt lat="45.81207238013258" lon="11.5849545786146"><ele>1103.0</ele><time>2026-05-03T07:30:50.98Z</time></trkpt><trkpt lat="45.81214001118878" lon="11.585163600972624"><ele>1100.0</ele><time>2026-05-03T07:30:51.98Z</time></trkpt><trkpt lat="45.81220201289596" lon="11.585380691098273"><ele>1097.0</ele><time>2026-05-03T07:30:52.98Z</time></trkpt><trkpt lat="45.812251430562995" lon="11.58559450125304"><ele>1094.0</ele><time>2026-05-03T07:30:53.98Z</time></trkpt><trkpt lat="45.812289630916545" lon="11.58579995076153"><ele>1094.0</ele><time>2026-05-03T07:30:54.98Z</time></trkpt><trkpt lat="45.81232812049193" lon="11.586010055820985"><ele>1094.0</ele><time>2026-05-03T07:30:55.98Z</time></trkpt><trkpt lat="45.812363168353734" lon="11.586224994194211"><ele>1094.0</ele><time>2026-05-03T07:30:56.98Z</time></trkpt><trkpt lat="45.812401096988566" lon="11.586442052887945"><ele>1091.3333333333335</ele><time>2026-05-03T07:30:57.98Z</time></trkpt><trkpt lat="45.812448785473315" lon="11.586666051112497"><ele>1088.6666666666667</ele><time>2026-05-03T07:30:58.98Z</time></trkpt><trkpt lat="45.812501418163166" lon="11.58689350172386"><ele>1086.0</ele><time>2026-05-03T07:30:59.98Z</time></trkpt><trkpt lat="45.81255814575067" lon="11.587121033008923"><ele>1082.6666666666667</ele><time>2026-05-03T07:31:00.98Z</time></trkpt><trkpt lat="45.81262088912575" lon="11.587371686089204"><ele>1079.3333333333335</ele><time>2026-05-03T07:31:01.98Z</time></trkpt><trkpt lat="45.81268208830771" lon="11.58762086304937"><ele>1076.0</ele><time>2026-05-03T07:31:02.98Z</time></trkpt><trkpt lat="45.81273598314987" lon="11.587850727691835"><ele>1082.75</ele><time>2026-05-03T07:31:03.98Z</time></trkpt><trkpt lat="45.812775220734146" lon="11.58807104203384"><ele>1089.5</ele><time>2026-05-03T07:31:04.98Z</time></trkpt><trkpt lat="45.81279020584244" lon="11.58827118082165"><ele>1096.25</ele><time>2026-05-03T07:31:05.98Z</time></trkpt><trkpt lat="45.81281640690747" lon="11.588452672978878"><ele>1103.0</ele><time>2026-05-03T07:31:06.98Z</time></trkpt><trkpt lat="45.81283413168996" lon="11.58861673440785"><ele>1100.2</ele><time>2026-05-03T07:31:07.98Z</time></trkpt><trkpt lat="45.81285449012707" lon="11.588768368941773"><ele>1097.4</ele><time>2026-05-03T07:31:08.98Z</time></trkpt><trkpt lat="45.812883237092066" lon="11.588920252485243"><ele>1094.6000000000001</ele><time>2026-05-03T07:31:09.98Z</time></trkpt><trkpt lat="45.81291344167344" lon="11.589060571068524"><ele>1091.8</ele><time>2026-05-03T07:31:10.98Z</time></trkpt><trkpt lat="45.81297518917908" lon="11.589170500798174"><ele>1089.0</ele><time>2026-05-03T07:31:11.98Z</time></trkpt><trkpt lat="45.81308401961733" lon="11.589224720273634"><ele>1089.0</ele><time>2026-05-03T07:31:12.98Z</time></trkpt><trkpt lat="45.8132080832295" lon="11.589325108855801"><ele>1089.0</ele><time>2026-05-03T07:31:13.98Z</time></trkpt><trkpt lat="45.81332066120984" lon="11.58945397781101"><ele>1089.0</ele><time>2026-05-03T07:31:14.98Z</time></trkpt><trkpt lat="45.813401890795575" lon="11.589617333364709"><ele>1089.0</ele><time>2026-05-03T07:31:15.98Z</time></trkpt><trkpt lat="45.813460746624315" lon="11.58979532103827"><ele>1088.2</ele><time>2026-05-03T07:31:16.98Z</time></trkpt><trkpt lat="45.813515355382876" lon="11.589952287724273"><ele>1087.4</ele><time>2026-05-03T07:31:17.98Z</time></trkpt><trkpt lat="45.813566328302436" lon="11.590099239867111"><ele>1086.6</ele><time>2026-05-03T07:31:18.98Z</time></trkpt><trkpt lat="45.81360768665356" lon="11.590244939023043"><ele>1085.8</ele><time>2026-05-03T07:31:19.98Z</time></trkpt><trkpt lat="45.81364366964884" lon="11.59037078862054"><ele>1085.0</ele><time>2026-05-03T07:31:20.979Z</time></trkpt><trkpt lat="45.81370800739962" lon="11.590471510941256"><ele>1080.25</ele><time>2026-05-03T07:31:21.979Z</time></trkpt><trkpt lat="45.81381496180199" lon="11.590510411699958"><ele>1075.5</ele><time>2026-05-03T07:31:22.979Z</time></trkpt><trkpt lat="45.81394775809961" lon="11.590538858022375"><ele>1070.75</ele><time>2026-05-03T07:31:23.979Z</time></trkpt><trkpt lat="45.814070717696794" lon="11.590572275329976"><ele>1066.0</ele><time>2026-05-03T07:31:24.979Z</time></trkpt><trkpt lat="45.81417623465984" lon="11.590628253525773"><ele>1066.0</ele><time>2026-05-03T07:31:25.979Z</time></trkpt><trkpt lat="45.81428884984233" lon="11.590658788268295"><ele>1066.0</ele><time>2026-05-03T07:31:26.979Z</time></trkpt><trkpt lat="45.81437479638334" lon="11.590699908298603"><ele>1066.0</ele><time>2026-05-03T07:31:27.979Z</time></trkpt><trkpt lat="45.81446096709326" lon="11.590737899363898"><ele>1066.0</ele><time>2026-05-03T07:31:28.979Z</time></trkpt><trkpt lat="45.81454455687625" lon="11.590792440078646"><ele>1066.0</ele><time>2026-05-03T07:31:29.979Z</time></trkpt><trkpt lat="45.81460761752061" lon="11.590903646835597"><ele>1068.0</ele><time>2026-05-03T07:31:30.979Z</time></trkpt><trkpt lat="45.81462839298694" lon="11.591064117674499"><ele>1070.0</ele><time>2026-05-03T07:31:31.979Z</time></trkpt><trkpt lat="45.814590929848826" lon="11.591233926112086"><ele>1072.0</ele><time>2026-05-03T07:31:32.979Z</time></trkpt><trkpt lat="45.81450414034078" lon="11.591379529059944"><ele>1074.0</ele><time>2026-05-03T07:31:33.979Z</time></trkpt><trkpt lat="45.81441684452408" lon="11.591515694761785"><ele>1074.0</ele><time>2026-05-03T07:31:34.979Z</time></trkpt><trkpt lat="45.81437119996638" lon="11.591662971537037"><ele>1074.0</ele><time>2026-05-03T07:31:35.979Z</time></trkpt><trkpt lat="45.81435892699704" lon="11.591844242318393"><ele>1074.0</ele><time>2026-05-03T07:31:36.979Z</time></trkpt><trkpt lat="45.81438153261976" lon="11.592007585019685"><ele>1074.0</ele><time>2026-05-03T07:31:37.979Z</time></trkpt><trkpt lat="45.814406286947644" lon="11.592141885889584"><ele>1071.8</ele><time>2026-05-03T07:31:38.979Z</time></trkpt><trkpt lat="45.81443076746432" lon="11.592273904162182"><ele>1069.6000000000001</ele><time>2026-05-03T07:31:39.979Z</time></trkpt><trkpt lat="45.81447726461152" lon="11.59241658312004"><ele>1067.4</ele><time>2026-05-03T07:31:40.979Z</time></trkpt><trkpt lat="45.81454772736342" lon="11.592554306070863"><ele>1065.2</ele><time>2026-05-03T07:31:41.979Z</time></trkpt><trkpt lat="45.81463953477885" lon="11.592671583903789"><ele>1063.0</ele><time>2026-05-03T07:31:42.979Z</time></trkpt><trkpt lat="45.81472380186288" lon="11.59278470132093"><ele>1059.5</ele><time>2026-05-03T07:31:43.981Z</time></trkpt><trkpt lat="45.8148143433826" lon="11.592900341058268"><ele>1056.0</ele><time>2026-05-03T07:31:44.981Z</time></trkpt><trkpt lat="45.81491269388045" lon="11.59299460483859"><ele>1052.5</ele><time>2026-05-03T07:31:45.981Z</time></trkpt><trkpt lat="45.81502185122811" lon="11.593049628430116"><ele>1049.0</ele><time>2026-05-03T07:31:46.981Z</time></trkpt><trkpt lat="45.815121200676735" lon="11.593102415986321"><ele>1051.4</ele><time>2026-05-03T07:31:47.981Z</time></trkpt><trkpt lat="45.81523131659425" lon="11.593133539822903"><ele>1053.8000000000002</ele><time>2026-05-03T07:31:48.981Z</time></trkpt><trkpt lat="45.815326173976565" lon="11.593176000782892"><ele>1056.1999999999998</ele><time>2026-05-03T07:31:49.981Z</time></trkpt><trkpt lat="45.815410122867966" lon="11.59323353962514"><ele>1058.6</ele><time>2026-05-03T07:31:50.981Z</time></trkpt><trkpt lat="45.815481664253554" lon="11.593332433762768"><ele>1061.0</ele><time>2026-05-03T07:31:51.981Z</time></trkpt><trkpt lat="45.81550203047284" lon="11.593474928185067"><ele>1061.0</ele><time>2026-05-03T07:31:52.981Z</time></trkpt><trkpt lat="45.81548167563782" lon="11.593629559474213"><ele>1061.0</ele><time>2026-05-03T07:31:53.981Z</time></trkpt><trkpt lat="45.815431729322256" lon="11.593754651000825"><ele>1061.0</ele><time>2026-05-03T07:31:54.981Z</time></trkpt><trkpt lat="45.81539167007567" lon="11.593877532029488"><ele>1061.0</ele><time>2026-05-03T07:31:55.981Z</time></trkpt><trkpt lat="45.81538050399798" lon="11.594008229791005"><ele>1061.0</ele><time>2026-05-03T07:31:56.98Z</time></trkpt><trkpt lat="45.81541514078381" lon="11.594137416727886"><ele>1060.0</ele><time>2026-05-03T07:31:57.98Z</time></trkpt><trkpt lat="45.81545235356053" lon="11.594248518589012"><ele>1059.0</ele><time>2026-05-03T07:31:58.98Z</time></trkpt><trkpt lat="45.815487975091344" lon="11.59433688702154"><ele>1058.0</ele><time>2026-05-03T07:31:59.98Z</time></trkpt><trkpt lat="45.815520828881795" lon="11.594426427553678"><ele>1057.0</ele><time>2026-05-03T07:32:00.98Z</time></trkpt><trkpt lat="45.81555290845451" lon="11.594526538537552"><ele>1056.0</ele><time>2026-05-03T07:32:01.98Z</time></trkpt><trkpt lat="45.815596960008676" lon="11.594632160101416"><ele>1055.0</ele><time>2026-05-03T07:32:02.98Z</time></trkpt><trkpt lat="45.815663121649074" lon="11.594725942421107"><ele>1055.0</ele><time>2026-05-03T07:32:03.98Z</time></trkpt><trkpt lat="45.81574999121518" lon="11.594784116096449"><ele>1055.0</ele><time>2026-05-03T07:32:04.98Z</time></trkpt><trkpt lat="45.815866824278885" lon="11.594795358452233"><ele>1055.0</ele><time>2026-05-03T07:32:05.98Z</time></trkpt><trkpt lat="45.81600780531696" lon="11.594773719827675"><ele>1055.0</ele><time>2026-05-03T07:32:06.98Z</time></trkpt><trkpt lat="45.81613701658509" lon="11.594751053372626"><ele>1056.75</ele><time>2026-05-03T07:32:07.98Z</time></trkpt><trkpt lat="45.8162697483226" lon="11.59473172686491"><ele>1058.5</ele><time>2026-05-03T07:32:08.98Z</time></trkpt><trkpt lat="45.81639693599622" lon="11.594734173068831"><ele>1060.25</ele><time>2026-05-03T07:32:09.98Z</time></trkpt><trkpt lat="45.81653259487837" lon="11.59475162574896"><ele>1062.0</ele><time>2026-05-03T07:32:10.98Z</time></trkpt><trkpt lat="45.81668364454834" lon="11.594765792153128"><ele>1060.75</ele><time>2026-05-03T07:32:11.98Z</time></trkpt><trkpt lat="45.81682736415813" lon="11.59479545632139"><ele>1059.5</ele><time>2026-05-03T07:32:12.98Z</time></trkpt><trkpt lat="45.81696969052086" lon="11.594824443491763"><ele>1058.25</ele><time>2026-05-03T07:32:13.98Z</time></trkpt><trkpt lat="45.81711026845896" lon="11.594849486316924"><ele>1057.0</ele><time>2026-05-03T07:32:14.98Z</time></trkpt><trkpt lat="45.817249117231064" lon="11.594877069480127"><ele>1057.0</ele><time>2026-05-03T07:32:15.98Z</time></trkpt><trkpt lat="45.81739774266692" lon="11.59490508582993"><ele>1057.0</ele><time>2026-05-03T07:32:16.98Z</time></trkpt><trkpt lat="45.81757332332661" lon="11.594931015964551"><ele>1057.0</ele><time>2026-05-03T07:32:17.98Z</time></trkpt><trkpt lat="45.81778532623898" lon="11.59497745743027"><ele>1059.5</ele><time>2026-05-03T07:32:18.98Z</time></trkpt><trkpt lat="45.81802464071648" lon="11.595031654639406"><ele>1062.0</ele><time>2026-05-03T07:32:19.98Z</time></trkpt><trkpt lat="45.8182781153232" lon="11.595106182988573"><ele>1065.5</ele><time>2026-05-03T07:32:20.98Z</time></trkpt><trkpt lat="45.81854792345292" lon="11.59521080297498"><ele>1069.0</ele><time>2026-05-03T07:32:21.98Z</time></trkpt><trkpt lat="45.81881327474601" lon="11.595365245542927"><ele>1069.0</ele><time>2026-05-03T07:32:22.98Z</time></trkpt><trkpt lat="45.81907449344462" lon="11.595550245041194"><ele>1069.0</ele><time>2026-05-03T07:32:23.98Z</time></trkpt><trkpt lat="45.81929195864082" lon="11.595742885045613"><ele>1073.0</ele><time>2026-05-03T07:32:24.98Z</time></trkpt><trkpt lat="45.819543072424494" lon="11.595983830382748"><ele>1077.0</ele><time>2026-05-03T07:32:25.98Z</time></trkpt><trkpt lat="45.81979516676044" lon="11.59622748309968"><ele>1077.0</ele><time>2026-05-03T07:32:26.98Z</time></trkpt><trkpt lat="45.820058843531925" lon="11.596437877396546"><ele>1077.0</ele><time>2026-05-03T07:32:27.98Z</time></trkpt><trkpt lat="45.82031549354465" lon="11.596611997451662"><ele>1077.0</ele><time>2026-05-03T07:32:28.98Z</time></trkpt><trkpt lat="45.82054498092713" lon="11.59679740125387"><ele>1077.0</ele><time>2026-05-03T07:32:29.98Z</time></trkpt><trkpt lat="45.820797831771635" lon="11.597026856173406"><ele>1078.5</ele><time>2026-05-03T07:32:30.98Z</time></trkpt><trkpt lat="45.821018696544904" lon="11.597229416037747"><ele>1080.0</ele><time>2026-05-03T07:32:31.98Z</time></trkpt><trkpt lat="45.82123616594978" lon="11.597367022831838"><ele>1080.0</ele><time>2026-05-03T07:32:32.98Z</time></trkpt><trkpt lat="45.82149529738996" lon="11.597443526537552"><ele>1080.0</ele><time>2026-05-03T07:32:33.98Z</time></trkpt><trkpt lat="45.82175054596101" lon="11.597493469386508"><ele>1077.0</ele><time>2026-05-03T07:32:34.98Z</time></trkpt><trkpt lat="45.821973345135895" lon="11.597547069522628"><ele>1074.0</ele><time>2026-05-03T07:32:35.98Z</time></trkpt><trkpt lat="45.82219479279435" lon="11.59759961035818"><ele>1074.0</ele><time>2026-05-03T07:32:36.98Z</time></trkpt><trkpt lat="45.82242999649633" lon="11.597612571352805"><ele>1074.0</ele><time>2026-05-03T07:32:37.98Z</time></trkpt><trkpt lat="45.82265134001859" lon="11.59760228463395"><ele>1074.6666666666667</ele><time>2026-05-03T07:32:38.98Z</time></trkpt><trkpt lat="45.82287046512836" lon="11.597575710007613"><ele>1075.3333333333335</ele><time>2026-05-03T07:32:39.98Z</time></trkpt><trkpt lat="45.8230809365165" lon="11.597566679546523"><ele>1076.0</ele><time>2026-05-03T07:32:40.98Z</time></trkpt><trkpt lat="45.82327195778355" lon="11.597631520958355"><ele>1076.0</ele><time>2026-05-03T07:32:41.98Z</time></trkpt><trkpt lat="45.82343470814531" lon="11.597741155138484"><ele>1076.0</ele><time>2026-05-03T07:32:42.98Z</time></trkpt><trkpt lat="45.8235755089263" lon="11.597907392996326"><ele>1076.0</ele><time>2026-05-03T07:32:43.98Z</time></trkpt><trkpt lat="45.8236970647677" lon="11.598131932446552"><ele>1075.3333333333335</ele><time>2026-05-03T07:32:44.98Z</time></trkpt><trkpt lat="45.823812027821354" lon="11.59835444526264"><ele>1074.6666666666667</ele><time>2026-05-03T07:32:45.98Z</time></trkpt><trkpt lat="45.8239309664172" lon="11.598551064500976"><ele>1074.0</ele><time>2026-05-03T07:32:46.98Z</time></trkpt><trkpt lat="45.824086789015425" lon="11.598706376450933"><ele>1071.6666666666667</ele><time>2026-05-03T07:32:47.98Z</time></trkpt><trkpt lat="45.824269263226185" lon="11.598808988777915"><ele>1069.3333333333335</ele><time>2026-05-03T07:32:48.98Z</time></trkpt><trkpt lat="45.824449984503396" lon="11.598859139951566"><ele>1067.0</ele><time>2026-05-03T07:32:49.98Z</time></trkpt><trkpt lat="45.82462950517155" lon="11.59887394427821"><ele>1067.0</ele><time>2026-05-03T07:32:50.98Z</time></trkpt><trkpt lat="45.82483833412099" lon="11.598827678978777"><ele>1067.0</ele><time>2026-05-03T07:32:51.98Z</time></trkpt><trkpt lat="45.82505124453804" lon="11.598794278582632"><ele>1067.0</ele><time>2026-05-03T07:32:52.98Z</time></trkpt><trkpt lat="45.82527308900527" lon="11.598737339333859"><ele>1067.6666666666667</ele><time>2026-05-03T07:32:53.98Z</time></trkpt><trkpt lat="45.82548549311095" lon="11.598680366411232"><ele>1068.3333333333333</ele><time>2026-05-03T07:32:54.98Z</time></trkpt><trkpt lat="45.82569668387544" lon="11.59865449012516"><ele>1069.0</ele><time>2026-05-03T07:32:55.98Z</time></trkpt><trkpt lat="45.825913558478184" lon="11.59866482104126"><ele>1067.6666666666665</ele><time>2026-05-03T07:32:56.98Z</time></trkpt><trkpt lat="45.82610631198598" lon="11.59868246136693"><ele>1066.3333333333333</ele><time>2026-05-03T07:32:57.98Z</time></trkpt><trkpt lat="45.826301167825505" lon="11.598711719890135"><ele>1065.0</ele><time>2026-05-03T07:32:58.98Z</time></trkpt><trkpt lat="45.8264624848843" lon="11.598714000513462"><ele>1065.0</ele><time>2026-05-03T07:32:59.98Z</time></trkpt><trkpt lat="45.82660902489773" lon="11.598693853863345"><ele>1065.0</ele><time>2026-05-03T07:33:00.98Z</time></trkpt><trkpt lat="45.826713360127144" lon="11.598666931979578"><ele>1065.0</ele><time>2026-05-03T07:33:01.98Z</time></trkpt><trkpt lat="45.8267849725776" lon="11.598657088552939"><ele>1065.0</ele><time>2026-05-03T07:33:02.98Z</time></trkpt><trkpt lat="45.8268684881399" lon="11.598621923057294"><ele>1065.0</ele><time>2026-05-03T07:33:05.98Z</time></trkpt><trkpt lat="45.82693205664884" lon="11.598554393328715"><ele>1066.2</ele><time>2026-05-03T07:33:13.979Z</time></trkpt><trkpt lat="45.827030495432275" lon="11.59849300450736"><ele>1067.4</ele><time>2026-05-03T07:33:15.979Z</time></trkpt><trkpt lat="45.827108540631784" lon="11.598452090537663"><ele>1068.6</ele><time>2026-05-03T07:33:16.979Z</time></trkpt><trkpt lat="45.82720205148926" lon="11.598410959387532"><ele>1069.8</ele><time>2026-05-03T07:33:17.979Z</time></trkpt><trkpt lat="45.82731827029939" lon="11.598352692913286"><ele>1071.0</ele><time>2026-05-03T07:33:18.979Z</time></trkpt><trkpt lat="45.82743797074062" lon="11.598297197106165"><ele>1071.0</ele><time>2026-05-03T07:33:19.979Z</time></trkpt><trkpt lat="45.82756131736069" lon="11.59824299187897"><ele>1071.0</ele><time>2026-05-03T07:33:20.979Z</time></trkpt><trkpt lat="45.82769464599715" lon="11.598228886923186"><ele>1071.0</ele><time>2026-05-03T07:33:21.979Z</time></trkpt><trkpt lat="45.82783709427443" lon="11.598188357748304"><ele>1071.0</ele><time>2026-05-03T07:33:22.979Z</time></trkpt><trkpt lat="45.827986215019195" lon="11.59813601435875"><ele>1068.3333333333333</ele><time>2026-05-03T07:33:23.979Z</time></trkpt><trkpt lat="45.828130061173816" lon="11.598067915278772"><ele>1065.6666666666665</ele><time>2026-05-03T07:33:24.979Z</time></trkpt><trkpt lat="45.828286958909615" lon="11.59801910020239"><ele>1063.0</ele><time>2026-05-03T07:33:25.979Z</time></trkpt><trkpt lat="45.82845017172963" lon="11.59797634653142"><ele>1065.3333333333333</ele><time>2026-05-03T07:33:26.979Z</time></trkpt><trkpt lat="45.8286172834187" lon="11.597933066150334"><ele>1067.6666666666667</ele><time>2026-05-03T07:33:27.979Z</time></trkpt><trkpt lat="45.82879162189843" lon="11.597881603188869"><ele>1070.0</ele><time>2026-05-03T07:33:28.979Z</time></trkpt><trkpt lat="45.82897248694465" lon="11.597822561883893"><ele>1070.3333333333335</ele><time>2026-05-03T07:33:29.979Z</time></trkpt><trkpt lat="45.82915097481122" lon="11.597745041019065"><ele>1070.6666666666667</ele><time>2026-05-03T07:33:30.979Z</time></trkpt><trkpt lat="45.82932711136222" lon="11.597684088220218"><ele>1071.0</ele><time>2026-05-03T07:33:31.979Z</time></trkpt><trkpt lat="45.82948945870059" lon="11.597619596195576"><ele>1068.3333333333333</ele><time>2026-05-03T07:33:32.979Z</time></trkpt><trkpt lat="45.8296510292801" lon="11.597556737906578"><ele>1065.6666666666665</ele><time>2026-05-03T07:33:33.979Z</time></trkpt><trkpt lat="45.82981238153149" lon="11.597492710799504"><ele>1063.0</ele><time>2026-05-03T07:33:34.979Z</time></trkpt><trkpt lat="45.829962250573345" lon="11.597398209872102"><ele>1063.0</ele><time>2026-05-03T07:33:35.979Z</time></trkpt><trkpt lat="45.83010699497714" lon="11.597271357918983"><ele>1063.0</ele><time>2026-05-03T07:33:36.979Z</time></trkpt><trkpt lat="45.83024856573626" lon="11.597118863213836"><ele>1063.0</ele><time>2026-05-03T07:33:37.979Z</time></trkpt><trkpt lat="45.83037532580457" lon="11.59697397558263"><ele>1061.0</ele><time>2026-05-03T07:33:38.979Z</time></trkpt><trkpt lat="45.8304996498391" lon="11.596833924218899"><ele>1059.0</ele><time>2026-05-03T07:33:39.979Z</time></trkpt><trkpt lat="45.83062958207135" lon="11.596701229375116"><ele>1057.0</ele><time>2026-05-03T07:33:40.979Z</time></trkpt><trkpt lat="45.83076230244599" lon="11.596554264295943"><ele>1057.0</ele><time>2026-05-03T07:33:41.979Z</time></trkpt><trkpt lat="45.83090199121132" lon="11.596403284079162"><ele>1057.0</ele><time>2026-05-03T07:33:42.979Z</time></trkpt><trkpt lat="45.831046959246315" lon="11.59625244566534"><ele>1057.0</ele><time>2026-05-03T07:33:43.979Z</time></trkpt><trkpt lat="45.83119744588242" lon="11.596097205614006"><ele>1057.0</ele><time>2026-05-03T07:33:44.979Z</time></trkpt><trkpt lat="45.831355392409435" lon="11.595937019666618"><ele>1057.0</ele><time>2026-05-03T07:33:45.979Z</time></trkpt><trkpt lat="45.83152285859794" lon="11.595771600986623"><ele>1057.0</ele><time>2026-05-03T07:33:46.979Z</time></trkpt><trkpt lat="45.831694123496604" lon="11.595595561986693"><ele>1057.0</ele><time>2026-05-03T07:33:47.979Z</time></trkpt><trkpt lat="45.83187016433754" lon="11.595420662982287"><ele>1057.0</ele><time>2026-05-03T07:33:48.979Z</time></trkpt><trkpt lat="45.832046467457204" lon="11.595255501262342"><ele>1057.0</ele><time>2026-05-03T07:33:49.981Z</time></trkpt><trkpt lat="45.832222597991596" lon="11.59509743245171"><ele>1057.0</ele><time>2026-05-03T07:33:50.98Z</time></trkpt><trkpt lat="45.832395920853905" lon="11.594920229790894"><ele>1057.0</ele><time>2026-05-03T07:33:51.98Z</time></trkpt><trkpt lat="45.83256365278975" lon="11.594745579550487"><ele>1057.0</ele><time>2026-05-03T07:33:52.981Z</time></trkpt><trkpt lat="45.832725646513104" lon="11.594585786096347"><ele>1056.6666666666665</ele><time>2026-05-03T07:33:53.98Z</time></trkpt><trkpt lat="45.83287994872077" lon="11.594447918263914"><ele>1056.3333333333333</ele><time>2026-05-03T07:33:54.98Z</time></trkpt><trkpt lat="45.833031735674915" lon="11.594307868613173"><ele>1056.0</ele><time>2026-05-03T07:33:55.98Z</time></trkpt><trkpt lat="45.83318409895322" lon="11.594170600754701"><ele>1056.0</ele><time>2026-05-03T07:33:56.98Z</time></trkpt><trkpt lat="45.83334035455083" lon="11.594024781796158"><ele>1056.0</ele><time>2026-05-03T07:33:57.98Z</time></trkpt><trkpt lat="45.8334951600973" lon="11.593879095614886"><ele>1056.0</ele><time>2026-05-03T07:33:58.981Z</time></trkpt><trkpt lat="45.8336519671365" lon="11.593729578165561"><ele>1055.3333333333333</ele><time>2026-05-03T07:33:59.98Z</time></trkpt><trkpt lat="45.83381579156806" lon="11.593580526340219"><ele>1054.6666666666665</ele><time>2026-05-03T07:34:00.98Z</time></trkpt><trkpt lat="45.83398676902352" lon="11.593423510707929"><ele>1054.0</ele><time>2026-05-03T07:34:01.98Z</time></trkpt><trkpt lat="45.83416377567298" lon="11.59325290147627"><ele>1054.6666666666665</ele><time>2026-05-03T07:34:02.98Z</time></trkpt><trkpt lat="45.83434541120239" lon="11.593075304857301"><ele>1055.3333333333333</ele><time>2026-05-03T07:34:03.98Z</time></trkpt><trkpt lat="45.83453387077401" lon="11.592895742327146"><ele>1056.0</ele><time>2026-05-03T07:34:04.98Z</time></trkpt><trkpt lat="45.83471932565803" lon="11.592718932745285"><ele>1056.0</ele><time>2026-05-03T07:34:05.98Z</time></trkpt><trkpt lat="45.83490371218924" lon="11.592537910805556"><ele>1056.0</ele><time>2026-05-03T07:34:06.98Z</time></trkpt><trkpt lat="45.83508797639461" lon="11.592341910064441"><ele>1057.0</ele><time>2026-05-03T07:34:07.98Z</time></trkpt><trkpt lat="45.83526239301274" lon="11.592132279682813"><ele>1058.0</ele><time>2026-05-03T07:34:08.98Z</time></trkpt><trkpt lat="45.83542173924843" lon="11.591921738171017"><ele>1059.0</ele><time>2026-05-03T07:34:09.98Z</time></trkpt><trkpt lat="45.83557146019851" lon="11.59171609203923"><ele>1055.0</ele><time>2026-05-03T07:34:10.98Z</time></trkpt><trkpt lat="45.83572090540665" lon="11.591501485345129"><ele>1051.0</ele><time>2026-05-03T07:34:11.98Z</time></trkpt><trkpt lat="45.83585881810308" lon="11.591283265412518"><ele>1047.0</ele><time>2026-05-03T07:34:12.98Z</time></trkpt><trkpt lat="45.83598558326805" lon="11.591038726927081"><ele>1042.0</ele><time>2026-05-03T07:34:13.98Z</time></trkpt><trkpt lat="45.83609398339279" lon="11.59079773700519"><ele>1037.0</ele><time>2026-05-03T07:34:14.98Z</time></trkpt><trkpt lat="45.83619550688009" lon="11.590561771044708"><ele>1032.0</ele><time>2026-05-03T07:34:15.98Z</time></trkpt><trkpt lat="45.836290769687274" lon="11.590328946309134"><ele>1032.0</ele><time>2026-05-03T07:34:16.98Z</time></trkpt><trkpt lat="45.836374800017815" lon="11.590099286834855"><ele>1032.0</ele><time>2026-05-03T07:34:17.98Z</time></trkpt><trkpt lat="45.83644664224234" lon="11.589873559162262"><ele>1032.0</ele><time>2026-05-03T07:34:18.98Z</time></trkpt><trkpt lat="45.83650808231915" lon="11.58964320904973"><ele>1033.6666666666667</ele><time>2026-05-03T07:34:19.98Z</time></trkpt><trkpt lat="45.83655192838521" lon="11.589407599598683"><ele>1035.3333333333335</ele><time>2026-05-03T07:34:20.98Z</time></trkpt><trkpt lat="45.83658234639628" lon="11.58917078451717"><ele>1037.0</ele><time>2026-05-03T07:34:21.98Z</time></trkpt><trkpt lat="45.836590470911254" lon="11.588930945290263"><ele>1037.0</ele><time>2026-05-03T07:34:22.98Z</time></trkpt><trkpt lat="45.83657002533193" lon="11.588681998052703"><ele>1037.0</ele><time>2026-05-03T07:34:23.98Z</time></trkpt><trkpt lat="45.83653087994301" lon="11.588439819867716"><ele>1037.0</ele><time>2026-05-03T07:34:24.98Z</time></trkpt><trkpt lat="45.836470508926645" lon="11.588195123375602"><ele>1035.6666666666667</ele><time>2026-05-03T07:34:25.98Z</time></trkpt><trkpt lat="45.83639352522059" lon="11.587941984121517"><ele>1034.3333333333333</ele><time>2026-05-03T07:34:26.98Z</time></trkpt><trkpt lat="45.83631057878459" lon="11.58768230575549"><ele>1033.0</ele><time>2026-05-03T07:34:27.98Z</time></trkpt><trkpt lat="45.836232054781114" lon="11.587440203806073"><ele>1028.3333333333333</ele><time>2026-05-03T07:34:28.98Z</time></trkpt><trkpt lat="45.836146773886284" lon="11.587208295009502"><ele>1023.6666666666667</ele><time>2026-05-03T07:34:29.98Z</time></trkpt><trkpt lat="45.836069246743506" lon="11.586988821862056"><ele>1019.0</ele><time>2026-05-03T07:34:30.98Z</time></trkpt><trkpt lat="45.83597079663914" lon="11.586768005947262"><ele>1026.3333333333335</ele><time>2026-05-03T07:34:31.98Z</time></trkpt><trkpt lat="45.835856658239166" lon="11.586569141256296"><ele>1033.6666666666667</ele><time>2026-05-03T07:34:32.98Z</time></trkpt><trkpt lat="45.83572132302537" lon="11.58637731549323"><ele>1041.0</ele><time>2026-05-03T07:34:33.98Z</time></trkpt><trkpt lat="45.835585914275136" lon="11.586189492817267"><ele>1037.0</ele><time>2026-05-03T07:34:34.98Z</time></trkpt><trkpt lat="45.83545659305066" lon="11.586000850729684"><ele>1033.0</ele><time>2026-05-03T07:34:35.98Z</time></trkpt><trkpt lat="45.835326585830934" lon="11.585793001004456"><ele>1029.0</ele><time>2026-05-03T07:34:36.98Z</time></trkpt><trkpt lat="45.835195008637704" lon="11.585579516001117"><ele>1030.3333333333333</ele><time>2026-05-03T07:34:37.98Z</time></trkpt><trkpt lat="45.83506965614022" lon="11.585356169963966"><ele>1031.6666666666665</ele><time>2026-05-03T07:34:38.98Z</time></trkpt><trkpt lat="45.834960861709746" lon="11.585105691183994"><ele>1033.0</ele><time>2026-05-03T07:34:39.98Z</time></trkpt><trkpt lat="45.834860266897934" lon="11.58484454839737"><ele>1033.0</ele><time>2026-05-03T07:34:40.98Z</time></trkpt><trkpt lat="45.83476857325736" lon="11.584589825662594"><ele>1033.0</ele><time>2026-05-03T07:34:41.98Z</time></trkpt><trkpt lat="45.834687614474966" lon="11.584350644060693"><ele>1033.0</ele><time>2026-05-03T07:34:42.98Z</time></trkpt><trkpt lat="45.834614088930074" lon="11.584114817551221"><ele>1033.3333333333333</ele><time>2026-05-03T07:34:43.979Z</time></trkpt><trkpt lat="45.834534736044205" lon="11.583878940708932"><ele>1033.6666666666667</ele><time>2026-05-03T07:34:44.979Z</time></trkpt><trkpt lat="45.83446238338295" lon="11.583638442381167"><ele>1034.0</ele><time>2026-05-03T07:34:45.979Z</time></trkpt><trkpt lat="45.83439694107507" lon="11.583380069068221"><ele>1031.0</ele><time>2026-05-03T07:34:46.979Z</time></trkpt><trkpt lat="45.8343492185561" lon="11.583106210658928"><ele>1028.0</ele><time>2026-05-03T07:34:47.979Z</time></trkpt><trkpt lat="45.83432593673408" lon="11.582823020074091"><ele>1025.0</ele><time>2026-05-03T07:34:48.979Z</time></trkpt><trkpt lat="45.83429645378918" lon="11.582547539193548"><ele>1025.0</ele><time>2026-05-03T07:34:49.979Z</time></trkpt><trkpt lat="45.83426304235668" lon="11.582254545566112"><ele>1025.0</ele><time>2026-05-03T07:34:50.979Z</time></trkpt><trkpt lat="45.83420434994648" lon="11.581943619458901"><ele>1025.0</ele><time>2026-05-03T07:34:51.979Z</time></trkpt><trkpt lat="45.83410451509476" lon="11.581629459235801"><ele>1025.0</ele><time>2026-05-03T07:34:52.979Z</time></trkpt><trkpt lat="45.833961060850484" lon="11.5813210280579"><ele>1025.0</ele><time>2026-05-03T07:34:53.979Z</time></trkpt><trkpt lat="45.83380737904958" lon="11.580998707820285"><ele>1025.0</ele><time>2026-05-03T07:34:54.979Z</time></trkpt><trkpt lat="45.834170037352564" lon="11.580908904015294"><ele>1025.0</ele><time>2026-05-03T07:34:55.979Z</time></trkpt><trkpt lat="45.834152444205785" lon="11.580635191065664"><ele>1025.0</ele><time>2026-05-03T07:34:56.979Z</time></trkpt><trkpt lat="45.834136059133684" lon="11.580381770874487"><ele>1025.0</ele><time>2026-05-03T07:34:57.979Z</time></trkpt><trkpt lat="45.83412960751391" lon="11.580126348985456"><ele>1025.0</ele><time>2026-05-03T07:34:58.979Z</time></trkpt><trkpt lat="45.83411323426146" lon="11.579872715047866"><ele>1024.0</ele><time>2026-05-03T07:34:59.979Z</time></trkpt><trkpt lat="45.83409364636272" lon="11.579614592058677"><ele>1023.0</ele><time>2026-05-03T07:35:00.979Z</time></trkpt><trkpt lat="45.834080288372576" lon="11.579351495023024"><ele>1022.0</ele><time>2026-05-03T07:35:01.979Z</time></trkpt><trkpt lat="45.834063824447384" lon="11.579085867171441"><ele>1022.0</ele><time>2026-05-03T07:35:02.979Z</time></trkpt><trkpt lat="45.83404378673659" lon="11.578814851321049"><ele>1022.0</ele><time>2026-05-03T07:35:03.979Z</time></trkpt><trkpt lat="45.834022982482644" lon="11.578540933656349"><ele>1022.0</ele><time>2026-05-03T07:35:04.979Z</time></trkpt><trkpt lat="45.83400349539727" lon="11.578263631394202"><ele>1022.6666666666667</ele><time>2026-05-03T07:35:05.979Z</time></trkpt><trkpt lat="45.83398026629708" lon="11.57796583796186"><ele>1023.3333333333333</ele><time>2026-05-03T07:35:06.979Z</time></trkpt><trkpt lat="45.83395938041335" lon="11.577676396792654"><ele>1024.0</ele><time>2026-05-03T07:35:07.979Z</time></trkpt><trkpt lat="45.833943161237045" lon="11.577403569929135"><ele>1024.3333333333333</ele><time>2026-05-03T07:35:08.979Z</time></trkpt><trkpt lat="45.83392824522943" lon="11.577155074831893"><ele>1024.6666666666667</ele><time>2026-05-03T07:35:09.979Z</time></trkpt><trkpt lat="45.833915228649694" lon="11.576928770799357"><ele>1025.0</ele><time>2026-05-03T07:35:10.979Z</time></trkpt><trkpt lat="45.83389360858393" lon="11.576722910264516"><ele>1025.0</ele><time>2026-05-03T07:35:11.979Z</time></trkpt><trkpt lat="45.83388191737021" lon="11.576519972414566"><ele>1025.0</ele><time>2026-05-03T07:35:12.979Z</time></trkpt><trkpt lat="45.83387237161593" lon="11.57632442225793"><ele>1025.0</ele><time>2026-05-03T07:35:13.979Z</time></trkpt><trkpt lat="45.833858592348285" lon="11.576125414992086"><ele>1025.0</ele><time>2026-05-03T07:35:14.979Z</time></trkpt><trkpt lat="45.833845788178735" lon="11.575948051331961"><ele>1025.5</ele><time>2026-05-03T07:35:15.979Z</time></trkpt><trkpt lat="45.833836862381354" lon="11.575790098395888"><ele>1026.0</ele><time>2026-05-03T07:35:16.979Z</time></trkpt><trkpt lat="45.83382781609337" lon="11.575617274162497"><ele>1026.5</ele><time>2026-05-03T07:35:17.979Z</time></trkpt><trkpt lat="45.833821724269654" lon="11.575441716365848"><ele>1027.0</ele><time>2026-05-03T07:35:18.979Z</time></trkpt><trkpt lat="45.83381898886322" lon="11.575256684058013"><ele>1028.3333333333333</ele><time>2026-05-03T07:35:19.979Z</time></trkpt><trkpt lat="45.83384826045663" lon="11.575052281441355"><ele>1029.6666666666667</ele><time>2026-05-03T07:35:20.979Z</time></trkpt><trkpt lat="45.83389763713469" lon="11.574838442970782"><ele>1031.0</ele><time>2026-05-03T07:35:21.979Z</time></trkpt><trkpt lat="45.833973832350615" lon="11.574610530021651"><ele>1032.0</ele><time>2026-05-03T07:35:22.979Z</time></trkpt><trkpt lat="45.834059634567375" lon="11.574381098319773"><ele>1033.0</ele><time>2026-05-03T07:35:23.979Z</time></trkpt><trkpt lat="45.83414024251923" lon="11.574153361302532"><ele>1034.0</ele><time>2026-05-03T07:35:24.979Z</time></trkpt><trkpt lat="45.83420999763688" lon="11.573950318769437"><ele>1034.0</ele><time>2026-05-03T07:35:25.979Z</time></trkpt><trkpt lat="45.83427754936046" lon="11.573765096341335"><ele>1034.0</ele><time>2026-05-03T07:35:26.979Z</time></trkpt><trkpt lat="45.83435431017253" lon="11.573569607022037"><ele>1034.0</ele><time>2026-05-03T07:35:27.979Z</time></trkpt><trkpt lat="45.83444981510628" lon="11.573384363505122"><ele>1035.6666666666667</ele><time>2026-05-03T07:35:28.979Z</time></trkpt><trkpt lat="45.83456058929092" lon="11.573182337096812"><ele>1037.3333333333333</ele><time>2026-05-03T07:35:29.979Z</time></trkpt><trkpt lat="45.83467515311786" lon="11.572972119815574"><ele>1039.0</ele><time>2026-05-03T07:35:30.979Z</time></trkpt><trkpt lat="45.83479289642708" lon="11.572762199064124"><ele>1039.0</ele><time>2026-05-03T07:35:31.979Z</time></trkpt><trkpt lat="45.8349150352498" lon="11.57255012637847"><ele>1039.0</ele><time>2026-05-03T07:35:32.979Z</time></trkpt><trkpt lat="45.83503130012332" lon="11.572315695763464"><ele>1039.0</ele><time>2026-05-03T07:35:33.979Z</time></trkpt><trkpt lat="45.83513917709646" lon="11.572028300222186"><ele>1039.0</ele><time>2026-05-03T07:35:34.979Z</time></trkpt><trkpt lat="45.83523725351429" lon="11.571722827167932"><ele>1039.0</ele><time>2026-05-03T07:35:35.979Z</time></trkpt><trkpt lat="45.835352547632276" lon="11.571389794258144"><ele>1039.0</ele><time>2026-05-03T07:35:36.979Z</time></trkpt><trkpt lat="45.83548435059958" lon="11.571043309804898"><ele>1039.0</ele><time>2026-05-03T07:35:37.979Z</time></trkpt><trkpt lat="45.8356158102564" lon="11.570693392523816"><ele>1040.0</ele><time>2026-05-03T07:35:38.979Z</time></trkpt><trkpt lat="45.835750860830906" lon="11.570325684637107"><ele>1041.0</ele><time>2026-05-03T07:35:39.979Z</time></trkpt><trkpt lat="45.83587959345675" lon="11.56994428863083"><ele>1043.0</ele><time>2026-05-03T07:35:40.979Z</time></trkpt><trkpt lat="45.836002495115494" lon="11.56958239306753"><ele>1045.0</ele><time>2026-05-03T07:35:41.979Z</time></trkpt><trkpt lat="45.836114553810766" lon="11.569259809437984"><ele>1046.0</ele><time>2026-05-03T07:35:42.979Z</time></trkpt><trkpt lat="45.83621741930022" lon="11.568957050803014"><ele>1047.0</ele><time>2026-05-03T07:35:43.979Z</time></trkpt><trkpt lat="45.83629345030901" lon="11.5686578540338"><ele>1048.3333333333333</ele><time>2026-05-03T07:35:44.979Z</time></trkpt><trkpt lat="45.836350617880385" lon="11.568347859046169"><ele>1049.6666666666665</ele><time>2026-05-03T07:35:45.979Z</time></trkpt><trkpt lat="45.836388579304206" lon="11.568034755373418"><ele>1051.0</ele><time>2026-05-03T07:35:46.979Z</time></trkpt><trkpt lat="45.83640439459962" lon="11.56770238244474"><ele>1053.0</ele><time>2026-05-03T07:35:47.979Z</time></trkpt><trkpt lat="45.8363952407621" lon="11.567370391096889"><ele>1055.0</ele><time>2026-05-03T07:35:48.979Z</time></trkpt><trkpt lat="45.83636200029638" lon="11.56703527201142"><ele>1057.5</ele><time>2026-05-03T07:35:49.979Z</time></trkpt><trkpt lat="45.836310422494584" lon="11.566693451462907"><ele>1060.0</ele><time>2026-05-03T07:35:50.979Z</time></trkpt><trkpt lat="45.836240308739264" lon="11.56634992655442"><ele>1061.0</ele><time>2026-05-03T07:35:51.979Z</time></trkpt><trkpt lat="45.836155622726345" lon="11.566013421356423"><ele>1062.0</ele><time>2026-05-03T07:35:52.979Z</time></trkpt><trkpt lat="45.836063449153826" lon="11.565669292981585"><ele>1060.5</ele><time>2026-05-03T07:35:53.979Z</time></trkpt><trkpt lat="45.83595727543621" lon="11.565322370012879"><ele>1059.0</ele><time>2026-05-03T07:35:54.979Z</time></trkpt><trkpt lat="45.83583689639785" lon="11.564977640122432"><ele>1059.0</ele><time>2026-05-03T07:35:55.98Z</time></trkpt><trkpt lat="45.83570340129732" lon="11.56463453990807"><ele>1059.0</ele><time>2026-05-03T07:35:56.98Z</time></trkpt><trkpt lat="45.835582477286955" lon="11.5643185175291"><ele>1063.5</ele><time>2026-05-03T07:35:57.98Z</time></trkpt><trkpt lat="45.83547920510697" lon="11.56401935054984"><ele>1068.0</ele><time>2026-05-03T07:35:58.98Z</time></trkpt><trkpt lat="45.8353809175075" lon="11.563736151691732"><ele>1070.6666666666667</ele><time>2026-05-03T07:35:59.979Z</time></trkpt><trkpt lat="45.83527945302477" lon="11.563475220657766"><ele>1073.3333333333335</ele><time>2026-05-03T07:36:00.979Z</time></trkpt><trkpt lat="45.83520676248735" lon="11.563233100150658"><ele>1076.0</ele><time>2026-05-03T07:36:01.98Z</time></trkpt><trkpt lat="45.8351667071805" lon="11.56298071857451"><ele>1076.0</ele><time>2026-05-03T07:36:02.979Z</time></trkpt><trkpt lat="45.83516017648077" lon="11.562711706366699"><ele>1076.0</ele><time>2026-05-03T07:36:03.979Z</time></trkpt><trkpt lat="45.835173497460175" lon="11.562426258512536"><ele>1076.0</ele><time>2026-05-03T07:36:04.979Z</time></trkpt><trkpt lat="45.835217176845916" lon="11.562140725277835"><ele>1075.0</ele><time>2026-05-03T07:36:05.979Z</time></trkpt><trkpt lat="45.83528557532618" lon="11.561851226995563"><ele>1074.0</ele><time>2026-05-03T07:36:06.979Z</time></trkpt><trkpt lat="45.83535804515013" lon="11.561554080679784"><ele>1073.0</ele><time>2026-05-03T07:36:07.98Z</time></trkpt><trkpt lat="45.83541994881258" lon="11.561256724243169"><ele>1074.0</ele><time>2026-05-03T07:36:08.981Z</time></trkpt><trkpt lat="45.835458945958756" lon="11.560974933905541"><ele>1075.0</ele><time>2026-05-03T07:36:09.981Z</time></trkpt><trkpt lat="45.8354708940025" lon="11.560687903372697"><ele>1076.0</ele><time>2026-05-03T07:36:10.981Z</time></trkpt><trkpt lat="45.83546025284761" lon="11.560380119445119"><ele>1079.5</ele><time>2026-05-03T07:36:11.981Z</time></trkpt><trkpt lat="45.83540614989927" lon="11.560057751669877"><ele>1083.0</ele><time>2026-05-03T07:36:12.981Z</time></trkpt><trkpt lat="45.83534996825881" lon="11.55973811313095"><ele>1086.0</ele><time>2026-05-03T07:36:13.981Z</time></trkpt><trkpt lat="45.83530903651781" lon="11.559429834816056"><ele>1089.0</ele><time>2026-05-03T07:36:14.981Z</time></trkpt><trkpt lat="45.83525306674192" lon="11.559130706871237"><ele>1092.0</ele><time>2026-05-03T07:36:15.98Z</time></trkpt><trkpt lat="45.835167586164374" lon="11.558845928054991"><ele>1083.0</ele><time>2026-05-03T07:36:16.98Z</time></trkpt><trkpt lat="45.83505325948035" lon="11.558574783268268"><ele>1074.0</ele><time>2026-05-03T07:36:17.98Z</time></trkpt><trkpt lat="45.834935911992304" lon="11.558317217834853"><ele>1065.0</ele><time>2026-05-03T07:36:18.98Z</time></trkpt><trkpt lat="45.83482927568123" lon="11.558093690965135"><ele>1065.0</ele><time>2026-05-03T07:36:19.98Z</time></trkpt><trkpt lat="45.834731491363925" lon="11.557892651711748"><ele>1065.0</ele><time>2026-05-03T07:36:20.98Z</time></trkpt><trkpt lat="45.83466000411906" lon="11.557681385372126"><ele>1065.0</ele><time>2026-05-03T07:36:21.98Z</time></trkpt><trkpt lat="45.83461643745023" lon="11.557445361856791"><ele>1065.3333333333333</ele><time>2026-05-03T07:36:22.98Z</time></trkpt><trkpt lat="45.834617020448825" lon="11.557194749028898"><ele>1065.6666666666665</ele><time>2026-05-03T07:36:23.98Z</time></trkpt><trkpt lat="45.83464067004056" lon="11.556960596550589"><ele>1066.0</ele><time>2026-05-03T07:36:24.98Z</time></trkpt><trkpt lat="45.834690202479905" lon="11.556738443933366"><ele>1065.3333333333333</ele><time>2026-05-03T07:36:25.98Z</time></trkpt><trkpt lat="45.834746206257236" lon="11.556499337518517"><ele>1064.6666666666667</ele><time>2026-05-03T07:36:26.98Z</time></trkpt><trkpt lat="45.83480645960493" lon="11.556255092918626"><ele>1064.0</ele><time>2026-05-03T07:36:27.98Z</time></trkpt><trkpt lat="45.8348751574456" lon="11.55601031462209"><ele>1063.6666666666667</ele><time>2026-05-03T07:36:28.98Z</time></trkpt><trkpt lat="45.83493724553761" lon="11.555741735239883"><ele>1063.3333333333333</ele><time>2026-05-03T07:36:29.98Z</time></trkpt><trkpt lat="45.83500219397311" lon="11.555484232351455"><ele>1063.0</ele><time>2026-05-03T07:36:30.98Z</time></trkpt><trkpt lat="45.835065037675164" lon="11.555237230459424"><ele>1062.3333333333333</ele><time>2026-05-03T07:36:31.98Z</time></trkpt><trkpt lat="45.83511726317588" lon="11.555017516496836"><ele>1061.6666666666667</ele><time>2026-05-03T07:36:32.98Z</time></trkpt><trkpt lat="45.835179536398236" lon="11.55481739562538"><ele>1061.0</ele><time>2026-05-03T07:36:33.98Z</time></trkpt><trkpt lat="45.83526276124356" lon="11.554639593659491"><ele>1061.6666666666667</ele><time>2026-05-03T07:36:34.98Z</time></trkpt><trkpt lat="45.83537221956707" lon="11.554464549923534"><ele>1062.3333333333333</ele><time>2026-05-03T07:36:35.98Z</time></trkpt><trkpt lat="45.8355024340513" lon="11.554291098056467"><ele>1063.0</ele><time>2026-05-03T07:36:36.98Z</time></trkpt><trkpt lat="45.835646276814124" lon="11.554129324175126"><ele>1063.0</ele><time>2026-05-03T07:36:37.98Z</time></trkpt><trkpt lat="45.83580092728144" lon="11.553969854189203"><ele>1063.0</ele><time>2026-05-03T07:36:38.98Z</time></trkpt><trkpt lat="45.8359742541378" lon="11.553821985838633"><ele>1063.0</ele><time>2026-05-03T07:36:39.98Z</time></trkpt><trkpt lat="45.83615148420227" lon="11.553664510053451"><ele>1062.3333333333333</ele><time>2026-05-03T07:36:40.98Z</time></trkpt><trkpt lat="45.83632732313076" lon="11.553503042062516"><ele>1061.6666666666667</ele><time>2026-05-03T07:36:41.98Z</time></trkpt><trkpt lat="45.83651057505897" lon="11.553356894779782"><ele>1061.0</ele><time>2026-05-03T07:36:42.98Z</time></trkpt><trkpt lat="45.83669388587742" lon="11.55323277657374"><ele>1062.0</ele><time>2026-05-03T07:36:43.98Z</time></trkpt><trkpt lat="45.83688281045615" lon="11.553120725023057"><ele>1063.0</ele><time>2026-05-03T07:36:44.98Z</time></trkpt><trkpt lat="45.83709735335524" lon="11.553036997683265"><ele>1064.0</ele><time>2026-05-03T07:36:45.98Z</time></trkpt><trkpt lat="45.837317534949925" lon="11.552959102568165"><ele>1064.0</ele><time>2026-05-03T07:36:46.98Z</time></trkpt><trkpt lat="45.83754269114605" lon="11.552875106786384"><ele>1064.0</ele><time>2026-05-03T07:36:47.98Z</time></trkpt><trkpt lat="45.83776484433465" lon="11.552790207353544"><ele>1064.3333333333335</ele><time>2026-05-03T07:36:48.98Z</time></trkpt><trkpt lat="45.83798110826037" lon="11.552702840637208"><ele>1064.6666666666667</ele><time>2026-05-03T07:36:49.98Z</time></trkpt><trkpt lat="45.83819057153672" lon="11.55261508409109"><ele>1065.0</ele><time>2026-05-03T07:36:50.98Z</time></trkpt><trkpt lat="45.83840883689858" lon="11.552522705939012"><ele>1066.5</ele><time>2026-05-03T07:36:51.98Z</time></trkpt><trkpt lat="45.83863401286045" lon="11.552431963944578"><ele>1068.0</ele><time>2026-05-03T07:36:52.98Z</time></trkpt><trkpt lat="45.838870070267966" lon="11.552326585244161"><ele>1068.0</ele><time>2026-05-03T07:36:53.98Z</time></trkpt><trkpt lat="45.83912449942382" lon="11.552212994832198"><ele>1068.0</ele><time>2026-05-03T07:36:54.98Z</time></trkpt><trkpt lat="45.83939100526584" lon="11.552112754665623"><ele>1068.0</ele><time>2026-05-03T07:36:55.98Z</time></trkpt><trkpt lat="45.8396668807194" lon="11.552019207285005"><ele>1068.0</ele><time>2026-05-03T07:36:56.98Z</time></trkpt><trkpt lat="45.83994779761231" lon="11.551920854994266"><ele>1075.5</ele><time>2026-05-03T07:36:57.98Z</time></trkpt><trkpt lat="45.84022002171367" lon="11.551810951087267"><ele>1083.0</ele><time>2026-05-03T07:36:58.98Z</time></trkpt><trkpt lat="45.8404875619051" lon="11.551693398489482"><ele>1083.0</ele><time>2026-05-03T07:36:59.98Z</time></trkpt><trkpt lat="45.84074802290759" lon="11.551584043364807"><ele>1083.0</ele><time>2026-05-03T07:37:00.98Z</time></trkpt><trkpt lat="45.841005989505796" lon="11.551481910469887"><ele>1086.5</ele><time>2026-05-03T07:37:01.98Z</time></trkpt><trkpt lat="45.84125855042627" lon="11.55137799860048"><ele>1090.0</ele><time>2026-05-03T07:37:02.98Z</time></trkpt><trkpt lat="45.84151095304287" lon="11.551292513815891"><ele>1086.0</ele><time>2026-05-03T07:37:03.98Z</time></trkpt><trkpt lat="45.841740234165" lon="11.551204343994144"><ele>1082.0</ele><time>2026-05-03T07:37:04.98Z</time></trkpt><trkpt lat="45.841957042609046" lon="11.551124804405909"><ele>1080.0</ele><time>2026-05-03T07:37:05.98Z</time></trkpt><trkpt lat="45.84218307476513" lon="11.551062307120603"><ele>1078.0</ele><time>2026-05-03T07:37:06.98Z</time></trkpt><trkpt lat="45.84240532785334" lon="11.551006727117528"><ele>1078.0</ele><time>2026-05-03T07:37:07.98Z</time></trkpt><trkpt lat="45.84261914071834" lon="11.550938053134006"><ele>1078.0</ele><time>2026-05-03T07:37:08.98Z</time></trkpt><trkpt lat="45.84282202136527" lon="11.55086348936723"><ele>1078.0</ele><time>2026-05-03T07:37:09.98Z</time></trkpt><trkpt lat="45.84301749681836" lon="11.550799678315071"><ele>1078.3333333333333</ele><time>2026-05-03T07:37:10.98Z</time></trkpt><trkpt lat="45.8432060525663" lon="11.550751961358584"><ele>1078.6666666666667</ele><time>2026-05-03T07:37:11.98Z</time></trkpt><trkpt lat="45.84338158271183" lon="11.550700994559174"><ele>1079.0</ele><time>2026-05-03T07:37:12.98Z</time></trkpt><trkpt lat="45.843559513880486" lon="11.550649995301814"><ele>1079.6666666666667</ele><time>2026-05-03T07:37:13.98Z</time></trkpt><trkpt lat="45.84373372851094" lon="11.550590785320932"><ele>1080.3333333333333</ele><time>2026-05-03T07:37:14.98Z</time></trkpt><trkpt lat="45.84390945905149" lon="11.550526445637814"><ele>1081.0</ele><time>2026-05-03T07:37:15.98Z</time></trkpt><trkpt lat="45.844088728116375" lon="11.550472831592108"><ele>1081.0</ele><time>2026-05-03T07:37:16.98Z</time></trkpt><trkpt lat="45.84427613577116" lon="11.55041986240901"><ele>1081.0</ele><time>2026-05-03T07:37:17.98Z</time></trkpt><trkpt lat="45.84446316221689" lon="11.550370614561308"><ele>1081.0</ele><time>2026-05-03T07:37:18.98Z</time></trkpt><trkpt lat="45.844653107141625" lon="11.550311606749851"><ele>1083.0</ele><time>2026-05-03T07:37:19.98Z</time></trkpt><trkpt lat="45.84484564566214" lon="11.550251750764357"><ele>1085.0</ele><time>2026-05-03T07:37:20.98Z</time></trkpt><trkpt lat="45.84523515687724" lon="11.550138666537924"><ele>1086.0</ele><time>2026-05-03T07:37:22.98Z</time></trkpt><trkpt lat="45.845434508335906" lon="11.550097579256548"><ele>1087.0</ele><time>2026-05-03T07:37:23.98Z</time></trkpt><trkpt lat="45.84563355851823" lon="11.550052388157166"><ele>1088.0</ele><time>2026-05-03T07:37:24.98Z</time></trkpt><trkpt lat="45.84583059667768" lon="11.550005504123895"><ele>1088.3333333333335</ele><time>2026-05-03T07:37:25.98Z</time></trkpt><trkpt lat="45.84602427639333" lon="11.549949944976243"><ele>1088.6666666666667</ele><time>2026-05-03T07:37:26.98Z</time></trkpt><trkpt lat="45.846215571863766" lon="11.549901947545132"><ele>1089.0</ele><time>2026-05-03T07:37:27.98Z</time></trkpt><trkpt lat="45.84640534289634" lon="11.549849592477717"><ele>1089.0</ele><time>2026-05-03T07:37:28.98Z</time></trkpt><trkpt lat="45.84658770267918" lon="11.54978920065971"><ele>1089.0</ele><time>2026-05-03T07:37:29.98Z</time></trkpt><trkpt lat="45.84677172272623" lon="11.549702565453696"><ele>1089.0</ele><time>2026-05-03T07:37:30.98Z</time></trkpt><trkpt lat="45.84695288701867" lon="11.549605887076963"><ele>1089.3333333333333</ele><time>2026-05-03T07:37:31.98Z</time></trkpt><trkpt lat="45.84713361777117" lon="11.549468392989668"><ele>1089.6666666666665</ele><time>2026-05-03T07:37:32.98Z</time></trkpt><trkpt lat="45.84731815337387" lon="11.549375263180728"><ele>1090.0</ele><time>2026-05-03T07:37:33.98Z</time></trkpt><trkpt lat="45.847496275204115" lon="11.549249200380354"><ele>1092.3333333333333</ele><time>2026-05-03T07:37:34.98Z</time></trkpt><trkpt lat="45.84766023247718" lon="11.549131563792578"><ele>1094.6666666666667</ele><time>2026-05-03T07:37:35.98Z</time></trkpt><trkpt lat="45.847826642077784" lon="11.549011160683426"><ele>1097.0</ele><time>2026-05-03T07:37:36.979Z</time></trkpt><trkpt lat="45.84798640949433" lon="11.548893268287383"><ele>1097.0</ele><time>2026-05-03T07:37:37.979Z</time></trkpt><trkpt lat="45.84813007609629" lon="11.548744929269498"><ele>1097.0</ele><time>2026-05-03T07:37:38.979Z</time></trkpt><trkpt lat="45.84826708258339" lon="11.548606991963362"><ele>1097.0</ele><time>2026-05-03T07:37:39.979Z</time></trkpt><trkpt lat="45.848375226964535" lon="11.548430248811675"><ele>1096.0</ele><time>2026-05-03T07:37:40.979Z</time></trkpt><trkpt lat="45.84846931750977" lon="11.548214462876516"><ele>1095.0</ele><time>2026-05-03T07:37:41.979Z</time></trkpt><trkpt lat="45.848547716299656" lon="11.548001563786363"><ele>1094.0</ele><time>2026-05-03T07:37:42.979Z</time></trkpt><trkpt lat="45.84861079225288" lon="11.54779982160736"><ele>1092.5</ele><time>2026-05-03T07:37:43.979Z</time></trkpt><trkpt lat="45.84866760917587" lon="11.547620060810072"><ele>1091.0</ele><time>2026-05-03T07:37:44.979Z</time></trkpt><trkpt lat="45.84872636623488" lon="11.547456548618872"><ele>1089.5</ele><time>2026-05-03T07:37:45.979Z</time></trkpt><trkpt lat="45.848781209998954" lon="11.547314703963215"><ele>1088.0</ele><time>2026-05-03T07:37:46.979Z</time></trkpt><trkpt lat="45.84884558739867" lon="11.547199200012464"><ele>1088.0</ele><time>2026-05-03T07:37:47.979Z</time></trkpt><trkpt lat="45.84892665365853" lon="11.547111431065911"><ele>1088.0</ele><time>2026-05-03T07:37:48.979Z</time></trkpt><trkpt lat="45.84901989689922" lon="11.547052813063699"><ele>1088.0</ele><time>2026-05-03T07:37:49.979Z</time></trkpt><trkpt lat="45.84912234946623" lon="11.54702972525962"><ele>1088.0</ele><time>2026-05-03T07:37:50.979Z</time></trkpt><trkpt lat="45.849215261764535" lon="11.546992508560269"><ele>1088.0</ele><time>2026-05-03T07:37:51.979Z</time></trkpt><trkpt lat="45.84928150751849" lon="11.54692213174548"><ele>1088.6</ele><time>2026-05-03T07:37:52.979Z</time></trkpt><trkpt lat="45.84932617048982" lon="11.546814008550642"><ele>1089.1999999999998</ele><time>2026-05-03T07:37:53.979Z</time></trkpt><trkpt lat="45.84933164034804" lon="11.546681393225382"><ele>1089.8</ele><time>2026-05-03T07:37:54.979Z</time></trkpt><trkpt lat="45.849303901457425" lon="11.546539272599167"><ele>1090.3999999999999</ele><time>2026-05-03T07:37:55.979Z</time></trkpt><trkpt lat="45.84924732129889" lon="11.54639801963848"><ele>1091.0</ele><time>2026-05-03T07:37:56.979Z</time></trkpt><trkpt lat="45.84920593167263" lon="11.546248672179"><ele>1090.75</ele><time>2026-05-03T07:37:57.979Z</time></trkpt><trkpt lat="45.84918518171124" lon="11.546078449996907"><ele>1090.5</ele><time>2026-05-03T07:37:58.979Z</time></trkpt><trkpt lat="45.84922533915461" lon="11.545897379270743"><ele>1090.25</ele><time>2026-05-03T07:37:59.979Z</time></trkpt><trkpt lat="45.84927706410345" lon="11.545704285662868"><ele>1090.0</ele><time>2026-05-03T07:38:00.979Z</time></trkpt><trkpt lat="45.84934109001664" lon="11.54549246755512"><ele>1090.6666666666665</ele><time>2026-05-03T07:38:01.98Z</time></trkpt><trkpt lat="45.84939924339791" lon="11.545257798844382"><ele>1091.3333333333333</ele><time>2026-05-03T07:38:02.98Z</time></trkpt><trkpt lat="45.849477859326576" lon="11.545022341445803"><ele>1092.0</ele><time>2026-05-03T07:38:03.98Z</time></trkpt><trkpt lat="45.84956382352314" lon="11.544754533037903"><ele>1093.0</ele><time>2026-05-03T07:38:04.979Z</time></trkpt><trkpt lat="45.84965569372731" lon="11.544442654196018"><ele>1094.0</ele><time>2026-05-03T07:38:05.979Z</time></trkpt><trkpt lat="45.849755671937466" lon="11.544114825366865"><ele>1094.0</ele><time>2026-05-03T07:38:06.979Z</time></trkpt><trkpt lat="45.84987270377053" lon="11.54376797906522"><ele>1094.0</ele><time>2026-05-03T07:38:07.98Z</time></trkpt><trkpt lat="45.84998177310114" lon="11.543429471824126"><ele>1093.5</ele><time>2026-05-03T07:38:08.98Z</time></trkpt><trkpt lat="45.85007640059433" lon="11.54310381674652"><ele>1093.0</ele><time>2026-05-03T07:38:09.98Z</time></trkpt><trkpt lat="45.850162564570475" lon="11.542789676782247"><ele>1091.5</ele><time>2026-05-03T07:38:10.98Z</time></trkpt><trkpt lat="45.850243484238874" lon="11.542494857412208"><ele>1090.0</ele><time>2026-05-03T07:38:11.98Z</time></trkpt><trkpt lat="45.85029167538109" lon="11.542167754739097"><ele>1088.0</ele><time>2026-05-03T07:38:12.98Z</time></trkpt><trkpt lat="45.85033307421131" lon="11.541826013171573"><ele>1086.0</ele><time>2026-05-03T07:38:13.979Z</time></trkpt><trkpt lat="45.85038711642114" lon="11.541506952731789"><ele>1086.0</ele><time>2026-05-03T07:38:14.98Z</time></trkpt><trkpt lat="45.85043278232525" lon="11.541240808942305"><ele>1086.0</ele><time>2026-05-03T07:38:15.98Z</time></trkpt><trkpt lat="45.850474474804635" lon="11.540997760940803"><ele>1086.0</ele><time>2026-05-03T07:38:16.98Z</time></trkpt><trkpt lat="45.85053433849778" lon="11.540765457176992"><ele>1085.0</ele><time>2026-05-03T07:38:17.98Z</time></trkpt><trkpt lat="45.85063456731037" lon="11.54054698534669"><ele>1084.0</ele><time>2026-05-03T07:38:18.98Z</time></trkpt><trkpt lat="45.85076480219135" lon="11.540343391843429"><ele>1083.0</ele><time>2026-05-03T07:38:19.98Z</time></trkpt><trkpt lat="45.850916227261095" lon="11.540132661392041"><ele>1084.5</ele><time>2026-05-03T07:38:20.98Z</time></trkpt><trkpt lat="45.85107855767487" lon="11.539907709694829"><ele>1086.0</ele><time>2026-05-03T07:38:21.98Z</time></trkpt><trkpt lat="45.85124642109339" lon="11.539667717958242"><ele>1084.5</ele><time>2026-05-03T07:38:22.98Z</time></trkpt><trkpt lat="45.85142946330956" lon="11.539413281668569"><ele>1083.0</ele><time>2026-05-03T07:38:23.98Z</time></trkpt><trkpt lat="45.85162654310917" lon="11.5391473510956"><ele>1083.0</ele><time>2026-05-03T07:38:24.98Z</time></trkpt><trkpt lat="45.851826669325916" lon="11.53887896515322"><ele>1083.0</ele><time>2026-05-03T07:38:25.98Z</time></trkpt><trkpt lat="45.85202072579528" lon="11.538626332813417"><ele>1083.0</ele><time>2026-05-03T07:38:26.98Z</time></trkpt><trkpt lat="45.852198638362104" lon="11.53840615854106"><ele>1083.0</ele><time>2026-05-03T07:38:27.98Z</time></trkpt><trkpt lat="45.85236187160803" lon="11.538194208980205"><ele>1083.0</ele><time>2026-05-03T07:38:28.98Z</time></trkpt><trkpt lat="45.85251894006711" lon="11.537987953114849"><ele>1083.0</ele><time>2026-05-03T07:38:29.98Z</time></trkpt><trkpt lat="45.85266451865441" lon="11.53778323452406"><ele>1083.0</ele><time>2026-05-03T07:38:30.98Z</time></trkpt><trkpt lat="45.85280958841553" lon="11.537590175647223"><ele>1078.6666666666667</ele><time>2026-05-03T07:38:31.98Z</time></trkpt><trkpt lat="45.85294165028617" lon="11.537383089811275"><ele>1074.3333333333335</ele><time>2026-05-03T07:38:32.98Z</time></trkpt><trkpt lat="45.85306104794858" lon="11.537166966385596"><ele>1070.0</ele><time>2026-05-03T07:38:33.98Z</time></trkpt><trkpt lat="45.853154296659575" lon="11.536938907687926"><ele>1070.0</ele><time>2026-05-03T07:38:34.98Z</time></trkpt><trkpt lat="45.85323387431065" lon="11.536711388809595"><ele>1070.0</ele><time>2026-05-03T07:38:35.98Z</time></trkpt><trkpt lat="45.8533070155102" lon="11.536499248290028"><ele>1070.0</ele><time>2026-05-03T07:38:36.98Z</time></trkpt><trkpt lat="45.853370361833335" lon="11.536286072474319"><ele>1071.0</ele><time>2026-05-03T07:38:37.98Z</time></trkpt><trkpt lat="45.85344878031841" lon="11.536097126411853"><ele>1072.0</ele><time>2026-05-03T07:38:38.98Z</time></trkpt><trkpt lat="45.85351635441503" lon="11.535900988750862"><ele>1073.0</ele><time>2026-05-03T07:38:39.98Z</time></trkpt><trkpt lat="45.853586390686374" lon="11.535699368535678"><ele>1073.3333333333335</ele><time>2026-05-03T07:38:40.98Z</time></trkpt><trkpt lat="45.85366049971594" lon="11.535487812569896"><ele>1073.6666666666667</ele><time>2026-05-03T07:38:41.98Z</time></trkpt><trkpt lat="45.8537394791164" lon="11.535262721288062"><ele>1074.0</ele><time>2026-05-03T07:38:42.98Z</time></trkpt><trkpt lat="45.85382236408943" lon="11.535026499112377"><ele>1072.6666666666667</ele><time>2026-05-03T07:38:43.98Z</time></trkpt><trkpt lat="45.8538996245767" lon="11.534760318126917"><ele>1071.3333333333335</ele><time>2026-05-03T07:38:44.98Z</time></trkpt><trkpt lat="45.85399469249881" lon="11.534493107914354"><ele>1070.0</ele><time>2026-05-03T07:38:45.98Z</time></trkpt><trkpt lat="45.85410519042669" lon="11.534221882930444"><ele>1070.0</ele><time>2026-05-03T07:38:46.98Z</time></trkpt><trkpt lat="45.85420934314026" lon="11.53392561661197"><ele>1070.0</ele><time>2026-05-03T07:38:47.98Z</time></trkpt><trkpt lat="45.85431436864059" lon="11.533627281649801"><ele>1065.0</ele><time>2026-05-03T07:38:48.98Z</time></trkpt><trkpt lat="45.85441853878323" lon="11.533333078709862"><ele>1060.0</ele><time>2026-05-03T07:38:49.98Z</time></trkpt><trkpt lat="45.85452220313307" lon="11.533040304266068"><ele>1062.0</ele><time>2026-05-03T07:38:50.98Z</time></trkpt><trkpt lat="45.85462575618496" lon="11.53274784416992"><ele>1064.0</ele><time>2026-05-03T07:38:51.98Z</time></trkpt><trkpt lat="45.85472899312085" lon="11.532455562870611"><ele>1064.0</ele><time>2026-05-03T07:38:52.98Z</time></trkpt><trkpt lat="45.854832249362154" lon="11.532158190023168"><ele>1064.0</ele><time>2026-05-03T07:38:53.98Z</time></trkpt><trkpt lat="45.8549313903985" lon="11.531876556594785"><ele>1065.0</ele><time>2026-05-03T07:38:54.98Z</time></trkpt><trkpt lat="45.855027111502395" lon="11.531607822284702"><ele>1066.0</ele><time>2026-05-03T07:38:55.98Z</time></trkpt><trkpt lat="45.85511836449458" lon="11.531351631230706"><ele>1067.0</ele><time>2026-05-03T07:38:56.98Z</time></trkpt><trkpt lat="45.85520659973728" lon="11.531103216482222"><ele>1067.0</ele><time>2026-05-03T07:38:57.98Z</time></trkpt><trkpt lat="45.85529124371425" lon="11.53086105857813"><ele>1067.0</ele><time>2026-05-03T07:38:58.98Z</time></trkpt><trkpt lat="45.85536990909626" lon="11.530636005019035"><ele>1067.0</ele><time>2026-05-03T07:38:59.98Z</time></trkpt><trkpt lat="45.85543383251417" lon="11.530400306687687"><ele>1067.0</ele><time>2026-05-03T07:39:00.98Z</time></trkpt><trkpt lat="45.85552986720737" lon="11.530178381170842"><ele>1067.0</ele><time>2026-05-03T07:39:01.98Z</time></trkpt><trkpt lat="45.85561090868589" lon="11.529947897189317"><ele>1067.0</ele><time>2026-05-03T07:39:02.98Z</time></trkpt><trkpt lat="45.855694867232884" lon="11.529709902433215"><ele>1067.3333333333335</ele><time>2026-05-03T07:39:03.98Z</time></trkpt><trkpt lat="45.8557820425452" lon="11.52946291975611"><ele>1067.6666666666667</ele><time>2026-05-03T07:39:04.98Z</time></trkpt><trkpt lat="45.85586827729329" lon="11.529218782443694"><ele>1068.0</ele><time>2026-05-03T07:39:05.98Z</time></trkpt><trkpt lat="45.85595117149535" lon="11.528984102422134"><ele>1064.6666666666667</ele><time>2026-05-03T07:39:06.98Z</time></trkpt><trkpt lat="45.85603046916387" lon="11.528758557610331"><ele>1061.3333333333335</ele><time>2026-05-03T07:39:07.98Z</time></trkpt><trkpt lat="45.85610701207073" lon="11.528538788307424"><ele>1058.0</ele><time>2026-05-03T07:39:08.98Z</time></trkpt><trkpt lat="45.85618276757141" lon="11.528322504065473"><ele>1057.0</ele><time>2026-05-03T07:39:09.98Z</time></trkpt><trkpt lat="45.85624561420801" lon="11.528098374345303"><ele>1056.0</ele><time>2026-05-03T07:39:10.979Z</time></trkpt><trkpt lat="45.856347414255545" lon="11.527900781133182"><ele>1055.0</ele><time>2026-05-03T07:39:11.979Z</time></trkpt><trkpt lat="45.856450375778806" lon="11.52768093998434"><ele>1058.0</ele><time>2026-05-03T07:39:12.979Z</time></trkpt><trkpt lat="45.85658090831329" lon="11.527472462187346"><ele>1061.0</ele><time>2026-05-03T07:39:13.979Z</time></trkpt><trkpt lat="45.856732778465044" lon="11.52727731468714"><ele>1064.0</ele><time>2026-05-03T07:39:14.979Z</time></trkpt><trkpt lat="45.85690893187769" lon="11.527098768475366"><ele>1061.6666666666667</ele><time>2026-05-03T07:39:15.979Z</time></trkpt><trkpt lat="45.85707434894591" lon="11.526933815536795"><ele>1059.3333333333333</ele><time>2026-05-03T07:39:16.979Z</time></trkpt><trkpt lat="45.85723086256997" lon="11.526773399451868"><ele>1057.0</ele><time>2026-05-03T07:39:17.979Z</time></trkpt><trkpt lat="45.85738427086205" lon="11.526628324915906"><ele>1057.0</ele><time>2026-05-03T07:39:18.979Z</time></trkpt><trkpt lat="45.85755307253437" lon="11.526551411892417"><ele>1057.0</ele><time>2026-05-03T07:39:19.979Z</time></trkpt><trkpt lat="45.85771972578779" lon="11.52653475295349"><ele>1057.0</ele><time>2026-05-03T07:39:20.979Z</time></trkpt><trkpt lat="45.85789891925392" lon="11.526519847884513"><ele>1055.0</ele><time>2026-05-03T07:39:21.979Z</time></trkpt><trkpt lat="45.85810090342436" lon="11.526503998807799"><ele>1053.0</ele><time>2026-05-03T07:39:22.979Z</time></trkpt><trkpt lat="45.85831362425277" lon="11.526486340372555"><ele>1051.0</ele><time>2026-05-03T07:39:23.979Z</time></trkpt><trkpt lat="45.85853521825735" lon="11.526467945348625"><ele>1051.0</ele><time>2026-05-03T07:39:24.979Z</time></trkpt><trkpt lat="45.85873895753986" lon="11.52645103250361"><ele>1051.0</ele><time>2026-05-03T07:39:25.979Z</time></trkpt><trkpt lat="45.858928970953244" lon="11.52643576925046"><ele>1051.0</ele><time>2026-05-03T07:39:26.979Z</time></trkpt><trkpt lat="45.85911135755745" lon="11.526421831988296"><ele>1050.0</ele><time>2026-05-03T07:39:27.979Z</time></trkpt><trkpt lat="45.85928653559917" lon="11.526408445555047"><ele>1049.0</ele><time>2026-05-03T07:39:28.979Z</time></trkpt><trkpt lat="45.85947045294884" lon="11.526394017752233"><ele>1048.0</ele><time>2026-05-03T07:39:29.979Z</time></trkpt><trkpt lat="45.85964126909318" lon="11.526378506385129"><ele>1048.0</ele><time>2026-05-03T07:39:30.979Z</time></trkpt><trkpt lat="45.85980785652552" lon="11.526356498187043"><ele>1048.0</ele><time>2026-05-03T07:39:31.979Z</time></trkpt><trkpt lat="45.85996005867839" lon="11.526313603787418"><ele>1048.0</ele><time>2026-05-03T07:39:32.979Z</time></trkpt><trkpt lat="45.86009511039149" lon="11.526231130418529"><ele>1047.6666666666665</ele><time>2026-05-03T07:39:33.979Z</time></trkpt><trkpt lat="45.86021876887991" lon="11.526100751034203"><ele>1047.3333333333333</ele><time>2026-05-03T07:39:34.979Z</time></trkpt><trkpt lat="45.86033120305371" lon="11.525946175977754"><ele>1047.0</ele><time>2026-05-03T07:39:35.979Z</time></trkpt><trkpt lat="45.86044045150874" lon="11.525756399796451"><ele>1047.0</ele><time>2026-05-03T07:39:36.979Z</time></trkpt><trkpt lat="45.860574500296316" lon="11.525595512984195"><ele>1047.0</ele><time>2026-05-03T07:39:37.979Z</time></trkpt><trkpt lat="45.86068991615472" lon="11.525401203724646"><ele>1047.0</ele><time>2026-05-03T07:39:38.979Z</time></trkpt><trkpt lat="45.86081880586798" lon="11.525213507031054"><ele>1046.3333333333333</ele><time>2026-05-03T07:39:39.979Z</time></trkpt><trkpt lat="45.86094652421623" lon="11.525027809340974"><ele>1045.6666666666665</ele><time>2026-05-03T07:39:40.979Z</time></trkpt><trkpt lat="45.861074259656355" lon="11.524855540173396"><ele>1045.0</ele><time>2026-05-03T07:39:41.979Z</time></trkpt><trkpt lat="45.861194847350575" lon="11.524692653305314"><ele>1042.6666666666665</ele><time>2026-05-03T07:39:42.979Z</time></trkpt><trkpt lat="45.861310609890566" lon="11.524549795915712"><ele>1040.3333333333333</ele><time>2026-05-03T07:39:43.979Z</time></trkpt><trkpt lat="45.86144274702712" lon="11.524444724250474"><ele>1038.0</ele><time>2026-05-03T07:39:44.979Z</time></trkpt><trkpt lat="45.86160873822549" lon="11.524397336529935"><ele>1038.6666666666667</ele><time>2026-05-03T07:39:45.979Z</time></trkpt><trkpt lat="45.86178473660093" lon="11.524441953783125"><ele>1039.3333333333335</ele><time>2026-05-03T07:39:46.979Z</time></trkpt><trkpt lat="45.86195584527614" lon="11.52451616137077"><ele>1040.0</ele><time>2026-05-03T07:39:47.979Z</time></trkpt><trkpt lat="45.86212622958399" lon="11.524598293127656"><ele>1035.75</ele><time>2026-05-03T07:39:48.979Z</time></trkpt><trkpt lat="45.86228277255009" lon="11.524663008566078"><ele>1031.5</ele><time>2026-05-03T07:39:49.979Z</time></trkpt><trkpt lat="45.86242009856981" lon="11.524734415608975"><ele>1027.25</ele><time>2026-05-03T07:39:50.979Z</time></trkpt><trkpt lat="45.86255170060134" lon="11.524777126397655"><ele>1023.0</ele><time>2026-05-03T07:39:51.979Z</time></trkpt><trkpt lat="45.86269215244943" lon="11.524763525300333"><ele>1021.0</ele><time>2026-05-03T07:39:52.979Z</time></trkpt><trkpt lat="45.86284777661654" lon="11.52472101523265"><ele>1019.0</ele><time>2026-05-03T07:39:53.979Z</time></trkpt><trkpt lat="45.86299654374972" lon="11.52468670165434"><ele>1017.0</ele><time>2026-05-03T07:39:54.979Z</time></trkpt><trkpt lat="45.86313838626242" lon="11.524627700771358"><ele>1014.0</ele><time>2026-05-03T07:39:55.979Z</time></trkpt><trkpt lat="45.86327088516554" lon="11.524522588041968"><ele>1011.0</ele><time>2026-05-03T07:39:56.979Z</time></trkpt><trkpt lat="45.86340165049542" lon="11.524380266463888"><ele>1008.0</ele><time>2026-05-03T07:39:57.979Z</time></trkpt><trkpt lat="45.86355245339732" lon="11.524271831622253"><ele>1008.0</ele><time>2026-05-03T07:39:58.979Z</time></trkpt><trkpt lat="45.863705934298075" lon="11.524135033417235"><ele>1008.0</ele><time>2026-05-03T07:39:59.979Z</time></trkpt><trkpt lat="45.86386693819394" lon="11.52399261004536"><ele>1008.0</ele><time>2026-05-03T07:40:00.979Z</time></trkpt><trkpt lat="45.864049454975174" lon="11.523831166675686"><ele>1007.3333333333333</ele><time>2026-05-03T07:40:01.979Z</time></trkpt><trkpt lat="45.86423660683187" lon="11.523665623441882"><ele>1006.6666666666666</ele><time>2026-05-03T07:40:02.979Z</time></trkpt><trkpt lat="45.86442147285974" lon="11.523502380867296"><ele>1006.0</ele><time>2026-05-03T07:40:03.979Z</time></trkpt><trkpt lat="45.86460710414104" lon="11.52333851745549"><ele>1006.0</ele><time>2026-05-03T07:40:04.979Z</time></trkpt><trkpt lat="45.864793095161616" lon="11.523173061849945"><ele>1006.0</ele><time>2026-05-03T07:40:05.979Z</time></trkpt><trkpt lat="45.86497256651562" lon="11.523017317089169"><ele>1006.0</ele><time>2026-05-03T07:40:06.979Z</time></trkpt><trkpt lat="45.8651490596468" lon="11.52285861992817"><ele>1005.3333333333333</ele><time>2026-05-03T07:40:07.979Z</time></trkpt><trkpt lat="45.86530297642293" lon="11.52268508158981"><ele>1004.6666666666667</ele><time>2026-05-03T07:40:08.979Z</time></trkpt><trkpt lat="45.86547387527569" lon="11.52250552015496"><ele>1004.0</ele><time>2026-05-03T07:40:09.979Z</time></trkpt><trkpt lat="45.86561370782472" lon="11.522271493401588"><ele>1003.3333333333334</ele><time>2026-05-03T07:40:10.979Z</time></trkpt><trkpt lat="45.865751112265336" lon="11.52202731956605"><ele>1002.6666666666667</ele><time>2026-05-03T07:40:11.979Z</time></trkpt><trkpt lat="45.86589114815744" lon="11.521782165633223"><ele>1002.0</ele><time>2026-05-03T07:40:12.979Z</time></trkpt><trkpt lat="45.86603139227376" lon="11.521535495932081"><ele>1002.0</ele><time>2026-05-03T07:40:13.98Z</time></trkpt><trkpt lat="45.86616850786403" lon="11.521292375638794"><ele>1002.0</ele><time>2026-05-03T07:40:14.98Z</time></trkpt><trkpt lat="45.866304141780674" lon="11.521050935266887"><ele>1002.0</ele><time>2026-05-03T07:40:15.98Z</time></trkpt><trkpt lat="45.86643944480055" lon="11.52081183957389"><ele>1002.0</ele><time>2026-05-03T07:40:16.98Z</time></trkpt><trkpt lat="45.86657507100661" lon="11.520572916682454"><ele>1002.0</ele><time>2026-05-03T07:40:17.979Z</time></trkpt><trkpt lat="45.86670991469167" lon="11.520332066238495"><ele>1002.0</ele><time>2026-05-03T07:40:18.979Z</time></trkpt><trkpt lat="45.86684362058431" lon="11.520088110542348"><ele>1002.0</ele><time>2026-05-03T07:40:19.979Z</time></trkpt><trkpt lat="45.86696884167519" lon="11.519838967093703"><ele>1002.0</ele><time>2026-05-03T07:40:20.979Z</time></trkpt><trkpt lat="45.86708327030245" lon="11.51960233623438"><ele>1002.0</ele><time>2026-05-03T07:40:21.979Z</time></trkpt><trkpt lat="45.867193394912576" lon="11.519374928466771"><ele>1000.6666666666667</ele><time>2026-05-03T07:40:22.979Z</time></trkpt><trkpt lat="45.8672968504571" lon="11.519157461646179"><ele>999.3333333333334</ele><time>2026-05-03T07:40:23.979Z</time></trkpt><trkpt lat="45.867395816324304" lon="11.518949824417554"><ele>998.0</ele><time>2026-05-03T07:40:24.979Z</time></trkpt><trkpt lat="45.86749178850342" lon="11.51874846808135"><ele>998.0</ele><time>2026-05-03T07:40:25.979Z</time></trkpt><trkpt lat="45.867577346108554" lon="11.518528189631423"><ele>998.0</ele><time>2026-05-03T07:40:26.979Z</time></trkpt><trkpt lat="45.86768706289319" lon="11.518327202591818"><ele>998.0</ele><time>2026-05-03T07:40:27.979Z</time></trkpt><trkpt lat="45.86778553958761" lon="11.518126478205877"><ele>997.5</ele><time>2026-05-03T07:40:28.979Z</time></trkpt><trkpt lat="45.86787205379573" lon="11.517939170821142"><ele>997.0</ele><time>2026-05-03T07:40:29.979Z</time></trkpt><trkpt lat="45.86795025357579" lon="11.51776870042279"><ele>996.5</ele><time>2026-05-03T07:40:30.979Z</time></trkpt><trkpt lat="45.86802573259179" lon="11.517603430267203"><ele>996.0</ele><time>2026-05-03T07:40:31.979Z</time></trkpt><trkpt lat="45.86809742985742" lon="11.517441869453808"><ele>995.75</ele><time>2026-05-03T07:40:32.979Z</time></trkpt><trkpt lat="45.868170424968255" lon="11.517284585579405"><ele>995.5</ele><time>2026-05-03T07:40:33.979Z</time></trkpt><trkpt lat="45.8682385137893" lon="11.5171287193708"><ele>995.25</ele><time>2026-05-03T07:40:34.979Z</time></trkpt><trkpt lat="45.868302397872796" lon="11.51697793284978"><ele>995.0</ele><time>2026-05-03T07:40:35.979Z</time></trkpt><trkpt lat="45.86836885640269" lon="11.516827976796122"><ele>994.75</ele><time>2026-05-03T07:40:36.979Z</time></trkpt><trkpt lat="45.868443858406415" lon="11.51666999409539"><ele>994.5</ele><time>2026-05-03T07:40:37.979Z</time></trkpt><trkpt lat="45.868522383405484" lon="11.516491509001039"><ele>994.25</ele><time>2026-05-03T07:40:38.979Z</time></trkpt><trkpt lat="45.86860566566237" lon="11.516307072371454"><ele>994.0</ele><time>2026-05-03T07:40:39.979Z</time></trkpt><trkpt lat="45.86869481468399" lon="11.516105284074682"><ele>994.0</ele><time>2026-05-03T07:40:40.979Z</time></trkpt><trkpt lat="45.86879195044967" lon="11.515890256418132"><ele>994.0</ele><time>2026-05-03T07:40:41.979Z</time></trkpt><trkpt lat="45.86889610503445" lon="11.515662178014612"><ele>994.0</ele><time>2026-05-03T07:40:42.979Z</time></trkpt><trkpt lat="45.86900740716173" lon="11.515419020926469"><ele>993.6666666666666</ele><time>2026-05-03T07:40:43.979Z</time></trkpt><trkpt lat="45.869131015005536" lon="11.515181608009359"><ele>993.3333333333333</ele><time>2026-05-03T07:40:44.979Z</time></trkpt><trkpt lat="45.869239693719784" lon="11.514930720848989"><ele>993.0</ele><time>2026-05-03T07:40:45.979Z</time></trkpt><trkpt lat="45.86932354968245" lon="11.514687988192888"><ele>996.25</ele><time>2026-05-03T07:40:46.979Z</time></trkpt><trkpt lat="45.86937347280604" lon="11.514479738023265"><ele>999.5</ele><time>2026-05-03T07:40:47.979Z</time></trkpt><trkpt lat="45.86941049536856" lon="11.514293483885098"><ele>1002.75</ele><time>2026-05-03T07:40:48.979Z</time></trkpt><trkpt lat="45.869437713907395" lon="11.514151154318979"><ele>1006.0</ele><time>2026-05-03T07:40:49.979Z</time></trkpt><trkpt lat="45.86946442932002" lon="11.51401145571253"><ele>1006.0</ele><time>2026-05-03T07:40:50.979Z</time></trkpt><trkpt lat="45.869494590728884" lon="11.513868347893538"><ele>1006.0</ele><time>2026-05-03T07:40:51.979Z</time></trkpt><trkpt lat="45.86954197197216" lon="11.513726945316433"><ele>1006.0</ele><time>2026-05-03T07:40:52.979Z</time></trkpt><trkpt lat="45.86962042706917" lon="11.513598896068473"><ele>1006.0</ele><time>2026-05-03T07:40:53.979Z</time></trkpt><trkpt lat="45.86971705411665" lon="11.513466001501866"><ele>1004.6666666666666</ele><time>2026-05-03T07:40:54.979Z</time></trkpt><trkpt lat="45.86983542457377" lon="11.51332131287758"><ele>1003.3333333333333</ele><time>2026-05-03T07:40:55.979Z</time></trkpt><trkpt lat="45.86998762409086" lon="11.51320636571864"><ele>1002.0</ele><time>2026-05-03T07:40:56.979Z</time></trkpt><trkpt lat="45.870144048758156" lon="11.513086315822422"><ele>1002.0</ele><time>2026-05-03T07:40:57.979Z</time></trkpt><trkpt lat="45.87029165416897" lon="11.512973285919344"><ele>1002.0</ele><time>2026-05-03T07:40:58.979Z</time></trkpt><trkpt lat="45.87044244198617" lon="11.512897677317453"><ele>1002.0</ele><time>2026-05-03T07:40:59.979Z</time></trkpt><trkpt lat="45.870577976674205" lon="11.51280238641064"><ele>1001.25</ele><time>2026-05-03T07:41:00.979Z</time></trkpt><trkpt lat="45.87068681618424" lon="11.512719225181053"><ele>1000.5</ele><time>2026-05-03T07:41:01.979Z</time></trkpt><trkpt lat="45.870785079949265" lon="11.512642698208914"><ele>999.75</ele><time>2026-05-03T07:41:02.978Z</time></trkpt><trkpt lat="45.87088216760138" lon="11.512563646731971"><ele>999.0</ele><time>2026-05-03T07:41:03.978Z</time></trkpt><trkpt lat="45.87097221473716" lon="11.512487126561952"><ele>999.0</ele><time>2026-05-03T07:41:04.978Z</time></trkpt><trkpt lat="45.87105265906936" lon="11.512415083103466"><ele>999.0</ele><time>2026-05-03T07:41:05.978Z</time></trkpt><trkpt lat="45.87112961494412" lon="11.512343416903507"><ele>999.0</ele><time>2026-05-03T07:41:06.978Z</time></trkpt><trkpt lat="45.87120028612731" lon="11.512275550088368"><ele>999.0</ele><time>2026-05-03T07:41:07.978Z</time></trkpt><trkpt lat="45.87126648987045" lon="11.512211972193699"><ele>999.0</ele><time>2026-05-03T07:41:08.978Z</time></trkpt><trkpt lat="45.87132949132493" lon="11.512148128754047"><ele>999.0</ele><time>2026-05-03T07:41:09.978Z</time></trkpt><trkpt lat="45.87137859710557" lon="11.512054953549757"><ele>998.6</ele><time>2026-05-03T07:41:10.978Z</time></trkpt><trkpt lat="45.87144076802377" lon="11.511993740238909"><ele>998.2</ele><time>2026-05-03T07:41:11.978Z</time></trkpt><trkpt lat="45.8715284238713" lon="11.511895969058216"><ele>997.8000000000001</ele><time>2026-05-03T07:41:13.978Z</time></trkpt><trkpt lat="45.87163365158504" lon="11.511809064227503"><ele>997.4000000000001</ele><time>2026-05-03T07:41:15.978Z</time></trkpt><trkpt lat="45.87169380516764" lon="11.511744480838257"><ele>997.0</ele><time>2026-05-03T07:41:16.978Z</time></trkpt><trkpt lat="45.87176672987769" lon="11.51168495194927"><ele>997.0</ele><time>2026-05-03T07:41:17.978Z</time></trkpt><trkpt lat="45.871845821269055" lon="11.511659040735433"><ele>997.0</ele><time>2026-05-03T07:41:18.978Z</time></trkpt><trkpt lat="45.87194841257208" lon="11.511613639585311"><ele>997.0</ele><time>2026-05-03T07:41:20.978Z</time></trkpt><trkpt lat="45.87192775018631" lon="11.511339211320541"><ele>997.0</ele><time>2026-05-03T07:41:21.978Z</time></trkpt><trkpt lat="45.871944390263074" lon="11.511238039395638"><ele>996.9999999999999</ele><time>2026-05-03T07:41:22.978Z</time></trkpt><trkpt lat="45.87195822857031" lon="11.51113029434309"><ele>997.0</ele><time>2026-05-03T07:41:23.978Z</time></trkpt><trkpt lat="45.871974791512216" lon="11.51102627628988"><ele>997.0</ele><time>2026-05-03T07:41:24.978Z</time></trkpt><trkpt lat="45.87200007798422" lon="11.510860452735626"><ele>997.0</ele><time>2026-05-03T07:41:26.978Z</time></trkpt><trkpt lat="45.87202856355286" lon="11.510704760353482"><ele>996.9999999999999</ele><time>2026-05-03T07:41:28.978Z</time></trkpt><trkpt lat="45.87203831276987" lon="11.510615184890995"><ele>997.0</ele><time>2026-05-03T07:41:29.978Z</time></trkpt><trkpt lat="45.87205059519736" lon="11.510522541706601"><ele>996.9999999999999</ele><time>2026-05-03T07:41:30.978Z</time></trkpt><trkpt lat="45.87206578891615" lon="11.51042760288089"><ele>997.0</ele><time>2026-05-03T07:41:31.978Z</time></trkpt><trkpt lat="45.87208202536541" lon="11.510337575564357"><ele>997.0</ele><time>2026-05-03T07:41:32.978Z</time></trkpt><trkpt lat="45.87210641513867" lon="11.510194551455044"><ele>997.0</ele><time>2026-05-03T07:41:34.978Z</time></trkpt><trkpt lat="45.87214178198694" lon="11.510039013452678"><ele>996.9999999999999</ele><time>2026-05-03T07:41:36.978Z</time></trkpt><trkpt lat="45.87215669979379" lon="11.509945164060953"><ele>997.0</ele><time>2026-05-03T07:41:37.978Z</time></trkpt><trkpt lat="45.87217384196739" lon="11.509853517240932"><ele>996.8</ele><time>2026-05-03T07:41:38.978Z</time></trkpt><trkpt lat="45.87220185483529" lon="11.509692557736079"><ele>996.6</ele><time>2026-05-03T07:41:40.978Z</time></trkpt><trkpt lat="45.87221923065949" lon="11.509570668858897"><ele>996.3999999999999</ele><time>2026-05-03T07:41:42.978Z</time></trkpt><trkpt lat="45.872236637273645" lon="11.509449393751916"><ele>996.1999999999999</ele><time>2026-05-03T07:41:44.978Z</time></trkpt><trkpt lat="45.87224987586782" lon="11.509313870998463"><ele>996.0</ele><time>2026-05-03T07:41:46.978Z</time></trkpt><trkpt lat="45.87227835201074" lon="11.509198994348145"><ele>996.0</ele><time>2026-05-03T07:41:48.978Z</time></trkpt><trkpt lat="45.87229542499076" lon="11.509072721400134"><ele>995.9999999999999</ele><time>2026-05-03T07:41:50.978Z</time></trkpt><trkpt lat="45.872317867644284" lon="11.508910573318934"><ele>995.9999999999999</ele><time>2026-05-03T07:41:52.978Z</time></trkpt><trkpt lat="45.87233241771766" lon="11.508806598717673"><ele>996.0</ele><time>2026-05-03T07:41:53.978Z</time></trkpt><trkpt lat="45.87234956119569" lon="11.50868630833602"><ele>996.0</ele><time>2026-05-03T07:41:54.978Z</time></trkpt><trkpt lat="45.87236950145977" lon="11.508551109077393"><ele>996.8</ele><time>2026-05-03T07:41:55.978Z</time></trkpt><trkpt lat="45.872390510948755" lon="11.508410086471228"><ele>997.5999999999999</ele><time>2026-05-03T07:41:56.978Z</time></trkpt><trkpt lat="45.87241045168555" lon="11.50827755829182"><ele>998.4</ele><time>2026-05-03T07:41:57.978Z</time></trkpt><trkpt lat="45.87243021777731" lon="11.508146191000735"><ele>999.2</ele><time>2026-05-03T07:41:58.978Z</time></trkpt><trkpt lat="45.872449919666714" lon="11.508011680958626"><ele>1000.0</ele><time>2026-05-03T07:41:59.978Z</time></trkpt><trkpt lat="45.87247005545559" lon="11.507873045643406"><ele>1000.4</ele><time>2026-05-03T07:42:00.978Z</time></trkpt><trkpt lat="45.87248798194552" lon="11.507732587447878"><ele>1000.8</ele><time>2026-05-03T07:42:01.978Z</time></trkpt><trkpt lat="45.87249068613818" lon="11.507587768396823"><ele>1001.2</ele><time>2026-05-03T07:42:02.978Z</time></trkpt><trkpt lat="45.872510918390006" lon="11.507452179647675"><ele>1001.6</ele><time>2026-05-03T07:42:03.978Z</time></trkpt><trkpt lat="45.87253410144584" lon="11.507335673079504"><ele>1002.0</ele><time>2026-05-03T07:42:04.978Z</time></trkpt><trkpt lat="45.87255908730768" lon="11.507235311345685"><ele>1002.0</ele><time>2026-05-03T07:42:05.978Z</time></trkpt><trkpt lat="45.872598201652686" lon="11.507141591520249"><ele>1002.0</ele><time>2026-05-03T07:42:06.978Z</time></trkpt><trkpt lat="45.87265328710926" lon="11.507046233063944"><ele>1002.0</ele><time>2026-05-03T07:42:07.978Z</time></trkpt><trkpt lat="45.872724286674654" lon="11.506954289846373"><ele>1002.0</ele><time>2026-05-03T07:42:08.978Z</time></trkpt><trkpt lat="45.872802293625185" lon="11.506855215698668"><ele>1002.0</ele><time>2026-05-03T07:42:09.978Z</time></trkpt><trkpt lat="45.87288735000306" lon="11.506745779497306"><ele>1002.25</ele><time>2026-05-03T07:42:10.978Z</time></trkpt><trkpt lat="45.87298293060176" lon="11.506639700814455"><ele>1002.5</ele><time>2026-05-03T07:42:11.978Z</time></trkpt><trkpt lat="45.87307415484678" lon="11.506528280365377"><ele>1002.75</ele><time>2026-05-03T07:42:12.978Z</time></trkpt><trkpt lat="45.873159762857426" lon="11.506426262481424"><ele>1003.0</ele><time>2026-05-03T07:42:13.979Z</time></trkpt><trkpt lat="45.873233009055255" lon="11.50632423174873"><ele>1003.4</ele><time>2026-05-03T07:42:14.979Z</time></trkpt><trkpt lat="45.87329065132462" lon="11.506208921904761"><ele>1003.8</ele><time>2026-05-03T07:42:15.979Z</time></trkpt><trkpt lat="45.87331669461206" lon="11.506105132477956"><ele>1004.2</ele><time>2026-05-03T07:42:16.979Z</time></trkpt><trkpt lat="45.87334016622468" lon="11.50601753683934"><ele>1004.6</ele><time>2026-05-03T07:42:17.979Z</time></trkpt><trkpt lat="45.873380558951915" lon="11.505878926001522"><ele>1005.0</ele><time>2026-05-03T07:42:19.979Z</time></trkpt><trkpt lat="45.873457086120865" lon="11.505772792833419"><ele>1006.6666666666666</ele><time>2026-05-03T07:42:21.979Z</time></trkpt><trkpt lat="45.87352110745061" lon="11.505728164254775"><ele>1008.3333333333333</ele><time>2026-05-03T07:42:22.979Z</time></trkpt><trkpt lat="45.873597886938356" lon="11.505692647269667"><ele>1010.0</ele><time>2026-05-03T07:42:23.979Z</time></trkpt><trkpt lat="45.87368483718959" lon="11.505665043988007"><ele>1011.6666666666666</ele><time>2026-05-03T07:42:24.979Z</time></trkpt><trkpt lat="45.87378071997241" lon="11.505635639549698"><ele>1013.3333333333333</ele><time>2026-05-03T07:42:25.979Z</time></trkpt><trkpt lat="45.87388886692648" lon="11.505603878396562"><ele>1015.0</ele><time>2026-05-03T07:42:26.979Z</time></trkpt><trkpt lat="45.873996637492084" lon="11.505537403746354"><ele>1015.0</ele><time>2026-05-03T07:42:27.979Z</time></trkpt><trkpt lat="45.874118149909336" lon="11.505484642504223"><ele>1015.0</ele><time>2026-05-03T07:42:28.979Z</time></trkpt><trkpt lat="45.87423313651578" lon="11.505421944336685"><ele>1015.0</ele><time>2026-05-03T07:42:29.979Z</time></trkpt><trkpt lat="45.87434574879638" lon="11.505340403667075"><ele>1015.0</ele><time>2026-05-03T07:42:30.979Z</time></trkpt><trkpt lat="45.87446356507239" lon="11.50525705495767"><ele>1014.5</ele><time>2026-05-03T07:42:31.979Z</time></trkpt><trkpt lat="45.874588859949256" lon="11.50516586576288"><ele>1014.0</ele><time>2026-05-03T07:42:32.979Z</time></trkpt><trkpt lat="45.87471515863115" lon="11.50504995223757"><ele>1013.5</ele><time>2026-05-03T07:42:33.979Z</time></trkpt><trkpt lat="45.874839617254324" lon="11.504916221648775"><ele>1013.0</ele><time>2026-05-03T07:42:34.979Z</time></trkpt><trkpt lat="45.87494127741333" lon="11.50477123432453"><ele>1013.0</ele><time>2026-05-03T07:42:35.979Z</time></trkpt><trkpt lat="45.8750325886611" lon="11.504634722010028"><ele>1013.0</ele><time>2026-05-03T07:42:36.979Z</time></trkpt><trkpt lat="45.87511574977405" lon="11.504492762161384"><ele>1013.0</ele><time>2026-05-03T07:42:37.979Z</time></trkpt><trkpt lat="45.87519911463597" lon="11.5043472045036"><ele>1013.0</ele><time>2026-05-03T07:42:38.979Z</time></trkpt><trkpt lat="45.87528080122317" lon="11.504196350975366"><ele>1012.75</ele><time>2026-05-03T07:42:39.979Z</time></trkpt><trkpt lat="45.8753501148527" lon="11.50403114180763"><ele>1012.5</ele><time>2026-05-03T07:42:40.979Z</time></trkpt><trkpt lat="45.875412914866416" lon="11.503867974317457"><ele>1012.25</ele><time>2026-05-03T07:42:41.979Z</time></trkpt><trkpt lat="45.87547247684378" lon="11.503695714059166"><ele>1012.0</ele><time>2026-05-03T07:42:42.979Z</time></trkpt><trkpt lat="45.87552335705015" lon="11.503509288465136"><ele>1012.0</ele><time>2026-05-03T07:42:43.979Z</time></trkpt><trkpt lat="45.8755742610064" lon="11.503313734538136"><ele>1012.0</ele><time>2026-05-03T07:42:44.979Z</time></trkpt><trkpt lat="45.87562664837535" lon="11.503114485217594"><ele>1012.0</ele><time>2026-05-03T07:42:45.979Z</time></trkpt><trkpt lat="45.875675473845355" lon="11.502914222253844"><ele>1012.0</ele><time>2026-05-03T07:42:46.979Z</time></trkpt><trkpt lat="45.87571759584307" lon="11.502714390398454"><ele>1013.0</ele><time>2026-05-03T07:42:47.979Z</time></trkpt><trkpt lat="45.87573354408784" lon="11.50250718322651"><ele>1014.0</ele><time>2026-05-03T07:42:48.979Z</time></trkpt><trkpt lat="45.87571794538957" lon="11.502287301359798"><ele>1015.0</ele><time>2026-05-03T07:42:49.979Z</time></trkpt><trkpt lat="45.8756947996088" lon="11.502060702960993"><ele>1015.0</ele><time>2026-05-03T07:42:50.979Z</time></trkpt><trkpt lat="45.875652822811965" lon="11.50183777087037"><ele>1015.0</ele><time>2026-05-03T07:42:51.979Z</time></trkpt><trkpt lat="45.87560963019143" lon="11.501611855842205"><ele>1015.0</ele><time>2026-05-03T07:42:52.979Z</time></trkpt><trkpt lat="45.87557486696865" lon="11.501405384667391"><ele>1016.0</ele><time>2026-05-03T07:42:53.979Z</time></trkpt><trkpt lat="45.87555502897562" lon="11.501207615703816"><ele>1017.0</ele><time>2026-05-03T07:42:54.979Z</time></trkpt><trkpt lat="45.87554802279887" lon="11.50103280856504"><ele>1018.0</ele><time>2026-05-03T07:42:55.978Z</time></trkpt><trkpt lat="45.875551968051056" lon="11.500866533050843"><ele>1019.0</ele><time>2026-05-03T07:42:56.978Z</time></trkpt><trkpt lat="45.875563171496864" lon="11.500707681578188"><ele>1019.0</ele><time>2026-05-03T07:42:57.978Z</time></trkpt><trkpt lat="45.87559104782165" lon="11.500556315799159"><ele>1019.0</ele><time>2026-05-03T07:42:58.978Z</time></trkpt><trkpt lat="45.875630507864344" lon="11.500401232107981"><ele>1019.0</ele><time>2026-05-03T07:42:59.978Z</time></trkpt><trkpt lat="45.87568922141521" lon="11.500249138085954"><ele>1019.0</ele><time>2026-05-03T07:43:00.978Z</time></trkpt><trkpt lat="45.87576685643757" lon="11.500101561178445"><ele>1018.3333333333334</ele><time>2026-05-03T07:43:01.978Z</time></trkpt><trkpt lat="45.87585896793427" lon="11.499948725650036"><ele>1017.6666666666667</ele><time>2026-05-03T07:43:02.978Z</time></trkpt><trkpt lat="45.87596037285515" lon="11.49976305445228"><ele>1017.0</ele><time>2026-05-03T07:43:03.978Z</time></trkpt><trkpt lat="45.876104856767554" lon="11.499596273665466"><ele>1018.6666666666667</ele><time>2026-05-03T07:43:04.978Z</time></trkpt><trkpt lat="45.87624270756812" lon="11.499399153897564"><ele>1020.3333333333334</ele><time>2026-05-03T07:43:05.978Z</time></trkpt><trkpt lat="45.87639024295017" lon="11.49920630240925"><ele>1022.0</ele><time>2026-05-03T07:43:06.978Z</time></trkpt><trkpt lat="45.876548144671645" lon="11.499003033043767"><ele>1022.0</ele><time>2026-05-03T07:43:07.978Z</time></trkpt><trkpt lat="45.876728691128214" lon="11.498793112830194"><ele>1022.0</ele><time>2026-05-03T07:43:08.978Z</time></trkpt><trkpt lat="45.87691628022454" lon="11.498575255284116"><ele>1023.5</ele><time>2026-05-03T07:43:09.978Z</time></trkpt><trkpt lat="45.877110401363424" lon="11.498358298229093"><ele>1025.0</ele><time>2026-05-03T07:43:10.978Z</time></trkpt><trkpt lat="45.87729685625608" lon="11.498130481951781"><ele>1025.0</ele><time>2026-05-03T07:43:11.978Z</time></trkpt><trkpt lat="45.877479184117526" lon="11.497919474728297"><ele>1025.0</ele><time>2026-05-03T07:43:12.978Z</time></trkpt><trkpt lat="45.87764418619099" lon="11.497711870947354"><ele>1025.3333333333335</ele><time>2026-05-03T07:43:13.978Z</time></trkpt><trkpt lat="45.87780434827117" lon="11.497514413467561"><ele>1025.6666666666667</ele><time>2026-05-03T07:43:14.978Z</time></trkpt><trkpt lat="45.877963237021035" lon="11.497324147095922"><ele>1026.0</ele><time>2026-05-03T07:43:15.978Z</time></trkpt><trkpt lat="45.878126933719706" lon="11.497127021240201"><ele>1026.0</ele><time>2026-05-03T07:43:16.978Z</time></trkpt><trkpt lat="45.878273058643934" lon="11.496939995020393"><ele>1026.0</ele><time>2026-05-03T07:43:17.978Z</time></trkpt><trkpt lat="45.87840580009355" lon="11.496763388907688"><ele>1026.0</ele><time>2026-05-03T07:43:18.978Z</time></trkpt><trkpt lat="45.87851819562217" lon="11.496602992260566"><ele>1026.0</ele><time>2026-05-03T07:43:19.978Z</time></trkpt><trkpt lat="45.878625970397934" lon="11.496450310438227"><ele>1026.0</ele><time>2026-05-03T07:43:20.978Z</time></trkpt><trkpt lat="45.87872178348645" lon="11.496277640744664"><ele>1026.0</ele><time>2026-05-03T07:43:21.978Z</time></trkpt><trkpt lat="45.878795518848904" lon="11.496079402148272"><ele>1025.6666666666667</ele><time>2026-05-03T07:43:22.978Z</time></trkpt><trkpt lat="45.87884793793082" lon="11.495842690496486"><ele>1025.3333333333335</ele><time>2026-05-03T07:43:23.978Z</time></trkpt><trkpt lat="45.87888460205717" lon="11.495571740583497"><ele>1025.0</ele><time>2026-05-03T07:43:24.978Z</time></trkpt><trkpt lat="45.87890187136674" lon="11.49527804565963"><ele>1025.6666666666667</ele><time>2026-05-03T07:43:25.978Z</time></trkpt><trkpt lat="45.87892787918514" lon="11.49501488423214"><ele>1026.3333333333333</ele><time>2026-05-03T07:43:26.978Z</time></trkpt><trkpt lat="45.87895520772239" lon="11.494792598970568"><ele>1027.0</ele><time>2026-05-03T07:43:27.978Z</time></trkpt><trkpt lat="45.87899392474237" lon="11.494572300168992"><ele>1026.3333333333333</ele><time>2026-05-03T07:43:28.978Z</time></trkpt><trkpt lat="45.879085292151416" lon="11.494341821550728"><ele>1025.6666666666667</ele><time>2026-05-03T07:43:29.978Z</time></trkpt><trkpt lat="45.87923550523089" lon="11.494166734625106"><ele>1025.0</ele><time>2026-05-03T07:43:30.978Z</time></trkpt><trkpt lat="45.879409736296275" lon="11.494002955646561"><ele>1025.0</ele><time>2026-05-03T07:43:31.978Z</time></trkpt><trkpt lat="45.87959930449195" lon="11.49382959862463"><ele>1025.0</ele><time>2026-05-03T07:43:32.978Z</time></trkpt><trkpt lat="45.87978296473715" lon="11.493661646056879"><ele>1025.0</ele><time>2026-05-03T07:43:33.978Z</time></trkpt><trkpt lat="45.879960544457376" lon="11.49349764273112"><ele>1024.6666666666667</ele><time>2026-05-03T07:43:34.978Z</time></trkpt><trkpt lat="45.880140874614156" lon="11.493328006584028"><ele>1024.3333333333333</ele><time>2026-05-03T07:43:35.978Z</time></trkpt><trkpt lat="45.88030876071866" lon="11.493162009570245"><ele>1024.0</ele><time>2026-05-03T07:43:36.978Z</time></trkpt><trkpt lat="45.880457102326886" lon="11.493001287041148"><ele>1022.5</ele><time>2026-05-03T07:43:37.978Z</time></trkpt><trkpt lat="45.880580615271235" lon="11.492848133880845"><ele>1021.0</ele><time>2026-05-03T07:43:38.978Z</time></trkpt><trkpt lat="45.88068470378794" lon="11.492707913943274"><ele>1019.5</ele><time>2026-05-03T07:43:39.978Z</time></trkpt><trkpt lat="45.88078704437523" lon="11.492565267925055"><ele>1018.0</ele><time>2026-05-03T07:43:40.978Z</time></trkpt><trkpt lat="45.88089254926728" lon="11.492416054679861"><ele>1019.0</ele><time>2026-05-03T07:43:41.978Z</time></trkpt><trkpt lat="45.88096969635968" lon="11.492292723719697"><ele>1020.0</ele><time>2026-05-03T07:43:42.978Z</time></trkpt><trkpt lat="45.88102650977981" lon="11.49212931629947"><ele>1021.0</ele><time>2026-05-03T07:43:43.978Z</time></trkpt><trkpt lat="45.881068414138255" lon="11.491953072517248"><ele>1022.0</ele><time>2026-05-03T07:43:44.978Z</time></trkpt><trkpt lat="45.881065962729934" lon="11.491760455340287"><ele>1022.0</ele><time>2026-05-03T07:43:45.978Z</time></trkpt><trkpt lat="45.881047002646724" lon="11.491570001085753"><ele>1022.0</ele><time>2026-05-03T07:43:46.978Z</time></trkpt><trkpt lat="45.88097569258274" lon="11.491384765130249"><ele>1022.0</ele><time>2026-05-03T07:43:47.978Z</time></trkpt><trkpt lat="45.8808882028121" lon="11.49122123778135"><ele>1022.0</ele><time>2026-05-03T07:43:48.978Z</time></trkpt><trkpt lat="45.88079695375784" lon="11.491051493367802"><ele>1023.5</ele><time>2026-05-03T07:43:49.978Z</time></trkpt><trkpt lat="45.88070831050276" lon="11.490896465136535"><ele>1025.0</ele><time>2026-05-03T07:43:50.978Z</time></trkpt><trkpt lat="45.880632076723906" lon="11.490794678611069"><ele>1026.5</ele><time>2026-05-03T07:43:51.978Z</time></trkpt><trkpt lat="45.88053158091745" lon="11.490743095327396"><ele>1028.0</ele><time>2026-05-03T07:43:52.978Z</time></trkpt><trkpt lat="45.88039836638782" lon="11.490801009591864"><ele>1028.0</ele><time>2026-05-03T07:43:53.978Z</time></trkpt><trkpt lat="45.88024923951893" lon="11.49081530512711"><ele>1028.0</ele><time>2026-05-03T07:43:54.978Z</time></trkpt><trkpt lat="45.8800857308406" lon="11.490854041891563"><ele>1028.0</ele><time>2026-05-03T07:43:55.978Z</time></trkpt><trkpt lat="45.87991780093724" lon="11.490893826016412"><ele>1027.75</ele><time>2026-05-03T07:43:56.978Z</time></trkpt><trkpt lat="45.879770940587775" lon="11.49092501815371"><ele>1027.5</ele><time>2026-05-03T07:43:57.978Z</time></trkpt><trkpt lat="45.87963726481881" lon="11.49093847472842"><ele>1027.25</ele><time>2026-05-03T07:43:58.978Z</time></trkpt><trkpt lat="45.8795136661655" lon="11.490876718892771"><ele>1027.0</ele><time>2026-05-03T07:43:59.978Z</time></trkpt><trkpt lat="45.879399369653655" lon="11.490772293816573"><ele>1027.0</ele><time>2026-05-03T07:44:00.978Z</time></trkpt><trkpt lat="45.879299575951194" lon="11.490593929174185"><ele>1027.0</ele><time>2026-05-03T07:44:01.978Z</time></trkpt><trkpt lat="45.879210286629224" lon="11.490423555065135"><ele>1027.0</ele><time>2026-05-03T07:44:02.978Z</time></trkpt><trkpt lat="45.879132669730716" lon="11.490289884396882"><ele>1027.0</ele><time>2026-05-03T07:44:03.978Z</time></trkpt><trkpt lat="45.87904817581535" lon="11.490199051218895"><ele>1029.2</ele><time>2026-05-03T07:44:04.978Z</time></trkpt><trkpt lat="45.878962950412166" lon="11.490127064079207"><ele>1031.4</ele><time>2026-05-03T07:44:05.978Z</time></trkpt><trkpt lat="45.87886369200016" lon="11.490169212298303"><ele>1033.6</ele><time>2026-05-03T07:44:06.978Z</time></trkpt><trkpt lat="45.878767850761044" lon="11.490202156274895"><ele>1035.8</ele><time>2026-05-03T07:44:07.978Z</time></trkpt><trkpt lat="45.87869677115853" lon="11.49025162307039"><ele>1038.0</ele><time>2026-05-03T07:44:08.978Z</time></trkpt><trkpt lat="45.87842598171427" lon="11.490263826209342"><ele>1038.0</ele><time>2026-05-03T07:44:09.978Z</time></trkpt><trkpt lat="45.87838550254767" lon="11.490161018730063"><ele>1038.0</ele><time>2026-05-03T07:44:10.978Z</time></trkpt><trkpt lat="45.87839484886782" lon="11.490053824421677"><ele>1038.0</ele><time>2026-05-03T07:44:11.978Z</time></trkpt><trkpt lat="45.87844791463311" lon="11.48997068730874"><ele>1038.0</ele><time>2026-05-03T07:44:12.978Z</time></trkpt><trkpt lat="45.87852933580303" lon="11.489915212917165"><ele>1038.0</ele><time>2026-05-03T07:44:13.978Z</time></trkpt><trkpt lat="45.87864028841185" lon="11.489882970477998"><ele>1038.0</ele><time>2026-05-03T07:44:14.978Z</time></trkpt><trkpt lat="45.87877469299421" lon="11.489821619377977"><ele>1038.0</ele><time>2026-05-03T07:44:15.978Z</time></trkpt><trkpt lat="45.87891296310803" lon="11.489759542232347"><ele>1038.0</ele><time>2026-05-03T07:44:16.978Z</time></trkpt><trkpt lat="45.87906066936104" lon="11.489689753424242"><ele>1038.0</ele><time>2026-05-03T07:44:17.978Z</time></trkpt><trkpt lat="45.879215168051644" lon="11.489614440713476"><ele>1042.0</ele><time>2026-05-03T07:44:18.977Z</time></trkpt><trkpt lat="45.87937493354867" lon="11.489536561371802"><ele>1046.0</ele><time>2026-05-03T07:44:19.979Z</time></trkpt><trkpt lat="45.87953378166556" lon="11.4894603206587"><ele>1050.0</ele><time>2026-05-03T07:44:20.979Z</time></trkpt><trkpt lat="45.879698964044614" lon="11.489381014398242"><ele>1050.0</ele><time>2026-05-03T07:44:21.979Z</time></trkpt><trkpt lat="45.879859666561124" lon="11.489305296926512"><ele>1050.0</ele><time>2026-05-03T07:44:22.978Z</time></trkpt><trkpt lat="45.87999910995008" lon="11.489239821248308"><ele>1050.0</ele><time>2026-05-03T07:44:23.978Z</time></trkpt><trkpt lat="45.88011957532284" lon="11.489181698541945"><ele>1050.0</ele><time>2026-05-03T07:44:24.978Z</time></trkpt><trkpt lat="45.88023065656467" lon="11.489122747933418"><ele>1049.6</ele><time>2026-05-03T07:44:25.979Z</time></trkpt><trkpt lat="45.88031761287774" lon="11.489021948084844"><ele>1049.2</ele><time>2026-05-03T07:44:26.978Z</time></trkpt><trkpt lat="45.88039591593141" lon="11.488932017777543"><ele>1048.8</ele><time>2026-05-03T07:44:27.978Z</time></trkpt><trkpt lat="45.88046369642684" lon="11.48880795864417"><ele>1048.4</ele><time>2026-05-03T07:44:28.979Z</time></trkpt><trkpt lat="45.880509248462175" lon="11.488644484109114"><ele>1048.0</ele><time>2026-05-03T07:44:29.979Z</time></trkpt><trkpt lat="45.88051776685971" lon="11.488459973530588"><ele>1049.4</ele><time>2026-05-03T07:44:30.979Z</time></trkpt><trkpt lat="45.88050611424076" lon="11.488295419835397"><ele>1050.8</ele><time>2026-05-03T07:44:31.979Z</time></trkpt><trkpt lat="45.8804743042679" lon="11.488161955426008"><ele>1052.2</ele><time>2026-05-03T07:44:32.978Z</time></trkpt><trkpt lat="45.88036659918843" lon="11.488080930030904"><ele>1053.6</ele><time>2026-05-03T07:44:33.978Z</time></trkpt><trkpt lat="45.88031962402496" lon="11.487972182597918"><ele>1055.0</ele><time>2026-05-03T07:44:34.978Z</time></trkpt><trkpt lat="45.88029435644079" lon="11.487829225193574"><ele>1056.5</ele><time>2026-05-03T07:44:35.978Z</time></trkpt><trkpt lat="45.880279658046454" lon="11.487659422425908"><ele>1058.0</ele><time>2026-05-03T07:44:36.978Z</time></trkpt><trkpt lat="45.88026536033493" lon="11.48747210820821"><ele>1059.5</ele><time>2026-05-03T07:44:37.978Z</time></trkpt><trkpt lat="45.88024522415419" lon="11.487267932433713"><ele>1061.0</ele><time>2026-05-03T07:44:38.978Z</time></trkpt><trkpt lat="45.880222536752505" lon="11.487066981040341"><ele>1061.5</ele><time>2026-05-03T07:44:39.978Z</time></trkpt><trkpt lat="45.88016938493627" lon="11.486884876743952"><ele>1062.0</ele><time>2026-05-03T07:44:40.978Z</time></trkpt><trkpt lat="45.88010961008676" lon="11.486729664112165"><ele>1062.5</ele><time>2026-05-03T07:44:41.978Z</time></trkpt><trkpt lat="45.88008388323201" lon="11.48657857717871"><ele>1063.0</ele><time>2026-05-03T07:44:42.978Z</time></trkpt><trkpt lat="45.8800676640218" lon="11.486439078808194"><ele>1061.5</ele><time>2026-05-03T07:44:43.978Z</time></trkpt><trkpt lat="45.88006924157473" lon="11.486293261868179"><ele>1060.0</ele><time>2026-05-03T07:44:44.978Z</time></trkpt><trkpt lat="45.88007564870726" lon="11.486114875970948"><ele>1058.5</ele><time>2026-05-03T07:44:45.978Z</time></trkpt><trkpt lat="45.880078758697394" lon="11.485940602144778"><ele>1057.0</ele><time>2026-05-03T07:44:46.978Z</time></trkpt><trkpt lat="45.880084518559926" lon="11.48577703705827"><ele>1056.75</ele><time>2026-05-03T07:44:47.978Z</time></trkpt><trkpt lat="45.88009595299115" lon="11.485607430220849"><ele>1056.5</ele><time>2026-05-03T07:44:48.978Z</time></trkpt><trkpt lat="45.88011707412082" lon="11.48544726902435"><ele>1056.25</ele><time>2026-05-03T07:44:49.978Z</time></trkpt><trkpt lat="45.88014420460027" lon="11.48528302885168"><ele>1056.0</ele><time>2026-05-03T07:44:50.978Z</time></trkpt><trkpt lat="45.880156010704226" lon="11.485112331672147"><ele>1055.75</ele><time>2026-05-03T07:44:51.978Z</time></trkpt><trkpt lat="45.88019763191342" lon="11.484940490262685"><ele>1055.5</ele><time>2026-05-03T07:44:52.978Z</time></trkpt><trkpt lat="45.880223457970324" lon="11.484751783738616"><ele>1055.25</ele><time>2026-05-03T07:44:53.978Z</time></trkpt><trkpt lat="45.88025539655175" lon="11.484563590704534"><ele>1055.0</ele><time>2026-05-03T07:44:54.978Z</time></trkpt><trkpt lat="45.88028892046879" lon="11.484373381560268"><ele>1055.0</ele><time>2026-05-03T07:44:55.978Z</time></trkpt><trkpt lat="45.88032428926742" lon="11.484194172188497"><ele>1055.0</ele><time>2026-05-03T07:44:56.978Z</time></trkpt><trkpt lat="45.88037651192622" lon="11.484019774415431"><ele>1055.0</ele><time>2026-05-03T07:44:57.978Z</time></trkpt><trkpt lat="45.880411389314666" lon="11.483834922009013"><ele>1055.0</ele><time>2026-05-03T07:44:58.978Z</time></trkpt><trkpt lat="45.88044967413445" lon="11.483646813125933"><ele>1054.25</ele><time>2026-05-03T07:44:59.978Z</time></trkpt><trkpt lat="45.88048881941186" lon="11.483453602875151"><ele>1053.5</ele><time>2026-05-03T07:45:00.978Z</time></trkpt><trkpt lat="45.8805307418612" lon="11.48325822327281"><ele>1052.75</ele><time>2026-05-03T07:45:01.978Z</time></trkpt><trkpt lat="45.88060389078626" lon="11.483076624037922"><ele>1052.0</ele><time>2026-05-03T07:45:02.978Z</time></trkpt><trkpt lat="45.880657421470254" lon="11.482882172217696"><ele>1051.0</ele><time>2026-05-03T07:45:03.978Z</time></trkpt><trkpt lat="45.88075377522241" lon="11.48271172666299"><ele>1050.0</ele><time>2026-05-03T07:45:04.978Z</time></trkpt><trkpt lat="45.880811526163306" lon="11.48252106246487"><ele>1049.0</ele><time>2026-05-03T07:45:05.978Z</time></trkpt><trkpt lat="45.880862905683856" lon="11.482336598886567"><ele>1048.0</ele><time>2026-05-03T07:45:06.978Z</time></trkpt><trkpt lat="45.88091503471204" lon="11.482162297134504"><ele>1050.0</ele><time>2026-05-03T07:45:07.978Z</time></trkpt><trkpt lat="45.88097556675278" lon="11.481988442852485"><ele>1052.0</ele><time>2026-05-03T07:45:08.978Z</time></trkpt><trkpt lat="45.88104937597981" lon="11.481815073839146"><ele>1054.0</ele><time>2026-05-03T07:45:09.978Z</time></trkpt><trkpt lat="45.88112073384051" lon="11.481622728383206"><ele>1056.0</ele><time>2026-05-03T07:45:10.978Z</time></trkpt><trkpt lat="45.88118686936168" lon="11.48143817137496"><ele>1055.3333333333333</ele><time>2026-05-03T07:45:11.978Z</time></trkpt><trkpt lat="45.88126940630787" lon="11.481230381497316"><ele>1054.6666666666665</ele><time>2026-05-03T07:45:12.978Z</time></trkpt><trkpt lat="45.88136211824427" lon="11.481081645545528"><ele>1054.0</ele><time>2026-05-03T07:45:13.978Z</time></trkpt><trkpt lat="45.88147083238324" lon="11.480931806867424"><ele>1054.0</ele><time>2026-05-03T07:45:14.978Z</time></trkpt><trkpt lat="45.88159033919204" lon="11.48075950250979"><ele>1054.0</ele><time>2026-05-03T07:45:15.978Z</time></trkpt><trkpt lat="45.88169118897738" lon="11.48058304438753"><ele>1054.0</ele><time>2026-05-03T07:45:16.978Z</time></trkpt><trkpt lat="45.8817662006701" lon="11.480401707122065"><ele>1056.3333333333333</ele><time>2026-05-03T07:45:17.978Z</time></trkpt><trkpt lat="45.88180855062393" lon="11.480187209719487"><ele>1058.6666666666667</ele><time>2026-05-03T07:45:18.978Z</time></trkpt><trkpt lat="45.88183107627681" lon="11.479957784993113"><ele>1061.0</ele><time>2026-05-03T07:45:19.978Z</time></trkpt><trkpt lat="45.88188607085645" lon="11.479753684219551"><ele>1059.5</ele><time>2026-05-03T07:45:20.978Z</time></trkpt><trkpt lat="45.88195081652318" lon="11.479595705342971"><ele>1058.0</ele><time>2026-05-03T07:45:21.978Z</time></trkpt><trkpt lat="45.88204760210589" lon="11.479469653123974"><ele>1056.5</ele><time>2026-05-03T07:45:22.978Z</time></trkpt><trkpt lat="45.88215815559811" lon="11.479374037256678"><ele>1055.0</ele><time>2026-05-03T07:45:23.978Z</time></trkpt><trkpt lat="45.882295604426275" lon="11.47931707346469"><ele>1055.0</ele><time>2026-05-03T07:45:24.978Z</time></trkpt><trkpt lat="45.88244318716137" lon="11.479254801243938"><ele>1055.0</ele><time>2026-05-03T07:45:25.978Z</time></trkpt><trkpt lat="45.882621840684216" lon="11.479174279808065"><ele>1055.0</ele><time>2026-05-03T07:45:26.978Z</time></trkpt><trkpt lat="45.8827962997864" lon="11.479058334175404"><ele>1059.75</ele><time>2026-05-03T07:45:27.978Z</time></trkpt><trkpt lat="45.88295775060844" lon="11.478992140097114"><ele>1064.5</ele><time>2026-05-03T07:45:28.978Z</time></trkpt><trkpt lat="45.88309769468309" lon="11.478936630922695"><ele>1069.25</ele><time>2026-05-03T07:45:29.978Z</time></trkpt><trkpt lat="45.8832102111212" lon="11.478870410352965"><ele>1074.0</ele><time>2026-05-03T07:45:30.978Z</time></trkpt><trkpt lat="45.883293759103786" lon="11.478774441022141"><ele>1070.5</ele><time>2026-05-03T07:45:31.978Z</time></trkpt><trkpt lat="45.88333801236356" lon="11.478638955514665"><ele>1067.0</ele><time>2026-05-03T07:45:32.978Z</time></trkpt><trkpt lat="45.8833505572609" lon="11.478459044443936"><ele>1063.5</ele><time>2026-05-03T07:45:33.978Z</time></trkpt><trkpt lat="45.88335432042904" lon="11.478252714451692"><ele>1060.0</ele><time>2026-05-03T07:45:34.978Z</time></trkpt><trkpt lat="45.883390071000946" lon="11.478045435340075"><ele>1061.25</ele><time>2026-05-03T07:45:35.978Z</time></trkpt><trkpt lat="45.88343271462972" lon="11.477856085255047"><ele>1062.5</ele><time>2026-05-03T07:45:36.978Z</time></trkpt><trkpt lat="45.88350251315274" lon="11.477671200986238"><ele>1063.75</ele><time>2026-05-03T07:45:37.978Z</time></trkpt><trkpt lat="45.88359675106845" lon="11.477489646221672"><ele>1065.0</ele><time>2026-05-03T07:45:38.978Z</time></trkpt><trkpt lat="45.88369742508531" lon="11.477296654346588"><ele>1065.0</ele><time>2026-05-03T07:45:39.978Z</time></trkpt><trkpt lat="45.88379611694438" lon="11.477103094861699"><ele>1065.0</ele><time>2026-05-03T07:45:40.977Z</time></trkpt><trkpt lat="45.88389120596901" lon="11.476897191933444"><ele>1065.0</ele><time>2026-05-03T07:45:41.977Z</time></trkpt><trkpt lat="45.88396272156094" lon="11.476659578619426"><ele>1064.0</ele><time>2026-05-03T07:45:42.977Z</time></trkpt><trkpt lat="45.88401824828352" lon="11.476406432659516"><ele>1063.0</ele><time>2026-05-03T07:45:43.977Z</time></trkpt><trkpt lat="45.88405157127884" lon="11.476139941049942"><ele>1062.0</ele><time>2026-05-03T07:45:44.977Z</time></trkpt><trkpt lat="45.884081150891866" lon="11.475861466053928"><ele>1061.0</ele><time>2026-05-03T07:45:45.977Z</time></trkpt><trkpt lat="45.884118340976656" lon="11.475583544196125"><ele>1060.0</ele><time>2026-05-03T07:45:46.977Z</time></trkpt><trkpt lat="45.884153396034314" lon="11.475311694730006"><ele>1059.0</ele><time>2026-05-03T07:45:47.977Z</time></trkpt><trkpt lat="45.88420324108531" lon="11.47504946338131"><ele>1058.3333333333333</ele><time>2026-05-03T07:45:48.977Z</time></trkpt><trkpt lat="45.88423711359511" lon="11.47478207310576"><ele>1057.6666666666665</ele><time>2026-05-03T07:45:49.977Z</time></trkpt><trkpt lat="45.884270817912075" lon="11.474526931808313"><ele>1057.0</ele><time>2026-05-03T07:45:50.977Z</time></trkpt><trkpt lat="45.88430284189069" lon="11.474294627164953"><ele>1060.6666666666665</ele><time>2026-05-03T07:45:51.977Z</time></trkpt><trkpt lat="45.88433467656185" lon="11.474075781125533"><ele>1064.3333333333333</ele><time>2026-05-03T07:45:52.977Z</time></trkpt><trkpt lat="45.8843765621422" lon="11.473856538391546"><ele>1068.0</ele><time>2026-05-03T07:45:53.977Z</time></trkpt><trkpt lat="45.88445235089012" lon="11.473639496801336"><ele>1068.0</ele><time>2026-05-03T07:45:54.977Z</time></trkpt><trkpt lat="45.88454921009079" lon="11.473414738953473"><ele>1068.0</ele><time>2026-05-03T07:45:55.977Z</time></trkpt><trkpt lat="45.88465376803185" lon="11.473178387499203"><ele>1068.0</ele><time>2026-05-03T07:45:56.977Z</time></trkpt><trkpt lat="45.88475399277147" lon="11.472951346614986"><ele>1066.5</ele><time>2026-05-03T07:45:57.977Z</time></trkpt><trkpt lat="45.884827698186406" lon="11.47274354899316"><ele>1065.0</ele><time>2026-05-03T07:45:58.977Z</time></trkpt><trkpt lat="45.88491002373081" lon="11.472581755207953"><ele>1063.5</ele><time>2026-05-03T07:45:59.977Z</time></trkpt><trkpt lat="45.885001184491486" lon="11.472446241671358"><ele>1062.0</ele><time>2026-05-03T07:46:00.977Z</time></trkpt><trkpt lat="45.88509222314053" lon="11.47234348747229"><ele>1063.75</ele><time>2026-05-03T07:46:01.977Z</time></trkpt><trkpt lat="45.88520547112458" lon="11.472326108809888"><ele>1065.5</ele><time>2026-05-03T07:46:02.977Z</time></trkpt><trkpt lat="45.88533012761157" lon="11.472309133074528"><ele>1067.25</ele><time>2026-05-03T07:46:03.977Z</time></trkpt><trkpt lat="45.885474425915895" lon="11.472284901402052"><ele>1069.0</ele><time>2026-05-03T07:46:04.977Z</time></trkpt><trkpt lat="45.88563392251538" lon="11.472252361521802"><ele>1069.0</ele><time>2026-05-03T07:46:05.977Z</time></trkpt><trkpt lat="45.88579641399196" lon="11.472220454975512"><ele>1069.0</ele><time>2026-05-03T07:46:06.977Z</time></trkpt><trkpt lat="45.88596714535428" lon="11.472185487103516"><ele>1069.0</ele><time>2026-05-03T07:46:07.977Z</time></trkpt><trkpt lat="45.88614570517349" lon="11.472149607362597"><ele>1065.0</ele><time>2026-05-03T07:46:08.977Z</time></trkpt><trkpt lat="45.8863292520394" lon="11.472123945802378"><ele>1061.0</ele><time>2026-05-03T07:46:09.977Z</time></trkpt><trkpt lat="45.88652170361266" lon="11.472098529622642"><ele>1057.0</ele><time>2026-05-03T07:46:10.977Z</time></trkpt><trkpt lat="45.886714598307464" lon="11.472009829352553"><ele>1062.6666666666665</ele><time>2026-05-03T07:46:11.977Z</time></trkpt><trkpt lat="45.886909784273" lon="11.471931161288683"><ele>1068.3333333333333</ele><time>2026-05-03T07:46:12.977Z</time></trkpt><trkpt lat="45.88711665888622" lon="11.471804056457513"><ele>1074.0</ele><time>2026-05-03T07:46:13.977Z</time></trkpt><trkpt lat="45.887306716885" lon="11.471722537705821"><ele>1074.0</ele><time>2026-05-03T07:46:14.977Z</time></trkpt><trkpt lat="45.88747856571619" lon="11.471635418760101"><ele>1074.0</ele><time>2026-05-03T07:46:15.977Z</time></trkpt><trkpt lat="45.887633466050225" lon="11.471582389718954"><ele>1074.0</ele><time>2026-05-03T07:46:16.977Z</time></trkpt><trkpt lat="45.88778902450806" lon="11.47157798293067"><ele>1076.0</ele><time>2026-05-03T07:46:17.977Z</time></trkpt><trkpt lat="45.88796787977492" lon="11.471561442260723"><ele>1078.0</ele><time>2026-05-03T07:46:18.977Z</time></trkpt><trkpt lat="45.88814668569021" lon="11.47147307974583"><ele>1080.0</ele><time>2026-05-03T07:46:19.977Z</time></trkpt><trkpt lat="45.88831134230454" lon="11.471324257982701"><ele>1079.0</ele><time>2026-05-03T07:46:20.977Z</time></trkpt><trkpt lat="45.8884847724986" lon="11.471182296445665"><ele>1078.0</ele><time>2026-05-03T07:46:21.977Z</time></trkpt><trkpt lat="45.88865757755701" lon="11.471072113835811"><ele>1077.0</ele><time>2026-05-03T07:46:22.977Z</time></trkpt><trkpt lat="45.88879330552059" lon="11.47095905114876"><ele>1077.0</ele><time>2026-05-03T07:46:23.977Z</time></trkpt><trkpt lat="45.888893884792836" lon="11.470809964864943"><ele>1077.0</ele><time>2026-05-03T07:46:24.978Z</time></trkpt><trkpt lat="45.88898276538935" lon="11.47058449660196"><ele>1077.0</ele><time>2026-05-03T07:46:25.978Z</time></trkpt><trkpt lat="45.889058517203516" lon="11.470326233971903"><ele>1080.6666666666667</ele><time>2026-05-03T07:46:26.978Z</time></trkpt><trkpt lat="45.889166210037295" lon="11.470095950455976"><ele>1084.3333333333335</ele><time>2026-05-03T07:46:27.978Z</time></trkpt><trkpt lat="45.889272375568424" lon="11.469896281125095"><ele>1088.0</ele><time>2026-05-03T07:46:28.978Z</time></trkpt><trkpt lat="45.88937416021097" lon="11.469713519483975"><ele>1082.2</ele><time>2026-05-03T07:46:29.978Z</time></trkpt><trkpt lat="45.889463015268504" lon="11.469559647363692"><ele>1076.4</ele><time>2026-05-03T07:46:30.978Z</time></trkpt><trkpt lat="45.88954813001195" lon="11.469427328791353"><ele>1070.6000000000001</ele><time>2026-05-03T07:46:31.979Z</time></trkpt><trkpt lat="45.88962254738352" lon="11.469338625799228"><ele>1064.8</ele><time>2026-05-03T07:46:32.979Z</time></trkpt><trkpt lat="45.88969516254082" lon="11.469316627861092"><ele>1059.0</ele><time>2026-05-03T07:46:33.978Z</time></trkpt><trkpt lat="45.889774525038185" lon="11.469335098581642"><ele>1059.0</ele><time>2026-05-03T07:46:34.979Z</time></trkpt><trkpt lat="45.88986731626153" lon="11.469395624185093"><ele>1059.0</ele><time>2026-05-03T07:46:35.979Z</time></trkpt><trkpt lat="45.889967015196845" lon="11.469473870927347"><ele>1059.0</ele><time>2026-05-03T07:46:36.978Z</time></trkpt><trkpt lat="45.89007047526418" lon="11.469593252053121"><ele>1059.0</ele><time>2026-05-03T07:46:37.978Z</time></trkpt><trkpt lat="45.89018501103102" lon="11.469757149169377"><ele>1064.3333333333333</ele><time>2026-05-03T07:46:38.978Z</time></trkpt><trkpt lat="45.8903102589245" lon="11.469874255379594"><ele>1069.6666666666665</ele><time>2026-05-03T07:46:39.978Z</time></trkpt><trkpt lat="45.890435885591884" lon="11.469970147447947"><ele>1075.0</ele><time>2026-05-03T07:46:40.978Z</time></trkpt><trkpt lat="45.89059686367239" lon="11.469974692922621"><ele>1075.0</ele><time>2026-05-03T07:46:41.978Z</time></trkpt><trkpt lat="45.890782471316165" lon="11.469939222232153"><ele>1075.0</ele><time>2026-05-03T07:46:42.978Z</time></trkpt><trkpt lat="45.89097195935964" lon="11.469988273675286"><ele>1075.0</ele><time>2026-05-03T07:46:43.978Z</time></trkpt><trkpt lat="45.89115373262229" lon="11.470015711784614"><ele>1073.0</ele><time>2026-05-03T07:46:44.978Z</time></trkpt><trkpt lat="45.89131827246567" lon="11.470043876435073"><ele>1071.0</ele><time>2026-05-03T07:46:45.978Z</time></trkpt><trkpt lat="45.89148984555888" lon="11.470088424058993"><ele>1069.0</ele><time>2026-05-03T07:46:46.978Z</time></trkpt><trkpt lat="45.89167563331073" lon="11.470103699016382"><ele>1068.6666666666665</ele><time>2026-05-03T07:46:47.978Z</time></trkpt><trkpt lat="45.89186645943028" lon="11.470065269265797"><ele>1068.3333333333333</ele><time>2026-05-03T07:46:48.978Z</time></trkpt><trkpt lat="45.8920555668011" lon="11.470023636893856"><ele>1068.0</ele><time>2026-05-03T07:46:49.978Z</time></trkpt><trkpt lat="45.8922764702332" lon="11.469995847929916"><ele>1068.0</ele><time>2026-05-03T07:46:50.978Z</time></trkpt><trkpt lat="45.892477037606184" lon="11.469953726956167"><ele>1068.0</ele><time>2026-05-03T07:46:51.978Z</time></trkpt><trkpt lat="45.89264826116898" lon="11.46989835703288"><ele>1068.0</ele><time>2026-05-03T07:46:52.978Z</time></trkpt><trkpt lat="45.89279766201311" lon="11.46983999216109"><ele>1068.5</ele><time>2026-05-03T07:46:53.978Z</time></trkpt><trkpt lat="45.89293023197991" lon="11.469816462248987"><ele>1069.0</ele><time>2026-05-03T07:46:54.978Z</time></trkpt><trkpt lat="45.89305555371209" lon="11.469868179260185"><ele>1069.5</ele><time>2026-05-03T07:46:55.978Z</time></trkpt><trkpt lat="45.893209500999006" lon="11.469938658167393"><ele>1070.0</ele><time>2026-05-03T07:46:56.978Z</time></trkpt><trkpt lat="45.89336415348581" lon="11.470004022110388"><ele>1074.3333333333335</ele><time>2026-05-03T07:46:57.978Z</time></trkpt><trkpt lat="45.89351644827854" lon="11.470014274139551"><ele>1078.6666666666667</ele><time>2026-05-03T07:46:58.978Z</time></trkpt><trkpt lat="45.89366737427074" lon="11.469912862995303"><ele>1083.0</ele><time>2026-05-03T07:46:59.978Z</time></trkpt><trkpt lat="45.8938065426154" lon="11.469835468507933"><ele>1083.0</ele><time>2026-05-03T07:47:00.978Z</time></trkpt><trkpt lat="45.8939572530849" lon="11.469750277529268"><ele>1083.0</ele><time>2026-05-03T07:47:01.978Z</time></trkpt><trkpt lat="45.89408618357857" lon="11.469602628203544"><ele>1083.0</ele><time>2026-05-03T07:47:02.978Z</time></trkpt><trkpt lat="45.894163281640346" lon="11.469400977377898"><ele>1079.75</ele><time>2026-05-03T07:47:03.978Z</time></trkpt><trkpt lat="45.89421478078008" lon="11.469247267630461"><ele>1076.5</ele><time>2026-05-03T07:47:04.978Z</time></trkpt><trkpt lat="45.89428243723506" lon="11.46915060048862"><ele>1073.25</ele><time>2026-05-03T07:47:05.978Z</time></trkpt><trkpt lat="45.89436924146741" lon="11.469080414640386"><ele>1070.0</ele><time>2026-05-03T07:47:06.978Z</time></trkpt><trkpt lat="45.89452691045095" lon="11.469003790102095"><ele>1070.0</ele><time>2026-05-03T07:47:07.977Z</time></trkpt><trkpt lat="45.89469082158868" lon="11.46892079014391"><ele>1070.0</ele><time>2026-05-03T07:47:08.977Z</time></trkpt><trkpt lat="45.89484007406998" lon="11.46884393552086"><ele>1070.0</ele><time>2026-05-03T07:47:09.977Z</time></trkpt><trkpt lat="45.894956701611534" lon="11.46873758975366"><ele>1065.0</ele><time>2026-05-03T07:47:10.977Z</time></trkpt><trkpt lat="45.895048623285405" lon="11.468658228707225"><ele>1060.0</ele><time>2026-05-03T07:47:11.977Z</time></trkpt><trkpt lat="45.89514269273119" lon="11.468594393882071"><ele>1055.0</ele><time>2026-05-03T07:47:12.977Z</time></trkpt><trkpt lat="45.89523867743334" lon="11.46858310239352"><ele>1050.0</ele><time>2026-05-03T07:47:13.977Z</time></trkpt><trkpt lat="45.89534524126727" lon="11.468646091304992"><ele>1045.0</ele><time>2026-05-03T07:47:14.977Z</time></trkpt><trkpt lat="45.89545049642737" lon="11.468737580093464"><ele>1045.0</ele><time>2026-05-03T07:47:15.977Z</time></trkpt><trkpt lat="45.8955552746207" lon="11.468805319877047"><ele>1045.0</ele><time>2026-05-03T07:47:16.977Z</time></trkpt><trkpt lat="45.89567065279789" lon="11.468809170847162"><ele>1045.0</ele><time>2026-05-03T07:47:17.977Z</time></trkpt><trkpt lat="45.895794989341816" lon="11.468704191648396"><ele>1045.0</ele><time>2026-05-03T07:47:18.977Z</time></trkpt><trkpt lat="45.89589788124915" lon="11.468539383716974"><ele>1050.6666666666665</ele><time>2026-05-03T07:47:19.977Z</time></trkpt><trkpt lat="45.89601127003705" lon="11.468419181046077"><ele>1056.3333333333333</ele><time>2026-05-03T07:47:20.977Z</time></trkpt><trkpt lat="45.89615886997869" lon="11.468356966374275"><ele>1062.0</ele><time>2026-05-03T07:47:21.977Z</time></trkpt><trkpt lat="45.89633491407617" lon="11.468261118147781"><ele>1062.0</ele><time>2026-05-03T07:47:22.977Z</time></trkpt><trkpt lat="45.89651159344205" lon="11.468160131751208"><ele>1062.0</ele><time>2026-05-03T07:47:23.977Z</time></trkpt><trkpt lat="45.89666051351817" lon="11.468107622356895"><ele>1062.0</ele><time>2026-05-03T07:47:24.977Z</time></trkpt><trkpt lat="45.89680689245179" lon="11.468071350667069"><ele>1064.5</ele><time>2026-05-03T07:47:25.977Z</time></trkpt><trkpt lat="45.89693643162842" lon="11.468044377825743"><ele>1067.0</ele><time>2026-05-03T07:47:26.977Z</time></trkpt><trkpt lat="45.89704906470035" lon="11.468055929263896"><ele>1069.5</ele><time>2026-05-03T07:47:27.977Z</time></trkpt><trkpt lat="45.8971632902098" lon="11.468120943634764"><ele>1072.0</ele><time>2026-05-03T07:47:28.977Z</time></trkpt><trkpt lat="45.89728812330785" lon="11.46814966924728"><ele>1072.0</ele><time>2026-05-03T07:47:29.977Z</time></trkpt><trkpt lat="45.89743545447565" lon="11.468028682186686"><ele>1072.0</ele><time>2026-05-03T07:47:30.977Z</time></trkpt><trkpt lat="45.897510008932166" lon="11.467843260771144"><ele>1072.0</ele><time>2026-05-03T07:47:31.977Z</time></trkpt><trkpt lat="45.89757693686248" lon="11.46765391738759"><ele>1072.75</ele><time>2026-05-03T07:47:32.977Z</time></trkpt><trkpt lat="45.897595659362516" lon="11.46744171621703"><ele>1073.5</ele><time>2026-05-03T07:47:33.977Z</time></trkpt><trkpt lat="45.897592218785604" lon="11.467249682360086"><ele>1074.25</ele><time>2026-05-03T07:47:34.977Z</time></trkpt><trkpt lat="45.89758861425438" lon="11.467076893692443"><ele>1075.0</ele><time>2026-05-03T07:47:35.977Z</time></trkpt><trkpt lat="45.89763227372091" lon="11.466927048177002"><ele>1075.0</ele><time>2026-05-03T07:47:36.977Z</time></trkpt><trkpt lat="45.89768773665275" lon="11.466711058116987"><ele>1075.0</ele><time>2026-05-03T07:47:37.977Z</time></trkpt><trkpt lat="45.897777009872236" lon="11.466534328588214"><ele>1075.0</ele><time>2026-05-03T07:47:38.977Z</time></trkpt><trkpt lat="45.89785772947658" lon="11.466392568426183"><ele>1075.0</ele><time>2026-05-03T07:47:39.977Z</time></trkpt><trkpt lat="45.897970949145346" lon="11.466260328423115"><ele>1066.6666666666665</ele><time>2026-05-03T07:47:40.977Z</time></trkpt><trkpt lat="45.898104470709654" lon="11.466134833985752"><ele>1058.3333333333333</ele><time>2026-05-03T07:47:41.977Z</time></trkpt><trkpt lat="45.89826430824879" lon="11.466036418477396"><ele>1050.0</ele><time>2026-05-03T07:47:42.977Z</time></trkpt><trkpt lat="45.89846933350397" lon="11.465923217023672"><ele>1050.0</ele><time>2026-05-03T07:47:43.977Z</time></trkpt><trkpt lat="45.89864287884684" lon="11.465842706497634"><ele>1050.0</ele><time>2026-05-03T07:47:44.977Z</time></trkpt><trkpt lat="45.89881193696714" lon="11.465773867886472"><ele>1050.0</ele><time>2026-05-03T07:47:45.977Z</time></trkpt><trkpt lat="45.898984122472825" lon="11.465733952894286"><ele>1050.0</ele><time>2026-05-03T07:47:46.977Z</time></trkpt><trkpt lat="45.89917335366186" lon="11.465686980913043"><ele>1050.0</ele><time>2026-05-03T07:47:47.977Z</time></trkpt><trkpt lat="45.8993482026869" lon="11.465613960576935"><ele>1050.0</ele><time>2026-05-03T07:47:48.977Z</time></trkpt><trkpt lat="45.899512884061416" lon="11.46554303269678"><ele>1055.0</ele><time>2026-05-03T07:47:49.977Z</time></trkpt><trkpt lat="45.89965838729293" lon="11.465478772961562"><ele>1060.0</ele><time>2026-05-03T07:47:50.977Z</time></trkpt><trkpt lat="45.89980607860706" lon="11.465416223269367"><ele>1065.0</ele><time>2026-05-03T07:47:51.977Z</time></trkpt><trkpt lat="45.89995916659895" lon="11.465352400617318"><ele>1056.3333333333333</ele><time>2026-05-03T07:47:52.977Z</time></trkpt><trkpt lat="45.90011663301425" lon="11.465286232273984"><ele>1047.6666666666665</ele><time>2026-05-03T07:47:53.977Z</time></trkpt><trkpt lat="45.90028076893607" lon="11.46521490798186"><ele>1039.0</ele><time>2026-05-03T07:47:54.977Z</time></trkpt><trkpt lat="45.900435892979715" lon="11.465147499746616"><ele>1039.0</ele><time>2026-05-03T07:47:55.977Z</time></trkpt><trkpt lat="45.900582182669915" lon="11.465096008988242"><ele>1039.0</ele><time>2026-05-03T07:47:56.977Z</time></trkpt><trkpt lat="45.900715563911824" lon="11.465074444775652"><ele>1039.0</ele><time>2026-05-03T07:47:57.977Z</time></trkpt><trkpt lat="45.90082903856269" lon="11.465066370443514"><ele>1039.0</ele><time>2026-05-03T07:47:58.977Z</time></trkpt><trkpt lat="45.900967273413585" lon="11.465020402153861"><ele>1041.3333333333333</ele><time>2026-05-03T07:47:59.977Z</time></trkpt><trkpt lat="45.90108480877809" lon="11.464862630195388"><ele>1043.6666666666667</ele><time>2026-05-03T07:48:00.977Z</time></trkpt><trkpt lat="45.90121588872886" lon="11.464698481870764"><ele>1046.0</ele><time>2026-05-03T07:48:01.977Z</time></trkpt><trkpt lat="45.90134996379793" lon="11.464526764579823"><ele>1046.0</ele><time>2026-05-03T07:48:02.977Z</time></trkpt><trkpt lat="45.90145984962057" lon="11.464319787530524"><ele>1046.0</ele><time>2026-05-03T07:48:03.977Z</time></trkpt><trkpt lat="45.901581488447974" lon="11.464105202464363"><ele>1046.0</ele><time>2026-05-03T07:48:04.977Z</time></trkpt><trkpt lat="45.90167402689541" lon="11.463871482025338"><ele>1051.0</ele><time>2026-05-03T07:48:05.977Z</time></trkpt><trkpt lat="45.901753748418386" lon="11.463652253602925"><ele>1056.0</ele><time>2026-05-03T07:48:06.977Z</time></trkpt><trkpt lat="45.90186504162079" lon="11.463448098263914"><ele>1061.0</ele><time>2026-05-03T07:48:07.977Z</time></trkpt><trkpt lat="45.90198952657647" lon="11.463249299433162"><ele>1061.0</ele><time>2026-05-03T07:48:08.977Z</time></trkpt><trkpt lat="45.90213432489509" lon="11.463067105490815"><ele>1061.0</ele><time>2026-05-03T07:48:09.977Z</time></trkpt><trkpt lat="45.90227004151531" lon="11.462895544094494"><ele>1061.0</ele><time>2026-05-03T07:48:10.977Z</time></trkpt><trkpt lat="45.90239052063301" lon="11.462709359270068"><ele>1062.3333333333335</ele><time>2026-05-03T07:48:11.977Z</time></trkpt><trkpt lat="45.90250402136763" lon="11.462534442583225"><ele>1063.6666666666667</ele><time>2026-05-03T07:48:12.977Z</time></trkpt><trkpt lat="45.902616612461124" lon="11.462377177824557"><ele>1065.0</ele><time>2026-05-03T07:48:13.977Z</time></trkpt><trkpt lat="45.90271487306478" lon="11.462212817691338"><ele>1055.0</ele><time>2026-05-03T07:48:14.977Z</time></trkpt><trkpt lat="45.902815902408385" lon="11.4620623821347"><ele>1045.0</ele><time>2026-05-03T07:48:15.977Z</time></trkpt><trkpt lat="45.90291241443819" lon="11.461922310282768"><ele>1035.0</ele><time>2026-05-03T07:48:16.977Z</time></trkpt><trkpt lat="45.90301147601244" lon="11.461782041039353"><ele>1025.0</ele><time>2026-05-03T07:48:17.977Z</time></trkpt><trkpt lat="45.903130615757306" lon="11.461662158742561"><ele>1025.0</ele><time>2026-05-03T07:48:18.977Z</time></trkpt><trkpt lat="45.9032382507293" lon="11.461524981630069"><ele>1025.0</ele><time>2026-05-03T07:48:19.977Z</time></trkpt><trkpt lat="45.90336795855233" lon="11.461432467861915"><ele>1025.0</ele><time>2026-05-03T07:48:20.977Z</time></trkpt><trkpt lat="45.903504499976606" lon="11.461351663275458"><ele>1025.0</ele><time>2026-05-03T07:48:21.977Z</time></trkpt><trkpt lat="45.90364493019555" lon="11.461283589869815"><ele>1024.25</ele><time>2026-05-03T07:48:22.977Z</time></trkpt><trkpt lat="45.90377657814105" lon="11.46122095298314"><ele>1023.5</ele><time>2026-05-03T07:48:23.977Z</time></trkpt><trkpt lat="45.90390331026956" lon="11.461177440516666"><ele>1022.75</ele><time>2026-05-03T07:48:24.977Z</time></trkpt><trkpt lat="45.904015505144436" lon="11.461104855068308"><ele>1022.0</ele><time>2026-05-03T07:48:25.977Z</time></trkpt><trkpt lat="45.90411394047898" lon="11.460996358532611"><ele>1022.0</ele><time>2026-05-03T07:48:26.977Z</time></trkpt><trkpt lat="45.904204244655574" lon="11.460880447015619"><ele>1022.0</ele><time>2026-05-03T07:48:27.977Z</time></trkpt><trkpt lat="45.904287039563535" lon="11.46075908325108"><ele>1022.0</ele><time>2026-05-03T07:48:28.977Z</time></trkpt><trkpt lat="45.90435563358172" lon="11.460611808360191"><ele>1022.0</ele><time>2026-05-03T07:48:29.977Z</time></trkpt><trkpt lat="45.90441288360051" lon="11.460467271966865"><ele>1019.6</ele><time>2026-05-03T07:48:30.978Z</time></trkpt><trkpt lat="45.904478631557424" lon="11.460330348481534"><ele>1017.2</ele><time>2026-05-03T07:48:31.978Z</time></trkpt><trkpt lat="45.904569664775856" lon="11.460245109954005"><ele>1014.8</ele><time>2026-05-03T07:48:32.978Z</time></trkpt><trkpt lat="45.90466582240068" lon="11.460173845986082"><ele>1012.4</ele><time>2026-05-03T07:48:33.978Z</time></trkpt><trkpt lat="45.90477263991029" lon="11.460128915881493"><ele>1010.0</ele><time>2026-05-03T07:48:34.978Z</time></trkpt><trkpt lat="45.90488430424243" lon="11.460090351213745"><ele>1010.0</ele><time>2026-05-03T07:48:35.978Z</time></trkpt><trkpt lat="45.90500552500446" lon="11.460054679988247"><ele>1010.0</ele><time>2026-05-03T07:48:36.977Z</time></trkpt><trkpt lat="45.90513054543994" lon="11.459998387721104"><ele>1010.0</ele><time>2026-05-03T07:48:37.978Z</time></trkpt><trkpt lat="45.905265242905585" lon="11.459974921148076"><ele>1010.0</ele><time>2026-05-03T07:48:38.978Z</time></trkpt><trkpt lat="45.905392308302616" lon="11.459928324905405"><ele>1008.0</ele><time>2026-05-03T07:48:39.978Z</time></trkpt><trkpt lat="45.90551007579472" lon="11.459874209568774"><ele>1006.0</ele><time>2026-05-03T07:48:40.978Z</time></trkpt><trkpt lat="45.90562200285898" lon="11.459791980041402"><ele>1004.0</ele><time>2026-05-03T07:48:41.978Z</time></trkpt><trkpt lat="45.905726359996095" lon="11.459676599233816"><ele>1002.0</ele><time>2026-05-03T07:48:42.977Z</time></trkpt><trkpt lat="45.905829380513374" lon="11.45955104925013"><ele>1007.5</ele><time>2026-05-03T07:48:43.978Z</time></trkpt><trkpt lat="45.90591627344663" lon="11.459419667264083"><ele>1013.0</ele><time>2026-05-03T07:48:44.978Z</time></trkpt><trkpt lat="45.90600636249741" lon="11.45930911292845"><ele>1018.5</ele><time>2026-05-03T07:48:45.978Z</time></trkpt><trkpt lat="45.90610481268969" lon="11.459211888900432"><ele>1024.0</ele><time>2026-05-03T07:48:46.978Z</time></trkpt><trkpt lat="45.90620785290704" lon="11.4591346657663"><ele>1024.0</ele><time>2026-05-03T07:48:47.978Z</time></trkpt><trkpt lat="45.906302086828525" lon="11.459050370154875"><ele>1024.0</ele><time>2026-05-03T07:48:48.978Z</time></trkpt><trkpt lat="45.90640774269492" lon="11.45899820675604"><ele>1024.0</ele><time>2026-05-03T07:48:49.978Z</time></trkpt><trkpt lat="45.90651384940348" lon="11.458952204438953"><ele>1024.0</ele><time>2026-05-03T07:48:50.978Z</time></trkpt><trkpt lat="45.90662634221804" lon="11.458921738053988"><ele>1024.0</ele><time>2026-05-03T07:48:51.977Z</time></trkpt><trkpt lat="45.90675661382144" lon="11.45892178689964"><ele>1023.75</ele><time>2026-05-03T07:48:52.977Z</time></trkpt><trkpt lat="45.90689036794842" lon="11.458919637304374"><ele>1023.5</ele><time>2026-05-03T07:48:53.977Z</time></trkpt><trkpt lat="45.9070169530676" lon="11.458900321161796"><ele>1023.25</ele><time>2026-05-03T07:48:54.977Z</time></trkpt><trkpt lat="45.90714543156494" lon="11.458922589251081"><ele>1023.0</ele><time>2026-05-03T07:48:55.977Z</time></trkpt><trkpt lat="45.907261617518024" lon="11.458918954664867"><ele>1023.0</ele><time>2026-05-03T07:48:56.977Z</time></trkpt><trkpt lat="45.90737404258957" lon="11.458903574265351"><ele>1023.0</ele><time>2026-05-03T07:48:57.977Z</time></trkpt><trkpt lat="45.907487322726105" lon="11.458895772508853"><ele>1023.0</ele><time>2026-05-03T07:48:58.977Z</time></trkpt><trkpt lat="45.90760638007405" lon="11.458896465178345"><ele>1023.0</ele><time>2026-05-03T07:48:59.977Z</time></trkpt><trkpt lat="45.90772215097788" lon="11.458913952584991"><ele>1022.25</ele><time>2026-05-03T07:49:00.977Z</time></trkpt><trkpt lat="45.90783192077051" lon="11.458963091110894"><ele>1021.5</ele><time>2026-05-03T07:49:01.977Z</time></trkpt><trkpt lat="45.90793954424169" lon="11.458986053154511"><ele>1020.75</ele><time>2026-05-03T07:49:02.977Z</time></trkpt><trkpt lat="45.90805987728277" lon="11.458963802426208"><ele>1020.0</ele><time>2026-05-03T07:49:03.977Z</time></trkpt><trkpt lat="45.908188007625654" lon="11.45891047379968"><ele>1020.0</ele><time>2026-05-03T07:49:04.977Z</time></trkpt><trkpt lat="45.90832842209353" lon="11.458801610549806"><ele>1020.0</ele><time>2026-05-03T07:49:05.977Z</time></trkpt><trkpt lat="45.90849428886322" lon="11.458653854526945"><ele>1020.0</ele><time>2026-05-03T07:49:06.977Z</time></trkpt><trkpt lat="45.90868363282053" lon="11.458486251176742"><ele>1015.5</ele><time>2026-05-03T07:49:07.977Z</time></trkpt><trkpt lat="45.90888322568403" lon="11.458294159087833"><ele>1011.0</ele><time>2026-05-03T07:49:08.977Z</time></trkpt><trkpt lat="45.90905825704464" lon="11.458107262165358"><ele>1009.3333333333333</ele><time>2026-05-03T07:49:09.977Z</time></trkpt><trkpt lat="45.90921084905432" lon="11.457916668880785"><ele>1007.6666666666666</ele><time>2026-05-03T07:49:10.977Z</time></trkpt><trkpt lat="45.9093449491594" lon="11.457745433616973"><ele>1006.0</ele><time>2026-05-03T07:49:11.977Z</time></trkpt><trkpt lat="45.90945829050957" lon="11.457595335395999"><ele>1006.0</ele><time>2026-05-03T07:49:12.977Z</time></trkpt><trkpt lat="45.90955509008379" lon="11.457428475213673"><ele>1006.0</ele><time>2026-05-03T07:49:13.977Z</time></trkpt><trkpt lat="45.90964406489427" lon="11.457269084163114"><ele>1006.0</ele><time>2026-05-03T07:49:14.977Z</time></trkpt><trkpt lat="45.90975091987664" lon="11.457140829541459"><ele>1006.0</ele><time>2026-05-03T07:49:15.977Z</time></trkpt><trkpt lat="45.90988448346092" lon="11.457076093074146"><ele>1004.6666666666666</ele><time>2026-05-03T07:49:16.977Z</time></trkpt><trkpt lat="45.91003935863082" lon="11.457014987649323"><ele>1003.3333333333333</ele><time>2026-05-03T07:49:17.977Z</time></trkpt><trkpt lat="45.910201069542325" lon="11.45696317638393"><ele>1002.0</ele><time>2026-05-03T07:49:18.977Z</time></trkpt><trkpt lat="45.91033905179558" lon="11.456927424645356"><ele>1002.0</ele><time>2026-05-03T07:49:19.977Z</time></trkpt><trkpt lat="45.91046355887418" lon="11.456918439511428"><ele>1002.0</ele><time>2026-05-03T07:49:20.977Z</time></trkpt><trkpt lat="45.91057982884235" lon="11.456962139680002"><ele>1002.0</ele><time>2026-05-03T07:49:21.977Z</time></trkpt><trkpt lat="45.91069322800767" lon="11.457045550428138"><ele>1002.0</ele><time>2026-05-03T07:49:22.977Z</time></trkpt><trkpt lat="45.91081076529949" lon="11.45717937704879"><ele>1001.6666666666667</ele><time>2026-05-03T07:49:23.977Z</time></trkpt><trkpt lat="45.91094900761742" lon="11.457333176629398"><ele>1001.3333333333334</ele><time>2026-05-03T07:49:24.977Z</time></trkpt><trkpt lat="45.91109721451403" lon="11.457498062132299"><ele>1001.0</ele><time>2026-05-03T07:49:25.977Z</time></trkpt><trkpt lat="45.91125014787591" lon="11.457639363131008"><ele>1001.0</ele><time>2026-05-03T07:49:26.977Z</time></trkpt><trkpt lat="45.9113727909988" lon="11.457790231711718"><ele>1001.0</ele><time>2026-05-03T07:49:27.977Z</time></trkpt><trkpt lat="45.91147358066975" lon="11.457891690952541"><ele>1001.0</ele><time>2026-05-03T07:49:28.977Z</time></trkpt><trkpt lat="45.911573725575174" lon="11.457952751493819"><ele>1001.0</ele><time>2026-05-03T07:49:29.977Z</time></trkpt><trkpt lat="45.911694504917186" lon="11.457991539502034"><ele>1003.6666666666667</ele><time>2026-05-03T07:49:30.977Z</time></trkpt><trkpt lat="45.911847062362654" lon="11.457954532324123"><ele>1006.3333333333333</ele><time>2026-05-03T07:49:31.977Z</time></trkpt><trkpt lat="45.912015180350544" lon="11.457854934452204"><ele>1009.0</ele><time>2026-05-03T07:49:32.977Z</time></trkpt><trkpt lat="45.912205891099696" lon="11.457733462951294"><ele>1009.0</ele><time>2026-05-03T07:49:33.977Z</time></trkpt><trkpt lat="45.912399080461746" lon="11.457612507510396"><ele>1009.0</ele><time>2026-05-03T07:49:34.977Z</time></trkpt><trkpt lat="45.91259156169232" lon="11.45749245455503"><ele>1009.0</ele><time>2026-05-03T07:49:35.977Z</time></trkpt><trkpt lat="45.91279805058245" lon="11.45736590766276"><ele>1011.6666666666666</ele><time>2026-05-03T07:49:36.977Z</time></trkpt><trkpt lat="45.912978882568794" lon="11.45724968428348"><ele>1014.3333333333333</ele><time>2026-05-03T07:49:37.977Z</time></trkpt><trkpt lat="45.91314657523019" lon="11.45714076913073"><ele>1017.0</ele><time>2026-05-03T07:49:38.977Z</time></trkpt><trkpt lat="45.91332239717859" lon="11.457026574061556"><ele>1020.0</ele><time>2026-05-03T07:49:39.977Z</time></trkpt><trkpt lat="45.913485209611174" lon="11.456920859050301"><ele>1023.0</ele><time>2026-05-03T07:49:40.977Z</time></trkpt><trkpt lat="45.9135793785887" lon="11.456707789598985"><ele>1026.0</ele><time>2026-05-03T07:49:41.977Z</time></trkpt><trkpt lat="45.913728966723994" lon="11.456646930337417"><ele>1026.0</ele><time>2026-05-03T07:49:42.977Z</time></trkpt><trkpt lat="45.91390256556029" lon="11.456621777120606"><ele>1026.0</ele><time>2026-05-03T07:49:43.977Z</time></trkpt><trkpt lat="45.91407884042123" lon="11.456588697205094"><ele>1026.0</ele><time>2026-05-03T07:49:44.977Z</time></trkpt><trkpt lat="45.91424718797726" lon="11.456479359369482"><ele>1026.3333333333333</ele><time>2026-05-03T07:49:45.977Z</time></trkpt><trkpt lat="45.914411106931574" lon="11.456308671145937"><ele>1026.6666666666665</ele><time>2026-05-03T07:49:46.977Z</time></trkpt><trkpt lat="45.9145558840112" lon="11.456100413307592"><ele>1027.0</ele><time>2026-05-03T07:49:47.977Z</time></trkpt><trkpt lat="45.91468862405941" lon="11.455908492684351"><ele>1027.0</ele><time>2026-05-03T07:49:48.977Z</time></trkpt><trkpt lat="45.914852300262524" lon="11.455768538430874"><ele>1027.0</ele><time>2026-05-03T07:49:49.977Z</time></trkpt><trkpt lat="45.91505012831891" lon="11.455656761973732"><ele>1027.0</ele><time>2026-05-03T07:49:50.977Z</time></trkpt><trkpt lat="45.91528420859618" lon="11.455574059573843"><ele>1027.0</ele><time>2026-05-03T07:49:51.977Z</time></trkpt><trkpt lat="45.915505314736755" lon="11.455514802152956"><ele>1027.0</ele><time>2026-05-03T07:49:52.977Z</time></trkpt><trkpt lat="45.91571494393112" lon="11.455439094484085"><ele>1027.0</ele><time>2026-05-03T07:49:53.977Z</time></trkpt><trkpt lat="45.91591204381982" lon="11.455385917509313"><ele>1027.3333333333333</ele><time>2026-05-03T07:49:54.977Z</time></trkpt><trkpt lat="45.91609896556961" lon="11.4553859899888"><ele>1027.6666666666667</ele><time>2026-05-03T07:49:55.977Z</time></trkpt><trkpt lat="45.91626891545828" lon="11.455422215142548"><ele>1028.0</ele><time>2026-05-03T07:49:56.977Z</time></trkpt><trkpt lat="45.916426103434794" lon="11.455449506295118"><ele>1028.0</ele><time>2026-05-03T07:49:57.977Z</time></trkpt><trkpt lat="45.9165854926009" lon="11.455417308654484"><ele>1028.0</ele><time>2026-05-03T07:49:58.977Z</time></trkpt><trkpt lat="45.91673960234056" lon="11.455309484129446"><ele>1028.0</ele><time>2026-05-03T07:49:59.977Z</time></trkpt><trkpt lat="45.91686933483713" lon="11.45513848643193"><ele>1031.6666666666667</ele><time>2026-05-03T07:50:00.977Z</time></trkpt><trkpt lat="45.91699180776986" lon="11.454920056324083"><ele>1035.3333333333333</ele><time>2026-05-03T07:50:01.977Z</time></trkpt><trkpt lat="45.91711647401939" lon="11.454712031537131"><ele>1039.0</ele><time>2026-05-03T07:50:02.977Z</time></trkpt><trkpt lat="45.917231416127414" lon="11.454532894779376"><ele>1039.0</ele><time>2026-05-03T07:50:03.977Z</time></trkpt><trkpt lat="45.917347331790985" lon="11.454380600058503"><ele>1039.0</ele><time>2026-05-03T07:50:04.977Z</time></trkpt><trkpt lat="45.91749216639117" lon="11.454271567998514"><ele>1039.0</ele><time>2026-05-03T07:50:05.977Z</time></trkpt><trkpt lat="45.917653649028935" lon="11.454179894248263"><ele>1042.3333333333333</ele><time>2026-05-03T07:50:06.977Z</time></trkpt><trkpt lat="45.917820517932675" lon="11.454083169542564"><ele>1045.6666666666667</ele><time>2026-05-03T07:50:07.977Z</time></trkpt><trkpt lat="45.91800061628285" lon="11.453972377143412"><ele>1049.0</ele><time>2026-05-03T07:50:08.977Z</time></trkpt><trkpt lat="45.918179898111696" lon="11.453854927529747"><ele>1048.3333333333335</ele><time>2026-05-03T07:50:09.977Z</time></trkpt><trkpt lat="45.918359511282205" lon="11.45374462897418"><ele>1047.6666666666667</ele><time>2026-05-03T07:50:10.977Z</time></trkpt><trkpt lat="45.918531812092326" lon="11.453638043735872"><ele>1047.0</ele><time>2026-05-03T07:50:11.977Z</time></trkpt><trkpt lat="45.9187036114291" lon="11.45352644717425"><ele>1047.0</ele><time>2026-05-03T07:50:12.977Z</time></trkpt><trkpt lat="45.918883500929994" lon="11.453424643459982"><ele>1047.0</ele><time>2026-05-03T07:50:13.977Z</time></trkpt><trkpt lat="45.91905785069233" lon="11.453364731214991"><ele>1047.0</ele><time>2026-05-03T07:50:14.976Z</time></trkpt><trkpt lat="45.91924435784099" lon="11.453355848035661"><ele>1048.3333333333333</ele><time>2026-05-03T07:50:15.976Z</time></trkpt><trkpt lat="45.91947161969598" lon="11.453354814634404"><ele>1049.6666666666665</ele><time>2026-05-03T07:50:16.976Z</time></trkpt><trkpt lat="45.91968966216458" lon="11.453337169438797"><ele>1051.0</ele><time>2026-05-03T07:50:17.976Z</time></trkpt><trkpt lat="45.91990433282875" lon="11.453307271761838"><ele>1054.0</ele><time>2026-05-03T07:50:18.976Z</time></trkpt><trkpt lat="45.920120784788786" lon="11.453289114186713"><ele>1057.0</ele><time>2026-05-03T07:50:19.976Z</time></trkpt><trkpt lat="45.920334593150365" lon="11.453264981560215"><ele>1060.0</ele><time>2026-05-03T07:50:20.976Z</time></trkpt><trkpt lat="45.92055200524695" lon="11.453239715123647"><ele>1060.0</ele><time>2026-05-03T07:50:21.976Z</time></trkpt><trkpt lat="45.92075562392647" lon="11.453213577343366"><ele>1060.0</ele><time>2026-05-03T07:50:22.976Z</time></trkpt><trkpt lat="45.920939651546924" lon="11.453216095766527"><ele>1060.0</ele><time>2026-05-03T07:50:23.976Z</time></trkpt><trkpt lat="45.921124092887744" lon="11.45325816246585"><ele>1062.3333333333333</ele><time>2026-05-03T07:50:24.976Z</time></trkpt><trkpt lat="45.921321115099104" lon="11.453296301287281"><ele>1064.6666666666667</ele><time>2026-05-03T07:50:25.976Z</time></trkpt><trkpt lat="45.92153795746546" lon="11.453272132845541"><ele>1067.0</ele><time>2026-05-03T07:50:26.976Z</time></trkpt><trkpt lat="45.921769304863545" lon="11.453185580450901"><ele>1073.5</ele><time>2026-05-03T07:50:27.976Z</time></trkpt><trkpt lat="45.92200784387125" lon="11.453073426359047"><ele>1080.0</ele><time>2026-05-03T07:50:28.976Z</time></trkpt><trkpt lat="45.922219941506455" lon="11.452970268906853"><ele>1078.6666666666667</ele><time>2026-05-03T07:50:29.976Z</time></trkpt><trkpt lat="45.922428138803475" lon="11.452915012826129"><ele>1077.3333333333335</ele><time>2026-05-03T07:50:30.976Z</time></trkpt><trkpt lat="45.922542123970544" lon="11.452921577872933"><ele>1076.0</ele><time>2026-05-03T07:50:31.976Z</time></trkpt><trkpt lat="45.92270391879287" lon="11.45290457499219"><ele>1076.0</ele><time>2026-05-03T07:50:32.976Z</time></trkpt><trkpt lat="45.92287662135644" lon="11.452843127606124"><ele>1076.0</ele><time>2026-05-03T07:50:33.976Z</time></trkpt><trkpt lat="45.923046036890725" lon="11.452711074154685"><ele>1076.0</ele><time>2026-05-03T07:50:34.976Z</time></trkpt><trkpt lat="45.92320144554989" lon="11.452553878621783"><ele>1076.0</ele><time>2026-05-03T07:50:35.976Z</time></trkpt><trkpt lat="45.92336481415903" lon="11.452407953907302"><ele>1076.0</ele><time>2026-05-03T07:50:36.978Z</time></trkpt><trkpt lat="45.92354063728776" lon="11.452262884808059"><ele>1076.0</ele><time>2026-05-03T07:50:37.977Z</time></trkpt><trkpt lat="45.92371751142582" lon="11.452126802940219"><ele>1077.0</ele><time>2026-05-03T07:50:38.977Z</time></trkpt><trkpt lat="45.92390543162701" lon="11.452012172410296"><ele>1078.0</ele><time>2026-05-03T07:50:39.977Z</time></trkpt><trkpt lat="45.924109728674914" lon="11.451933631775878"><ele>1079.0</ele><time>2026-05-03T07:50:40.978Z</time></trkpt><trkpt lat="45.92433134054603" lon="11.451867654743623"><ele>1081.0</ele><time>2026-05-03T07:50:41.978Z</time></trkpt><trkpt lat="45.92455723633946" lon="11.451785073198087"><ele>1083.0</ele><time>2026-05-03T07:50:42.978Z</time></trkpt><trkpt lat="45.92478034574004" lon="11.451682562150578"><ele>1083.0</ele><time>2026-05-03T07:50:43.978Z</time></trkpt><trkpt lat="45.924990641479326" lon="11.451552030733355"><ele>1083.0</ele><time>2026-05-03T07:50:44.978Z</time></trkpt><trkpt lat="45.925199760503105" lon="11.451394398043414"><ele>1084.5</ele><time>2026-05-03T07:50:45.978Z</time></trkpt><trkpt lat="45.925409115412045" lon="11.45120525370925"><ele>1086.0</ele><time>2026-05-03T07:50:46.978Z</time></trkpt><trkpt lat="45.92560405137291" lon="11.451025553428781"><ele>1086.0</ele><time>2026-05-03T07:50:47.978Z</time></trkpt><trkpt lat="45.925790209075814" lon="11.45083725455229"><ele>1086.0</ele><time>2026-05-03T07:50:48.977Z</time></trkpt><trkpt lat="45.92597478518921" lon="11.45068034389111"><ele>1086.0</ele><time>2026-05-03T07:50:49.977Z</time></trkpt><trkpt lat="45.92613948142139" lon="11.450563603035713"><ele>1086.3333333333333</ele><time>2026-05-03T07:50:50.977Z</time></trkpt><trkpt lat="45.926324298644396" lon="11.450464161734807"><ele>1086.6666666666665</ele><time>2026-05-03T07:50:51.977Z</time></trkpt><trkpt lat="45.92652141263998" lon="11.450390155471393"><ele>1087.0</ele><time>2026-05-03T07:50:52.977Z</time></trkpt><trkpt lat="45.92673298804892" lon="11.45034018146799"><ele>1088.3333333333333</ele><time>2026-05-03T07:50:53.977Z</time></trkpt><trkpt lat="45.92695154876391" lon="11.45032218208405"><ele>1089.6666666666667</ele><time>2026-05-03T07:50:54.977Z</time></trkpt><trkpt lat="45.92716670604128" lon="11.450327614864898"><ele>1091.0</ele><time>2026-05-03T07:50:55.977Z</time></trkpt><trkpt lat="45.92736897970742" lon="11.450323029886642"><ele>1095.6666666666667</ele><time>2026-05-03T07:50:56.977Z</time></trkpt><trkpt lat="45.92756883401529" lon="11.450295827594955"><ele>1100.3333333333333</ele><time>2026-05-03T07:50:57.977Z</time></trkpt><trkpt lat="45.927768513606544" lon="11.45023041426186"><ele>1105.0</ele><time>2026-05-03T07:50:58.977Z</time></trkpt><trkpt lat="45.92795627782351" lon="11.450101060323341"><ele>1105.0</ele><time>2026-05-03T07:50:59.977Z</time></trkpt><trkpt lat="45.928127525388454" lon="11.449916340202115"><ele>1105.0</ele><time>2026-05-03T07:51:00.977Z</time></trkpt><trkpt lat="45.92826625709638" lon="11.449684411942682"><ele>1105.0</ele><time>2026-05-03T07:51:01.977Z</time></trkpt><trkpt lat="45.92837721195416" lon="11.449437985444348"><ele>1108.3333333333333</ele><time>2026-05-03T07:51:02.977Z</time></trkpt><trkpt lat="45.928493641076166" lon="11.449227037723956"><ele>1111.6666666666667</ele><time>2026-05-03T07:51:03.977Z</time></trkpt><trkpt lat="45.92865254941235" lon="11.449063886338715"><ele>1115.0</ele><time>2026-05-03T07:51:04.977Z</time></trkpt><trkpt lat="45.92882579018986" lon="11.448930172313473"><ele>1110.0</ele><time>2026-05-03T07:51:05.977Z</time></trkpt><trkpt lat="45.92899916051666" lon="11.448785835553391"><ele>1105.0</ele><time>2026-05-03T07:51:06.977Z</time></trkpt><trkpt lat="45.92916341859543" lon="11.44860666740895"><ele>1100.0</ele><time>2026-05-03T07:51:07.977Z</time></trkpt><trkpt lat="45.929309320409196" lon="11.448384130257477"><ele>1107.3333333333335</ele><time>2026-05-03T07:51:08.977Z</time></trkpt><trkpt lat="45.92942453407536" lon="11.448112280063935"><ele>1114.6666666666667</ele><time>2026-05-03T07:51:09.977Z</time></trkpt><trkpt lat="45.92951427961907" lon="11.447814048026427"><ele>1122.0</ele><time>2026-05-03T07:51:10.977Z</time></trkpt><trkpt lat="45.929581899741585" lon="11.447494977085519"><ele>1122.0</ele><time>2026-05-03T07:51:11.977Z</time></trkpt><trkpt lat="45.92961667589912" lon="11.447174338776154"><ele>1122.0</ele><time>2026-05-03T07:51:12.977Z</time></trkpt><trkpt lat="45.92963496032119" lon="11.44689805199169"><ele>1122.0</ele><time>2026-05-03T07:51:13.977Z</time></trkpt><trkpt lat="45.929657077609164" lon="11.446665153941009"><ele>1120.3333333333333</ele><time>2026-05-03T07:51:14.977Z</time></trkpt><trkpt lat="45.92970519192771" lon="11.446439283229932"><ele>1118.6666666666665</ele><time>2026-05-03T07:51:15.977Z</time></trkpt><trkpt lat="45.929791373676686" lon="11.446221761203805"><ele>1117.0</ele><time>2026-05-03T07:51:16.977Z</time></trkpt><trkpt lat="45.92990111659799" lon="11.446003074188683"><ele>1117.0</ele><time>2026-05-03T07:51:17.977Z</time></trkpt><trkpt lat="45.93000254168682" lon="11.445795413637446"><ele>1117.0</ele><time>2026-05-03T07:51:18.977Z</time></trkpt><trkpt lat="45.93012188697722" lon="11.44560991659995"><ele>1117.0</ele><time>2026-05-03T07:51:19.977Z</time></trkpt><trkpt lat="45.93028085795158" lon="11.445460539817978"><ele>1117.6666666666665</ele><time>2026-05-03T07:51:20.977Z</time></trkpt><trkpt lat="45.930458617220644" lon="11.445330938159412"><ele>1118.3333333333333</ele><time>2026-05-03T07:51:21.977Z</time></trkpt><trkpt lat="45.930653448688226" lon="11.445206220260022"><ele>1119.0</ele><time>2026-05-03T07:51:22.977Z</time></trkpt><trkpt lat="45.9308450662875" lon="11.445062938185695"><ele>1122.0</ele><time>2026-05-03T07:51:23.977Z</time></trkpt><trkpt lat="45.931039091059574" lon="11.44490209781515"><ele>1125.0</ele><time>2026-05-03T07:51:24.977Z</time></trkpt><trkpt lat="45.93124061046869" lon="11.44475150918598"><ele>1123.0</ele><time>2026-05-03T07:51:25.977Z</time></trkpt><trkpt lat="45.93144847100486" lon="11.444590153471994"><ele>1121.0</ele><time>2026-05-03T07:51:26.977Z</time></trkpt><trkpt lat="45.931658637317604" lon="11.44443408012494"><ele>1122.5</ele><time>2026-05-03T07:51:27.977Z</time></trkpt><trkpt lat="45.93186318265499" lon="11.44426490372457"><ele>1124.0</ele><time>2026-05-03T07:51:28.977Z</time></trkpt><trkpt lat="45.932063799057005" lon="11.444093296771765"><ele>1124.0</ele><time>2026-05-03T07:51:29.977Z</time></trkpt><trkpt lat="45.93225610282462" lon="11.443924676339646"><ele>1124.0</ele><time>2026-05-03T07:51:30.977Z</time></trkpt><trkpt lat="45.93243536000795" lon="11.443779337449945"><ele>1124.0</ele><time>2026-05-03T07:51:31.977Z</time></trkpt><trkpt lat="45.93261340679019" lon="11.44363837629598"><ele>1124.6666666666667</ele><time>2026-05-03T07:51:32.977Z</time></trkpt><trkpt lat="45.932774010206494" lon="11.443515251606904"><ele>1125.3333333333333</ele><time>2026-05-03T07:51:33.977Z</time></trkpt><trkpt lat="45.932926092605584" lon="11.443407014075868"><ele>1126.0</ele><time>2026-05-03T07:51:34.977Z</time></trkpt><trkpt lat="45.93309011564496" lon="11.443349911447564"><ele>1126.0</ele><time>2026-05-03T07:51:35.977Z</time></trkpt><trkpt lat="45.933267113041786" lon="11.443345328344686"><ele>1126.0</ele><time>2026-05-03T07:51:36.977Z</time></trkpt><trkpt lat="45.93345336346781" lon="11.443384603032966"><ele>1126.0</ele><time>2026-05-03T07:51:37.977Z</time></trkpt><trkpt lat="45.93363258760745" lon="11.443425010739162"><ele>1129.0</ele><time>2026-05-03T07:51:38.977Z</time></trkpt><trkpt lat="45.933813666955196" lon="11.44341788002457"><ele>1132.0</ele><time>2026-05-03T07:51:39.977Z</time></trkpt><trkpt lat="45.93398350034785" lon="11.443340710368652"><ele>1135.0</ele><time>2026-05-03T07:51:40.977Z</time></trkpt><trkpt lat="45.93415663814358" lon="11.443221071064295"><ele>1130.0</ele><time>2026-05-03T07:51:41.977Z</time></trkpt><trkpt lat="45.93477253067921" lon="11.442801786055915"><ele>1130.0</ele><time>2026-05-03T07:51:45.977Z</time></trkpt><trkpt lat="45.93502911947539" lon="11.442571867182284"><ele>1130.0</ele><time>2026-05-03T07:51:46.977Z</time></trkpt><trkpt lat="45.93524794123562" lon="11.442271431962373"><ele>1128.5</ele><time>2026-05-03T07:51:47.977Z</time></trkpt><trkpt lat="45.93544418502001" lon="11.44200312343807"><ele>1127.0</ele><time>2026-05-03T07:51:48.977Z</time></trkpt><trkpt lat="45.935604824752026" lon="11.441767607694015"><ele>1127.0</ele><time>2026-05-03T07:51:49.976Z</time></trkpt><trkpt lat="45.935774894573335" lon="11.4415851621916"><ele>1127.0</ele><time>2026-05-03T07:51:50.976Z</time></trkpt><trkpt lat="45.9359573372634" lon="11.441450658975123"><ele>1127.0</ele><time>2026-05-03T07:51:51.976Z</time></trkpt><trkpt lat="45.936160215659825" lon="11.441363265605377"><ele>1130.3333333333335</ele><time>2026-05-03T07:51:52.976Z</time></trkpt><trkpt lat="45.936373025421894" lon="11.441282559424392"><ele>1133.6666666666667</ele><time>2026-05-03T07:51:53.976Z</time></trkpt><trkpt lat="45.936586686744086" lon="11.441188775131193"><ele>1137.0</ele><time>2026-05-03T07:51:54.976Z</time></trkpt><trkpt lat="45.93679592150348" lon="11.441071101823244"><ele>1142.0</ele><time>2026-05-03T07:51:55.976Z</time></trkpt><trkpt lat="45.93699815848306" lon="11.440913323478057"><ele>1147.0</ele><time>2026-05-03T07:51:56.976Z</time></trkpt><trkpt lat="45.937201174774074" lon="11.44071753035633"><ele>1147.0</ele><time>2026-05-03T07:51:57.976Z</time></trkpt><trkpt lat="45.937405876060176" lon="11.440506768239226"><ele>1147.0</ele><time>2026-05-03T07:51:58.976Z</time></trkpt><trkpt lat="45.937615208098634" lon="11.440306351840432"><ele>1142.5</ele><time>2026-05-03T07:51:59.976Z</time></trkpt><trkpt lat="45.93781866105528" lon="11.440102385985359"><ele>1138.0</ele><time>2026-05-03T07:52:00.976Z</time></trkpt><trkpt lat="45.93802814337778" lon="11.439903927285505"><ele>1138.0</ele><time>2026-05-03T07:52:01.976Z</time></trkpt><trkpt lat="45.938228796547214" lon="11.439700943777078"><ele>1138.0</ele><time>2026-05-03T07:52:02.976Z</time></trkpt><trkpt lat="45.93842033915229" lon="11.439470170380996"><ele>1139.5</ele><time>2026-05-03T07:52:03.976Z</time></trkpt><trkpt lat="45.93860715837063" lon="11.439189456223154"><ele>1141.0</ele><time>2026-05-03T07:52:04.976Z</time></trkpt><trkpt lat="45.93879101461268" lon="11.438939729544758"><ele>1140.0</ele><time>2026-05-03T07:52:05.976Z</time></trkpt><trkpt lat="45.938961198109546" lon="11.438712396813981"><ele>1139.0</ele><time>2026-05-03T07:52:06.976Z</time></trkpt><trkpt lat="45.93912389077183" lon="11.438504131789708"><ele>1138.0</ele><time>2026-05-03T07:52:07.976Z</time></trkpt><trkpt lat="45.93930794636541" lon="11.438320870844306"><ele>1137.0</ele><time>2026-05-03T07:52:08.976Z</time></trkpt><trkpt lat="45.93950088890924" lon="11.438166652236298"><ele>1136.0</ele><time>2026-05-03T07:52:09.976Z</time></trkpt><trkpt lat="45.939691266521855" lon="11.438005860861484"><ele>1136.6666666666667</ele><time>2026-05-03T07:52:10.976Z</time></trkpt><trkpt lat="45.939874927616046" lon="11.437842880484634"><ele>1137.3333333333333</ele><time>2026-05-03T07:52:11.976Z</time></trkpt><trkpt lat="45.940054174402114" lon="11.437679479230155"><ele>1138.0</ele><time>2026-05-03T07:52:12.976Z</time></trkpt><trkpt lat="45.94022125884843" lon="11.437503629866221"><ele>1139.0</ele><time>2026-05-03T07:52:13.976Z</time></trkpt><trkpt lat="45.94038456583364" lon="11.437326926259749"><ele>1140.0</ele><time>2026-05-03T07:52:14.976Z</time></trkpt><trkpt lat="45.940536895370116" lon="11.437157816537047"><ele>1141.0</ele><time>2026-05-03T07:52:15.976Z</time></trkpt><trkpt lat="45.94068736010033" lon="11.436993337521297"><ele>1141.0</ele><time>2026-05-03T07:52:16.976Z</time></trkpt><trkpt lat="45.94083260373802" lon="11.43683388377457"><ele>1141.0</ele><time>2026-05-03T07:52:17.976Z</time></trkpt><trkpt lat="45.94097804841411" lon="11.43668068731808"><ele>1141.0</ele><time>2026-05-03T07:52:18.976Z</time></trkpt><trkpt lat="45.941130188735784" lon="11.436530506273304"><ele>1142.6666666666665</ele><time>2026-05-03T07:52:19.976Z</time></trkpt><trkpt lat="45.94129157604414" lon="11.43639085966988"><ele>1144.3333333333333</ele><time>2026-05-03T07:52:20.976Z</time></trkpt><trkpt lat="45.94146899997334" lon="11.436279225832996"><ele>1146.0</ele><time>2026-05-03T07:52:21.976Z</time></trkpt><trkpt lat="45.94163999810712" lon="11.436195250373073"><ele>1146.5</ele><time>2026-05-03T07:52:22.976Z</time></trkpt><trkpt lat="45.941785365200865" lon="11.436128158352146"><ele>1147.0</ele><time>2026-05-03T07:52:23.976Z</time></trkpt><trkpt lat="45.94193070798741" lon="11.436075649725192"><ele>1147.5</ele><time>2026-05-03T07:52:24.976Z</time></trkpt><trkpt lat="45.94206173097959" lon="11.436023537533659"><ele>1148.0</ele><time>2026-05-03T07:52:25.976Z</time></trkpt><trkpt lat="45.94219584630607" lon="11.435977190834684"><ele>1148.0</ele><time>2026-05-03T07:52:26.976Z</time></trkpt><trkpt lat="45.942328425324945" lon="11.435926720054253"><ele>1148.0</ele><time>2026-05-03T07:52:27.976Z</time></trkpt><trkpt lat="45.94244586329768" lon="11.435899372405745"><ele>1148.0</ele><time>2026-05-03T07:52:28.976Z</time></trkpt><trkpt lat="45.94255661557833" lon="11.435907475146841"><ele>1148.0</ele><time>2026-05-03T07:52:29.976Z</time></trkpt><trkpt lat="45.94266833890743" lon="11.435946890744612"><ele>1150.25</ele><time>2026-05-03T07:52:30.976Z</time></trkpt><trkpt lat="45.942787535422156" lon="11.436031358179704"><ele>1152.5</ele><time>2026-05-03T07:52:31.976Z</time></trkpt><trkpt lat="45.94290598559119" lon="11.43613808939298"><ele>1154.75</ele><time>2026-05-03T07:52:32.976Z</time></trkpt><trkpt lat="45.94303958887961" lon="11.436240172647633"><ele>1157.0</ele><time>2026-05-03T07:52:33.976Z</time></trkpt><trkpt lat="45.94318177119291" lon="11.436297464793254"><ele>1160.0</ele><time>2026-05-03T07:52:34.976Z</time></trkpt><trkpt lat="45.943350512739606" lon="11.436319223438762"><ele>1163.0</ele><time>2026-05-03T07:52:35.976Z</time></trkpt><trkpt lat="45.943557654686124" lon="11.436302706613452"><ele>1166.0</ele><time>2026-05-03T07:52:36.976Z</time></trkpt><trkpt lat="45.94379197390155" lon="11.436293991431413"><ele>1169.5</ele><time>2026-05-03T07:52:37.976Z</time></trkpt><trkpt lat="45.94405196097201" lon="11.43631406171888"><ele>1173.0</ele><time>2026-05-03T07:52:38.976Z</time></trkpt><trkpt lat="45.94430725033923" lon="11.436338574364525"><ele>1177.0</ele><time>2026-05-03T07:52:39.976Z</time></trkpt><trkpt lat="45.94454806881484" lon="11.436349480552815"><ele>1181.0</ele><time>2026-05-03T07:52:40.976Z</time></trkpt><trkpt lat="45.94476813973896" lon="11.436359730373043"><ele>1181.0</ele><time>2026-05-03T07:52:41.976Z</time></trkpt><trkpt lat="45.94494886212079" lon="11.436382600762247"><ele>1181.0</ele><time>2026-05-03T07:52:42.977Z</time></trkpt><trkpt lat="45.94515283630304" lon="11.436351167375257"><ele>1181.0</ele><time>2026-05-03T07:52:43.977Z</time></trkpt><trkpt lat="45.94535870551947" lon="11.436260548125937"><ele>1177.0</ele><time>2026-05-03T07:52:44.977Z</time></trkpt><trkpt lat="45.94551861152364" lon="11.436112237695989"><ele>1173.0</ele><time>2026-05-03T07:52:45.976Z</time></trkpt><trkpt lat="45.94568724324692" lon="11.435966780224337"><ele>1169.0</ele><time>2026-05-03T07:52:46.977Z</time></trkpt><trkpt lat="45.94585819936901" lon="11.435801130668397"><ele>1178.5</ele><time>2026-05-03T07:52:47.977Z</time></trkpt><trkpt lat="45.946053379407275" lon="11.435627620899316"><ele>1188.0</ele><time>2026-05-03T07:52:48.977Z</time></trkpt><trkpt lat="45.94627208543968" lon="11.435512992288423"><ele>1185.6666666666667</ele><time>2026-05-03T07:52:49.977Z</time></trkpt><trkpt lat="45.94646779571615" lon="11.435422525022542"><ele>1183.3333333333335</ele><time>2026-05-03T07:52:50.977Z</time></trkpt><trkpt lat="45.94664290475126" lon="11.435254312331946"><ele>1181.0</ele><time>2026-05-03T07:52:51.976Z</time></trkpt><trkpt lat="45.946805327765226" lon="11.435065459373899"><ele>1181.0</ele><time>2026-05-03T07:52:52.976Z</time></trkpt><trkpt lat="45.94694396486019" lon="11.434962332716657"><ele>1181.0</ele><time>2026-05-03T07:52:53.976Z</time></trkpt><trkpt lat="45.94708403088957" lon="11.43488377330185"><ele>1181.0</ele><time>2026-05-03T07:52:54.976Z</time></trkpt><trkpt lat="45.947250946799464" lon="11.434863436167085"><ele>1181.0</ele><time>2026-05-03T07:52:55.976Z</time></trkpt><trkpt lat="45.94744153198785" lon="11.434885520246901"><ele>1181.0</ele><time>2026-05-03T07:52:56.976Z</time></trkpt><trkpt lat="45.947629155406716" lon="11.4349498121792"><ele>1181.0</ele><time>2026-05-03T07:52:57.976Z</time></trkpt><trkpt lat="45.94760982648072" lon="11.434770337938307"><ele>1185.3333333333335</ele><time>2026-05-03T07:52:58.976Z</time></trkpt><trkpt lat="45.94776112803039" lon="11.434921100901551"><ele>1189.6666666666667</ele><time>2026-05-03T07:52:59.976Z</time></trkpt><trkpt lat="45.94789071290106" lon="11.434998768575099"><ele>1194.0</ele><time>2026-05-03T07:53:00.976Z</time></trkpt><trkpt lat="45.948041858828184" lon="11.435017209020934"><ele>1194.0</ele><time>2026-05-03T07:53:01.976Z</time></trkpt><trkpt lat="45.94819224241397" lon="11.434961858453194"><ele>1194.0</ele><time>2026-05-03T07:53:02.976Z</time></trkpt><trkpt lat="45.948335068804184" lon="11.434840991957785"><ele>1194.0</ele><time>2026-05-03T07:53:03.976Z</time></trkpt><trkpt lat="45.94845625336387" lon="11.43463554041377"><ele>1198.0</ele><time>2026-05-03T07:53:04.976Z</time></trkpt><trkpt lat="45.948545164103514" lon="11.434400922782677"><ele>1202.0</ele><time>2026-05-03T07:53:05.976Z</time></trkpt><trkpt lat="45.94857638191995" lon="11.434129201326389"><ele>1206.0</ele><time>2026-05-03T07:53:06.976Z</time></trkpt><trkpt lat="45.94859658730904" lon="11.43387129950329"><ele>1197.6666666666667</ele><time>2026-05-03T07:53:07.976Z</time></trkpt><trkpt lat="45.94863434300695" lon="11.433655789650244"><ele>1189.3333333333335</ele><time>2026-05-03T07:53:08.975Z</time></trkpt><trkpt lat="45.948721674031155" lon="11.433495843499701"><ele>1181.0</ele><time>2026-05-03T07:53:09.975Z</time></trkpt><trkpt lat="45.948864297921304" lon="11.43332066070425"><ele>1181.0</ele><time>2026-05-03T07:53:10.975Z</time></trkpt><trkpt lat="45.94905325996766" lon="11.43317832563663"><ele>1181.0</ele><time>2026-05-03T07:53:11.975Z</time></trkpt><trkpt lat="45.94925507519537" lon="11.433073809210589"><ele>1181.0</ele><time>2026-05-03T07:53:12.975Z</time></trkpt><trkpt lat="45.94941527218318" lon="11.432971738446817"><ele>1181.6666666666667</ele><time>2026-05-03T07:53:13.975Z</time></trkpt><trkpt lat="45.94956248236635" lon="11.432820753479096"><ele>1182.3333333333333</ele><time>2026-05-03T07:53:14.975Z</time></trkpt><trkpt lat="45.94969024806017" lon="11.432693271692292"><ele>1183.0</ele><time>2026-05-03T07:53:15.975Z</time></trkpt><trkpt lat="45.949789011389875" lon="11.432568242676703"><ele>1183.0</ele><time>2026-05-03T07:53:16.975Z</time></trkpt><trkpt lat="45.94988254201483" lon="11.432457195612441"><ele>1183.0</ele><time>2026-05-03T07:53:17.975Z</time></trkpt><trkpt lat="45.94997187761294" lon="11.432344249876456"><ele>1183.0</ele><time>2026-05-03T07:53:18.975Z</time></trkpt><trkpt lat="45.95004384796058" lon="11.432216080223695"><ele>1183.0</ele><time>2026-05-03T07:53:19.975Z</time></trkpt><trkpt lat="45.950091091160736" lon="11.432071621875394"><ele>1195.75</ele><time>2026-05-03T07:53:20.975Z</time></trkpt><trkpt lat="45.95009135991728" lon="11.431877580663695"><ele>1208.5</ele><time>2026-05-03T07:53:21.975Z</time></trkpt><trkpt lat="45.95012132639897" lon="11.431700784803539"><ele>1221.25</ele><time>2026-05-03T07:53:22.975Z</time></trkpt><trkpt lat="45.95012667702508" lon="11.431546377428417"><ele>1234.0</ele><time>2026-05-03T07:53:23.975Z</time></trkpt><trkpt lat="45.950086174954095" lon="11.431385251424866"><ele>1226.0</ele><time>2026-05-03T07:53:24.975Z</time></trkpt><trkpt lat="45.95002236078693" lon="11.43126374698055"><ele>1218.0</ele><time>2026-05-03T07:53:25.975Z</time></trkpt><trkpt lat="45.94993184494167" lon="11.431158663854546"><ele>1210.0</ele><time>2026-05-03T07:53:26.975Z</time></trkpt><trkpt lat="45.94983215698631" lon="11.4310675289414"><ele>1202.0</ele><time>2026-05-03T07:53:27.975Z</time></trkpt><trkpt lat="45.94974397763198" lon="11.430990306576955"><ele>1194.0</ele><time>2026-05-03T07:53:28.975Z</time></trkpt><trkpt lat="45.94964896406773" lon="11.430921411903661"><ele>1194.0</ele><time>2026-05-03T07:53:29.975Z</time></trkpt><trkpt lat="45.949553867094174" lon="11.430829562070077"><ele>1194.0</ele><time>2026-05-03T07:53:30.975Z</time></trkpt><trkpt lat="45.949477690284496" lon="11.43072643574054"><ele>1194.0</ele><time>2026-05-03T07:53:31.975Z</time></trkpt><trkpt lat="45.94944091696348" lon="11.4306025096197"><ele>1194.0</ele><time>2026-05-03T07:53:32.975Z</time></trkpt><trkpt lat="45.94942106414351" lon="11.430469516294945"><ele>1194.0</ele><time>2026-05-03T07:53:33.975Z</time></trkpt><trkpt lat="45.94940848044587" lon="11.430330132941402"><ele>1193.25</ele><time>2026-05-03T07:53:34.975Z</time></trkpt><trkpt lat="45.94941929891619" lon="11.430167225024013"><ele>1192.5</ele><time>2026-05-03T07:53:35.975Z</time></trkpt><trkpt lat="45.9494505197052" lon="11.429974511754105"><ele>1191.75</ele><time>2026-05-03T07:53:36.975Z</time></trkpt><trkpt lat="45.94949760406683" lon="11.429751330684192"><ele>1191.0</ele><time>2026-05-03T07:53:37.975Z</time></trkpt><trkpt lat="45.94955829180583" lon="11.429501949138823"><ele>1193.6666666666667</ele><time>2026-05-03T07:53:38.975Z</time></trkpt><trkpt lat="45.949605087176344" lon="11.42924131307006"><ele>1196.3333333333335</ele><time>2026-05-03T07:53:39.975Z</time></trkpt><trkpt lat="45.94965917149054" lon="11.428955812059554"><ele>1199.0</ele><time>2026-05-03T07:53:40.975Z</time></trkpt><trkpt lat="45.94970150921746" lon="11.42868439896878"><ele>1199.0</ele><time>2026-05-03T07:53:41.975Z</time></trkpt><trkpt lat="45.94974302889394" lon="11.428474228389808"><ele>1199.0</ele><time>2026-05-03T07:53:42.975Z</time></trkpt><trkpt lat="45.94980264990914" lon="11.428290291911594"><ele>1199.0</ele><time>2026-05-03T07:53:43.975Z</time></trkpt><trkpt lat="45.94992782914431" lon="11.428119862569245"><ele>1204.6666666666667</ele><time>2026-05-03T07:53:44.975Z</time></trkpt><trkpt lat="45.950079039638034" lon="11.427930784198258"><ele>1210.3333333333333</ele><time>2026-05-03T07:53:45.975Z</time></trkpt><trkpt lat="45.95023392244924" lon="11.427704726605263"><ele>1216.0</ele><time>2026-05-03T07:53:46.975Z</time></trkpt><trkpt lat="45.95038249540856" lon="11.427488746567839"><ele>1216.0</ele><time>2026-05-03T07:53:47.975Z</time></trkpt><trkpt lat="45.95051648019409" lon="11.427330219103757"><ele>1216.0</ele><time>2026-05-03T07:53:48.975Z</time></trkpt><trkpt lat="45.950606594722814" lon="11.427166906751594"><ele>1216.0</ele><time>2026-05-03T07:53:49.975Z</time></trkpt><trkpt lat="45.950654199885264" lon="11.426967235318486"><ele>1213.6666666666665</ele><time>2026-05-03T07:53:50.975Z</time></trkpt><trkpt lat="45.95066154679308" lon="11.42671127687265"><ele>1211.3333333333333</ele><time>2026-05-03T07:53:51.975Z</time></trkpt><trkpt lat="45.95063949124289" lon="11.426369677711667"><ele>1209.0</ele><time>2026-05-03T07:53:52.975Z</time></trkpt><trkpt lat="45.95060075143759" lon="11.425991679723445"><ele>1199.0</ele><time>2026-05-03T07:53:53.975Z</time></trkpt><trkpt lat="45.95057974725113" lon="11.425195999651336"><ele>1199.0</ele><time>2026-05-03T07:53:55.975Z</time></trkpt><trkpt lat="45.95057036798683" lon="11.424878553003474"><ele>1199.0</ele><time>2026-05-03T07:53:56.975Z</time></trkpt><trkpt lat="45.95055513024153" lon="11.424605753877868"><ele>1199.0</ele><time>2026-05-03T07:53:57.975Z</time></trkpt><trkpt lat="45.95053079304507" lon="11.424375724597322"><ele>1203.0</ele><time>2026-05-03T07:53:58.975Z</time></trkpt><trkpt lat="45.9504635159291" lon="11.424208342948784"><ele>1207.0</ele><time>2026-05-03T07:53:59.975Z</time></trkpt><trkpt lat="45.95034118427257" lon="11.424056673693963"><ele>1211.0</ele><time>2026-05-03T07:54:00.975Z</time></trkpt><trkpt lat="45.950201058595226" lon="11.42394843852307"><ele>1211.0</ele><time>2026-05-03T07:54:01.975Z</time></trkpt><trkpt lat="45.950101041213635" lon="11.423841031255341"><ele>1211.0</ele><time>2026-05-03T07:54:02.975Z</time></trkpt><trkpt lat="45.95004691435478" lon="11.423699285045345"><ele>1211.0</ele><time>2026-05-03T07:54:03.975Z</time></trkpt><trkpt lat="45.95004292180875" lon="11.42353752957545"><ele>1211.0</ele><time>2026-05-03T07:54:04.975Z</time></trkpt><trkpt lat="45.95012390866877" lon="11.423326579092986"><ele>1215.3333333333335</ele><time>2026-05-03T07:54:05.974Z</time></trkpt><trkpt lat="45.950233651242186" lon="11.423086929255442"><ele>1219.6666666666667</ele><time>2026-05-03T07:54:06.974Z</time></trkpt><trkpt lat="45.95034905909597" lon="11.42280668262864"><ele>1224.0</ele><time>2026-05-03T07:54:07.974Z</time></trkpt><trkpt lat="45.95046463536714" lon="11.422502508013826"><ele>1224.0</ele><time>2026-05-03T07:54:08.974Z</time></trkpt><trkpt lat="45.95054460606737" lon="11.422247952100992"><ele>1224.0</ele><time>2026-05-03T07:54:09.974Z</time></trkpt><trkpt lat="45.95058758891735" lon="11.422051933056144"><ele>1224.0</ele><time>2026-05-03T07:54:10.974Z</time></trkpt><trkpt lat="45.95058009222994" lon="11.421821149403515"><ele>1222.6666666666667</ele><time>2026-05-03T07:54:11.974Z</time></trkpt><trkpt lat="45.950520063309526" lon="11.421581117075371"><ele>1221.3333333333335</ele><time>2026-05-03T07:54:12.974Z</time></trkpt><trkpt lat="45.95042194995023" lon="11.421322179053096"><ele>1220.0</ele><time>2026-05-03T07:54:13.974Z</time></trkpt><trkpt lat="45.95034907240171" lon="11.421135597909299"><ele>1218.4</ele><time>2026-05-03T07:54:14.974Z</time></trkpt><trkpt lat="45.95033547721826" lon="11.420989953166911"><ele>1216.8</ele><time>2026-05-03T07:54:15.974Z</time></trkpt><trkpt lat="45.95038122347121" lon="11.420846991147561"><ele>1215.2</ele><time>2026-05-03T07:54:16.974Z</time></trkpt><trkpt lat="45.950470387508894" lon="11.420759263856603"><ele>1213.6</ele><time>2026-05-03T07:54:17.974Z</time></trkpt><trkpt lat="45.950586104383895" lon="11.420736752079355"><ele>1212.0</ele><time>2026-05-03T07:54:18.974Z</time></trkpt><trkpt lat="45.950727312798236" lon="11.420728658275484"><ele>1217.0</ele><time>2026-05-03T07:54:19.974Z</time></trkpt><trkpt lat="45.950909780151" lon="11.420747833635094"><ele>1222.0</ele><time>2026-05-03T07:54:20.974Z</time></trkpt><trkpt lat="45.95112390360703" lon="11.420755132587797"><ele>1227.0</ele><time>2026-05-03T07:54:21.974Z</time></trkpt><trkpt lat="45.95132649279444" lon="11.420759833724997"><ele>1227.0</ele><time>2026-05-03T07:54:22.974Z</time></trkpt><trkpt lat="45.95147586963533" lon="11.420745320398897"><ele>1227.0</ele><time>2026-05-03T07:54:23.974Z</time></trkpt><trkpt lat="45.95160896562027" lon="11.420652157435093"><ele>1227.0</ele><time>2026-05-03T07:54:24.974Z</time></trkpt><trkpt lat="45.95175598946548" lon="11.42048183825039"><ele>1240.0</ele><time>2026-05-03T07:54:25.974Z</time></trkpt><trkpt lat="45.951845774815354" lon="11.420318312773784"><ele>1253.0</ele><time>2026-05-03T07:54:26.974Z</time></trkpt><trkpt lat="45.95189955818792" lon="11.420109437181617"><ele>1266.0</ele><time>2026-05-03T07:54:27.974Z</time></trkpt><trkpt lat="45.9518973833104" lon="11.419859150713505"><ele>1266.0</ele><time>2026-05-03T07:54:28.974Z</time></trkpt><trkpt lat="45.95184590989365" lon="11.419606963514184"><ele>1266.0</ele><time>2026-05-03T07:54:29.974Z</time></trkpt><trkpt lat="45.95173735491131" lon="11.41936082593227"><ele>1266.0</ele><time>2026-05-03T07:54:30.974Z</time></trkpt><trkpt lat="45.95158758457354" lon="11.41911432035149"><ele>1251.5</ele><time>2026-05-03T07:54:31.974Z</time></trkpt><trkpt lat="45.951411828404" lon="11.41885512509801"><ele>1237.0</ele><time>2026-05-03T07:54:32.974Z</time></trkpt><trkpt lat="45.95126012113099" lon="11.418629667116823"><ele>1237.0</ele><time>2026-05-03T07:54:33.974Z</time></trkpt><trkpt lat="45.951186631983944" lon="11.418443299631617"><ele>1237.0</ele><time>2026-05-03T07:54:34.974Z</time></trkpt><trkpt lat="45.95112194441402" lon="11.41823309437977"><ele>1237.0</ele><time>2026-05-03T07:54:35.974Z</time></trkpt><trkpt lat="45.95109727947886" lon="11.4180037966092"><ele>1235.6666666666665</ele><time>2026-05-03T07:54:36.974Z</time></trkpt><trkpt lat="45.95110611736965" lon="11.417773623082113"><ele>1234.3333333333333</ele><time>2026-05-03T07:54:37.974Z</time></trkpt><trkpt lat="45.95113611984403" lon="11.417532201442707"><ele>1233.0</ele><time>2026-05-03T07:54:38.974Z</time></trkpt><trkpt lat="45.95117291504676" lon="11.417352185957629"><ele>1233.0</ele><time>2026-05-03T07:54:39.974Z</time></trkpt><trkpt lat="45.95124021576312" lon="11.41722705770117"><ele>1233.0</ele><time>2026-05-03T07:54:40.974Z</time></trkpt><trkpt lat="45.95135843633979" lon="11.417104407183798"><ele>1233.0</ele><time>2026-05-03T07:54:41.974Z</time></trkpt><trkpt lat="45.95151669031359" lon="11.416931031613478"><ele>1234.5</ele><time>2026-05-03T07:54:42.974Z</time></trkpt><trkpt lat="45.95164617513239" lon="11.416767396246614"><ele>1236.0</ele><time>2026-05-03T07:54:43.974Z</time></trkpt><trkpt lat="45.95171665740679" lon="11.416620281787019"><ele>1237.5</ele><time>2026-05-03T07:54:44.974Z</time></trkpt><trkpt lat="45.95175700748187" lon="11.416435606861638"><ele>1239.0</ele><time>2026-05-03T07:54:45.974Z</time></trkpt><trkpt lat="45.951739115959704" lon="11.41622313814032"><ele>1241.0</ele><time>2026-05-03T07:54:46.974Z</time></trkpt><trkpt lat="45.951659165317714" lon="11.415997557415963"><ele>1243.0</ele><time>2026-05-03T07:54:47.974Z</time></trkpt><trkpt lat="45.95153887079202" lon="11.415769518808293"><ele>1245.0</ele><time>2026-05-03T07:54:48.975Z</time></trkpt><trkpt lat="45.95138735751809" lon="11.415559650790474"><ele>1254.5</ele><time>2026-05-03T07:54:49.974Z</time></trkpt><trkpt lat="45.95120645955116" lon="11.415363658521077"><ele>1264.0</ele><time>2026-05-03T07:54:50.974Z</time></trkpt><trkpt lat="45.951055013241316" lon="11.415125738525338"><ele>1264.0</ele><time>2026-05-03T07:54:51.975Z</time></trkpt><trkpt lat="45.9508962082451" lon="11.414923048436789"><ele>1264.0</ele><time>2026-05-03T07:54:52.975Z</time></trkpt><trkpt lat="45.95074291331173" lon="11.41468487641075"><ele>1264.0</ele><time>2026-05-03T07:54:53.975Z</time></trkpt><trkpt lat="45.95057053003202" lon="11.414441125540385"><ele>1260.0</ele><time>2026-05-03T07:54:54.975Z</time></trkpt><trkpt lat="45.95037858073209" lon="11.414185415611085"><ele>1256.0</ele><time>2026-05-03T07:54:55.975Z</time></trkpt><trkpt lat="45.950187625655815" lon="11.413919798870678"><ele>1252.5</ele><time>2026-05-03T07:54:56.975Z</time></trkpt><trkpt lat="45.94998976016953" lon="11.41364236541447"><ele>1249.0</ele><time>2026-05-03T07:54:57.975Z</time></trkpt><trkpt lat="45.94977737339619" lon="11.413329972082675"><ele>1249.0</ele><time>2026-05-03T07:54:58.975Z</time></trkpt><trkpt lat="45.94955624335092" lon="11.413010079348552"><ele>1249.0</ele><time>2026-05-03T07:54:59.975Z</time></trkpt><trkpt lat="45.949341053818536" lon="11.412691900239285"><ele>1249.5</ele><time>2026-05-03T07:55:00.975Z</time></trkpt><trkpt lat="45.94915672447044" lon="11.412424468338873"><ele>1250.0</ele><time>2026-05-03T07:55:01.975Z</time></trkpt><trkpt lat="45.94901524143875" lon="11.41218811095863"><ele>1257.0</ele><time>2026-05-03T07:55:02.975Z</time></trkpt><trkpt lat="45.94886296842153" lon="11.411949255274209"><ele>1264.0</ele><time>2026-05-03T07:55:03.975Z</time></trkpt><trkpt lat="45.94874063499469" lon="11.411650045387942"><ele>1264.0</ele><time>2026-05-03T07:55:04.975Z</time></trkpt><trkpt lat="45.94860502966251" lon="11.411357146252335"><ele>1264.0</ele><time>2026-05-03T07:55:05.975Z</time></trkpt><trkpt lat="45.94847427329155" lon="11.411063040985349"><ele>1258.0</ele><time>2026-05-03T07:55:06.975Z</time></trkpt><trkpt lat="45.94830817606565" lon="11.410785069400047"><ele>1252.0</ele><time>2026-05-03T07:55:07.975Z</time></trkpt><trkpt lat="45.948113936491495" lon="11.41052412184461"><ele>1264.0</ele><time>2026-05-03T07:55:08.975Z</time></trkpt><trkpt lat="45.947923404461875" lon="11.410271211298717"><ele>1276.0</ele><time>2026-05-03T07:55:09.975Z</time></trkpt><trkpt lat="45.94776157428173" lon="11.41003475833915"><ele>1276.0</ele><time>2026-05-03T07:55:10.975Z</time></trkpt><trkpt lat="45.94759665217124" lon="11.409793097794832"><ele>1276.0</ele><time>2026-05-03T07:55:11.975Z</time></trkpt><trkpt lat="45.94743948947685" lon="11.40957428211163"><ele>1273.3333333333333</ele><time>2026-05-03T07:55:12.975Z</time></trkpt><trkpt lat="45.947303247277794" lon="11.409381137126411"><ele>1270.6666666666667</ele><time>2026-05-03T07:55:13.975Z</time></trkpt><trkpt lat="45.94716476988698" lon="11.409214402407807"><ele>1268.0</ele><time>2026-05-03T07:55:14.975Z</time></trkpt><trkpt lat="45.94698533383146" lon="11.409081200786934"><ele>1268.0</ele><time>2026-05-03T07:55:15.975Z</time></trkpt><trkpt lat="45.946744292318634" lon="11.409000887778886"><ele>1268.0</ele><time>2026-05-03T07:55:16.975Z</time></trkpt><trkpt lat="45.94652309801098" lon="11.408915395548686"><ele>1267.3333333333335</ele><time>2026-05-03T07:55:17.975Z</time></trkpt><trkpt lat="45.94636539165377" lon="11.408847794816587"><ele>1266.6666666666667</ele><time>2026-05-03T07:55:18.975Z</time></trkpt><trkpt lat="45.94622755923302" lon="11.408767273544369"><ele>1266.0</ele><time>2026-05-03T07:55:19.975Z</time></trkpt><trkpt lat="45.94611802986774" lon="11.408619489028645"><ele>1266.0</ele><time>2026-05-03T07:55:20.975Z</time></trkpt><trkpt lat="45.94600383924093" lon="11.408413472461117"><ele>1266.0</ele><time>2026-05-03T07:55:21.975Z</time></trkpt><trkpt lat="45.94591746227829" lon="11.408183830728921"><ele>1266.0</ele><time>2026-05-03T07:55:22.975Z</time></trkpt><trkpt lat="45.94584808772927" lon="11.4079820660298"><ele>1265.6666666666667</ele><time>2026-05-03T07:55:23.975Z</time></trkpt><trkpt lat="45.945777152346196" lon="11.407751139368255"><ele>1265.3333333333335</ele><time>2026-05-03T07:55:24.975Z</time></trkpt><trkpt lat="45.94570186236338" lon="11.407484861570454"><ele>1265.0</ele><time>2026-05-03T07:55:25.975Z</time></trkpt><trkpt lat="45.94561878162118" lon="11.407205087130002"><ele>1266.5</ele><time>2026-05-03T07:55:26.975Z</time></trkpt><trkpt lat="45.94556489644023" lon="11.406893403057195"><ele>1268.0</ele><time>2026-05-03T07:55:27.975Z</time></trkpt><trkpt lat="45.94550575722283" lon="11.40655027356186"><ele>1272.5</ele><time>2026-05-03T07:55:28.975Z</time></trkpt><trkpt lat="45.94543613775909" lon="11.406185421178598"><ele>1277.0</ele><time>2026-05-03T07:55:29.975Z</time></trkpt><trkpt lat="45.945373228123614" lon="11.405851567765916"><ele>1277.0</ele><time>2026-05-03T07:55:30.975Z</time></trkpt><trkpt lat="45.94529535645963" lon="11.405547874319584"><ele>1277.0</ele><time>2026-05-03T07:55:31.975Z</time></trkpt><trkpt lat="45.94519683439757" lon="11.405254482338824"><ele>1274.0</ele><time>2026-05-03T07:55:32.975Z</time></trkpt><trkpt lat="45.945082317594455" lon="11.404964458949593"><ele>1271.0</ele><time>2026-05-03T07:55:33.975Z</time></trkpt><trkpt lat="45.94492990726111" lon="11.404688113107797"><ele>1273.3333333333335</ele><time>2026-05-03T07:55:34.975Z</time></trkpt><trkpt lat="45.944774283947694" lon="11.4044331221476"><ele>1275.6666666666667</ele><time>2026-05-03T07:55:35.975Z</time></trkpt><trkpt lat="45.944650339184584" lon="11.404220880843436"><ele>1278.0</ele><time>2026-05-03T07:55:36.975Z</time></trkpt><trkpt lat="45.9445446052559" lon="11.404012300870434"><ele>1284.3333333333333</ele><time>2026-05-03T07:55:37.975Z</time></trkpt><trkpt lat="45.944428994892064" lon="11.40379758083641"><ele>1290.6666666666665</ele><time>2026-05-03T07:55:38.975Z</time></trkpt><trkpt lat="45.94433922489504" lon="11.403549076849622"><ele>1297.0</ele><time>2026-05-03T07:55:39.975Z</time></trkpt><trkpt lat="45.94428039911359" lon="11.403268103603496"><ele>1302.6666666666665</ele><time>2026-05-03T07:55:40.975Z</time></trkpt><trkpt lat="45.94423216266875" lon="11.402972779452597"><ele>1308.3333333333333</ele><time>2026-05-03T07:55:41.975Z</time></trkpt><trkpt lat="45.9442158875827" lon="11.40269202641899"><ele>1314.0</ele><time>2026-05-03T07:55:42.975Z</time></trkpt><trkpt lat="45.944248866448866" lon="11.402455445015898"><ele>1314.0</ele><time>2026-05-03T07:55:43.975Z</time></trkpt><trkpt lat="45.94429792460872" lon="11.402221373047473"><ele>1314.0</ele><time>2026-05-03T07:55:44.974Z</time></trkpt><trkpt lat="45.94435706687519" lon="11.401964279837452"><ele>1314.0</ele><time>2026-05-03T07:55:45.974Z</time></trkpt><trkpt lat="45.944420470932215" lon="11.401666370580376"><ele>1313.0</ele><time>2026-05-03T07:55:46.974Z</time></trkpt><trkpt lat="45.944480389053716" lon="11.401390337737457"><ele>1312.0</ele><time>2026-05-03T07:55:47.974Z</time></trkpt><trkpt lat="45.94453319994409" lon="11.401142703475362"><ele>1311.0</ele><time>2026-05-03T07:55:48.974Z</time></trkpt><trkpt lat="45.944582831317945" lon="11.400906744225088"><ele>1306.3333333333333</ele><time>2026-05-03T07:55:49.974Z</time></trkpt><trkpt lat="45.94465096800473" lon="11.400660888635947"><ele>1301.6666666666665</ele><time>2026-05-03T07:55:50.974Z</time></trkpt><trkpt lat="45.94473992084697" lon="11.400397529521607"><ele>1297.0</ele><time>2026-05-03T07:55:51.974Z</time></trkpt><trkpt lat="45.94484079550321" lon="11.40014842148547"><ele>1297.0</ele><time>2026-05-03T07:55:52.974Z</time></trkpt><trkpt lat="45.944952102492806" lon="11.399900812242574"><ele>1297.0</ele><time>2026-05-03T07:55:53.974Z</time></trkpt><trkpt lat="45.945057284957" lon="11.399658753082363"><ele>1297.0</ele><time>2026-05-03T07:55:54.974Z</time></trkpt><trkpt lat="45.94515593295238" lon="11.399408521912388"><ele>1297.0</ele><time>2026-05-03T07:55:55.974Z</time></trkpt><trkpt lat="45.94525348128297" lon="11.39917915154671"><ele>1297.0</ele><time>2026-05-03T07:55:56.974Z</time></trkpt><trkpt lat="45.94537588059964" lon="11.398966648790926"><ele>1297.0</ele><time>2026-05-03T07:55:57.974Z</time></trkpt><trkpt lat="45.94554057004767" lon="11.398795098784086"><ele>1298.0</ele><time>2026-05-03T07:55:58.974Z</time></trkpt><trkpt lat="45.945715896096765" lon="11.398633061422217"><ele>1299.0</ele><time>2026-05-03T07:55:59.974Z</time></trkpt><trkpt lat="45.945896269936696" lon="11.398453074629668"><ele>1300.0</ele><time>2026-05-03T07:56:00.974Z</time></trkpt><trkpt lat="45.94606732701863" lon="11.398287987968075"><ele>1300.0</ele><time>2026-05-03T07:56:01.974Z</time></trkpt><trkpt lat="45.94625103653787" lon="11.398116401799228"><ele>1300.0</ele><time>2026-05-03T07:56:02.974Z</time></trkpt><trkpt lat="45.94644526916614" lon="11.397959799187163"><ele>1300.0</ele><time>2026-05-03T07:56:03.974Z</time></trkpt><trkpt lat="45.94664583663035" lon="11.397839041353773"><ele>1300.0</ele><time>2026-05-03T07:56:04.974Z</time></trkpt><trkpt lat="45.94684454584228" lon="11.397724623096197"><ele>1300.0</ele><time>2026-05-03T07:56:05.974Z</time></trkpt><trkpt lat="45.94703582990083" lon="11.397587582135447"><ele>1300.0</ele><time>2026-05-03T07:56:06.974Z</time></trkpt><trkpt lat="45.947223571694366" lon="11.397433945848903"><ele>1300.0</ele><time>2026-05-03T07:56:07.974Z</time></trkpt><trkpt lat="45.94739639421942" lon="11.397243179745024"><ele>1300.0</ele><time>2026-05-03T07:56:08.974Z</time></trkpt><trkpt lat="45.94756397395992" lon="11.397014727039913"><ele>1300.0</ele><time>2026-05-03T07:56:09.974Z</time></trkpt><trkpt lat="45.947722120189496" lon="11.396781119215694"><ele>1298.3333333333333</ele><time>2026-05-03T07:56:10.974Z</time></trkpt><trkpt lat="45.94786521205239" lon="11.396560887283268"><ele>1296.6666666666667</ele><time>2026-05-03T07:56:11.974Z</time></trkpt><trkpt lat="45.94799524826351" lon="11.396274467728595"><ele>1295.0</ele><time>2026-05-03T07:56:12.974Z</time></trkpt><trkpt lat="45.9481208195145" lon="11.395977334212395"><ele>1295.0</ele><time>2026-05-03T07:56:13.974Z</time></trkpt><trkpt lat="45.94824510032674" lon="11.395678728866082"><ele>1295.0</ele><time>2026-05-03T07:56:14.974Z</time></trkpt><trkpt lat="45.94838127961237" lon="11.395395375029045"><ele>1299.0</ele><time>2026-05-03T07:56:15.974Z</time></trkpt><trkpt lat="45.948529575016615" lon="11.395119240955832"><ele>1303.0</ele><time>2026-05-03T07:56:16.974Z</time></trkpt><trkpt lat="45.948699832468975" lon="11.394883479177336"><ele>1303.0</ele><time>2026-05-03T07:56:17.974Z</time></trkpt><trkpt lat="45.948878699224025" lon="11.394677951016172"><ele>1303.0</ele><time>2026-05-03T07:56:18.974Z</time></trkpt><trkpt lat="45.94905796686708" lon="11.394504417796663"><ele>1303.0</ele><time>2026-05-03T07:56:19.974Z</time></trkpt><trkpt lat="45.949256758535846" lon="11.394351984445606"><ele>1301.0</ele><time>2026-05-03T07:56:20.974Z</time></trkpt><trkpt lat="45.94945472950549" lon="11.394227511300146"><ele>1299.0</ele><time>2026-05-03T07:56:21.974Z</time></trkpt><trkpt lat="45.949638163443396" lon="11.39413152942581"><ele>1297.0</ele><time>2026-05-03T07:56:22.974Z</time></trkpt><trkpt lat="45.94981052198987" lon="11.39407533161693"><ele>1297.0</ele><time>2026-05-03T07:56:23.974Z</time></trkpt><trkpt lat="45.94996821134741" lon="11.394026796751797"><ele>1297.0</ele><time>2026-05-03T07:56:24.974Z</time></trkpt><trkpt lat="45.95010134254071" lon="11.393972314911027"><ele>1297.0</ele><time>2026-05-03T07:56:25.974Z</time></trkpt><trkpt lat="45.95020521238242" lon="11.393869439224337"><ele>1297.0</ele><time>2026-05-03T07:56:26.974Z</time></trkpt><trkpt lat="45.950281237483146" lon="11.393723878682893"><ele>1301.3333333333333</ele><time>2026-05-03T07:56:27.974Z</time></trkpt><trkpt lat="45.950314673497516" lon="11.39351099201831"><ele>1305.6666666666667</ele><time>2026-05-03T07:56:28.974Z</time></trkpt><trkpt lat="45.95033275021077" lon="11.393215651902405"><ele>1310.0</ele><time>2026-05-03T07:56:29.974Z</time></trkpt><trkpt lat="45.95034618883763" lon="11.392873505356501"><ele>1310.3333333333335</ele><time>2026-05-03T07:56:30.974Z</time></trkpt><trkpt lat="45.95035655952216" lon="11.39259231336458"><ele>1310.6666666666667</ele><time>2026-05-03T07:56:31.974Z</time></trkpt><trkpt lat="45.95038079447947" lon="11.392373518752501"><ele>1311.0</ele><time>2026-05-03T07:56:32.974Z</time></trkpt><trkpt lat="45.95043229929613" lon="11.392165191871905"><ele>1308.3333333333333</ele><time>2026-05-03T07:56:33.974Z</time></trkpt><trkpt lat="45.950531951866" lon="11.391962410879952"><ele>1305.6666666666665</ele><time>2026-05-03T07:56:34.974Z</time></trkpt><trkpt lat="45.95068403695698" lon="11.391758823747494"><ele>1303.0</ele><time>2026-05-03T07:56:35.974Z</time></trkpt><trkpt lat="45.95084440786816" lon="11.391523545845217"><ele>1307.6666666666665</ele><time>2026-05-03T07:56:36.974Z</time></trkpt><trkpt lat="45.950995386959406" lon="11.39127043268898"><ele>1312.3333333333333</ele><time>2026-05-03T07:56:37.974Z</time></trkpt><trkpt lat="45.95113484037569" lon="11.391033905479238"><ele>1317.0</ele><time>2026-05-03T07:56:38.974Z</time></trkpt><trkpt lat="45.9512652580797" lon="11.390762280211709"><ele>1317.0</ele><time>2026-05-03T07:56:39.974Z</time></trkpt><trkpt lat="45.95137005085395" lon="11.39053309124668"><ele>1317.0</ele><time>2026-05-03T07:56:40.974Z</time></trkpt><trkpt lat="45.95146387278512" lon="11.390338856463904"><ele>1317.0</ele><time>2026-05-03T07:56:41.974Z</time></trkpt><trkpt lat="45.951568886355155" lon="11.390122915457935"><ele>1312.0</ele><time>2026-05-03T07:56:42.974Z</time></trkpt><trkpt lat="45.95158746591946" lon="11.38987538881785"><ele>1307.0</ele><time>2026-05-03T07:56:43.974Z</time></trkpt><trkpt lat="45.95160933912929" lon="11.389592981449551"><ele>1302.0</ele><time>2026-05-03T07:56:44.974Z</time></trkpt><trkpt lat="45.95160807261896" lon="11.389326812402553"><ele>1301.0</ele><time>2026-05-03T07:56:45.974Z</time></trkpt><trkpt lat="45.9516150214214" lon="11.389095799914582"><ele>1300.0</ele><time>2026-05-03T07:56:46.974Z</time></trkpt><trkpt lat="45.95163963765921" lon="11.388878017799701"><ele>1299.0</ele><time>2026-05-03T07:56:47.974Z</time></trkpt><trkpt lat="45.95167209703515" lon="11.388666034303473"><ele>1307.6666666666667</ele><time>2026-05-03T07:56:48.974Z</time></trkpt><trkpt lat="45.951719290197126" lon="11.38845604067444"><ele>1316.3333333333335</ele><time>2026-05-03T07:56:49.974Z</time></trkpt><trkpt lat="45.951775704859855" lon="11.388235741074235"><ele>1325.0</ele><time>2026-05-03T07:56:50.974Z</time></trkpt><trkpt lat="45.951829170322455" lon="11.388012878942362"><ele>1327.6666666666667</ele><time>2026-05-03T07:56:51.974Z</time></trkpt><trkpt lat="45.95185161166237" lon="11.387773021890975"><ele>1330.3333333333333</ele><time>2026-05-03T07:56:52.974Z</time></trkpt><trkpt lat="45.951856080142825" lon="11.387510775156986"><ele>1333.0</ele><time>2026-05-03T07:56:53.974Z</time></trkpt><trkpt lat="45.95183303677908" lon="11.38719589176251"><ele>1340.0</ele><time>2026-05-03T07:56:54.974Z</time></trkpt><trkpt lat="45.95181870448635" lon="11.386848501370588"><ele>1347.0</ele><time>2026-05-03T07:56:55.975Z</time></trkpt><trkpt lat="45.951810451242075" lon="11.386530542190302"><ele>1350.6666666666667</ele><time>2026-05-03T07:56:56.975Z</time></trkpt><trkpt lat="45.95179143597392" lon="11.386249196195118"><ele>1354.3333333333335</ele><time>2026-05-03T07:56:57.975Z</time></trkpt><trkpt lat="45.95173636532641" lon="11.38600856683278"><ele>1358.0</ele><time>2026-05-03T07:56:58.975Z</time></trkpt><trkpt lat="45.95162536463499" lon="11.385744677285963"><ele>1341.0</ele><time>2026-05-03T07:56:59.975Z</time></trkpt><trkpt lat="45.95149857796404" lon="11.385450898346054"><ele>1324.0</ele><time>2026-05-03T07:57:00.975Z</time></trkpt><trkpt lat="45.95139826112746" lon="11.385182865207831"><ele>1324.0</ele><time>2026-05-03T07:57:01.974Z</time></trkpt><trkpt lat="45.9513083426666" lon="11.384927655942976"><ele>1324.0</ele><time>2026-05-03T07:57:02.974Z</time></trkpt><trkpt lat="45.951229740942814" lon="11.384709708469309"><ele>1324.0</ele><time>2026-05-03T07:57:03.974Z</time></trkpt><trkpt lat="45.951162315478726" lon="11.384527942464775"><ele>1323.3333333333333</ele><time>2026-05-03T07:57:04.974Z</time></trkpt><trkpt lat="45.95111979775286" lon="11.384338264785944"><ele>1322.6666666666667</ele><time>2026-05-03T07:57:05.974Z</time></trkpt><trkpt lat="45.95112712329425" lon="11.384086612883742"><ele>1322.0</ele><time>2026-05-03T07:57:06.974Z</time></trkpt><trkpt lat="45.95116509341962" lon="11.383823510372812"><ele>1320.0</ele><time>2026-05-03T07:57:07.975Z</time></trkpt><trkpt lat="45.951157499585335" lon="11.383621798790298"><ele>1318.0</ele><time>2026-05-03T07:57:08.975Z</time></trkpt><trkpt lat="45.95112498555436" lon="11.38337065578548"><ele>1316.0</ele><time>2026-05-03T07:57:09.975Z</time></trkpt><trkpt lat="45.95107093478063" lon="11.383120060467592"><ele>1317.5</ele><time>2026-05-03T07:57:10.975Z</time></trkpt><trkpt lat="45.951033532720736" lon="11.38293177782314"><ele>1319.0</ele><time>2026-05-03T07:57:11.974Z</time></trkpt><trkpt lat="45.9510046864619" lon="11.382761043211449"><ele>1320.5</ele><time>2026-05-03T07:57:12.974Z</time></trkpt><trkpt lat="45.95099843369539" lon="11.38258786721368"><ele>1322.0</ele><time>2026-05-03T07:57:13.974Z</time></trkpt><trkpt lat="45.951045357489626" lon="11.382377878670926"><ele>1325.0</ele><time>2026-05-03T07:57:14.974Z</time></trkpt><trkpt lat="45.95112465590166" lon="11.38217475473379"><ele>1328.0</ele><time>2026-05-03T07:57:15.974Z</time></trkpt><trkpt lat="45.95115717153626" lon="11.38195590514488"><ele>1331.0</ele><time>2026-05-03T07:57:16.974Z</time></trkpt><trkpt lat="45.95115587149968" lon="11.381672293070789"><ele>1331.0</ele><time>2026-05-03T07:57:17.974Z</time></trkpt><trkpt lat="45.951189028205924" lon="11.381386684979406"><ele>1331.0</ele><time>2026-05-03T07:57:18.974Z</time></trkpt><trkpt lat="45.951152443135655" lon="11.381110500068493"><ele>1331.0</ele><time>2026-05-03T07:57:19.974Z</time></trkpt><trkpt lat="45.951088550935964" lon="11.380811560633711"><ele>1328.3333333333335</ele><time>2026-05-03T07:57:20.974Z</time></trkpt><trkpt lat="45.950998854237625" lon="11.380532570704261"><ele>1325.6666666666667</ele><time>2026-05-03T07:57:21.974Z</time></trkpt><trkpt lat="45.950881008951534" lon="11.380304762420003"><ele>1323.0</ele><time>2026-05-03T07:57:22.974Z</time></trkpt><trkpt lat="45.950761712333815" lon="11.380137327368741"><ele>1323.0</ele><time>2026-05-03T07:57:23.974Z</time></trkpt><trkpt lat="45.95065125628198" lon="11.38000210480755"><ele>1323.0</ele><time>2026-05-03T07:57:24.974Z</time></trkpt><trkpt lat="45.9505594167883" lon="11.379846918130328"><ele>1323.0</ele><time>2026-05-03T07:57:25.974Z</time></trkpt><trkpt lat="45.95048313954554" lon="11.379647168556561"><ele>1323.0</ele><time>2026-05-03T07:57:26.974Z</time></trkpt><trkpt lat="45.95046960553919" lon="11.379376187854866"><ele>1328.0</ele><time>2026-05-03T07:57:27.974Z</time></trkpt><trkpt lat="45.95043381014093" lon="11.379075636977909"><ele>1333.0</ele><time>2026-05-03T07:57:28.974Z</time></trkpt><trkpt lat="45.95040920527964" lon="11.378769292710402"><ele>1338.0</ele><time>2026-05-03T07:57:29.974Z</time></trkpt><trkpt lat="45.950374855080604" lon="11.37846451544517"><ele>1339.6666666666667</ele><time>2026-05-03T07:57:30.974Z</time></trkpt><trkpt lat="45.950335517461994" lon="11.378155537248174"><ele>1341.3333333333335</ele><time>2026-05-03T07:57:31.974Z</time></trkpt><trkpt lat="45.95033433743224" lon="11.377830586429473"><ele>1343.0</ele><time>2026-05-03T07:57:32.974Z</time></trkpt><trkpt lat="45.95033969138481" lon="11.377492049661454"><ele>1342.0</ele><time>2026-05-03T07:57:33.974Z</time></trkpt><trkpt lat="45.950343555244146" lon="11.377140314435826"><ele>1341.0</ele><time>2026-05-03T07:57:34.974Z</time></trkpt><trkpt lat="45.950341622400536" lon="11.376782550434218"><ele>1341.0</ele><time>2026-05-03T07:57:35.974Z</time></trkpt><trkpt lat="45.95031974583272" lon="11.376407401056593"><ele>1341.0</ele><time>2026-05-03T07:57:36.974Z</time></trkpt><trkpt lat="45.950278437810915" lon="11.376033548165848"><ele>1343.5</ele><time>2026-05-03T07:57:37.974Z</time></trkpt><trkpt lat="45.950293626175345" lon="11.375647945442719"><ele>1346.0</ele><time>2026-05-03T07:57:38.974Z</time></trkpt><trkpt lat="45.95028677826656" lon="11.375230673876754"><ele>1346.0</ele><time>2026-05-03T07:57:39.974Z</time></trkpt><trkpt lat="45.950274590936935" lon="11.374751754432616"><ele>1346.0</ele><time>2026-05-03T07:57:40.974Z</time></trkpt><trkpt lat="45.95022400365797" lon="11.374269941639616"><ele>1348.5</ele><time>2026-05-03T07:57:41.974Z</time></trkpt><trkpt lat="45.95017541357627" lon="11.373819824872712"><ele>1351.0</ele><time>2026-05-03T07:57:42.974Z</time></trkpt><trkpt lat="45.95012833527242" lon="11.37342179318994"><ele>1351.0</ele><time>2026-05-03T07:57:43.974Z</time></trkpt><trkpt lat="45.95009234703492" lon="11.373046777470714"><ele>1351.0</ele><time>2026-05-03T07:57:44.974Z</time></trkpt><trkpt lat="45.95006248067029" lon="11.372703178082299"><ele>1339.5</ele><time>2026-05-03T07:57:45.974Z</time></trkpt><trkpt lat="45.95003325986061" lon="11.37236570938969"><ele>1328.0</ele><time>2026-05-03T07:57:46.974Z</time></trkpt><trkpt lat="45.950010286599486" lon="11.372047601783144"><ele>1328.0</ele><time>2026-05-03T07:57:47.974Z</time></trkpt><trkpt lat="45.94998400197612" lon="11.371729466282913"><ele>1328.0</ele><time>2026-05-03T07:57:48.974Z</time></trkpt><trkpt lat="45.94995354094335" lon="11.371390347314923"><ele>1331.0</ele><time>2026-05-03T07:57:49.974Z</time></trkpt><trkpt lat="45.94992715034596" lon="11.371059054895033"><ele>1334.0</ele><time>2026-05-03T07:57:50.974Z</time></trkpt><trkpt lat="45.949899426047054" lon="11.37075074680833"><ele>1337.0</ele><time>2026-05-03T07:57:51.974Z</time></trkpt><trkpt lat="45.94989381877792" lon="11.37043765954381"><ele>1338.3333333333335</ele><time>2026-05-03T07:57:52.974Z</time></trkpt><trkpt lat="45.94992818095251" lon="11.370124350326204"><ele>1339.6666666666667</ele><time>2026-05-03T07:57:53.974Z</time></trkpt><trkpt lat="45.949954654517775" lon="11.369824899825941"><ele>1341.0</ele><time>2026-05-03T07:57:54.974Z</time></trkpt><trkpt lat="45.949986148311254" lon="11.369493884664278"><ele>1341.0</ele><time>2026-05-03T07:57:55.974Z</time></trkpt><trkpt lat="45.950010507678506" lon="11.369171286241574"><ele>1341.0</ele><time>2026-05-03T07:57:56.974Z</time></trkpt><trkpt lat="45.950028664797436" lon="11.368843291672926"><ele>1341.5</ele><time>2026-05-03T07:57:57.974Z</time></trkpt><trkpt lat="45.95002880317171" lon="11.368496049124257"><ele>1342.0</ele><time>2026-05-03T07:57:58.974Z</time></trkpt><trkpt lat="45.95002893604741" lon="11.368132335068745"><ele>1343.0</ele><time>2026-05-03T07:57:59.974Z</time></trkpt><trkpt lat="45.950038992669064" lon="11.367792466645898"><ele>1344.0</ele><time>2026-05-03T07:58:00.974Z</time></trkpt><trkpt lat="45.95004431066308" lon="11.36746409351601"><ele>1361.5</ele><time>2026-05-03T07:58:01.974Z</time></trkpt><trkpt lat="45.950052367647366" lon="11.367142848005086"><ele>1379.0</ele><time>2026-05-03T07:58:02.974Z</time></trkpt><trkpt lat="45.95006433626129" lon="11.3668099853088"><ele>1379.0</ele><time>2026-05-03T07:58:03.974Z</time></trkpt><trkpt lat="45.95008791706871" lon="11.366474629792785"><ele>1379.0</ele><time>2026-05-03T07:58:04.974Z</time></trkpt><trkpt lat="45.9501303907705" lon="11.366123552328386"><ele>1377.0</ele><time>2026-05-03T07:58:05.974Z</time></trkpt><trkpt lat="45.95020387420758" lon="11.365757722070061"><ele>1375.0</ele><time>2026-05-03T07:58:06.974Z</time></trkpt><trkpt lat="45.95027844060883" lon="11.365389590492091"><ele>1374.0</ele><time>2026-05-03T07:58:07.974Z</time></trkpt><trkpt lat="45.95035501275841" lon="11.365017064499353"><ele>1373.0</ele><time>2026-05-03T07:58:08.974Z</time></trkpt><trkpt lat="45.95046143202925" lon="11.364656231184867"><ele>1369.0</ele><time>2026-05-03T07:58:09.974Z</time></trkpt><trkpt lat="45.95057088289459" lon="11.364289325667734"><ele>1365.0</ele><time>2026-05-03T07:58:10.974Z</time></trkpt><trkpt lat="45.95066899288486" lon="11.36390707688834"><ele>1361.0</ele><time>2026-05-03T07:58:11.974Z</time></trkpt><trkpt lat="45.950762795693336" lon="11.36354303840276"><ele>1357.0</ele><time>2026-05-03T07:58:12.974Z</time></trkpt><trkpt lat="45.95084565077079" lon="11.36318868211218"><ele>1369.5</ele><time>2026-05-03T07:58:13.974Z</time></trkpt><trkpt lat="45.95092485724855" lon="11.36282484753449"><ele>1382.0</ele><time>2026-05-03T07:58:14.974Z</time></trkpt><trkpt lat="45.950987602531846" lon="11.362440868445825"><ele>1379.0</ele><time>2026-05-03T07:58:15.974Z</time></trkpt><trkpt lat="45.951043437444135" lon="11.362056521697935"><ele>1376.0</ele><time>2026-05-03T07:58:16.974Z</time></trkpt><trkpt lat="45.95111015800695" lon="11.361687286127324"><ele>1378.0</ele><time>2026-05-03T07:58:17.974Z</time></trkpt><trkpt lat="45.95118194833787" lon="11.361324017462577"><ele>1380.0</ele><time>2026-05-03T07:58:18.974Z</time></trkpt><trkpt lat="45.95124062135409" lon="11.360960225758147"><ele>1380.0</ele><time>2026-05-03T07:58:19.974Z</time></trkpt><trkpt lat="45.951300867890204" lon="11.360595107327358"><ele>1380.0</ele><time>2026-05-03T07:58:20.974Z</time></trkpt><trkpt lat="45.95136559703638" lon="11.360235324425448"><ele>1378.0</ele><time>2026-05-03T07:58:21.974Z</time></trkpt><trkpt lat="45.95142521427495" lon="11.359902880959368"><ele>1376.0</ele><time>2026-05-03T07:58:22.974Z</time></trkpt><trkpt lat="45.95148181495951" lon="11.359602046337532"><ele>1376.0</ele><time>2026-05-03T07:58:23.974Z</time></trkpt><trkpt lat="45.951529839928035" lon="11.359324303809506"><ele>1376.0</ele><time>2026-05-03T07:58:24.974Z</time></trkpt><trkpt lat="45.95156386756375" lon="11.3590566478255"><ele>1376.0</ele><time>2026-05-03T07:58:25.974Z</time></trkpt><trkpt lat="45.95156742555255" lon="11.358770376011948"><ele>1376.0</ele><time>2026-05-03T07:58:26.974Z</time></trkpt><trkpt lat="45.95150208518985" lon="11.35846936683522"><ele>1376.0</ele><time>2026-05-03T07:58:27.974Z</time></trkpt><trkpt lat="45.95141261474481" lon="11.358204495424847"><ele>1376.0</ele><time>2026-05-03T07:58:28.974Z</time></trkpt><trkpt lat="45.95131593363716" lon="11.358008424290084"><ele>1376.0</ele><time>2026-05-03T07:58:29.974Z</time></trkpt><trkpt lat="45.95124469659173" lon="11.357816108156307"><ele>1376.0</ele><time>2026-05-03T07:58:30.974Z</time></trkpt><trkpt lat="45.95120728559543" lon="11.357659898411208"><ele>1376.0</ele><time>2026-05-03T07:58:31.974Z</time></trkpt><trkpt lat="45.95123143392675" lon="11.357488541270538"><ele>1376.0</ele><time>2026-05-03T07:58:32.973Z</time></trkpt><trkpt lat="45.951316684953625" lon="11.357301672394952"><ele>1376.6666666666667</ele><time>2026-05-03T07:58:33.973Z</time></trkpt><trkpt lat="45.95142626932152" lon="11.357125701571443"><ele>1377.3333333333333</ele><time>2026-05-03T07:58:34.973Z</time></trkpt><trkpt lat="45.95153010348115" lon="11.356963767159645"><ele>1378.0</ele><time>2026-05-03T07:58:35.973Z</time></trkpt><trkpt lat="45.95158984160798" lon="11.356753941580342"><ele>1378.0</ele><time>2026-05-03T07:58:36.973Z</time></trkpt><trkpt lat="45.95161060777389" lon="11.356572854510636"><ele>1378.0</ele><time>2026-05-03T07:58:37.973Z</time></trkpt><trkpt lat="45.95158908384552" lon="11.356416765332295"><ele>1378.0</ele><time>2026-05-03T07:58:38.973Z</time></trkpt><trkpt lat="45.951506693684976" lon="11.356260702839219"><ele>1378.0</ele><time>2026-05-03T07:58:39.973Z</time></trkpt><trkpt lat="45.95140145053417" lon="11.35613842425807"><ele>1379.6666666666665</ele><time>2026-05-03T07:58:40.973Z</time></trkpt><trkpt lat="45.95130139454013" lon="11.356001826144524"><ele>1381.3333333333333</ele><time>2026-05-03T07:58:41.973Z</time></trkpt><trkpt lat="45.951143359163225" lon="11.355848387558215"><ele>1383.0</ele><time>2026-05-03T07:58:42.973Z</time></trkpt><trkpt lat="45.950960838551374" lon="11.355748617544393"><ele>1382.5</ele><time>2026-05-03T07:58:43.973Z</time></trkpt><trkpt lat="45.950834186830576" lon="11.355624707751357"><ele>1382.0</ele><time>2026-05-03T07:58:44.973Z</time></trkpt><trkpt lat="45.95074515015585" lon="11.35547962575568"><ele>1381.5</ele><time>2026-05-03T07:58:45.973Z</time></trkpt><trkpt lat="45.9506725969697" lon="11.35531330733267"><ele>1381.0</ele><time>2026-05-03T07:58:46.973Z</time></trkpt><trkpt lat="45.9506298894419" lon="11.35509529483843"><ele>1381.0</ele><time>2026-05-03T07:58:47.973Z</time></trkpt><trkpt lat="45.95058284879341" lon="11.354848594492601"><ele>1381.0</ele><time>2026-05-03T07:58:48.973Z</time></trkpt><trkpt lat="45.9505165401079" lon="11.354604137131089"><ele>1381.0</ele><time>2026-05-03T07:58:49.973Z</time></trkpt><trkpt lat="45.950442844675045" lon="11.354337293178066"><ele>1382.3333333333333</ele><time>2026-05-03T07:58:50.973Z</time></trkpt><trkpt lat="45.950373120106285" lon="11.354062835130467"><ele>1383.6666666666667</ele><time>2026-05-03T07:58:51.973Z</time></trkpt><trkpt lat="45.950318192535754" lon="11.353812609569008"><ele>1385.0</ele><time>2026-05-03T07:58:52.973Z</time></trkpt><trkpt lat="45.95027865512729" lon="11.353592371298195"><ele>1385.3333333333335</ele><time>2026-05-03T07:58:53.973Z</time></trkpt><trkpt lat="45.95029187848999" lon="11.353356714387656"><ele>1385.6666666666667</ele><time>2026-05-03T07:58:54.973Z</time></trkpt><trkpt lat="45.950361473696255" lon="11.353097820525983"><ele>1386.0</ele><time>2026-05-03T07:58:55.973Z</time></trkpt><trkpt lat="45.950414793937924" lon="11.352840000587596"><ele>1386.0</ele><time>2026-05-03T07:58:56.973Z</time></trkpt><trkpt lat="45.95043572505064" lon="11.352590995703757"><ele>1386.0</ele><time>2026-05-03T07:58:57.973Z</time></trkpt><trkpt lat="45.95040495614607" lon="11.352329924809373"><ele>1386.0</ele><time>2026-05-03T07:58:58.973Z</time></trkpt><trkpt lat="45.950331628220965" lon="11.352081198482596"><ele>1387.6666666666667</ele><time>2026-05-03T07:58:59.973Z</time></trkpt><trkpt lat="45.95021936759697" lon="11.35186221721342"><ele>1389.3333333333335</ele><time>2026-05-03T07:59:00.974Z</time></trkpt><trkpt lat="45.95007746933539" lon="11.351657451192658"><ele>1391.0</ele><time>2026-05-03T07:59:01.974Z</time></trkpt><trkpt lat="45.949959569532375" lon="11.351450478003317"><ele>1389.0</ele><time>2026-05-03T07:59:02.974Z</time></trkpt><trkpt lat="45.94988129329492" lon="11.351299890601545"><ele>1387.0</ele><time>2026-05-03T07:59:03.975Z</time></trkpt><trkpt lat="45.949847724725835" lon="11.351162496582623"><ele>1385.0</ele><time>2026-05-03T07:59:04.974Z</time></trkpt><trkpt lat="45.94990200267742" lon="11.351005502228256"><ele>1383.0</ele><time>2026-05-03T07:59:05.974Z</time></trkpt><trkpt lat="45.949978844254844" lon="11.350832756336022"><ele>1387.0</ele><time>2026-05-03T07:59:06.974Z</time></trkpt><trkpt lat="45.95006491170698" lon="11.350595499774032"><ele>1391.0</ele><time>2026-05-03T07:59:07.974Z</time></trkpt><trkpt lat="45.950176733405065" lon="11.350383001799337"><ele>1395.0</ele><time>2026-05-03T07:59:08.974Z</time></trkpt><trkpt lat="45.950283826356234" lon="11.350127025159024"><ele>1395.0</ele><time>2026-05-03T07:59:09.974Z</time></trkpt><trkpt lat="45.95038341540368" lon="11.349833869143959"><ele>1395.0</ele><time>2026-05-03T07:59:10.974Z</time></trkpt><trkpt lat="45.95045579896823" lon="11.349506101352539"><ele>1395.0</ele><time>2026-05-03T07:59:11.974Z</time></trkpt><trkpt lat="45.950495690298915" lon="11.34915059321463"><ele>1395.0</ele><time>2026-05-03T07:59:12.974Z</time></trkpt><trkpt lat="45.95051006579248" lon="11.348767581773398"><ele>1393.0</ele><time>2026-05-03T07:59:13.974Z</time></trkpt><trkpt lat="45.950526527885955" lon="11.348372104221292"><ele>1391.0</ele><time>2026-05-03T07:59:14.974Z</time></trkpt><trkpt lat="45.95054367803657" lon="11.34800793092421"><ele>1390.6666666666667</ele><time>2026-05-03T07:59:15.974Z</time></trkpt><trkpt lat="45.95055875611346" lon="11.347714491361879"><ele>1390.3333333333333</ele><time>2026-05-03T07:59:16.974Z</time></trkpt><trkpt lat="45.950572121163106" lon="11.347472047190257"><ele>1390.0</ele><time>2026-05-03T07:59:17.974Z</time></trkpt><trkpt lat="45.95062776125634" lon="11.347250932859401"><ele>1390.0</ele><time>2026-05-03T07:59:18.974Z</time></trkpt><trkpt lat="45.950705770818836" lon="11.347055281631695"><ele>1390.0</ele><time>2026-05-03T07:59:19.974Z</time></trkpt><trkpt lat="45.95081995251277" lon="11.346853080839042"><ele>1390.0</ele><time>2026-05-03T07:59:20.974Z</time></trkpt><trkpt lat="45.950951315897306" lon="11.346635253765664"><ele>1391.0</ele><time>2026-05-03T07:59:21.974Z</time></trkpt><trkpt lat="45.951061855579226" lon="11.346432941560886"><ele>1392.0</ele><time>2026-05-03T07:59:22.974Z</time></trkpt><trkpt lat="45.95118331843232" lon="11.346281032311442"><ele>1393.0</ele><time>2026-05-03T07:59:23.974Z</time></trkpt><trkpt lat="45.951314423309874" lon="11.346137766763507"><ele>1393.0</ele><time>2026-05-03T07:59:24.974Z</time></trkpt><trkpt lat="45.951456650485106" lon="11.346002281196577"><ele>1393.0</ele><time>2026-05-03T07:59:25.974Z</time></trkpt><trkpt lat="45.95160805704331" lon="11.345869451292756"><ele>1393.0</ele><time>2026-05-03T07:59:26.974Z</time></trkpt><trkpt lat="45.95175695285429" lon="11.34572729229771"><ele>1394.3333333333333</ele><time>2026-05-03T07:59:27.974Z</time></trkpt><trkpt lat="45.951913657003274" lon="11.345592379256487"><ele>1395.6666666666667</ele><time>2026-05-03T07:59:28.974Z</time></trkpt><trkpt lat="45.95206725375879" lon="11.345428925943438"><ele>1397.0</ele><time>2026-05-03T07:59:29.974Z</time></trkpt><trkpt lat="45.9522194033094" lon="11.345247101429912"><ele>1397.0</ele><time>2026-05-03T07:59:30.974Z</time></trkpt><trkpt lat="45.952369941114206" lon="11.345064554509987"><ele>1397.0</ele><time>2026-05-03T07:59:31.974Z</time></trkpt><trkpt lat="45.95250604923216" lon="11.344899194469622"><ele>1397.0</ele><time>2026-05-03T07:59:32.974Z</time></trkpt><trkpt lat="45.95264833851846" lon="11.344757986295875"><ele>1398.3333333333335</ele><time>2026-05-03T07:59:33.974Z</time></trkpt><trkpt lat="45.952800911924264" lon="11.344642198338033"><ele>1399.6666666666667</ele><time>2026-05-03T07:59:34.974Z</time></trkpt><trkpt lat="45.952947464585215" lon="11.344513608144403"><ele>1401.0</ele><time>2026-05-03T07:59:35.974Z</time></trkpt><trkpt lat="45.953075358782016" lon="11.344392229090305"><ele>1401.0</ele><time>2026-05-03T07:59:36.974Z</time></trkpt><trkpt lat="45.953184965446006" lon="11.344255848145977"><ele>1401.0</ele><time>2026-05-03T07:59:37.974Z</time></trkpt><trkpt lat="45.95325833037707" lon="11.344092290078915"><ele>1401.0</ele><time>2026-05-03T07:59:38.974Z</time></trkpt><trkpt lat="45.95327880353545" lon="11.343915070122298"><ele>1401.0</ele><time>2026-05-03T07:59:39.974Z</time></trkpt><trkpt lat="45.95325466133838" lon="11.343746448293421"><ele>1399.6666666666667</ele><time>2026-05-03T07:59:40.974Z</time></trkpt><trkpt lat="45.95320606089942" lon="11.343558299701293"><ele>1398.3333333333335</ele><time>2026-05-03T07:59:41.974Z</time></trkpt><trkpt lat="45.95314882703672" lon="11.343315751446921"><ele>1397.0</ele><time>2026-05-03T07:59:42.974Z</time></trkpt><trkpt lat="45.95311021317291" lon="11.34305232985249"><ele>1397.0</ele><time>2026-05-03T07:59:43.974Z</time></trkpt><trkpt lat="45.95308852869747" lon="11.342786689765342"><ele>1397.0</ele><time>2026-05-03T07:59:44.974Z</time></trkpt><trkpt lat="45.95310435010785" lon="11.342543091162188"><ele>1397.0</ele><time>2026-05-03T07:59:45.974Z</time></trkpt><trkpt lat="45.9531915971425" lon="11.342323351683884"><ele>1398.0</ele><time>2026-05-03T07:59:46.974Z</time></trkpt><trkpt lat="45.95327575619401" lon="11.342079014739664"><ele>1399.0</ele><time>2026-05-03T07:59:47.974Z</time></trkpt><trkpt lat="45.95336356078913" lon="11.341804443297416"><ele>1400.0</ele><time>2026-05-03T07:59:48.974Z</time></trkpt><trkpt lat="45.95345758650695" lon="11.341547670409062"><ele>1401.6666666666667</ele><time>2026-05-03T07:59:49.974Z</time></trkpt><trkpt lat="45.95354251056468" lon="11.341286216598435"><ele>1403.3333333333333</ele><time>2026-05-03T07:59:50.974Z</time></trkpt><trkpt lat="45.95364484628747" lon="11.341035380547291"><ele>1405.0</ele><time>2026-05-03T07:59:51.974Z</time></trkpt><trkpt lat="45.95378046497258" lon="11.340781337725764"><ele>1406.5</ele><time>2026-05-03T07:59:52.974Z</time></trkpt><trkpt lat="45.95391658893969" lon="11.340518637367785"><ele>1408.0</ele><time>2026-05-03T07:59:53.974Z</time></trkpt><trkpt lat="45.954076374067874" lon="11.340281337061306"><ele>1411.0</ele><time>2026-05-03T07:59:54.974Z</time></trkpt><trkpt lat="45.954227540533395" lon="11.340021109157558"><ele>1414.0</ele><time>2026-05-03T07:59:55.974Z</time></trkpt><trkpt lat="45.95436720265099" lon="11.33978180161133"><ele>1413.0</ele><time>2026-05-03T07:59:56.974Z</time></trkpt><trkpt lat="45.95449168471246" lon="11.339566164205651"><ele>1412.0</ele><time>2026-05-03T07:59:57.974Z</time></trkpt><trkpt lat="45.95460225851033" lon="11.339373946186484"><ele>1411.0</ele><time>2026-05-03T07:59:58.974Z</time></trkpt><trkpt lat="45.954701886356006" lon="11.339185358832212"><ele>1411.0</ele><time>2026-05-03T07:59:59.974Z</time></trkpt><trkpt lat="45.95476885502421" lon="11.338987826026004"><ele>1411.0</ele><time>2026-05-03T08:00:00.974Z</time></trkpt><trkpt lat="45.9547938114841" lon="11.338751277126596"><ele>1411.0</ele><time>2026-05-03T08:00:01.974Z</time></trkpt><trkpt lat="45.95479141185655" lon="11.338508280938571"><ele>1411.25</ele><time>2026-05-03T08:00:02.974Z</time></trkpt><trkpt lat="45.95478615971998" lon="11.338276825603707"><ele>1411.5</ele><time>2026-05-03T08:00:03.974Z</time></trkpt><trkpt lat="45.95478546274432" lon="11.338099346275877"><ele>1411.75</ele><time>2026-05-03T08:00:04.974Z</time></trkpt><trkpt lat="45.95481436343811" lon="11.337921733626949"><ele>1412.0</ele><time>2026-05-03T08:00:05.974Z</time></trkpt><trkpt lat="45.95487258108619" lon="11.337755034496062"><ele>1412.3333333333335</ele><time>2026-05-03T08:00:06.974Z</time></trkpt><trkpt lat="45.954953922052155" lon="11.337570872052531"><ele>1412.6666666666667</ele><time>2026-05-03T08:00:07.974Z</time></trkpt><trkpt lat="45.955041606617165" lon="11.337332393789277"><ele>1413.0</ele><time>2026-05-03T08:00:08.974Z</time></trkpt><trkpt lat="45.95516753441938" lon="11.337071432518536"><ele>1415.0</ele><time>2026-05-03T08:00:09.974Z</time></trkpt><trkpt lat="45.95529268031512" lon="11.336762770755447"><ele>1417.0</ele><time>2026-05-03T08:00:10.974Z</time></trkpt><trkpt lat="45.95542290696" lon="11.33644157753248"><ele>1416.0</ele><time>2026-05-03T08:00:11.974Z</time></trkpt><trkpt lat="45.955552364768565" lon="11.336122281033173"><ele>1415.0</ele><time>2026-05-03T08:00:12.974Z</time></trkpt><trkpt lat="45.95567845953746" lon="11.33579258952991"><ele>1414.5</ele><time>2026-05-03T08:00:13.974Z</time></trkpt><trkpt lat="45.955777971869914" lon="11.335443647871374"><ele>1414.0</ele><time>2026-05-03T08:00:14.974Z</time></trkpt><trkpt lat="45.95587621904484" lon="11.335071998586672"><ele>1416.0</ele><time>2026-05-03T08:00:15.974Z</time></trkpt><trkpt lat="45.9559524997407" lon="11.334706764689168"><ele>1418.0</ele><time>2026-05-03T08:00:16.974Z</time></trkpt><trkpt lat="45.95602802015276" lon="11.334392875517496"><ele>1418.0</ele><time>2026-05-03T08:00:17.974Z</time></trkpt><trkpt lat="45.95608702370591" lon="11.334109690171063"><ele>1418.0</ele><time>2026-05-03T08:00:18.974Z</time></trkpt><trkpt lat="45.95618023207794" lon="11.333840407010975"><ele>1418.0</ele><time>2026-05-03T08:00:19.974Z</time></trkpt><trkpt lat="45.9563095335717" lon="11.333566251811515"><ele>1417.0</ele><time>2026-05-03T08:00:20.974Z</time></trkpt><trkpt lat="45.956427632808776" lon="11.333283898882996"><ele>1416.0</ele><time>2026-05-03T08:00:21.974Z</time></trkpt><trkpt lat="45.95653410388195" lon="11.333037307376445"><ele>1415.0</ele><time>2026-05-03T08:00:22.974Z</time></trkpt><trkpt lat="45.95660768870629" lon="11.332796244676642"><ele>1414.6666666666667</ele><time>2026-05-03T08:00:23.973Z</time></trkpt><trkpt lat="45.95663736813736" lon="11.332514911040139"><ele>1414.3333333333333</ele><time>2026-05-03T08:00:24.973Z</time></trkpt><trkpt lat="45.95664513227568" lon="11.332211913654007"><ele>1414.0</ele><time>2026-05-03T08:00:25.973Z</time></trkpt><trkpt lat="45.95663813273559" lon="11.331950585871033"><ele>1414.5</ele><time>2026-05-03T08:00:26.973Z</time></trkpt><trkpt lat="45.95663159704295" lon="11.331727418800694"><ele>1415.0</ele><time>2026-05-03T08:00:27.973Z</time></trkpt><trkpt lat="45.95662777869273" lon="11.33152603902897"><ele>1415.5</ele><time>2026-05-03T08:00:28.973Z</time></trkpt><trkpt lat="45.956620618403086" lon="11.331345423186725"><ele>1416.0</ele><time>2026-05-03T08:00:29.973Z</time></trkpt><trkpt lat="45.956623063049435" lon="11.331178817603488"><ele>1416.0</ele><time>2026-05-03T08:00:30.973Z</time></trkpt><trkpt lat="45.95661941352662" lon="11.331011311847051"><ele>1416.0</ele><time>2026-05-03T08:00:31.973Z</time></trkpt><trkpt lat="45.95661482505747" lon="11.330849317631873"><ele>1416.0</ele><time>2026-05-03T08:00:32.973Z</time></trkpt><trkpt lat="45.956618880011284" lon="11.330698655728094"><ele>1416.0</ele><time>2026-05-03T08:00:33.973Z</time></trkpt><trkpt lat="45.95661599119429" lon="11.330543998090219"><ele>1416.0</ele><time>2026-05-03T08:00:34.973Z</time></trkpt><trkpt lat="45.956615028375936" lon="11.330398933986814"><ele>1416.4</ele><time>2026-05-03T08:00:35.973Z</time></trkpt><trkpt lat="45.95661617385801" lon="11.330270471137986"><ele>1416.8</ele><time>2026-05-03T08:00:36.973Z</time></trkpt><trkpt lat="45.95662677930483" lon="11.330180835827468"><ele>1417.2</ele><time>2026-05-03T08:00:37.973Z</time></trkpt><trkpt lat="45.95665283485389" lon="11.330016993220385"><ele>1417.6000000000001</ele><time>2026-05-03T08:00:39.973Z</time></trkpt><trkpt lat="45.95668501666214" lon="11.329876929136432"><ele>1418.0</ele><time>2026-05-03T08:00:41.973Z</time></trkpt><trkpt lat="45.956706617063745" lon="11.329756644028608"><ele>1418.3333333333335</ele><time>2026-05-03T08:00:43.973Z</time></trkpt><trkpt lat="45.95671989519606" lon="11.329658257617451"><ele>1418.6666666666667</ele><time>2026-05-03T08:00:45.973Z</time></trkpt><trkpt lat="45.95672279918936" lon="11.329532129179697"><ele>1419.0</ele><time>2026-05-03T08:00:48.973Z</time></trkpt><trkpt lat="45.95672073159505" lon="11.32942789470335"><ele>1419.3333333333333</ele><time>2026-05-03T08:00:51.973Z</time></trkpt><trkpt lat="45.956716438352224" lon="11.329318486534993"><ele>1419.6666666666665</ele><time>2026-05-03T08:00:55.973Z</time></trkpt><trkpt lat="45.956682297817764" lon="11.329241290536263"><ele>1420.0</ele><time>2026-05-03T08:00:58.973Z</time></trkpt><trkpt lat="45.956695909349726" lon="11.329121985768865"><ele>1420.0</ele><time>2026-05-03T08:01:02.973Z</time></trkpt><trkpt lat="45.956679489925584" lon="11.329033583629002"><ele>1420.0</ele><time>2026-05-03T08:01:06.974Z</time></trkpt><trkpt lat="45.95666564106718" lon="11.329164500007225"><ele>1420.0</ele><time>2026-05-03T08:01:13.973Z</time></trkpt><trkpt lat="45.95672963788236" lon="11.32922367461406"><ele>1420.0</ele><time>2026-05-03T08:01:17.974Z</time></trkpt><trkpt lat="45.956802703017196" lon="11.329199765620592"><ele>1420.0</ele><time>2026-05-03T08:09:48.975Z</time></trkpt><trkpt lat="45.95687131577962" lon="11.329215409623819"><ele>1420.0</ele><time>2026-05-03T08:09:54.975Z</time></trkpt><trkpt lat="45.956794773644056" lon="11.32923557745875"><ele>1420.0</ele><time>2026-05-03T08:17:35.973Z</time></trkpt><trkpt lat="45.95674818777568" lon="11.329151196520776"><ele>1420.0</ele><time>2026-05-03T08:18:34.975Z</time></trkpt><trkpt lat="45.95670921893368" lon="11.32907438053113"><ele>1420.0</ele><time>2026-05-03T08:18:38.975Z</time></trkpt><trkpt lat="45.95666774545541" lon="11.328973318283282"><ele>1420.0</ele><time>2026-05-03T08:18:43.975Z</time></trkpt><trkpt lat="45.95662673726805" lon="11.328869900914185"><ele>1420.0</ele><time>2026-05-03T08:18:47.974Z</time></trkpt><trkpt lat="45.95660418110601" lon="11.32877186547708"><ele>1420.0</ele><time>2026-05-03T08:18:49.974Z</time></trkpt><trkpt lat="45.95663281487592" lon="11.328627457283831"><ele>1420.0</ele><time>2026-05-03T08:18:51.974Z</time></trkpt><trkpt lat="45.956657824444505" lon="11.328539945383138"><ele>1420.0</ele><time>2026-05-03T08:18:52.974Z</time></trkpt><trkpt lat="45.956691103131305" lon="11.328446892569154"><ele>1420.0</ele><time>2026-05-03T08:18:53.974Z</time></trkpt><trkpt lat="45.956733743687806" lon="11.3283455646008"><ele>1420.0</ele><time>2026-05-03T08:18:54.974Z</time></trkpt><trkpt lat="45.95678083247225" lon="11.32823387507653"><ele>1420.0</ele><time>2026-05-03T08:18:55.974Z</time></trkpt><trkpt lat="45.956833209256864" lon="11.328116588284997"><ele>1420.0</ele><time>2026-05-03T08:18:56.974Z</time></trkpt><trkpt lat="45.95688809095556" lon="11.32799321160763"><ele>1420.0</ele><time>2026-05-03T08:18:57.974Z</time></trkpt><trkpt lat="45.95695092852494" lon="11.327853475781312"><ele>1420.0</ele><time>2026-05-03T08:18:58.974Z</time></trkpt><trkpt lat="45.95701347489447" lon="11.327708840325332"><ele>1420.0</ele><time>2026-05-03T08:18:59.974Z</time></trkpt><trkpt lat="45.95707499285682" lon="11.327543383917318"><ele>1420.0</ele><time>2026-05-03T08:19:00.974Z</time></trkpt><trkpt lat="45.957133005852086" lon="11.32736324583083"><ele>1419.6666666666665</ele><time>2026-05-03T08:19:01.974Z</time></trkpt><trkpt lat="45.95718003608601" lon="11.32717234308054"><ele>1419.3333333333333</ele><time>2026-05-03T08:19:02.974Z</time></trkpt><trkpt lat="45.95722670831758" lon="11.326962831060984"><ele>1419.0</ele><time>2026-05-03T08:19:03.974Z</time></trkpt><trkpt lat="45.95727264894304" lon="11.326742529610392"><ele>1419.0</ele><time>2026-05-03T08:19:04.974Z</time></trkpt><trkpt lat="45.95731239721601" lon="11.326513500878985"><ele>1419.0</ele><time>2026-05-03T08:19:05.974Z</time></trkpt><trkpt lat="45.95734962012224" lon="11.326266371605113"><ele>1419.0</ele><time>2026-05-03T08:19:06.974Z</time></trkpt><trkpt lat="45.957382932543744" lon="11.32601478036732"><ele>1419.0</ele><time>2026-05-03T08:19:07.974Z</time></trkpt><trkpt lat="45.95741517534891" lon="11.325753666576247"><ele>1419.0</ele><time>2026-05-03T08:19:08.974Z</time></trkpt><trkpt lat="45.95745877748011" lon="11.325499338613986"><ele>1419.0</ele><time>2026-05-03T08:19:09.974Z</time></trkpt><trkpt lat="45.9575139828622" lon="11.325246812260973"><ele>1415.3333333333333</ele><time>2026-05-03T08:19:10.974Z</time></trkpt><trkpt lat="45.95756875587297" lon="11.325007238621618"><ele>1411.6666666666665</ele><time>2026-05-03T08:19:11.974Z</time></trkpt><trkpt lat="45.95764119482954" lon="11.32478656272967"><ele>1408.0</ele><time>2026-05-03T08:19:12.974Z</time></trkpt><trkpt lat="45.957725093845625" lon="11.32456704296536"><ele>1408.0</ele><time>2026-05-03T08:19:13.974Z</time></trkpt><trkpt lat="45.957838753787094" lon="11.324379656092647"><ele>1408.0</ele><time>2026-05-03T08:19:14.974Z</time></trkpt><trkpt lat="45.95795364800633" lon="11.324194636989052"><ele>1408.0</ele><time>2026-05-03T08:19:15.974Z</time></trkpt><trkpt lat="45.95807839066866" lon="11.324005735172722"><ele>1410.6666666666665</ele><time>2026-05-03T08:19:16.974Z</time></trkpt><trkpt lat="45.9582032534957" lon="11.32381912359155"><ele>1413.3333333333333</ele><time>2026-05-03T08:19:17.974Z</time></trkpt><trkpt lat="45.95832748421676" lon="11.323634480328924"><ele>1416.0</ele><time>2026-05-03T08:19:18.974Z</time></trkpt><trkpt lat="45.95843872267727" lon="11.323442728445077"><ele>1410.3333333333333</ele><time>2026-05-03T08:19:19.974Z</time></trkpt><trkpt lat="45.95856826263326" lon="11.323240945058558"><ele>1404.6666666666665</ele><time>2026-05-03T08:19:20.974Z</time></trkpt><trkpt lat="45.9586649447451" lon="11.323058956492435"><ele>1399.0</ele><time>2026-05-03T08:19:21.974Z</time></trkpt><trkpt lat="45.95875278161139" lon="11.322854766734316"><ele>1399.0</ele><time>2026-05-03T08:19:22.974Z</time></trkpt><trkpt lat="45.95882060407245" lon="11.322655140086896"><ele>1399.0</ele><time>2026-05-03T08:19:23.974Z</time></trkpt><trkpt lat="45.95888328230469" lon="11.322446444628264"><ele>1399.0</ele><time>2026-05-03T08:19:24.974Z</time></trkpt><trkpt lat="45.958942388350586" lon="11.322234620706611"><ele>1399.25</ele><time>2026-05-03T08:19:25.974Z</time></trkpt><trkpt lat="45.95896502728367" lon="11.322016582030919"><ele>1399.5</ele><time>2026-05-03T08:19:26.974Z</time></trkpt><trkpt lat="45.95897997879423" lon="11.321814398992421"><ele>1399.75</ele><time>2026-05-03T08:19:27.974Z</time></trkpt><trkpt lat="45.95897982894364" lon="11.321618187422908"><ele>1400.0</ele><time>2026-05-03T08:19:28.974Z</time></trkpt><trkpt lat="45.958967789332156" lon="11.321410080925903"><ele>1399.3333333333335</ele><time>2026-05-03T08:19:29.974Z</time></trkpt><trkpt lat="45.95893868282992" lon="11.321178126946975"><ele>1398.6666666666667</ele><time>2026-05-03T08:19:30.974Z</time></trkpt><trkpt lat="45.95891610417661" lon="11.320938238212923"><ele>1398.0</ele><time>2026-05-03T08:19:31.974Z</time></trkpt><trkpt lat="45.958899003374185" lon="11.320692727532156"><ele>1396.3333333333333</ele><time>2026-05-03T08:19:32.974Z</time></trkpt><trkpt lat="45.958887453943234" lon="11.320441718835776"><ele>1394.6666666666665</ele><time>2026-05-03T08:19:33.974Z</time></trkpt><trkpt lat="45.95891936681466" lon="11.320193176281824"><ele>1393.0</ele><time>2026-05-03T08:19:34.974Z</time></trkpt><trkpt lat="45.95893884517013" lon="11.31994730417347"><ele>1393.3333333333333</ele><time>2026-05-03T08:19:35.974Z</time></trkpt><trkpt lat="45.9589581702641" lon="11.319703366829822"><ele>1393.6666666666667</ele><time>2026-05-03T08:19:36.974Z</time></trkpt><trkpt lat="45.95897192604205" lon="11.319458795338141"><ele>1394.0</ele><time>2026-05-03T08:19:37.974Z</time></trkpt><trkpt lat="45.9589556657393" lon="11.319217181645223"><ele>1394.0</ele><time>2026-05-03T08:19:38.974Z</time></trkpt><trkpt lat="45.95891719732843" lon="11.318974545687041"><ele>1394.0</ele><time>2026-05-03T08:19:39.974Z</time></trkpt><trkpt lat="45.95887954879479" lon="11.318719084262964"><ele>1394.0</ele><time>2026-05-03T08:19:40.974Z</time></trkpt><trkpt lat="45.95886324081894" lon="11.318458233721017"><ele>1392.0</ele><time>2026-05-03T08:19:41.974Z</time></trkpt><trkpt lat="45.95882450384328" lon="11.318212844803105"><ele>1390.0</ele><time>2026-05-03T08:19:42.974Z</time></trkpt><trkpt lat="45.958822763285966" lon="11.317963059082457"><ele>1388.0</ele><time>2026-05-03T08:19:43.974Z</time></trkpt><trkpt lat="45.95882510629393" lon="11.317710138518231"><ele>1387.3333333333335</ele><time>2026-05-03T08:19:44.974Z</time></trkpt><trkpt lat="45.95885313549069" lon="11.31747775740268"><ele>1386.6666666666667</ele><time>2026-05-03T08:19:45.974Z</time></trkpt><trkpt lat="45.95890416083773" lon="11.317232833242993"><ele>1386.0</ele><time>2026-05-03T08:19:46.974Z</time></trkpt><trkpt lat="45.95895864686779" lon="11.317006747714219"><ele>1385.0</ele><time>2026-05-03T08:19:47.974Z</time></trkpt><trkpt lat="45.95901520009315" lon="11.316792601111546"><ele>1384.0</ele><time>2026-05-03T08:19:48.974Z</time></trkpt><trkpt lat="45.95908147322811" lon="11.316596018216694"><ele>1383.0</ele><time>2026-05-03T08:19:49.974Z</time></trkpt><trkpt lat="45.95916377941414" lon="11.316442086666784"><ele>1382.0</ele><time>2026-05-03T08:19:50.974Z</time></trkpt><trkpt lat="45.9592695762004" lon="11.316317341274889"><ele>1382.0</ele><time>2026-05-03T08:19:51.974Z</time></trkpt><trkpt lat="45.959394032758496" lon="11.316222703170807"><ele>1382.0</ele><time>2026-05-03T08:19:52.974Z</time></trkpt><trkpt lat="45.959530596205234" lon="11.316174637219431"><ele>1382.0</ele><time>2026-05-03T08:19:53.974Z</time></trkpt><trkpt lat="45.95969430960271" lon="11.316128159337227"><ele>1382.0</ele><time>2026-05-03T08:19:54.974Z</time></trkpt><trkpt lat="45.959854399627915" lon="11.316082967369661"><ele>1382.0</ele><time>2026-05-03T08:19:55.974Z</time></trkpt><trkpt lat="45.96002356382685" lon="11.31602666214651"><ele>1382.0</ele><time>2026-05-03T08:19:56.974Z</time></trkpt><trkpt lat="45.96018506453544" lon="11.315937280369978"><ele>1382.0</ele><time>2026-05-03T08:19:57.974Z</time></trkpt><trkpt lat="45.96034034906142" lon="11.315814151833868"><ele>1379.6666666666667</ele><time>2026-05-03T08:19:58.974Z</time></trkpt><trkpt lat="45.96051889967899" lon="11.315697535469393"><ele>1377.3333333333333</ele><time>2026-05-03T08:19:59.974Z</time></trkpt><trkpt lat="45.960654728264366" lon="11.315579432622098"><ele>1375.0</ele><time>2026-05-03T08:20:00.975Z</time></trkpt><trkpt lat="45.96075928029355" lon="11.31543308167565"><ele>1374.2</ele><time>2026-05-03T08:20:01.974Z</time></trkpt><trkpt lat="45.960851654557395" lon="11.315313928853895"><ele>1373.4</ele><time>2026-05-03T08:20:02.974Z</time></trkpt><trkpt lat="45.960928007547174" lon="11.315196801807009"><ele>1372.6</ele><time>2026-05-03T08:20:03.975Z</time></trkpt><trkpt lat="45.96101066409769" lon="11.315112840707922"><ele>1371.8</ele><time>2026-05-03T08:20:04.975Z</time></trkpt><trkpt lat="45.961060964553155" lon="11.315026405624282"><ele>1371.0</ele><time>2026-05-03T08:20:05.975Z</time></trkpt><trkpt lat="45.96108373456094" lon="11.314916155575144"><ele>1371.0</ele><time>2026-05-03T08:20:06.974Z</time></trkpt><trkpt lat="45.96107162229569" lon="11.31481487175013"><ele>1371.0</ele><time>2026-05-03T08:20:07.975Z</time></trkpt><trkpt lat="45.96094315036475" lon="11.31472327617476"><ele>1371.0</ele><time>2026-05-03T08:20:09.974Z</time></trkpt><trkpt lat="45.96086917016979" lon="11.314730455296688"><ele>1371.0</ele><time>2026-05-03T08:20:10.974Z</time></trkpt><trkpt lat="45.960801369848504" lon="11.314771961651577"><ele>1371.0</ele><time>2026-05-03T08:20:11.974Z</time></trkpt><trkpt lat="45.96071251978766" lon="11.31483004733708"><ele>1371.0</ele><time>2026-05-03T08:20:12.974Z</time></trkpt><trkpt lat="45.96060798843362" lon="11.314870303700602"><ele>1371.0</ele><time>2026-05-03T08:20:13.974Z</time></trkpt><trkpt lat="45.96049743743879" lon="11.314897980578221"><ele>1371.0</ele><time>2026-05-03T08:20:14.974Z</time></trkpt><trkpt lat="45.960376053404524" lon="11.314904065464658"><ele>1371.0</ele><time>2026-05-03T08:20:15.974Z</time></trkpt><trkpt lat="45.96025131085759" lon="11.314867298116171"><ele>1371.0</ele><time>2026-05-03T08:20:16.974Z</time></trkpt><trkpt lat="45.960133847526556" lon="11.314803683087504"><ele>1371.0</ele><time>2026-05-03T08:20:17.974Z</time></trkpt><trkpt lat="45.9600235886756" lon="11.314709283010142"><ele>1371.0</ele><time>2026-05-03T08:20:18.974Z</time></trkpt><trkpt lat="45.95993981211575" lon="11.314557786757739"><ele>1371.0</ele><time>2026-05-03T08:20:19.974Z</time></trkpt><trkpt lat="45.95987175530549" lon="11.314395890685459"><ele>1367.75</ele><time>2026-05-03T08:20:20.974Z</time></trkpt><trkpt lat="45.95983493633482" lon="11.31421730703041"><ele>1364.5</ele><time>2026-05-03T08:20:21.974Z</time></trkpt><trkpt lat="45.959821821114836" lon="11.314021006329"><ele>1361.25</ele><time>2026-05-03T08:20:22.974Z</time></trkpt><trkpt lat="45.959829712529235" lon="11.313813330908259"><ele>1358.0</ele><time>2026-05-03T08:20:23.974Z</time></trkpt><trkpt lat="45.95983643793305" lon="11.313584964761002"><ele>1357.3333333333335</ele><time>2026-05-03T08:20:24.974Z</time></trkpt><trkpt lat="45.959834987701065" lon="11.313341331738048"><ele>1356.6666666666667</ele><time>2026-05-03T08:20:25.974Z</time></trkpt><trkpt lat="45.95979881943896" lon="11.313094013685712"><ele>1356.0</ele><time>2026-05-03T08:20:26.974Z</time></trkpt><trkpt lat="45.95976486723647" lon="11.312837461150856"><ele>1355.3333333333333</ele><time>2026-05-03T08:20:27.974Z</time></trkpt><trkpt lat="45.95971760831046" lon="11.312570362404122"><ele>1354.6666666666665</ele><time>2026-05-03T08:20:28.974Z</time></trkpt><trkpt lat="45.9596930720233" lon="11.312307648920049"><ele>1354.0</ele><time>2026-05-03T08:20:29.974Z</time></trkpt><trkpt lat="45.959653854477246" lon="11.31205024914725"><ele>1354.0</ele><time>2026-05-03T08:20:30.974Z</time></trkpt><trkpt lat="45.959604646736146" lon="11.311811601035707"><ele>1354.0</ele><time>2026-05-03T08:20:31.974Z</time></trkpt><trkpt lat="45.95959276412339" lon="11.311562396469208"><ele>1354.0</ele><time>2026-05-03T08:20:32.974Z</time></trkpt><trkpt lat="45.95963092188293" lon="11.311311216782288"><ele>1356.0</ele><time>2026-05-03T08:20:33.974Z</time></trkpt><trkpt lat="45.95965555815423" lon="11.311037182738295"><ele>1358.0</ele><time>2026-05-03T08:20:34.974Z</time></trkpt><trkpt lat="45.95969723053031" lon="11.310757749411787"><ele>1360.0</ele><time>2026-05-03T08:20:35.974Z</time></trkpt><trkpt lat="45.95974142134304" lon="11.310471038881916"><ele>1360.0</ele><time>2026-05-03T08:20:36.974Z</time></trkpt><trkpt lat="45.95979385575597" lon="11.31017815887522"><ele>1360.0</ele><time>2026-05-03T08:20:37.974Z</time></trkpt><trkpt lat="45.95986779947765" lon="11.309881208460789"><ele>1360.0</ele><time>2026-05-03T08:20:38.974Z</time></trkpt><trkpt lat="45.95996350149966" lon="11.309591175287803"><ele>1354.6666666666665</ele><time>2026-05-03T08:20:39.974Z</time></trkpt><trkpt lat="45.960039152248264" lon="11.309298245253537"><ele>1349.3333333333333</ele><time>2026-05-03T08:20:40.974Z</time></trkpt><trkpt lat="45.96013213275954" lon="11.309035790682358"><ele>1344.0</ele><time>2026-05-03T08:20:41.974Z</time></trkpt><trkpt lat="45.96021801360375" lon="11.308776368528909"><ele>1343.0</ele><time>2026-05-03T08:20:42.974Z</time></trkpt><trkpt lat="45.960285695811386" lon="11.308508964691294"><ele>1342.0</ele><time>2026-05-03T08:20:43.974Z</time></trkpt><trkpt lat="45.96032701001416" lon="11.308248913661126"><ele>1341.0</ele><time>2026-05-03T08:20:44.974Z</time></trkpt><trkpt lat="45.96038211651739" lon="11.308036221735845"><ele>1340.5</ele><time>2026-05-03T08:20:45.974Z</time></trkpt><trkpt lat="45.96043283596865" lon="11.307859887208965"><ele>1340.0</ele><time>2026-05-03T08:20:46.974Z</time></trkpt><trkpt lat="45.960432856191055" lon="11.307670447954077"><ele>1339.5</ele><time>2026-05-03T08:20:47.974Z</time></trkpt><trkpt lat="45.960375170926234" lon="11.307478340611"><ele>1339.0</ele><time>2026-05-03T08:20:48.974Z</time></trkpt><trkpt lat="45.96032801545855" lon="11.307267469630007"><ele>1339.0</ele><time>2026-05-03T08:20:49.974Z</time></trkpt><trkpt lat="45.96025975867262" lon="11.307032791454057"><ele>1339.0</ele><time>2026-05-03T08:20:50.974Z</time></trkpt><trkpt lat="45.96018689246834" lon="11.306791837815343"><ele>1339.0</ele><time>2026-05-03T08:20:51.974Z</time></trkpt><trkpt lat="45.96008874637353" lon="11.30657337650758"><ele>1343.3333333333333</ele><time>2026-05-03T08:20:52.974Z</time></trkpt><trkpt lat="45.959979358167786" lon="11.306391265792747"><ele>1347.6666666666667</ele><time>2026-05-03T08:20:53.974Z</time></trkpt><trkpt lat="45.959881237150405" lon="11.30624034818596"><ele>1352.0</ele><time>2026-05-03T08:20:54.974Z</time></trkpt><trkpt lat="45.959766476048394" lon="11.306122547158534"><ele>1352.0</ele><time>2026-05-03T08:20:55.974Z</time></trkpt><trkpt lat="45.959632228264255" lon="11.306073391472832"><ele>1352.0</ele><time>2026-05-03T08:20:56.974Z</time></trkpt><trkpt lat="45.95950724528246" lon="11.30601998622904"><ele>1352.0</ele><time>2026-05-03T08:20:57.974Z</time></trkpt><trkpt lat="45.95938810358643" lon="11.305975200122539"><ele>1352.0</ele><time>2026-05-03T08:20:58.974Z</time></trkpt><trkpt lat="45.9592947648457" lon="11.305885691607585"><ele>1352.0</ele><time>2026-05-03T08:20:59.974Z</time></trkpt><trkpt lat="45.95922851254953" lon="11.305714241050842"><ele>1352.0</ele><time>2026-05-03T08:21:00.974Z</time></trkpt><trkpt lat="45.9591642336528" lon="11.305555690717007"><ele>1352.0</ele><time>2026-05-03T08:21:01.974Z</time></trkpt><trkpt lat="45.95913552062067" lon="11.30539410417351"><ele>1352.0</ele><time>2026-05-03T08:21:02.974Z</time></trkpt><trkpt lat="45.959148255864406" lon="11.305223580737545"><ele>1352.3333333333335</ele><time>2026-05-03T08:21:03.974Z</time></trkpt><trkpt lat="45.959160643197386" lon="11.305019827541201"><ele>1352.6666666666667</ele><time>2026-05-03T08:21:04.974Z</time></trkpt><trkpt lat="45.959120478678045" lon="11.304785604795102"><ele>1353.0</ele><time>2026-05-03T08:21:05.974Z</time></trkpt><trkpt lat="45.95906582658644" lon="11.304558771862695"><ele>1353.0</ele><time>2026-05-03T08:21:06.974Z</time></trkpt><trkpt lat="45.9590097263849" lon="11.30432649947996"><ele>1353.0</ele><time>2026-05-03T08:21:07.974Z</time></trkpt><trkpt lat="45.958946675367706" lon="11.304096396732316"><ele>1353.0</ele><time>2026-05-03T08:21:08.974Z</time></trkpt><trkpt lat="45.95883240622436" lon="11.303891740724579"><ele>1350.5</ele><time>2026-05-03T08:21:09.974Z</time></trkpt><trkpt lat="45.9587250488049" lon="11.303713646985102"><ele>1348.0</ele><time>2026-05-03T08:21:10.974Z</time></trkpt><trkpt lat="45.95863053608954" lon="11.303557582659279"><ele>1345.5</ele><time>2026-05-03T08:21:11.974Z</time></trkpt><trkpt lat="45.95853796162046" lon="11.303422764650886"><ele>1343.0</ele><time>2026-05-03T08:21:12.974Z</time></trkpt><trkpt lat="45.958429812444344" lon="11.303359041561551"><ele>1339.4</ele><time>2026-05-03T08:21:13.974Z</time></trkpt><trkpt lat="45.958366522005534" lon="11.303303037189453"><ele>1335.8000000000002</ele><time>2026-05-03T08:21:14.974Z</time></trkpt><trkpt lat="45.95833460482511" lon="11.303154813705358"><ele>1332.2</ele><time>2026-05-03T08:21:16.974Z</time></trkpt><trkpt lat="45.95837093110143" lon="11.303067980632864"><ele>1328.6</ele><time>2026-05-03T08:21:17.974Z</time></trkpt><trkpt lat="45.95846196556676" lon="11.303026849158762"><ele>1325.0</ele><time>2026-05-03T08:21:18.974Z</time></trkpt><trkpt lat="45.95857159918415" lon="11.302984987279654"><ele>1325.0</ele><time>2026-05-03T08:21:19.974Z</time></trkpt><trkpt lat="45.958696489255765" lon="11.302935412019691"><ele>1325.0</ele><time>2026-05-03T08:21:20.974Z</time></trkpt><trkpt lat="45.95883518709754" lon="11.30286821481097"><ele>1325.0</ele><time>2026-05-03T08:21:21.974Z</time></trkpt><trkpt lat="45.95899231526421" lon="11.302788349995577"><ele>1325.0</ele><time>2026-05-03T08:21:22.974Z</time></trkpt><trkpt lat="45.959132064605186" lon="11.30260866181589"><ele>1325.3333333333335</ele><time>2026-05-03T08:21:23.974Z</time></trkpt><trkpt lat="45.95927501926809" lon="11.302430220359813"><ele>1325.6666666666667</ele><time>2026-05-03T08:21:24.974Z</time></trkpt><trkpt lat="45.959427479791" lon="11.302262354404858"><ele>1326.0</ele><time>2026-05-03T08:21:25.973Z</time></trkpt><trkpt lat="45.95956065967704" lon="11.302114622286945"><ele>1322.1999999999998</ele><time>2026-05-03T08:21:26.973Z</time></trkpt><trkpt lat="45.959677494754516" lon="11.301982644794933"><ele>1318.3999999999999</ele><time>2026-05-03T08:21:27.973Z</time></trkpt><trkpt lat="45.95976380266546" lon="11.30189858364234"><ele>1314.6</ele><time>2026-05-03T08:21:28.973Z</time></trkpt><trkpt lat="45.95987964532887" lon="11.301872458410386"><ele>1310.8</ele><time>2026-05-03T08:21:30.973Z</time></trkpt><trkpt lat="45.95994176685057" lon="11.301896707468128"><ele>1307.0</ele><time>2026-05-03T08:21:31.973Z</time></trkpt><trkpt lat="45.96015109650736" lon="11.301959438819"><ele>1299.75</ele><time>2026-05-03T08:21:33.973Z</time></trkpt><trkpt lat="45.960199919876786" lon="11.301729474451848"><ele>1292.5</ele><time>2026-05-03T08:21:34.973Z</time></trkpt><trkpt lat="45.96014749371421" lon="11.30162185001966"><ele>1285.25</ele><time>2026-05-03T08:21:35.973Z</time></trkpt><trkpt lat="45.9601265318424" lon="11.301511391831374"><ele>1278.0</ele><time>2026-05-03T08:21:36.973Z</time></trkpt><trkpt lat="45.96009556838146" lon="11.30135516743678"><ele>1276.6666666666667</ele><time>2026-05-03T08:21:37.973Z</time></trkpt><trkpt lat="45.960051234522496" lon="11.30116739314661"><ele>1275.3333333333335</ele><time>2026-05-03T08:21:38.973Z</time></trkpt><trkpt lat="45.95999444419755" lon="11.300974420145117"><ele>1274.0</ele><time>2026-05-03T08:21:39.973Z</time></trkpt><trkpt lat="45.959913521593556" lon="11.300761033467325"><ele>1278.25</ele><time>2026-05-03T08:21:40.973Z</time></trkpt><trkpt lat="45.95984118190832" lon="11.300564048691728"><ele>1282.5</ele><time>2026-05-03T08:21:41.973Z</time></trkpt><trkpt lat="45.959778637400284" lon="11.300396286000579"><ele>1286.75</ele><time>2026-05-03T08:21:42.973Z</time></trkpt><trkpt lat="45.95977206591209" lon="11.300205029742557"><ele>1291.0</ele><time>2026-05-03T08:21:43.973Z</time></trkpt><trkpt lat="45.95978949278615" lon="11.299998072686908"><ele>1291.0</ele><time>2026-05-03T08:21:44.973Z</time></trkpt><trkpt lat="45.95980180354041" lon="11.29975929553407"><ele>1291.0</ele><time>2026-05-03T08:21:45.973Z</time></trkpt><trkpt lat="45.95982370534729" lon="11.299514031347524"><ele>1291.0</ele><time>2026-05-03T08:21:46.973Z</time></trkpt><trkpt lat="45.95983894601213" lon="11.299286409291726"><ele>1288.5</ele><time>2026-05-03T08:21:47.973Z</time></trkpt><trkpt lat="45.95986968875407" lon="11.299076963840854"><ele>1286.0</ele><time>2026-05-03T08:21:48.973Z</time></trkpt><trkpt lat="45.95991244475118" lon="11.298892748666898"><ele>1283.5</ele><time>2026-05-03T08:21:49.973Z</time></trkpt><trkpt lat="45.95995936537328" lon="11.298724863860404"><ele>1281.0</ele><time>2026-05-03T08:21:50.973Z</time></trkpt><trkpt lat="45.95998332090111" lon="11.298571781662114"><ele>1279.25</ele><time>2026-05-03T08:21:51.973Z</time></trkpt><trkpt lat="45.95997625054867" lon="11.29840599011292"><ele>1277.5</ele><time>2026-05-03T08:21:52.973Z</time></trkpt><trkpt lat="45.959927803222804" lon="11.298261771933532"><ele>1275.75</ele><time>2026-05-03T08:21:53.973Z</time></trkpt><trkpt lat="45.95989318409933" lon="11.298095515648445"><ele>1274.0</ele><time>2026-05-03T08:21:54.973Z</time></trkpt><trkpt lat="45.959888827435414" lon="11.297945593100623"><ele>1272.0</ele><time>2026-05-03T08:21:55.973Z</time></trkpt><trkpt lat="45.95991262734729" lon="11.29781274355662"><ele>1270.0</ele><time>2026-05-03T08:21:56.973Z</time></trkpt><trkpt lat="45.95998533864946" lon="11.297734494750635"><ele>1268.0</ele><time>2026-05-03T08:21:57.973Z</time></trkpt><trkpt lat="45.960088035854966" lon="11.297705271372882"><ele>1266.0</ele><time>2026-05-03T08:21:58.973Z</time></trkpt><trkpt lat="45.96020788504323" lon="11.297730354137856"><ele>1264.0</ele><time>2026-05-03T08:21:59.973Z</time></trkpt><trkpt lat="45.960344947519424" lon="11.297757152401635"><ele>1262.6666666666665</ele><time>2026-05-03T08:22:00.973Z</time></trkpt><trkpt lat="45.96050621037146" lon="11.2977656045347"><ele>1261.3333333333333</ele><time>2026-05-03T08:22:01.973Z</time></trkpt><trkpt lat="45.96067271886523" lon="11.297727617886336"><ele>1260.0</ele><time>2026-05-03T08:22:02.973Z</time></trkpt><trkpt lat="45.96084774468769" lon="11.297666572082028"><ele>1258.0</ele><time>2026-05-03T08:22:03.973Z</time></trkpt><trkpt lat="45.961012904885266" lon="11.297595781672985"><ele>1256.0</ele><time>2026-05-03T08:22:04.973Z</time></trkpt><trkpt lat="45.96117421299105" lon="11.297526370359705"><ele>1254.0</ele><time>2026-05-03T08:22:05.973Z</time></trkpt><trkpt lat="45.96132826490379" lon="11.29747640543921"><ele>1254.0</ele><time>2026-05-03T08:22:06.974Z</time></trkpt><trkpt lat="45.961475493316186" lon="11.297428355709457"><ele>1254.0</ele><time>2026-05-03T08:22:07.973Z</time></trkpt><trkpt lat="45.96163546528504" lon="11.297379849842674"><ele>1254.0</ele><time>2026-05-03T08:22:08.973Z</time></trkpt><trkpt lat="45.961801268573836" lon="11.297348152051121"><ele>1254.3333333333333</ele><time>2026-05-03T08:22:09.974Z</time></trkpt><trkpt lat="45.96196645870225" lon="11.297333298517705"><ele>1254.6666666666665</ele><time>2026-05-03T08:22:10.973Z</time></trkpt><trkpt lat="45.9621416043116" lon="11.297338213820902"><ele>1255.0</ele><time>2026-05-03T08:22:11.973Z</time></trkpt><trkpt lat="45.962325076698725" lon="11.297355018631242"><ele>1255.0</ele><time>2026-05-03T08:22:12.974Z</time></trkpt><trkpt lat="45.9625179910076" lon="11.297387452620956"><ele>1255.0</ele><time>2026-05-03T08:22:13.973Z</time></trkpt><trkpt lat="45.96270732645583" lon="11.297447047032978"><ele>1255.0</ele><time>2026-05-03T08:22:14.973Z</time></trkpt><trkpt lat="45.96289680199473" lon="11.297442218611506"><ele>1256.6666666666665</ele><time>2026-05-03T08:22:15.974Z</time></trkpt><trkpt lat="45.96307046329148" lon="11.297421170860748"><ele>1258.3333333333333</ele><time>2026-05-03T08:22:16.973Z</time></trkpt><trkpt lat="45.96324908254852" lon="11.297347794283828"><ele>1260.0</ele><time>2026-05-03T08:22:17.973Z</time></trkpt><trkpt lat="45.963412663865206" lon="11.29726907294235"><ele>1263.0</ele><time>2026-05-03T08:22:18.974Z</time></trkpt><trkpt lat="45.96355720229184" lon="11.29718662504231"><ele>1266.0</ele><time>2026-05-03T08:22:19.974Z</time></trkpt><trkpt lat="45.96367843632466" lon="11.29710543453403"><ele>1269.0</ele><time>2026-05-03T08:22:20.974Z</time></trkpt><trkpt lat="45.96376528841002" lon="11.29704022266723"><ele>1272.0</ele><time>2026-05-03T08:22:21.974Z</time></trkpt><trkpt lat="45.963827598559284" lon="11.296935936079196"><ele>1272.0</ele><time>2026-05-03T08:22:22.974Z</time></trkpt><trkpt lat="45.96387137169705" lon="11.296783822580887"><ele>1272.0</ele><time>2026-05-03T08:22:23.974Z</time></trkpt><trkpt lat="45.96391499435441" lon="11.296586517689663"><ele>1272.0</ele><time>2026-05-03T08:22:24.974Z</time></trkpt><trkpt lat="45.96395660734474" lon="11.29639372910218"><ele>1272.0</ele><time>2026-05-03T08:22:25.974Z</time></trkpt><trkpt lat="45.96399614989694" lon="11.296244375077334"><ele>1270.25</ele><time>2026-05-03T08:22:26.974Z</time></trkpt><trkpt lat="45.96399179314508" lon="11.296093141501608"><ele>1268.5</ele><time>2026-05-03T08:22:27.974Z</time></trkpt><trkpt lat="45.96394097811177" lon="11.295934119999334"><ele>1266.75</ele><time>2026-05-03T08:22:28.974Z</time></trkpt><trkpt lat="45.96386164081404" lon="11.295761428759754"><ele>1265.0</ele><time>2026-05-03T08:22:29.974Z</time></trkpt><trkpt lat="45.9637803662248" lon="11.29555961943475"><ele>1265.0</ele><time>2026-05-03T08:22:30.974Z</time></trkpt><trkpt lat="45.96371594025837" lon="11.295314750599216"><ele>1265.0</ele><time>2026-05-03T08:22:31.974Z</time></trkpt><trkpt lat="45.963652554819554" lon="11.295070882890343"><ele>1265.0</ele><time>2026-05-03T08:22:32.974Z</time></trkpt><trkpt lat="45.963581043480445" lon="11.294867697473938"><ele>1266.5</ele><time>2026-05-03T08:22:33.974Z</time></trkpt><trkpt lat="45.96350089188756" lon="11.294702232326236"><ele>1268.0</ele><time>2026-05-03T08:22:34.974Z</time></trkpt><trkpt lat="45.96338446843361" lon="11.294594587718183"><ele>1269.5</ele><time>2026-05-03T08:22:35.974Z</time></trkpt><trkpt lat="45.963227999050034" lon="11.2945010993863"><ele>1271.0</ele><time>2026-05-03T08:22:36.974Z</time></trkpt><trkpt lat="45.963045197729116" lon="11.294416005748277"><ele>1271.0</ele><time>2026-05-03T08:22:37.974Z</time></trkpt><trkpt lat="45.96285153790827" lon="11.294333285633053"><ele>1271.0</ele><time>2026-05-03T08:22:38.974Z</time></trkpt><trkpt lat="45.962645935784806" lon="11.294222454657056"><ele>1271.0</ele><time>2026-05-03T08:22:39.974Z</time></trkpt><trkpt lat="45.962441593846606" lon="11.294074000438409"><ele>1277.5</ele><time>2026-05-03T08:22:40.974Z</time></trkpt><trkpt lat="45.96222396968238" lon="11.293911585216406"><ele>1284.0</ele><time>2026-05-03T08:22:41.974Z</time></trkpt><trkpt lat="45.96201467731779" lon="11.29373953202011"><ele>1284.0</ele><time>2026-05-03T08:22:42.974Z</time></trkpt><trkpt lat="45.96182305035055" lon="11.293562206366392"><ele>1284.0</ele><time>2026-05-03T08:22:43.974Z</time></trkpt><trkpt lat="45.96163743742849" lon="11.293422246961654"><ele>1284.0</ele><time>2026-05-03T08:22:44.974Z</time></trkpt><trkpt lat="45.961440390827214" lon="11.293299049805997"><ele>1286.0</ele><time>2026-05-03T08:22:45.974Z</time></trkpt><trkpt lat="45.96126712904737" lon="11.293179681379103"><ele>1288.0</ele><time>2026-05-03T08:22:46.974Z</time></trkpt><trkpt lat="45.96110065082342" lon="11.293084118779229"><ele>1290.0</ele><time>2026-05-03T08:22:47.974Z</time></trkpt><trkpt lat="45.960946895224396" lon="11.293006178431959"><ele>1282.0</ele><time>2026-05-03T08:22:48.974Z</time></trkpt><trkpt lat="45.96076832486885" lon="11.292995975510166"><ele>1274.0</ele><time>2026-05-03T08:22:49.974Z</time></trkpt><trkpt lat="45.96057793297398" lon="11.293031057324836"><ele>1266.0</ele><time>2026-05-03T08:22:50.974Z</time></trkpt><trkpt lat="45.960380998777275" lon="11.293083215801882"><ele>1258.3333333333333</ele><time>2026-05-03T08:22:51.974Z</time></trkpt><trkpt lat="45.960175275033954" lon="11.29313962450092"><ele>1250.6666666666665</ele><time>2026-05-03T08:22:52.974Z</time></trkpt><trkpt lat="45.95997200497665" lon="11.293186786564952"><ele>1243.0</ele><time>2026-05-03T08:22:53.974Z</time></trkpt><trkpt lat="45.959789680000966" lon="11.293215816167347"><ele>1242.75</ele><time>2026-05-03T08:22:54.974Z</time></trkpt><trkpt lat="45.95962638331799" lon="11.293256193913708"><ele>1242.5</ele><time>2026-05-03T08:22:55.974Z</time></trkpt><trkpt lat="45.959488102686656" lon="11.293283472550806"><ele>1242.25</ele><time>2026-05-03T08:22:56.974Z</time></trkpt><trkpt lat="45.959360238522024" lon="11.293264924747165"><ele>1242.0</ele><time>2026-05-03T08:22:57.974Z</time></trkpt><trkpt lat="45.95923406147445" lon="11.293202706370911"><ele>1240.75</ele><time>2026-05-03T08:22:58.974Z</time></trkpt><trkpt lat="45.95910104364243" lon="11.29311288437661"><ele>1239.5</ele><time>2026-05-03T08:22:59.974Z</time></trkpt><trkpt lat="45.9590028685535" lon="11.293047416444217"><ele>1238.25</ele><time>2026-05-03T08:23:00.974Z</time></trkpt><trkpt lat="45.95885672174037" lon="11.292943479942528"><ele>1237.0</ele><time>2026-05-03T08:23:01.974Z</time></trkpt><trkpt lat="45.95868949228889" lon="11.292827693700238"><ele>1241.3333333333333</ele><time>2026-05-03T08:23:02.974Z</time></trkpt><trkpt lat="45.958514417154376" lon="11.29274314145471"><ele>1245.6666666666667</ele><time>2026-05-03T08:23:03.974Z</time></trkpt><trkpt lat="45.958336153694745" lon="11.292666643896737"><ele>1250.0</ele><time>2026-05-03T08:23:04.973Z</time></trkpt><trkpt lat="45.958171320150214" lon="11.292609220815333"><ele>1250.0</ele><time>2026-05-03T08:23:05.973Z</time></trkpt><trkpt lat="45.95801413231549" lon="11.292543437535803"><ele>1250.0</ele><time>2026-05-03T08:23:06.973Z</time></trkpt><trkpt lat="45.95785331102965" lon="11.292463401711613"><ele>1250.0</ele><time>2026-05-03T08:23:07.973Z</time></trkpt><trkpt lat="45.95772876912823" lon="11.292332327642008"><ele>1248.25</ele><time>2026-05-03T08:23:08.973Z</time></trkpt><trkpt lat="45.95759844485277" lon="11.292239594485881"><ele>1246.5</ele><time>2026-05-03T08:23:09.973Z</time></trkpt><trkpt lat="45.95745871760582" lon="11.292184802356372"><ele>1244.75</ele><time>2026-05-03T08:23:10.973Z</time></trkpt><trkpt lat="45.957305518260085" lon="11.292219212918045"><ele>1243.0</ele><time>2026-05-03T08:23:11.973Z</time></trkpt><trkpt lat="45.95716523249418" lon="11.2923105286489"><ele>1243.0</ele><time>2026-05-03T08:23:12.973Z</time></trkpt><trkpt lat="45.95699873320736" lon="11.29236661266589"><ele>1243.0</ele><time>2026-05-03T08:23:13.973Z</time></trkpt><trkpt lat="45.956829493712384" lon="11.29244394805047"><ele>1243.0</ele><time>2026-05-03T08:23:14.973Z</time></trkpt><trkpt lat="45.956651933296094" lon="11.292525003474953"><ele>1244.3333333333333</ele><time>2026-05-03T08:23:15.973Z</time></trkpt><trkpt lat="45.95647036972874" lon="11.29260814727702"><ele>1245.6666666666667</ele><time>2026-05-03T08:23:16.973Z</time></trkpt><trkpt lat="45.95629062978378" lon="11.292693619692272"><ele>1247.0</ele><time>2026-05-03T08:23:17.973Z</time></trkpt><trkpt lat="45.956134606073135" lon="11.29277091652455"><ele>1247.0</ele><time>2026-05-03T08:23:18.973Z</time></trkpt><trkpt lat="45.955967948256294" lon="11.292857444446696"><ele>1247.0</ele><time>2026-05-03T08:23:19.973Z</time></trkpt><trkpt lat="45.95581897857865" lon="11.292935724488988"><ele>1247.0</ele><time>2026-05-03T08:23:20.973Z</time></trkpt><trkpt lat="45.9556928321861" lon="11.29300075814469"><ele>1249.25</ele><time>2026-05-03T08:23:21.973Z</time></trkpt><trkpt lat="45.95558867946996" lon="11.2930700603982"><ele>1251.5</ele><time>2026-05-03T08:23:22.973Z</time></trkpt><trkpt lat="45.95549829686942" lon="11.293195394351116"><ele>1253.75</ele><time>2026-05-03T08:23:23.973Z</time></trkpt><trkpt lat="45.95544820396242" lon="11.293379018194363"><ele>1256.0</ele><time>2026-05-03T08:23:24.973Z</time></trkpt><trkpt lat="45.955364669283234" lon="11.293551477659918"><ele>1252.3333333333335</ele><time>2026-05-03T08:23:25.973Z</time></trkpt><trkpt lat="45.95522534938178" lon="11.293640961837095"><ele>1248.6666666666667</ele><time>2026-05-03T08:23:26.973Z</time></trkpt><trkpt lat="45.95507009797652" lon="11.293736033061922"><ele>1245.0</ele><time>2026-05-03T08:23:27.973Z</time></trkpt><trkpt lat="45.95490203290741" lon="11.293860472970211"><ele>1239.0</ele><time>2026-05-03T08:23:28.973Z</time></trkpt><trkpt lat="45.954760564299555" lon="11.294003173017579"><ele>1233.0</ele><time>2026-05-03T08:23:29.973Z</time></trkpt><trkpt lat="45.954638004408245" lon="11.294160267139988"><ele>1227.0</ele><time>2026-05-03T08:23:30.973Z</time></trkpt><trkpt lat="45.95451762476805" lon="11.294264079813205"><ele>1227.0</ele><time>2026-05-03T08:23:31.973Z</time></trkpt><trkpt lat="45.95439670501241" lon="11.294350160578151"><ele>1227.0</ele><time>2026-05-03T08:23:32.973Z</time></trkpt><trkpt lat="45.95430493828975" lon="11.294462453096111"><ele>1227.0</ele><time>2026-05-03T08:23:33.973Z</time></trkpt><trkpt lat="45.95417365343405" lon="11.294534959290543"><ele>1227.0</ele><time>2026-05-03T08:23:34.973Z</time></trkpt><trkpt lat="45.95403129202785" lon="11.294538901415693"><ele>1229.6666666666667</ele><time>2026-05-03T08:23:35.973Z</time></trkpt><trkpt lat="45.95387061356406" lon="11.294545410708682"><ele>1232.3333333333335</ele><time>2026-05-03T08:23:36.973Z</time></trkpt><trkpt lat="45.95370017235832" lon="11.294546451979752"><ele>1235.0</ele><time>2026-05-03T08:23:37.973Z</time></trkpt><trkpt lat="45.95351695564929" lon="11.294547474716326"><ele>1236.6666666666667</ele><time>2026-05-03T08:23:38.973Z</time></trkpt><trkpt lat="45.95332371128053" lon="11.294571257316433"><ele>1238.3333333333333</ele><time>2026-05-03T08:23:39.973Z</time></trkpt><trkpt lat="45.95311595370499" lon="11.294579092183257"><ele>1240.0</ele><time>2026-05-03T08:23:40.973Z</time></trkpt><trkpt lat="45.95289860548064" lon="11.294583534321024"><ele>1240.0</ele><time>2026-05-03T08:23:41.973Z</time></trkpt><trkpt lat="45.95268978505175" lon="11.294579198099424"><ele>1240.0</ele><time>2026-05-03T08:23:42.973Z</time></trkpt><trkpt lat="45.952483007609324" lon="11.294575230719246"><ele>1240.0</ele><time>2026-05-03T08:23:43.973Z</time></trkpt><trkpt lat="45.95226354264843" lon="11.294579957753337"><ele>1240.5</ele><time>2026-05-03T08:23:44.973Z</time></trkpt><trkpt lat="45.9520346076447" lon="11.29459798477821"><ele>1241.0</ele><time>2026-05-03T08:23:45.973Z</time></trkpt><trkpt lat="45.951791185531164" lon="11.294610823083302"><ele>1240.5</ele><time>2026-05-03T08:23:46.973Z</time></trkpt><trkpt lat="45.951557255922175" lon="11.294604113309486"><ele>1240.0</ele><time>2026-05-03T08:23:47.973Z</time></trkpt><trkpt lat="45.95132590882391" lon="11.29461623893445"><ele>1240.0</ele><time>2026-05-03T08:23:48.973Z</time></trkpt><trkpt lat="45.95110514887064" lon="11.294633942811283"><ele>1240.0</ele><time>2026-05-03T08:23:49.973Z</time></trkpt><trkpt lat="45.95089543109284" lon="11.294688221587307"><ele>1240.0</ele><time>2026-05-03T08:23:50.973Z</time></trkpt><trkpt lat="45.950682094746966" lon="11.29474542797333"><ele>1241.3333333333333</ele><time>2026-05-03T08:23:51.973Z</time></trkpt><trkpt lat="45.950464376721065" lon="11.294807966563706"><ele>1242.6666666666667</ele><time>2026-05-03T08:23:52.973Z</time></trkpt><trkpt lat="45.950252083740864" lon="11.294858313763616"><ele>1244.0</ele><time>2026-05-03T08:23:53.973Z</time></trkpt><trkpt lat="45.950039854638696" lon="11.294900735094664"><ele>1244.0</ele><time>2026-05-03T08:23:54.973Z</time></trkpt><trkpt lat="45.949833840279" lon="11.294962424464225"><ele>1244.0</ele><time>2026-05-03T08:23:55.973Z</time></trkpt><trkpt lat="45.949644079883946" lon="11.295057111311085"><ele>1244.0</ele><time>2026-05-03T08:23:56.973Z</time></trkpt><trkpt lat="45.949457427509316" lon="11.295200438572916"><ele>1244.0</ele><time>2026-05-03T08:23:57.973Z</time></trkpt><trkpt lat="45.949268961579484" lon="11.295326658206832"><ele>1244.0</ele><time>2026-05-03T08:23:58.973Z</time></trkpt><trkpt lat="45.94906180853612" lon="11.295424164569024"><ele>1244.0</ele><time>2026-05-03T08:23:59.973Z</time></trkpt><trkpt lat="45.948880138879105" lon="11.295489751752608"><ele>1242.3333333333335</ele><time>2026-05-03T08:24:00.973Z</time></trkpt><trkpt lat="45.948703456018755" lon="11.29556918248923"><ele>1240.6666666666667</ele><time>2026-05-03T08:24:01.973Z</time></trkpt><trkpt lat="45.94854144170647" lon="11.295643007066829"><ele>1239.0</ele><time>2026-05-03T08:24:02.973Z</time></trkpt><trkpt lat="45.948376615825026" lon="11.295684678559349"><ele>1241.0</ele><time>2026-05-03T08:24:03.973Z</time></trkpt><trkpt lat="45.948201836032034" lon="11.295697344148245"><ele>1243.0</ele><time>2026-05-03T08:24:04.973Z</time></trkpt><trkpt lat="45.9480159316858" lon="11.295655088667651"><ele>1245.0</ele><time>2026-05-03T08:24:05.973Z</time></trkpt><trkpt lat="45.9478290934942" lon="11.295587416266274"><ele>1249.0</ele><time>2026-05-03T08:24:06.973Z</time></trkpt><trkpt lat="45.94762954959765" lon="11.295518081879006"><ele>1253.0</ele><time>2026-05-03T08:24:07.973Z</time></trkpt><trkpt lat="45.94744365823095" lon="11.295397550771312"><ele>1257.0</ele><time>2026-05-03T08:24:08.973Z</time></trkpt><trkpt lat="45.947262553322304" lon="11.295262391122272"><ele>1257.0</ele><time>2026-05-03T08:24:09.973Z</time></trkpt><trkpt lat="45.94711225702506" lon="11.295139954378095"><ele>1257.0</ele><time>2026-05-03T08:24:10.973Z</time></trkpt><trkpt lat="45.946989308304595" lon="11.294992284367106"><ele>1257.0</ele><time>2026-05-03T08:24:11.973Z</time></trkpt><trkpt lat="45.946859535591024" lon="11.294803057821797"><ele>1259.3333333333333</ele><time>2026-05-03T08:24:12.974Z</time></trkpt><trkpt lat="45.9467290284862" lon="11.294607481579593"><ele>1261.6666666666665</ele><time>2026-05-03T08:24:13.974Z</time></trkpt><trkpt lat="45.946601434642744" lon="11.294410756644849"><ele>1264.0</ele><time>2026-05-03T08:24:14.974Z</time></trkpt><trkpt lat="45.94648886492357" lon="11.2942125091173"><ele>1264.0</ele><time>2026-05-03T08:24:15.973Z</time></trkpt><trkpt lat="45.94639040580435" lon="11.294029297792518"><ele>1264.0</ele><time>2026-05-03T08:24:16.973Z</time></trkpt><trkpt lat="45.9462752805973" lon="11.293910509442938"><ele>1264.0</ele><time>2026-05-03T08:24:17.973Z</time></trkpt><trkpt lat="45.94616251993852" lon="11.293811983107423"><ele>1264.0</ele><time>2026-05-03T08:24:18.974Z</time></trkpt><trkpt lat="45.94607449379925" lon="11.293724308832923"><ele>1265.75</ele><time>2026-05-03T08:24:19.974Z</time></trkpt><trkpt lat="45.94603309613578" lon="11.293603989467737"><ele>1267.5</ele><time>2026-05-03T08:24:20.974Z</time></trkpt><trkpt lat="45.946042615433036" lon="11.293441403562744"><ele>1269.25</ele><time>2026-05-03T08:24:21.973Z</time></trkpt><trkpt lat="45.94608668177348" lon="11.293269162705409"><ele>1271.0</ele><time>2026-05-03T08:24:22.973Z</time></trkpt><trkpt lat="45.94613348333731" lon="11.293075041512996"><ele>1273.6666666666667</ele><time>2026-05-03T08:24:23.973Z</time></trkpt><trkpt lat="45.94617439016776" lon="11.292852423884284"><ele>1276.3333333333333</ele><time>2026-05-03T08:24:24.974Z</time></trkpt><trkpt lat="45.94619574155427" lon="11.292616160684176"><ele>1279.0</ele><time>2026-05-03T08:24:25.974Z</time></trkpt><trkpt lat="45.94619386837688" lon="11.292407706086799"><ele>1279.4</ele><time>2026-05-03T08:24:26.974Z</time></trkpt><trkpt lat="45.94618128678454" lon="11.292248934516472"><ele>1279.8000000000002</ele><time>2026-05-03T08:24:27.974Z</time></trkpt><trkpt lat="45.946140814517115" lon="11.292133975762264"><ele>1280.1999999999998</ele><time>2026-05-03T08:24:28.974Z</time></trkpt><trkpt lat="45.94606793443912" lon="11.292044363789604"><ele>1280.6</ele><time>2026-05-03T08:24:29.974Z</time></trkpt><trkpt lat="45.945946479703096" lon="11.292023580568705"><ele>1281.0</ele><time>2026-05-03T08:24:30.974Z</time></trkpt><trkpt lat="45.94581576832259" lon="11.29203149954275"><ele>1277.75</ele><time>2026-05-03T08:24:31.974Z</time></trkpt><trkpt lat="45.94569868049284" lon="11.29201926654553"><ele>1274.5</ele><time>2026-05-03T08:24:32.974Z</time></trkpt><trkpt lat="45.945602149621614" lon="11.29193758355058"><ele>1271.25</ele><time>2026-05-03T08:24:33.974Z</time></trkpt><trkpt lat="45.94550516539256" lon="11.291800194029777"><ele>1268.0</ele><time>2026-05-03T08:24:34.974Z</time></trkpt><trkpt lat="45.945386956453795" lon="11.29166943811731"><ele>1268.0</ele><time>2026-05-03T08:24:35.974Z</time></trkpt><trkpt lat="45.945240595704085" lon="11.291639944221897"><ele>1268.0</ele><time>2026-05-03T08:24:36.974Z</time></trkpt><trkpt lat="45.945121763376264" lon="11.291707841647126"><ele>1268.0</ele><time>2026-05-03T08:24:37.974Z</time></trkpt><trkpt lat="45.94501807068369" lon="11.291828880013695"><ele>1268.0</ele><time>2026-05-03T08:24:38.974Z</time></trkpt><trkpt lat="45.94489157764586" lon="11.291933837656526"><ele>1270.6666666666667</ele><time>2026-05-03T08:24:39.975Z</time></trkpt><trkpt lat="45.944749726511425" lon="11.29200283596332"><ele>1273.3333333333333</ele><time>2026-05-03T08:24:40.975Z</time></trkpt><trkpt lat="45.944576849781406" lon="11.292068241868018"><ele>1276.0</ele><time>2026-05-03T08:24:41.975Z</time></trkpt><trkpt lat="45.94438334435431" lon="11.292132795058812"><ele>1273.3333333333333</ele><time>2026-05-03T08:24:42.975Z</time></trkpt><trkpt lat="45.94418453119006" lon="11.292174031636343"><ele>1270.6666666666667</ele><time>2026-05-03T08:24:43.975Z</time></trkpt><trkpt lat="45.94397736550084" lon="11.292226217383602"><ele>1268.0</ele><time>2026-05-03T08:24:44.975Z</time></trkpt><trkpt lat="45.94377863250014" lon="11.292337021201893"><ele>1268.0</ele><time>2026-05-03T08:24:45.975Z</time></trkpt><trkpt lat="45.943596777527176" lon="11.292417476894043"><ele>1268.0</ele><time>2026-05-03T08:24:46.975Z</time></trkpt><trkpt lat="45.943429275672855" lon="11.292482032884154"><ele>1268.0</ele><time>2026-05-03T08:24:47.975Z</time></trkpt><trkpt lat="45.94327560724296" lon="11.292603089178488"><ele>1271.5</ele><time>2026-05-03T08:24:48.975Z</time></trkpt><trkpt lat="45.94315710341947" lon="11.292772601103069"><ele>1275.0</ele><time>2026-05-03T08:24:49.975Z</time></trkpt><trkpt lat="45.94303553653574" lon="11.292860352027771"><ele>1278.5</ele><time>2026-05-03T08:24:50.975Z</time></trkpt><trkpt lat="45.94293367798287" lon="11.292909285746454"><ele>1282.0</ele><time>2026-05-03T08:24:51.975Z</time></trkpt><trkpt lat="45.94282281031952" lon="11.29290204627697"><ele>1282.0</ele><time>2026-05-03T08:24:52.975Z</time></trkpt><trkpt lat="45.942677084357896" lon="11.292860987862209"><ele>1282.0</ele><time>2026-05-03T08:24:53.975Z</time></trkpt><trkpt lat="45.94250008267138" lon="11.292837452411666"><ele>1282.0</ele><time>2026-05-03T08:24:54.975Z</time></trkpt><trkpt lat="45.94230594451638" lon="11.292915190883148"><ele>1284.0</ele><time>2026-05-03T08:24:55.975Z</time></trkpt><trkpt lat="45.94212470957299" lon="11.29303538296839"><ele>1286.0</ele><time>2026-05-03T08:24:56.975Z</time></trkpt><trkpt lat="45.941951479065" lon="11.293103628139727"><ele>1288.0</ele><time>2026-05-03T08:24:57.975Z</time></trkpt><trkpt lat="45.941841630712176" lon="11.293116554197374"><ele>1287.8333333333333</ele><time>2026-05-03T08:24:58.975Z</time></trkpt><trkpt lat="45.94175384061882" lon="11.293104077661843"><ele>1287.6666666666665</ele><time>2026-05-03T08:24:59.975Z</time></trkpt><trkpt lat="45.94168022302688" lon="11.293043918784498"><ele>1287.5</ele><time>2026-05-03T08:25:00.975Z</time></trkpt><trkpt lat="45.94162188803909" lon="11.292973356567126"><ele>1287.3333333333333</ele><time>2026-05-03T08:25:01.975Z</time></trkpt><trkpt lat="45.941590071575625" lon="11.292868418699845"><ele>1287.1666666666667</ele><time>2026-05-03T08:25:02.975Z</time></trkpt><trkpt lat="45.941568480254105" lon="11.292722093475746"><ele>1287.0</ele><time>2026-05-03T08:25:03.975Z</time></trkpt><trkpt lat="45.941635135660974" lon="11.292549726021866"><ele>1287.0</ele><time>2026-05-03T08:25:04.975Z</time></trkpt><trkpt lat="45.94174068922652" lon="11.292405814890161"><ele>1287.0</ele><time>2026-05-03T08:25:05.975Z</time></trkpt><trkpt lat="45.941848585559434" lon="11.292280120749584"><ele>1287.0</ele><time>2026-05-03T08:25:06.975Z</time></trkpt><trkpt lat="45.94192798355232" lon="11.29218126917271"><ele>1287.0</ele><time>2026-05-03T08:25:07.975Z</time></trkpt><trkpt lat="45.94196333751346" lon="11.292081272977981"><ele>1287.0</ele><time>2026-05-03T08:25:08.975Z</time></trkpt><trkpt lat="45.94194028850953" lon="11.291992483720277"><ele>1287.0</ele><time>2026-05-03T08:25:09.975Z</time></trkpt><trkpt lat="45.941906663615335" lon="11.291862401600053"><ele>1287.0</ele><time>2026-05-03T08:25:10.975Z</time></trkpt><trkpt lat="45.94177442927499" lon="11.291792753218948"><ele>1287.0</ele><time>2026-05-03T08:25:11.975Z</time></trkpt><trkpt lat="45.9416277127372" lon="11.291865742400368"><ele>1288.0</ele><time>2026-05-03T08:25:12.975Z</time></trkpt><trkpt lat="45.941511218940605" lon="11.291930926161223"><ele>1289.0</ele><time>2026-05-03T08:25:13.975Z</time></trkpt><trkpt lat="45.9413787959519" lon="11.292005023033525"><ele>1290.0</ele><time>2026-05-03T08:25:14.975Z</time></trkpt><trkpt lat="45.94123381426263" lon="11.292088628024908"><ele>1291.0</ele><time>2026-05-03T08:25:15.975Z</time></trkpt><trkpt lat="45.94108297361733" lon="11.292172444210259"><ele>1291.0</ele><time>2026-05-03T08:25:16.975Z</time></trkpt><trkpt lat="45.940919976973156" lon="11.292266658791727"><ele>1291.0</ele><time>2026-05-03T08:25:17.975Z</time></trkpt><trkpt lat="45.940751044235824" lon="11.292358189559073"><ele>1291.0</ele><time>2026-05-03T08:25:18.975Z</time></trkpt><trkpt lat="45.94058913305011" lon="11.292445913967716"><ele>1291.0</ele><time>2026-05-03T08:25:19.975Z</time></trkpt><trkpt lat="45.94044174021091" lon="11.292499229911597"><ele>1291.0</ele><time>2026-05-03T08:25:20.975Z</time></trkpt><trkpt lat="45.940297881573926" lon="11.29250244633757"><ele>1291.0</ele><time>2026-05-03T08:25:21.975Z</time></trkpt><trkpt lat="45.94016704193438" lon="11.292448554315472"><ele>1291.0</ele><time>2026-05-03T08:25:22.975Z</time></trkpt><trkpt lat="45.94004178535868" lon="11.29233943565528"><ele>1295.0</ele><time>2026-05-03T08:25:23.975Z</time></trkpt><trkpt lat="45.939891166063695" lon="11.292210366320864"><ele>1299.0</ele><time>2026-05-03T08:25:24.975Z</time></trkpt><trkpt lat="45.93971272745649" lon="11.292176907698144"><ele>1303.0</ele><time>2026-05-03T08:25:25.975Z</time></trkpt><trkpt lat="45.93956759188597" lon="11.292167578296398"><ele>1303.0</ele><time>2026-05-03T08:25:26.975Z</time></trkpt><trkpt lat="45.93942727022903" lon="11.292099994661742"><ele>1303.0</ele><time>2026-05-03T08:25:27.975Z</time></trkpt><trkpt lat="45.93930245261465" lon="11.291995469809365"><ele>1303.0</ele><time>2026-05-03T08:25:28.975Z</time></trkpt><trkpt lat="45.93922261915008" lon="11.291892400435758"><ele>1303.0</ele><time>2026-05-03T08:25:29.975Z</time></trkpt><trkpt lat="45.93916866803074" lon="11.291772325190625"><ele>1302.5</ele><time>2026-05-03T08:25:30.975Z</time></trkpt><trkpt lat="45.939131690463135" lon="11.291604857973862"><ele>1302.0</ele><time>2026-05-03T08:25:31.975Z</time></trkpt><trkpt lat="45.93910348851033" lon="11.291392590599608"><ele>1301.5</ele><time>2026-05-03T08:25:32.975Z</time></trkpt><trkpt lat="45.93911004174323" lon="11.291173479806597"><ele>1301.0</ele><time>2026-05-03T08:25:33.975Z</time></trkpt><trkpt lat="45.9391019882849" lon="11.29099415660212"><ele>1301.0</ele><time>2026-05-03T08:25:34.975Z</time></trkpt><trkpt lat="45.93905662836004" lon="11.290842644706778"><ele>1301.0</ele><time>2026-05-03T08:25:35.975Z</time></trkpt><trkpt lat="45.938960140943124" lon="11.29070399141657"><ele>1301.0</ele><time>2026-05-03T08:25:36.975Z</time></trkpt><trkpt lat="45.93882014003297" lon="11.290583040700957"><ele>1301.0</ele><time>2026-05-03T08:25:37.975Z</time></trkpt><trkpt lat="45.9386772386741" lon="11.290457636855056"><ele>1300.6666666666667</ele><time>2026-05-03T08:25:38.975Z</time></trkpt><trkpt lat="45.938540765873064" lon="11.290309946984182"><ele>1300.3333333333333</ele><time>2026-05-03T08:25:39.975Z</time></trkpt><trkpt lat="45.938393438934895" lon="11.290173850982525"><ele>1300.0</ele><time>2026-05-03T08:25:40.975Z</time></trkpt><trkpt lat="45.93824496682532" lon="11.290054799499266"><ele>1300.0</ele><time>2026-05-03T08:25:41.975Z</time></trkpt><trkpt lat="45.93811216263296" lon="11.289929012550816"><ele>1300.0</ele><time>2026-05-03T08:25:42.975Z</time></trkpt><trkpt lat="45.937986128999825" lon="11.28981021322901"><ele>1300.0</ele><time>2026-05-03T08:25:43.975Z</time></trkpt><trkpt lat="45.93785513692548" lon="11.289695859098252"><ele>1301.25</ele><time>2026-05-03T08:25:44.975Z</time></trkpt><trkpt lat="45.93776433145199" lon="11.289550529487721"><ele>1302.5</ele><time>2026-05-03T08:25:45.975Z</time></trkpt><trkpt lat="45.9376783546393" lon="11.289411489157821"><ele>1303.75</ele><time>2026-05-03T08:25:46.975Z</time></trkpt><trkpt lat="45.93764141619501" lon="11.289232118480202"><ele>1305.0</ele><time>2026-05-03T08:25:47.975Z</time></trkpt><trkpt lat="45.93762428410432" lon="11.289039061636476"><ele>1307.0</ele><time>2026-05-03T08:25:48.975Z</time></trkpt><trkpt lat="45.93762067618906" lon="11.288847200995162"><ele>1309.0</ele><time>2026-05-03T08:25:49.975Z</time></trkpt><trkpt lat="45.93762347415224" lon="11.288652383239201"><ele>1311.0</ele><time>2026-05-03T08:25:50.975Z</time></trkpt><trkpt lat="45.9376099976284" lon="11.28846343190788"><ele>1313.0</ele><time>2026-05-03T08:25:51.975Z</time></trkpt><trkpt lat="45.937587907838996" lon="11.288258526872333"><ele>1311.0</ele><time>2026-05-03T08:25:52.975Z</time></trkpt><trkpt lat="45.937572830380994" lon="11.288051432688238"><ele>1309.0</ele><time>2026-05-03T08:25:53.975Z</time></trkpt><trkpt lat="45.9375811344895" lon="11.28785487721032"><ele>1307.0</ele><time>2026-05-03T08:25:54.975Z</time></trkpt><trkpt lat="45.937571369262265" lon="11.287673541609262"><ele>1305.0</ele><time>2026-05-03T08:25:55.975Z</time></trkpt><trkpt lat="45.93755123782534" lon="11.287508637448436"><ele>1305.0</ele><time>2026-05-03T08:25:56.975Z</time></trkpt><trkpt lat="45.937516248564556" lon="11.28734716640344"><ele>1305.0</ele><time>2026-05-03T08:25:57.975Z</time></trkpt><trkpt lat="45.937466862425055" lon="11.287208994605722"><ele>1305.0</ele><time>2026-05-03T08:25:58.975Z</time></trkpt><trkpt lat="45.937419125255865" lon="11.287098824963111"><ele>1305.0</ele><time>2026-05-03T08:25:59.975Z</time></trkpt><trkpt lat="45.93737799991022" lon="11.28700700359214"><ele>1305.0</ele><time>2026-05-03T08:26:00.975Z</time></trkpt><trkpt lat="45.93734658147216" lon="11.28692762896131"><ele>1304.8</ele><time>2026-05-03T08:26:01.975Z</time></trkpt><trkpt lat="45.937316532493" lon="11.286767577866542"><ele>1304.6</ele><time>2026-05-03T08:26:03.975Z</time></trkpt><trkpt lat="45.93734601958861" lon="11.28664865103284"><ele>1304.4</ele><time>2026-05-03T08:26:04.975Z</time></trkpt><trkpt lat="45.93740873620926" lon="11.286534087637104"><ele>1304.2</ele><time>2026-05-03T08:26:05.975Z</time></trkpt><trkpt lat="45.937494743195984" lon="11.286423912336307"><ele>1304.0</ele><time>2026-05-03T08:26:06.975Z</time></trkpt><trkpt lat="45.937598181491644" lon="11.286317147069994"><ele>1306.0</ele><time>2026-05-03T08:26:07.975Z</time></trkpt><trkpt lat="45.93770749853672" lon="11.28621021377279"><ele>1308.0</ele><time>2026-05-03T08:26:08.975Z</time></trkpt><trkpt lat="45.937815849782545" lon="11.28609582277222"><ele>1310.0</ele><time>2026-05-03T08:26:09.975Z</time></trkpt><trkpt lat="45.93791046620485" lon="11.285983788329425"><ele>1312.0</ele><time>2026-05-03T08:26:10.974Z</time></trkpt><trkpt lat="45.937993460224185" lon="11.285877376997847"><ele>1312.0</ele><time>2026-05-03T08:26:11.974Z</time></trkpt><trkpt lat="45.93804706961514" lon="11.285764080646285"><ele>1312.0</ele><time>2026-05-03T08:26:12.974Z</time></trkpt><trkpt lat="45.93807164333728" lon="11.285633125153282"><ele>1312.0</ele><time>2026-05-03T08:26:13.974Z</time></trkpt><trkpt lat="45.938055491668614" lon="11.285479904620027"><ele>1312.0</ele><time>2026-05-03T08:26:14.974Z</time></trkpt><trkpt lat="45.93801028248439" lon="11.285334841998658"><ele>1312.0</ele><time>2026-05-03T08:26:15.974Z</time></trkpt><trkpt lat="45.937964150485854" lon="11.285187552845368"><ele>1310.8</ele><time>2026-05-03T08:26:16.974Z</time></trkpt><trkpt lat="45.937947387363" lon="11.285028361032648"><ele>1309.6</ele><time>2026-05-03T08:26:17.974Z</time></trkpt><trkpt lat="45.93795249942532" lon="11.284851621974605"><ele>1308.3999999999999</ele><time>2026-05-03T08:26:18.975Z</time></trkpt><trkpt lat="45.93797870137099" lon="11.28470978468333"><ele>1307.1999999999998</ele><time>2026-05-03T08:26:19.975Z</time></trkpt><trkpt lat="45.93800609200865" lon="11.284573777205896"><ele>1306.0</ele><time>2026-05-03T08:26:20.975Z</time></trkpt><trkpt lat="45.9380312696347" lon="11.284441635353163"><ele>1304.4</ele><time>2026-05-03T08:26:21.975Z</time></trkpt><trkpt lat="45.938070310691" lon="11.28432281759018"><ele>1302.8</ele><time>2026-05-03T08:26:22.976Z</time></trkpt><trkpt lat="45.93809270266595" lon="11.284181312767764"><ele>1301.2</ele><time>2026-05-03T08:26:23.976Z</time></trkpt><trkpt lat="45.93815294452147" lon="11.284060189195621"><ele>1299.6000000000001</ele><time>2026-05-03T08:26:24.976Z</time></trkpt><trkpt lat="45.93820840667223" lon="11.283928587724468"><ele>1298.0</ele><time>2026-05-03T08:26:25.975Z</time></trkpt><trkpt lat="45.93827478032264" lon="11.283796918090813"><ele>1301.0</ele><time>2026-05-03T08:26:26.975Z</time></trkpt><trkpt lat="45.93835135691129" lon="11.283673804461287"><ele>1304.0</ele><time>2026-05-03T08:26:27.976Z</time></trkpt><trkpt lat="45.938417666530555" lon="11.283545195807989"><ele>1307.0</ele><time>2026-05-03T08:26:28.975Z</time></trkpt><trkpt lat="45.93850759348568" lon="11.283432620102953"><ele>1310.0</ele><time>2026-05-03T08:26:29.975Z</time></trkpt><trkpt lat="45.9386092211495" lon="11.28332786004824"><ele>1310.0</ele><time>2026-05-03T08:26:30.975Z</time></trkpt><trkpt lat="45.938720369289584" lon="11.283219547824759"><ele>1310.0</ele><time>2026-05-03T08:26:31.975Z</time></trkpt><trkpt lat="45.93883336282171" lon="11.28313077277356"><ele>1310.0</ele><time>2026-05-03T08:26:32.975Z</time></trkpt><trkpt lat="45.938926690483115" lon="11.282989850199339"><ele>1310.0</ele><time>2026-05-03T08:26:33.975Z</time></trkpt><trkpt lat="45.93900053121225" lon="11.282833485430174"><ele>1305.5</ele><time>2026-05-03T08:26:34.975Z</time></trkpt><trkpt lat="45.9390540856703" lon="11.282649532361228"><ele>1301.0</ele><time>2026-05-03T08:26:35.975Z</time></trkpt><trkpt lat="45.939096321933945" lon="11.282475164691395"><ele>1296.5</ele><time>2026-05-03T08:26:36.975Z</time></trkpt><trkpt lat="45.93913759937286" lon="11.282307283901593"><ele>1292.0</ele><time>2026-05-03T08:26:37.975Z</time></trkpt><trkpt lat="45.93918137942352" lon="11.282137219891208"><ele>1291.5</ele><time>2026-05-03T08:26:38.975Z</time></trkpt><trkpt lat="45.939228141189105" lon="11.281955573317688"><ele>1291.0</ele><time>2026-05-03T08:26:39.975Z</time></trkpt><trkpt lat="45.939276489092556" lon="11.281762810310934"><ele>1290.5</ele><time>2026-05-03T08:26:40.975Z</time></trkpt><trkpt lat="45.93931369966637" lon="11.28157368134265"><ele>1290.0</ele><time>2026-05-03T08:26:41.975Z</time></trkpt><trkpt lat="45.939363132751005" lon="11.281402091205614"><ele>1284.0</ele><time>2026-05-03T08:26:42.975Z</time></trkpt><trkpt lat="45.93939824860826" lon="11.2812521105754"><ele>1278.0</ele><time>2026-05-03T08:26:43.975Z</time></trkpt><trkpt lat="45.93943511324696" lon="11.281131513546903"><ele>1272.0</ele><time>2026-05-03T08:26:44.975Z</time></trkpt><trkpt lat="45.93948687695511" lon="11.281023356811525"><ele>1266.0</ele><time>2026-05-03T08:26:45.975Z</time></trkpt><trkpt lat="45.93957408676122" lon="11.28094742212874"><ele>1260.0</ele><time>2026-05-03T08:26:46.975Z</time></trkpt><trkpt lat="45.9396779383101" lon="11.280930795952019"><ele>1260.0</ele><time>2026-05-03T08:26:47.975Z</time></trkpt><trkpt lat="45.93977840976127" lon="11.280968442387579"><ele>1260.0</ele><time>2026-05-03T08:26:48.975Z</time></trkpt><trkpt lat="45.93986081786011" lon="11.281003235717728"><ele>1260.0</ele><time>2026-05-03T08:26:49.975Z</time></trkpt><trkpt lat="45.93993616640448" lon="11.281028690383147"><ele>1260.0</ele><time>2026-05-03T08:26:50.975Z</time></trkpt><trkpt lat="45.940016623678105" lon="11.281048950403848"><ele>1260.0</ele><time>2026-05-03T08:26:51.975Z</time></trkpt><trkpt lat="45.94010685609991" lon="11.28103414803498"><ele>1260.0</ele><time>2026-05-03T08:26:52.975Z</time></trkpt><trkpt lat="45.94020241168747" lon="11.280987277383693"><ele>1259.5</ele><time>2026-05-03T08:26:53.975Z</time></trkpt><trkpt lat="45.94030052481267" lon="11.280911967843366"><ele>1259.0</ele><time>2026-05-03T08:26:54.975Z</time></trkpt><trkpt lat="45.940403908633506" lon="11.280812200204846"><ele>1258.5</ele><time>2026-05-03T08:26:55.975Z</time></trkpt><trkpt lat="45.9405174702983" lon="11.280694297586587"><ele>1258.0</ele><time>2026-05-03T08:26:56.975Z</time></trkpt><trkpt lat="45.94063133656968" lon="11.280562047432388"><ele>1258.25</ele><time>2026-05-03T08:26:57.975Z</time></trkpt><trkpt lat="45.94075406086339" lon="11.280454449920933"><ele>1258.5</ele><time>2026-05-03T08:26:58.975Z</time></trkpt><trkpt lat="45.94084279909002" lon="11.28032824764263"><ele>1258.75</ele><time>2026-05-03T08:26:59.975Z</time></trkpt><trkpt lat="45.940929304101516" lon="11.280203778380544"><ele>1259.0</ele><time>2026-05-03T08:27:00.975Z</time></trkpt><trkpt lat="45.941013062370196" lon="11.280083261478856"><ele>1259.0</ele><time>2026-05-03T08:27:01.975Z</time></trkpt><trkpt lat="45.941089621879186" lon="11.279973435950458"><ele>1259.0</ele><time>2026-05-03T08:27:02.975Z</time></trkpt><trkpt lat="45.94116130605385" lon="11.279866119778818"><ele>1259.0</ele><time>2026-05-03T08:27:03.975Z</time></trkpt><trkpt lat="45.94122651888086" lon="11.279768208658664"><ele>1259.0</ele><time>2026-05-03T08:27:04.975Z</time></trkpt><trkpt lat="45.94129018924001" lon="11.279671250158735"><ele>1259.0</ele><time>2026-05-03T08:27:05.975Z</time></trkpt><trkpt lat="45.9413478100746" lon="11.279569343666122"><ele>1257.4</ele><time>2026-05-03T08:27:06.975Z</time></trkpt><trkpt lat="45.941393925965926" lon="11.27944737172612"><ele>1255.8000000000002</ele><time>2026-05-03T08:27:07.975Z</time></trkpt><trkpt lat="45.941408962589044" lon="11.279305928983986"><ele>1254.1999999999998</ele><time>2026-05-03T08:27:08.975Z</time></trkpt><trkpt lat="45.94140797594522" lon="11.279172669019523"><ele>1252.6</ele><time>2026-05-03T08:27:09.975Z</time></trkpt><trkpt lat="45.94139038523041" lon="11.279053249847765"><ele>1251.0</ele><time>2026-05-03T08:27:10.975Z</time></trkpt><trkpt lat="45.9413416229885" lon="11.278947509675914"><ele>1251.0</ele><time>2026-05-03T08:27:11.975Z</time></trkpt><trkpt lat="45.941263633500355" lon="11.27889105260532"><ele>1251.0</ele><time>2026-05-03T08:27:12.975Z</time></trkpt><trkpt lat="45.941191048278064" lon="11.278871789503697"><ele>1251.0</ele><time>2026-05-03T08:27:13.975Z</time></trkpt><trkpt lat="45.94111396104658" lon="11.27890225507577"><ele>1251.0</ele><time>2026-05-03T08:27:14.975Z</time></trkpt><trkpt lat="45.94102881238081" lon="11.278971825096855"><ele>1251.0</ele><time>2026-05-03T08:27:15.975Z</time></trkpt><trkpt lat="45.94094748426194" lon="11.279044094262588"><ele>1251.0</ele><time>2026-05-03T08:27:16.975Z</time></trkpt><trkpt lat="45.94087450952695" lon="11.27909996109422"><ele>1248.6666666666667</ele><time>2026-05-03T08:27:17.975Z</time></trkpt><trkpt lat="45.94080041255939" lon="11.279133129405334"><ele>1246.3333333333333</ele><time>2026-05-03T08:27:18.975Z</time></trkpt><trkpt lat="45.94071328303191" lon="11.279146697175586"><ele>1244.0</ele><time>2026-05-03T08:27:19.975Z</time></trkpt><trkpt lat="45.94063312059481" lon="11.279089716727405"><ele>1241.6666666666665</ele><time>2026-05-03T08:27:20.975Z</time></trkpt><trkpt lat="45.94056468999911" lon="11.279022744829337"><ele>1239.3333333333333</ele><time>2026-05-03T08:27:21.975Z</time></trkpt><trkpt lat="45.94051766613441" lon="11.278936880036476"><ele>1237.0</ele><time>2026-05-03T08:27:22.975Z</time></trkpt><trkpt lat="45.9404662475435" lon="11.278834929074288"><ele>1235.4</ele><time>2026-05-03T08:27:23.975Z</time></trkpt><trkpt lat="45.940425505411646" lon="11.278711997135538"><ele>1233.8000000000002</ele><time>2026-05-03T08:27:24.975Z</time></trkpt><trkpt lat="45.94039148258851" lon="11.278581691247458"><ele>1232.2</ele><time>2026-05-03T08:27:25.975Z</time></trkpt><trkpt lat="45.94033864645843" lon="11.278457166827366"><ele>1230.6000000000001</ele><time>2026-05-03T08:27:26.975Z</time></trkpt><trkpt lat="45.94027251069923" lon="11.278333138369103"><ele>1229.0</ele><time>2026-05-03T08:27:27.975Z</time></trkpt><trkpt lat="45.94020069210819" lon="11.278206159750223"><ele>1227.8333333333335</ele><time>2026-05-03T08:27:28.975Z</time></trkpt><trkpt lat="45.94012964643781" lon="11.278098385268574"><ele>1226.6666666666667</ele><time>2026-05-03T08:27:29.975Z</time></trkpt><trkpt lat="45.940047202188346" lon="11.278030083366158"><ele>1225.5</ele><time>2026-05-03T08:27:30.975Z</time></trkpt><trkpt lat="45.93997040231254" lon="11.277959334774106"><ele>1224.3333333333333</ele><time>2026-05-03T08:27:31.975Z</time></trkpt><trkpt lat="45.939883729744764" lon="11.27792029537285"><ele>1223.1666666666665</ele><time>2026-05-03T08:27:32.975Z</time></trkpt><trkpt lat="45.93981856791924" lon="11.277900702300636"><ele>1222.0</ele><time>2026-05-03T08:27:33.975Z</time></trkpt><trkpt lat="45.9397194041189" lon="11.27789786862937"><ele>1220.8</ele><time>2026-05-03T08:27:35.975Z</time></trkpt><trkpt lat="45.93963537167563" lon="11.277849638729501"><ele>1219.6</ele><time>2026-05-03T08:27:37.975Z</time></trkpt><trkpt lat="45.93961944587198" lon="11.277708948263633"><ele>1218.3999999999999</ele><time>2026-05-03T08:27:39.975Z</time></trkpt><trkpt lat="45.939710669438796" lon="11.277626488120966"><ele>1217.2</ele><time>2026-05-03T08:27:41.974Z</time></trkpt><trkpt lat="45.93982702443217" lon="11.277645367880428"><ele>1216.0</ele><time>2026-05-03T08:27:43.974Z</time></trkpt><trkpt lat="45.93990091388564" lon="11.27765402423962"><ele>1216.0</ele><time>2026-05-03T08:27:44.974Z</time></trkpt><trkpt lat="45.93998814646597" lon="11.277656606753082"><ele>1216.0</ele><time>2026-05-03T08:27:45.974Z</time></trkpt><trkpt lat="45.94007279066715" lon="11.277668831591331"><ele>1216.0</ele><time>2026-05-03T08:27:46.974Z</time></trkpt><trkpt lat="45.94014978035823" lon="11.277678079577438"><ele>1216.0</ele><time>2026-05-03T08:27:47.974Z</time></trkpt><trkpt lat="45.94022276229287" lon="11.277664728491933"><ele>1216.0</ele><time>2026-05-03T08:27:48.974Z</time></trkpt><trkpt lat="45.940292196642446" lon="11.277613253371051"><ele>1216.0</ele><time>2026-05-03T08:27:49.974Z</time></trkpt><trkpt lat="45.94034224654504" lon="11.277541742496675"><ele>1215.857142857143</ele><time>2026-05-03T08:27:50.974Z</time></trkpt><trkpt lat="45.94039816717329" lon="11.277486951122015"><ele>1215.7142857142858</ele><time>2026-05-03T08:27:51.974Z</time></trkpt><trkpt lat="45.940443823470616" lon="11.277421301573563"><ele>1215.5714285714287</ele><time>2026-05-03T08:27:52.974Z</time></trkpt><trkpt lat="45.9404872089503" lon="11.277350471904914"><ele>1215.4285714285716</ele><time>2026-05-03T08:27:53.974Z</time></trkpt><trkpt lat="45.94052935565997" lon="11.277270244498965"><ele>1215.2857142857142</ele><time>2026-05-03T08:27:54.974Z</time></trkpt><trkpt lat="45.940564412179995" lon="11.277171727884792"><ele>1215.1428571428573</ele><time>2026-05-03T08:27:55.974Z</time></trkpt><trkpt lat="45.94059219564651" lon="11.277085153434339"><ele>1215.0</ele><time>2026-05-03T08:27:56.974Z</time></trkpt><trkpt lat="45.94060001330368" lon="11.276984459143044"><ele>1215.0000000000002</ele><time>2026-05-03T08:27:57.974Z</time></trkpt><trkpt lat="45.940594458677495" lon="11.276887088856743"><ele>1215.0</ele><time>2026-05-03T08:27:58.974Z</time></trkpt><trkpt lat="45.940613633058085" lon="11.276789469683457"><ele>1215.0</ele><time>2026-05-03T08:27:59.974Z</time></trkpt><trkpt lat="45.940639542783984" lon="11.276692232379895"><ele>1215.0</ele><time>2026-05-03T08:28:00.974Z</time></trkpt><trkpt lat="45.94063772935449" lon="11.276585921160086"><ele>1215.0</ele><time>2026-05-03T08:28:01.974Z</time></trkpt><trkpt lat="45.94060338051856" lon="11.27648751498552"><ele>1215.0000000000002</ele><time>2026-05-03T08:28:02.974Z</time></trkpt><trkpt lat="45.94054720924008" lon="11.276404238745705"><ele>1215.0</ele><time>2026-05-03T08:28:03.974Z</time></trkpt><trkpt lat="45.9404890913798" lon="11.276314609795104"><ele>1213.6</ele><time>2026-05-03T08:28:04.974Z</time></trkpt><trkpt lat="45.94043232767551" lon="11.276207168082687"><ele>1212.2</ele><time>2026-05-03T08:28:05.974Z</time></trkpt><trkpt lat="45.940364063856485" lon="11.276098969678294"><ele>1210.8</ele><time>2026-05-03T08:28:06.974Z</time></trkpt><trkpt lat="45.940298140498236" lon="11.275993002392935"><ele>1209.4</ele><time>2026-05-03T08:28:07.974Z</time></trkpt><trkpt lat="45.94022243595655" lon="11.275883709167948"><ele>1208.0</ele><time>2026-05-03T08:28:08.974Z</time></trkpt><trkpt lat="45.94014407994191" lon="11.275766483531001"><ele>1208.0</ele><time>2026-05-03T08:28:09.974Z</time></trkpt><trkpt lat="45.94006018807595" lon="11.275641461738253"><ele>1208.0</ele><time>2026-05-03T08:28:10.974Z</time></trkpt><trkpt lat="45.93999036492207" lon="11.27551629855384"><ele>1208.0</ele><time>2026-05-03T08:28:11.974Z</time></trkpt><trkpt lat="45.93991419256467" lon="11.27539921713486"><ele>1208.0</ele><time>2026-05-03T08:28:12.974Z</time></trkpt><trkpt lat="45.93983524518465" lon="11.275276366376934"><ele>1206.8333333333335</ele><time>2026-05-03T08:28:13.974Z</time></trkpt><trkpt lat="45.939762447659994" lon="11.275162453611818"><ele>1205.6666666666667</ele><time>2026-05-03T08:28:14.974Z</time></trkpt><trkpt lat="45.939702170979196" lon="11.275059749538475"><ele>1204.5</ele><time>2026-05-03T08:28:15.974Z</time></trkpt><trkpt lat="45.939642061879006" lon="11.274965980176594"><ele>1203.3333333333333</ele><time>2026-05-03T08:28:16.974Z</time></trkpt><trkpt lat="45.939585024263245" lon="11.27486936784025"><ele>1202.1666666666665</ele><time>2026-05-03T08:28:17.974Z</time></trkpt><trkpt lat="45.93953998637666" lon="11.27480315539769"><ele>1201.0</ele><time>2026-05-03T08:28:18.974Z</time></trkpt><trkpt lat="45.939468188815816" lon="11.274645829941894"><ele>1200.1666666666665</ele><time>2026-05-03T08:28:20.974Z</time></trkpt><trkpt lat="45.93944307538112" lon="11.274555792492658"><ele>1199.3333333333333</ele><time>2026-05-03T08:28:21.974Z</time></trkpt><trkpt lat="45.939428895207435" lon="11.274461317581263"><ele>1198.5</ele><time>2026-05-03T08:28:22.974Z</time></trkpt><trkpt lat="45.939423048762585" lon="11.274339681883294"><ele>1197.6666666666667</ele><time>2026-05-03T08:28:23.975Z</time></trkpt><trkpt lat="45.93945005124942" lon="11.274202628158118"><ele>1196.8333333333335</ele><time>2026-05-03T08:28:24.974Z</time></trkpt><trkpt lat="45.93949067203065" lon="11.27402565840116"><ele>1196.0</ele><time>2026-05-03T08:28:25.974Z</time></trkpt><trkpt lat="45.93954409895133" lon="11.273804074520848"><ele>1194.5</ele><time>2026-05-03T08:28:26.975Z</time></trkpt><trkpt lat="45.93956393769094" lon="11.273554225488262"><ele>1193.0</ele><time>2026-05-03T08:28:27.975Z</time></trkpt><trkpt lat="45.93959584517975" lon="11.273373504624715"><ele>1191.5</ele><time>2026-05-03T08:28:28.975Z</time></trkpt><trkpt lat="45.9396377990366" lon="11.273230279389244"><ele>1190.0</ele><time>2026-05-03T08:28:29.975Z</time></trkpt><trkpt lat="45.939725896568305" lon="11.273135575902733"><ele>1187.3333333333335</ele><time>2026-05-03T08:28:30.975Z</time></trkpt><trkpt lat="45.939858578273274" lon="11.273050851402006"><ele>1184.6666666666667</ele><time>2026-05-03T08:28:31.975Z</time></trkpt><trkpt lat="45.94002638018288" lon="11.272957970972595"><ele>1182.0</ele><time>2026-05-03T08:28:32.975Z</time></trkpt><trkpt lat="45.940213574281465" lon="11.272841573094091"><ele>1182.0</ele><time>2026-05-03T08:28:33.975Z</time></trkpt><trkpt lat="45.94037821746903" lon="11.27267474311615"><ele>1182.0</ele><time>2026-05-03T08:28:34.975Z</time></trkpt><trkpt lat="45.94051596731219" lon="11.272496219762061"><ele>1182.0</ele><time>2026-05-03T08:28:35.975Z</time></trkpt><trkpt lat="45.94063739251411" lon="11.272343311616611"><ele>1184.0</ele><time>2026-05-03T08:28:36.975Z</time></trkpt><trkpt lat="45.9407483047407" lon="11.272211958142758"><ele>1186.0</ele><time>2026-05-03T08:28:37.975Z</time></trkpt><trkpt lat="45.940852736177" lon="11.272064667740361"><ele>1188.0</ele><time>2026-05-03T08:28:38.975Z</time></trkpt><trkpt lat="45.94091957550158" lon="11.271839685586121"><ele>1188.0</ele><time>2026-05-03T08:28:39.975Z</time></trkpt><trkpt lat="45.94096965314494" lon="11.27161759992978"><ele>1188.0</ele><time>2026-05-03T08:28:40.975Z</time></trkpt><trkpt lat="45.94101458049971" lon="11.271414420328774"><ele>1188.0</ele><time>2026-05-03T08:28:41.975Z</time></trkpt><trkpt lat="45.94105638976494" lon="11.271227742794423"><ele>1188.0</ele><time>2026-05-03T08:28:42.975Z</time></trkpt><trkpt lat="45.941084542083644" lon="11.271067878420032"><ele>1185.25</ele><time>2026-05-03T08:28:43.975Z</time></trkpt><trkpt lat="45.94108141293857" lon="11.27089394754213"><ele>1182.5</ele><time>2026-05-03T08:28:44.975Z</time></trkpt><trkpt lat="45.94101038436709" lon="11.270704732261303"><ele>1179.75</ele><time>2026-05-03T08:28:45.975Z</time></trkpt><trkpt lat="45.94094512808337" lon="11.270489251725076"><ele>1177.0</ele><time>2026-05-03T08:28:46.975Z</time></trkpt><trkpt lat="45.94088970350694" lon="11.270280161493432"><ele>1173.5</ele><time>2026-05-03T08:28:47.975Z</time></trkpt><trkpt lat="45.94084095697721" lon="11.270091334469614"><ele>1170.0</ele><time>2026-05-03T08:28:48.975Z</time></trkpt><trkpt lat="45.94080110452761" lon="11.269930355033448"><ele>1166.5</ele><time>2026-05-03T08:28:49.975Z</time></trkpt><trkpt lat="45.940769229961774" lon="11.269783392423466"><ele>1163.0</ele><time>2026-05-03T08:28:50.975Z</time></trkpt><trkpt lat="45.94073953518753" lon="11.269636962831012"><ele>1162.8</ele><time>2026-05-03T08:28:51.975Z</time></trkpt><trkpt lat="45.94070476524528" lon="11.269493823071691"><ele>1162.6</ele><time>2026-05-03T08:28:52.975Z</time></trkpt><trkpt lat="45.940674278274734" lon="11.269355502089748"><ele>1162.4</ele><time>2026-05-03T08:28:53.975Z</time></trkpt><trkpt lat="45.94064875433335" lon="11.26922534572067"><ele>1162.2</ele><time>2026-05-03T08:28:54.975Z</time></trkpt><trkpt lat="45.94062747187433" lon="11.269106740748908"><ele>1162.0</ele><time>2026-05-03T08:28:55.975Z</time></trkpt><trkpt lat="45.940636940343815" lon="11.269002663824297"><ele>1162.3333333333333</ele><time>2026-05-03T08:28:56.975Z</time></trkpt><trkpt lat="45.940651258883975" lon="11.268890309746423"><ele>1162.6666666666665</ele><time>2026-05-03T08:28:58.975Z</time></trkpt><trkpt lat="45.94066299181138" lon="11.268745422165532"><ele>1163.0</ele><time>2026-05-03T08:29:00.975Z</time></trkpt><trkpt lat="45.94061588952271" lon="11.268588694660677"><ele>1163.3333333333333</ele><time>2026-05-03T08:29:02.975Z</time></trkpt><trkpt lat="45.94055998764331" lon="11.268531752136848"><ele>1163.6666666666667</ele><time>2026-05-03T08:29:03.975Z</time></trkpt><trkpt lat="45.94051053426861" lon="11.268440344099183"><ele>1164.0</ele><time>2026-05-03T08:29:04.975Z</time></trkpt><trkpt lat="45.940488469208766" lon="11.26831674229779"><ele>1164.0</ele><time>2026-05-03T08:29:05.975Z</time></trkpt><trkpt lat="45.940475057571774" lon="11.268178104364544"><ele>1164.0</ele><time>2026-05-03T08:29:06.975Z</time></trkpt><trkpt lat="45.94045344127029" lon="11.268038383484779"><ele>1164.0</ele><time>2026-05-03T08:29:07.975Z</time></trkpt><trkpt lat="45.940438824225616" lon="11.267904007093572"><ele>1164.0</ele><time>2026-05-03T08:29:08.975Z</time></trkpt><trkpt lat="45.94041729973914" lon="11.267782981546024"><ele>1164.0</ele><time>2026-05-03T08:29:09.975Z</time></trkpt><trkpt lat="45.94038534261789" lon="11.267658718395483"><ele>1164.0</ele><time>2026-05-03T08:29:10.975Z</time></trkpt><trkpt lat="45.9403420950666" lon="11.267542962703478"><ele>1164.0</ele><time>2026-05-03T08:29:11.975Z</time></trkpt><trkpt lat="45.940297645715845" lon="11.267449446932792"><ele>1164.0</ele><time>2026-05-03T08:29:12.975Z</time></trkpt><trkpt lat="45.94026090852979" lon="11.26736086179366"><ele>1164.0</ele><time>2026-05-03T08:29:13.975Z</time></trkpt><trkpt lat="45.94023397682333" lon="11.267265862404322"><ele>1164.0</ele><time>2026-05-03T08:29:14.975Z</time></trkpt><trkpt lat="45.940213090865285" lon="11.26715280929986"><ele>1164.0</ele><time>2026-05-03T08:29:15.975Z</time></trkpt><trkpt lat="45.94020177847611" lon="11.267011625270664"><ele>1164.0</ele><time>2026-05-03T08:29:16.975Z</time></trkpt><trkpt lat="45.940216781058" lon="11.266837141730322"><ele>1164.0</ele><time>2026-05-03T08:29:17.975Z</time></trkpt><trkpt lat="45.94027302755371" lon="11.266666671550622"><ele>1164.0</ele><time>2026-05-03T08:29:18.975Z</time></trkpt><trkpt lat="45.940338211927624" lon="11.266493653200662"><ele>1164.0</ele><time>2026-05-03T08:29:19.975Z</time></trkpt><trkpt lat="45.94038683500667" lon="11.26630918179123"><ele>1163.2</ele><time>2026-05-03T08:29:20.975Z</time></trkpt><trkpt lat="45.94041877510984" lon="11.266140832502451"><ele>1162.4</ele><time>2026-05-03T08:29:21.975Z</time></trkpt><trkpt lat="45.94043759473514" lon="11.265976633134622"><ele>1161.6</ele><time>2026-05-03T08:29:22.975Z</time></trkpt><trkpt lat="45.94046639233523" lon="11.265838909580724"><ele>1160.8</ele><time>2026-05-03T08:29:23.975Z</time></trkpt><trkpt lat="45.94052202131552" lon="11.265714874312954"><ele>1160.0</ele><time>2026-05-03T08:29:24.975Z</time></trkpt><trkpt lat="45.94061877545939" lon="11.265653376504567"><ele>1157.25</ele><time>2026-05-03T08:29:25.975Z</time></trkpt><trkpt lat="45.9407056223224" lon="11.265569103801845"><ele>1154.5</ele><time>2026-05-03T08:29:26.975Z</time></trkpt><trkpt lat="45.940789821448185" lon="11.2654362690859"><ele>1151.75</ele><time>2026-05-03T08:29:27.974Z</time></trkpt><trkpt lat="45.9408386795831" lon="11.265270206359713"><ele>1149.0</ele><time>2026-05-03T08:29:28.974Z</time></trkpt><trkpt lat="45.94085547449745" lon="11.26510985758823"><ele>1149.0</ele><time>2026-05-03T08:29:29.974Z</time></trkpt><trkpt lat="45.94086685606906" lon="11.264971202394161"><ele>1149.0</ele><time>2026-05-03T08:29:30.974Z</time></trkpt><trkpt lat="45.94089613291895" lon="11.264851208282382"><ele>1149.0</ele><time>2026-05-03T08:29:31.974Z</time></trkpt><trkpt lat="45.940942493927736" lon="11.264742538866974"><ele>1149.0</ele><time>2026-05-03T08:29:32.974Z</time></trkpt><trkpt lat="45.94099997951948" lon="11.264645198788482"><ele>1149.0</ele><time>2026-05-03T08:29:33.974Z</time></trkpt><trkpt lat="45.94105836429142" lon="11.264527487455862"><ele>1150.8</ele><time>2026-05-03T08:29:34.974Z</time></trkpt><trkpt lat="45.94109969153607" lon="11.26440710777463"><ele>1152.6000000000001</ele><time>2026-05-03T08:29:35.974Z</time></trkpt><trkpt lat="45.94111934324549" lon="11.264268599364556"><ele>1154.4</ele><time>2026-05-03T08:29:36.974Z</time></trkpt><trkpt lat="45.94109766096328" lon="11.264128507011247"><ele>1156.2</ele><time>2026-05-03T08:29:37.974Z</time></trkpt><trkpt lat="45.941052070363085" lon="11.264014511509203"><ele>1158.0</ele><time>2026-05-03T08:29:38.974Z</time></trkpt><trkpt lat="45.940988752615425" lon="11.26392110839519"><ele>1158.0</ele><time>2026-05-03T08:29:39.974Z</time></trkpt><trkpt lat="45.94091164314099" lon="11.263840621927498"><ele>1158.0</ele><time>2026-05-03T08:29:40.974Z</time></trkpt><trkpt lat="45.94083708191077" lon="11.263768142221545"><ele>1158.0</ele><time>2026-05-03T08:29:41.974Z</time></trkpt><trkpt lat="45.94076205298136" lon="11.263696638881992"><ele>1158.0</ele><time>2026-05-03T08:29:42.974Z</time></trkpt><trkpt lat="45.94069934182538" lon="11.263618539713836"><ele>1158.0</ele><time>2026-05-03T08:29:43.974Z</time></trkpt><trkpt lat="45.94064356963782" lon="11.26352672845121"><ele>1158.0</ele><time>2026-05-03T08:29:44.974Z</time></trkpt><trkpt lat="45.940600282895915" lon="11.263412120088173"><ele>1155.75</ele><time>2026-05-03T08:29:45.974Z</time></trkpt><trkpt lat="45.94056919946014" lon="11.263266344478158"><ele>1153.5</ele><time>2026-05-03T08:29:46.974Z</time></trkpt><trkpt lat="45.940518010711386" lon="11.26309977704074"><ele>1151.25</ele><time>2026-05-03T08:29:47.974Z</time></trkpt><trkpt lat="45.94043313703877" lon="11.262916744994369"><ele>1149.0</ele><time>2026-05-03T08:29:48.974Z</time></trkpt><trkpt lat="45.94032037502611" lon="11.26268745752564"><ele>1149.0</ele><time>2026-05-03T08:29:49.974Z</time></trkpt><trkpt lat="45.94018525782147" lon="11.262423632206158"><ele>1149.0</ele><time>2026-05-03T08:29:50.974Z</time></trkpt><trkpt lat="45.94004261259001" lon="11.262141605114632"><ele>1147.3333333333333</ele><time>2026-05-03T08:29:51.974Z</time></trkpt><trkpt lat="45.93991116324964" lon="11.261877945514808"><ele>1145.6666666666665</ele><time>2026-05-03T08:29:52.974Z</time></trkpt><trkpt lat="45.939798336827096" lon="11.261651905430226"><ele>1144.0</ele><time>2026-05-03T08:29:53.974Z</time></trkpt><trkpt lat="45.939693459124975" lon="11.261486233050793"><ele>1140.3333333333333</ele><time>2026-05-03T08:29:54.974Z</time></trkpt><trkpt lat="45.939599284469345" lon="11.261339957162912"><ele>1136.6666666666667</ele><time>2026-05-03T08:29:55.974Z</time></trkpt><trkpt lat="45.93947354490402" lon="11.261230000139737"><ele>1133.0</ele><time>2026-05-03T08:29:56.974Z</time></trkpt><trkpt lat="45.939298624052945" lon="11.261153596662421"><ele>1136.0</ele><time>2026-05-03T08:29:57.974Z</time></trkpt><trkpt lat="45.93909914645712" lon="11.261086308190551"><ele>1139.0</ele><time>2026-05-03T08:29:58.974Z</time></trkpt><trkpt lat="45.93891305864715" lon="11.260957379711025"><ele>1142.0</ele><time>2026-05-03T08:29:59.974Z</time></trkpt><trkpt lat="45.938713951029115" lon="11.260755318756921"><ele>1143.0</ele><time>2026-05-03T08:30:00.974Z</time></trkpt><trkpt lat="45.93849773222577" lon="11.260545818895274"><ele>1144.0</ele><time>2026-05-03T08:30:01.974Z</time></trkpt><trkpt lat="45.93829629124389" lon="11.26039310389169"><ele>1144.0</ele><time>2026-05-03T08:30:02.974Z</time></trkpt><trkpt lat="45.93814714417833" lon="11.260275785891958"><ele>1144.0</ele><time>2026-05-03T08:30:03.974Z</time></trkpt><trkpt lat="45.93804073782239" lon="11.260161956757694"><ele>1144.0</ele><time>2026-05-03T08:30:04.974Z</time></trkpt><trkpt lat="45.93796877090662" lon="11.260043740138135"><ele>1144.0</ele><time>2026-05-03T08:30:05.974Z</time></trkpt><trkpt lat="45.93792593555051" lon="11.25986952217202"><ele>1143.6666666666665</ele><time>2026-05-03T08:30:06.974Z</time></trkpt><trkpt lat="45.93790775018285" lon="11.259627225475372"><ele>1143.3333333333333</ele><time>2026-05-03T08:30:07.974Z</time></trkpt><trkpt lat="45.93791280501048" lon="11.259393822186754"><ele>1143.0</ele><time>2026-05-03T08:30:08.974Z</time></trkpt><trkpt lat="45.93794613344258" lon="11.259214466078596"><ele>1143.0</ele><time>2026-05-03T08:30:09.974Z</time></trkpt><trkpt lat="45.93797135755064" lon="11.259065472932429"><ele>1143.0</ele><time>2026-05-03T08:30:10.974Z</time></trkpt><trkpt lat="45.93797148305101" lon="11.258930767819322"><ele>1143.0</ele><time>2026-05-03T08:30:11.974Z</time></trkpt><trkpt lat="45.9379913071679" lon="11.25878345916514"><ele>1143.0</ele><time>2026-05-03T08:30:12.974Z</time></trkpt><trkpt lat="45.93797914322124" lon="11.258629809346418"><ele>1143.0</ele><time>2026-05-03T08:30:13.974Z</time></trkpt><trkpt lat="45.93796268766941" lon="11.258455633242683"><ele>1140.5</ele><time>2026-05-03T08:30:14.974Z</time></trkpt><trkpt lat="45.93794040381561" lon="11.258267658881843"><ele>1138.0</ele><time>2026-05-03T08:30:15.974Z</time></trkpt><trkpt lat="45.937919671074624" lon="11.25807985812675"><ele>1135.5</ele><time>2026-05-03T08:30:16.974Z</time></trkpt><trkpt lat="45.93789659770574" lon="11.257878310117567"><ele>1133.0</ele><time>2026-05-03T08:30:17.974Z</time></trkpt><trkpt lat="45.93791967658542" lon="11.257678194522025"><ele>1133.75</ele><time>2026-05-03T08:30:18.974Z</time></trkpt><trkpt lat="45.937947050741656" lon="11.257491019510553"><ele>1134.5</ele><time>2026-05-03T08:30:19.974Z</time></trkpt><trkpt lat="45.93796989116345" lon="11.257324643862132"><ele>1135.25</ele><time>2026-05-03T08:30:20.974Z</time></trkpt><trkpt lat="45.93801048580436" lon="11.25717576161266"><ele>1136.0</ele><time>2026-05-03T08:30:21.974Z</time></trkpt><trkpt lat="45.93802380219118" lon="11.257013875340181"><ele>1136.0</ele><time>2026-05-03T08:30:22.974Z</time></trkpt><trkpt lat="45.938013754391" lon="11.256857407624294"><ele>1136.0</ele><time>2026-05-03T08:30:23.974Z</time></trkpt><trkpt lat="45.938033874286305" lon="11.256702327297909"><ele>1136.0</ele><time>2026-05-03T08:30:24.974Z</time></trkpt><trkpt lat="45.938032649249074" lon="11.256539642641325"><ele>1136.0</ele><time>2026-05-03T08:30:25.974Z</time></trkpt><trkpt lat="45.93804582481109" lon="11.256383309612746"><ele>1136.0</ele><time>2026-05-03T08:30:26.974Z</time></trkpt><trkpt lat="45.938070648380744" lon="11.25624568618918"><ele>1137.8</ele><time>2026-05-03T08:30:27.974Z</time></trkpt><trkpt lat="45.93809390479192" lon="11.256102284882425"><ele>1139.6</ele><time>2026-05-03T08:30:28.974Z</time></trkpt><trkpt lat="45.93811022343268" lon="11.2559625101495"><ele>1141.4</ele><time>2026-05-03T08:30:29.975Z</time></trkpt><trkpt lat="45.93811846438164" lon="11.25583153086576"><ele>1143.2</ele><time>2026-05-03T08:30:30.975Z</time></trkpt><trkpt lat="45.9381183512884" lon="11.255692344070212"><ele>1145.0</ele><time>2026-05-03T08:30:31.975Z</time></trkpt><trkpt lat="45.938135277757546" lon="11.255557765910954"><ele>1145.6</ele><time>2026-05-03T08:30:32.975Z</time></trkpt><trkpt lat="45.93816614668466" lon="11.255423144412857"><ele>1146.2</ele><time>2026-05-03T08:30:33.975Z</time></trkpt><trkpt lat="45.938216263555994" lon="11.255278510732362"><ele>1146.8</ele><time>2026-05-03T08:30:34.975Z</time></trkpt><trkpt lat="45.938274271099914" lon="11.255191986299497"><ele>1147.4</ele><time>2026-05-03T08:30:35.975Z</time></trkpt><trkpt lat="45.93835180142248" lon="11.255115553679897"><ele>1148.0</ele><time>2026-05-03T08:30:36.975Z</time></trkpt><trkpt lat="45.938447761481946" lon="11.255031761732052"><ele>1148.4</ele><time>2026-05-03T08:30:37.975Z</time></trkpt><trkpt lat="45.93854308948763" lon="11.254952557671889"><ele>1148.8</ele><time>2026-05-03T08:30:38.975Z</time></trkpt><trkpt lat="45.93863624622518" lon="11.254874007492733"><ele>1149.2</ele><time>2026-05-03T08:30:39.975Z</time></trkpt><trkpt lat="45.93871249064477" lon="11.25480858590576"><ele>1149.6</ele><time>2026-05-03T08:30:40.975Z</time></trkpt><trkpt lat="45.93878668232461" lon="11.254744925654538"><ele>1150.0</ele><time>2026-05-03T08:30:41.975Z</time></trkpt><trkpt lat="45.938864087006785" lon="11.254679144170723"><ele>1150.0</ele><time>2026-05-03T08:30:42.975Z</time></trkpt><trkpt lat="45.93894432047362" lon="11.254612313289133"><ele>1150.0</ele><time>2026-05-03T08:30:43.975Z</time></trkpt><trkpt lat="45.93903016044058" lon="11.254558906845833"><ele>1150.0</ele><time>2026-05-03T08:30:44.975Z</time></trkpt><trkpt lat="45.939121225363095" lon="11.254508947906292"><ele>1150.0</ele><time>2026-05-03T08:30:45.975Z</time></trkpt><trkpt lat="45.93921809228804" lon="11.25445811556565"><ele>1150.0</ele><time>2026-05-03T08:30:46.975Z</time></trkpt><trkpt lat="45.93932020550974" lon="11.254417730637783"><ele>1150.8333333333333</ele><time>2026-05-03T08:30:47.975Z</time></trkpt><trkpt lat="45.93942532235331" lon="11.254389823362423"><ele>1151.6666666666665</ele><time>2026-05-03T08:30:48.975Z</time></trkpt><trkpt lat="45.93951367688399" lon="11.254368893155998"><ele>1152.5</ele><time>2026-05-03T08:30:49.975Z</time></trkpt><trkpt lat="45.93959530873922" lon="11.254350773217597"><ele>1153.3333333333333</ele><time>2026-05-03T08:30:50.975Z</time></trkpt><trkpt lat="45.939678646318306" lon="11.254332274643394"><ele>1154.1666666666667</ele><time>2026-05-03T08:30:51.975Z</time></trkpt><trkpt lat="45.93976260202014" lon="11.254313638905911"><ele>1155.0</ele><time>2026-05-03T08:30:52.975Z</time></trkpt><trkpt lat="45.939850615435155" lon="11.254284821568447"><ele>1155.0</ele><time>2026-05-03T08:30:53.975Z</time></trkpt><trkpt lat="45.939929632866004" lon="11.254223937914508"><ele>1155.0</ele><time>2026-05-03T08:30:54.975Z</time></trkpt><trkpt lat="45.940005883329775" lon="11.254150141043628"><ele>1155.0</ele><time>2026-05-03T08:30:55.975Z</time></trkpt><trkpt lat="45.94007235977899" lon="11.254055783832104"><ele>1155.0</ele><time>2026-05-03T08:30:56.975Z</time></trkpt><trkpt lat="45.940113401465744" lon="11.25397428834025"><ele>1155.0</ele><time>2026-05-03T08:30:57.975Z</time></trkpt><trkpt lat="45.94014444392555" lon="11.253869061445213"><ele>1155.0</ele><time>2026-05-03T08:30:58.975Z</time></trkpt><trkpt lat="45.94016268925043" lon="11.253757671930646"><ele>1156.4</ele><time>2026-05-03T08:30:59.975Z</time></trkpt><trkpt lat="45.94017210843472" lon="11.25361842943486"><ele>1157.8</ele><time>2026-05-03T08:31:00.975Z</time></trkpt><trkpt lat="45.94018090691117" lon="11.253464189411298"><ele>1159.2</ele><time>2026-05-03T08:31:01.974Z</time></trkpt><trkpt lat="45.94019353593434" lon="11.253293087482016"><ele>1160.6</ele><time>2026-05-03T08:31:02.974Z</time></trkpt><trkpt lat="45.94023645267519" lon="11.253147041500364"><ele>1162.0</ele><time>2026-05-03T08:31:03.974Z</time></trkpt><trkpt lat="45.940283308538916" lon="11.253025131920463"><ele>1163.3333333333333</ele><time>2026-05-03T08:31:04.974Z</time></trkpt><trkpt lat="45.94033645677961" lon="11.25293690652789"><ele>1164.6666666666665</ele><time>2026-05-03T08:31:05.974Z</time></trkpt><trkpt lat="45.940388854283746" lon="11.252837437744422"><ele>1166.0</ele><time>2026-05-03T08:31:06.974Z</time></trkpt><trkpt lat="45.940444824417376" lon="11.252744006257473"><ele>1167.3333333333333</ele><time>2026-05-03T08:31:07.974Z</time></trkpt><trkpt lat="45.94049727053404" lon="11.252646157511123"><ele>1168.6666666666667</ele><time>2026-05-03T08:31:08.974Z</time></trkpt><trkpt lat="45.94055201600207" lon="11.252537236831701"><ele>1170.0</ele><time>2026-05-03T08:31:09.974Z</time></trkpt><trkpt lat="45.94059854627913" lon="11.252435346412392"><ele>1170.0</ele><time>2026-05-03T08:31:10.974Z</time></trkpt><trkpt lat="45.94064210378586" lon="11.25233744870927"><ele>1170.0</ele><time>2026-05-03T08:31:11.974Z</time></trkpt><trkpt lat="45.94069444580151" lon="11.252218905159491"><ele>1170.0</ele><time>2026-05-03T08:31:12.974Z</time></trkpt><trkpt lat="45.94073878345293" lon="11.252098777887383"><ele>1170.0</ele><time>2026-05-03T08:31:13.974Z</time></trkpt><trkpt lat="45.940759201437665" lon="11.251976712881627"><ele>1170.0</ele><time>2026-05-03T08:31:14.974Z</time></trkpt><trkpt lat="45.940780519233634" lon="11.251878730409361"><ele>1170.0</ele><time>2026-05-03T08:31:15.974Z</time></trkpt><trkpt lat="45.94081479771705" lon="11.251793110177795"><ele>1170.0</ele><time>2026-05-03T08:31:16.974Z</time></trkpt><trkpt lat="45.94083291133082" lon="11.251697690233444"><ele>1170.0</ele><time>2026-05-03T08:31:17.974Z</time></trkpt><trkpt lat="45.94085410438415" lon="11.251602877839806"><ele>1170.0</ele><time>2026-05-03T08:31:18.974Z</time></trkpt><trkpt lat="45.94088235014977" lon="11.251504743595751"><ele>1170.0</ele><time>2026-05-03T08:31:19.974Z</time></trkpt><trkpt lat="45.94091208345108" lon="11.251424649938388"><ele>1170.0</ele><time>2026-05-03T08:31:20.974Z</time></trkpt><trkpt lat="45.94097341051859" lon="11.251287477844537"><ele>1170.0</ele><time>2026-05-03T08:31:22.974Z</time></trkpt><trkpt lat="45.94104717184607" lon="11.251158538712433"><ele>1171.2</ele><time>2026-05-03T08:31:24.974Z</time></trkpt><trkpt lat="45.94113816967172" lon="11.251041580891465"><ele>1172.4</ele><time>2026-05-03T08:31:26.974Z</time></trkpt><trkpt lat="45.941199081077905" lon="11.250990036843763"><ele>1173.6</ele><time>2026-05-03T08:31:27.974Z</time></trkpt><trkpt lat="45.94128078427536" lon="11.250949786310063"><ele>1174.8</ele><time>2026-05-03T08:31:28.974Z</time></trkpt><trkpt lat="45.941379196673104" lon="11.250887972926762"><ele>1176.0</ele><time>2026-05-03T08:31:29.974Z</time></trkpt><trkpt lat="45.94149692198078" lon="11.250789793353226"><ele>1176.0</ele><time>2026-05-03T08:31:30.974Z</time></trkpt><trkpt lat="45.94159181081671" lon="11.250632543302459"><ele>1176.0</ele><time>2026-05-03T08:31:31.974Z</time></trkpt><trkpt lat="45.94169621646114" lon="11.250470333784998"><ele>1176.0</ele><time>2026-05-03T08:31:32.974Z</time></trkpt><trkpt lat="45.94179409291408" lon="11.250304662478543"><ele>1176.0</ele><time>2026-05-03T08:31:33.974Z</time></trkpt><trkpt lat="45.941885388375134" lon="11.250156166968758"><ele>1176.0</ele><time>2026-05-03T08:31:34.974Z</time></trkpt><trkpt lat="45.94196729760754" lon="11.25002293850316"><ele>1176.0</ele><time>2026-05-03T08:31:35.974Z</time></trkpt><trkpt lat="45.942034041261564" lon="11.24988132622044"><ele>1176.0</ele><time>2026-05-03T08:31:36.974Z</time></trkpt><trkpt lat="45.942116547374056" lon="11.249749389525565"><ele>1173.5</ele><time>2026-05-03T08:31:37.974Z</time></trkpt><trkpt lat="45.942205000136646" lon="11.24961265803289"><ele>1171.0</ele><time>2026-05-03T08:31:38.974Z</time></trkpt><trkpt lat="45.94230001407356" lon="11.249495688743234"><ele>1168.5</ele><time>2026-05-03T08:31:39.974Z</time></trkpt><trkpt lat="45.94238957190537" lon="11.249382882112506"><ele>1166.0</ele><time>2026-05-03T08:31:40.974Z</time></trkpt><trkpt lat="45.94248485663194" lon="11.249291968806372"><ele>1166.75</ele><time>2026-05-03T08:31:41.974Z</time></trkpt><trkpt lat="45.942586236319215" lon="11.249204427420043"><ele>1167.5</ele><time>2026-05-03T08:31:42.974Z</time></trkpt><trkpt lat="45.942690622591655" lon="11.249112736102918"><ele>1168.25</ele><time>2026-05-03T08:31:43.974Z</time></trkpt><trkpt lat="45.94279653110366" lon="11.249019246326"><ele>1169.0</ele><time>2026-05-03T08:31:44.974Z</time></trkpt><trkpt lat="45.942896085592075" lon="11.248923426039855"><ele>1171.0</ele><time>2026-05-03T08:31:45.974Z</time></trkpt><trkpt lat="45.94299713638478" lon="11.248844810824158"><ele>1173.0</ele><time>2026-05-03T08:31:46.974Z</time></trkpt><trkpt lat="45.94310897517776" lon="11.248806782137363"><ele>1175.0</ele><time>2026-05-03T08:31:47.974Z</time></trkpt><trkpt lat="45.94322389646056" lon="11.248774758079234"><ele>1177.0</ele><time>2026-05-03T08:31:48.974Z</time></trkpt><trkpt lat="45.94333727656345" lon="11.24876740644131"><ele>1176.2</ele><time>2026-05-03T08:31:49.974Z</time></trkpt><trkpt lat="45.943449263375754" lon="11.248763589763836"><ele>1175.4</ele><time>2026-05-03T08:31:50.974Z</time></trkpt><trkpt lat="45.943559443505684" lon="11.24874548439753"><ele>1174.6</ele><time>2026-05-03T08:31:51.974Z</time></trkpt><trkpt lat="45.94366741959753" lon="11.248747506094471"><ele>1173.8</ele><time>2026-05-03T08:31:52.974Z</time></trkpt><trkpt lat="45.943776843297584" lon="11.248733922811347"><ele>1173.0</ele><time>2026-05-03T08:31:53.974Z</time></trkpt><trkpt lat="45.94388269431263" lon="11.248705252174215"><ele>1173.0</ele><time>2026-05-03T08:31:54.974Z</time></trkpt><trkpt lat="45.94398166706877" lon="11.24865420787168"><ele>1173.0</ele><time>2026-05-03T08:31:55.974Z</time></trkpt><trkpt lat="45.944083211523974" lon="11.248618095392771"><ele>1173.0</ele><time>2026-05-03T08:31:56.974Z</time></trkpt><trkpt lat="45.94417824092154" lon="11.24854756636709"><ele>1173.0</ele><time>2026-05-03T08:31:57.974Z</time></trkpt><trkpt lat="45.94427487905845" lon="11.248460017081104"><ele>1173.0</ele><time>2026-05-03T08:31:58.974Z</time></trkpt><trkpt lat="45.944387777664744" lon="11.248406331503292"><ele>1173.4</ele><time>2026-05-03T08:31:59.974Z</time></trkpt><trkpt lat="45.944501704258585" lon="11.248385326321953"><ele>1173.8</ele><time>2026-05-03T08:32:00.974Z</time></trkpt><trkpt lat="45.944606048662294" lon="11.24838316464815"><ele>1174.2</ele><time>2026-05-03T08:32:01.974Z</time></trkpt><trkpt lat="45.94470700279451" lon="11.248405521850547"><ele>1174.6</ele><time>2026-05-03T08:32:02.974Z</time></trkpt><trkpt lat="45.94481688463154" lon="11.248433423653083"><ele>1175.0</ele><time>2026-05-03T08:32:03.974Z</time></trkpt><trkpt lat="45.94492590674914" lon="11.24845550054414"><ele>1175.0</ele><time>2026-05-03T08:32:04.974Z</time></trkpt><trkpt lat="45.9450414685225" lon="11.248456356541055"><ele>1175.0</ele><time>2026-05-03T08:32:05.974Z</time></trkpt><trkpt lat="45.94515103480039" lon="11.248430084099292"><ele>1175.0</ele><time>2026-05-03T08:32:06.974Z</time></trkpt><trkpt lat="45.94524205078059" lon="11.248393793025162"><ele>1175.0</ele><time>2026-05-03T08:32:07.974Z</time></trkpt><trkpt lat="45.94533766514732" lon="11.248335890356527"><ele>1175.0</ele><time>2026-05-03T08:32:08.974Z</time></trkpt><trkpt lat="45.9454435274112" lon="11.248249818863163"><ele>1175.0</ele><time>2026-05-03T08:32:09.974Z</time></trkpt><trkpt lat="45.945552215970494" lon="11.24813745902433"><ele>1175.0</ele><time>2026-05-03T08:32:10.974Z</time></trkpt><trkpt lat="45.945659809875664" lon="11.24803433368971"><ele>1175.0</ele><time>2026-05-03T08:32:11.974Z</time></trkpt><trkpt lat="45.94578316627766" lon="11.247943287192674"><ele>1175.0</ele><time>2026-05-03T08:32:12.974Z</time></trkpt><trkpt lat="45.94590801614213" lon="11.247839787572191"><ele>1172.0</ele><time>2026-05-03T08:32:13.974Z</time></trkpt><trkpt lat="45.94605292345098" lon="11.247733067360238"><ele>1169.0</ele><time>2026-05-03T08:32:14.974Z</time></trkpt><trkpt lat="45.94621049303311" lon="11.24762480441785"><ele>1166.0</ele><time>2026-05-03T08:32:15.974Z</time></trkpt><trkpt lat="45.946405144744475" lon="11.247463451463158"><ele>1166.5</ele><time>2026-05-03T08:32:16.974Z</time></trkpt><trkpt lat="45.946615250155126" lon="11.247271045074918"><ele>1167.0</ele><time>2026-05-03T08:32:17.974Z</time></trkpt><trkpt lat="45.94682225584488" lon="11.247082451185536"><ele>1167.3333333333333</ele><time>2026-05-03T08:32:18.974Z</time></trkpt><trkpt lat="45.94700950517037" lon="11.24692147146403"><ele>1167.6666666666665</ele><time>2026-05-03T08:32:19.974Z</time></trkpt><trkpt lat="45.94716414966362" lon="11.246796674111087"><ele>1168.0</ele><time>2026-05-03T08:32:20.974Z</time></trkpt><trkpt lat="45.94729630096702" lon="11.246717856418945"><ele>1168.0</ele><time>2026-05-03T08:32:21.974Z</time></trkpt><trkpt lat="45.947419820570474" lon="11.246660225504083"><ele>1168.0</ele><time>2026-05-03T08:32:22.974Z</time></trkpt><trkpt lat="45.94751382608996" lon="11.246613329474153"><ele>1168.0</ele><time>2026-05-03T08:32:23.974Z</time></trkpt><trkpt lat="45.947561277675774" lon="11.246465760520278"><ele>1168.0</ele><time>2026-05-03T08:32:24.974Z</time></trkpt><trkpt lat="45.94756967623511" lon="11.24628351394412"><ele>1167.5</ele><time>2026-05-03T08:32:25.974Z</time></trkpt><trkpt lat="45.94753639275585" lon="11.24609008584952"><ele>1167.0</ele><time>2026-05-03T08:32:26.974Z</time></trkpt><trkpt lat="45.94750524876447" lon="11.245889379191729"><ele>1166.5</ele><time>2026-05-03T08:32:27.974Z</time></trkpt><trkpt lat="45.94751268881746" lon="11.245754142984309"><ele>1166.0</ele><time>2026-05-03T08:32:28.974Z</time></trkpt><trkpt lat="45.94758720221616" lon="11.245651287399392"><ele>1168.3333333333335</ele><time>2026-05-03T08:32:29.973Z</time></trkpt><trkpt lat="45.94769616852119" lon="11.245550222388632"><ele>1170.6666666666667</ele><time>2026-05-03T08:32:30.973Z</time></trkpt><trkpt lat="45.9478174986001" lon="11.245389560201316"><ele>1173.0</ele><time>2026-05-03T08:32:31.973Z</time></trkpt><trkpt lat="45.947887298503325" lon="11.24516809205893"><ele>1173.0</ele><time>2026-05-03T08:32:32.973Z</time></trkpt><trkpt lat="45.94791894151952" lon="11.244907703303728"><ele>1173.0</ele><time>2026-05-03T08:32:33.973Z</time></trkpt><trkpt lat="45.94790985588241" lon="11.244623425040565"><ele>1173.0</ele><time>2026-05-03T08:32:34.973Z</time></trkpt><trkpt lat="45.94794898501587" lon="11.244360501059726"><ele>1170.8</ele><time>2026-05-03T08:32:35.975Z</time></trkpt><trkpt lat="45.94797351345334" lon="11.244139842876114"><ele>1168.6</ele><time>2026-05-03T08:32:36.975Z</time></trkpt><trkpt lat="45.947993429237734" lon="11.243987704037059"><ele>1166.4</ele><time>2026-05-03T08:32:37.975Z</time></trkpt><trkpt lat="45.948016399842224" lon="11.243879235584604"><ele>1164.2</ele><time>2026-05-03T08:32:38.974Z</time></trkpt><trkpt lat="45.94806296346212" lon="11.243780366348986"><ele>1162.0</ele><time>2026-05-03T08:32:39.974Z</time></trkpt><trkpt lat="45.94815352335622" lon="11.24373388552389"><ele>1161.25</ele><time>2026-05-03T08:32:40.974Z</time></trkpt><trkpt lat="45.94827058404436" lon="11.243757698303144"><ele>1160.5</ele><time>2026-05-03T08:32:41.974Z</time></trkpt><trkpt lat="45.94838035467394" lon="11.243877068084823"><ele>1159.75</ele><time>2026-05-03T08:32:42.975Z</time></trkpt><trkpt lat="45.94843797411385" lon="11.244088648587672"><ele>1159.0</ele><time>2026-05-03T08:32:43.975Z</time></trkpt><trkpt lat="45.94847497080766" lon="11.244304917427463"><ele>1156.5</ele><time>2026-05-03T08:32:44.975Z</time></trkpt><trkpt lat="45.94852688425478" lon="11.244444398898121"><ele>1154.0</ele><time>2026-05-03T08:32:45.974Z</time></trkpt><trkpt lat="45.94859624607206" lon="11.244543852987237"><ele>1151.5</ele><time>2026-05-03T08:32:46.974Z</time></trkpt><trkpt lat="45.94873595265073" lon="11.244565093987104"><ele>1149.0</ele><time>2026-05-03T08:32:47.974Z</time></trkpt><trkpt lat="45.94888725589197" lon="11.244509844285268"><ele>1149.0</ele><time>2026-05-03T08:32:48.975Z</time></trkpt><trkpt lat="45.94904093892075" lon="11.244401712476234"><ele>1149.0</ele><time>2026-05-03T08:32:49.975Z</time></trkpt><trkpt lat="45.94918960556604" lon="11.244302827378073"><ele>1149.0</ele><time>2026-05-03T08:32:50.975Z</time></trkpt><trkpt lat="45.94931406940554" lon="11.24424956034388"><ele>1148.5</ele><time>2026-05-03T08:32:51.975Z</time></trkpt><trkpt lat="45.94941372401997" lon="11.244194271293392"><ele>1148.0</ele><time>2026-05-03T08:32:52.975Z</time></trkpt><trkpt lat="45.94948469929409" lon="11.244087178706359"><ele>1147.5</ele><time>2026-05-03T08:32:53.975Z</time></trkpt><trkpt lat="45.94952231831912" lon="11.2439156277428"><ele>1147.0</ele><time>2026-05-03T08:32:54.975Z</time></trkpt><trkpt lat="45.949501806573274" lon="11.243692537768426"><ele>1146.3333333333333</ele><time>2026-05-03T08:32:55.975Z</time></trkpt><trkpt lat="45.94943070060594" lon="11.24345018724332"><ele>1145.6666666666667</ele><time>2026-05-03T08:32:56.975Z</time></trkpt><trkpt lat="45.949290338991766" lon="11.243232445378718"><ele>1145.0</ele><time>2026-05-03T08:32:57.975Z</time></trkpt><trkpt lat="45.94911121371326" lon="11.24306150876887"><ele>1147.0</ele><time>2026-05-03T08:32:58.975Z</time></trkpt><trkpt lat="45.94894189882794" lon="11.242942345889787"><ele>1149.0</ele><time>2026-05-03T08:32:59.975Z</time></trkpt><trkpt lat="45.948816591052385" lon="11.242838711421815"><ele>1151.0</ele><time>2026-05-03T08:33:00.975Z</time></trkpt><trkpt lat="45.948742440201634" lon="11.24269749822374"><ele>1151.0</ele><time>2026-05-03T08:33:01.974Z</time></trkpt><trkpt lat="45.94868687815619" lon="11.24253664772724"><ele>1151.0</ele><time>2026-05-03T08:33:02.974Z</time></trkpt><trkpt lat="45.94868505966971" lon="11.242302568769452"><ele>1151.0</ele><time>2026-05-03T08:33:03.974Z</time></trkpt><trkpt lat="45.94866726933673" lon="11.242053654146778"><ele>1149.3333333333335</ele><time>2026-05-03T08:33:04.974Z</time></trkpt><trkpt lat="45.94862013327423" lon="11.241853715419023"><ele>1147.6666666666667</ele><time>2026-05-03T08:33:05.974Z</time></trkpt><trkpt lat="45.94854746014576" lon="11.241683479687376"><ele>1146.0</ele><time>2026-05-03T08:33:06.974Z</time></trkpt><trkpt lat="45.948433243560835" lon="11.241506422715297"><ele>1146.6666666666667</ele><time>2026-05-03T08:33:07.974Z</time></trkpt><trkpt lat="45.94827348479539" lon="11.241370848712497"><ele>1147.3333333333335</ele><time>2026-05-03T08:33:08.974Z</time></trkpt><trkpt lat="45.94807728007964" lon="11.241287436353742"><ele>1148.0</ele><time>2026-05-03T08:33:09.974Z</time></trkpt><trkpt lat="45.94789685391464" lon="11.241203872294639"><ele>1148.0</ele><time>2026-05-03T08:33:10.974Z</time></trkpt><trkpt lat="45.9477057769881" lon="11.24116403221327"><ele>1148.0</ele><time>2026-05-03T08:33:11.974Z</time></trkpt><trkpt lat="45.94747826539054" lon="11.24117312482493"><ele>1148.0</ele><time>2026-05-03T08:33:12.974Z</time></trkpt><trkpt lat="45.94725667531951" lon="11.2412130329402"><ele>1144.0</ele><time>2026-05-03T08:33:13.974Z</time></trkpt><trkpt lat="45.94703991055372" lon="11.241191736890533"><ele>1140.0</ele><time>2026-05-03T08:33:14.974Z</time></trkpt><trkpt lat="45.94678864880253" lon="11.241130238162432"><ele>1135.0</ele><time>2026-05-03T08:33:15.974Z</time></trkpt><trkpt lat="45.94655300451339" lon="11.241049160786082"><ele>1130.0</ele><time>2026-05-03T08:33:16.974Z</time></trkpt><trkpt lat="45.94635500848747" lon="11.24099767574759"><ele>1125.0</ele><time>2026-05-03T08:33:17.974Z</time></trkpt><trkpt lat="45.946189556980336" lon="11.240959666047171"><ele>1125.0</ele><time>2026-05-03T08:33:18.974Z</time></trkpt><trkpt lat="45.94604957315432" lon="11.240896713837223"><ele>1125.0</ele><time>2026-05-03T08:33:19.974Z</time></trkpt><trkpt lat="45.94594146593214" lon="11.240825109188123"><ele>1125.0</ele><time>2026-05-03T08:33:20.974Z</time></trkpt><trkpt lat="45.94585830575081" lon="11.24070345916494"><ele>1125.0</ele><time>2026-05-03T08:33:21.974Z</time></trkpt><trkpt lat="45.945836787455164" lon="11.24052759224459"><ele>1122.6666666666667</ele><time>2026-05-03T08:33:22.974Z</time></trkpt><trkpt lat="45.94585115856528" lon="11.240308238973263"><ele>1120.3333333333335</ele><time>2026-05-03T08:33:23.974Z</time></trkpt><trkpt lat="45.94586044590956" lon="11.240052622448953"><ele>1118.0</ele><time>2026-05-03T08:33:24.974Z</time></trkpt><trkpt lat="45.945913494416935" lon="11.239825095077856"><ele>1116.6</ele><time>2026-05-03T08:33:25.974Z</time></trkpt><trkpt lat="45.94596693705421" lon="11.23965109477026"><ele>1115.1999999999998</ele><time>2026-05-03T08:33:26.974Z</time></trkpt><trkpt lat="45.94602097056592" lon="11.239520325858887"><ele>1113.8</ele><time>2026-05-03T08:33:27.974Z</time></trkpt><trkpt lat="45.94601923775397" lon="11.239403941824248"><ele>1112.3999999999999</ele><time>2026-05-03T08:33:28.974Z</time></trkpt><trkpt lat="45.94595236942414" lon="11.239288049420844"><ele>1111.0</ele><time>2026-05-03T08:33:29.974Z</time></trkpt><trkpt lat="45.94583825438712" lon="11.239118852796736"><ele>1108.3333333333333</ele><time>2026-05-03T08:33:30.974Z</time></trkpt><trkpt lat="45.94570727274371" lon="11.238916937213697"><ele>1105.6666666666667</ele><time>2026-05-03T08:33:31.974Z</time></trkpt><trkpt lat="45.94557028813274" lon="11.238741480801842"><ele>1103.0</ele><time>2026-05-03T08:33:32.974Z</time></trkpt><trkpt lat="45.94538356144049" lon="11.238622655281297"><ele>1103.0</ele><time>2026-05-03T08:33:33.974Z</time></trkpt><trkpt lat="45.94518983872416" lon="11.23845160234515"><ele>1103.0</ele><time>2026-05-03T08:33:34.974Z</time></trkpt><trkpt lat="45.945023801022515" lon="11.238202892028117"><ele>1103.0</ele><time>2026-05-03T08:33:35.974Z</time></trkpt><trkpt lat="45.94484844747105" lon="11.237991770744845"><ele>1103.0</ele><time>2026-05-03T08:33:36.974Z</time></trkpt><trkpt lat="45.94469895124215" lon="11.237801595360722"><ele>1103.0</ele><time>2026-05-03T08:33:37.974Z</time></trkpt><trkpt lat="45.94453187914879" lon="11.237673497440852"><ele>1103.0</ele><time>2026-05-03T08:33:38.974Z</time></trkpt><trkpt lat="45.944338470137126" lon="11.237577742150673"><ele>1103.0</ele><time>2026-05-03T08:33:39.974Z</time></trkpt><trkpt lat="45.94414552351877" lon="11.23750199864987"><ele>1103.0</ele><time>2026-05-03T08:33:40.974Z</time></trkpt><trkpt lat="45.943955850672964" lon="11.237399918543131"><ele>1107.3333333333335</ele><time>2026-05-03T08:33:41.974Z</time></trkpt><trkpt lat="45.94378378435919" lon="11.237213095619284"><ele>1111.6666666666667</ele><time>2026-05-03T08:33:42.974Z</time></trkpt><trkpt lat="45.94361069729684" lon="11.23700486709195"><ele>1116.0</ele><time>2026-05-03T08:33:43.974Z</time></trkpt><trkpt lat="45.94343416291061" lon="11.236808653665504"><ele>1116.0</ele><time>2026-05-03T08:33:44.974Z</time></trkpt><trkpt lat="45.94326350729028" lon="11.236663927323997"><ele>1116.0</ele><time>2026-05-03T08:33:45.974Z</time></trkpt><trkpt lat="45.94306486064834" lon="11.23659871165428"><ele>1116.0</ele><time>2026-05-03T08:33:46.974Z</time></trkpt><trkpt lat="45.94286766867794" lon="11.23653972311677"><ele>1116.0</ele><time>2026-05-03T08:33:47.974Z</time></trkpt><trkpt lat="45.94270415747495" lon="11.236490818923452"><ele>1116.0</ele><time>2026-05-03T08:33:48.974Z</time></trkpt><trkpt lat="45.94255912288459" lon="11.236437711069467"><ele>1116.0</ele><time>2026-05-03T08:33:49.974Z</time></trkpt><trkpt lat="45.94242744101518" lon="11.236328476470796"><ele>1116.0</ele><time>2026-05-03T08:33:50.974Z</time></trkpt><trkpt lat="45.942289953508634" lon="11.236162177717945"><ele>1116.0</ele><time>2026-05-03T08:33:51.974Z</time></trkpt><trkpt lat="45.94219462114453" lon="11.235968007783393"><ele>1116.0</ele><time>2026-05-03T08:33:52.974Z</time></trkpt><trkpt lat="45.94211357316446" lon="11.235800453998955"><ele>1114.6666666666667</ele><time>2026-05-03T08:33:53.974Z</time></trkpt><trkpt lat="45.942062599005325" lon="11.235600008594535"><ele>1113.3333333333335</ele><time>2026-05-03T08:33:54.974Z</time></trkpt><trkpt lat="45.94204900061757" lon="11.235369027294329"><ele>1112.0</ele><time>2026-05-03T08:33:55.974Z</time></trkpt><trkpt lat="45.94206074194269" lon="11.235111391500409"><ele>1112.0</ele><time>2026-05-03T08:33:56.974Z</time></trkpt><trkpt lat="45.94205326805946" lon="11.234845223613384"><ele>1112.0</ele><time>2026-05-03T08:33:57.974Z</time></trkpt><trkpt lat="45.94201648336516" lon="11.234561907409928"><ele>1112.0</ele><time>2026-05-03T08:33:58.974Z</time></trkpt><trkpt lat="45.941978934210894" lon="11.234297648212547"><ele>1109.0</ele><time>2026-05-03T08:33:59.974Z</time></trkpt><trkpt lat="45.94194145978032" lon="11.234030347355656"><ele>1106.0</ele><time>2026-05-03T08:34:00.974Z</time></trkpt><trkpt lat="45.94190562875681" lon="11.2337701184676"><ele>1103.0</ele><time>2026-05-03T08:34:01.974Z</time></trkpt><trkpt lat="45.94186870029618" lon="11.23350191947541"><ele>1099.6666666666667</ele><time>2026-05-03T08:34:02.974Z</time></trkpt><trkpt lat="45.94182048855642" lon="11.23323838523725"><ele>1096.3333333333333</ele><time>2026-05-03T08:34:03.974Z</time></trkpt><trkpt lat="45.94172649278199" lon="11.233028032327796"><ele>1093.0</ele><time>2026-05-03T08:34:04.974Z</time></trkpt><trkpt lat="45.94161769839557" lon="11.232826154719154"><ele>1089.3333333333333</ele><time>2026-05-03T08:34:05.974Z</time></trkpt><trkpt lat="45.941491656639734" lon="11.232634468314192"><ele>1085.6666666666667</ele><time>2026-05-03T08:34:06.974Z</time></trkpt><trkpt lat="45.94136523581601" lon="11.232447090525689"><ele>1082.0</ele><time>2026-05-03T08:34:07.974Z</time></trkpt><trkpt lat="45.94124455908272" lon="11.232266627873885"><ele>1080.3333333333335</ele><time>2026-05-03T08:34:08.974Z</time></trkpt><trkpt lat="45.941115482116146" lon="11.232098206470482"><ele>1078.6666666666667</ele><time>2026-05-03T08:34:09.974Z</time></trkpt><trkpt lat="45.94096620066058" lon="11.231960610305908"><ele>1077.0</ele><time>2026-05-03T08:34:10.974Z</time></trkpt><trkpt lat="45.94077536357824" lon="11.231857404611938"><ele>1073.5</ele><time>2026-05-03T08:34:11.974Z</time></trkpt><trkpt lat="45.940581663672326" lon="11.231691771889313"><ele>1070.0</ele><time>2026-05-03T08:34:12.974Z</time></trkpt><trkpt lat="45.940395166274044" lon="11.231499595403605"><ele>1071.3333333333335</ele><time>2026-05-03T08:34:13.974Z</time></trkpt><trkpt lat="45.940234244802305" lon="11.231338757161316"><ele>1072.6666666666667</ele><time>2026-05-03T08:34:14.974Z</time></trkpt><trkpt lat="45.94011875652975" lon="11.231191749978167"><ele>1074.0</ele><time>2026-05-03T08:34:15.974Z</time></trkpt><trkpt lat="45.94001538899906" lon="11.231017166512974"><ele>1074.0</ele><time>2026-05-03T08:34:16.974Z</time></trkpt><trkpt lat="45.939939555112616" lon="11.230812967621592"><ele>1074.0</ele><time>2026-05-03T08:34:17.974Z</time></trkpt><trkpt lat="45.93988981122594" lon="11.230577835054747"><ele>1074.0</ele><time>2026-05-03T08:34:18.974Z</time></trkpt><trkpt lat="45.93986999008471" lon="11.230354361090834"><ele>1071.75</ele><time>2026-05-03T08:34:19.974Z</time></trkpt><trkpt lat="45.939846981812025" lon="11.230165834275475"><ele>1069.5</ele><time>2026-05-03T08:34:20.974Z</time></trkpt><trkpt lat="45.93978477464739" lon="11.230003571532343"><ele>1067.25</ele><time>2026-05-03T08:34:21.974Z</time></trkpt><trkpt lat="45.939670855101404" lon="11.229841432594784"><ele>1065.0</ele><time>2026-05-03T08:34:22.974Z</time></trkpt><trkpt lat="45.93954333302111" lon="11.229709235160124"><ele>1064.3333333333333</ele><time>2026-05-03T08:34:23.974Z</time></trkpt><trkpt lat="45.939405452957125" lon="11.229532735079061"><ele>1063.6666666666665</ele><time>2026-05-03T08:34:24.974Z</time></trkpt><trkpt lat="45.93923490410368" lon="11.229396953433723"><ele>1063.0</ele><time>2026-05-03T08:34:25.974Z</time></trkpt><trkpt lat="45.939066183168464" lon="11.229277961490993"><ele>1063.0</ele><time>2026-05-03T08:34:26.974Z</time></trkpt><trkpt lat="45.938872794181336" lon="11.229151573586716"><ele>1063.0</ele><time>2026-05-03T08:34:27.974Z</time></trkpt><trkpt lat="45.93871050204415" lon="11.229043380121396"><ele>1063.0</ele><time>2026-05-03T08:34:28.974Z</time></trkpt><trkpt lat="45.93856142004967" lon="11.228942344218613"><ele>1062.3333333333333</ele><time>2026-05-03T08:34:29.973Z</time></trkpt><trkpt lat="45.938410856478356" lon="11.228846687379844"><ele>1061.6666666666667</ele><time>2026-05-03T08:34:30.973Z</time></trkpt><trkpt lat="45.93826838435525" lon="11.22870291194009"><ele>1061.0</ele><time>2026-05-03T08:34:31.973Z</time></trkpt><trkpt lat="45.93813653952542" lon="11.228535919782779"><ele>1061.0</ele><time>2026-05-03T08:34:32.973Z</time></trkpt><trkpt lat="45.938019034057646" lon="11.228365786637864"><ele>1061.0</ele><time>2026-05-03T08:34:33.973Z</time></trkpt><trkpt lat="45.93791915743426" lon="11.228199759736336"><ele>1061.0</ele><time>2026-05-03T08:34:34.973Z</time></trkpt><trkpt lat="45.93780638065085" lon="11.228058490696032"><ele>1058.25</ele><time>2026-05-03T08:34:35.973Z</time></trkpt><trkpt lat="45.937717756548956" lon="11.227911161296987"><ele>1055.5</ele><time>2026-05-03T08:34:36.973Z</time></trkpt><trkpt lat="45.93765388361917" lon="11.22773448543857"><ele>1052.75</ele><time>2026-05-03T08:34:37.973Z</time></trkpt><trkpt lat="45.93761876789327" lon="11.227506880674648"><ele>1050.0</ele><time>2026-05-03T08:34:38.973Z</time></trkpt><trkpt lat="45.93759650881983" lon="11.227286358758725"><ele>1047.25</ele><time>2026-05-03T08:34:39.973Z</time></trkpt><trkpt lat="45.937579579644414" lon="11.227096217969434"><ele>1044.5</ele><time>2026-05-03T08:34:40.973Z</time></trkpt><trkpt lat="45.937543498368605" lon="11.22691999831978"><ele>1041.75</ele><time>2026-05-03T08:34:41.974Z</time></trkpt><trkpt lat="45.93749827999911" lon="11.226757216676408"><ele>1039.0</ele><time>2026-05-03T08:34:42.973Z</time></trkpt><trkpt lat="45.937405028731135" lon="11.226637623452657"><ele>1045.25</ele><time>2026-05-03T08:34:43.973Z</time></trkpt><trkpt lat="45.937317439649206" lon="11.226604351775794"><ele>1051.5</ele><time>2026-05-03T08:34:44.975Z</time></trkpt><trkpt lat="45.937195162146324" lon="11.226541178939534"><ele>1057.75</ele><time>2026-05-03T08:34:45.974Z</time></trkpt><trkpt lat="45.93700879479145" lon="11.226559407077856"><ele>1064.0</ele><time>2026-05-03T08:34:46.974Z</time></trkpt><trkpt lat="45.93682552347044" lon="11.22664416921538"><ele>1065.75</ele><time>2026-05-03T08:34:47.974Z</time></trkpt><trkpt lat="45.936671358805754" lon="11.226724289124821"><ele>1067.5</ele><time>2026-05-03T08:34:48.974Z</time></trkpt><trkpt lat="45.93654281179615" lon="11.22679655326584"><ele>1069.25</ele><time>2026-05-03T08:34:49.974Z</time></trkpt><trkpt lat="45.936429099472186" lon="11.226860477745044"><ele>1071.0</ele><time>2026-05-03T08:34:50.974Z</time></trkpt><trkpt lat="45.936328752925576" lon="11.226941843731552"><ele>1071.0</ele><time>2026-05-03T08:34:51.974Z</time></trkpt><trkpt lat="45.93622263784628" lon="11.226994190465403"><ele>1071.0</ele><time>2026-05-03T08:34:52.974Z</time></trkpt><trkpt lat="45.93611485820101" lon="11.22705133631264"><ele>1071.0</ele><time>2026-05-03T08:34:53.974Z</time></trkpt><trkpt lat="45.93600462065771" lon="11.227078861656373"><ele>1071.0</ele><time>2026-05-03T08:34:54.974Z</time></trkpt><trkpt lat="45.935889413093946" lon="11.227024832541765"><ele>1070.25</ele><time>2026-05-03T08:34:55.974Z</time></trkpt><trkpt lat="45.93576127790301" lon="11.226990736832699"><ele>1069.5</ele><time>2026-05-03T08:34:56.974Z</time></trkpt><trkpt lat="45.935650611643915" lon="11.226925582855293"><ele>1068.75</ele><time>2026-05-03T08:34:57.974Z</time></trkpt><trkpt lat="45.93554086714478" lon="11.226885768962257"><ele>1068.0</ele><time>2026-05-03T08:34:58.974Z</time></trkpt><trkpt lat="45.935436379890646" lon="11.226852976106143"><ele>1068.0</ele><time>2026-05-03T08:34:59.974Z</time></trkpt><trkpt lat="45.935333167408366" lon="11.22681515994527"><ele>1068.0</ele><time>2026-05-03T08:35:00.974Z</time></trkpt><trkpt lat="45.93522488115267" lon="11.226774548301782"><ele>1068.0</ele><time>2026-05-03T08:35:01.974Z</time></trkpt><trkpt lat="45.93511096071918" lon="11.226741494179784"><ele>1068.0</ele><time>2026-05-03T08:35:02.974Z</time></trkpt><trkpt lat="45.93500319376207" lon="11.226721998436366"><ele>1068.0</ele><time>2026-05-03T08:35:03.974Z</time></trkpt><trkpt lat="45.934905701180824" lon="11.22669294687345"><ele>1069.0</ele><time>2026-05-03T08:35:04.974Z</time></trkpt><trkpt lat="45.93481071078804" lon="11.226670056630477"><ele>1070.0</ele><time>2026-05-03T08:35:05.974Z</time></trkpt><trkpt lat="45.93470894204269" lon="11.226646483280993"><ele>1071.0</ele><time>2026-05-03T08:35:06.974Z</time></trkpt><trkpt lat="45.93460637290889" lon="11.22661976542179"><ele>1072.0</ele><time>2026-05-03T08:35:07.974Z</time></trkpt><trkpt lat="45.93450031034575" lon="11.226595661206165"><ele>1073.0</ele><time>2026-05-03T08:35:08.974Z</time></trkpt><trkpt lat="45.93438858597379" lon="11.226565892159341"><ele>1073.0</ele><time>2026-05-03T08:35:09.974Z</time></trkpt><trkpt lat="45.934281614646" lon="11.226495462370405"><ele>1073.0</ele><time>2026-05-03T08:35:10.974Z</time></trkpt><trkpt lat="45.93416878381063" lon="11.226436544097364"><ele>1073.0</ele><time>2026-05-03T08:35:11.974Z</time></trkpt><trkpt lat="45.93404899464321" lon="11.22636738644723"><ele>1073.0</ele><time>2026-05-03T08:35:12.974Z</time></trkpt><trkpt lat="45.93392433196333" lon="11.226284867113296"><ele>1074.3333333333335</ele><time>2026-05-03T08:35:13.974Z</time></trkpt><trkpt lat="45.93377771048501" lon="11.226212681571376"><ele>1075.6666666666667</ele><time>2026-05-03T08:35:14.974Z</time></trkpt><trkpt lat="45.93361960994648" lon="11.22616726375149"><ele>1077.0</ele><time>2026-05-03T08:35:15.974Z</time></trkpt><trkpt lat="45.9334658390175" lon="11.226126456346574"><ele>1078.2</ele><time>2026-05-03T08:35:16.974Z</time></trkpt><trkpt lat="45.93335133880007" lon="11.226084773923034"><ele>1079.4</ele><time>2026-05-03T08:35:17.974Z</time></trkpt><trkpt lat="45.933262742529735" lon="11.226011901523082"><ele>1080.6</ele><time>2026-05-03T08:35:18.974Z</time></trkpt><trkpt lat="45.933199188638206" lon="11.225914738520999"><ele>1081.8</ele><time>2026-05-03T08:35:19.974Z</time></trkpt><trkpt lat="45.93315664587955" lon="11.22576093536758"><ele>1083.0</ele><time>2026-05-03T08:35:20.974Z</time></trkpt><trkpt lat="45.93306898118732" lon="11.22557042756837"><ele>1083.0</ele><time>2026-05-03T08:35:21.974Z</time></trkpt><trkpt lat="45.933006407278576" lon="11.225388188950584"><ele>1083.0</ele><time>2026-05-03T08:35:22.974Z</time></trkpt><trkpt lat="45.932950818888614" lon="11.225239334814285"><ele>1083.0</ele><time>2026-05-03T08:35:23.974Z</time></trkpt><trkpt lat="45.93288297067856" lon="11.225108440941021"><ele>1083.0</ele><time>2026-05-03T08:35:24.974Z</time></trkpt><trkpt lat="45.932785428726135" lon="11.224979796224156"><ele>1083.0</ele><time>2026-05-03T08:35:25.974Z</time></trkpt><trkpt lat="45.93263195921138" lon="11.224934872349538"><ele>1083.0</ele><time>2026-05-03T08:35:26.974Z</time></trkpt><trkpt lat="45.93246967031086" lon="11.224858020135509"><ele>1083.0</ele><time>2026-05-03T08:35:27.974Z</time></trkpt><trkpt lat="45.932356672272704" lon="11.224812606120166"><ele>1083.0</ele><time>2026-05-03T08:35:28.974Z</time></trkpt><trkpt lat="45.93228269919121" lon="11.224779227521761"><ele>1085.4</ele><time>2026-05-03T08:35:29.974Z</time></trkpt><trkpt lat="45.93218993220229" lon="11.224753990441332"><ele>1087.8</ele><time>2026-05-03T08:35:30.974Z</time></trkpt><trkpt lat="45.93210162649214" lon="11.224777709631631"><ele>1090.2</ele><time>2026-05-03T08:35:31.974Z</time></trkpt><trkpt lat="45.932032803133055" lon="11.224876920004224"><ele>1092.6</ele><time>2026-05-03T08:35:32.974Z</time></trkpt><trkpt lat="45.93198890044703" lon="11.225031893784935"><ele>1095.0</ele><time>2026-05-03T08:35:33.974Z</time></trkpt><trkpt lat="45.931979518960496" lon="11.225224466246907"><ele>1095.0</ele><time>2026-05-03T08:35:34.974Z</time></trkpt><trkpt lat="45.931981126470355" lon="11.225427236640659"><ele>1095.0</ele><time>2026-05-03T08:35:35.974Z</time></trkpt><trkpt lat="45.931953416073426" lon="11.22560823274112"><ele>1095.0</ele><time>2026-05-03T08:35:36.973Z</time></trkpt><trkpt lat="45.93191260696972" lon="11.2257806317841"><ele>1095.0</ele><time>2026-05-03T08:35:37.973Z</time></trkpt><trkpt lat="45.931878033329895" lon="11.22592663058696"><ele>1094.1666666666667</ele><time>2026-05-03T08:35:38.973Z</time></trkpt><trkpt lat="45.93183228071092" lon="11.226012895006447"><ele>1093.3333333333333</ele><time>2026-05-03T08:35:39.973Z</time></trkpt><trkpt lat="45.93174659919583" lon="11.226013856818012"><ele>1092.5</ele><time>2026-05-03T08:35:40.973Z</time></trkpt><trkpt lat="45.93167995208327" lon="11.225974144648829"><ele>1091.6666666666665</ele><time>2026-05-03T08:35:41.973Z</time></trkpt><trkpt lat="45.93161037371524" lon="11.22589735852582"><ele>1090.8333333333333</ele><time>2026-05-03T08:35:42.973Z</time></trkpt><trkpt lat="45.931614323374134" lon="11.225744378240584"><ele>1090.0</ele><time>2026-05-03T08:35:43.973Z</time></trkpt><trkpt lat="45.93159474359055" lon="11.225580035075568"><ele>1095.0</ele><time>2026-05-03T08:35:44.973Z</time></trkpt><trkpt lat="45.93157086210919" lon="11.22542193362417"><ele>1100.0</ele><time>2026-05-03T08:35:45.973Z</time></trkpt><trkpt lat="45.93150187415171" lon="11.225268350050195"><ele>1105.0</ele><time>2026-05-03T08:35:46.973Z</time></trkpt><trkpt lat="45.931396999162445" lon="11.22511447417316"><ele>1110.0</ele><time>2026-05-03T08:35:47.973Z</time></trkpt><trkpt lat="45.93124792675857" lon="11.224981379220926"><ele>1110.0</ele><time>2026-05-03T08:35:48.973Z</time></trkpt><trkpt lat="45.93112772691059" lon="11.22483957764504"><ele>1110.0</ele><time>2026-05-03T08:35:49.973Z</time></trkpt><trkpt lat="45.93101693855699" lon="11.224715078116718"><ele>1110.0</ele><time>2026-05-03T08:35:50.973Z</time></trkpt><trkpt lat="45.93087888251806" lon="11.224669687163962"><ele>1110.0</ele><time>2026-05-03T08:35:51.973Z</time></trkpt><trkpt lat="45.93073551899589" lon="11.224656980618002"><ele>1114.2</ele><time>2026-05-03T08:35:52.973Z</time></trkpt><trkpt lat="45.93060877406433" lon="11.224649580202255"><ele>1118.4</ele><time>2026-05-03T08:35:53.973Z</time></trkpt><trkpt lat="45.930514154409316" lon="11.224617537739272"><ele>1122.6</ele><time>2026-05-03T08:35:54.973Z</time></trkpt><trkpt lat="45.93044699516156" lon="11.224541191676886"><ele>1126.8</ele><time>2026-05-03T08:35:55.973Z</time></trkpt><trkpt lat="45.930431064026685" lon="11.224428453118282"><ele>1131.0</ele><time>2026-05-03T08:35:56.973Z</time></trkpt><trkpt lat="45.930451558870026" lon="11.224304796805"><ele>1131.0</ele><time>2026-05-03T08:35:57.973Z</time></trkpt><trkpt lat="45.93053409321922" lon="11.224202330491437"><ele>1131.0</ele><time>2026-05-03T08:35:58.973Z</time></trkpt><trkpt lat="45.93065964833998" lon="11.224132658436574"><ele>1131.0</ele><time>2026-05-03T08:35:59.973Z</time></trkpt><trkpt lat="45.93080271821471" lon="11.22405381424543"><ele>1131.0</ele><time>2026-05-03T08:36:00.973Z</time></trkpt><trkpt lat="45.930956445518895" lon="11.223954146686989"><ele>1132.0</ele><time>2026-05-03T08:36:01.973Z</time></trkpt><trkpt lat="45.93111064958072" lon="11.223856103878493"><ele>1133.0</ele><time>2026-05-03T08:36:02.973Z</time></trkpt><trkpt lat="45.931216497522044" lon="11.223774835363832"><ele>1134.0</ele><time>2026-05-03T08:36:03.973Z</time></trkpt><trkpt lat="45.93128413240125" lon="11.223691128780771"><ele>1135.0</ele><time>2026-05-03T08:36:04.973Z</time></trkpt><trkpt lat="45.931308679564125" lon="11.223581932401585"><ele>1135.0</ele><time>2026-05-03T08:36:05.973Z</time></trkpt><trkpt lat="45.931278389134455" lon="11.223467676415835"><ele>1135.0</ele><time>2026-05-03T08:36:06.973Z</time></trkpt><trkpt lat="45.93119805539001" lon="11.22337996785627"><ele>1135.0</ele><time>2026-05-03T08:36:07.973Z</time></trkpt><trkpt lat="45.93108431040157" lon="11.223354370856736"><ele>1135.0</ele><time>2026-05-03T08:36:08.973Z</time></trkpt><trkpt lat="45.930952958080034" lon="11.223394009489398"><ele>1135.0</ele><time>2026-05-03T08:36:09.973Z</time></trkpt><trkpt lat="45.93079892912008" lon="11.22345195178455"><ele>1138.0</ele><time>2026-05-03T08:36:10.973Z</time></trkpt><trkpt lat="45.93063850680256" lon="11.223504750117131"><ele>1141.0</ele><time>2026-05-03T08:36:11.973Z</time></trkpt><trkpt lat="45.93050955181967" lon="11.223545230041758"><ele>1144.0</ele><time>2026-05-03T08:36:12.973Z</time></trkpt><trkpt lat="45.930389090200016" lon="11.223535318342622"><ele>1147.0</ele><time>2026-05-03T08:36:13.973Z</time></trkpt><trkpt lat="45.93028842268366" lon="11.22342912540519"><ele>1147.0</ele><time>2026-05-03T08:36:14.973Z</time></trkpt><trkpt lat="45.93022181313227" lon="11.223293261222162"><ele>1147.0</ele><time>2026-05-03T08:36:15.973Z</time></trkpt><trkpt lat="45.930159650133795" lon="11.22311999269152"><ele>1147.0</ele><time>2026-05-03T08:36:16.973Z</time></trkpt><trkpt lat="45.93008995495756" lon="11.222924493137429"><ele>1147.0</ele><time>2026-05-03T08:36:17.973Z</time></trkpt><trkpt lat="45.9300048596591" lon="11.222738869211991"><ele>1149.0</ele><time>2026-05-03T08:36:18.973Z</time></trkpt><trkpt lat="45.92994717766405" lon="11.222533982993907"><ele>1151.0</ele><time>2026-05-03T08:36:19.973Z</time></trkpt><trkpt lat="45.92987715930176" lon="11.222340929512608"><ele>1153.0</ele><time>2026-05-03T08:36:20.973Z</time></trkpt><trkpt lat="45.92980417906293" lon="11.222135924585507"><ele>1155.25</ele><time>2026-05-03T08:36:21.973Z</time></trkpt><trkpt lat="45.92973403174613" lon="11.221943640225286"><ele>1157.5</ele><time>2026-05-03T08:36:22.973Z</time></trkpt><trkpt lat="45.92967065174947" lon="11.221773462489681"><ele>1159.75</ele><time>2026-05-03T08:36:23.973Z</time></trkpt><trkpt lat="45.929597874695624" lon="11.22162918874036"><ele>1162.0</ele><time>2026-05-03T08:36:24.973Z</time></trkpt><trkpt lat="45.92954722376895" lon="11.221478593953416"><ele>1164.75</ele><time>2026-05-03T08:36:25.973Z</time></trkpt><trkpt lat="45.92947215504451" lon="11.221356003012263"><ele>1167.5</ele><time>2026-05-03T08:36:26.973Z</time></trkpt><trkpt lat="45.929386681516554" lon="11.221235971818437"><ele>1170.25</ele><time>2026-05-03T08:36:27.973Z</time></trkpt><trkpt lat="45.929292601412484" lon="11.221118924306115"><ele>1173.0</ele><time>2026-05-03T08:36:28.973Z</time></trkpt><trkpt lat="45.92918625175815" lon="11.221002486778012"><ele>1173.0</ele><time>2026-05-03T08:36:29.973Z</time></trkpt><trkpt lat="45.92907158003667" lon="11.220899826180892"><ele>1173.0</ele><time>2026-05-03T08:36:30.973Z</time></trkpt><trkpt lat="45.928943347461725" lon="11.220815597425311"><ele>1173.0</ele><time>2026-05-03T08:36:31.973Z</time></trkpt><trkpt lat="45.928811572280374" lon="11.220725558342805"><ele>1173.0</ele><time>2026-05-03T08:36:32.973Z</time></trkpt><trkpt lat="45.92869979945873" lon="11.220622292250345"><ele>1175.25</ele><time>2026-05-03T08:36:33.973Z</time></trkpt><trkpt lat="45.92860290296892" lon="11.220489789658556"><ele>1177.5</ele><time>2026-05-03T08:36:34.973Z</time></trkpt><trkpt lat="45.92853728151603" lon="11.220303748831503"><ele>1179.75</ele><time>2026-05-03T08:36:35.973Z</time></trkpt><trkpt lat="45.928467289619014" lon="11.220128829371648"><ele>1182.0</ele><time>2026-05-03T08:36:36.973Z</time></trkpt><trkpt lat="45.928388299947336" lon="11.219972357118847"><ele>1182.0</ele><time>2026-05-03T08:36:37.973Z</time></trkpt><trkpt lat="45.928275597669646" lon="11.219868882076057"><ele>1182.0</ele><time>2026-05-03T08:36:38.973Z</time></trkpt><trkpt lat="45.9281297083276" lon="11.219841285704556"><ele>1182.0</ele><time>2026-05-03T08:36:39.973Z</time></trkpt><trkpt lat="45.927973184704356" lon="11.219819455158163"><ele>1182.0</ele><time>2026-05-03T08:36:40.973Z</time></trkpt><trkpt lat="45.927806597660556" lon="11.219797507684897"><ele>1193.6666666666667</ele><time>2026-05-03T08:36:41.973Z</time></trkpt><trkpt lat="45.92763362205109" lon="11.219754288296258"><ele>1205.3333333333335</ele><time>2026-05-03T08:36:42.973Z</time></trkpt><trkpt lat="45.92745096614434" lon="11.219723771805658"><ele>1217.0</ele><time>2026-05-03T08:36:43.973Z</time></trkpt><trkpt lat="45.92727858718713" lon="11.219700721020153"><ele>1218.0</ele><time>2026-05-03T08:36:44.973Z</time></trkpt><trkpt lat="45.92711923365748" lon="11.219676306423601"><ele>1219.0</ele><time>2026-05-03T08:36:45.973Z</time></trkpt><trkpt lat="45.92696964053473" lon="11.21962088298482"><ele>1220.0</ele><time>2026-05-03T08:36:46.974Z</time></trkpt><trkpt lat="45.92683040961028" lon="11.219508812931617"><ele>1215.6666666666667</ele><time>2026-05-03T08:36:47.973Z</time></trkpt><trkpt lat="45.926690126878974" lon="11.219375136642615"><ele>1211.3333333333333</ele><time>2026-05-03T08:36:48.973Z</time></trkpt><trkpt lat="45.926549251583246" lon="11.219232049298391"><ele>1207.0</ele><time>2026-05-03T08:36:49.974Z</time></trkpt><trkpt lat="45.92640942392409" lon="11.219117230728402"><ele>1207.0</ele><time>2026-05-03T08:36:50.974Z</time></trkpt><trkpt lat="45.9262648920179" lon="11.219049485067663"><ele>1207.0</ele><time>2026-05-03T08:36:51.974Z</time></trkpt><trkpt lat="45.926107874225295" lon="11.219118299084846"><ele>1207.0</ele><time>2026-05-03T08:36:52.974Z</time></trkpt><trkpt lat="45.92595625757952" lon="11.219160200260951"><ele>1205.3333333333333</ele><time>2026-05-03T08:36:53.974Z</time></trkpt><trkpt lat="45.925808318705165" lon="11.21906042596304"><ele>1203.6666666666667</ele><time>2026-05-03T08:36:54.974Z</time></trkpt><trkpt lat="45.92564363436574" lon="11.219003578624845"><ele>1202.0</ele><time>2026-05-03T08:36:55.974Z</time></trkpt><trkpt lat="45.92547648072056" lon="11.21888438354523"><ele>1206.6666666666667</ele><time>2026-05-03T08:36:56.973Z</time></trkpt><trkpt lat="45.9253031912435" lon="11.218789221464942"><ele>1211.3333333333333</ele><time>2026-05-03T08:36:57.973Z</time></trkpt><trkpt lat="45.92513259262041" lon="11.218651472531898"><ele>1216.0</ele><time>2026-05-03T08:36:58.974Z</time></trkpt><trkpt lat="45.92497591891103" lon="11.218524735456043"><ele>1216.0</ele><time>2026-05-03T08:36:59.974Z</time></trkpt><trkpt lat="45.92484722774186" lon="11.218421583899424"><ele>1216.0</ele><time>2026-05-03T08:37:00.974Z</time></trkpt><trkpt lat="45.924751395690656" lon="11.218315167061029"><ele>1216.0</ele><time>2026-05-03T08:37:01.974Z</time></trkpt><trkpt lat="45.92467419962927" lon="11.218191754376804"><ele>1216.0</ele><time>2026-05-03T08:37:02.974Z</time></trkpt><trkpt lat="45.92464907646817" lon="11.217997468950562"><ele>1220.0</ele><time>2026-05-03T08:37:03.974Z</time></trkpt><trkpt lat="45.92463837282877" lon="11.217792505806608"><ele>1224.0</ele><time>2026-05-03T08:37:04.974Z</time></trkpt><trkpt lat="45.92460056028084" lon="11.21759354762194"><ele>1228.0</ele><time>2026-05-03T08:37:05.974Z</time></trkpt><trkpt lat="45.92451665311789" lon="11.217411196896919"><ele>1232.0</ele><time>2026-05-03T08:37:06.974Z</time></trkpt><trkpt lat="45.92441906658915" lon="11.21721968012216"><ele>1230.3333333333335</ele><time>2026-05-03T08:37:07.974Z</time></trkpt><trkpt lat="45.92432615632275" lon="11.217039359304287"><ele>1228.6666666666667</ele><time>2026-05-03T08:37:08.974Z</time></trkpt><trkpt lat="45.92422069397926" lon="11.216877138451713"><ele>1227.0</ele><time>2026-05-03T08:37:09.974Z</time></trkpt><trkpt lat="45.92406797753672" lon="11.216827393313089"><ele>1227.0</ele><time>2026-05-03T08:37:10.974Z</time></trkpt><trkpt lat="45.92396177095401" lon="11.216747648986564"><ele>1227.0</ele><time>2026-05-03T08:37:11.974Z</time></trkpt><trkpt lat="45.92388667262336" lon="11.216704995810929"><ele>1227.0</ele><time>2026-05-03T08:37:12.973Z</time></trkpt><trkpt lat="45.92382102361256" lon="11.216680183435486"><ele>1227.0</ele><time>2026-05-03T08:37:13.973Z</time></trkpt><trkpt lat="45.923730833939466" lon="11.216594777624314"><ele>1227.0</ele><time>2026-05-03T08:37:15.973Z</time></trkpt><trkpt lat="45.923679324191276" lon="11.216504426931111"><ele>1227.0</ele><time>2026-05-03T08:37:17.973Z</time></trkpt><trkpt lat="45.92365367999516" lon="11.216369307842527"><ele>1227.0</ele><time>2026-05-03T08:37:19.973Z</time></trkpt><trkpt lat="45.923708524171936" lon="11.216303814146782"><ele>1227.0</ele><time>2026-05-03T08:37:20.973Z</time></trkpt><trkpt lat="45.92377113949425" lon="11.21632340798453"><ele>1227.0</ele><time>2026-05-03T08:37:21.973Z</time></trkpt><trkpt lat="45.923827504042954" lon="11.216406267377252"><ele>1227.0</ele><time>2026-05-03T08:37:22.973Z</time></trkpt><trkpt lat="45.923914154051865" lon="11.216514341298737"><ele>1227.0</ele><time>2026-05-03T08:37:23.973Z</time></trkpt><trkpt lat="45.924028783350145" lon="11.216616381536532"><ele>1227.0</ele><time>2026-05-03T08:37:24.973Z</time></trkpt><trkpt lat="45.924182345611655" lon="11.216678025005747"><ele>1227.0</ele><time>2026-05-03T08:37:25.973Z</time></trkpt><trkpt lat="45.92433080526951" lon="11.21670183541374"><ele>1227.0</ele><time>2026-05-03T08:37:26.973Z</time></trkpt><trkpt lat="45.92447809322817" lon="11.216779102477325"><ele>1232.25</ele><time>2026-05-03T08:37:27.973Z</time></trkpt><trkpt lat="45.924612140382244" lon="11.21690309832539"><ele>1237.5</ele><time>2026-05-03T08:37:28.973Z</time></trkpt><trkpt lat="45.92474487554656" lon="11.217059759944572"><ele>1242.75</ele><time>2026-05-03T08:37:29.973Z</time></trkpt><trkpt lat="45.92480820628524" lon="11.217047101528964"><ele>1248.0</ele><time>2026-05-03T08:37:30.973Z</time></trkpt><trkpt lat="45.924904772330194" lon="11.217112243679699"><ele>1248.0</ele><time>2026-05-03T08:37:31.973Z</time></trkpt><trkpt lat="45.92500643698271" lon="11.217178659796556"><ele>1248.0</ele><time>2026-05-03T08:37:32.973Z</time></trkpt><trkpt lat="45.92509711811336" lon="11.217243668043103"><ele>1248.0</ele><time>2026-05-03T08:37:33.973Z</time></trkpt><trkpt lat="45.925168890292355" lon="11.217286745915757"><ele>1248.0</ele><time>2026-05-03T08:37:34.973Z</time></trkpt><trkpt lat="45.92523766140958" lon="11.217269295642243"><ele>1248.0</ele><time>2026-05-03T08:37:35.973Z</time></trkpt><trkpt lat="45.92529463168887" lon="11.217187895262859"><ele>1248.0</ele><time>2026-05-03T08:37:36.973Z</time></trkpt><trkpt lat="45.92532042781778" lon="11.217071117135035"><ele>1248.0</ele><time>2026-05-03T08:37:37.973Z</time></trkpt><trkpt lat="45.92526983018941" lon="11.21693238623297"><ele>1248.0</ele><time>2026-05-03T08:37:38.973Z</time></trkpt><trkpt lat="45.92517102197179" lon="11.216830062801534"><ele>1248.0</ele><time>2026-05-03T08:37:39.973Z</time></trkpt><trkpt lat="45.925061740269356" lon="11.216745991977179"><ele>1248.0</ele><time>2026-05-03T08:37:40.973Z</time></trkpt><trkpt lat="45.92495558883462" lon="11.21666031020849"><ele>1248.0</ele><time>2026-05-03T08:37:41.973Z</time></trkpt><trkpt lat="45.92484965933575" lon="11.21657099314793"><ele>1248.0</ele><time>2026-05-03T08:37:42.973Z</time></trkpt><trkpt lat="45.924741534202134" lon="11.216493117653792"><ele>1248.0</ele><time>2026-05-03T08:37:43.973Z</time></trkpt><trkpt lat="45.92464363502992" lon="11.216359717706"><ele>1248.0</ele><time>2026-05-03T08:37:44.973Z</time></trkpt><trkpt lat="45.9245631752834" lon="11.216200092731885"><ele>1252.3333333333333</ele><time>2026-05-03T08:37:45.973Z</time></trkpt><trkpt lat="45.924509293074365" lon="11.216024057587884"><ele>1256.6666666666665</ele><time>2026-05-03T08:37:46.973Z</time></trkpt><trkpt lat="45.9244893178087" lon="11.215818648630707"><ele>1261.0</ele><time>2026-05-03T08:37:47.973Z</time></trkpt><trkpt lat="45.924475224845935" lon="11.215559975483234"><ele>1263.0</ele><time>2026-05-03T08:37:48.973Z</time></trkpt><trkpt lat="45.924466054049574" lon="11.215298858662866"><ele>1265.0</ele><time>2026-05-03T08:37:49.973Z</time></trkpt><trkpt lat="45.92445670294553" lon="11.215025207236092"><ele>1267.0</ele><time>2026-05-03T08:37:50.973Z</time></trkpt><trkpt lat="45.92444498765322" lon="11.214743513117899"><ele>1270.0</ele><time>2026-05-03T08:37:51.973Z</time></trkpt><trkpt lat="45.92443325921024" lon="11.214440471663796"><ele>1273.0</ele><time>2026-05-03T08:37:52.973Z</time></trkpt><trkpt lat="45.924421213997675" lon="11.214126970455183"><ele>1276.0</ele><time>2026-05-03T08:37:53.973Z</time></trkpt><trkpt lat="45.92440973996315" lon="11.213828335202372"><ele>1279.3333333333333</ele><time>2026-05-03T08:37:54.973Z</time></trkpt><trkpt lat="45.92439851522987" lon="11.213536188457606"><ele>1282.6666666666667</ele><time>2026-05-03T08:37:55.973Z</time></trkpt><trkpt lat="45.92438795580493" lon="11.213261358046694"><ele>1286.0</ele><time>2026-05-03T08:37:56.973Z</time></trkpt><trkpt lat="45.92437476614293" lon="11.212918069955322"><ele>1286.6666666666667</ele><time>2026-05-03T08:37:58.973Z</time></trkpt><trkpt lat="45.92436445647114" lon="11.212649739627029"><ele>1287.3333333333333</ele><time>2026-05-03T08:37:59.973Z</time></trkpt><trkpt lat="45.924354178403966" lon="11.212382231930004"><ele>1288.0</ele><time>2026-05-03T08:38:00.973Z</time></trkpt><trkpt lat="45.92434398032458" lon="11.212117101881619"><ele>1290.3333333333333</ele><time>2026-05-03T08:38:01.973Z</time></trkpt><trkpt lat="45.924333830569495" lon="11.21185421943949"><ele>1292.6666666666667</ele><time>2026-05-03T08:38:02.973Z</time></trkpt><trkpt lat="45.92432373545319" lon="11.21159275217325"><ele>1295.0</ele><time>2026-05-03T08:38:03.973Z</time></trkpt><trkpt lat="45.92430675713834" lon="11.211330135121635"><ele>1295.6666666666667</ele><time>2026-05-03T08:38:04.973Z</time></trkpt><trkpt lat="45.9242969700133" lon="11.211072893428192"><ele>1296.3333333333333</ele><time>2026-05-03T08:38:05.973Z</time></trkpt><trkpt lat="45.92428562341055" lon="11.210793644404303"><ele>1297.0</ele><time>2026-05-03T08:38:06.973Z</time></trkpt><trkpt lat="45.924274986017586" lon="11.210514622138758"><ele>1298.6666666666665</ele><time>2026-05-03T08:38:07.973Z</time></trkpt><trkpt lat="45.924261241879066" lon="11.210253007326006"><ele>1300.3333333333333</ele><time>2026-05-03T08:38:08.973Z</time></trkpt><trkpt lat="45.924265452756735" lon="11.210025747227254"><ele>1302.0</ele><time>2026-05-03T08:38:09.973Z</time></trkpt><trkpt lat="45.92427628450413" lon="11.209841224514825"><ele>1303.75</ele><time>2026-05-03T08:38:10.973Z</time></trkpt><trkpt lat="45.92431582570521" lon="11.209689715475442"><ele>1305.5</ele><time>2026-05-03T08:38:11.973Z</time></trkpt><trkpt lat="45.92438207213942" lon="11.209556186927761"><ele>1307.25</ele><time>2026-05-03T08:38:12.973Z</time></trkpt><trkpt lat="45.92447347859434" lon="11.209434572801507"><ele>1309.0</ele><time>2026-05-03T08:38:13.973Z</time></trkpt><trkpt lat="45.924586660763445" lon="11.209325768937259"><ele>1309.0</ele><time>2026-05-03T08:38:14.973Z</time></trkpt><trkpt lat="45.92470217053741" lon="11.209218108542776"><ele>1309.0</ele><time>2026-05-03T08:38:15.973Z</time></trkpt><trkpt lat="45.92480833590901" lon="11.209109997204296"><ele>1309.0</ele><time>2026-05-03T08:38:16.973Z</time></trkpt><trkpt lat="45.92487526932249" lon="11.20899438783498"><ele>1309.0</ele><time>2026-05-03T08:38:17.973Z</time></trkpt><trkpt lat="45.924896677294825" lon="11.208835737509025"><ele>1313.5</ele><time>2026-05-03T08:38:18.973Z</time></trkpt><trkpt lat="45.92487844315822" lon="11.208715382425137"><ele>1318.0</ele><time>2026-05-03T08:38:19.973Z</time></trkpt><trkpt lat="45.924793961195896" lon="11.208648629203767"><ele>1322.5</ele><time>2026-05-03T08:38:20.973Z</time></trkpt><trkpt lat="45.92465284707811" lon="11.208625302918177"><ele>1327.0</ele><time>2026-05-03T08:38:21.973Z</time></trkpt><trkpt lat="45.924512715170955" lon="11.208617088802754"><ele>1327.0</ele><time>2026-05-03T08:38:22.973Z</time></trkpt><trkpt lat="45.924359096160536" lon="11.208648786323641"><ele>1327.0</ele><time>2026-05-03T08:38:23.973Z</time></trkpt><trkpt lat="45.92422306210769" lon="11.208635555071236"><ele>1327.0</ele><time>2026-05-03T08:38:24.973Z</time></trkpt><trkpt lat="45.924095462455114" lon="11.208632734405418"><ele>1327.0</ele><time>2026-05-03T08:38:25.973Z</time></trkpt><trkpt lat="45.923987490699275" lon="11.208621890686352"><ele>1325.6</ele><time>2026-05-03T08:38:26.973Z</time></trkpt><trkpt lat="45.9238804871379" lon="11.208589171161362"><ele>1324.1999999999998</ele><time>2026-05-03T08:38:27.973Z</time></trkpt><trkpt lat="45.92382057680938" lon="11.208506025658885"><ele>1322.8</ele><time>2026-05-03T08:38:28.973Z</time></trkpt><trkpt lat="45.923770549604534" lon="11.208414390277303"><ele>1321.4</ele><time>2026-05-03T08:38:29.973Z</time></trkpt><trkpt lat="45.92371485561711" lon="11.20829431642826"><ele>1320.0</ele><time>2026-05-03T08:38:30.973Z</time></trkpt><trkpt lat="45.923668053036685" lon="11.208153697725342"><ele>1320.5</ele><time>2026-05-03T08:38:31.973Z</time></trkpt><trkpt lat="45.923613041122614" lon="11.208018383410256"><ele>1321.0</ele><time>2026-05-03T08:38:32.973Z</time></trkpt><trkpt lat="45.92354422690662" lon="11.207951233671151"><ele>1321.5</ele><time>2026-05-03T08:38:33.973Z</time></trkpt><trkpt lat="45.92347052403278" lon="11.207963364614969"><ele>1322.0</ele><time>2026-05-03T08:38:34.973Z</time></trkpt><trkpt lat="45.92341095663498" lon="11.208000660795697"><ele>1322.5</ele><time>2026-05-03T08:38:35.973Z</time></trkpt><trkpt lat="45.92333539361481" lon="11.208081610602083"><ele>1323.0</ele><time>2026-05-03T08:38:36.973Z</time></trkpt><trkpt lat="45.92329376879774" lon="11.208235689133728"><ele>1323.0</ele><time>2026-05-03T08:38:37.973Z</time></trkpt><trkpt lat="45.92323941354909" lon="11.208417685065875"><ele>1323.0</ele><time>2026-05-03T08:38:38.973Z</time></trkpt><trkpt lat="45.923169281119286" lon="11.208580212405174"><ele>1323.0</ele><time>2026-05-03T08:38:39.973Z</time></trkpt><trkpt lat="45.923096189142505" lon="11.208694203546985"><ele>1323.0</ele><time>2026-05-03T08:38:40.972Z</time></trkpt><trkpt lat="45.92300474098959" lon="11.208736715932618"><ele>1323.0</ele><time>2026-05-03T08:38:41.972Z</time></trkpt><trkpt lat="45.92288063757337" lon="11.208727294724664"><ele>1323.0</ele><time>2026-05-03T08:38:42.972Z</time></trkpt><trkpt lat="45.922777215341135" lon="11.208634969269486"><ele>1323.0</ele><time>2026-05-03T08:38:43.972Z</time></trkpt><trkpt lat="45.92269975312563" lon="11.208496667688442"><ele>1323.0</ele><time>2026-05-03T08:38:44.972Z</time></trkpt><trkpt lat="45.92259768191435" lon="11.208325347510321"><ele>1330.6666666666667</ele><time>2026-05-03T08:38:45.972Z</time></trkpt><trkpt lat="45.92249231851047" lon="11.208145349015966"><ele>1338.3333333333335</ele><time>2026-05-03T08:38:46.972Z</time></trkpt><trkpt lat="45.92237345434994" lon="11.207975083978418"><ele>1346.0</ele><time>2026-05-03T08:38:47.972Z</time></trkpt><trkpt lat="45.92227374442998" lon="11.207777330097912"><ele>1346.0</ele><time>2026-05-03T08:38:48.972Z</time></trkpt><trkpt lat="45.9221560354889" lon="11.207594167381728"><ele>1346.0</ele><time>2026-05-03T08:38:49.972Z</time></trkpt><trkpt lat="45.922025041555735" lon="11.207450685226231"><ele>1346.0</ele><time>2026-05-03T08:38:50.972Z</time></trkpt><trkpt lat="45.92188741732237" lon="11.207357972913883"><ele>1343.3333333333335</ele><time>2026-05-03T08:38:51.972Z</time></trkpt><trkpt lat="45.92171323950474" lon="11.207310400333096"><ele>1340.6666666666667</ele><time>2026-05-03T08:38:52.973Z</time></trkpt><trkpt lat="45.921536892188854" lon="11.207310748561474"><ele>1338.0</ele><time>2026-05-03T08:38:53.974Z</time></trkpt><trkpt lat="45.92133891937793" lon="11.207362380737715"><ele>1338.0</ele><time>2026-05-03T08:38:54.974Z</time></trkpt><trkpt lat="45.92114235690698" lon="11.207495358584874"><ele>1338.0</ele><time>2026-05-03T08:38:55.974Z</time></trkpt><trkpt lat="45.92099186482211" lon="11.207589487971426"><ele>1338.0</ele><time>2026-05-03T08:38:56.974Z</time></trkpt><trkpt lat="45.92086784863454" lon="11.207613060916438"><ele>1338.75</ele><time>2026-05-03T08:38:57.974Z</time></trkpt><trkpt lat="45.92074855067347" lon="11.207567660173998"><ele>1339.5</ele><time>2026-05-03T08:38:58.974Z</time></trkpt><trkpt lat="45.92062726777198" lon="11.20745775058496"><ele>1340.25</ele><time>2026-05-03T08:38:59.974Z</time></trkpt><trkpt lat="45.92048055474085" lon="11.207312873338271"><ele>1341.0</ele><time>2026-05-03T08:39:00.974Z</time></trkpt><trkpt lat="45.920332705181764" lon="11.207165526420411"><ele>1345.0</ele><time>2026-05-03T08:39:01.974Z</time></trkpt><trkpt lat="45.920190945121675" lon="11.207011232142666"><ele>1349.0</ele><time>2026-05-03T08:39:02.974Z</time></trkpt><trkpt lat="45.92003631764627" lon="11.206872788609271"><ele>1353.0</ele><time>2026-05-03T08:39:03.974Z</time></trkpt><trkpt lat="45.91988381423281" lon="11.206714129139721"><ele>1353.0</ele><time>2026-05-03T08:39:04.973Z</time></trkpt><trkpt lat="45.91974976163221" lon="11.206542704886191"><ele>1353.0</ele><time>2026-05-03T08:39:05.974Z</time></trkpt><trkpt lat="45.9196359956683" lon="11.206345496437507"><ele>1353.0</ele><time>2026-05-03T08:39:06.974Z</time></trkpt><trkpt lat="45.91955117169544" lon="11.206114651832092"><ele>1354.6666666666667</ele><time>2026-05-03T08:39:07.974Z</time></trkpt><trkpt lat="45.91944728947088" lon="11.205884143022748"><ele>1356.3333333333335</ele><time>2026-05-03T08:39:08.974Z</time></trkpt><trkpt lat="45.91936335457017" lon="11.205619989413352"><ele>1358.0</ele><time>2026-05-03T08:39:09.974Z</time></trkpt><trkpt lat="45.91927092059092" lon="11.205341777289862"><ele>1357.0</ele><time>2026-05-03T08:39:10.974Z</time></trkpt><trkpt lat="45.91916975823986" lon="11.20505440772151"><ele>1356.0</ele><time>2026-05-03T08:39:11.974Z</time></trkpt><trkpt lat="45.91906942697294" lon="11.20475530521069"><ele>1358.5</ele><time>2026-05-03T08:39:12.974Z</time></trkpt><trkpt lat="45.91896737202001" lon="11.204461428299204"><ele>1361.0</ele><time>2026-05-03T08:39:13.974Z</time></trkpt><trkpt lat="45.91886357304772" lon="11.20417312660914"><ele>1363.6666666666667</ele><time>2026-05-03T08:39:14.974Z</time></trkpt><trkpt lat="45.91877064741254" lon="11.203896983094674"><ele>1366.3333333333333</ele><time>2026-05-03T08:39:15.974Z</time></trkpt><trkpt lat="45.91868300498142" lon="11.20362695356145"><ele>1369.0</ele><time>2026-05-03T08:39:16.974Z</time></trkpt><trkpt lat="45.91858859937515" lon="11.203363619813265"><ele>1371.3333333333333</ele><time>2026-05-03T08:39:17.974Z</time></trkpt><trkpt lat="45.918509837809474" lon="11.203108238248785"><ele>1373.6666666666667</ele><time>2026-05-03T08:39:18.974Z</time></trkpt><trkpt lat="45.918443275596424" lon="11.202842938113738"><ele>1376.0</ele><time>2026-05-03T08:39:19.974Z</time></trkpt><trkpt lat="45.91837036324202" lon="11.202581399999403"><ele>1363.6666666666667</ele><time>2026-05-03T08:39:20.974Z</time></trkpt><trkpt lat="45.9182957985741" lon="11.20231393493422"><ele>1351.3333333333333</ele><time>2026-05-03T08:39:21.974Z</time></trkpt><trkpt lat="45.9182238058339" lon="11.20205455085886"><ele>1339.0</ele><time>2026-05-03T08:39:22.974Z</time></trkpt><trkpt lat="45.91816396590158" lon="11.201831158941852"><ele>1339.0</ele><time>2026-05-03T08:39:23.974Z</time></trkpt><trkpt lat="45.91812407387326" lon="11.201637589072298"><ele>1339.0</ele><time>2026-05-03T08:39:24.974Z</time></trkpt><trkpt lat="45.91810894547951" lon="11.20145730698364"><ele>1339.0</ele><time>2026-05-03T08:39:25.974Z</time></trkpt><trkpt lat="45.91811942971471" lon="11.201243284534485"><ele>1339.0</ele><time>2026-05-03T08:39:26.974Z</time></trkpt><trkpt lat="45.91817888844165" lon="11.201019601608959"><ele>1337.3333333333333</ele><time>2026-05-03T08:39:27.974Z</time></trkpt><trkpt lat="45.91827484514275" lon="11.200783528577523"><ele>1335.6666666666667</ele><time>2026-05-03T08:39:28.974Z</time></trkpt><trkpt lat="45.91838957427608" lon="11.20052707558949"><ele>1334.0</ele><time>2026-05-03T08:39:29.974Z</time></trkpt><trkpt lat="45.91851336936552" lon="11.200258935242832"><ele>1334.0</ele><time>2026-05-03T08:39:30.974Z</time></trkpt><trkpt lat="45.91861237726209" lon="11.199986065994967"><ele>1334.0</ele><time>2026-05-03T08:39:31.974Z</time></trkpt><trkpt lat="45.91868429906931" lon="11.199715085348544"><ele>1334.0</ele><time>2026-05-03T08:39:32.974Z</time></trkpt><trkpt lat="45.91875400659893" lon="11.199457782539241"><ele>1330.3333333333335</ele><time>2026-05-03T08:39:33.973Z</time></trkpt><trkpt lat="45.91881493150662" lon="11.199232898078995"><ele>1326.6666666666667</ele><time>2026-05-03T08:39:34.973Z</time></trkpt><trkpt lat="45.91887415127595" lon="11.198999842308963"><ele>1323.0</ele><time>2026-05-03T08:39:35.973Z</time></trkpt><trkpt lat="45.918931854235886" lon="11.198742574661793"><ele>1319.6666666666667</ele><time>2026-05-03T08:39:36.973Z</time></trkpt><trkpt lat="45.91898776713833" lon="11.198457512621477"><ele>1316.3333333333335</ele><time>2026-05-03T08:39:37.973Z</time></trkpt><trkpt lat="45.919043384607605" lon="11.198163287321888"><ele>1313.0</ele><time>2026-05-03T08:39:38.973Z</time></trkpt><trkpt lat="45.91909497156961" lon="11.197863078465765"><ele>1308.3333333333335</ele><time>2026-05-03T08:39:39.973Z</time></trkpt><trkpt lat="45.91914220089034" lon="11.197567891883873"><ele>1303.6666666666667</ele><time>2026-05-03T08:39:40.973Z</time></trkpt><trkpt lat="45.91916981452759" lon="11.197291249692839"><ele>1299.0</ele><time>2026-05-03T08:39:41.973Z</time></trkpt><trkpt lat="45.91922557180057" lon="11.197033657901752"><ele>1298.3333333333333</ele><time>2026-05-03T08:39:42.973Z</time></trkpt><trkpt lat="45.91926332746431" lon="11.196780319949552"><ele>1297.6666666666665</ele><time>2026-05-03T08:39:43.973Z</time></trkpt><trkpt lat="45.919304338533784" lon="11.19654902186787"><ele>1297.0</ele><time>2026-05-03T08:39:44.973Z</time></trkpt><trkpt lat="45.919350949461304" lon="11.19631942847536"><ele>1297.0</ele><time>2026-05-03T08:39:45.973Z</time></trkpt><trkpt lat="45.91941352909533" lon="11.196103936614128"><ele>1297.0</ele><time>2026-05-03T08:39:46.973Z</time></trkpt><trkpt lat="45.91947518033922" lon="11.195884065621533"><ele>1297.0</ele><time>2026-05-03T08:39:47.973Z</time></trkpt><trkpt lat="45.91953726594781" lon="11.195658681725751"><ele>1293.3333333333333</ele><time>2026-05-03T08:39:48.973Z</time></trkpt><trkpt lat="45.919593139576804" lon="11.195438712872328"><ele>1289.6666666666667</ele><time>2026-05-03T08:39:49.973Z</time></trkpt><trkpt lat="45.919651897626345" lon="11.195224005457433"><ele>1286.0</ele><time>2026-05-03T08:39:50.973Z</time></trkpt><trkpt lat="45.91972818599862" lon="11.1950038024389"><ele>1288.6666666666667</ele><time>2026-05-03T08:39:51.973Z</time></trkpt><trkpt lat="45.91985409267252" lon="11.194804686711185"><ele>1291.3333333333333</ele><time>2026-05-03T08:39:52.973Z</time></trkpt><trkpt lat="45.91996170869137" lon="11.194575303375409"><ele>1294.0</ele><time>2026-05-03T08:39:53.973Z</time></trkpt><trkpt lat="45.92008257100311" lon="11.194371394720614"><ele>1294.0</ele><time>2026-05-03T08:39:54.973Z</time></trkpt><trkpt lat="45.9201908983998" lon="11.194167186231798"><ele>1294.0</ele><time>2026-05-03T08:39:55.973Z</time></trkpt><trkpt lat="45.92029642670107" lon="11.193961731897911"><ele>1294.0</ele><time>2026-05-03T08:39:56.973Z</time></trkpt><trkpt lat="45.92040253528673" lon="11.193753854570529"><ele>1289.0</ele><time>2026-05-03T08:39:57.973Z</time></trkpt><trkpt lat="45.92050759412216" lon="11.193553080102598"><ele>1284.0</ele><time>2026-05-03T08:39:58.973Z</time></trkpt><trkpt lat="45.9205990929845" lon="11.19334190528698"><ele>1279.0</ele><time>2026-05-03T08:39:59.973Z</time></trkpt><trkpt lat="45.92068483200271" lon="11.193111910026234"><ele>1274.6666666666665</ele><time>2026-05-03T08:40:00.973Z</time></trkpt><trkpt lat="45.92076906456299" lon="11.192866684713755"><ele>1270.3333333333333</ele><time>2026-05-03T08:40:01.973Z</time></trkpt><trkpt lat="45.92084719742276" lon="11.19262612257675"><ele>1266.0</ele><time>2026-05-03T08:40:02.973Z</time></trkpt><trkpt lat="45.92092263413421" lon="11.19240019687288"><ele>1269.6666666666667</ele><time>2026-05-03T08:40:03.973Z</time></trkpt><trkpt lat="45.92098969889682" lon="11.192177417873813"><ele>1273.3333333333335</ele><time>2026-05-03T08:40:04.973Z</time></trkpt><trkpt lat="45.92105205295679" lon="11.19197025570758"><ele>1277.0</ele><time>2026-05-03T08:40:05.973Z</time></trkpt><trkpt lat="45.921109840892534" lon="11.191776118673388"><ele>1277.0</ele><time>2026-05-03T08:40:06.973Z</time></trkpt><trkpt lat="45.92115758289906" lon="11.191586287607796"><ele>1277.0</ele><time>2026-05-03T08:40:07.973Z</time></trkpt><trkpt lat="45.92118922041105" lon="11.191395146566332"><ele>1277.0</ele><time>2026-05-03T08:40:08.973Z</time></trkpt><trkpt lat="45.921172339626764" lon="11.191183529166157"><ele>1277.0</ele><time>2026-05-03T08:40:09.973Z</time></trkpt><trkpt lat="45.921114070632385" lon="11.190956935467025"><ele>1274.6666666666667</ele><time>2026-05-03T08:40:10.973Z</time></trkpt><trkpt lat="45.92102505420492" lon="11.190722375925029"><ele>1272.3333333333333</ele><time>2026-05-03T08:40:11.973Z</time></trkpt><trkpt lat="45.92093902953727" lon="11.190526671851906"><ele>1270.0</ele><time>2026-05-03T08:40:12.973Z</time></trkpt><trkpt lat="45.92087923008257" lon="11.190337283800304"><ele>1266.75</ele><time>2026-05-03T08:40:13.973Z</time></trkpt><trkpt lat="45.92082460943941" lon="11.190160854128395"><ele>1263.5</ele><time>2026-05-03T08:40:14.973Z</time></trkpt><trkpt lat="45.920759563704166" lon="11.189997259903322"><ele>1260.25</ele><time>2026-05-03T08:40:15.973Z</time></trkpt><trkpt lat="45.920690020559945" lon="11.189825947780273"><ele>1257.0</ele><time>2026-05-03T08:40:16.973Z</time></trkpt><trkpt lat="45.92062120839626" lon="11.189657057500545"><ele>1256.75</ele><time>2026-05-03T08:40:17.973Z</time></trkpt><trkpt lat="45.92055270652782" lon="11.189494724304145"><ele>1256.5</ele><time>2026-05-03T08:40:18.973Z</time></trkpt><trkpt lat="45.9204871253423" lon="11.1893331765078"><ele>1256.25</ele><time>2026-05-03T08:40:19.973Z</time></trkpt><trkpt lat="45.92042860336241" lon="11.189177248089766"><ele>1256.0</ele><time>2026-05-03T08:40:20.973Z</time></trkpt><trkpt lat="45.92039708204648" lon="11.189011042319002"><ele>1256.0</ele><time>2026-05-03T08:40:21.973Z</time></trkpt><trkpt lat="45.92034243089366" lon="11.188871553402372"><ele>1256.0</ele><time>2026-05-03T08:40:22.973Z</time></trkpt><trkpt lat="45.92030597081175" lon="11.188724276873318"><ele>1256.0</ele><time>2026-05-03T08:40:23.973Z</time></trkpt><trkpt lat="45.92028041061401" lon="11.18855892645165"><ele>1256.0</ele><time>2026-05-03T08:40:24.973Z</time></trkpt><trkpt lat="45.92025275123922" lon="11.188386866391124"><ele>1256.0</ele><time>2026-05-03T08:40:25.973Z</time></trkpt><trkpt lat="45.920228739807946" lon="11.188200209827817"><ele>1256.0</ele><time>2026-05-03T08:40:26.973Z</time></trkpt><trkpt lat="45.92018595102052" lon="11.187999713935447"><ele>1256.0</ele><time>2026-05-03T08:40:27.973Z</time></trkpt><trkpt lat="45.920167001320564" lon="11.187790796246883"><ele>1256.0</ele><time>2026-05-03T08:40:28.973Z</time></trkpt><trkpt lat="45.920141327824844" lon="11.18759173862211"><ele>1257.25</ele><time>2026-05-03T08:40:29.973Z</time></trkpt><trkpt lat="45.92009112513485" lon="11.187397744507651"><ele>1258.5</ele><time>2026-05-03T08:40:30.973Z</time></trkpt><trkpt lat="45.9200110985291" lon="11.187208259728353"><ele>1259.75</ele><time>2026-05-03T08:40:31.973Z</time></trkpt><trkpt lat="45.91991854816964" lon="11.187038491865135"><ele>1261.0</ele><time>2026-05-03T08:40:32.973Z</time></trkpt><trkpt lat="45.91980105832691" lon="11.186884582139387"><ele>1262.25</ele><time>2026-05-03T08:40:33.973Z</time></trkpt><trkpt lat="45.919680439930225" lon="11.186761768623604"><ele>1263.5</ele><time>2026-05-03T08:40:34.973Z</time></trkpt><trkpt lat="45.91955955586178" lon="11.18664974717775"><ele>1264.75</ele><time>2026-05-03T08:40:35.973Z</time></trkpt><trkpt lat="45.919447777047196" lon="11.18653612299516"><ele>1266.0</ele><time>2026-05-03T08:40:36.973Z</time></trkpt><trkpt lat="45.91933987457484" lon="11.186415422500755"><ele>1261.5</ele><time>2026-05-03T08:40:37.973Z</time></trkpt><trkpt lat="45.9192243543168" lon="11.186353361224135"><ele>1257.0</ele><time>2026-05-03T08:40:38.973Z</time></trkpt><trkpt lat="45.91910949848518" lon="11.186302305322233"><ele>1252.5</ele><time>2026-05-03T08:40:39.973Z</time></trkpt><trkpt lat="45.918982481426454" lon="11.186264417304367"><ele>1248.0</ele><time>2026-05-03T08:40:40.973Z</time></trkpt><trkpt lat="45.91885053821986" lon="11.186244775746355"><ele>1248.0</ele><time>2026-05-03T08:40:41.973Z</time></trkpt><trkpt lat="45.91872774295847" lon="11.18624563347399"><ele>1248.0</ele><time>2026-05-03T08:40:42.973Z</time></trkpt><trkpt lat="45.91859547739527" lon="11.186249499475737"><ele>1248.0</ele><time>2026-05-03T08:40:43.973Z</time></trkpt><trkpt lat="45.91846861341792" lon="11.186257497203759"><ele>1248.0</ele><time>2026-05-03T08:40:44.973Z</time></trkpt><trkpt lat="45.918340964259" lon="11.186265681076382"><ele>1246.75</ele><time>2026-05-03T08:40:45.973Z</time></trkpt><trkpt lat="45.91821168750076" lon="11.18626398882828"><ele>1245.5</ele><time>2026-05-03T08:40:46.973Z</time></trkpt><trkpt lat="45.91808633230249" lon="11.186264139345996"><ele>1244.25</ele><time>2026-05-03T08:40:47.973Z</time></trkpt><trkpt lat="45.91795918589772" lon="11.186257490292911"><ele>1243.0</ele><time>2026-05-03T08:40:48.973Z</time></trkpt><trkpt lat="45.91783659153902" lon="11.186258923689808"><ele>1243.0</ele><time>2026-05-03T08:40:49.973Z</time></trkpt><trkpt lat="45.91771739979413" lon="11.186264396814611"><ele>1243.0</ele><time>2026-05-03T08:40:50.973Z</time></trkpt><trkpt lat="45.91759709986097" lon="11.186272424145978"><ele>1243.0</ele><time>2026-05-03T08:40:51.973Z</time></trkpt><trkpt lat="45.917472907011955" lon="11.186278414086116"><ele>1243.0</ele><time>2026-05-03T08:40:52.973Z</time></trkpt><trkpt lat="45.91734514109558" lon="11.186288587350225"><ele>1242.75</ele><time>2026-05-03T08:40:53.973Z</time></trkpt><trkpt lat="45.91722153725762" lon="11.186270474943893"><ele>1242.5</ele><time>2026-05-03T08:40:54.973Z</time></trkpt><trkpt lat="45.91709495186791" lon="11.186266241909097"><ele>1242.25</ele><time>2026-05-03T08:40:55.973Z</time></trkpt><trkpt lat="45.91696127368099" lon="11.186272998919808"><ele>1242.0</ele><time>2026-05-03T08:40:56.973Z</time></trkpt><trkpt lat="45.91681920670118" lon="11.186274792796778"><ele>1239.3333333333333</ele><time>2026-05-03T08:40:57.973Z</time></trkpt><trkpt lat="45.91667306328109" lon="11.186278047809159"><ele>1236.6666666666665</ele><time>2026-05-03T08:40:58.974Z</time></trkpt><trkpt lat="45.91652357228519" lon="11.186285748821472"><ele>1234.0</ele><time>2026-05-03T08:40:59.974Z</time></trkpt><trkpt lat="45.91636835373906" lon="11.186273835184174"><ele>1234.0</ele><time>2026-05-03T08:41:00.973Z</time></trkpt><trkpt lat="45.916210763670215" lon="11.186242729403876"><ele>1234.0</ele><time>2026-05-03T08:41:01.974Z</time></trkpt><trkpt lat="45.916047560179344" lon="11.186186232724577"><ele>1234.0</ele><time>2026-05-03T08:41:02.974Z</time></trkpt><trkpt lat="45.91588844049677" lon="11.186085907028428"><ele>1231.6666666666665</ele><time>2026-05-03T08:41:03.974Z</time></trkpt><trkpt lat="45.915744504107714" lon="11.185958757232271"><ele>1229.3333333333333</ele><time>2026-05-03T08:41:04.973Z</time></trkpt><trkpt lat="45.915607213976244" lon="11.185815642656566"><ele>1227.0</ele><time>2026-05-03T08:41:05.973Z</time></trkpt><trkpt lat="45.91546239541621" lon="11.185671966612723"><ele>1226.6666666666667</ele><time>2026-05-03T08:41:06.974Z</time></trkpt><trkpt lat="45.915320891230806" lon="11.185530176014302"><ele>1226.3333333333335</ele><time>2026-05-03T08:41:07.974Z</time></trkpt><trkpt lat="45.91517591311028" lon="11.185396334501803"><ele>1226.0</ele><time>2026-05-03T08:41:08.974Z</time></trkpt><trkpt lat="45.91503313638033" lon="11.185260934670472"><ele>1223.0</ele><time>2026-05-03T08:41:09.974Z</time></trkpt><trkpt lat="45.91489369412968" lon="11.185117460195016"><ele>1220.0</ele><time>2026-05-03T08:41:10.974Z</time></trkpt><trkpt lat="45.914760875834716" lon="11.184964879173426"><ele>1217.0</ele><time>2026-05-03T08:41:11.974Z</time></trkpt><trkpt lat="45.91464675879799" lon="11.184796432802845"><ele>1217.0</ele><time>2026-05-03T08:41:12.974Z</time></trkpt><trkpt lat="45.91455349707926" lon="11.184616054960584"><ele>1217.0</ele><time>2026-05-03T08:41:13.974Z</time></trkpt><trkpt lat="45.91447713054897" lon="11.184432587601849"><ele>1217.0</ele><time>2026-05-03T08:41:14.974Z</time></trkpt><trkpt lat="45.914426496347616" lon="11.184262726407246"><ele>1217.0</ele><time>2026-05-03T08:41:15.974Z</time></trkpt><trkpt lat="45.91437156686597" lon="11.184104144324548"><ele>1216.5</ele><time>2026-05-03T08:41:16.974Z</time></trkpt><trkpt lat="45.914292163587504" lon="11.183979167714002"><ele>1216.0</ele><time>2026-05-03T08:41:17.974Z</time></trkpt><trkpt lat="45.91419987585486" lon="11.183856696082783"><ele>1215.5</ele><time>2026-05-03T08:41:18.974Z</time></trkpt><trkpt lat="45.91411624488275" lon="11.183693172271955"><ele>1215.0</ele><time>2026-05-03T08:41:19.974Z</time></trkpt><trkpt lat="45.91404270739045" lon="11.183495943260658"><ele>1210.6666666666667</ele><time>2026-05-03T08:41:20.974Z</time></trkpt><trkpt lat="45.91396114879822" lon="11.183291348636535"><ele>1206.3333333333335</ele><time>2026-05-03T08:41:21.974Z</time></trkpt><trkpt lat="45.913877397968314" lon="11.183082700819696"><ele>1202.0</ele><time>2026-05-03T08:41:22.974Z</time></trkpt><trkpt lat="45.91379207690946" lon="11.182866340815204"><ele>1200.6666666666667</ele><time>2026-05-03T08:41:23.974Z</time></trkpt><trkpt lat="45.91370555467779" lon="11.182648620179616"><ele>1199.3333333333333</ele><time>2026-05-03T08:41:24.974Z</time></trkpt><trkpt lat="45.91361084020544" lon="11.182429953796355"><ele>1198.0</ele><time>2026-05-03T08:41:25.974Z</time></trkpt><trkpt lat="45.91350645555984" lon="11.182211763010585"><ele>1195.0</ele><time>2026-05-03T08:41:26.974Z</time></trkpt><trkpt lat="45.91340134296227" lon="11.18200702601425"><ele>1192.0</ele><time>2026-05-03T08:41:27.974Z</time></trkpt><trkpt lat="45.91330103601686" lon="11.181802213364783"><ele>1189.0</ele><time>2026-05-03T08:41:28.974Z</time></trkpt><trkpt lat="45.913201189276286" lon="11.18160384994227"><ele>1187.0</ele><time>2026-05-03T08:41:29.974Z</time></trkpt><trkpt lat="45.91309916513067" lon="11.181413712419578"><ele>1185.0</ele><time>2026-05-03T08:41:30.974Z</time></trkpt><trkpt lat="45.91300260915688" lon="11.181229785155418"><ele>1183.0</ele><time>2026-05-03T08:41:31.974Z</time></trkpt><trkpt lat="45.91291118509968" lon="11.181049655380118"><ele>1183.0</ele><time>2026-05-03T08:41:32.974Z</time></trkpt><trkpt lat="45.912831717626794" lon="11.180867576210037"><ele>1183.0</ele><time>2026-05-03T08:41:33.974Z</time></trkpt><trkpt lat="45.91276905692871" lon="11.18067781235944"><ele>1183.0</ele><time>2026-05-03T08:41:34.974Z</time></trkpt><trkpt lat="45.91271771368862" lon="11.180484038521113"><ele>1183.0</ele><time>2026-05-03T08:41:35.974Z</time></trkpt><trkpt lat="45.91267465895567" lon="11.180293450171837"><ele>1181.5</ele><time>2026-05-03T08:41:36.974Z</time></trkpt><trkpt lat="45.912657514833" lon="11.180092661313973"><ele>1180.0</ele><time>2026-05-03T08:41:37.974Z</time></trkpt><trkpt lat="45.912645755997936" lon="11.179906487808266"><ele>1178.5</ele><time>2026-05-03T08:41:38.974Z</time></trkpt><trkpt lat="45.91264273751101" lon="11.179726653095699"><ele>1177.0</ele><time>2026-05-03T08:41:39.974Z</time></trkpt><trkpt lat="45.91265073754985" lon="11.179551661277902"><ele>1175.75</ele><time>2026-05-03T08:41:40.974Z</time></trkpt><trkpt lat="45.912669907311155" lon="11.179377825057328"><ele>1174.5</ele><time>2026-05-03T08:41:41.974Z</time></trkpt><trkpt lat="45.91269310639111" lon="11.179194155552727"><ele>1173.25</ele><time>2026-05-03T08:41:42.974Z</time></trkpt><trkpt lat="45.91274463825794" lon="11.179019958709207"><ele>1172.0</ele><time>2026-05-03T08:41:43.974Z</time></trkpt><trkpt lat="45.912795359982766" lon="11.178847397697789"><ele>1171.4</ele><time>2026-05-03T08:41:44.974Z</time></trkpt><trkpt lat="45.91282038713049" lon="11.178691157528073"><ele>1170.8000000000002</ele><time>2026-05-03T08:41:45.974Z</time></trkpt><trkpt lat="45.91285386120197" lon="11.17854431302011"><ele>1170.2</ele><time>2026-05-03T08:41:46.974Z</time></trkpt><trkpt lat="45.91286978501931" lon="11.17839258190229"><ele>1169.6000000000001</ele><time>2026-05-03T08:41:47.974Z</time></trkpt><trkpt lat="45.91285677111891" lon="11.178251320442337"><ele>1169.0</ele><time>2026-05-03T08:41:48.974Z</time></trkpt><trkpt lat="45.91283976822883" lon="11.178108989817598"><ele>1168.25</ele><time>2026-05-03T08:41:49.974Z</time></trkpt><trkpt lat="45.91285947355453" lon="11.17797813987455"><ele>1167.5</ele><time>2026-05-03T08:41:50.974Z</time></trkpt><trkpt lat="45.91292112903711" lon="11.17785163952836"><ele>1166.75</ele><time>2026-05-03T08:41:51.974Z</time></trkpt><trkpt lat="45.912967556344235" lon="11.177684546443402"><ele>1166.0</ele><time>2026-05-03T08:41:52.974Z</time></trkpt><trkpt lat="45.913006354352994" lon="11.177490157302824"><ele>1164.25</ele><time>2026-05-03T08:41:53.974Z</time></trkpt><trkpt lat="45.9130590724563" lon="11.177280585259151"><ele>1162.5</ele><time>2026-05-03T08:41:54.974Z</time></trkpt><trkpt lat="45.91310385612227" lon="11.177078521610593"><ele>1160.75</ele><time>2026-05-03T08:41:55.974Z</time></trkpt><trkpt lat="45.91314234269443" lon="11.17687924077564"><ele>1159.0</ele><time>2026-05-03T08:41:56.974Z</time></trkpt><trkpt lat="45.91317808782012" lon="11.17667135550525"><ele>1157.0</ele><time>2026-05-03T08:41:57.974Z</time></trkpt><trkpt lat="45.91321546357843" lon="11.176461075591979"><ele>1155.0</ele><time>2026-05-03T08:41:58.973Z</time></trkpt><trkpt lat="45.913247872366114" lon="11.176223032745652"><ele>1153.0</ele><time>2026-05-03T08:41:59.973Z</time></trkpt><trkpt lat="45.9132895437947" lon="11.175990008897191"><ele>1153.0</ele><time>2026-05-03T08:42:00.973Z</time></trkpt><trkpt lat="45.913332091780106" lon="11.175783004273354"><ele>1153.0</ele><time>2026-05-03T08:42:01.973Z</time></trkpt><trkpt lat="45.91336729952347" lon="11.175586588694475"><ele>1153.0</ele><time>2026-05-03T08:42:02.973Z</time></trkpt><trkpt lat="45.91338709227161" lon="11.175391475578008"><ele>1153.0</ele><time>2026-05-03T08:42:03.973Z</time></trkpt><trkpt lat="45.913393253840304" lon="11.175186832851567"><ele>1152.6666666666665</ele><time>2026-05-03T08:42:04.973Z</time></trkpt><trkpt lat="45.913397467618914" lon="11.174969289549702"><ele>1152.3333333333333</ele><time>2026-05-03T08:42:05.973Z</time></trkpt><trkpt lat="45.91340301310627" lon="11.174721525289591"><ele>1152.0</ele><time>2026-05-03T08:42:06.973Z</time></trkpt><trkpt lat="45.91343036189771" lon="11.174454386624888"><ele>1152.0</ele><time>2026-05-03T08:42:07.973Z</time></trkpt><trkpt lat="45.91344218742354" lon="11.174176653853978"><ele>1152.0</ele><time>2026-05-03T08:42:08.973Z</time></trkpt><trkpt lat="45.91345435474868" lon="11.17389806554425"><ele>1152.0</ele><time>2026-05-03T08:42:09.973Z</time></trkpt><trkpt lat="45.91346739797363" lon="11.173599422710675"><ele>1151.3333333333333</ele><time>2026-05-03T08:42:10.973Z</time></trkpt><trkpt lat="45.9134747546979" lon="11.173337915670588"><ele>1150.6666666666665</ele><time>2026-05-03T08:42:11.973Z</time></trkpt><trkpt lat="45.91348411577308" lon="11.173108489038102"><ele>1150.0</ele><time>2026-05-03T08:42:12.973Z</time></trkpt><trkpt lat="45.91348969521587" lon="11.172887378963885"><ele>1148.3333333333333</ele><time>2026-05-03T08:42:13.973Z</time></trkpt><trkpt lat="45.9134984853571" lon="11.172673033516412"><ele>1146.6666666666667</ele><time>2026-05-03T08:42:14.973Z</time></trkpt><trkpt lat="45.91350876470775" lon="11.172460177692862"><ele>1145.0</ele><time>2026-05-03T08:42:15.973Z</time></trkpt><trkpt lat="45.91352514543225" lon="11.172243386907692"><ele>1143.3333333333335</ele><time>2026-05-03T08:42:16.973Z</time></trkpt><trkpt lat="45.91354906738942" lon="11.172019425452781"><ele>1141.6666666666667</ele><time>2026-05-03T08:42:17.973Z</time></trkpt><trkpt lat="45.913587886246034" lon="11.171792491901115"><ele>1140.0</ele><time>2026-05-03T08:42:18.973Z</time></trkpt><trkpt lat="45.91362635764655" lon="11.171569311773506"><ele>1138.75</ele><time>2026-05-03T08:42:19.973Z</time></trkpt><trkpt lat="45.913664974042455" lon="11.171353720424674"><ele>1137.5</ele><time>2026-05-03T08:42:20.973Z</time></trkpt><trkpt lat="45.913692170437464" lon="11.171145133017095"><ele>1136.25</ele><time>2026-05-03T08:42:21.973Z</time></trkpt><trkpt lat="45.91372798753988" lon="11.170951490869191"><ele>1135.0</ele><time>2026-05-03T08:42:22.973Z</time></trkpt><trkpt lat="45.91376356907611" lon="11.170756234264855"><ele>1134.3333333333333</ele><time>2026-05-03T08:42:23.973Z</time></trkpt><trkpt lat="45.91379675695014" lon="11.170542184932607"><ele>1133.6666666666667</ele><time>2026-05-03T08:42:24.973Z</time></trkpt><trkpt lat="45.91383181617489" lon="11.170325076426556"><ele>1133.0</ele><time>2026-05-03T08:42:25.973Z</time></trkpt><trkpt lat="45.91386226512819" lon="11.17009245352635"><ele>1130.6666666666667</ele><time>2026-05-03T08:42:26.973Z</time></trkpt><trkpt lat="45.913901246030996" lon="11.16985777054317"><ele>1128.3333333333333</ele><time>2026-05-03T08:42:27.973Z</time></trkpt><trkpt lat="45.913944031817984" lon="11.169617761913551"><ele>1126.0</ele><time>2026-05-03T08:42:28.973Z</time></trkpt><trkpt lat="45.91398535058633" lon="11.169377844831999"><ele>1126.0</ele><time>2026-05-03T08:42:29.973Z</time></trkpt><trkpt lat="45.914021589633094" lon="11.169139533678072"><ele>1126.0</ele><time>2026-05-03T08:42:30.973Z</time></trkpt><trkpt lat="45.91405738105968" lon="11.168900618520615"><ele>1126.0</ele><time>2026-05-03T08:42:31.973Z</time></trkpt><trkpt lat="45.914093164226465" lon="11.168662238083018"><ele>1125.0</ele><time>2026-05-03T08:42:32.973Z</time></trkpt><trkpt lat="45.91412669654879" lon="11.168435340043914"><ele>1124.0</ele><time>2026-05-03T08:42:33.973Z</time></trkpt><trkpt lat="45.91415867405923" lon="11.16820549521296"><ele>1123.0</ele><time>2026-05-03T08:42:34.973Z</time></trkpt><trkpt lat="45.914199916042755" lon="11.167975122648697"><ele>1125.3333333333333</ele><time>2026-05-03T08:42:35.973Z</time></trkpt><trkpt lat="45.91424987258989" lon="11.167742813292676"><ele>1127.6666666666667</ele><time>2026-05-03T08:42:36.973Z</time></trkpt><trkpt lat="45.91428793130488" lon="11.167506067463842"><ele>1130.0</ele><time>2026-05-03T08:42:37.973Z</time></trkpt><trkpt lat="45.914324160704886" lon="11.167280700952821"><ele>1130.0</ele><time>2026-05-03T08:42:38.973Z</time></trkpt><trkpt lat="45.914346816051804" lon="11.167059652822315"><ele>1130.0</ele><time>2026-05-03T08:42:39.973Z</time></trkpt><trkpt lat="45.91438019331914" lon="11.166853331955236"><ele>1130.0</ele><time>2026-05-03T08:42:40.973Z</time></trkpt><trkpt lat="45.91441170544138" lon="11.166660496989957"><ele>1130.0</ele><time>2026-05-03T08:42:41.973Z</time></trkpt><trkpt lat="45.91444317148523" lon="11.166480126669065"><ele>1128.25</ele><time>2026-05-03T08:42:42.973Z</time></trkpt><trkpt lat="45.91447364830853" lon="11.16630455180039"><ele>1126.5</ele><time>2026-05-03T08:42:43.973Z</time></trkpt><trkpt lat="45.91450161026416" lon="11.166126595961762"><ele>1124.75</ele><time>2026-05-03T08:42:44.973Z</time></trkpt><trkpt lat="45.91453037970968" lon="11.165925559021813"><ele>1123.0</ele><time>2026-05-03T08:42:45.973Z</time></trkpt><trkpt lat="45.91456669233171" lon="11.165712454643996"><ele>1120.6666666666665</ele><time>2026-05-03T08:42:46.973Z</time></trkpt><trkpt lat="45.91460460241731" lon="11.16548429066925"><ele>1118.3333333333333</ele><time>2026-05-03T08:42:47.973Z</time></trkpt><trkpt lat="45.914640596625944" lon="11.16524214837798"><ele>1116.0</ele><time>2026-05-03T08:42:48.973Z</time></trkpt><trkpt lat="45.91467261955762" lon="11.165004013849448"><ele>1114.0</ele><time>2026-05-03T08:42:49.973Z</time></trkpt><trkpt lat="45.91469317316611" lon="11.164759188457783"><ele>1112.0</ele><time>2026-05-03T08:42:50.973Z</time></trkpt><trkpt lat="45.91470372273389" lon="11.164514031042744"><ele>1110.0</ele><time>2026-05-03T08:42:51.973Z</time></trkpt><trkpt lat="45.9147092395399" lon="11.16426675294988"><ele>1109.0</ele><time>2026-05-03T08:42:52.973Z</time></trkpt><trkpt lat="45.91471050930846" lon="11.16401595297161"><ele>1108.0</ele><time>2026-05-03T08:42:53.973Z</time></trkpt><trkpt lat="45.91470988549162" lon="11.163761313820611"><ele>1107.0</ele><time>2026-05-03T08:42:54.973Z</time></trkpt><trkpt lat="45.914709895442755" lon="11.163507028788972"><ele>1107.0</ele><time>2026-05-03T08:42:55.973Z</time></trkpt><trkpt lat="45.91471076794564" lon="11.16325719995743"><ele>1107.0</ele><time>2026-05-03T08:42:56.973Z</time></trkpt><trkpt lat="45.91471730261733" lon="11.16301143891684"><ele>1107.0</ele><time>2026-05-03T08:42:57.973Z</time></trkpt><trkpt lat="45.91472063638344" lon="11.162758932139347"><ele>1105.6666666666667</ele><time>2026-05-03T08:42:58.973Z</time></trkpt><trkpt lat="45.91473043741187" lon="11.162498308851745"><ele>1104.3333333333335</ele><time>2026-05-03T08:42:59.973Z</time></trkpt><trkpt lat="45.91476250516889" lon="11.16223182678491"><ele>1103.0</ele><time>2026-05-03T08:43:00.973Z</time></trkpt><trkpt lat="45.914814762811325" lon="11.161952553951682"><ele>1100.0</ele><time>2026-05-03T08:43:01.973Z</time></trkpt><trkpt lat="45.914868115451846" lon="11.161677920842608"><ele>1097.0</ele><time>2026-05-03T08:43:02.973Z</time></trkpt><trkpt lat="45.914938765628506" lon="11.161415971729033"><ele>1094.0</ele><time>2026-05-03T08:43:03.974Z</time></trkpt><trkpt lat="45.91499888935383" lon="11.161165603089593"><ele>1092.0</ele><time>2026-05-03T08:43:04.974Z</time></trkpt><trkpt lat="45.91506455616654" lon="11.160925824119735"><ele>1090.0</ele><time>2026-05-03T08:43:05.974Z</time></trkpt><trkpt lat="45.91514085972652" lon="11.160691346286747"><ele>1088.0</ele><time>2026-05-03T08:43:06.973Z</time></trkpt><trkpt lat="45.91522002671725" lon="11.160473644497424"><ele>1088.0</ele><time>2026-05-03T08:43:07.973Z</time></trkpt><trkpt lat="45.915300294067926" lon="11.160264580472086"><ele>1088.0</ele><time>2026-05-03T08:43:08.973Z</time></trkpt><trkpt lat="45.915383777311426" lon="11.160068423005567"><ele>1088.0</ele><time>2026-05-03T08:43:09.974Z</time></trkpt><trkpt lat="45.91547024671705" lon="11.159886047509161"><ele>1084.75</ele><time>2026-05-03T08:43:10.974Z</time></trkpt><trkpt lat="45.915558272737734" lon="11.159716038171117"><ele>1081.5</ele><time>2026-05-03T08:43:11.974Z</time></trkpt><trkpt lat="45.91564598761204" lon="11.159555673730345"><ele>1078.25</ele><time>2026-05-03T08:43:12.973Z</time></trkpt><trkpt lat="45.915729638389834" lon="11.159406132169185"><ele>1075.0</ele><time>2026-05-03T08:43:13.973Z</time></trkpt><trkpt lat="45.915810456358464" lon="11.159265695238016"><ele>1075.0</ele><time>2026-05-03T08:43:14.973Z</time></trkpt><trkpt lat="45.915882069169214" lon="11.159137273706138"><ele>1075.0</ele><time>2026-05-03T08:43:15.973Z</time></trkpt><trkpt lat="45.91592902859946" lon="11.159004050101723"><ele>1075.0</ele><time>2026-05-03T08:43:16.973Z</time></trkpt><trkpt lat="45.915988177369556" lon="11.15889933521319"><ele>1075.0</ele><time>2026-05-03T08:43:17.973Z</time></trkpt><trkpt lat="45.91602446483307" lon="11.158771520118261"><ele>1075.0</ele><time>2026-05-03T08:43:18.973Z</time></trkpt><trkpt lat="45.916042652088336" lon="11.158636753332031"><ele>1075.0</ele><time>2026-05-03T08:43:19.973Z</time></trkpt><trkpt lat="45.916044377743596" lon="11.158507690204383"><ele>1075.0</ele><time>2026-05-03T08:43:20.973Z</time></trkpt><trkpt lat="45.91600476910777" lon="11.158369443112797"><ele>1075.0</ele><time>2026-05-03T08:43:21.973Z</time></trkpt><trkpt lat="45.91595214891499" lon="11.158257704728545"><ele>1075.0</ele><time>2026-05-03T08:43:22.973Z</time></trkpt><trkpt lat="45.915865483269556" lon="11.158191262897404"><ele>1075.0</ele><time>2026-05-03T08:43:23.973Z</time></trkpt><trkpt lat="45.91578080789058" lon="11.15814161945814"><ele>1073.6</ele><time>2026-05-03T08:43:24.973Z</time></trkpt><trkpt lat="45.91568122102188" lon="11.158132058123782"><ele>1072.2</ele><time>2026-05-03T08:43:25.973Z</time></trkpt><trkpt lat="45.91558165899491" lon="11.15816159113961"><ele>1070.8</ele><time>2026-05-03T08:43:26.973Z</time></trkpt><trkpt lat="45.91548781716433" lon="11.158223317138544"><ele>1069.4</ele><time>2026-05-03T08:43:27.973Z</time></trkpt><trkpt lat="45.91538624087608" lon="11.158285102209135"><ele>1068.0</ele><time>2026-05-03T08:43:28.973Z</time></trkpt><trkpt lat="45.91527779486436" lon="11.158352492235752"><ele>1068.0</ele><time>2026-05-03T08:43:29.973Z</time></trkpt><trkpt lat="45.91517225441886" lon="11.158436692022068"><ele>1068.0</ele><time>2026-05-03T08:43:30.973Z</time></trkpt><trkpt lat="45.915066711051296" lon="11.158524817305292"><ele>1068.0</ele><time>2026-05-03T08:43:31.973Z</time></trkpt><trkpt lat="45.9149597522707" lon="11.158622442285205"><ele>1068.0</ele><time>2026-05-03T08:43:32.973Z</time></trkpt><trkpt lat="45.914852228815825" lon="11.158709268199416"><ele>1065.0</ele><time>2026-05-03T08:43:33.973Z</time></trkpt><trkpt lat="45.91473966323753" lon="11.158777160263494"><ele>1062.0</ele><time>2026-05-03T08:43:34.973Z</time></trkpt><trkpt lat="45.914617114184885" lon="11.158814524750925"><ele>1059.0</ele><time>2026-05-03T08:43:35.973Z</time></trkpt><trkpt lat="45.91449077478822" lon="11.15883219338463"><ele>1056.0</ele><time>2026-05-03T08:43:36.973Z</time></trkpt><trkpt lat="45.91436277374811" lon="11.15884460374697"><ele>1056.0</ele><time>2026-05-03T08:43:37.973Z</time></trkpt><trkpt lat="45.91424046980166" lon="11.158871421978827"><ele>1056.0</ele><time>2026-05-03T08:43:38.973Z</time></trkpt><trkpt lat="45.914125483346204" lon="11.158926919410536"><ele>1056.0</ele><time>2026-05-03T08:43:39.973Z</time></trkpt><trkpt lat="45.91401599658892" lon="11.159000676871104"><ele>1056.0</ele><time>2026-05-03T08:43:40.972Z</time></trkpt><trkpt lat="45.913910671004345" lon="11.159076770903706"><ele>1055.2</ele><time>2026-05-03T08:43:41.972Z</time></trkpt><trkpt lat="45.91381814954506" lon="11.1591593317159"><ele>1054.3999999999999</ele><time>2026-05-03T08:43:42.972Z</time></trkpt><trkpt lat="45.91371975745125" lon="11.159242446814785"><ele>1053.6</ele><time>2026-05-03T08:43:43.972Z</time></trkpt><trkpt lat="45.913624958765425" lon="11.159330475672466"><ele>1052.8</ele><time>2026-05-03T08:43:44.972Z</time></trkpt><trkpt lat="45.91354570044297" lon="11.159440629089133"><ele>1052.0</ele><time>2026-05-03T08:43:45.972Z</time></trkpt><trkpt lat="45.91347303532195" lon="11.15956257494135"><ele>1052.0</ele><time>2026-05-03T08:43:46.972Z</time></trkpt><trkpt lat="45.913406564781646" lon="11.159682257017058"><ele>1052.0</ele><time>2026-05-03T08:43:47.972Z</time></trkpt><trkpt lat="45.91333532509574" lon="11.159803530195221"><ele>1052.0</ele><time>2026-05-03T08:43:48.972Z</time></trkpt><trkpt lat="45.913263520816564" lon="11.159920620908418"><ele>1052.0</ele><time>2026-05-03T08:43:49.972Z</time></trkpt><trkpt lat="45.913182403514824" lon="11.160024346196824"><ele>1052.0</ele><time>2026-05-03T08:43:50.972Z</time></trkpt><trkpt lat="45.913086390869175" lon="11.160093452526914"><ele>1050.2</ele><time>2026-05-03T08:43:51.972Z</time></trkpt><trkpt lat="45.912988763636655" lon="11.160133249508121"><ele>1048.4</ele><time>2026-05-03T08:43:52.972Z</time></trkpt><trkpt lat="45.9128913572676" lon="11.16013491421044"><ele>1046.6</ele><time>2026-05-03T08:43:53.972Z</time></trkpt><trkpt lat="45.912798487379305" lon="11.160116885379399"><ele>1044.8</ele><time>2026-05-03T08:43:54.972Z</time></trkpt><trkpt lat="45.91271676162674" lon="11.160045998512588"><ele>1043.0</ele><time>2026-05-03T08:43:55.972Z</time></trkpt><trkpt lat="45.912657096416524" lon="11.159938091544033"><ele>1042.0</ele><time>2026-05-03T08:43:56.972Z</time></trkpt><trkpt lat="45.91261400013387" lon="11.15981272876118"><ele>1041.0</ele><time>2026-05-03T08:43:57.972Z</time></trkpt><trkpt lat="45.9125808560527" lon="11.159684236727887"><ele>1040.0</ele><time>2026-05-03T08:43:58.972Z</time></trkpt><trkpt lat="45.912559459479745" lon="11.15954688163957"><ele>1039.0</ele><time>2026-05-03T08:43:59.972Z</time></trkpt><trkpt lat="45.91256777378288" lon="11.159396538581552"><ele>1038.0</ele><time>2026-05-03T08:44:00.972Z</time></trkpt><trkpt lat="45.91256871674639" lon="11.159237736352047"><ele>1038.0</ele><time>2026-05-03T08:44:01.972Z</time></trkpt><trkpt lat="45.91257464783157" lon="11.15908263630476"><ele>1038.0</ele><time>2026-05-03T08:44:02.972Z</time></trkpt><trkpt lat="45.912586642622976" lon="11.158936454332759"><ele>1038.0</ele><time>2026-05-03T08:44:03.972Z</time></trkpt><trkpt lat="45.91260593863207" lon="11.158791743476023"><ele>1038.0</ele><time>2026-05-03T08:44:04.972Z</time></trkpt><trkpt lat="45.912610398756115" lon="11.158650200589063"><ele>1038.0</ele><time>2026-05-03T08:44:05.972Z</time></trkpt><trkpt lat="45.91263768089211" lon="11.158511831982207"><ele>1036.0</ele><time>2026-05-03T08:44:06.972Z</time></trkpt><trkpt lat="45.91267110576187" lon="11.158360769401675"><ele>1034.0</ele><time>2026-05-03T08:44:07.972Z</time></trkpt><trkpt lat="45.91270580469696" lon="11.158203338062606"><ele>1032.0</ele><time>2026-05-03T08:44:08.972Z</time></trkpt><trkpt lat="45.912743422995625" lon="11.158037681950994"><ele>1030.0</ele><time>2026-05-03T08:44:09.972Z</time></trkpt><trkpt lat="45.91278294398148" lon="11.157860049069914"><ele>1028.4</ele><time>2026-05-03T08:44:10.972Z</time></trkpt><trkpt lat="45.912820644704524" lon="11.157695968036153"><ele>1026.8</ele><time>2026-05-03T08:44:11.972Z</time></trkpt><trkpt lat="45.91284721968434" lon="11.1575924190079"><ele>1025.2</ele><time>2026-05-03T08:44:12.972Z</time></trkpt><trkpt lat="45.91286770528215" lon="11.157461550040495"><ele>1023.6</ele><time>2026-05-03T08:44:14.972Z</time></trkpt><trkpt lat="45.91287920794979" lon="11.15733028056631"><ele>1022.0</ele><time>2026-05-03T08:44:16.972Z</time></trkpt><trkpt lat="45.91287970682187" lon="11.15718947489775"><ele>1021.4000000000001</ele><time>2026-05-03T08:44:18.972Z</time></trkpt><trkpt lat="45.91287149843793" lon="11.156985702866516"><ele>1020.8000000000001</ele><time>2026-05-03T08:44:20.972Z</time></trkpt><trkpt lat="45.912869174295594" lon="11.156853241352836"><ele>1020.2</ele><time>2026-05-03T08:44:21.972Z</time></trkpt><trkpt lat="45.91287140300757" lon="11.156729068107037"><ele>1019.6</ele><time>2026-05-03T08:44:22.972Z</time></trkpt><trkpt lat="45.91287169405185" lon="11.156604127726117"><ele>1019.0</ele><time>2026-05-03T08:44:23.972Z</time></trkpt><trkpt lat="45.912879212360465" lon="11.15648926299995"><ele>1017.6</ele><time>2026-05-03T08:44:24.972Z</time></trkpt><trkpt lat="45.91287401489843" lon="11.156358702770829"><ele>1016.2</ele><time>2026-05-03T08:44:25.972Z</time></trkpt><trkpt lat="45.912871166795156" lon="11.15621880928299"><ele>1014.8000000000001</ele><time>2026-05-03T08:44:26.972Z</time></trkpt><trkpt lat="45.91285581429561" lon="11.156082058386161"><ele>1013.4000000000001</ele><time>2026-05-03T08:44:27.972Z</time></trkpt><trkpt lat="45.91282925538591" lon="11.155926746016304"><ele>1012.0</ele><time>2026-05-03T08:44:28.972Z</time></trkpt><trkpt lat="45.912797084213736" lon="11.155771334190403"><ele>1009.5</ele><time>2026-05-03T08:44:29.972Z</time></trkpt><trkpt lat="45.91276837854125" lon="11.155617301270777"><ele>1007.0</ele><time>2026-05-03T08:44:30.972Z</time></trkpt><trkpt lat="45.912738189060775" lon="11.155435593336978"><ele>1004.5</ele><time>2026-05-03T08:44:31.972Z</time></trkpt><trkpt lat="45.91271950629746" lon="11.155237863236156"><ele>1002.0</ele><time>2026-05-03T08:44:32.972Z</time></trkpt><trkpt lat="45.91271579841159" lon="11.15504287758535"><ele>1000.25</ele><time>2026-05-03T08:44:33.972Z</time></trkpt><trkpt lat="45.912729794260514" lon="11.154852612474702"><ele>998.5</ele><time>2026-05-03T08:44:34.972Z</time></trkpt><trkpt lat="45.91275118294549" lon="11.154663799819378"><ele>996.75</ele><time>2026-05-03T08:44:35.972Z</time></trkpt><trkpt lat="45.912781614629395" lon="11.154477494618195"><ele>995.0</ele><time>2026-05-03T08:44:36.972Z</time></trkpt><trkpt lat="45.912817951391126" lon="11.154292157199203"><ele>995.0</ele><time>2026-05-03T08:44:37.972Z</time></trkpt><trkpt lat="45.91287433525794" lon="11.15411757702503"><ele>995.0</ele><time>2026-05-03T08:44:38.972Z</time></trkpt><trkpt lat="45.91295090272855" lon="11.15395935126395"><ele>995.0</ele><time>2026-05-03T08:44:39.972Z</time></trkpt><trkpt lat="45.91304365911484" lon="11.153817918638902"><ele>995.0</ele><time>2026-05-03T08:44:40.972Z</time></trkpt><trkpt lat="45.91315279569671" lon="11.153696918636498"><ele>994.75</ele><time>2026-05-03T08:44:41.972Z</time></trkpt><trkpt lat="45.91326148757125" lon="11.153578118009056"><ele>994.5</ele><time>2026-05-03T08:44:42.972Z</time></trkpt><trkpt lat="45.91336706012068" lon="11.153463585688304"><ele>994.25</ele><time>2026-05-03T08:44:43.972Z</time></trkpt><trkpt lat="45.913462357422574" lon="11.153338506000146"><ele>994.0</ele><time>2026-05-03T08:44:44.972Z</time></trkpt><trkpt lat="45.913544254351145" lon="11.153187499478847"><ele>990.5</ele><time>2026-05-03T08:44:45.972Z</time></trkpt><trkpt lat="45.913622623571754" lon="11.153015123846842"><ele>987.0</ele><time>2026-05-03T08:44:46.972Z</time></trkpt><trkpt lat="45.91369314434545" lon="11.1528455471045"><ele>983.5</ele><time>2026-05-03T08:44:47.972Z</time></trkpt><trkpt lat="45.91376826888271" lon="11.152682830643222"><ele>980.0</ele><time>2026-05-03T08:44:48.972Z</time></trkpt><trkpt lat="45.91384446862648" lon="11.152515729171178"><ele>976.3333333333334</ele><time>2026-05-03T08:44:49.972Z</time></trkpt><trkpt lat="45.913934256053615" lon="11.15235872355939"><ele>972.6666666666667</ele><time>2026-05-03T08:44:50.972Z</time></trkpt><trkpt lat="45.91405349207514" lon="11.152187801042261"><ele>969.0</ele><time>2026-05-03T08:44:51.972Z</time></trkpt><trkpt lat="45.91418223653904" lon="11.152019938343683"><ele>969.6666666666667</ele><time>2026-05-03T08:44:52.972Z</time></trkpt><trkpt lat="45.9143018925376" lon="11.151853531536508"><ele>970.3333333333334</ele><time>2026-05-03T08:44:53.972Z</time></trkpt><trkpt lat="45.91440934395334" lon="11.151708021299367"><ele>971.0</ele><time>2026-05-03T08:44:54.972Z</time></trkpt><trkpt lat="45.91452827159576" lon="11.151582844444762"><ele>966.3333333333334</ele><time>2026-05-03T08:44:55.972Z</time></trkpt><trkpt lat="45.91464701936381" lon="11.151466101565447"><ele>961.6666666666667</ele><time>2026-05-03T08:44:56.972Z</time></trkpt><trkpt lat="45.91477555495282" lon="11.151352732395484"><ele>957.0</ele><time>2026-05-03T08:44:57.972Z</time></trkpt><trkpt lat="45.914920834019966" lon="11.151232100156383"><ele>957.0</ele><time>2026-05-03T08:44:58.972Z</time></trkpt><trkpt lat="45.915065194267875" lon="11.151092471278803"><ele>957.0</ele><time>2026-05-03T08:44:59.972Z</time></trkpt><trkpt lat="45.91522307189811" lon="11.151001131888131"><ele>957.0</ele><time>2026-05-03T08:45:00.972Z</time></trkpt><trkpt lat="45.91537186328749" lon="11.150889668903636"><ele>957.3333333333333</ele><time>2026-05-03T08:45:01.972Z</time></trkpt><trkpt lat="45.91551226745062" lon="11.150783556460143"><ele>957.6666666666666</ele><time>2026-05-03T08:45:02.972Z</time></trkpt><trkpt lat="45.91565031973531" lon="11.150678290154374"><ele>958.0</ele><time>2026-05-03T08:45:03.972Z</time></trkpt><trkpt lat="45.915779072712034" lon="11.150559651635865"><ele>955.75</ele><time>2026-05-03T08:45:04.972Z</time></trkpt><trkpt lat="45.9159163810732" lon="11.150467541072551"><ele>953.5</ele><time>2026-05-03T08:45:05.972Z</time></trkpt><trkpt lat="45.91604929856359" lon="11.150382164601481"><ele>951.25</ele><time>2026-05-03T08:45:06.972Z</time></trkpt><trkpt lat="45.91618538679372" lon="11.15029212205614"><ele>949.0</ele><time>2026-05-03T08:45:07.972Z</time></trkpt><trkpt lat="45.91632503488877" lon="11.150215724277277"><ele>949.0</ele><time>2026-05-03T08:45:08.972Z</time></trkpt><trkpt lat="45.91646664805542" lon="11.15015781508799"><ele>949.0</ele><time>2026-05-03T08:45:09.974Z</time></trkpt><trkpt lat="45.91660611168701" lon="11.150108362039525"><ele>949.0</ele><time>2026-05-03T08:45:10.973Z</time></trkpt><trkpt lat="45.91674404958756" lon="11.150061689854011"><ele>949.0</ele><time>2026-05-03T08:45:11.973Z</time></trkpt><trkpt lat="45.91687789538419" lon="11.150002884361855"><ele>950.75</ele><time>2026-05-03T08:45:12.973Z</time></trkpt><trkpt lat="45.917001717784004" lon="11.149938519567673"><ele>952.5</ele><time>2026-05-03T08:45:13.973Z</time></trkpt><trkpt lat="45.91712523343592" lon="11.149872535037174"><ele>954.25</ele><time>2026-05-03T08:45:14.973Z</time></trkpt><trkpt lat="45.91724497393633" lon="11.149802195262152"><ele>956.0</ele><time>2026-05-03T08:45:15.974Z</time></trkpt><trkpt lat="45.91737573237265" lon="11.14974942976792"><ele>953.5</ele><time>2026-05-03T08:45:16.973Z</time></trkpt><trkpt lat="45.91750134710212" lon="11.149652230491293"><ele>951.0</ele><time>2026-05-03T08:45:17.973Z</time></trkpt><trkpt lat="45.91761960706832" lon="11.149551987781724"><ele>948.5</ele><time>2026-05-03T08:45:18.974Z</time></trkpt><trkpt lat="45.91773886601619" lon="11.149448038737322"><ele>946.0</ele><time>2026-05-03T08:45:19.974Z</time></trkpt><trkpt lat="45.917849998752736" lon="11.149337998926365"><ele>946.0</ele><time>2026-05-03T08:45:20.974Z</time></trkpt><trkpt lat="45.91794303585081" lon="11.14921938099532"><ele>945.9999999999999</ele><time>2026-05-03T08:45:21.974Z</time></trkpt><trkpt lat="45.91802510210099" lon="11.149100501186012"><ele>945.9999999999999</ele><time>2026-05-03T08:45:22.973Z</time></trkpt><trkpt lat="45.91809334081837" lon="11.148993793885014"><ele>946.0</ele><time>2026-05-03T08:45:23.973Z</time></trkpt><trkpt lat="45.91815372646543" lon="11.148898303415057"><ele>946.0</ele><time>2026-05-03T08:45:24.973Z</time></trkpt><trkpt lat="45.91822756681079" lon="11.148833546219084"><ele>943.4999999999999</ele><time>2026-05-03T08:45:25.973Z</time></trkpt><trkpt lat="45.91831317838029" lon="11.148788923191569"><ele>941.0</ele><time>2026-05-03T08:45:26.973Z</time></trkpt><trkpt lat="45.91840776595131" lon="11.148743853725534"><ele>938.5</ele><time>2026-05-03T08:45:27.973Z</time></trkpt><trkpt lat="45.91848282614781" lon="11.148686442780862"><ele>936.0</ele><time>2026-05-03T08:45:28.973Z</time></trkpt><trkpt lat="45.91855909647919" lon="11.148671898937407"><ele>933.4999999999999</ele><time>2026-05-03T08:45:29.973Z</time></trkpt><trkpt lat="45.918624433611406" lon="11.148624181592558"><ele>931.0</ele><time>2026-05-03T08:45:30.973Z</time></trkpt><trkpt lat="45.918673413975114" lon="11.148522965505325"><ele>931.0</ele><time>2026-05-03T08:45:31.973Z</time></trkpt><trkpt lat="45.91867591057221" lon="11.14839138171359"><ele>930.9999999999999</ele><time>2026-05-03T08:45:32.973Z</time></trkpt><trkpt lat="45.91864080027788" lon="11.148285080671963"><ele>930.9999999999999</ele><time>2026-05-03T08:45:33.972Z</time></trkpt><trkpt lat="45.91853412809843" lon="11.148218714650943"><ele>931.0</ele><time>2026-05-03T08:45:34.972Z</time></trkpt><trkpt lat="45.91844739338153" lon="11.148237704987592"><ele>931.0</ele><time>2026-05-03T08:45:35.972Z</time></trkpt><trkpt lat="45.91835831209021" lon="11.148304104113743"><ele>929.4999999999999</ele><time>2026-05-03T08:45:36.972Z</time></trkpt><trkpt lat="45.91827785288722" lon="11.148353074033189"><ele>928.0</ele><time>2026-05-03T08:45:37.972Z</time></trkpt><trkpt lat="45.91819798884368" lon="11.148401009490804"><ele>926.5</ele><time>2026-05-03T08:45:38.972Z</time></trkpt><trkpt lat="45.91812333986937" lon="11.148447294954856"><ele>925.0</ele><time>2026-05-03T08:45:39.972Z</time></trkpt><trkpt lat="45.91804851723653" lon="11.148495448989818"><ele>923.4999999999999</ele><time>2026-05-03T08:45:40.972Z</time></trkpt><trkpt lat="45.91796890126817" lon="11.148545560192469"><ele>922.0</ele><time>2026-05-03T08:45:41.972Z</time></trkpt><trkpt lat="45.917873351715876" lon="11.148601593637602"><ele>922.0</ele><time>2026-05-03T08:45:42.972Z</time></trkpt><trkpt lat="45.917786942005534" lon="11.148646765785987"><ele>922.0</ele><time>2026-05-03T08:45:43.972Z</time></trkpt><trkpt lat="45.91769529100612" lon="11.148664757824333"><ele>922.0</ele><time>2026-05-03T08:45:44.972Z</time></trkpt><trkpt lat="45.917588993400074" lon="11.148644795001132"><ele>922.0</ele><time>2026-05-03T08:45:45.972Z</time></trkpt><trkpt lat="45.91745818441314" lon="11.148609564360672"><ele>922.0</ele><time>2026-05-03T08:45:46.972Z</time></trkpt><trkpt lat="45.9173449015691" lon="11.148577023612871"><ele>918.75</ele><time>2026-05-03T08:45:47.972Z</time></trkpt><trkpt lat="45.91722122512996" lon="11.148559092896415"><ele>915.5</ele><time>2026-05-03T08:45:48.972Z</time></trkpt><trkpt lat="45.917107393596176" lon="11.148516100387274"><ele>912.25</ele><time>2026-05-03T08:45:49.972Z</time></trkpt><trkpt lat="45.916983058266496" lon="11.148508614260578"><ele>909.0</ele><time>2026-05-03T08:45:50.972Z</time></trkpt><trkpt lat="45.9168474523148" lon="11.148499448378026"><ele>907.0</ele><time>2026-05-03T08:45:51.972Z</time></trkpt><trkpt lat="45.91670663057689" lon="11.148552748130983"><ele>905.0</ele><time>2026-05-03T08:45:52.972Z</time></trkpt><trkpt lat="45.91656600401697" lon="11.148616671127394"><ele>903.0</ele><time>2026-05-03T08:45:53.972Z</time></trkpt><trkpt lat="45.91642551593234" lon="11.148657051697356"><ele>901.0</ele><time>2026-05-03T08:45:54.972Z</time></trkpt><trkpt lat="45.91625625806833" lon="11.148666202585977"><ele>901.0</ele><time>2026-05-03T08:45:55.972Z</time></trkpt><trkpt lat="45.91607936513518" lon="11.148663343653947"><ele>901.0</ele><time>2026-05-03T08:45:56.972Z</time></trkpt><trkpt lat="45.91587127011094" lon="11.14866000703411"><ele>901.0</ele><time>2026-05-03T08:45:57.972Z</time></trkpt><trkpt lat="45.91564442855286" lon="11.148656067772816"><ele>898.0</ele><time>2026-05-03T08:45:58.972Z</time></trkpt><trkpt lat="45.91542743240621" lon="11.148654478797166"><ele>895.0</ele><time>2026-05-03T08:45:59.972Z</time></trkpt><trkpt lat="45.91524049050391" lon="11.148653472142913"><ele>892.0</ele><time>2026-05-03T08:46:00.972Z</time></trkpt><trkpt lat="45.915061948662824" lon="11.14865251072683"><ele>891.5</ele><time>2026-05-03T08:46:01.972Z</time></trkpt><trkpt lat="45.914908623796755" lon="11.14865168509861"><ele>891.0</ele><time>2026-05-03T08:46:02.972Z</time></trkpt><trkpt lat="45.91477197519444" lon="11.148648904238174"><ele>890.5</ele><time>2026-05-03T08:46:03.972Z</time></trkpt><trkpt lat="45.91465636524233" lon="11.148643573193647"><ele>890.0</ele><time>2026-05-03T08:46:04.972Z</time></trkpt><trkpt lat="45.91457194572293" lon="11.14861967424794"><ele>890.0000000000001</ele><time>2026-05-03T08:46:05.972Z</time></trkpt><trkpt lat="45.91451344616362" lon="11.148571491401697"><ele>890.0</ele><time>2026-05-03T08:46:06.972Z</time></trkpt><trkpt lat="45.91447003586826" lon="11.148497453005586"><ele>890.0</ele><time>2026-05-03T08:46:07.972Z</time></trkpt><trkpt lat="45.91443678067362" lon="11.14838655902457"><ele>890.0</ele><time>2026-05-03T08:46:08.972Z</time></trkpt><trkpt lat="45.91444809567376" lon="11.148269233299837"><ele>890.0000000000001</ele><time>2026-05-03T08:46:09.972Z</time></trkpt><trkpt lat="45.914519132168685" lon="11.148157149603838"><ele>890.0</ele><time>2026-05-03T08:46:10.972Z</time></trkpt><trkpt lat="45.91462816978449" lon="11.148106100889187"><ele>890.0</ele><time>2026-05-03T08:46:11.972Z</time></trkpt><trkpt lat="45.91474469860485" lon="11.148106847937028"><ele>890.0</ele><time>2026-05-03T08:46:12.972Z</time></trkpt><trkpt lat="45.9148616105826" lon="11.148174963810694"><ele>890.0</ele><time>2026-05-03T08:46:13.972Z</time></trkpt><trkpt lat="45.914980289728916" lon="11.148274996614795"><ele>890.0</ele><time>2026-05-03T08:46:14.972Z</time></trkpt><trkpt lat="45.91510458719371" lon="11.148355330136974"><ele>890.6666666666667</ele><time>2026-05-03T08:46:15.972Z</time></trkpt><trkpt lat="45.91523510559674" lon="11.14839831008857"><ele>891.3333333333333</ele><time>2026-05-03T08:46:16.972Z</time></trkpt><trkpt lat="45.91540192597008" lon="11.148377048535407"><ele>892.0</ele><time>2026-05-03T08:46:17.972Z</time></trkpt><trkpt lat="45.91557331776181" lon="11.148334048898501"><ele>892.0</ele><time>2026-05-03T08:46:18.972Z</time></trkpt><trkpt lat="45.91575134393396" lon="11.148288698852038"><ele>892.0</ele><time>2026-05-03T08:46:19.972Z</time></trkpt><trkpt lat="45.915955823210425" lon="11.148216659914723"><ele>892.0</ele><time>2026-05-03T08:46:20.972Z</time></trkpt><trkpt lat="45.91621103909238" lon="11.148077766301553"><ele>884.0</ele><time>2026-05-03T08:46:21.972Z</time></trkpt><trkpt lat="45.916487757898885" lon="11.147914860412117"><ele>876.0</ele><time>2026-05-03T08:46:22.972Z</time></trkpt><trkpt lat="45.91677369860354" lon="11.147748259718254"><ele>876.0</ele><time>2026-05-03T08:46:23.972Z</time></trkpt><trkpt lat="45.917035086515796" lon="11.14759772121737"><ele>876.0</ele><time>2026-05-03T08:46:24.972Z</time></trkpt><trkpt lat="45.91727370749301" lon="11.147457390129153"><ele>869.3333333333333</ele><time>2026-05-03T08:46:25.972Z</time></trkpt><trkpt lat="45.91747366604291" lon="11.14734128636578"><ele>862.6666666666666</ele><time>2026-05-03T08:46:26.972Z</time></trkpt><trkpt lat="45.917654834592845" lon="11.147226119279651"><ele>856.0</ele><time>2026-05-03T08:46:27.972Z</time></trkpt><trkpt lat="45.91781681190346" lon="11.147037476616795"><ele>856.0</ele><time>2026-05-03T08:46:28.972Z</time></trkpt><trkpt lat="45.91798458120472" lon="11.146796220974569"><ele>856.0</ele><time>2026-05-03T08:46:29.972Z</time></trkpt><trkpt lat="45.91811714723088" lon="11.146575921755613"><ele>856.0</ele><time>2026-05-03T08:46:30.972Z</time></trkpt><trkpt lat="45.91821292179648" lon="11.146399477863312"><ele>852.75</ele><time>2026-05-03T08:46:31.972Z</time></trkpt><trkpt lat="45.91830909480415" lon="11.146293192054616"><ele>849.5</ele><time>2026-05-03T08:46:32.972Z</time></trkpt><trkpt lat="45.91839806596259" lon="11.146224874574559"><ele>846.25</ele><time>2026-05-03T08:46:33.972Z</time></trkpt><trkpt lat="45.918518020456666" lon="11.146208642030118"><ele>843.0</ele><time>2026-05-03T08:46:34.972Z</time></trkpt><trkpt lat="45.91868465006687" lon="11.146181239971321"><ele>843.0</ele><time>2026-05-03T08:46:35.972Z</time></trkpt><trkpt lat="45.91880872288213" lon="11.14608861136632"><ele>843.0</ele><time>2026-05-03T08:46:36.972Z</time></trkpt><trkpt lat="45.91889458204368" lon="11.145990429052837"><ele>843.0</ele><time>2026-05-03T08:46:37.972Z</time></trkpt><trkpt lat="45.91895615344262" lon="11.145806785746373"><ele>843.0</ele><time>2026-05-03T08:46:38.972Z</time></trkpt><trkpt lat="45.91899544561921" lon="11.145574036658273"><ele>844.3333333333333</ele><time>2026-05-03T08:46:39.972Z</time></trkpt><trkpt lat="45.91904315900861" lon="11.145331291556733"><ele>845.6666666666666</ele><time>2026-05-03T08:46:40.972Z</time></trkpt><trkpt lat="45.91914855144109" lon="11.145172590147215"><ele>847.0</ele><time>2026-05-03T08:46:41.972Z</time></trkpt><trkpt lat="45.91927667456145" lon="11.145029538972379"><ele>842.6666666666666</ele><time>2026-05-03T08:46:42.972Z</time></trkpt><trkpt lat="45.91942249098343" lon="11.14485941829058"><ele>838.3333333333333</ele><time>2026-05-03T08:46:43.972Z</time></trkpt><trkpt lat="45.91954235197714" lon="11.14464221403247"><ele>834.0</ele><time>2026-05-03T08:46:44.972Z</time></trkpt><trkpt lat="45.91963560120449" lon="11.144379584224042"><ele>834.0</ele><time>2026-05-03T08:46:45.972Z</time></trkpt><trkpt lat="45.919698485185044" lon="11.144095444989778"><ele>834.0</ele><time>2026-05-03T08:46:46.972Z</time></trkpt><trkpt lat="45.91979025091051" lon="11.143899219378063"><ele>834.0</ele><time>2026-05-03T08:46:47.972Z</time></trkpt><trkpt lat="45.91990968897944" lon="11.143721800458536"><ele>829.5</ele><time>2026-05-03T08:46:48.972Z</time></trkpt><trkpt lat="45.920075381759325" lon="11.143532051254063"><ele>825.0</ele><time>2026-05-03T08:46:49.972Z</time></trkpt><trkpt lat="45.92025456238172" lon="11.143307065767432"><ele>818.6666666666667</ele><time>2026-05-03T08:46:50.972Z</time></trkpt><trkpt lat="45.92043519769126" lon="11.143129433057988"><ele>812.3333333333334</ele><time>2026-05-03T08:46:51.972Z</time></trkpt><trkpt lat="45.92056400848362" lon="11.142986910738488"><ele>806.0</ele><time>2026-05-03T08:46:52.972Z</time></trkpt><trkpt lat="45.92067583504136" lon="11.142893675532362"><ele>806.0</ele><time>2026-05-03T08:46:53.972Z</time></trkpt><trkpt lat="45.92081786166314" lon="11.142828987334084"><ele>806.0</ele><time>2026-05-03T08:46:54.972Z</time></trkpt><trkpt lat="45.92098326746082" lon="11.142774672326102"><ele>806.0</ele><time>2026-05-03T08:46:55.972Z</time></trkpt><trkpt lat="45.9211172914674" lon="11.142704618202824"><ele>806.1999999999999</ele><time>2026-05-03T08:46:56.972Z</time></trkpt><trkpt lat="45.921204852085815" lon="11.14264896256825"><ele>806.4</ele><time>2026-05-03T08:46:57.972Z</time></trkpt><trkpt lat="45.921251304700476" lon="11.142562179153906"><ele>806.6</ele><time>2026-05-03T08:46:58.972Z</time></trkpt><trkpt lat="45.92124680208264" lon="11.142440549318993"><ele>806.8</ele><time>2026-05-03T08:46:59.972Z</time></trkpt><trkpt lat="45.92119199139849" lon="11.142320631717297"><ele>807.0</ele><time>2026-05-03T08:47:00.972Z</time></trkpt><trkpt lat="45.92110097523561" lon="11.14223749662655"><ele>807.0</ele><time>2026-05-03T08:47:01.971Z</time></trkpt><trkpt lat="45.92095403818727" lon="11.14230692877445"><ele>807.0</ele><time>2026-05-03T08:47:02.971Z</time></trkpt><trkpt lat="45.920813920558835" lon="11.142428947834116"><ele>807.0</ele><time>2026-05-03T08:47:03.971Z</time></trkpt><trkpt lat="45.920644186904276" lon="11.142560543562741"><ele>806.6666666666667</ele><time>2026-05-03T08:47:04.971Z</time></trkpt><trkpt lat="45.92044785504719" lon="11.142669062410539"><ele>806.3333333333334</ele><time>2026-05-03T08:47:05.971Z</time></trkpt><trkpt lat="45.920229804247725" lon="11.142745963148206"><ele>806.0</ele><time>2026-05-03T08:47:06.971Z</time></trkpt><trkpt lat="45.920002713591856" lon="11.142807782906072"><ele>800.6666666666667</ele><time>2026-05-03T08:47:07.971Z</time></trkpt><trkpt lat="45.91980127092764" lon="11.14288099723761"><ele>795.3333333333333</ele><time>2026-05-03T08:47:08.971Z</time></trkpt><trkpt lat="45.91961635624918" lon="11.142926441703231"><ele>790.0</ele><time>2026-05-03T08:47:09.971Z</time></trkpt><trkpt lat="45.919419481136416" lon="11.143010998245005"><ele>792.6666666666666</ele><time>2026-05-03T08:47:10.971Z</time></trkpt><trkpt lat="45.91921376578192" lon="11.143112673652945"><ele>795.3333333333333</ele><time>2026-05-03T08:47:11.971Z</time></trkpt><trkpt lat="45.91900634357339" lon="11.143232436710448"><ele>798.0</ele><time>2026-05-03T08:47:12.971Z</time></trkpt><trkpt lat="45.91883708885738" lon="11.143351435595124"><ele>798.0</ele><time>2026-05-03T08:47:13.971Z</time></trkpt><trkpt lat="45.91872863508793" lon="11.143480174456029"><ele>798.0</ele><time>2026-05-03T08:47:14.971Z</time></trkpt><trkpt lat="45.918643061448854" lon="11.143604094036005"><ele>798.0</ele><time>2026-05-03T08:47:15.973Z</time></trkpt><trkpt lat="45.91857770885658" lon="11.14369930101555"><ele>798.0</ele><time>2026-05-03T08:47:16.973Z</time></trkpt><trkpt lat="45.91850500343191" lon="11.143755127888198"><ele>798.0</ele><time>2026-05-03T08:47:17.973Z</time></trkpt><trkpt lat="45.91842507925769" lon="11.143750705016698"><ele>798.0</ele><time>2026-05-03T08:47:18.973Z</time></trkpt><trkpt lat="45.918350213727535" lon="11.143628324665375"><ele>798.0</ele><time>2026-05-03T08:47:19.973Z</time></trkpt><trkpt lat="45.918339586380995" lon="11.143470951497084"><ele>798.0</ele><time>2026-05-03T08:47:20.973Z</time></trkpt><trkpt lat="45.91841334374033" lon="11.143355401753695"><ele>798.0</ele><time>2026-05-03T08:47:21.973Z</time></trkpt><trkpt lat="45.918520514908025" lon="11.143276352604337"><ele>790.6666666666667</ele><time>2026-05-03T08:47:22.973Z</time></trkpt><trkpt lat="45.918649239229566" lon="11.143128556990284"><ele>783.3333333333334</ele><time>2026-05-03T08:47:23.973Z</time></trkpt><trkpt lat="45.918805009657554" lon="11.1429959888875"><ele>776.0</ele><time>2026-05-03T08:47:24.973Z</time></trkpt><trkpt lat="45.91894520269886" lon="11.142828629698707"><ele>776.0</ele><time>2026-05-03T08:47:25.973Z</time></trkpt><trkpt lat="45.91905884909814" lon="11.142604988299672"><ele>776.0</ele><time>2026-05-03T08:47:26.973Z</time></trkpt><trkpt lat="45.91915056748691" lon="11.14238536998309"><ele>776.0</ele><time>2026-05-03T08:47:27.973Z</time></trkpt><trkpt lat="45.91927288736706" lon="11.14220162603499"><ele>776.0</ele><time>2026-05-03T08:47:28.973Z</time></trkpt><trkpt lat="45.919418918245306" lon="11.142045758883638"><ele>776.0</ele><time>2026-05-03T08:47:29.973Z</time></trkpt><trkpt lat="45.91957813935074" lon="11.14191046383781"><ele>776.0</ele><time>2026-05-03T08:47:30.973Z</time></trkpt><trkpt lat="45.91972999129852" lon="11.14179783247106"><ele>776.0</ele><time>2026-05-03T08:47:31.973Z</time></trkpt><trkpt lat="45.91986805998495" lon="11.141637080279704"><ele>776.0</ele><time>2026-05-03T08:47:32.973Z</time></trkpt><trkpt lat="45.91995045893224" lon="11.141403968364758"><ele>776.0</ele><time>2026-05-03T08:47:33.973Z</time></trkpt><trkpt lat="45.92001827679649" lon="11.14115446421925"><ele>777.0</ele><time>2026-05-03T08:47:34.973Z</time></trkpt><trkpt lat="45.92006888919723" lon="11.140896958104298"><ele>778.0</ele><time>2026-05-03T08:47:35.973Z</time></trkpt><trkpt lat="45.92016250299974" lon="11.140663221424091"><ele>779.0</ele><time>2026-05-03T08:47:36.973Z</time></trkpt><trkpt lat="45.920332023430504" lon="11.140431881463474"><ele>767.5</ele><time>2026-05-03T08:47:37.973Z</time></trkpt><trkpt lat="45.92052262647756" lon="11.140159006472375"><ele>756.0</ele><time>2026-05-03T08:47:38.973Z</time></trkpt><trkpt lat="45.920735755258754" lon="11.139844661753664"><ele>758.0</ele><time>2026-05-03T08:47:39.973Z</time></trkpt><trkpt lat="45.92094067943836" lon="11.139433284777862"><ele>760.0</ele><time>2026-05-03T08:47:40.973Z</time></trkpt><trkpt lat="45.92113985170841" lon="11.13899057928625"><ele>751.0</ele><time>2026-05-03T08:47:41.973Z</time></trkpt><trkpt lat="45.92132510352505" lon="11.138616395708812"><ele>742.0</ele><time>2026-05-03T08:47:42.973Z</time></trkpt><trkpt lat="45.921514068832174" lon="11.138311730330493"><ele>738.5</ele><time>2026-05-03T08:47:43.973Z</time></trkpt><trkpt lat="45.92168112332895" lon="11.138018723237668"><ele>735.0</ele><time>2026-05-03T08:47:44.973Z</time></trkpt><trkpt lat="45.92184339447445" lon="11.137717981139943"><ele>735.0</ele><time>2026-05-03T08:47:45.973Z</time></trkpt><trkpt lat="45.921919849810976" lon="11.13760547364112"><ele>735.0</ele><time>2026-05-03T08:47:46.973Z</time></trkpt><trkpt lat="45.92201636148362" lon="11.13745767561914"><ele>735.0</ele><time>2026-05-03T08:47:47.973Z</time></trkpt><trkpt lat="45.92210610558346" lon="11.13736300324"><ele>735.0</ele><time>2026-05-03T08:47:48.973Z</time></trkpt><trkpt lat="45.922237144284374" lon="11.137278978608427"><ele>731.6666666666666</ele><time>2026-05-03T08:47:49.973Z</time></trkpt><trkpt lat="45.92242285302378" lon="11.13723022227404"><ele>728.3333333333333</ele><time>2026-05-03T08:47:50.973Z</time></trkpt><trkpt lat="45.922653870117294" lon="11.13714362671661"><ele>725.0</ele><time>2026-05-03T08:47:51.973Z</time></trkpt><trkpt lat="45.92286193179012" lon="11.137068985203461"><ele>725.0</ele><time>2026-05-03T08:47:52.973Z</time></trkpt><trkpt lat="45.923034153677094" lon="11.137002445214367"><ele>725.0</ele><time>2026-05-03T08:47:53.973Z</time></trkpt><trkpt lat="45.92315601959738" lon="11.136943779351398"><ele>725.0</ele><time>2026-05-03T08:47:54.973Z</time></trkpt><trkpt lat="45.92324185847642" lon="11.13687806934337"><ele>725.0</ele><time>2026-05-03T08:47:55.973Z</time></trkpt><trkpt lat="45.923301388969925" lon="11.136744461155834"><ele>725.0</ele><time>2026-05-03T08:47:56.973Z</time></trkpt><trkpt lat="45.92331056151641" lon="11.136595460157732"><ele>725.0</ele><time>2026-05-03T08:47:57.973Z</time></trkpt><trkpt lat="45.92326982194178" lon="11.136423137265504"><ele>725.0</ele><time>2026-05-03T08:47:58.973Z</time></trkpt><trkpt lat="45.92320148675337" lon="11.13628123655315"><ele>725.0</ele><time>2026-05-03T08:47:59.973Z</time></trkpt><trkpt lat="45.92315894268458" lon="11.136159649304336"><ele>725.0</ele><time>2026-05-03T08:48:00.973Z</time></trkpt><trkpt lat="45.92311938858065" lon="11.136036238905294"><ele>724.3333333333333</ele><time>2026-05-03T08:48:01.973Z</time></trkpt><trkpt lat="45.923084694731145" lon="11.13592057269487"><ele>723.6666666666666</ele><time>2026-05-03T08:48:02.973Z</time></trkpt><trkpt lat="45.92304304466568" lon="11.135796573846628"><ele>723.0</ele><time>2026-05-03T08:48:04.973Z</time></trkpt><trkpt lat="45.922999914234055" lon="11.13565342183459"><ele>722.3333333333334</ele><time>2026-05-03T08:48:06.973Z</time></trkpt><trkpt lat="45.92297478418931" lon="11.135564166642475"><ele>721.6666666666667</ele><time>2026-05-03T08:48:07.973Z</time></trkpt><trkpt lat="45.92295115901443" lon="11.135469891477335"><ele>721.0</ele><time>2026-05-03T08:48:08.973Z</time></trkpt><trkpt lat="45.92289773269618" lon="11.135393114999689"><ele>721.0</ele><time>2026-05-03T08:48:09.973Z</time></trkpt><trkpt lat="45.922831678084606" lon="11.135369804431685"><ele>721.0</ele><time>2026-05-03T08:48:10.973Z</time></trkpt><trkpt lat="45.922744886321084" lon="11.13540193870764"><ele>721.0</ele><time>2026-05-03T08:48:11.973Z</time></trkpt><trkpt lat="45.92268301114098" lon="11.135508570751096"><ele>721.0</ele><time>2026-05-03T08:48:12.973Z</time></trkpt><trkpt lat="45.92265830775788" lon="11.135667001318126"><ele>721.0</ele><time>2026-05-03T08:48:13.973Z</time></trkpt><trkpt lat="45.922650491490415" lon="11.135809110553994"><ele>721.0</ele><time>2026-05-03T08:48:14.973Z</time></trkpt><trkpt lat="45.92264113031125" lon="11.135910254145447"><ele>721.0</ele><time>2026-05-03T08:48:15.973Z</time></trkpt><trkpt lat="45.92258578790889" lon="11.136044772553703"><ele>721.0</ele><time>2026-05-03T08:48:17.973Z</time></trkpt><trkpt lat="45.92248199456294" lon="11.136114888182785"><ele>721.0</ele><time>2026-05-03T08:48:19.973Z</time></trkpt><trkpt lat="45.92240040789072" lon="11.136120533976243"><ele>721.0</ele><time>2026-05-03T08:48:20.973Z</time></trkpt><trkpt lat="45.922311652993564" lon="11.136100217366632"><ele>716.8</ele><time>2026-05-03T08:48:21.973Z</time></trkpt><trkpt lat="45.922215739327164" lon="11.136075163547762"><ele>712.5999999999999</ele><time>2026-05-03T08:48:22.973Z</time></trkpt><trkpt lat="45.92212191123354" lon="11.136066711046922"><ele>708.4</ele><time>2026-05-03T08:48:23.973Z</time></trkpt><trkpt lat="45.922031676888395" lon="11.136048203325442"><ele>704.2</ele><time>2026-05-03T08:48:24.973Z</time></trkpt><trkpt lat="45.92193737463247" lon="11.136039136333201"><ele>700.0</ele><time>2026-05-03T08:48:25.972Z</time></trkpt><trkpt lat="45.921845630085215" lon="11.136034461573905"><ele>700.0</ele><time>2026-05-03T08:48:26.972Z</time></trkpt><trkpt lat="45.9217536214132" lon="11.13603172373953"><ele>700.0</ele><time>2026-05-03T08:48:27.972Z</time></trkpt><trkpt lat="45.92164807069286" lon="11.13602359818632"><ele>700.0</ele><time>2026-05-03T08:48:28.972Z</time></trkpt><trkpt lat="45.92153555147422" lon="11.136017091195281"><ele>700.0</ele><time>2026-05-03T08:48:29.972Z</time></trkpt><trkpt lat="45.92142202556004" lon="11.136026845382458"><ele>700.0</ele><time>2026-05-03T08:48:30.972Z</time></trkpt><trkpt lat="45.92131037441347" lon="11.136056019416154"><ele>695.5</ele><time>2026-05-03T08:48:31.972Z</time></trkpt><trkpt lat="45.9212275927677" lon="11.136101853684726"><ele>691.0</ele><time>2026-05-03T08:48:32.972Z</time></trkpt><trkpt lat="45.92114887194255" lon="11.136208593455603"><ele>686.5</ele><time>2026-05-03T08:48:33.972Z</time></trkpt><trkpt lat="45.921055532042544" lon="11.136321307405634"><ele>682.0</ele><time>2026-05-03T08:48:34.972Z</time></trkpt><trkpt lat="45.92095108825582" lon="11.136458821087643"><ele>681.5</ele><time>2026-05-03T08:48:35.972Z</time></trkpt><trkpt lat="45.92084905783215" lon="11.1365953277203"><ele>681.0</ele><time>2026-05-03T08:48:36.972Z</time></trkpt><trkpt lat="45.92075368287467" lon="11.136746749206715"><ele>680.5</ele><time>2026-05-03T08:48:37.972Z</time></trkpt><trkpt lat="45.92064101963172" lon="11.136869124409376"><ele>680.0</ele><time>2026-05-03T08:48:38.972Z</time></trkpt><trkpt lat="45.920531281929875" lon="11.136973775792338"><ele>680.0</ele><time>2026-05-03T08:48:39.972Z</time></trkpt><trkpt lat="45.92041618229487" lon="11.137072699809002"><ele>680.0</ele><time>2026-05-03T08:48:40.972Z</time></trkpt><trkpt lat="45.920318968829406" lon="11.137178572241725"><ele>680.0</ele><time>2026-05-03T08:48:41.972Z</time></trkpt><trkpt lat="45.920216513523236" lon="11.137257994127223"><ele>680.0</ele><time>2026-05-03T08:48:42.972Z</time></trkpt><trkpt lat="45.92013025415226" lon="11.137336629429301"><ele>677.8</ele><time>2026-05-03T08:48:43.972Z</time></trkpt><trkpt lat="45.92004241107304" lon="11.137428291863902"><ele>675.6</ele><time>2026-05-03T08:48:44.972Z</time></trkpt><trkpt lat="45.91997907274425" lon="11.137541821920502"><ele>673.4000000000001</ele><time>2026-05-03T08:48:45.972Z</time></trkpt><trkpt lat="45.91991462184177" lon="11.13765362785306"><ele>671.2</ele><time>2026-05-03T08:48:46.972Z</time></trkpt><trkpt lat="45.91984362167919" lon="11.13775399680817"><ele>669.0</ele><time>2026-05-03T08:48:47.972Z</time></trkpt><trkpt lat="45.9197862701386" lon="11.137862425390267"><ele>669.0</ele><time>2026-05-03T08:48:48.972Z</time></trkpt><trkpt lat="45.91972416647668" lon="11.137966869498825"><ele>669.0</ele><time>2026-05-03T08:48:49.972Z</time></trkpt><trkpt lat="45.919665293947475" lon="11.13807651288889"><ele>669.0</ele><time>2026-05-03T08:48:50.972Z</time></trkpt><trkpt lat="45.91960479146453" lon="11.138185010162733"><ele>669.0</ele><time>2026-05-03T08:48:51.972Z</time></trkpt><trkpt lat="45.919530850758846" lon="11.138260591314722"><ele>669.0</ele><time>2026-05-03T08:48:52.972Z</time></trkpt><trkpt lat="45.91944820077292" lon="11.138306029018976"><ele>668.0</ele><time>2026-05-03T08:48:53.972Z</time></trkpt><trkpt lat="45.919370201813564" lon="11.13828635640896"><ele>667.0</ele><time>2026-05-03T08:48:54.972Z</time></trkpt><trkpt lat="45.919299512721196" lon="11.138266037649855"><ele>666.0</ele><time>2026-05-03T08:48:55.972Z</time></trkpt><trkpt lat="45.91922670196366" lon="11.138247018416358"><ele>665.0</ele><time>2026-05-03T08:48:56.972Z</time></trkpt><trkpt lat="45.919122158099434" lon="11.138217239969146"><ele>664.0</ele><time>2026-05-03T08:48:57.972Z</time></trkpt><trkpt lat="45.91897621156035" lon="11.138192214676797"><ele>664.0</ele><time>2026-05-03T08:48:58.972Z</time></trkpt><trkpt lat="45.91882318614614" lon="11.138228788981804"><ele>664.0</ele><time>2026-05-03T08:48:59.972Z</time></trkpt><trkpt lat="45.918661938593914" lon="11.138304699876308"><ele>664.0</ele><time>2026-05-03T08:49:00.972Z</time></trkpt><trkpt lat="45.91848002417636" lon="11.13843538566284"><ele>656.6666666666667</ele><time>2026-05-03T08:49:01.972Z</time></trkpt><trkpt lat="45.91827232485257" lon="11.138554497938781"><ele>649.3333333333334</ele><time>2026-05-03T08:49:02.972Z</time></trkpt><trkpt lat="45.91807981341984" lon="11.138710325862878"><ele>642.0</ele><time>2026-05-03T08:49:03.972Z</time></trkpt><trkpt lat="45.91791070126093" lon="11.138829379302893"><ele>642.0</ele><time>2026-05-03T08:49:04.972Z</time></trkpt><trkpt lat="45.9177640009254" lon="11.138903574652279"><ele>642.0</ele><time>2026-05-03T08:49:05.972Z</time></trkpt><trkpt lat="45.91760548067975" lon="11.138924768257036"><ele>642.0</ele><time>2026-05-03T08:49:06.972Z</time></trkpt><trkpt lat="45.91744326444601" lon="11.138958408690637"><ele>642.75</ele><time>2026-05-03T08:49:07.972Z</time></trkpt><trkpt lat="45.91732963908253" lon="11.139035446023769"><ele>643.5</ele><time>2026-05-03T08:49:08.972Z</time></trkpt><trkpt lat="45.91723095704716" lon="11.139118962004712"><ele>644.25</ele><time>2026-05-03T08:49:09.972Z</time></trkpt><trkpt lat="45.91712061859221" lon="11.13926793809628"><ele>645.0</ele><time>2026-05-03T08:49:10.972Z</time></trkpt><trkpt lat="45.91698240316664" lon="11.139328855623956"><ele>645.0</ele><time>2026-05-03T08:49:11.972Z</time></trkpt><trkpt lat="45.91684098206563" lon="11.139323819250789"><ele>645.0</ele><time>2026-05-03T08:49:12.972Z</time></trkpt><trkpt lat="45.9166870821499" lon="11.13932685470608"><ele>645.0</ele><time>2026-05-03T08:49:13.972Z</time></trkpt><trkpt lat="45.916598103763235" lon="11.139303103229977"><ele>645.0</ele><time>2026-05-03T08:49:14.972Z</time></trkpt><trkpt lat="45.91653384387552" lon="11.13926959949831"><ele>643.1666666666666</ele><time>2026-05-03T08:49:15.972Z</time></trkpt><trkpt lat="45.91649968640522" lon="11.139180030870783"><ele>641.3333333333334</ele><time>2026-05-03T08:49:16.972Z</time></trkpt><trkpt lat="45.91651305902227" lon="11.139064441731731"><ele>639.5</ele><time>2026-05-03T08:49:17.972Z</time></trkpt><trkpt lat="45.916536043672146" lon="11.138952640791176"><ele>637.6666666666667</ele><time>2026-05-03T08:49:18.972Z</time></trkpt><trkpt lat="45.91661215324707" lon="11.138874526573154"><ele>635.8333333333334</ele><time>2026-05-03T08:49:19.972Z</time></trkpt><trkpt lat="45.91671026757766" lon="11.138821507597193"><ele>634.0</ele><time>2026-05-03T08:49:20.972Z</time></trkpt><trkpt lat="45.916787354192586" lon="11.138790903905576"><ele>632.0</ele><time>2026-05-03T08:49:21.973Z</time></trkpt><trkpt lat="45.91685538694494" lon="11.138747466501675"><ele>630.0</ele><time>2026-05-03T08:49:22.973Z</time></trkpt><trkpt lat="45.91692594462781" lon="11.138695623586734"><ele>628.0</ele><time>2026-05-03T08:49:23.973Z</time></trkpt><trkpt lat="45.91699761489589" lon="11.138639724562912"><ele>626.0</ele><time>2026-05-03T08:49:24.973Z</time></trkpt><trkpt lat="45.91706034317684" lon="11.138562289398255"><ele>624.0</ele><time>2026-05-03T08:49:25.973Z</time></trkpt><trkpt lat="45.91713149266477" lon="11.138485024082813"><ele>622.0</ele><time>2026-05-03T08:49:26.973Z</time></trkpt><trkpt lat="45.917206813347136" lon="11.1384120283533"><ele>622.0</ele><time>2026-05-03T08:49:27.972Z</time></trkpt><trkpt lat="45.917279245783" lon="11.138321455760979"><ele>622.0</ele><time>2026-05-03T08:49:28.973Z</time></trkpt><trkpt lat="45.91735535132693" lon="11.138229215607398"><ele>622.0</ele><time>2026-05-03T08:49:29.973Z</time></trkpt><trkpt lat="45.9174254612515" lon="11.138140483425332"><ele>622.0</ele><time>2026-05-03T08:49:30.973Z</time></trkpt><trkpt lat="45.917496532057086" lon="11.13805302959991"><ele>622.0</ele><time>2026-05-03T08:49:31.972Z</time></trkpt><trkpt lat="45.91756461230239" lon="11.13794678818418"><ele>622.0</ele><time>2026-05-03T08:49:32.972Z</time></trkpt><trkpt lat="45.91763685969615" lon="11.13782186955258"><ele>622.0</ele><time>2026-05-03T08:49:33.973Z</time></trkpt><trkpt lat="45.9177028657637" lon="11.137677898442558"><ele>622.0</ele><time>2026-05-03T08:49:34.973Z</time></trkpt><trkpt lat="45.91778333380409" lon="11.137504113008543"><ele>622.0</ele><time>2026-05-03T08:49:35.973Z</time></trkpt><trkpt lat="45.91786346080474" lon="11.137321166705812"><ele>618.25</ele><time>2026-05-03T08:49:36.973Z</time></trkpt><trkpt lat="45.917949520694414" lon="11.137150087006027"><ele>614.5</ele><time>2026-05-03T08:49:37.973Z</time></trkpt><trkpt lat="45.91803363508293" lon="11.136985424109357"><ele>610.75</ele><time>2026-05-03T08:49:38.973Z</time></trkpt><trkpt lat="45.918108311210034" lon="11.136830974806905"><ele>607.0</ele><time>2026-05-03T08:49:39.973Z</time></trkpt><trkpt lat="45.91816966333219" lon="11.136696251040846"><ele>607.0</ele><time>2026-05-03T08:49:40.973Z</time></trkpt><trkpt lat="45.918238153617175" lon="11.136570810065862"><ele>607.0</ele><time>2026-05-03T08:49:41.973Z</time></trkpt><trkpt lat="45.918318799327174" lon="11.136455287714469"><ele>607.0</ele><time>2026-05-03T08:49:42.973Z</time></trkpt><trkpt lat="45.91841194371051" lon="11.136364681198565"><ele>607.0</ele><time>2026-05-03T08:49:43.973Z</time></trkpt><trkpt lat="45.91850340090661" lon="11.136258308625484"><ele>607.5</ele><time>2026-05-03T08:49:44.973Z</time></trkpt><trkpt lat="45.91861922736908" lon="11.136142528828627"><ele>608.0</ele><time>2026-05-03T08:49:45.973Z</time></trkpt><trkpt lat="45.91872290339252" lon="11.136011936235008"><ele>608.5</ele><time>2026-05-03T08:49:46.973Z</time></trkpt><trkpt lat="45.91881196228484" lon="11.135876863958474"><ele>609.0</ele><time>2026-05-03T08:49:47.973Z</time></trkpt><trkpt lat="45.918901232140456" lon="11.135736706810674"><ele>608.5</ele><time>2026-05-03T08:49:48.973Z</time></trkpt><trkpt lat="45.9189792578404" lon="11.13558709598929"><ele>608.0</ele><time>2026-05-03T08:49:49.973Z</time></trkpt><trkpt lat="45.91905781490004" lon="11.13543295087019"><ele>607.5</ele><time>2026-05-03T08:49:50.973Z</time></trkpt><trkpt lat="45.91914458003563" lon="11.135277729029337"><ele>607.0</ele><time>2026-05-03T08:49:51.973Z</time></trkpt><trkpt lat="45.91923632464629" lon="11.135119040078337"><ele>607.0</ele><time>2026-05-03T08:49:52.973Z</time></trkpt><trkpt lat="45.91932443053321" lon="11.134955307406841"><ele>607.0</ele><time>2026-05-03T08:49:53.973Z</time></trkpt><trkpt lat="45.91940943664211" lon="11.134801825562672"><ele>607.0</ele><time>2026-05-03T08:49:54.973Z</time></trkpt><trkpt lat="45.91948835614903" lon="11.13465206372315"><ele>607.0</ele><time>2026-05-03T08:49:55.973Z</time></trkpt><trkpt lat="45.91957427434727" lon="11.13450183667305"><ele>603.25</ele><time>2026-05-03T08:49:56.973Z</time></trkpt><trkpt lat="45.91964894323582" lon="11.13434385283432"><ele>599.5</ele><time>2026-05-03T08:49:57.973Z</time></trkpt><trkpt lat="45.91971362596777" lon="11.134173702089676"><ele>595.75</ele><time>2026-05-03T08:49:58.973Z</time></trkpt><trkpt lat="45.91975815938508" lon="11.133982568244353"><ele>592.0</ele><time>2026-05-03T08:49:59.973Z</time></trkpt><trkpt lat="45.91978948644833" lon="11.133797490486483"><ele>590.1666666666667</ele><time>2026-05-03T08:50:00.972Z</time></trkpt><trkpt lat="45.919829306425974" lon="11.133657552814164"><ele>588.3333333333334</ele><time>2026-05-03T08:50:01.972Z</time></trkpt><trkpt lat="45.919869301805896" lon="11.133550468076482"><ele>586.5</ele><time>2026-05-03T08:50:02.972Z</time></trkpt><trkpt lat="45.919896382364534" lon="11.133458589892738"><ele>584.6666666666666</ele><time>2026-05-03T08:50:03.972Z</time></trkpt><trkpt lat="45.91994597067372" lon="11.133342405931016"><ele>582.8333333333333</ele><time>2026-05-03T08:50:05.972Z</time></trkpt><trkpt lat="45.919980820231345" lon="11.133255468947233"><ele>581.0</ele><time>2026-05-03T08:50:07.972Z</time></trkpt><trkpt lat="45.920007762742586" lon="11.133148359451404"><ele>581.0</ele><time>2026-05-03T08:50:09.972Z</time></trkpt><trkpt lat="45.91997836886918" lon="11.133019445383914"><ele>581.0</ele><time>2026-05-03T08:50:11.972Z</time></trkpt><trkpt lat="45.91987423547892" lon="11.132997396053339"><ele>581.0</ele><time>2026-05-03T08:50:13.972Z</time></trkpt><trkpt lat="45.91979891876302" lon="11.133134741939838"><ele>581.0</ele><time>2026-05-03T08:50:15.972Z</time></trkpt><trkpt lat="45.91975787977805" lon="11.133220220174977"><ele>581.0</ele><time>2026-05-03T08:50:16.972Z</time></trkpt><trkpt lat="45.919729575617716" lon="11.133309307080472"><ele>581.0</ele><time>2026-05-03T08:50:17.972Z</time></trkpt><trkpt lat="45.91971675987529" lon="11.133399347558202"><ele>581.0</ele><time>2026-05-03T08:50:18.972Z</time></trkpt><trkpt lat="45.91967494837374" lon="11.133474483513242"><ele>581.0</ele><time>2026-05-03T08:50:19.972Z</time></trkpt><trkpt lat="45.91964105974174" lon="11.133573909959297"><ele>581.0</ele><time>2026-05-03T08:50:20.972Z</time></trkpt><trkpt lat="45.919598426190966" lon="11.133677682318714"><ele>581.0</ele><time>2026-05-03T08:50:21.972Z</time></trkpt><trkpt lat="45.91954824006386" lon="11.133805977614102"><ele>581.0</ele><time>2026-05-03T08:50:22.972Z</time></trkpt><trkpt lat="45.91947311440456" lon="11.133930668797944"><ele>581.0</ele><time>2026-05-03T08:50:23.972Z</time></trkpt><trkpt lat="45.91937024868948" lon="11.134015106945254"><ele>581.0</ele><time>2026-05-03T08:50:24.972Z</time></trkpt><trkpt lat="45.9192447229876" lon="11.134082804476364"><ele>581.0</ele><time>2026-05-03T08:50:25.972Z</time></trkpt><trkpt lat="45.919110536866704" lon="11.134141266050193"><ele>581.0</ele><time>2026-05-03T08:50:26.972Z</time></trkpt><trkpt lat="45.918971641083694" lon="11.134200098954638"><ele>576.75</ele><time>2026-05-03T08:50:27.972Z</time></trkpt><trkpt lat="45.91885318163634" lon="11.134253905617237"><ele>572.5</ele><time>2026-05-03T08:50:28.972Z</time></trkpt><trkpt lat="45.91874074132979" lon="11.134305293490558"><ele>568.25</ele><time>2026-05-03T08:50:29.972Z</time></trkpt><trkpt lat="45.9186328752409" lon="11.134353726892071"><ele>564.0</ele><time>2026-05-03T08:50:30.972Z</time></trkpt><trkpt lat="45.918528481138985" lon="11.134399839199254"><ele>564.0</ele><time>2026-05-03T08:50:31.972Z</time></trkpt><trkpt lat="45.91842426289792" lon="11.134445575742625"><ele>564.0</ele><time>2026-05-03T08:50:32.972Z</time></trkpt><trkpt lat="45.91832183206125" lon="11.134490527850511"><ele>564.0</ele><time>2026-05-03T08:50:33.972Z</time></trkpt><trkpt lat="45.91822189539141" lon="11.13453438540573"><ele>564.0</ele><time>2026-05-03T08:50:34.972Z</time></trkpt><trkpt lat="45.91812441233524" lon="11.1345771661477"><ele>564.0</ele><time>2026-05-03T08:50:35.972Z</time></trkpt><trkpt lat="45.91802486374345" lon="11.134620853394102"><ele>560.2</ele><time>2026-05-03T08:50:36.972Z</time></trkpt><trkpt lat="45.91792976556345" lon="11.134672373131558"><ele>556.4</ele><time>2026-05-03T08:50:37.972Z</time></trkpt><trkpt lat="45.91783655422015" lon="11.134705633839195"><ele>552.6</ele><time>2026-05-03T08:50:38.972Z</time></trkpt><trkpt lat="45.91775126204473" lon="11.134734713626315"><ele>548.8</ele><time>2026-05-03T08:50:39.972Z</time></trkpt><trkpt lat="45.91765507029774" lon="11.13478996009861"><ele>545.0</ele><time>2026-05-03T08:50:40.972Z</time></trkpt><trkpt lat="45.91755413293796" lon="11.134852117317621"><ele>545.6</ele><time>2026-05-03T08:50:41.972Z</time></trkpt><trkpt lat="45.917450395110315" lon="11.134939968631182"><ele>546.2</ele><time>2026-05-03T08:50:42.972Z</time></trkpt><trkpt lat="45.91734627595655" lon="11.13504845472085"><ele>546.8</ele><time>2026-05-03T08:50:43.972Z</time></trkpt><trkpt lat="45.91726635751955" lon="11.135145365910745"><ele>547.4</ele><time>2026-05-03T08:50:44.972Z</time></trkpt><trkpt lat="45.917199354519525" lon="11.135220800655558"><ele>548.0</ele><time>2026-05-03T08:50:45.972Z</time></trkpt><trkpt lat="45.91713935572214" lon="11.135276117681213"><ele>548.0</ele><time>2026-05-03T08:50:46.972Z</time></trkpt><trkpt lat="45.91708469448969" lon="11.135335164418766"><ele>548.0</ele><time>2026-05-03T08:50:47.972Z</time></trkpt><trkpt lat="45.9170056253871" lon="11.135396031932158"><ele>548.0</ele><time>2026-05-03T08:50:49.972Z</time></trkpt><trkpt lat="45.916904083960574" lon="11.135378403065033"><ele>548.0</ele><time>2026-05-03T08:50:51.972Z</time></trkpt><trkpt lat="45.916841295480495" lon="11.13526038884833"><ele>548.0</ele><time>2026-05-03T08:50:53.972Z</time></trkpt><trkpt lat="45.91685861115417" lon="11.13508688996262"><ele>548.0</ele><time>2026-05-03T08:50:55.972Z</time></trkpt><trkpt lat="45.91690811106603" lon="11.135006142986319"><ele>548.0</ele><time>2026-05-03T08:50:56.972Z</time></trkpt><trkpt lat="45.91699631925884" lon="11.134927523603963"><ele>548.0</ele><time>2026-05-03T08:50:58.972Z</time></trkpt><trkpt lat="45.9170832127319" lon="11.134852351922948"><ele>548.0</ele><time>2026-05-03T08:50:59.972Z</time></trkpt><trkpt lat="45.91717448208986" lon="11.1347733946012"><ele>548.0</ele><time>2026-05-03T08:51:00.972Z</time></trkpt><trkpt lat="45.917274621130886" lon="11.134686764178511"><ele>547.25</ele><time>2026-05-03T08:51:01.972Z</time></trkpt><trkpt lat="45.91737956598028" lon="11.134597552356183"><ele>546.5</ele><time>2026-05-03T08:51:02.972Z</time></trkpt><trkpt lat="45.91747241552393" lon="11.134484408938068"><ele>545.75</ele><time>2026-05-03T08:51:03.972Z</time></trkpt><trkpt lat="45.91755704230921" lon="11.134391764542562"><ele>545.0</ele><time>2026-05-03T08:51:04.972Z</time></trkpt><trkpt lat="45.91762180417963" lon="11.13426851687877"><ele>545.0</ele><time>2026-05-03T08:51:05.972Z</time></trkpt><trkpt lat="45.917667483762706" lon="11.13413614088493"><ele>545.0</ele><time>2026-05-03T08:51:06.972Z</time></trkpt><trkpt lat="45.91769898049982" lon="11.133996322756445"><ele>545.0</ele><time>2026-05-03T08:51:07.972Z</time></trkpt><trkpt lat="45.91772683051459" lon="11.1338640211254"><ele>545.0</ele><time>2026-05-03T08:51:08.972Z</time></trkpt><trkpt lat="45.91777780284753" lon="11.133745067383114"><ele>545.0</ele><time>2026-05-03T08:51:09.972Z</time></trkpt><trkpt lat="45.91787330527965" lon="11.133691246050336"><ele>538.5</ele><time>2026-05-03T08:51:10.972Z</time></trkpt><trkpt lat="45.91797193758245" lon="11.133645719318205"><ele>532.0</ele><time>2026-05-03T08:51:11.972Z</time></trkpt><trkpt lat="45.91808422758194" lon="11.133556591257106"><ele>525.5</ele><time>2026-05-03T08:51:12.972Z</time></trkpt><trkpt lat="45.91819759897555" lon="11.133455131938756"><ele>519.0</ele><time>2026-05-03T08:51:13.972Z</time></trkpt><trkpt lat="45.918343532899435" lon="11.133310103339221"><ele>522.0</ele><time>2026-05-03T08:51:14.972Z</time></trkpt><trkpt lat="45.91850581468804" lon="11.133145631942599"><ele>525.0</ele><time>2026-05-03T08:51:15.972Z</time></trkpt><trkpt lat="45.918623796351106" lon="11.132993135942632"><ele>528.0</ele><time>2026-05-03T08:51:16.972Z</time></trkpt><trkpt lat="45.91873112581155" lon="11.132880021460506"><ele>528.0</ele><time>2026-05-03T08:51:17.972Z</time></trkpt><trkpt lat="45.91880192585968" lon="11.132748281897447"><ele>528.0</ele><time>2026-05-03T08:51:18.972Z</time></trkpt><trkpt lat="45.91882855262592" lon="11.132589011076083"><ele>528.0</ele><time>2026-05-03T08:51:19.972Z</time></trkpt><trkpt lat="45.918809909731756" lon="11.132421591473227"><ele>528.0</ele><time>2026-05-03T08:51:20.972Z</time></trkpt><trkpt lat="45.91880682242503" lon="11.132307463054321"><ele>528.0</ele><time>2026-05-03T08:51:21.972Z</time></trkpt><trkpt lat="45.9188194994404" lon="11.132192652902276"><ele>524.0</ele><time>2026-05-03T08:51:22.972Z</time></trkpt><trkpt lat="45.91884361387393" lon="11.132071401947167"><ele>520.0</ele><time>2026-05-03T08:51:23.972Z</time></trkpt><trkpt lat="45.91888576873019" lon="11.131951693044156"><ele>516.0</ele><time>2026-05-03T08:51:24.972Z</time></trkpt><trkpt lat="45.91895026169749" lon="11.131842356338174"><ele>512.0</ele><time>2026-05-03T08:51:25.972Z</time></trkpt><trkpt lat="45.91903163857011" lon="11.131702577979597"><ele>508.0</ele><time>2026-05-03T08:51:26.972Z</time></trkpt><trkpt lat="45.9191363843915" lon="11.13150269461496"><ele>508.33333333333337</ele><time>2026-05-03T08:51:27.973Z</time></trkpt><trkpt lat="45.91929496267556" lon="11.131279150305263"><ele>508.66666666666663</ele><time>2026-05-03T08:51:28.973Z</time></trkpt><trkpt lat="45.91944598929957" lon="11.131051056530954"><ele>509.0</ele><time>2026-05-03T08:51:29.973Z</time></trkpt><trkpt lat="45.919584770017565" lon="11.130848173559684"><ele>495.3333333333333</ele><time>2026-05-03T08:51:30.972Z</time></trkpt><trkpt lat="45.91971539971485" lon="11.130671478012347"><ele>481.66666666666663</ele><time>2026-05-03T08:51:31.972Z</time></trkpt><trkpt lat="45.91982626519404" lon="11.130496923251755"><ele>468.0</ele><time>2026-05-03T08:51:32.972Z</time></trkpt><trkpt lat="45.91992082415494" lon="11.130351682969504"><ele>468.0</ele><time>2026-05-03T08:51:33.972Z</time></trkpt><trkpt lat="45.920009675079726" lon="11.13024302850198"><ele>468.0</ele><time>2026-05-03T08:51:34.973Z</time></trkpt><trkpt lat="45.92010890523571" lon="11.130176721232404"><ele>468.0</ele><time>2026-05-03T08:51:35.973Z</time></trkpt><trkpt lat="45.920221702000575" lon="11.130196180699166"><ele>468.0</ele><time>2026-05-03T08:51:36.973Z</time></trkpt><trkpt lat="45.92036150530812" lon="11.130175575975148"><ele>467.0</ele><time>2026-05-03T08:51:37.972Z</time></trkpt><trkpt lat="45.9204797616616" lon="11.130151466239106"><ele>466.0</ele><time>2026-05-03T08:51:38.972Z</time></trkpt><trkpt lat="45.920567486030045" lon="11.130082696602871"><ele>465.0</ele><time>2026-05-03T08:51:39.972Z</time></trkpt><trkpt lat="45.92063706318589" lon="11.129922759936605"><ele>464.0</ele><time>2026-05-03T08:51:40.972Z</time></trkpt><trkpt lat="45.92069252628565" lon="11.129717126604895"><ele>464.0</ele><time>2026-05-03T08:51:41.972Z</time></trkpt><trkpt lat="45.92075975755572" lon="11.129465480475435"><ele>464.0</ele><time>2026-05-03T08:51:42.972Z</time></trkpt><trkpt lat="45.920873391510064" lon="11.12927418681543"><ele>464.0</ele><time>2026-05-03T08:51:43.972Z</time></trkpt><trkpt lat="45.92102844585518" lon="11.129116967730926"><ele>460.0</ele><time>2026-05-03T08:51:44.972Z</time></trkpt><trkpt lat="45.92119537624119" lon="11.128963659010946"><ele>456.0</ele><time>2026-05-03T08:51:45.972Z</time></trkpt><trkpt lat="45.92134105658354" lon="11.128820753152025"><ele>452.0</ele><time>2026-05-03T08:51:46.972Z</time></trkpt><trkpt lat="45.92146058932501" lon="11.128712040262094"><ele>452.0</ele><time>2026-05-03T08:51:47.972Z</time></trkpt><trkpt lat="45.921549680027546" lon="11.128544612113235"><ele>452.0</ele><time>2026-05-03T08:51:48.972Z</time></trkpt><trkpt lat="45.921601130564675" lon="11.128365344918485"><ele>452.0</ele><time>2026-05-03T08:51:49.972Z</time></trkpt><trkpt lat="45.92165591360892" lon="11.128237440165297"><ele>452.0</ele><time>2026-05-03T08:51:50.972Z</time></trkpt><trkpt lat="45.92174384280633" lon="11.128176778323665"><ele>442.25</ele><time>2026-05-03T08:51:51.972Z</time></trkpt><trkpt lat="45.921870960791765" lon="11.128188939518859"><ele>432.5</ele><time>2026-05-03T08:51:52.972Z</time></trkpt><trkpt lat="45.921987298570656" lon="11.12826439276216"><ele>422.75</ele><time>2026-05-03T08:51:53.972Z</time></trkpt><trkpt lat="45.92203635865342" lon="11.128436044856477"><ele>413.0</ele><time>2026-05-03T08:51:54.972Z</time></trkpt><trkpt lat="45.922066446422065" lon="11.128583751403378"><ele>413.0</ele><time>2026-05-03T08:51:55.972Z</time></trkpt><trkpt lat="45.92202812313486" lon="11.128734267478135"><ele>413.0</ele><time>2026-05-03T08:51:56.972Z</time></trkpt><trkpt lat="45.92194075654072" lon="11.128870402713229"><ele>413.0</ele><time>2026-05-03T08:51:57.972Z</time></trkpt><trkpt lat="45.921848926917704" lon="11.12903726810815"><ele>413.0</ele><time>2026-05-03T08:51:58.972Z</time></trkpt><trkpt lat="45.921787755441756" lon="11.129165531346837"><ele>418.0</ele><time>2026-05-03T08:51:59.972Z</time></trkpt><trkpt lat="45.921754039024655" lon="11.12930605307816"><ele>423.0</ele><time>2026-05-03T08:52:00.972Z</time></trkpt><trkpt lat="45.92178847096909" lon="11.129417567900354"><ele>427.99999999999994</ele><time>2026-05-03T08:52:01.972Z</time></trkpt><trkpt lat="45.92186696952376" lon="11.129474777481795"><ele>433.0</ele><time>2026-05-03T08:52:02.972Z</time></trkpt><trkpt lat="45.922020309340176" lon="11.129498036353706"><ele>438.0</ele><time>2026-05-03T08:52:03.972Z</time></trkpt><trkpt lat="45.92219788625327" lon="11.12956565504789"><ele>438.0</ele><time>2026-05-03T08:52:04.972Z</time></trkpt><trkpt lat="45.92237162640132" lon="11.129617978171833"><ele>438.0</ele><time>2026-05-03T08:52:05.972Z</time></trkpt><trkpt lat="45.922555360118515" lon="11.129673408030708"><ele>438.0</ele><time>2026-05-03T08:52:06.972Z</time></trkpt><trkpt lat="45.92276000615783" lon="11.129739530150855"><ele>439.0</ele><time>2026-05-03T08:52:07.972Z</time></trkpt><trkpt lat="45.922972391995714" lon="11.129829231187879"><ele>440.0</ele><time>2026-05-03T08:52:08.972Z</time></trkpt><trkpt lat="45.92319384618432" lon="11.129932801954975"><ele>440.0</ele><time>2026-05-03T08:52:09.972Z</time></trkpt><trkpt lat="45.92337927495383" lon="11.13002187944143"><ele>440.0</ele><time>2026-05-03T08:52:10.972Z</time></trkpt><trkpt lat="45.92353785444037" lon="11.130099103881472"><ele>440.0</ele><time>2026-05-03T08:52:11.972Z</time></trkpt><trkpt lat="45.92368734256118" lon="11.130171789174822"><ele>439.0</ele><time>2026-05-03T08:52:12.972Z</time></trkpt><trkpt lat="45.92382516272325" lon="11.130222439026705"><ele>438.0</ele><time>2026-05-03T08:52:13.972Z</time></trkpt><trkpt lat="45.923962811365286" lon="11.130181216438526"><ele>437.0</ele><time>2026-05-03T08:52:14.972Z</time></trkpt><trkpt lat="45.92410221518389" lon="11.13008235934304"><ele>436.0</ele><time>2026-05-03T08:52:15.972Z</time></trkpt><trkpt lat="45.92425585074618" lon="11.130036209680567"><ele>436.0</ele><time>2026-05-03T08:52:16.972Z</time></trkpt><trkpt lat="45.92436040702605" lon="11.130028648086641"><ele>436.0</ele><time>2026-05-03T08:52:17.972Z</time></trkpt><trkpt lat="45.92443787397245" lon="11.130069169588616"><ele>436.0</ele><time>2026-05-03T08:52:18.972Z</time></trkpt><trkpt lat="45.924511634001504" lon="11.13016361124195"><ele>436.0</ele><time>2026-05-03T08:52:19.972Z</time></trkpt><trkpt lat="45.92462494429354" lon="11.13026712591122"><ele>436.0</ele><time>2026-05-03T08:52:20.972Z</time></trkpt><trkpt lat="45.92473607183429" lon="11.13032434141532"><ele>436.0</ele><time>2026-05-03T08:52:21.972Z</time></trkpt><trkpt lat="45.924887877105135" lon="11.130264814144276"><ele>436.0</ele><time>2026-05-03T08:52:22.972Z</time></trkpt><trkpt lat="45.925026717939936" lon="11.130310029199384"><ele>436.0</ele><time>2026-05-03T08:52:23.972Z</time></trkpt><trkpt lat="45.925050022169096" lon="11.130135987865833"><ele>436.0</ele><time>2026-05-03T08:52:24.972Z</time></trkpt><trkpt lat="45.92506040673347" lon="11.129676390314694"><ele>444.5</ele><time>2026-05-03T08:52:25.972Z</time></trkpt><trkpt lat="45.92501058415417" lon="11.129538082544464"><ele>453.0</ele><time>2026-05-03T08:52:26.972Z</time></trkpt><trkpt lat="45.92492506589962" lon="11.129378689563755"><ele>461.5</ele><time>2026-05-03T08:52:27.972Z</time></trkpt><trkpt lat="45.924889836602254" lon="11.12922500984798"><ele>470.0</ele><time>2026-05-03T08:52:28.972Z</time></trkpt><trkpt lat="45.92481788161448" lon="11.129096694979985"><ele>488.66666666666663</ele><time>2026-05-03T08:52:29.972Z</time></trkpt><trkpt lat="45.92472612310196" lon="11.12900513226502"><ele>507.33333333333337</ele><time>2026-05-03T08:52:30.972Z</time></trkpt><trkpt lat="45.92448870321551" lon="11.128952525041232"><ele>526.0</ele><time>2026-05-03T08:52:31.972Z</time></trkpt><trkpt lat="45.924318772895" lon="11.128889995735388"><ele>508.33333333333337</ele><time>2026-05-03T08:52:32.972Z</time></trkpt><trkpt lat="45.924093252755235" lon="11.128879372785542"><ele>490.66666666666663</ele><time>2026-05-03T08:52:33.972Z</time></trkpt><trkpt lat="45.92390808124196" lon="11.128901187736341"><ele>473.0</ele><time>2026-05-03T08:52:34.972Z</time></trkpt><trkpt lat="45.92376013797466" lon="11.128966610334272"><ele>473.0</ele><time>2026-05-03T08:52:35.972Z</time></trkpt><trkpt lat="45.923664143469665" lon="11.128966185540778"><ele>472.99999999999994</ele><time>2026-05-03T08:52:36.972Z</time></trkpt><trkpt lat="45.923575157049214" lon="11.128911999126586"><ele>472.99999999999994</ele><time>2026-05-03T08:52:37.972Z</time></trkpt><trkpt lat="45.92350681521288" lon="11.128795686978155"><ele>473.0</ele><time>2026-05-03T08:52:38.972Z</time></trkpt><trkpt lat="45.923497567822274" lon="11.128642307251276"><ele>473.0</ele><time>2026-05-03T08:52:39.972Z</time></trkpt><trkpt lat="45.92351160166101" lon="11.12846062844376"><ele>473.0</ele><time>2026-05-03T08:52:40.972Z</time></trkpt><trkpt lat="45.92343794095021" lon="11.128290302725302"><ele>473.0</ele><time>2026-05-03T08:52:41.972Z</time></trkpt><trkpt lat="45.92332742784249" lon="11.128117345066652"><ele>473.0</ele><time>2026-05-03T08:52:42.972Z</time></trkpt><trkpt lat="45.92319406902317" lon="11.127972347785143"><ele>461.5</ele><time>2026-05-03T08:52:43.972Z</time></trkpt><trkpt lat="45.92310228863349" lon="11.127846986512267"><ele>450.0</ele><time>2026-05-03T08:52:44.972Z</time></trkpt><trkpt lat="45.92310487737871" lon="11.127690638851552"><ele>438.5</ele><time>2026-05-03T08:52:45.972Z</time></trkpt><trkpt lat="45.923115491316146" lon="11.127496771169367"><ele>427.0</ele><time>2026-05-03T08:52:46.972Z</time></trkpt><trkpt lat="45.923109243144324" lon="11.127255248955567"><ele>427.0</ele><time>2026-05-03T08:52:47.972Z</time></trkpt><trkpt lat="45.92311413005718" lon="11.127017621384649"><ele>427.0</ele><time>2026-05-03T08:52:48.972Z</time></trkpt><trkpt lat="45.92314167794043" lon="11.126796341427998"><ele>427.0</ele><time>2026-05-03T08:52:49.971Z</time></trkpt><trkpt lat="45.923185775455" lon="11.126550295907453"><ele>427.5</ele><time>2026-05-03T08:52:50.971Z</time></trkpt><trkpt lat="45.923216713121704" lon="11.126352190028916"><ele>428.0</ele><time>2026-05-03T08:52:51.971Z</time></trkpt><trkpt lat="45.92317464715034" lon="11.126160408637856"><ele>428.5</ele><time>2026-05-03T08:52:52.971Z</time></trkpt><trkpt lat="45.92311001726808" lon="11.125972478192097"><ele>429.0</ele><time>2026-05-03T08:52:53.971Z</time></trkpt><trkpt lat="45.92302547278525" lon="11.12571233140064"><ele>426.25</ele><time>2026-05-03T08:52:54.971Z</time></trkpt><trkpt lat="45.9229758485211" lon="11.125515006176004"><ele>423.5</ele><time>2026-05-03T08:52:55.971Z</time></trkpt><trkpt lat="45.92294207553829" lon="11.12533840077639"><ele>420.75</ele><time>2026-05-03T08:52:56.971Z</time></trkpt><trkpt lat="45.92294389684112" lon="11.125169344777344"><ele>418.0</ele><time>2026-05-03T08:52:57.971Z</time></trkpt><trkpt lat="45.922996402616775" lon="11.12497806204364"><ele>409.75</ele><time>2026-05-03T08:52:58.971Z</time></trkpt><trkpt lat="45.92305345879423" lon="11.124744478244569"><ele>401.5</ele><time>2026-05-03T08:52:59.971Z</time></trkpt><trkpt lat="45.92311101542326" lon="11.124545824261558"><ele>393.25</ele><time>2026-05-03T08:53:00.971Z</time></trkpt><trkpt lat="45.923180579063484" lon="11.124398101967573"><ele>385.0</ele><time>2026-05-03T08:53:01.971Z</time></trkpt><trkpt lat="45.92330653965587" lon="11.124314082619765"><ele>392.0</ele><time>2026-05-03T08:53:02.971Z</time></trkpt><trkpt lat="45.92346851851571" lon="11.124178803142565"><ele>399.0</ele><time>2026-05-03T08:53:03.971Z</time></trkpt><trkpt lat="45.923605774280176" lon="11.124021652214932"><ele>406.0</ele><time>2026-05-03T08:53:04.971Z</time></trkpt><trkpt lat="45.923675080697116" lon="11.123807342196477"><ele>406.0</ele><time>2026-05-03T08:53:05.971Z</time></trkpt><trkpt lat="45.9237394955067" lon="11.12355072721137"><ele>406.0</ele><time>2026-05-03T08:53:06.971Z</time></trkpt><trkpt lat="45.92381766447043" lon="11.123286259114472"><ele>406.0</ele><time>2026-05-03T08:53:07.971Z</time></trkpt><trkpt lat="45.92388732877037" lon="11.123069289330848"><ele>400.25</ele><time>2026-05-03T08:53:08.971Z</time></trkpt><trkpt lat="45.92399075943148" lon="11.122889420912152"><ele>394.5</ele><time>2026-05-03T08:53:09.971Z</time></trkpt><trkpt lat="45.92405661590666" lon="11.12274480774737"><ele>388.75</ele><time>2026-05-03T08:53:10.971Z</time></trkpt><trkpt lat="45.9240898461899" lon="11.122610498399292"><ele>383.0</ele><time>2026-05-03T08:53:11.971Z</time></trkpt><trkpt lat="45.92407674321825" lon="11.122409645669345"><ele>376.5</ele><time>2026-05-03T08:53:12.971Z</time></trkpt><trkpt lat="45.92398578981856" lon="11.122207942804033"><ele>370.0</ele><time>2026-05-03T08:53:13.971Z</time></trkpt><trkpt lat="45.92395391092106" lon="11.122002646192055"><ele>363.5</ele><time>2026-05-03T08:53:14.971Z</time></trkpt><trkpt lat="45.9239694771313" lon="11.12185318357724"><ele>357.0</ele><time>2026-05-03T08:53:15.971Z</time></trkpt><trkpt lat="45.92402533364181" lon="11.12173308633467"><ele>357.0</ele><time>2026-05-03T08:53:16.971Z</time></trkpt><trkpt lat="45.92412386422851" lon="11.12159353215036"><ele>357.0</ele><time>2026-05-03T08:53:17.971Z</time></trkpt><trkpt lat="45.9242389401028" lon="11.12138804020906"><ele>357.0</ele><time>2026-05-03T08:53:18.971Z</time></trkpt><trkpt lat="45.9243401943694" lon="11.121203251761804"><ele>358.75</ele><time>2026-05-03T08:53:19.971Z</time></trkpt><trkpt lat="45.92442906164523" lon="11.121063001781229"><ele>360.5</ele><time>2026-05-03T08:53:20.971Z</time></trkpt><trkpt lat="45.924528647518166" lon="11.120946907772487"><ele>362.25</ele><time>2026-05-03T08:53:21.971Z</time></trkpt><trkpt lat="45.924672216690894" lon="11.120860881314785"><ele>364.0</ele><time>2026-05-03T08:53:22.971Z</time></trkpt><trkpt lat="45.92483892316499" lon="11.120770198349785"><ele>365.0</ele><time>2026-05-03T08:53:23.971Z</time></trkpt><trkpt lat="45.92500376268517" lon="11.120662651759199"><ele>366.0</ele><time>2026-05-03T08:53:24.971Z</time></trkpt><trkpt lat="45.9251433841532" lon="11.120528463759433"><ele>367.0</ele><time>2026-05-03T08:53:25.971Z</time></trkpt><trkpt lat="45.92524864928889" lon="11.120355024175456"><ele>367.0</ele><time>2026-05-03T08:53:26.971Z</time></trkpt><trkpt lat="45.92536478472428" lon="11.12018082680822"><ele>367.0</ele><time>2026-05-03T08:53:27.971Z</time></trkpt><trkpt lat="45.9255231997668" lon="11.120060873835511"><ele>367.0</ele><time>2026-05-03T08:53:28.971Z</time></trkpt><trkpt lat="45.92568291315054" lon="11.119926416297611"><ele>365.0</ele><time>2026-05-03T08:53:29.971Z</time></trkpt><trkpt lat="45.92586795965193" lon="11.119758235046646"><ele>363.0</ele><time>2026-05-03T08:53:30.971Z</time></trkpt><trkpt lat="45.92604106221368" lon="11.119611420212491"><ele>361.0</ele><time>2026-05-03T08:53:31.971Z</time></trkpt><trkpt lat="45.926214215917746" lon="11.119524063619405"><ele>361.0</ele><time>2026-05-03T08:53:32.971Z</time></trkpt><trkpt lat="45.9263710497687" lon="11.119446202588767"><ele>361.0</ele><time>2026-05-03T08:53:33.972Z</time></trkpt><trkpt lat="45.9265051238827" lon="11.119315335023018"><ele>361.0</ele><time>2026-05-03T08:53:34.972Z</time></trkpt><trkpt lat="45.92663452625585" lon="11.119151752844378"><ele>360.0</ele><time>2026-05-03T08:53:35.972Z</time></trkpt><trkpt lat="45.926778496464" lon="11.118981737010705"><ele>359.0</ele><time>2026-05-03T08:53:36.972Z</time></trkpt><trkpt lat="45.92690548903559" lon="11.1188093196546"><ele>358.0</ele><time>2026-05-03T08:53:37.972Z</time></trkpt><trkpt lat="45.927009201534815" lon="11.118641543964326"><ele>358.0</ele><time>2026-05-03T08:53:38.972Z</time></trkpt><trkpt lat="45.92713212078576" lon="11.11851139295767"><ele>358.0</ele><time>2026-05-03T08:53:39.972Z</time></trkpt><trkpt lat="45.92723830856572" lon="11.118374155848128"><ele>358.0</ele><time>2026-05-03T08:53:40.973Z</time></trkpt><trkpt lat="45.927322367172295" lon="11.118236479488274"><ele>358.0</ele><time>2026-05-03T08:53:41.973Z</time></trkpt><trkpt lat="45.92741832135973" lon="11.118159747851719"><ele>360.59999999999997</ele><time>2026-05-03T08:53:42.972Z</time></trkpt><trkpt lat="45.927529743043976" lon="11.11813686598908"><ele>363.2</ele><time>2026-05-03T08:53:43.972Z</time></trkpt><trkpt lat="45.92765744525245" lon="11.118172165279843"><ele>365.8</ele><time>2026-05-03T08:53:44.972Z</time></trkpt><trkpt lat="45.92775507409147" lon="11.11818754303775"><ele>368.4</ele><time>2026-05-03T08:53:45.972Z</time></trkpt><trkpt lat="45.927836159133506" lon="11.118145733945282"><ele>371.0</ele><time>2026-05-03T08:53:46.972Z</time></trkpt><trkpt lat="45.92788054466169" lon="11.118028358088509"><ele>371.0</ele><time>2026-05-03T08:53:47.972Z</time></trkpt><trkpt lat="45.9278895675595" lon="11.117867758308092"><ele>371.0</ele><time>2026-05-03T08:53:48.972Z</time></trkpt><trkpt lat="45.927878662051064" lon="11.117658400873283"><ele>371.0</ele><time>2026-05-03T08:53:49.972Z</time></trkpt><trkpt lat="45.927868998194086" lon="11.11742943981999"><ele>371.0</ele><time>2026-05-03T08:53:50.972Z</time></trkpt><trkpt lat="45.92790363041047" lon="11.11720366283543"><ele>367.5</ele><time>2026-05-03T08:53:51.972Z</time></trkpt><trkpt lat="45.92793303943226" lon="11.116982470114435"><ele>364.0</ele><time>2026-05-03T08:53:52.972Z</time></trkpt><trkpt lat="45.92798231512677" lon="11.116812262323872"><ele>360.5</ele><time>2026-05-03T08:53:53.972Z</time></trkpt><trkpt lat="45.92807679416504" lon="11.116680940034874"><ele>357.0</ele><time>2026-05-03T08:53:54.972Z</time></trkpt><trkpt lat="45.92819446863518" lon="11.116538209452814"><ele>362.0</ele><time>2026-05-03T08:53:55.972Z</time></trkpt><trkpt lat="45.92830070290775" lon="11.116324193429783"><ele>367.0</ele><time>2026-05-03T08:53:56.972Z</time></trkpt><trkpt lat="45.92838430467346" lon="11.11608691397096"><ele>372.0</ele><time>2026-05-03T08:53:57.972Z</time></trkpt><trkpt lat="45.92845914495257" lon="11.115855574947851"><ele>359.3333333333333</ele><time>2026-05-03T08:53:58.972Z</time></trkpt><trkpt lat="45.92853390467771" lon="11.115651378678413"><ele>346.66666666666663</ele><time>2026-05-03T08:53:59.972Z</time></trkpt><trkpt lat="45.92863175006674" lon="11.115484257995098"><ele>334.0</ele><time>2026-05-03T08:54:00.972Z</time></trkpt><trkpt lat="45.9287558299644" lon="11.115319318288583"><ele>334.0</ele><time>2026-05-03T08:54:01.972Z</time></trkpt><trkpt lat="45.92888561883831" lon="11.115142970388392"><ele>334.0</ele><time>2026-05-03T08:54:02.972Z</time></trkpt><trkpt lat="45.929004366011185" lon="11.115011079307907"><ele>334.0</ele><time>2026-05-03T08:54:03.972Z</time></trkpt><trkpt lat="45.92912387383676" lon="11.114924074375473"><ele>333.0</ele><time>2026-05-03T08:54:04.972Z</time></trkpt><trkpt lat="45.92926625747191" lon="11.11488730814708"><ele>332.0</ele><time>2026-05-03T08:54:05.972Z</time></trkpt><trkpt lat="45.92942178125603" lon="11.114830539701329"><ele>331.0</ele><time>2026-05-03T08:54:06.972Z</time></trkpt><trkpt lat="45.92955054385562" lon="11.11471366432393"><ele>331.0</ele><time>2026-05-03T08:54:07.972Z</time></trkpt><trkpt lat="45.929658087980535" lon="11.114539121982059"><ele>331.0</ele><time>2026-05-03T08:54:08.972Z</time></trkpt><trkpt lat="45.92976616116584" lon="11.114349463385611"><ele>331.0</ele><time>2026-05-03T08:54:09.972Z</time></trkpt><trkpt lat="45.929878576106596" lon="11.114188356799064"><ele>328.25</ele><time>2026-05-03T08:54:10.972Z</time></trkpt><trkpt lat="45.930000278406" lon="11.114067669932542"><ele>325.5</ele><time>2026-05-03T08:54:11.972Z</time></trkpt><trkpt lat="45.93009583224026" lon="11.113938218656779"><ele>322.75</ele><time>2026-05-03T08:54:12.972Z</time></trkpt><trkpt lat="45.93014979776858" lon="11.113790677721259"><ele>320.0</ele><time>2026-05-03T08:54:13.972Z</time></trkpt><trkpt lat="45.930126792242525" lon="11.113599126714607"><ele>317.5</ele><time>2026-05-03T08:54:14.972Z</time></trkpt><trkpt lat="45.930084496117345" lon="11.113404904152137"><ele>315.0</ele><time>2026-05-03T08:54:15.972Z</time></trkpt><trkpt lat="45.93002154610366" lon="11.11322659005624"><ele>312.5</ele><time>2026-05-03T08:54:16.972Z</time></trkpt><trkpt lat="45.92998575475634" lon="11.113086854192698"><ele>310.0</ele><time>2026-05-03T08:54:17.972Z</time></trkpt><trkpt lat="45.929999651529315" lon="11.112955463499434"><ele>324.66666666666663</ele><time>2026-05-03T08:54:18.972Z</time></trkpt><trkpt lat="45.93007297471364" lon="11.112770879600518"><ele>339.3333333333333</ele><time>2026-05-03T08:54:19.972Z</time></trkpt><trkpt lat="45.930150583219586" lon="11.112545168286013"><ele>354.0</ele><time>2026-05-03T08:54:20.972Z</time></trkpt><trkpt lat="45.93018922582938" lon="11.112293932657522"><ele>358.0</ele><time>2026-05-03T08:54:21.972Z</time></trkpt><trkpt lat="45.930193558984485" lon="11.112085122352756"><ele>362.0</ele><time>2026-05-03T08:54:22.972Z</time></trkpt><trkpt lat="45.93017482632258" lon="11.111879865597537"><ele>366.0</ele><time>2026-05-03T08:54:23.972Z</time></trkpt><trkpt lat="45.93005046339042" lon="11.111697016581662"><ele>358.5</ele><time>2026-05-03T08:54:24.972Z</time></trkpt><trkpt lat="45.929930967484935" lon="11.111549476389918"><ele>351.0</ele><time>2026-05-03T08:54:25.972Z</time></trkpt><trkpt lat="45.9298166615951" lon="11.11149539627238"><ele>343.5</ele><time>2026-05-03T08:54:26.972Z</time></trkpt><trkpt lat="45.92974229091725" lon="11.111360649413598"><ele>336.0</ele><time>2026-05-03T08:54:28.972Z</time></trkpt><trkpt lat="45.929698218361686" lon="11.111189431499419"><ele>336.0</ele><time>2026-05-03T08:54:29.972Z</time></trkpt><trkpt lat="45.92967288267897" lon="11.111075922447496"><ele>336.0</ele><time>2026-05-03T08:54:30.971Z</time></trkpt><trkpt lat="45.92967308051924" lon="11.110949853006241"><ele>336.0</ele><time>2026-05-03T08:54:31.971Z</time></trkpt><trkpt lat="45.92973117406299" lon="11.110822111349265"><ele>336.0</ele><time>2026-05-03T08:54:32.971Z</time></trkpt><trkpt lat="45.929780580335546" lon="11.110628599440204"><ele>336.0</ele><time>2026-05-03T08:54:33.971Z</time></trkpt><trkpt lat="45.929772849353164" lon="11.11041400110052"><ele>346.0</ele><time>2026-05-03T08:54:34.971Z</time></trkpt><trkpt lat="45.929655976439406" lon="11.110180095122626"><ele>356.0</ele><time>2026-05-03T08:54:35.971Z</time></trkpt><trkpt lat="45.92955419110937" lon="11.109935120454228"><ele>366.0</ele><time>2026-05-03T08:54:36.971Z</time></trkpt><trkpt lat="45.92951840630919" lon="11.109799128324912"><ele>354.0</ele><time>2026-05-03T08:54:38.971Z</time></trkpt><trkpt lat="45.92932790845179" lon="11.109360092970997"><ele>342.0</ele><time>2026-05-03T08:54:39.971Z</time></trkpt><trkpt lat="45.929188041629594" lon="11.109043291981562"><ele>342.0</ele><time>2026-05-03T08:54:40.971Z</time></trkpt><trkpt lat="45.92907004212936" lon="11.10878356987347"><ele>342.0</ele><time>2026-05-03T08:54:41.971Z</time></trkpt><trkpt lat="45.928942039318635" lon="11.108567355191663"><ele>342.0</ele><time>2026-05-03T08:54:42.971Z</time></trkpt><trkpt lat="45.92880719284657" lon="11.108393505556542"><ele>342.0</ele><time>2026-05-03T08:54:43.971Z</time></trkpt><trkpt lat="45.92869393613438" lon="11.108250398940186"><ele>342.0</ele><time>2026-05-03T08:54:44.971Z</time></trkpt><trkpt lat="45.92858817276618" lon="11.108122365080416"><ele>342.0</ele><time>2026-05-03T08:54:45.971Z</time></trkpt><trkpt lat="45.928517990941245" lon="11.108021649269034"><ele>342.0</ele><time>2026-05-03T08:54:46.971Z</time></trkpt><trkpt lat="45.92846409553225" lon="11.107899153302386"><ele>336.75</ele><time>2026-05-03T08:54:47.971Z</time></trkpt><trkpt lat="45.928509344345315" lon="11.107743347159104"><ele>331.5</ele><time>2026-05-03T08:54:48.971Z</time></trkpt><trkpt lat="45.928567271475856" lon="11.107552104391042"><ele>326.25</ele><time>2026-05-03T08:54:49.971Z</time></trkpt><trkpt lat="45.9286618669949" lon="11.107406259497623"><ele>321.0</ele><time>2026-05-03T08:54:50.971Z</time></trkpt><trkpt lat="45.92877906823059" lon="11.107213012677235"><ele>308.3333333333333</ele><time>2026-05-03T08:54:51.971Z</time></trkpt><trkpt lat="45.928872981712686" lon="11.106939537771966"><ele>295.66666666666663</ele><time>2026-05-03T08:54:52.971Z</time></trkpt><trkpt lat="45.92899600879753" lon="11.106678851071155"><ele>283.0</ele><time>2026-05-03T08:54:53.971Z</time></trkpt><trkpt lat="45.92910500067243" lon="11.106426175748355"><ele>287.3333333333333</ele><time>2026-05-03T08:54:54.971Z</time></trkpt><trkpt lat="45.92920110143528" lon="11.10621422981351"><ele>291.6666666666667</ele><time>2026-05-03T08:54:55.971Z</time></trkpt><trkpt lat="45.929321382562925" lon="11.106060521639867"><ele>296.0</ele><time>2026-05-03T08:54:56.971Z</time></trkpt><trkpt lat="45.929393225211975" lon="11.105892782052365"><ele>290.0</ele><time>2026-05-03T08:54:57.971Z</time></trkpt><trkpt lat="45.92942651701138" lon="11.105679877187775"><ele>284.0</ele><time>2026-05-03T08:54:58.971Z</time></trkpt><trkpt lat="45.92945531011784" lon="11.105415643739539"><ele>278.0</ele><time>2026-05-03T08:54:59.971Z</time></trkpt><trkpt lat="45.92946071145397" lon="11.105146534318083"><ele>278.0</ele><time>2026-05-03T08:55:00.971Z</time></trkpt><trkpt lat="45.92945167052443" lon="11.10496856260666"><ele>278.0</ele><time>2026-05-03T08:55:01.971Z</time></trkpt><trkpt lat="45.929379411737024" lon="11.104767996873203"><ele>278.0</ele><time>2026-05-03T08:55:02.971Z</time></trkpt><trkpt lat="45.92929964438936" lon="11.104570917667251"><ele>278.0</ele><time>2026-05-03T08:55:03.971Z</time></trkpt><trkpt lat="45.92927352876426" lon="11.104363322115162"><ele>272.6</ele><time>2026-05-03T08:55:04.971Z</time></trkpt><trkpt lat="45.929257754667624" lon="11.104186480350247"><ele>267.20000000000005</ele><time>2026-05-03T08:55:05.971Z</time></trkpt><trkpt lat="45.92926448833995" lon="11.104049618697125"><ele>261.8</ele><time>2026-05-03T08:55:06.971Z</time></trkpt><trkpt lat="45.929311484173894" lon="11.103938698742464"><ele>256.40000000000003</ele><time>2026-05-03T08:55:07.971Z</time></trkpt><trkpt lat="45.92940180253287" lon="11.10385564010003"><ele>251.0</ele><time>2026-05-03T08:55:08.971Z</time></trkpt><trkpt lat="45.929520035187764" lon="11.103886841210223"><ele>246.0</ele><time>2026-05-03T08:55:09.971Z</time></trkpt><trkpt lat="45.9296568023201" lon="11.10396029909088"><ele>241.0</ele><time>2026-05-03T08:55:10.971Z</time></trkpt><trkpt lat="45.929822053167584" lon="11.104009128015768"><ele>236.0</ele><time>2026-05-03T08:55:11.971Z</time></trkpt><trkpt lat="45.929923102850374" lon="11.104073694485734"><ele>231.0</ele><time>2026-05-03T08:55:12.971Z</time></trkpt><trkpt lat="45.93000161957965" lon="11.104067365676677"><ele>231.0</ele><time>2026-05-03T08:55:13.971Z</time></trkpt><trkpt lat="45.930061804385986" lon="11.10400905183678"><ele>231.00000000000003</ele><time>2026-05-03T08:55:14.971Z</time></trkpt><trkpt lat="45.93009593683995" lon="11.103883395503466"><ele>231.00000000000003</ele><time>2026-05-03T08:55:15.971Z</time></trkpt><trkpt lat="45.93006771901245" lon="11.103734620648863"><ele>231.0</ele><time>2026-05-03T08:55:16.971Z</time></trkpt><trkpt lat="45.929994690700035" lon="11.1036153828234"><ele>231.0</ele><time>2026-05-03T08:55:17.971Z</time></trkpt><trkpt lat="45.92987761419818" lon="11.103517128396387"><ele>231.0</ele><time>2026-05-03T08:55:18.971Z</time></trkpt><trkpt lat="45.92974120066323" lon="11.10344964047504"><ele>231.0</ele><time>2026-05-03T08:55:19.971Z</time></trkpt><trkpt lat="45.929656040644495" lon="11.103335292732687"><ele>231.0</ele><time>2026-05-03T08:55:20.971Z</time></trkpt><trkpt lat="45.92965819237913" lon="11.103132241959226"><ele>231.0</ele><time>2026-05-03T08:55:21.971Z</time></trkpt><trkpt lat="45.9296413595459" lon="11.10290661505437"><ele>230.0</ele><time>2026-05-03T08:55:22.971Z</time></trkpt><trkpt lat="45.929658515162146" lon="11.10269572486182"><ele>229.0</ele><time>2026-05-03T08:55:23.971Z</time></trkpt><trkpt lat="45.9296943106774" lon="11.10248304741886"><ele>228.0</ele><time>2026-05-03T08:55:24.971Z</time></trkpt><trkpt lat="45.92975400813648" lon="11.102294711182642"><ele>227.0</ele><time>2026-05-03T08:55:25.971Z</time></trkpt><trkpt lat="45.92985462267865" lon="11.102112184375631"><ele>226.0</ele><time>2026-05-03T08:55:26.971Z</time></trkpt><trkpt lat="45.929997236177556" lon="11.101977196522126"><ele>225.0</ele><time>2026-05-03T08:55:27.971Z</time></trkpt><trkpt lat="45.93017205368542" lon="11.101834844131046"><ele>224.0</ele><time>2026-05-03T08:55:28.971Z</time></trkpt><trkpt lat="45.930359085868126" lon="11.101682210957883"><ele>221.0</ele><time>2026-05-03T08:55:29.971Z</time></trkpt><trkpt lat="45.93052649089426" lon="11.101552489494436"><ele>218.0</ele><time>2026-05-03T08:55:30.971Z</time></trkpt><trkpt lat="45.930671756874936" lon="11.10141930124415"><ele>215.0</ele><time>2026-05-03T08:55:31.971Z</time></trkpt><trkpt lat="45.93081317445155" lon="11.101285268247276"><ele>214.66666666666669</ele><time>2026-05-03T08:55:32.971Z</time></trkpt><trkpt lat="45.930933594251435" lon="11.10112569827804"><ele>214.33333333333331</ele><time>2026-05-03T08:55:33.971Z</time></trkpt><trkpt lat="45.9310378550485" lon="11.100946221349755"><ele>214.0</ele><time>2026-05-03T08:55:34.971Z</time></trkpt><trkpt lat="45.93112984314278" lon="11.100725441507235"><ele>212.66666666666666</ele><time>2026-05-03T08:55:35.971Z</time></trkpt><trkpt lat="45.93120884142038" lon="11.100505879997963"><ele>211.33333333333331</ele><time>2026-05-03T08:55:36.971Z</time></trkpt><trkpt lat="45.931293926591295" lon="11.100294681001353"><ele>210.0</ele><time>2026-05-03T08:55:37.971Z</time></trkpt><trkpt lat="45.931374258109145" lon="11.10009434342887"><ele>208.33333333333331</ele><time>2026-05-03T08:55:38.971Z</time></trkpt><trkpt lat="45.93146004217099" lon="11.09990096768972"><ele>206.66666666666666</ele><time>2026-05-03T08:55:39.972Z</time></trkpt><trkpt lat="45.93153540950131" lon="11.099711688924467"><ele>205.0</ele><time>2026-05-03T08:55:40.972Z</time></trkpt><trkpt lat="45.9316130299916" lon="11.099520727595907"><ele>205.0</ele><time>2026-05-03T08:55:41.972Z</time></trkpt><trkpt lat="45.93168707839322" lon="11.099331254254082"><ele>205.0</ele><time>2026-05-03T08:55:42.972Z</time></trkpt><trkpt lat="45.93176588090976" lon="11.09915401402342"><ele>205.0</ele><time>2026-05-03T08:55:43.972Z</time></trkpt><trkpt lat="45.93184724773034" lon="11.098974883263637"><ele>205.0</ele><time>2026-05-03T08:55:44.972Z</time></trkpt><trkpt lat="45.93192722236066" lon="11.098779077892276"><ele>203.66666666666666</ele><time>2026-05-03T08:55:45.972Z</time></trkpt><trkpt lat="45.932008799872975" lon="11.098575413994906"><ele>202.33333333333331</ele><time>2026-05-03T08:55:46.972Z</time></trkpt><trkpt lat="45.93209998351699" lon="11.09836544564363"><ele>201.0</ele><time>2026-05-03T08:55:47.972Z</time></trkpt><trkpt lat="45.932200994479956" lon="11.098158923250875"><ele>199.33333333333331</ele><time>2026-05-03T08:55:48.972Z</time></trkpt><trkpt lat="45.93231456464844" lon="11.09795348358178"><ele>197.66666666666666</ele><time>2026-05-03T08:55:49.972Z</time></trkpt><trkpt lat="45.93243707815458" lon="11.097759524692252"><ele>196.0</ele><time>2026-05-03T08:55:50.972Z</time></trkpt><trkpt lat="45.93255360192223" lon="11.09756999701402"><ele>195.66666666666666</ele><time>2026-05-03T08:55:51.972Z</time></trkpt><trkpt lat="45.93266481516165" lon="11.097381580138968"><ele>195.33333333333331</ele><time>2026-05-03T08:55:52.972Z</time></trkpt><trkpt lat="45.93277067440404" lon="11.09719952095144"><ele>195.0</ele><time>2026-05-03T08:55:53.972Z</time></trkpt><trkpt lat="45.93289432843132" lon="11.09704450111387"><ele>195.0</ele><time>2026-05-03T08:55:54.972Z</time></trkpt><trkpt lat="45.932992352289936" lon="11.096881790212876"><ele>195.0</ele><time>2026-05-03T08:55:55.972Z</time></trkpt><trkpt lat="45.933079190808826" lon="11.096719764227014"><ele>195.0</ele><time>2026-05-03T08:55:56.972Z</time></trkpt><trkpt lat="45.933157850399674" lon="11.09657861573393"><ele>195.0</ele><time>2026-05-03T08:55:57.972Z</time></trkpt><trkpt lat="45.933221827737256" lon="11.096478886503336"><ele>194.5</ele><time>2026-05-03T08:55:58.972Z</time></trkpt><trkpt lat="45.9332816952041" lon="11.096391565810949"><ele>194.0</ele><time>2026-05-03T08:55:59.972Z</time></trkpt><trkpt lat="45.933337884451305" lon="11.096293707541216"><ele>193.5</ele><time>2026-05-03T08:56:00.972Z</time></trkpt><trkpt lat="45.93338791940088" lon="11.096211595613205"><ele>193.0</ele><time>2026-05-03T08:56:01.972Z</time></trkpt><trkpt lat="45.93343248544452" lon="11.09612926094648"><ele>192.5</ele><time>2026-05-03T08:56:02.972Z</time></trkpt><trkpt lat="45.93349904272464" lon="11.096019423671613"><ele>192.0</ele><time>2026-05-03T08:56:04.972Z</time></trkpt><trkpt lat="45.9335512070455" lon="11.0959377513525"><ele>192.0</ele><time>2026-05-03T08:56:30.972Z</time></trkpt><trkpt lat="45.93358170466816" lon="11.095834817479888"><ele>192.0</ele><time>2026-05-03T08:56:33.972Z</time></trkpt><trkpt lat="45.933517167663965" lon="11.095705453080559"><ele>192.0</ele><time>2026-05-03T08:56:36.973Z</time></trkpt><trkpt lat="45.933441790352745" lon="11.09566451811933"><ele>192.0</ele><time>2026-05-03T08:56:37.973Z</time></trkpt><trkpt lat="45.93334941146668" lon="11.095620942823196"><ele>192.0</ele><time>2026-05-03T08:56:38.973Z</time></trkpt><trkpt lat="45.933250559422234" lon="11.095567559681589"><ele>191.75</ele><time>2026-05-03T08:56:39.973Z</time></trkpt><trkpt lat="45.93315258747248" lon="11.095498388228101"><ele>191.5</ele><time>2026-05-03T08:56:40.973Z</time></trkpt><trkpt lat="45.933048470582" lon="11.09541085404455"><ele>191.25</ele><time>2026-05-03T08:56:41.973Z</time></trkpt><trkpt lat="45.932935663349454" lon="11.09531946300716"><ele>191.0</ele><time>2026-05-03T08:56:42.973Z</time></trkpt><trkpt lat="45.93281890435047" lon="11.095229447916342"><ele>191.0</ele><time>2026-05-03T08:56:43.973Z</time></trkpt><trkpt lat="45.93268487794179" lon="11.09512776162116"><ele>191.0</ele><time>2026-05-03T08:56:44.973Z</time></trkpt><trkpt lat="45.9325391100877" lon="11.095026824262789"><ele>191.0</ele><time>2026-05-03T08:56:45.973Z</time></trkpt><trkpt lat="45.93238925117125" lon="11.094917460287956"><ele>190.66666666666666</ele><time>2026-05-03T08:56:46.973Z</time></trkpt><trkpt lat="45.932235342292316" lon="11.094796407091827"><ele>190.33333333333334</ele><time>2026-05-03T08:56:47.973Z</time></trkpt><trkpt lat="45.93208357010389" lon="11.094673313342378"><ele>190.0</ele><time>2026-05-03T08:56:48.973Z</time></trkpt><trkpt lat="45.931932493741996" lon="11.094553452564899"><ele>190.0</ele><time>2026-05-03T08:56:49.973Z</time></trkpt><trkpt lat="45.93177620444344" lon="11.094435384539459"><ele>190.0</ele><time>2026-05-03T08:56:50.973Z</time></trkpt><trkpt lat="45.931631632146384" lon="11.094324972928248"><ele>190.0</ele><time>2026-05-03T08:56:51.973Z</time></trkpt><trkpt lat="45.93148997768182" lon="11.094218063677399"><ele>190.33333333333334</ele><time>2026-05-03T08:56:52.973Z</time></trkpt><trkpt lat="45.93134699846486" lon="11.094109068757092"><ele>190.66666666666666</ele><time>2026-05-03T08:56:53.973Z</time></trkpt><trkpt lat="45.93120382256423" lon="11.093996837462134"><ele>191.0</ele><time>2026-05-03T08:56:54.973Z</time></trkpt><trkpt lat="45.93105700669426" lon="11.093877164486726"><ele>191.66666666666666</ele><time>2026-05-03T08:56:55.973Z</time></trkpt><trkpt lat="45.93091253314646" lon="11.093762527426398"><ele>192.33333333333331</ele><time>2026-05-03T08:56:56.973Z</time></trkpt><trkpt lat="45.93076843274952" lon="11.09365337117312"><ele>193.0</ele><time>2026-05-03T08:56:57.973Z</time></trkpt><trkpt lat="45.93063021948168" lon="11.093544564777186"><ele>193.60000000000002</ele><time>2026-05-03T08:56:58.973Z</time></trkpt><trkpt lat="45.930515880290564" lon="11.093438609588599"><ele>194.20000000000002</ele><time>2026-05-03T08:56:59.973Z</time></trkpt><trkpt lat="45.93041424248952" lon="11.093362512791177"><ele>194.8</ele><time>2026-05-03T08:57:00.973Z</time></trkpt><trkpt lat="45.93033064548191" lon="11.093306399733663"><ele>195.4</ele><time>2026-05-03T08:57:01.973Z</time></trkpt><trkpt lat="45.93026662740163" lon="11.093262261687684"><ele>196.0</ele><time>2026-05-03T08:57:02.973Z</time></trkpt><trkpt lat="45.93024436894797" lon="11.093151577963198"><ele>196.0</ele><time>2026-05-03T08:57:04.973Z</time></trkpt><trkpt lat="45.93034766707464" lon="11.093061290256594"><ele>196.0</ele><time>2026-05-03T08:57:06.974Z</time></trkpt><trkpt lat="45.93042674378169" lon="11.093054181171514"><ele>196.0</ele><time>2026-05-03T08:57:07.974Z</time></trkpt><trkpt lat="45.930521842383925" lon="11.093126849572776"><ele>196.0</ele><time>2026-05-03T08:57:08.974Z</time></trkpt><trkpt lat="45.93061228866694" lon="11.0931129863071"><ele>196.0</ele><time>2026-05-03T08:57:09.974Z</time></trkpt><trkpt lat="45.93069742648911" lon="11.09314608099129"><ele>196.0</ele><time>2026-05-03T08:57:10.974Z</time></trkpt><trkpt lat="45.93078163420128" lon="11.093155384022959"><ele>196.0</ele><time>2026-05-03T08:57:11.974Z</time></trkpt><trkpt lat="45.930864565654936" lon="11.09316525099178"><ele>196.0</ele><time>2026-05-03T08:57:12.974Z</time></trkpt><trkpt lat="45.930956119231034" lon="11.093175324650543"><ele>196.0</ele><time>2026-05-03T08:57:13.974Z</time></trkpt><trkpt lat="45.931061409581844" lon="11.09318679016281"><ele>196.0</ele><time>2026-05-03T08:57:14.974Z</time></trkpt><trkpt lat="45.93117318861791" lon="11.093198962251629"><ele>195.4</ele><time>2026-05-03T08:57:15.974Z</time></trkpt><trkpt lat="45.931286910768236" lon="11.093217516556713"><ele>194.8</ele><time>2026-05-03T08:57:16.973Z</time></trkpt><trkpt lat="45.93139604881729" lon="11.093247023103183"><ele>194.20000000000002</ele><time>2026-05-03T08:57:17.973Z</time></trkpt><trkpt lat="45.93149465307403" lon="11.093284718182215"><ele>193.60000000000002</ele><time>2026-05-03T08:57:18.973Z</time></trkpt><trkpt lat="45.93157065820995" lon="11.093318046456059"><ele>193.0</ele><time>2026-05-03T08:57:19.973Z</time></trkpt><trkpt lat="45.931660655277874" lon="11.093353620867443"><ele>191.60000000000002</ele><time>2026-05-03T08:57:21.973Z</time></trkpt><trkpt lat="45.93172501041825" lon="11.093138167385368"><ele>190.20000000000002</ele><time>2026-05-03T08:57:23.973Z</time></trkpt><trkpt lat="45.9317344634364" lon="11.093015764048197"><ele>188.8</ele><time>2026-05-03T08:57:24.973Z</time></trkpt><trkpt lat="45.93174874257771" lon="11.092888845148092"><ele>187.4</ele><time>2026-05-03T08:57:25.973Z</time></trkpt><trkpt lat="45.93176382968479" lon="11.092767601919647"><ele>186.0</ele><time>2026-05-03T08:57:26.973Z</time></trkpt><trkpt lat="45.93177528316404" lon="11.092648843941381"><ele>186.0</ele><time>2026-05-03T08:57:27.973Z</time></trkpt><trkpt lat="45.93178270787399" lon="11.092535455711962"><ele>186.0</ele><time>2026-05-03T08:57:28.973Z</time></trkpt><trkpt lat="45.93180467427434" lon="11.0924142364916"><ele>186.0</ele><time>2026-05-03T08:57:29.973Z</time></trkpt><trkpt lat="45.93183075604942" lon="11.092282530567207"><ele>186.0</ele><time>2026-05-03T08:57:30.973Z</time></trkpt><trkpt lat="45.93186442526369" lon="11.092140202902382"><ele>186.0</ele><time>2026-05-03T08:57:31.973Z</time></trkpt><trkpt lat="45.93190074973403" lon="11.091981049279859"><ele>186.0</ele><time>2026-05-03T08:57:32.973Z</time></trkpt><trkpt lat="45.9319497292664" lon="11.091823243388891"><ele>186.0</ele><time>2026-05-03T08:57:33.973Z</time></trkpt><trkpt lat="45.93201085664935" lon="11.091660012360975"><ele>186.0</ele><time>2026-05-03T08:57:34.973Z</time></trkpt><trkpt lat="45.932100704479325" lon="11.091514321110258"><ele>186.0</ele><time>2026-05-03T08:57:35.973Z</time></trkpt><trkpt lat="45.93217848465748" lon="11.091370893994856"><ele>185.5</ele><time>2026-05-03T08:57:36.973Z</time></trkpt><trkpt lat="45.93226071283137" lon="11.09123212230464"><ele>185.0</ele><time>2026-05-03T08:57:37.973Z</time></trkpt><trkpt lat="45.932340192614966" lon="11.091089808399557"><ele>184.5</ele><time>2026-05-03T08:57:38.973Z</time></trkpt><trkpt lat="45.93242317788231" lon="11.090950144973904"><ele>184.0</ele><time>2026-05-03T08:57:39.973Z</time></trkpt><trkpt lat="45.9325143578932" lon="11.090822390282913"><ele>183.25</ele><time>2026-05-03T08:57:40.973Z</time></trkpt><trkpt lat="45.93261862462849" lon="11.09072666202906"><ele>182.5</ele><time>2026-05-03T08:57:41.973Z</time></trkpt><trkpt lat="45.93272197786056" lon="11.090649150760528"><ele>181.75</ele><time>2026-05-03T08:57:42.973Z</time></trkpt><trkpt lat="45.93282220910897" lon="11.090565135763127"><ele>181.0</ele><time>2026-05-03T08:57:43.973Z</time></trkpt><trkpt lat="45.93290187503644" lon="11.090438037039055"><ele>181.0</ele><time>2026-05-03T08:57:44.973Z</time></trkpt><trkpt lat="45.93295970180883" lon="11.090271034526765"><ele>181.0</ele><time>2026-05-03T08:57:45.974Z</time></trkpt><trkpt lat="45.93297828965397" lon="11.090077492181942"><ele>181.0</ele><time>2026-05-03T08:57:46.974Z</time></trkpt><trkpt lat="45.93294240139072" lon="11.089874350253634"><ele>181.0</ele><time>2026-05-03T08:57:47.974Z</time></trkpt><trkpt lat="45.932872729904865" lon="11.089682168084858"><ele>180.33333333333334</ele><time>2026-05-03T08:57:48.974Z</time></trkpt><trkpt lat="45.932763258481" lon="11.089561029346573"><ele>179.66666666666666</ele><time>2026-05-03T08:57:49.974Z</time></trkpt><trkpt lat="45.93261239231033" lon="11.089478900467395"><ele>179.0</ele><time>2026-05-03T08:57:50.974Z</time></trkpt><trkpt lat="45.93245627899553" lon="11.089418967978792"><ele>179.0</ele><time>2026-05-03T08:57:51.974Z</time></trkpt><trkpt lat="45.93230176237982" lon="11.089378004034984"><ele>179.0</ele><time>2026-05-03T08:57:52.974Z</time></trkpt><trkpt lat="45.93216356267112" lon="11.089320922367355"><ele>179.0</ele><time>2026-05-03T08:57:53.974Z</time></trkpt><trkpt lat="45.9320363221684" lon="11.08917177412216"><ele>178.66666666666666</ele><time>2026-05-03T08:57:54.974Z</time></trkpt><trkpt lat="45.93194097303013" lon="11.088992251415211"><ele>178.33333333333334</ele><time>2026-05-03T08:57:55.974Z</time></trkpt><trkpt lat="45.931884238986584" lon="11.088774916286255"><ele>178.0</ele><time>2026-05-03T08:57:56.974Z</time></trkpt><trkpt lat="45.93188188771482" lon="11.088525347948028"><ele>178.0</ele><time>2026-05-03T08:57:57.974Z</time></trkpt><trkpt lat="45.931898734397336" lon="11.08826817934145"><ele>178.0</ele><time>2026-05-03T08:57:58.974Z</time></trkpt><trkpt lat="45.931910890198196" lon="11.088022920300073"><ele>178.0</ele><time>2026-05-03T08:57:59.974Z</time></trkpt><trkpt lat="45.93192191551515" lon="11.087780490732786"><ele>178.0</ele><time>2026-05-03T08:58:00.974Z</time></trkpt><trkpt lat="45.93191815767439" lon="11.087560135200707"><ele>178.0</ele><time>2026-05-03T08:58:01.974Z</time></trkpt><trkpt lat="45.93190619870243" lon="11.087349717009518"><ele>178.0</ele><time>2026-05-03T08:58:02.974Z</time></trkpt><trkpt lat="45.93187596359766" lon="11.087127069614727"><ele>178.0</ele><time>2026-05-03T08:58:03.974Z</time></trkpt><trkpt lat="45.931842441161876" lon="11.08691836140557"><ele>178.0</ele><time>2026-05-03T08:58:04.974Z</time></trkpt><trkpt lat="45.93177726837865" lon="11.086708578695395"><ele>178.0</ele><time>2026-05-03T08:58:05.974Z</time></trkpt><trkpt lat="45.93168823563928" lon="11.086493683419565"><ele>178.0</ele><time>2026-05-03T08:58:06.974Z</time></trkpt><trkpt lat="45.931581284533884" lon="11.086285618832646"><ele>178.0</ele><time>2026-05-03T08:58:07.973Z</time></trkpt><trkpt lat="45.93145318459149" lon="11.08608293801773"><ele>178.0</ele><time>2026-05-03T08:58:08.973Z</time></trkpt><trkpt lat="45.93130646226655" lon="11.08591218731435"><ele>178.33333333333334</ele><time>2026-05-03T08:58:09.973Z</time></trkpt><trkpt lat="45.931162013486585" lon="11.085737566984951"><ele>178.66666666666666</ele><time>2026-05-03T08:58:10.973Z</time></trkpt><trkpt lat="45.93101082475144" lon="11.08558055689609"><ele>179.0</ele><time>2026-05-03T08:58:11.973Z</time></trkpt><trkpt lat="45.93085946528698" lon="11.085421384814062"><ele>179.0</ele><time>2026-05-03T08:58:12.973Z</time></trkpt><trkpt lat="45.930696102746985" lon="11.085276649468968"><ele>179.0</ele><time>2026-05-03T08:58:13.973Z</time></trkpt><trkpt lat="45.9305432410937" lon="11.085119944248998"><ele>179.0</ele><time>2026-05-03T08:58:14.973Z</time></trkpt><trkpt lat="45.93039752308588" lon="11.08496310932812"><ele>178.66666666666666</ele><time>2026-05-03T08:58:15.973Z</time></trkpt><trkpt lat="45.93025204517466" lon="11.084807581632887"><ele>178.33333333333334</ele><time>2026-05-03T08:58:16.973Z</time></trkpt><trkpt lat="45.93010301675067" lon="11.084653967568153"><ele>178.0</ele><time>2026-05-03T08:58:17.973Z</time></trkpt><trkpt lat="45.9299521020441" lon="11.084496933066822"><ele>177.33333333333334</ele><time>2026-05-03T08:58:18.973Z</time></trkpt><trkpt lat="45.92979809086161" lon="11.084334909861312"><ele>176.66666666666666</ele><time>2026-05-03T08:58:19.973Z</time></trkpt><trkpt lat="45.92963942692192" lon="11.084171028887596"><ele>176.0</ele><time>2026-05-03T08:58:20.973Z</time></trkpt><trkpt lat="45.92947557071019" lon="11.084004853209207"><ele>176.0</ele><time>2026-05-03T08:58:21.973Z</time></trkpt><trkpt lat="45.929319419307454" lon="11.083816451221368"><ele>176.0</ele><time>2026-05-03T08:58:22.973Z</time></trkpt><trkpt lat="45.92914866705989" lon="11.083639963166037"><ele>176.0</ele><time>2026-05-03T08:58:23.973Z</time></trkpt><trkpt lat="45.928977777483105" lon="11.08346370662767"><ele>176.0</ele><time>2026-05-03T08:58:24.973Z</time></trkpt><trkpt lat="45.92880772039169" lon="11.083288572609632"><ele>176.0</ele><time>2026-05-03T08:58:25.973Z</time></trkpt><trkpt lat="45.92863908325922" lon="11.083133453815556"><ele>176.0</ele><time>2026-05-03T08:58:26.973Z</time></trkpt><trkpt lat="45.92847923175513" lon="11.082965656604825"><ele>176.66666666666666</ele><time>2026-05-03T08:58:27.973Z</time></trkpt><trkpt lat="45.92831947403544" lon="11.082800812606612"><ele>177.33333333333334</ele><time>2026-05-03T08:58:28.973Z</time></trkpt><trkpt lat="45.92816248061804" lon="11.082635317582966"><ele>178.0</ele><time>2026-05-03T08:58:29.973Z</time></trkpt><trkpt lat="45.92800727596699" lon="11.082479040575787"><ele>178.0</ele><time>2026-05-03T08:58:30.973Z</time></trkpt><trkpt lat="45.92785762407731" lon="11.082327991472763"><ele>178.0</ele><time>2026-05-03T08:58:31.973Z</time></trkpt><trkpt lat="45.927727228589106" lon="11.082163477947507"><ele>178.0</ele><time>2026-05-03T08:58:32.973Z</time></trkpt><trkpt lat="45.92759307627088" lon="11.082023857576997"><ele>178.0</ele><time>2026-05-03T08:58:33.973Z</time></trkpt><trkpt lat="45.92745821181086" lon="11.081881866163867"><ele>178.0</ele><time>2026-05-03T08:58:34.973Z</time></trkpt><trkpt lat="45.9273220008239" lon="11.081741952980153"><ele>178.0</ele><time>2026-05-03T08:58:35.973Z</time></trkpt><trkpt lat="45.927186791827666" lon="11.081595731912937"><ele>177.66666666666669</ele><time>2026-05-03T08:58:36.973Z</time></trkpt><trkpt lat="45.927055428849414" lon="11.081442688278248"><ele>177.33333333333334</ele><time>2026-05-03T08:58:37.973Z</time></trkpt><trkpt lat="45.926928723548386" lon="11.081275928714136"><ele>177.0</ele><time>2026-05-03T08:58:38.973Z</time></trkpt><trkpt lat="45.92681056173677" lon="11.081100340332108"><ele>177.0</ele><time>2026-05-03T08:58:39.973Z</time></trkpt><trkpt lat="45.92670027551846" lon="11.080926329006443"><ele>177.0</ele><time>2026-05-03T08:58:40.973Z</time></trkpt><trkpt lat="45.92660472468687" lon="11.080742761564563"><ele>177.0</ele><time>2026-05-03T08:58:41.973Z</time></trkpt><trkpt lat="45.92653717945714" lon="11.08054266852351"><ele>177.0</ele><time>2026-05-03T08:58:42.973Z</time></trkpt><trkpt lat="45.92649948417879" lon="11.080332866561239"><ele>177.0</ele><time>2026-05-03T08:58:43.973Z</time></trkpt><trkpt lat="45.92648069822989" lon="11.080119263650092"><ele>177.0</ele><time>2026-05-03T08:58:44.973Z</time></trkpt><trkpt lat="45.926493993481024" lon="11.079898222471451"><ele>176.33333333333334</ele><time>2026-05-03T08:58:45.973Z</time></trkpt><trkpt lat="45.92654784596054" lon="11.079677074699111"><ele>175.66666666666669</ele><time>2026-05-03T08:58:46.973Z</time></trkpt><trkpt lat="45.92658879703471" lon="11.079437660743954"><ele>175.0</ele><time>2026-05-03T08:58:47.973Z</time></trkpt><trkpt lat="45.92665298167457" lon="11.079201287390624"><ele>175.33333333333334</ele><time>2026-05-03T08:58:48.973Z</time></trkpt><trkpt lat="45.92671110369158" lon="11.078951596068825"><ele>175.66666666666666</ele><time>2026-05-03T08:58:49.973Z</time></trkpt><trkpt lat="45.92676214070871" lon="11.078703282798733"><ele>176.0</ele><time>2026-05-03T08:58:50.973Z</time></trkpt><trkpt lat="45.926830191541036" lon="11.078469599798964"><ele>178.0</ele><time>2026-05-03T08:58:51.973Z</time></trkpt><trkpt lat="45.926884439853275" lon="11.07823903027229"><ele>180.0</ele><time>2026-05-03T08:58:52.973Z</time></trkpt><trkpt lat="45.92693840546208" lon="11.07801226451152"><ele>182.0</ele><time>2026-05-03T08:58:53.973Z</time></trkpt><trkpt lat="45.92699352203" lon="11.077786554533251"><ele>182.0</ele><time>2026-05-03T08:58:54.973Z</time></trkpt><trkpt lat="45.927051445251294" lon="11.077568990654349"><ele>182.0</ele><time>2026-05-03T08:58:55.973Z</time></trkpt><trkpt lat="45.92710036283324" lon="11.077340166571783"><ele>182.0</ele><time>2026-05-03T08:58:56.973Z</time></trkpt><trkpt lat="45.92718464951302" lon="11.077111689330591"><ele>181.0</ele><time>2026-05-03T08:58:57.973Z</time></trkpt><trkpt lat="45.927250266479874" lon="11.076887238364968"><ele>180.0</ele><time>2026-05-03T08:58:58.973Z</time></trkpt><trkpt lat="45.92731421901208" lon="11.076671304726952"><ele>179.0</ele><time>2026-05-03T08:58:59.973Z</time></trkpt><trkpt lat="45.92737481598188" lon="11.076466112338537"><ele>179.0</ele><time>2026-05-03T08:59:00.973Z</time></trkpt><trkpt lat="45.92743131167487" lon="11.07627832853316"><ele>179.0</ele><time>2026-05-03T08:59:01.973Z</time></trkpt><trkpt lat="45.92748731534323" lon="11.07609574429672"><ele>179.0</ele><time>2026-05-03T08:59:02.973Z</time></trkpt><trkpt lat="45.92754260399031" lon="11.07591774175978"><ele>179.0</ele><time>2026-05-03T08:59:03.973Z</time></trkpt><trkpt lat="45.92759088744007" lon="11.075756147337264"><ele>178.79999999999998</ele><time>2026-05-03T08:59:04.973Z</time></trkpt><trkpt lat="45.927674544131435" lon="11.075635163336113"><ele>178.6</ele><time>2026-05-03T08:59:05.973Z</time></trkpt><trkpt lat="45.92776089578596" lon="11.0755522153112"><ele>178.4</ele><time>2026-05-03T08:59:06.973Z</time></trkpt><trkpt lat="45.92784463503229" lon="11.075500264979642"><ele>178.2</ele><time>2026-05-03T08:59:07.973Z</time></trkpt><trkpt lat="45.92792024050748" lon="11.075484429910244"><ele>178.0</ele><time>2026-05-03T08:59:08.973Z</time></trkpt><trkpt lat="45.9279970437858" lon="11.075532286242273"><ele>178.0</ele><time>2026-05-03T08:59:09.973Z</time></trkpt><trkpt lat="45.92808145697416" lon="11.075553097368747"><ele>178.0</ele><time>2026-05-03T08:59:11.973Z</time></trkpt><trkpt lat="45.928050631121316" lon="11.075729314938735"><ele>178.0</ele><time>2026-05-03T08:59:12.973Z</time></trkpt><trkpt lat="45.92802628507313" lon="11.075855289985883"><ele>178.0</ele><time>2026-05-03T08:59:14.973Z</time></trkpt><trkpt lat="45.928010915303815" lon="11.075974238543386"><ele>178.0</ele><time>2026-05-03T08:59:16.973Z</time></trkpt><trkpt lat="45.92798960938077" lon="11.076086668681414"><ele>178.2</ele><time>2026-05-03T08:59:17.973Z</time></trkpt><trkpt lat="45.92795553915279" lon="11.076225684953938"><ele>178.4</ele><time>2026-05-03T08:59:18.973Z</time></trkpt><trkpt lat="45.92792737806923" lon="11.07637985494868"><ele>178.6</ele><time>2026-05-03T08:59:19.973Z</time></trkpt><trkpt lat="45.92789977562019" lon="11.076541169415195"><ele>178.79999999999998</ele><time>2026-05-03T08:59:20.973Z</time></trkpt><trkpt lat="45.92787474233548" lon="11.076701457744585"><ele>179.0</ele><time>2026-05-03T08:59:21.973Z</time></trkpt><trkpt lat="45.92785780651029" lon="11.076863909750555"><ele>179.6</ele><time>2026-05-03T08:59:22.973Z</time></trkpt><trkpt lat="45.92782621285245" lon="11.077019646787676"><ele>180.2</ele><time>2026-05-03T08:59:23.973Z</time></trkpt><trkpt lat="45.92781343267298" lon="11.07717717726163"><ele>180.79999999999998</ele><time>2026-05-03T08:59:24.973Z</time></trkpt><trkpt lat="45.9278070724057" lon="11.07731773606062"><ele>181.39999999999998</ele><time>2026-05-03T08:59:25.973Z</time></trkpt><trkpt lat="45.92780663901458" lon="11.07745245317753"><ele>182.0</ele><time>2026-05-03T08:59:26.973Z</time></trkpt><trkpt lat="45.92780916655965" lon="11.077568841277536"><ele>183.16666666666666</ele><time>2026-05-03T08:59:27.973Z</time></trkpt><trkpt lat="45.9278129014298" lon="11.07766185722527"><ele>184.33333333333331</ele><time>2026-05-03T08:59:28.973Z</time></trkpt><trkpt lat="45.92781899261157" lon="11.077794193899233"><ele>185.5</ele><time>2026-05-03T08:59:30.973Z</time></trkpt><trkpt lat="45.927824476685664" lon="11.077900442724337"><ele>186.66666666666666</ele><time>2026-05-03T08:59:32.973Z</time></trkpt><trkpt lat="45.927829949034994" lon="11.078006464427146"><ele>187.83333333333334</ele><time>2026-05-03T08:59:35.973Z</time></trkpt><trkpt lat="45.92783596965248" lon="11.078123108159101"><ele>189.0</ele><time>2026-05-03T09:00:44.972Z</time></trkpt><trkpt lat="45.927851973092565" lon="11.078274568291878"><ele>189.0</ele><time>2026-05-03T09:00:46.972Z</time></trkpt><trkpt lat="45.927829673755" lon="11.078396300912436"><ele>189.0</ele><time>2026-05-03T09:00:48.972Z</time></trkpt><trkpt lat="45.92776254536038" lon="11.078447141755268"><ele>189.0</ele><time>2026-05-03T09:00:50.972Z</time></trkpt><trkpt lat="45.92769408803537" lon="11.078365387822092"><ele>189.0</ele><time>2026-05-03T09:00:52.972Z</time></trkpt><trkpt lat="45.92765617251645" lon="11.078277017895326"><ele>189.0</ele><time>2026-05-03T09:00:53.972Z</time></trkpt><trkpt lat="45.92761898951363" lon="11.078172181897324"><ele>189.0</ele><time>2026-05-03T09:00:54.972Z</time></trkpt><trkpt lat="45.927583657929986" lon="11.078066033429769"><ele>187.25</ele><time>2026-05-03T09:00:55.972Z</time></trkpt><trkpt lat="45.92754541053972" lon="11.077942786446465"><ele>185.5</ele><time>2026-05-03T09:00:56.972Z</time></trkpt><trkpt lat="45.92750575653887" lon="11.077802052656768"><ele>183.75</ele><time>2026-05-03T09:00:57.972Z</time></trkpt><trkpt lat="45.92745718163185" lon="11.07764236026065"><ele>182.0</ele><time>2026-05-03T09:00:58.972Z</time></trkpt><trkpt lat="45.927408660831475" lon="11.077463498530781"><ele>181.0</ele><time>2026-05-03T09:00:59.972Z</time></trkpt><trkpt lat="45.927354284262435" lon="11.077265989829556"><ele>180.0</ele><time>2026-05-03T09:01:00.972Z</time></trkpt><trkpt lat="45.92730178945056" lon="11.077048116841327"><ele>179.0</ele><time>2026-05-03T09:01:01.972Z</time></trkpt><trkpt lat="45.927247489890476" lon="11.076815794883395"><ele>179.0</ele><time>2026-05-03T09:01:02.972Z</time></trkpt><trkpt lat="45.927191872636406" lon="11.076568812731297"><ele>179.0</ele><time>2026-05-03T09:01:03.972Z</time></trkpt><trkpt lat="45.92714172446927" lon="11.076318624349907"><ele>179.0</ele><time>2026-05-03T09:01:04.972Z</time></trkpt><trkpt lat="45.92709515128316" lon="11.07606223280121"><ele>179.0</ele><time>2026-05-03T09:01:05.972Z</time></trkpt><trkpt lat="45.927057064867526" lon="11.075806501753236"><ele>179.0</ele><time>2026-05-03T09:01:06.972Z</time></trkpt><trkpt lat="45.927023108158515" lon="11.075545997361843"><ele>179.0</ele><time>2026-05-03T09:01:07.972Z</time></trkpt><trkpt lat="45.926989867031" lon="11.075279082208626"><ele>178.33333333333331</ele><time>2026-05-03T09:01:08.972Z</time></trkpt><trkpt lat="45.92696779737553" lon="11.07501120446338"><ele>177.66666666666666</ele><time>2026-05-03T09:01:09.972Z</time></trkpt><trkpt lat="45.926970696691036" lon="11.074735786691205"><ele>177.0</ele><time>2026-05-03T09:01:10.972Z</time></trkpt><trkpt lat="45.926960964100815" lon="11.074462837378572"><ele>177.0</ele><time>2026-05-03T09:01:11.972Z</time></trkpt><trkpt lat="45.92693682272837" lon="11.074192177682388"><ele>177.0</ele><time>2026-05-03T09:01:12.972Z</time></trkpt><trkpt lat="45.926935147277135" lon="11.073919584688618"><ele>177.0</ele><time>2026-05-03T09:01:13.972Z</time></trkpt><trkpt lat="45.92694955708595" lon="11.07364593536739"><ele>176.66666666666666</ele><time>2026-05-03T09:01:14.972Z</time></trkpt><trkpt lat="45.92695455316866" lon="11.073374965643985"><ele>176.33333333333331</ele><time>2026-05-03T09:01:15.972Z</time></trkpt><trkpt lat="45.9269616486827" lon="11.073101239915106"><ele>176.0</ele><time>2026-05-03T09:01:16.972Z</time></trkpt><trkpt lat="45.926955240431035" lon="11.072817610279571"><ele>176.0</ele><time>2026-05-03T09:01:17.972Z</time></trkpt><trkpt lat="45.926969300846615" lon="11.0725328225622"><ele>176.0</ele><time>2026-05-03T09:01:18.972Z</time></trkpt><trkpt lat="45.92700798113577" lon="11.072249586358817"><ele>176.0</ele><time>2026-05-03T09:01:19.972Z</time></trkpt><trkpt lat="45.92703366806541" lon="11.071969451296034"><ele>175.66666666666666</ele><time>2026-05-03T09:01:20.972Z</time></trkpt><trkpt lat="45.9270628042435" lon="11.071685900214847"><ele>175.33333333333334</ele><time>2026-05-03T09:01:21.972Z</time></trkpt><trkpt lat="45.92709652032317" lon="11.071400006583408"><ele>175.0</ele><time>2026-05-03T09:01:22.972Z</time></trkpt><trkpt lat="45.92713816865109" lon="11.071115385871"><ele>175.33333333333334</ele><time>2026-05-03T09:01:23.972Z</time></trkpt><trkpt lat="45.92718428399659" lon="11.070831818969522"><ele>175.66666666666666</ele><time>2026-05-03T09:01:24.972Z</time></trkpt><trkpt lat="45.92723397487594" lon="11.070543795385108"><ele>176.0</ele><time>2026-05-03T09:01:25.972Z</time></trkpt><trkpt lat="45.927289096827586" lon="11.07025676833159"><ele>176.0</ele><time>2026-05-03T09:01:26.972Z</time></trkpt><trkpt lat="45.92734976877301" lon="11.069971230226555"><ele>176.0</ele><time>2026-05-03T09:01:27.972Z</time></trkpt><trkpt lat="45.92741212848595" lon="11.069686399437316"><ele>176.0</ele><time>2026-05-03T09:01:28.972Z</time></trkpt><trkpt lat="45.927475123860475" lon="11.06939980283539"><ele>176.0</ele><time>2026-05-03T09:01:29.972Z</time></trkpt><trkpt lat="45.92753677156326" lon="11.069117862485879"><ele>176.0</ele><time>2026-05-03T09:01:30.972Z</time></trkpt><trkpt lat="45.927598249984655" lon="11.06883275683006"><ele>176.0</ele><time>2026-05-03T09:01:31.972Z</time></trkpt><trkpt lat="45.9276599289882" lon="11.068547264865895"><ele>177.0</ele><time>2026-05-03T09:01:32.972Z</time></trkpt><trkpt lat="45.92769785839049" lon="11.068247514688936"><ele>178.0</ele><time>2026-05-03T09:01:33.972Z</time></trkpt><trkpt lat="45.92776382108686" lon="11.067962152581629"><ele>179.0</ele><time>2026-05-03T09:01:34.972Z</time></trkpt><trkpt lat="45.927829987295134" lon="11.067670741951707"><ele>178.66666666666666</ele><time>2026-05-03T09:01:35.972Z</time></trkpt><trkpt lat="45.92789359585106" lon="11.067376277167197"><ele>178.33333333333334</ele><time>2026-05-03T09:01:36.972Z</time></trkpt><trkpt lat="45.927978178311356" lon="11.067083579539824"><ele>178.0</ele><time>2026-05-03T09:01:37.972Z</time></trkpt><trkpt lat="45.92804516336143" lon="11.066775082578479"><ele>177.0</ele><time>2026-05-03T09:01:38.972Z</time></trkpt><trkpt lat="45.92811223848301" lon="11.066463312399323"><ele>176.0</ele><time>2026-05-03T09:01:39.972Z</time></trkpt><trkpt lat="45.92817310470876" lon="11.066150722696568"><ele>176.0</ele><time>2026-05-03T09:01:40.972Z</time></trkpt><trkpt lat="45.92822577942771" lon="11.065837448125581"><ele>176.0</ele><time>2026-05-03T09:01:41.972Z</time></trkpt><trkpt lat="45.92827352451266" lon="11.065523337131244"><ele>176.0</ele><time>2026-05-03T09:01:42.972Z</time></trkpt><trkpt lat="45.928313031822995" lon="11.065214246536762"><ele>176.66666666666666</ele><time>2026-05-03T09:01:43.972Z</time></trkpt><trkpt lat="45.92834441400413" lon="11.064917900612263"><ele>177.33333333333334</ele><time>2026-05-03T09:01:44.972Z</time></trkpt><trkpt lat="45.92836693553177" lon="11.064637615893217"><ele>178.0</ele><time>2026-05-03T09:01:45.972Z</time></trkpt><trkpt lat="45.92838606433021" lon="11.064368126928953"><ele>179.33333333333334</ele><time>2026-05-03T09:01:46.972Z</time></trkpt><trkpt lat="45.9283996533749" lon="11.064110507359644"><ele>180.66666666666666</ele><time>2026-05-03T09:01:47.972Z</time></trkpt><trkpt lat="45.928406532886825" lon="11.063866852746003"><ele>182.0</ele><time>2026-05-03T09:01:48.972Z</time></trkpt><trkpt lat="45.928411095943886" lon="11.063637342517465"><ele>182.0</ele><time>2026-05-03T09:01:49.972Z</time></trkpt><trkpt lat="45.928410228900105" lon="11.063422951776857"><ele>182.0</ele><time>2026-05-03T09:01:50.972Z</time></trkpt><trkpt lat="45.92840723022215" lon="11.063209883860504"><ele>182.0</ele><time>2026-05-03T09:01:51.972Z</time></trkpt><trkpt lat="45.928396607027864" lon="11.062985837960309"><ele>180.33333333333331</ele><time>2026-05-03T09:01:52.972Z</time></trkpt><trkpt lat="45.928391061941305" lon="11.06275595087178"><ele>178.66666666666666</ele><time>2026-05-03T09:01:53.972Z</time></trkpt><trkpt lat="45.92839241043296" lon="11.062526078583577"><ele>177.0</ele><time>2026-05-03T09:01:54.972Z</time></trkpt><trkpt lat="45.92838754782601" lon="11.062289156478249"><ele>177.0</ele><time>2026-05-03T09:01:55.972Z</time></trkpt><trkpt lat="45.92836915676249" lon="11.062063698438857"><ele>177.0</ele><time>2026-05-03T09:01:56.972Z</time></trkpt><trkpt lat="45.92834760493486" lon="11.061851634828265"><ele>177.0</ele><time>2026-05-03T09:01:57.973Z</time></trkpt><trkpt lat="45.9283230734209" lon="11.061643810989318"><ele>178.0</ele><time>2026-05-03T09:01:58.973Z</time></trkpt><trkpt lat="45.92829206697409" lon="11.061438762063089"><ele>179.0</ele><time>2026-05-03T09:01:59.973Z</time></trkpt><trkpt lat="45.928258179556806" lon="11.061242786890897"><ele>180.0</ele><time>2026-05-03T09:02:00.974Z</time></trkpt><trkpt lat="45.928226373124495" lon="11.061067232441715"><ele>181.0</ele><time>2026-05-03T09:02:01.974Z</time></trkpt><trkpt lat="45.92819992607174" lon="11.060924097040994"><ele>181.0</ele><time>2026-05-03T09:02:02.974Z</time></trkpt><trkpt lat="45.92818053221028" lon="11.060805528781382"><ele>181.0</ele><time>2026-05-03T09:02:03.974Z</time></trkpt><trkpt lat="45.92816553244297" lon="11.06070932497607"><ele>181.0</ele><time>2026-05-03T09:02:04.974Z</time></trkpt><trkpt lat="45.92815867300152" lon="11.060615022787125"><ele>181.0</ele><time>2026-05-03T09:02:05.974Z</time></trkpt><trkpt lat="45.92815588007857" lon="11.060518484716257"><ele>181.0</ele><time>2026-05-03T09:02:06.973Z</time></trkpt><trkpt lat="45.92816833356066" lon="11.060428289683703"><ele>181.0</ele><time>2026-05-03T09:02:07.973Z</time></trkpt><trkpt lat="45.92820357890975" lon="11.060334031986505"><ele>181.0</ele><time>2026-05-03T09:02:08.973Z</time></trkpt><trkpt lat="45.9282566993448" lon="11.060248945528814"><ele>184.0</ele><time>2026-05-03T09:02:09.973Z</time></trkpt><trkpt lat="45.928294413543874" lon="11.060136162630943"><ele>187.0</ele><time>2026-05-03T09:02:10.974Z</time></trkpt><trkpt lat="45.92829198050381" lon="11.060012753286847"><ele>190.0</ele><time>2026-05-03T09:02:11.974Z</time></trkpt><trkpt lat="45.92826146553593" lon="11.059889308070968"><ele>193.0</ele><time>2026-05-03T09:02:12.974Z</time></trkpt><trkpt lat="45.92820239146634" lon="11.059755340402376"><ele>196.0</ele><time>2026-05-03T09:02:13.974Z</time></trkpt><trkpt lat="45.928128561304945" lon="11.059627960751515"><ele>201.75</ele><time>2026-05-03T09:02:14.974Z</time></trkpt><trkpt lat="45.92805115484588" lon="11.059487285996173"><ele>207.5</ele><time>2026-05-03T09:02:15.974Z</time></trkpt><trkpt lat="45.927970768012855" lon="11.059336744018216"><ele>213.25</ele><time>2026-05-03T09:02:16.974Z</time></trkpt><trkpt lat="45.92788316953475" lon="11.059175507125792"><ele>219.0</ele><time>2026-05-03T09:02:17.974Z</time></trkpt><trkpt lat="45.927793005560915" lon="11.058998594038105"><ele>211.66666666666669</ele><time>2026-05-03T09:02:18.974Z</time></trkpt><trkpt lat="45.92770434679459" lon="11.058804162188219"><ele>204.33333333333334</ele><time>2026-05-03T09:02:19.974Z</time></trkpt><trkpt lat="45.927619909689355" lon="11.05860788478431"><ele>197.0</ele><time>2026-05-03T09:02:20.974Z</time></trkpt><trkpt lat="45.927533252896666" lon="11.058403760382777"><ele>205.0</ele><time>2026-05-03T09:02:21.974Z</time></trkpt><trkpt lat="45.92744415779371" lon="11.058179582615779"><ele>213.0</ele><time>2026-05-03T09:02:22.973Z</time></trkpt><trkpt lat="45.92736054705602" lon="11.057932660895197"><ele>221.0</ele><time>2026-05-03T09:02:23.973Z</time></trkpt><trkpt lat="45.927287593160194" lon="11.057677179300965"><ele>230.0</ele><time>2026-05-03T09:02:24.973Z</time></trkpt><trkpt lat="45.92722296999393" lon="11.057400536221106"><ele>239.0</ele><time>2026-05-03T09:02:25.973Z</time></trkpt><trkpt lat="45.927155402724395" lon="11.057106334834298"><ele>248.0</ele><time>2026-05-03T09:02:26.973Z</time></trkpt><trkpt lat="45.92708083249228" lon="11.056786117191981"><ele>250.0</ele><time>2026-05-03T09:02:27.973Z</time></trkpt><trkpt lat="45.92700999117847" lon="11.056446153620811"><ele>252.0</ele><time>2026-05-03T09:02:28.973Z</time></trkpt><trkpt lat="45.926948192672114" lon="11.056096199967493"><ele>260.0</ele><time>2026-05-03T09:02:29.973Z</time></trkpt><trkpt lat="45.92689540236377" lon="11.055739140965736"><ele>268.0</ele><time>2026-05-03T09:02:30.973Z</time></trkpt><trkpt lat="45.926821277547035" lon="11.055307900122182"><ele>278.5</ele><time>2026-05-03T09:02:32.111Z</time></trkpt><trkpt lat="45.92675711137445" lon="11.05490606243037"><ele>289.0</ele><time>2026-05-03T09:02:33.113Z</time></trkpt><trkpt lat="45.92671133035193" lon="11.054518193735227"><ele>216.0</ele><time>2026-05-03T09:02:34.113Z</time></trkpt><trkpt lat="45.92560624639761" lon="11.051339333751137"><ele>183.0</ele><time>2026-05-03T09:02:46.152Z</time></trkpt><trkpt lat="45.92469956115159" lon="11.05079328614238"><ele>185.5</ele><time>2026-05-03T09:02:48.973Z</time></trkpt><trkpt lat="45.92437836741197" lon="11.050483249456601"><ele>188.0</ele><time>2026-05-03T09:02:49.973Z</time></trkpt><trkpt lat="45.924296951071234" lon="11.050295733503457"><ele>186.0</ele><time>2026-05-03T09:02:50.973Z</time></trkpt><trkpt lat="45.924211758331666" lon="11.050050299007745"><ele>184.0</ele><time>2026-05-03T09:02:51.973Z</time></trkpt><trkpt lat="45.92409655493646" lon="11.049791811477764"><ele>182.0</ele><time>2026-05-03T09:02:52.973Z</time></trkpt><trkpt lat="45.923967824801" lon="11.049515725269991"><ele>182.0</ele><time>2026-05-03T09:02:53.973Z</time></trkpt><trkpt lat="45.92383740653916" lon="11.049223178492078"><ele>182.0</ele><time>2026-05-03T09:02:54.973Z</time></trkpt><trkpt lat="45.92372981054162" lon="11.04893428081823"><ele>182.0</ele><time>2026-05-03T09:02:55.973Z</time></trkpt><trkpt lat="45.92367106656812" lon="11.048620712892882"><ele>182.0</ele><time>2026-05-03T09:02:56.973Z</time></trkpt><trkpt lat="45.923589910921386" lon="11.04832338697992"><ele>182.0</ele><time>2026-05-03T09:02:57.973Z</time></trkpt><trkpt lat="45.92353092412226" lon="11.048016598469156"><ele>182.0</ele><time>2026-05-03T09:02:58.973Z</time></trkpt><trkpt lat="45.92349427296614" lon="11.0477256081845"><ele>182.0</ele><time>2026-05-03T09:02:59.973Z</time></trkpt><trkpt lat="45.92348186539636" lon="11.047436982114995"><ele>182.0</ele><time>2026-05-03T09:03:00.973Z</time></trkpt><trkpt lat="45.92348081344131" lon="11.047147795174563"><ele>181.5</ele><time>2026-05-03T09:03:01.973Z</time></trkpt><trkpt lat="45.92349179304026" lon="11.046891754707211"><ele>181.0</ele><time>2026-05-03T09:03:02.973Z</time></trkpt><trkpt lat="45.92355552178081" lon="11.046697005775924"><ele>180.5</ele><time>2026-05-03T09:03:03.973Z</time></trkpt><trkpt lat="45.92361297640357" lon="11.046564603073417"><ele>180.0</ele><time>2026-05-03T09:03:04.973Z</time></trkpt><trkpt lat="45.92366500287965" lon="11.04643783380246"><ele>179.5</ele><time>2026-05-03T09:03:05.973Z</time></trkpt><trkpt lat="45.923732383695445" lon="11.04634402548616"><ele>179.0</ele><time>2026-05-03T09:03:06.973Z</time></trkpt><trkpt lat="45.92380480003664" lon="11.046289003638043"><ele>178.5</ele><time>2026-05-03T09:03:07.973Z</time></trkpt><trkpt lat="45.923897540834275" lon="11.046256700945792"><ele>178.0</ele><time>2026-05-03T09:03:08.973Z</time></trkpt><trkpt lat="45.923973398290435" lon="11.04621981931382"><ele>177.5</ele><time>2026-05-03T09:03:09.973Z</time></trkpt><trkpt lat="45.92402248970643" lon="11.046125591802413"><ele>177.0</ele><time>2026-05-03T09:03:10.973Z</time></trkpt><trkpt lat="45.92403433051081" lon="11.045990089293417"><ele>177.0</ele><time>2026-05-03T09:03:11.973Z</time></trkpt><trkpt lat="45.92398634476927" lon="11.045853847474314"><ele>177.0</ele><time>2026-05-03T09:03:12.973Z</time></trkpt><trkpt lat="45.92393931620969" lon="11.045688835261531"><ele>177.0</ele><time>2026-05-03T09:03:13.973Z</time></trkpt><trkpt lat="45.923880567544735" lon="11.045469157232336"><ele>177.0</ele><time>2026-05-03T09:03:14.973Z</time></trkpt><trkpt lat="45.923816572090324" lon="11.045199213627669"><ele>179.0</ele><time>2026-05-03T09:03:15.973Z</time></trkpt><trkpt lat="45.92376683710506" lon="11.044875690477202"><ele>181.0</ele><time>2026-05-03T09:03:16.973Z</time></trkpt><trkpt lat="45.92370029827016" lon="11.044514542212179"><ele>181.0</ele><time>2026-05-03T09:03:17.973Z</time></trkpt><trkpt lat="45.923628471387396" lon="11.044130246543697"><ele>181.0</ele><time>2026-05-03T09:03:18.973Z</time></trkpt><trkpt lat="45.923562495312176" lon="11.04376162500222"><ele>182.0</ele><time>2026-05-03T09:03:19.973Z</time></trkpt><trkpt lat="45.92350221273354" lon="11.043427581028187"><ele>183.0</ele><time>2026-05-03T09:03:20.973Z</time></trkpt><trkpt lat="45.92344783710336" lon="11.043130250489217"><ele>183.0</ele><time>2026-05-03T09:03:21.973Z</time></trkpt><trkpt lat="45.923397314200855" lon="11.042853986624225"><ele>183.0</ele><time>2026-05-03T09:03:22.973Z</time></trkpt><trkpt lat="45.92335178716391" lon="11.04260156579658"><ele>183.0</ele><time>2026-05-03T09:03:23.973Z</time></trkpt><trkpt lat="45.92329280105806" lon="11.04235572615852"><ele>183.66666666666666</ele><time>2026-05-03T09:03:24.973Z</time></trkpt><trkpt lat="45.92325173166573" lon="11.042115828496419"><ele>184.33333333333331</ele><time>2026-05-03T09:03:25.973Z</time></trkpt><trkpt lat="45.92320913519972" lon="11.041887571033417"><ele>185.0</ele><time>2026-05-03T09:03:26.973Z</time></trkpt><trkpt lat="45.92318402083901" lon="11.041657743115392"><ele>185.0</ele><time>2026-05-03T09:03:27.973Z</time></trkpt><trkpt lat="45.92314329237883" lon="11.041434001676208"><ele>185.0</ele><time>2026-05-03T09:03:28.973Z</time></trkpt><trkpt lat="45.923097854923" lon="11.04120613829095"><ele>185.0</ele><time>2026-05-03T09:03:29.973Z</time></trkpt><trkpt lat="45.92305537144239" lon="11.040972160542266"><ele>185.0</ele><time>2026-05-03T09:03:30.973Z</time></trkpt><trkpt lat="45.923011813292106" lon="11.040743939848639"><ele>185.0</ele><time>2026-05-03T09:03:31.973Z</time></trkpt><trkpt lat="45.92297371598316" lon="11.040528827276031"><ele>185.0</ele><time>2026-05-03T09:03:32.973Z</time></trkpt><trkpt lat="45.922940130717016" lon="11.040324451118684"><ele>185.0</ele><time>2026-05-03T09:03:33.973Z</time></trkpt><trkpt lat="45.92290184695348" lon="11.040108595551695"><ele>185.0</ele><time>2026-05-03T09:03:34.973Z</time></trkpt><trkpt lat="45.92286197082968" lon="11.039893087660461"><ele>185.0</ele><time>2026-05-03T09:03:35.973Z</time></trkpt><trkpt lat="45.92282539525447" lon="11.039691735512248"><ele>185.5</ele><time>2026-05-03T09:03:36.973Z</time></trkpt><trkpt lat="45.922786400601495" lon="11.039494110467414"><ele>186.0</ele><time>2026-05-03T09:03:37.973Z</time></trkpt><trkpt lat="45.922729860509264" lon="11.039296545023738"><ele>186.5</ele><time>2026-05-03T09:03:38.973Z</time></trkpt><trkpt lat="45.92264730993452" lon="11.039107661800228"><ele>187.0</ele><time>2026-05-03T09:03:39.973Z</time></trkpt><trkpt lat="45.92255164142018" lon="11.038936108766027"><ele>187.0</ele><time>2026-05-03T09:03:40.973Z</time></trkpt><trkpt lat="45.922441803519824" lon="11.038772967327084"><ele>187.0</ele><time>2026-05-03T09:03:41.973Z</time></trkpt><trkpt lat="45.92232195711961" lon="11.03863458055297"><ele>187.0</ele><time>2026-05-03T09:03:42.973Z</time></trkpt><trkpt lat="45.9221877320695" lon="11.038514255848673"><ele>187.0</ele><time>2026-05-03T09:03:43.973Z</time></trkpt><trkpt lat="45.92204580297678" lon="11.03841767730424"><ele>187.0</ele><time>2026-05-03T09:03:44.973Z</time></trkpt><trkpt lat="45.921905223577134" lon="11.038349262318764"><ele>187.0</ele><time>2026-05-03T09:03:45.973Z</time></trkpt><trkpt lat="45.92176445967277" lon="11.038305346350507"><ele>187.0</ele><time>2026-05-03T09:03:46.973Z</time></trkpt><trkpt lat="45.921626814875594" lon="11.038273423764563"><ele>187.0</ele><time>2026-05-03T09:03:47.973Z</time></trkpt><trkpt lat="45.921490071277695" lon="11.038248076195957"><ele>187.0</ele><time>2026-05-03T09:03:48.973Z</time></trkpt><trkpt lat="45.92135213318573" lon="11.038233294590016"><ele>187.0</ele><time>2026-05-03T09:03:49.973Z</time></trkpt><trkpt lat="45.92121390242424" lon="11.038216939620021"><ele>187.0</ele><time>2026-05-03T09:03:50.973Z</time></trkpt><trkpt lat="45.92107810105401" lon="11.038196334509404"><ele>187.0</ele><time>2026-05-03T09:03:51.973Z</time></trkpt><trkpt lat="45.920951810986416" lon="11.038160981025426"><ele>187.0</ele><time>2026-05-03T09:03:52.973Z</time></trkpt><trkpt lat="45.92085132021714" lon="11.038104490452083"><ele>187.0</ele><time>2026-05-03T09:03:53.973Z</time></trkpt><trkpt lat="45.92076455762503" lon="11.038011281710236"><ele>187.0</ele><time>2026-05-03T09:03:54.972Z</time></trkpt><trkpt lat="45.92070742779029" lon="11.037889878753065"><ele>187.0</ele><time>2026-05-03T09:03:55.972Z</time></trkpt><trkpt lat="45.92062887903827" lon="11.03781896214043"><ele>186.0</ele><time>2026-05-03T09:03:56.972Z</time></trkpt><trkpt lat="45.92067762288628" lon="11.037596627458823"><ele>185.0</ele><time>2026-05-03T09:03:57.972Z</time></trkpt><trkpt lat="45.92071912796265" lon="11.037453582557866"><ele>184.0</ele><time>2026-05-03T09:03:58.972Z</time></trkpt><trkpt lat="45.92079588934972" lon="11.037320582594921"><ele>183.0</ele><time>2026-05-03T09:03:59.972Z</time></trkpt><trkpt lat="45.920877672631825" lon="11.037213540998868"><ele>183.66666666666666</ele><time>2026-05-03T09:04:00.972Z</time></trkpt><trkpt lat="45.920950535244344" lon="11.037111326494392"><ele>184.33333333333334</ele><time>2026-05-03T09:04:01.972Z</time></trkpt><trkpt lat="45.92101352434183" lon="11.037015348247712"><ele>185.0</ele><time>2026-05-03T09:04:02.973Z</time></trkpt><trkpt lat="45.921065930975494" lon="11.03693416043217"><ele>185.66666666666669</ele><time>2026-05-03T09:04:03.972Z</time></trkpt><trkpt lat="45.92111373616706" lon="11.036855067817838"><ele>186.33333333333334</ele><time>2026-05-03T09:04:06.973Z</time></trkpt><trkpt lat="45.921169037912975" lon="11.036780766833882"><ele>187.0</ele><time>2026-05-03T09:04:09.972Z</time></trkpt><trkpt lat="45.92122678891826" lon="11.03670135914557"><ele>187.0</ele><time>2026-05-03T09:04:12.972Z</time></trkpt><trkpt lat="45.92106484959113" lon="11.036533196137974"><ele>187.0</ele><time>2026-05-03T09:04:15.973Z</time></trkpt><trkpt lat="45.92098113200185" lon="11.036500870801635"><ele>187.0</ele><time>2026-05-03T09:04:16.973Z</time></trkpt><trkpt lat="45.92088730178075" lon="11.03644382534889"><ele>187.0</ele><time>2026-05-03T09:04:17.973Z</time></trkpt><trkpt lat="45.92078115421331" lon="11.036386084187068"><ele>186.5</ele><time>2026-05-03T09:04:18.973Z</time></trkpt><trkpt lat="45.92066515925516" lon="11.036324415922122"><ele>186.0</ele><time>2026-05-03T09:04:19.973Z</time></trkpt><trkpt lat="45.92053712351873" lon="11.036255698618904"><ele>185.5</ele><time>2026-05-03T09:04:20.973Z</time></trkpt><trkpt lat="45.92040537353194" lon="11.03618686460216"><ele>185.0</ele><time>2026-05-03T09:04:21.973Z</time></trkpt><trkpt lat="45.92026566226162" lon="11.036113799120693"><ele>185.0</ele><time>2026-05-03T09:04:22.973Z</time></trkpt><trkpt lat="45.92012636022139" lon="11.036016640391964"><ele>185.0</ele><time>2026-05-03T09:04:23.973Z</time></trkpt><trkpt lat="45.91997421774668" lon="11.035936948611965"><ele>185.0</ele><time>2026-05-03T09:04:24.973Z</time></trkpt><trkpt lat="45.919817929363255" lon="11.035853038085175"><ele>186.0</ele><time>2026-05-03T09:04:25.973Z</time></trkpt><trkpt lat="45.919654528323136" lon="11.035762643367036"><ele>187.0</ele><time>2026-05-03T09:04:26.973Z</time></trkpt><trkpt lat="45.91949369232073" lon="11.035673667649887"><ele>188.0</ele><time>2026-05-03T09:04:27.973Z</time></trkpt><trkpt lat="45.91933571021363" lon="11.03558700730686"><ele>187.33333333333331</ele><time>2026-05-03T09:04:28.973Z</time></trkpt><trkpt lat="45.91917323827546" lon="11.03549877170104"><ele>186.66666666666666</ele><time>2026-05-03T09:04:29.973Z</time></trkpt><trkpt lat="45.91901096624044" lon="11.035412544881329"><ele>186.0</ele><time>2026-05-03T09:04:30.973Z</time></trkpt><trkpt lat="45.918842150084714" lon="11.035322276472499"><ele>186.0</ele><time>2026-05-03T09:04:31.973Z</time></trkpt><trkpt lat="45.91866455134421" lon="11.035257674885232"><ele>186.0</ele><time>2026-05-03T09:04:32.973Z</time></trkpt><trkpt lat="45.91849378004938" lon="11.035163281446826"><ele>186.0</ele><time>2026-05-03T09:04:33.973Z</time></trkpt><trkpt lat="45.918323645935786" lon="11.03507281243511"><ele>185.0</ele><time>2026-05-03T09:04:34.973Z</time></trkpt><trkpt lat="45.918153311487444" lon="11.034984467736647"><ele>184.0</ele><time>2026-05-03T09:04:35.973Z</time></trkpt><trkpt lat="45.91799848962806" lon="11.034872215144105"><ele>183.0</ele><time>2026-05-03T09:04:36.973Z</time></trkpt><trkpt lat="45.917848517696115" lon="11.034799984530391"><ele>183.0</ele><time>2026-05-03T09:04:37.973Z</time></trkpt><trkpt lat="45.917700351613725" lon="11.034730732185219"><ele>183.0</ele><time>2026-05-03T09:04:38.973Z</time></trkpt><trkpt lat="45.9175514696572" lon="11.034704911374956"><ele>183.0</ele><time>2026-05-03T09:04:39.973Z</time></trkpt><trkpt lat="45.917421914896906" lon="11.034651984848358"><ele>183.0</ele><time>2026-05-03T09:04:40.973Z</time></trkpt><trkpt lat="45.91733146085428" lon="11.034610915523022"><ele>183.0</ele><time>2026-05-03T09:04:41.973Z</time></trkpt><trkpt lat="45.917268813239374" lon="11.034565690079182"><ele>183.0</ele><time>2026-05-03T09:04:42.973Z</time></trkpt><trkpt lat="45.91723176497628" lon="11.034488633006617"><ele>183.0</ele><time>2026-05-03T09:04:43.973Z</time></trkpt><trkpt lat="45.917218144452654" lon="11.03439094538198"><ele>183.0</ele><time>2026-05-03T09:04:44.973Z</time></trkpt><trkpt lat="45.917208066180635" lon="11.03427431089754"><ele>183.0</ele><time>2026-05-03T09:04:45.973Z</time></trkpt><trkpt lat="45.917291187401815" lon="11.034178713966957"><ele>183.0</ele><time>2026-05-03T09:04:46.973Z</time></trkpt><trkpt lat="45.91736723982064" lon="11.034105500165293"><ele>183.0</ele><time>2026-05-03T09:04:47.973Z</time></trkpt><trkpt lat="45.917465889149376" lon="11.034031571943013"><ele>183.0</ele><time>2026-05-03T09:04:48.973Z</time></trkpt><trkpt lat="45.917568113576394" lon="11.033945179563078"><ele>183.0</ele><time>2026-05-03T09:04:49.973Z</time></trkpt><trkpt lat="45.91767221945408" lon="11.033840027540244"><ele>183.0</ele><time>2026-05-03T09:04:50.973Z</time></trkpt><trkpt lat="45.91778222784039" lon="11.03372654280196"><ele>183.25</ele><time>2026-05-03T09:04:51.973Z</time></trkpt><trkpt lat="45.91789267942795" lon="11.03359563149516"><ele>183.5</ele><time>2026-05-03T09:04:52.973Z</time></trkpt><trkpt lat="45.91799972914965" lon="11.03344849566047"><ele>183.75</ele><time>2026-05-03T09:04:53.973Z</time></trkpt><trkpt lat="45.918106973603365" lon="11.033290807900928"><ele>184.0</ele><time>2026-05-03T09:04:54.973Z</time></trkpt><trkpt lat="45.91822297834826" lon="11.033120699797404"><ele>185.0</ele><time>2026-05-03T09:04:55.973Z</time></trkpt><trkpt lat="45.9183457555844" lon="11.032946812982434"><ele>186.0</ele><time>2026-05-03T09:04:56.973Z</time></trkpt><trkpt lat="45.91847128172188" lon="11.03279863253556"><ele>187.0</ele><time>2026-05-03T09:04:57.973Z</time></trkpt><trkpt lat="45.91857797711772" lon="11.032648161281966"><ele>187.0</ele><time>2026-05-03T09:04:58.973Z</time></trkpt><trkpt lat="45.91867581125331" lon="11.03251512794898"><ele>187.0</ele><time>2026-05-03T09:04:59.973Z</time></trkpt><trkpt lat="45.91877327735968" lon="11.032382595045041"><ele>187.0</ele><time>2026-05-03T09:05:00.973Z</time></trkpt><trkpt lat="45.918872001513485" lon="11.032245046029303"><ele>187.0</ele><time>2026-05-03T09:05:01.973Z</time></trkpt><trkpt lat="45.91897403580686" lon="11.032109690643328"><ele>187.25</ele><time>2026-05-03T09:05:02.973Z</time></trkpt><trkpt lat="45.91907437058889" lon="11.031962694461656"><ele>187.5</ele><time>2026-05-03T09:05:03.973Z</time></trkpt><trkpt lat="45.919170252413224" lon="11.031815520010081"><ele>187.75</ele><time>2026-05-03T09:05:04.973Z</time></trkpt><trkpt lat="45.919253753250445" lon="11.031678229988367"><ele>188.0</ele><time>2026-05-03T09:05:05.973Z</time></trkpt><trkpt lat="45.919333937586686" lon="11.031525114781763"><ele>188.5</ele><time>2026-05-03T09:05:06.973Z</time></trkpt><trkpt lat="45.919382963202345" lon="11.031331728453974"><ele>189.0</ele><time>2026-05-03T09:05:07.973Z</time></trkpt><trkpt lat="45.91940323437041" lon="11.031127294928782"><ele>189.5</ele><time>2026-05-03T09:05:08.973Z</time></trkpt><trkpt lat="45.91938325594167" lon="11.030927543562273"><ele>190.0</ele><time>2026-05-03T09:05:09.973Z</time></trkpt><trkpt lat="45.91932413590937" lon="11.03072713519952"><ele>190.0</ele><time>2026-05-03T09:05:10.973Z</time></trkpt><trkpt lat="45.91922825102939" lon="11.03055137039495"><ele>190.0</ele><time>2026-05-03T09:05:11.973Z</time></trkpt><trkpt lat="45.91911921235011" lon="11.03038607829601"><ele>190.0</ele><time>2026-05-03T09:05:12.973Z</time></trkpt><trkpt lat="45.91899708432523" lon="11.030204916075137"><ele>190.0</ele><time>2026-05-03T09:05:13.972Z</time></trkpt><trkpt lat="45.9188777005145" lon="11.030020343600185"><ele>190.0</ele><time>2026-05-03T09:05:14.972Z</time></trkpt><trkpt lat="45.9187781267843" lon="11.029832902826609"><ele>190.0</ele><time>2026-05-03T09:05:15.972Z</time></trkpt><trkpt lat="45.91866922333357" lon="11.029652779436988"><ele>192.0</ele><time>2026-05-03T09:05:16.972Z</time></trkpt><trkpt lat="45.918577909054775" lon="11.029452616461223"><ele>194.0</ele><time>2026-05-03T09:05:17.972Z</time></trkpt><trkpt lat="45.91850588452428" lon="11.029225650721852"><ele>196.0</ele><time>2026-05-03T09:05:18.972Z</time></trkpt><trkpt lat="45.918454813532" lon="11.028984313835853"><ele>197.66666666666666</ele><time>2026-05-03T09:05:19.972Z</time></trkpt><trkpt lat="45.918407620875186" lon="11.02873381847681"><ele>199.33333333333331</ele><time>2026-05-03T09:05:20.972Z</time></trkpt><trkpt lat="45.91835794592317" lon="11.028476571559002"><ele>201.0</ele><time>2026-05-03T09:05:21.972Z</time></trkpt><trkpt lat="45.918301907867594" lon="11.028219226445392"><ele>204.66666666666669</ele><time>2026-05-03T09:05:22.972Z</time></trkpt><trkpt lat="45.918243596945956" lon="11.027956706381639"><ele>208.33333333333334</ele><time>2026-05-03T09:05:23.972Z</time></trkpt><trkpt lat="45.918189615083605" lon="11.027698876664928"><ele>212.0</ele><time>2026-05-03T09:05:24.972Z</time></trkpt><trkpt lat="45.91813405729491" lon="11.027433319426917"><ele>218.0</ele><time>2026-05-03T09:05:25.972Z</time></trkpt><trkpt lat="45.918073756849324" lon="11.027165088214412"><ele>224.0</ele><time>2026-05-03T09:05:26.972Z</time></trkpt><trkpt lat="45.91799978633024" lon="11.026889601899663"><ele>230.0</ele><time>2026-05-03T09:05:27.972Z</time></trkpt><trkpt lat="45.917910153435145" lon="11.026626169958579"><ele>230.0</ele><time>2026-05-03T09:05:28.972Z</time></trkpt><trkpt lat="45.91780047432233" lon="11.026361437569053"><ele>230.0</ele><time>2026-05-03T09:05:29.972Z</time></trkpt><trkpt lat="45.91768238672518" lon="11.026116713195341"><ele>230.0</ele><time>2026-05-03T09:05:30.972Z</time></trkpt><trkpt lat="45.917551738308084" lon="11.025892892359954"><ele>239.33333333333334</ele><time>2026-05-03T09:05:31.972Z</time></trkpt><trkpt lat="45.917398115614574" lon="11.025685380374199"><ele>248.66666666666669</ele><time>2026-05-03T09:05:32.972Z</time></trkpt><trkpt lat="45.917232104246445" lon="11.02548679546886"><ele>258.0</ele><time>2026-05-03T09:05:33.972Z</time></trkpt><trkpt lat="45.91706743088574" lon="11.025298736670752"><ele>258.0</ele><time>2026-05-03T09:05:34.972Z</time></trkpt><trkpt lat="45.91689664049457" lon="11.025123577184493"><ele>258.0</ele><time>2026-05-03T09:05:35.972Z</time></trkpt><trkpt lat="45.91674191778884" lon="11.024959616853497"><ele>258.0</ele><time>2026-05-03T09:05:36.972Z</time></trkpt><trkpt lat="45.916594503267554" lon="11.024807074116877"><ele>255.0</ele><time>2026-05-03T09:05:37.972Z</time></trkpt><trkpt lat="45.916463925085466" lon="11.024664276604405"><ele>252.0</ele><time>2026-05-03T09:05:38.972Z</time></trkpt><trkpt lat="45.916323390435885" lon="11.024545900493727"><ele>249.0</ele><time>2026-05-03T09:05:39.972Z</time></trkpt><trkpt lat="45.91617788045401" lon="11.024446860277473"><ele>249.0</ele><time>2026-05-03T09:05:40.972Z</time></trkpt><trkpt lat="45.91602271236893" lon="11.02437561099846"><ele>249.0</ele><time>2026-05-03T09:05:41.972Z</time></trkpt><trkpt lat="45.91586042282874" lon="11.024324139750439"><ele>249.0</ele><time>2026-05-03T09:05:42.972Z</time></trkpt><trkpt lat="45.9156878839522" lon="11.024276900973428"><ele>250.75</ele><time>2026-05-03T09:05:43.972Z</time></trkpt><trkpt lat="45.91554004867742" lon="11.02420554177182"><ele>252.5</ele><time>2026-05-03T09:05:44.972Z</time></trkpt><trkpt lat="45.9154159184678" lon="11.02412549596109"><ele>254.25</ele><time>2026-05-03T09:05:45.972Z</time></trkpt><trkpt lat="45.91530724294829" lon="11.024008751020737"><ele>256.0</ele><time>2026-05-03T09:05:46.972Z</time></trkpt><trkpt lat="45.91522594162804" lon="11.023849728907443"><ele>256.0</ele><time>2026-05-03T09:05:47.972Z</time></trkpt><trkpt lat="45.915165417709645" lon="11.02366671240083"><ele>256.0</ele><time>2026-05-03T09:05:48.972Z</time></trkpt><trkpt lat="45.91511122825875" lon="11.023469189028773"><ele>256.0</ele><time>2026-05-03T09:05:49.972Z</time></trkpt><trkpt lat="45.91506056541591" lon="11.023272428102807"><ele>256.0</ele><time>2026-05-03T09:05:50.972Z</time></trkpt><trkpt lat="45.91501418979683" lon="11.023080064045878"><ele>257.0</ele><time>2026-05-03T09:05:51.972Z</time></trkpt><trkpt lat="45.91496874303487" lon="11.022894010638435"><ele>258.0</ele><time>2026-05-03T09:05:52.972Z</time></trkpt><trkpt lat="45.91492363434336" lon="11.022708909791481"><ele>259.0</ele><time>2026-05-03T09:05:53.972Z</time></trkpt><trkpt lat="45.914884363372344" lon="11.022529971450181"><ele>260.0</ele><time>2026-05-03T09:05:54.972Z</time></trkpt><trkpt lat="45.91484274786041" lon="11.022358815675231"><ele>262.0</ele><time>2026-05-03T09:05:55.972Z</time></trkpt><trkpt lat="45.914791550950824" lon="11.022215762723462"><ele>264.0</ele><time>2026-05-03T09:05:56.972Z</time></trkpt><trkpt lat="45.9147196497425" lon="11.022104902121532"><ele>266.0</ele><time>2026-05-03T09:05:57.972Z</time></trkpt><trkpt lat="45.91463507544238" lon="11.022022121914285"><ele>268.0</ele><time>2026-05-03T09:05:58.972Z</time></trkpt><trkpt lat="45.914564731172746" lon="11.02194144797239"><ele>270.0</ele><time>2026-05-03T09:05:59.972Z</time></trkpt><trkpt lat="45.91451997365151" lon="11.021825323727672"><ele>270.0</ele><time>2026-05-03T09:06:00.972Z</time></trkpt><trkpt lat="45.91447342768693" lon="11.021691295277893"><ele>270.0</ele><time>2026-05-03T09:06:01.972Z</time></trkpt><trkpt lat="45.9144232654065" lon="11.021544854752076"><ele>270.0</ele><time>2026-05-03T09:06:02.972Z</time></trkpt><trkpt lat="45.91437196343645" lon="11.021398557788029"><ele>270.0</ele><time>2026-05-03T09:06:03.972Z</time></trkpt><trkpt lat="45.9142707316553" lon="11.021305887918619"><ele>270.0</ele><time>2026-05-03T09:06:04.972Z</time></trkpt><trkpt lat="45.91416311995615" lon="11.021236331857912"><ele>270.0</ele><time>2026-05-03T09:06:05.972Z</time></trkpt><trkpt lat="45.914039822769446" lon="11.021198948909817"><ele>270.0</ele><time>2026-05-03T09:06:06.972Z</time></trkpt><trkpt lat="45.91391857482908" lon="11.021176918079643"><ele>270.0</ele><time>2026-05-03T09:06:07.973Z</time></trkpt><trkpt lat="45.91381113559494" lon="11.021153575592242"><ele>270.0</ele><time>2026-05-03T09:06:08.972Z</time></trkpt><trkpt lat="45.91371210162819" lon="11.021125558005895"><ele>270.0</ele><time>2026-05-03T09:06:09.972Z</time></trkpt><trkpt lat="45.913612843700236" lon="11.021091355552468"><ele>270.0</ele><time>2026-05-03T09:06:10.972Z</time></trkpt><trkpt lat="45.91352061251633" lon="11.021032351208857"><ele>270.0</ele><time>2026-05-03T09:06:11.972Z</time></trkpt><trkpt lat="45.91343564702591" lon="11.020936616571534"><ele>270.0</ele><time>2026-05-03T09:06:12.972Z</time></trkpt><trkpt lat="45.91336658436338" lon="11.020796504918335"><ele>273.75</ele><time>2026-05-03T09:06:13.972Z</time></trkpt><trkpt lat="45.913303316964345" lon="11.020631546462663"><ele>277.5</ele><time>2026-05-03T09:06:14.972Z</time></trkpt><trkpt lat="45.913231989477424" lon="11.020476219418821"><ele>281.25</ele><time>2026-05-03T09:06:15.972Z</time></trkpt><trkpt lat="45.9131503242286" lon="11.020342206172996"><ele>285.0</ele><time>2026-05-03T09:06:16.972Z</time></trkpt><trkpt lat="45.91305817199747" lon="11.020225908808095"><ele>285.0</ele><time>2026-05-03T09:06:17.972Z</time></trkpt><trkpt lat="45.912973424265964" lon="11.020122611861606"><ele>285.0</ele><time>2026-05-03T09:06:18.972Z</time></trkpt><trkpt lat="45.912914818309766" lon="11.020034044137057"><ele>285.0</ele><time>2026-05-03T09:06:19.972Z</time></trkpt><trkpt lat="45.912905011250864" lon="11.019935869502088"><ele>285.0</ele><time>2026-05-03T09:06:20.972Z</time></trkpt><trkpt lat="45.91294062516512" lon="11.019857615042417"><ele>285.0</ele><time>2026-05-03T09:06:21.972Z</time></trkpt><trkpt lat="45.913012935706575" lon="11.019818487257934"><ele>285.0</ele><time>2026-05-03T09:06:22.972Z</time></trkpt><trkpt lat="45.913092272802864" lon="11.019855416665363"><ele>285.0</ele><time>2026-05-03T09:06:23.972Z</time></trkpt><trkpt lat="45.91317761012321" lon="11.019926630895501"><ele>285.0</ele><time>2026-05-03T09:06:24.972Z</time></trkpt><trkpt lat="45.91328788326106" lon="11.019984320779875"><ele>285.0</ele><time>2026-05-03T09:06:25.972Z</time></trkpt><trkpt lat="45.91340177991448" lon="11.020003088892947"><ele>285.0</ele><time>2026-05-03T09:06:26.972Z</time></trkpt><trkpt lat="45.91352636162109" lon="11.02002030267476"><ele>283.75</ele><time>2026-05-03T09:06:27.972Z</time></trkpt><trkpt lat="45.913651899465634" lon="11.020002308812506"><ele>282.5</ele><time>2026-05-03T09:06:28.972Z</time></trkpt><trkpt lat="45.913782509093096" lon="11.01992063057976"><ele>281.25</ele><time>2026-05-03T09:06:29.972Z</time></trkpt><trkpt lat="45.9139266358121" lon="11.019802177290638"><ele>280.0</ele><time>2026-05-03T09:06:30.972Z</time></trkpt><trkpt lat="45.91406350446841" lon="11.019675754137491"><ele>285.66666666666663</ele><time>2026-05-03T09:06:31.972Z</time></trkpt><trkpt lat="45.91420420991532" lon="11.019553305397238"><ele>291.3333333333333</ele><time>2026-05-03T09:06:32.972Z</time></trkpt><trkpt lat="45.914334671454746" lon="11.01943885842536"><ele>297.0</ele><time>2026-05-03T09:06:33.972Z</time></trkpt><trkpt lat="45.91445191956098" lon="11.019329017957714"><ele>297.0</ele><time>2026-05-03T09:06:34.972Z</time></trkpt><trkpt lat="45.91457679175487" lon="11.019239502673429"><ele>297.0</ele><time>2026-05-03T09:06:35.972Z</time></trkpt><trkpt lat="45.91468890904544" lon="11.019121348239766"><ele>297.0</ele><time>2026-05-03T09:06:36.972Z</time></trkpt><trkpt lat="45.91476913140202" lon="11.01893882589516"><ele>297.0</ele><time>2026-05-03T09:06:37.972Z</time></trkpt><trkpt lat="45.91485338458435" lon="11.018748070987368"><ele>304.0</ele><time>2026-05-03T09:06:38.972Z</time></trkpt><trkpt lat="45.91491221942005" lon="11.018521516465995"><ele>311.0</ele><time>2026-05-03T09:06:39.972Z</time></trkpt><trkpt lat="45.91499185962118" lon="11.018316081834358"><ele>318.0</ele><time>2026-05-03T09:06:40.972Z</time></trkpt><trkpt lat="45.915064198736516" lon="11.018126125713382"><ele>321.25</ele><time>2026-05-03T09:06:41.972Z</time></trkpt><trkpt lat="45.91514334031411" lon="11.01794439050653"><ele>324.5</ele><time>2026-05-03T09:06:42.972Z</time></trkpt><trkpt lat="45.915205660206794" lon="11.017756839108333"><ele>327.75</ele><time>2026-05-03T09:06:43.972Z</time></trkpt><trkpt lat="45.91527423309318" lon="11.017568270567791"><ele>331.0</ele><time>2026-05-03T09:06:44.972Z</time></trkpt><trkpt lat="45.91532742251872" lon="11.01737234008901"><ele>332.25</ele><time>2026-05-03T09:06:45.972Z</time></trkpt><trkpt lat="45.91539195033228" lon="11.017194655194574"><ele>333.5</ele><time>2026-05-03T09:06:46.972Z</time></trkpt><trkpt lat="45.915453238730414" lon="11.017020815408712"><ele>334.75</ele><time>2026-05-03T09:06:47.972Z</time></trkpt><trkpt lat="45.91551165824998" lon="11.016862673866312"><ele>336.0</ele><time>2026-05-03T09:06:48.972Z</time></trkpt><trkpt lat="45.91557171794059" lon="11.016742386433108"><ele>336.0</ele><time>2026-05-03T09:06:49.972Z</time></trkpt><trkpt lat="45.9156246193719" lon="11.016640732027899"><ele>336.0</ele><time>2026-05-03T09:06:50.972Z</time></trkpt><trkpt lat="45.91567698741652" lon="11.016559525206347"><ele>336.0</ele><time>2026-05-03T09:06:51.972Z</time></trkpt><trkpt lat="45.91575402526928" lon="11.016525446902596"><ele>336.0</ele><time>2026-05-03T09:06:52.972Z</time></trkpt><trkpt lat="45.91584333976355" lon="11.016584637936866"><ele>336.0</ele><time>2026-05-03T09:06:53.972Z</time></trkpt><trkpt lat="45.915845124906475" lon="11.01672011124257"><ele>336.0</ele><time>2026-05-03T09:06:54.972Z</time></trkpt><trkpt lat="45.91589189781299" lon="11.01683394860623"><ele>344.75</ele><time>2026-05-03T09:06:55.972Z</time></trkpt><trkpt lat="45.91594842829546" lon="11.016990654777617"><ele>353.5</ele><time>2026-05-03T09:06:56.972Z</time></trkpt><trkpt lat="45.9159967202509" lon="11.017163759681548"><ele>362.25</ele><time>2026-05-03T09:06:57.972Z</time></trkpt><trkpt lat="45.916029416814425" lon="11.01734452194483"><ele>371.0</ele><time>2026-05-03T09:06:58.972Z</time></trkpt><trkpt lat="45.91604335311273" lon="11.017554461480195"><ele>371.0</ele><time>2026-05-03T09:06:59.972Z</time></trkpt><trkpt lat="45.916045273406084" lon="11.017811045279723"><ele>371.0</ele><time>2026-05-03T09:07:00.971Z</time></trkpt><trkpt lat="45.916040080533215" lon="11.018061881029714"><ele>371.0</ele><time>2026-05-03T09:07:01.971Z</time></trkpt><trkpt lat="45.91603265595593" lon="11.018268981932884"><ele>370.25</ele><time>2026-05-03T09:07:02.971Z</time></trkpt><trkpt lat="45.91601956395377" lon="11.018460782291424"><ele>369.5</ele><time>2026-05-03T09:07:03.971Z</time></trkpt><trkpt lat="45.91600183444928" lon="11.018659528749815"><ele>368.75</ele><time>2026-05-03T09:07:04.971Z</time></trkpt><trkpt lat="45.9159888283257" lon="11.018845350697111"><ele>368.0</ele><time>2026-05-03T09:07:05.971Z</time></trkpt><trkpt lat="45.91599058607773" lon="11.019020688616477"><ele>365.75</ele><time>2026-05-03T09:07:06.971Z</time></trkpt><trkpt lat="45.91601749836557" lon="11.019200484801425"><ele>363.5</ele><time>2026-05-03T09:07:07.971Z</time></trkpt><trkpt lat="45.91607803964397" lon="11.019338808578205"><ele>361.25</ele><time>2026-05-03T09:07:08.971Z</time></trkpt><trkpt lat="45.91614691587135" lon="11.019515911097757"><ele>359.0</ele><time>2026-05-03T09:07:09.971Z</time></trkpt><trkpt lat="45.916251528846864" lon="11.019639785703497"><ele>359.0</ele><time>2026-05-03T09:07:10.971Z</time></trkpt><trkpt lat="45.91633839503269" lon="11.019794412386355"><ele>359.0</ele><time>2026-05-03T09:07:11.971Z</time></trkpt><trkpt lat="45.916431394172356" lon="11.019938329685713"><ele>359.0</ele><time>2026-05-03T09:07:12.971Z</time></trkpt><trkpt lat="45.916528035761" lon="11.020059538718815"><ele>359.0</ele><time>2026-05-03T09:07:13.971Z</time></trkpt><trkpt lat="45.91663580460526" lon="11.020157738450024"><ele>362.75</ele><time>2026-05-03T09:07:14.971Z</time></trkpt><trkpt lat="45.9167519654007" lon="11.02023645273244"><ele>366.5</ele><time>2026-05-03T09:07:15.971Z</time></trkpt><trkpt lat="45.916853486254155" lon="11.02030983700145"><ele>370.25</ele><time>2026-05-03T09:07:16.971Z</time></trkpt><trkpt lat="45.91694616792556" lon="11.020392007504135"><ele>374.0</ele><time>2026-05-03T09:07:17.971Z</time></trkpt><trkpt lat="45.91704223884126" lon="11.020476643081496"><ele>374.0</ele><time>2026-05-03T09:07:18.971Z</time></trkpt><trkpt lat="45.9171316195613" lon="11.020569230655434"><ele>374.0</ele><time>2026-05-03T09:07:19.971Z</time></trkpt><trkpt lat="45.91721606770247" lon="11.020667548455137"><ele>374.0</ele><time>2026-05-03T09:07:20.971Z</time></trkpt><trkpt lat="45.9173003151609" lon="11.020761167958531"><ele>374.0</ele><time>2026-05-03T09:07:21.971Z</time></trkpt><trkpt lat="45.91736217148966" lon="11.020873793532362"><ele>374.0</ele><time>2026-05-03T09:07:22.971Z</time></trkpt><trkpt lat="45.917445313767445" lon="11.020912848763901"><ele>373.1666666666667</ele><time>2026-05-03T09:07:23.971Z</time></trkpt><trkpt lat="45.91750946855781" lon="11.02095867523787"><ele>372.33333333333337</ele><time>2026-05-03T09:07:24.971Z</time></trkpt><trkpt lat="45.917582911879094" lon="11.02098864883923"><ele>371.5</ele><time>2026-05-03T09:07:25.971Z</time></trkpt><trkpt lat="45.917649881467234" lon="11.020993728523806"><ele>370.6666666666667</ele><time>2026-05-03T09:07:26.971Z</time></trkpt><trkpt lat="45.91775895354677" lon="11.020980596747329"><ele>369.8333333333333</ele><time>2026-05-03T09:07:28.971Z</time></trkpt><trkpt lat="45.91785528587124" lon="11.020968526240527"><ele>369.0</ele><time>2026-05-03T09:07:30.971Z</time></trkpt><trkpt lat="45.91792100727701" lon="11.020949894424398"><ele>369.0</ele><time>2026-05-03T09:07:32.971Z</time></trkpt><trkpt lat="45.91798912434966" lon="11.020920735246055"><ele>369.0</ele><time>2026-05-03T09:07:35.971Z</time></trkpt><trkpt lat="45.91810144002392" lon="11.020907997836078"><ele>369.0</ele><time>2026-05-03T09:07:37.971Z</time></trkpt><trkpt lat="45.9181738304134" lon="11.020873302112678"><ele>369.0</ele><time>2026-05-03T09:07:38.971Z</time></trkpt><trkpt lat="45.91824043529916" lon="11.02081616119484"><ele>369.0</ele><time>2026-05-03T09:07:39.971Z</time></trkpt><trkpt lat="45.91829425165661" lon="11.020723732230381"><ele>369.0</ele><time>2026-05-03T09:07:40.971Z</time></trkpt><trkpt lat="45.91833540646326" lon="11.020599397903775"><ele>372.25</ele><time>2026-05-03T09:07:41.971Z</time></trkpt><trkpt lat="45.91836087183591" lon="11.020445339602142"><ele>375.5</ele><time>2026-05-03T09:07:42.971Z</time></trkpt><trkpt lat="45.91835511879883" lon="11.02028414394818"><ele>378.75</ele><time>2026-05-03T09:07:43.971Z</time></trkpt><trkpt lat="45.91830603413985" lon="11.020132857461173"><ele>382.0</ele><time>2026-05-03T09:07:44.971Z</time></trkpt><trkpt lat="45.91821147419832" lon="11.0199856442376"><ele>386.0</ele><time>2026-05-03T09:07:45.971Z</time></trkpt><trkpt lat="45.91809623482709" lon="11.0198331400926"><ele>390.0</ele><time>2026-05-03T09:07:46.971Z</time></trkpt><trkpt lat="45.91796142834895" lon="11.019680754378493"><ele>394.0</ele><time>2026-05-03T09:07:47.971Z</time></trkpt><trkpt lat="45.91781716108992" lon="11.01951052798125"><ele>394.0</ele><time>2026-05-03T09:07:48.971Z</time></trkpt><trkpt lat="45.9176839189194" lon="11.019355947868696"><ele>394.0</ele><time>2026-05-03T09:07:49.971Z</time></trkpt><trkpt lat="45.91758775297955" lon="11.019240517674444"><ele>394.0</ele><time>2026-05-03T09:07:50.971Z</time></trkpt><trkpt lat="45.91753178938996" lon="11.019157650129193"><ele>394.0</ele><time>2026-05-03T09:07:51.971Z</time></trkpt><trkpt lat="45.917497061379834" lon="11.01907183154901"><ele>394.0</ele><time>2026-05-03T09:07:52.971Z</time></trkpt><trkpt lat="45.91752516712953" lon="11.018894066981543"><ele>396.2</ele><time>2026-05-03T09:07:54.971Z</time></trkpt><trkpt lat="45.91759726678075" lon="11.018837884373033"><ele>398.4</ele><time>2026-05-03T09:07:55.971Z</time></trkpt><trkpt lat="45.91768322038713" lon="11.018819150865168"><ele>400.6</ele><time>2026-05-03T09:07:56.971Z</time></trkpt><trkpt lat="45.91777121289546" lon="11.018885929230327"><ele>402.8</ele><time>2026-05-03T09:07:57.971Z</time></trkpt><trkpt lat="45.91788262893062" lon="11.01891921381289"><ele>405.0</ele><time>2026-05-03T09:07:58.971Z</time></trkpt><trkpt lat="45.91800925327438" lon="11.018957214086063"><ele>405.0</ele><time>2026-05-03T09:07:59.971Z</time></trkpt><trkpt lat="45.91815537139416" lon="11.019004492716135"><ele>405.0</ele><time>2026-05-03T09:08:00.971Z</time></trkpt><trkpt lat="45.918311015954636" lon="11.01906847253413"><ele>405.0</ele><time>2026-05-03T09:08:01.971Z</time></trkpt><trkpt lat="45.91848592288692" lon="11.019138926104379"><ele>404.66666666666663</ele><time>2026-05-03T09:08:02.971Z</time></trkpt><trkpt lat="45.91867837772418" lon="11.019212833841895"><ele>404.3333333333333</ele><time>2026-05-03T09:08:03.971Z</time></trkpt><trkpt lat="45.918869119701384" lon="11.019271763015434"><ele>404.0</ele><time>2026-05-03T09:08:04.971Z</time></trkpt><trkpt lat="45.919034882131996" lon="11.019316802188083"><ele>404.0</ele><time>2026-05-03T09:08:05.971Z</time></trkpt><trkpt lat="45.91917532695595" lon="11.019376007507145"><ele>404.0</ele><time>2026-05-03T09:08:06.971Z</time></trkpt><trkpt lat="45.919327722325484" lon="11.019338004823807"><ele>404.0</ele><time>2026-05-03T09:08:07.971Z</time></trkpt><trkpt lat="45.91950864151489" lon="11.019278036857946"><ele>405.3333333333333</ele><time>2026-05-03T09:08:08.971Z</time></trkpt><trkpt lat="45.91968664747918" lon="11.019184818718333"><ele>406.66666666666663</ele><time>2026-05-03T09:08:09.971Z</time></trkpt><trkpt lat="45.91986539898387" lon="11.019079622688743"><ele>408.0</ele><time>2026-05-03T09:08:10.971Z</time></trkpt><trkpt lat="45.92000400621634" lon="11.01897737791454"><ele>414.25</ele><time>2026-05-03T09:08:11.971Z</time></trkpt><trkpt lat="45.92011175501693" lon="11.018895935634191"><ele>420.5</ele><time>2026-05-03T09:08:12.971Z</time></trkpt><trkpt lat="45.92022861655812" lon="11.018868534302467"><ele>426.75</ele><time>2026-05-03T09:08:13.972Z</time></trkpt><trkpt lat="45.92034577549244" lon="11.018900053387199"><ele>433.0</ele><time>2026-05-03T09:08:14.971Z</time></trkpt><trkpt lat="45.92047634801933" lon="11.0190069037111"><ele>433.0</ele><time>2026-05-03T09:08:15.971Z</time></trkpt><trkpt lat="45.92062578982803" lon="11.019160379289415"><ele>433.0</ele><time>2026-05-03T09:08:16.972Z</time></trkpt><trkpt lat="45.9207912570602" lon="11.019327586059514"><ele>433.0</ele><time>2026-05-03T09:08:17.972Z</time></trkpt><trkpt lat="45.92096216711764" lon="11.019490685895944"><ele>433.0</ele><time>2026-05-03T09:08:18.972Z</time></trkpt><trkpt lat="45.92111975774088" lon="11.019631955988837"><ele>433.0</ele><time>2026-05-03T09:08:19.972Z</time></trkpt><trkpt lat="45.921270572754885" lon="11.019772216368787"><ele>433.0</ele><time>2026-05-03T09:08:20.972Z</time></trkpt><trkpt lat="45.92142306117946" lon="11.019901949433738"><ele>434.33333333333337</ele><time>2026-05-03T09:08:21.972Z</time></trkpt><trkpt lat="45.9215714618342" lon="11.020006732232781"><ele>435.66666666666663</ele><time>2026-05-03T09:08:22.971Z</time></trkpt><trkpt lat="45.92172533113362" lon="11.020099899150317"><ele>437.0</ele><time>2026-05-03T09:08:23.971Z</time></trkpt><trkpt lat="45.92190881402763" lon="11.020169283401714"><ele>437.0</ele><time>2026-05-03T09:08:24.971Z</time></trkpt><trkpt lat="45.92210631502525" lon="11.020216826939532"><ele>437.0</ele><time>2026-05-03T09:08:25.972Z</time></trkpt><trkpt lat="45.92231970301885" lon="11.020221586070315"><ele>437.0</ele><time>2026-05-03T09:08:26.972Z</time></trkpt><trkpt lat="45.92253750166497" lon="11.020249293595164"><ele>441.66666666666663</ele><time>2026-05-03T09:08:27.972Z</time></trkpt><trkpt lat="45.9227530570101" lon="11.02032375366597"><ele>446.33333333333337</ele><time>2026-05-03T09:08:28.972Z</time></trkpt><trkpt lat="45.922950501589504" lon="11.020429523315107"><ele>451.0</ele><time>2026-05-03T09:08:29.972Z</time></trkpt><trkpt lat="45.92311932851995" lon="11.02057077183309"><ele>451.0</ele><time>2026-05-03T09:08:30.972Z</time></trkpt><trkpt lat="45.923269817849295" lon="11.020714902101776"><ele>451.0</ele><time>2026-05-03T09:08:31.972Z</time></trkpt><trkpt lat="45.92340700667244" lon="11.020879556472067"><ele>451.0</ele><time>2026-05-03T09:08:32.972Z</time></trkpt><trkpt lat="45.92352420011866" lon="11.021052257204008"><ele>453.0</ele><time>2026-05-03T09:08:33.972Z</time></trkpt><trkpt lat="45.92362258349713" lon="11.021202769435671"><ele>455.0</ele><time>2026-05-03T09:08:34.972Z</time></trkpt><trkpt lat="45.92370948456954" lon="11.021320106409458"><ele>457.0</ele><time>2026-05-03T09:08:35.971Z</time></trkpt><trkpt lat="45.92381924851141" lon="11.021381803835618"><ele>459.0</ele><time>2026-05-03T09:08:36.971Z</time></trkpt><trkpt lat="45.92393298925172" lon="11.021397967472202"><ele>459.0</ele><time>2026-05-03T09:08:37.971Z</time></trkpt><trkpt lat="45.92404670783734" lon="11.021359757309813"><ele>459.0</ele><time>2026-05-03T09:08:38.971Z</time></trkpt><trkpt lat="45.924168822534895" lon="11.021262631815262"><ele>459.0</ele><time>2026-05-03T09:08:39.971Z</time></trkpt><trkpt lat="45.92431770916593" lon="11.021156692955186"><ele>459.0</ele><time>2026-05-03T09:08:40.971Z</time></trkpt><trkpt lat="45.92446091536841" lon="11.021091874659454"><ele>461.66666666666663</ele><time>2026-05-03T09:08:41.971Z</time></trkpt><trkpt lat="45.92459757512994" lon="11.021031159409041"><ele>464.3333333333333</ele><time>2026-05-03T09:08:42.971Z</time></trkpt><trkpt lat="45.924749054863995" lon="11.021006691976416"><ele>467.0</ele><time>2026-05-03T09:08:43.971Z</time></trkpt><trkpt lat="45.92491994085327" lon="11.021040070335797"><ele>473.0</ele><time>2026-05-03T09:08:44.971Z</time></trkpt><trkpt lat="45.92509484689204" lon="11.02114342632099"><ele>479.0</ele><time>2026-05-03T09:08:45.971Z</time></trkpt><trkpt lat="45.92527839332153" lon="11.021251246383587"><ele>485.0</ele><time>2026-05-03T09:08:46.971Z</time></trkpt><trkpt lat="45.925477837350485" lon="11.021339780422613"><ele>485.0</ele><time>2026-05-03T09:08:47.971Z</time></trkpt><trkpt lat="45.92567929300272" lon="11.02143622456866"><ele>485.0</ele><time>2026-05-03T09:08:48.971Z</time></trkpt><trkpt lat="45.925889902659435" lon="11.021524563343702"><ele>485.0</ele><time>2026-05-03T09:08:49.971Z</time></trkpt><trkpt lat="45.92611910212168" lon="11.021609781396371"><ele>485.0</ele><time>2026-05-03T09:08:50.971Z</time></trkpt><trkpt lat="45.92633710723062" lon="11.021690772327224"><ele>485.0</ele><time>2026-05-03T09:08:51.971Z</time></trkpt><trkpt lat="45.92651726794314" lon="11.021768817569098"><ele>485.0</ele><time>2026-05-03T09:08:52.971Z</time></trkpt><trkpt lat="45.926670896062724" lon="11.021829181712654"><ele>488.3333333333333</ele><time>2026-05-03T09:08:53.971Z</time></trkpt><trkpt lat="45.92681148708734" lon="11.021860291862545"><ele>491.66666666666663</ele><time>2026-05-03T09:08:54.971Z</time></trkpt><trkpt lat="45.926963447216295" lon="11.021845909689116"><ele>495.0</ele><time>2026-05-03T09:08:55.971Z</time></trkpt><trkpt lat="45.92712727967623" lon="11.021785107353539"><ele>495.0</ele><time>2026-05-03T09:08:56.971Z</time></trkpt><trkpt lat="45.92728739452155" lon="11.021675595405664"><ele>495.0</ele><time>2026-05-03T09:08:57.971Z</time></trkpt><trkpt lat="45.92743469940149" lon="11.02157373036267"><ele>495.0</ele><time>2026-05-03T09:08:58.971Z</time></trkpt><trkpt lat="45.92757448095786" lon="11.021520329802668"><ele>500.0</ele><time>2026-05-03T09:08:59.971Z</time></trkpt><trkpt lat="45.92770608554204" lon="11.021538752143814"><ele>505.0</ele><time>2026-05-03T09:09:00.971Z</time></trkpt><trkpt lat="45.92783605279657" lon="11.021629608350507"><ele>510.0</ele><time>2026-05-03T09:09:01.971Z</time></trkpt><trkpt lat="45.92794752481151" lon="11.021791834183341"><ele>515.0</ele><time>2026-05-03T09:09:02.971Z</time></trkpt><trkpt lat="45.928003243049034" lon="11.022028367446428"><ele>515.0</ele><time>2026-05-03T09:09:03.971Z</time></trkpt><trkpt lat="45.92810353419958" lon="11.02220914665872"><ele>515.0</ele><time>2026-05-03T09:09:04.971Z</time></trkpt><trkpt lat="45.92824098673373" lon="11.022355813859129"><ele>515.0</ele><time>2026-05-03T09:09:05.971Z</time></trkpt><trkpt lat="45.928405277597726" lon="11.022505250128349"><ele>517.0</ele><time>2026-05-03T09:09:06.971Z</time></trkpt><trkpt lat="45.92859696824854" lon="11.022644630468392"><ele>519.0</ele><time>2026-05-03T09:09:07.971Z</time></trkpt><trkpt lat="45.92878491595461" lon="11.022792909981948"><ele>521.0</ele><time>2026-05-03T09:09:08.971Z</time></trkpt><trkpt lat="45.92896871075495" lon="11.022929247408735"><ele>521.0</ele><time>2026-05-03T09:09:09.971Z</time></trkpt><trkpt lat="45.92915873905711" lon="11.023040549451954"><ele>521.0</ele><time>2026-05-03T09:09:10.971Z</time></trkpt><trkpt lat="45.92934418537318" lon="11.023141909751113"><ele>521.0</ele><time>2026-05-03T09:09:11.971Z</time></trkpt><trkpt lat="45.92952909833704" lon="11.023237789666473"><ele>521.3333333333333</ele><time>2026-05-03T09:09:12.971Z</time></trkpt><trkpt lat="45.929711030103434" lon="11.023324574870479"><ele>521.6666666666666</ele><time>2026-05-03T09:09:13.971Z</time></trkpt><trkpt lat="45.929891959145515" lon="11.02339891689934"><ele>522.0</ele><time>2026-05-03T09:09:14.971Z</time></trkpt><trkpt lat="45.93007230885734" lon="11.023474938698056"><ele>529.6666666666666</ele><time>2026-05-03T09:09:15.971Z</time></trkpt><trkpt lat="45.930240319699614" lon="11.023555400307652"><ele>537.3333333333333</ele><time>2026-05-03T09:09:16.971Z</time></trkpt><trkpt lat="45.93038425305967" lon="11.023654341815375"><ele>545.0</ele><time>2026-05-03T09:09:17.971Z</time></trkpt><trkpt lat="45.93048778708845" lon="11.023799127674382"><ele>545.0</ele><time>2026-05-03T09:09:18.971Z</time></trkpt><trkpt lat="45.93057188196441" lon="11.023946235166184"><ele>545.0</ele><time>2026-05-03T09:09:19.971Z</time></trkpt><trkpt lat="45.93064688058183" lon="11.024058313136146"><ele>545.0</ele><time>2026-05-03T09:09:20.971Z</time></trkpt><trkpt lat="45.93071461609539" lon="11.024118839171257"><ele>545.0</ele><time>2026-05-03T09:09:21.971Z</time></trkpt><trkpt lat="45.93078702098638" lon="11.024139864784154"><ele>545.0</ele><time>2026-05-03T09:09:22.971Z</time></trkpt><trkpt lat="45.93084701260586" lon="11.024073061154963"><ele>545.0</ele><time>2026-05-03T09:09:23.971Z</time></trkpt><trkpt lat="45.93088435458007" lon="11.023949308734753"><ele>545.0</ele><time>2026-05-03T09:09:24.971Z</time></trkpt><trkpt lat="45.93088252023506" lon="11.023814226460315"><ele>545.0</ele><time>2026-05-03T09:09:25.971Z</time></trkpt><trkpt lat="45.93082558847528" lon="11.02368996173219"><ele>545.0</ele><time>2026-05-03T09:09:26.971Z</time></trkpt><trkpt lat="45.93073097011826" lon="11.023563026928166"><ele>545.0</ele><time>2026-05-03T09:09:27.971Z</time></trkpt><trkpt lat="45.930628537806236" lon="11.023402894295746"><ele>551.3333333333333</ele><time>2026-05-03T09:09:28.971Z</time></trkpt><trkpt lat="45.93051897810538" lon="11.02321380491252"><ele>557.6666666666666</ele><time>2026-05-03T09:09:29.971Z</time></trkpt><trkpt lat="45.93040965764469" lon="11.02299479778782"><ele>564.0</ele><time>2026-05-03T09:09:30.971Z</time></trkpt><trkpt lat="45.93029960150678" lon="11.022779642658767"><ele>564.0</ele><time>2026-05-03T09:09:31.971Z</time></trkpt><trkpt lat="45.93018776949193" lon="11.022558041674891"><ele>564.0</ele><time>2026-05-03T09:09:32.971Z</time></trkpt><trkpt lat="45.93006857689042" lon="11.02232498605881"><ele>564.0</ele><time>2026-05-03T09:09:33.971Z</time></trkpt><trkpt lat="45.92992947937843" lon="11.022088567544404"><ele>566.3333333333334</ele><time>2026-05-03T09:09:34.971Z</time></trkpt><trkpt lat="45.92977208491388" lon="11.02185985366318"><ele>568.6666666666667</ele><time>2026-05-03T09:09:35.971Z</time></trkpt><trkpt lat="45.929621899566754" lon="11.02165450359502"><ele>571.0</ele><time>2026-05-03T09:09:36.971Z</time></trkpt><trkpt lat="45.92949075695141" lon="11.021457343000629"><ele>569.6666666666667</ele><time>2026-05-03T09:09:37.971Z</time></trkpt><trkpt lat="45.92936366548941" lon="11.02128144796922"><ele>568.3333333333334</ele><time>2026-05-03T09:09:38.971Z</time></trkpt><trkpt lat="45.9292367167144" lon="11.02111650757772"><ele>567.0</ele><time>2026-05-03T09:09:39.971Z</time></trkpt><trkpt lat="45.92911880848171" lon="11.020976874304697"><ele>567.0</ele><time>2026-05-03T09:09:40.971Z</time></trkpt><trkpt lat="45.929019901743" lon="11.020877894120868"><ele>567.0</ele><time>2026-05-03T09:09:41.971Z</time></trkpt><trkpt lat="45.928949536325874" lon="11.020803732679363"><ele>567.0</ele><time>2026-05-03T09:09:42.971Z</time></trkpt><trkpt lat="45.9289271188073" lon="11.020652338449915"><ele>567.0</ele><time>2026-05-03T09:09:44.971Z</time></trkpt><trkpt lat="45.928988667360215" lon="11.020595853833326"><ele>567.0</ele><time>2026-05-03T09:09:45.971Z</time></trkpt><trkpt lat="45.92906165070218" lon="11.020609391212355"><ele>567.0</ele><time>2026-05-03T09:09:46.971Z</time></trkpt><trkpt lat="45.929109651341165" lon="11.02071335700958"><ele>567.0</ele><time>2026-05-03T09:09:47.971Z</time></trkpt><trkpt lat="45.92916006538091" lon="11.020829784124937"><ele>567.0</ele><time>2026-05-03T09:09:48.971Z</time></trkpt><trkpt lat="45.92923452537734" lon="11.020936417052958"><ele>567.0</ele><time>2026-05-03T09:09:49.971Z</time></trkpt><trkpt lat="45.929327166500855" lon="11.021054294766357"><ele>567.0</ele><time>2026-05-03T09:09:50.971Z</time></trkpt><trkpt lat="45.92945035508618" lon="11.021160041700947"><ele>581.6666666666666</ele><time>2026-05-03T09:09:51.971Z</time></trkpt><trkpt lat="45.929590188211954" lon="11.021274337190746"><ele>596.3333333333333</ele><time>2026-05-03T09:09:52.971Z</time></trkpt><trkpt lat="45.92974253821262" lon="11.021391519275475"><ele>611.0</ele><time>2026-05-03T09:09:53.971Z</time></trkpt><trkpt lat="45.929908252389936" lon="11.021519107847395"><ele>606.6666666666666</ele><time>2026-05-03T09:09:54.971Z</time></trkpt><trkpt lat="45.93009349906755" lon="11.021636981402951"><ele>602.3333333333334</ele><time>2026-05-03T09:09:55.971Z</time></trkpt><trkpt lat="45.93030417050882" lon="11.021742800333861"><ele>598.0</ele><time>2026-05-03T09:09:56.971Z</time></trkpt><trkpt lat="45.93053726360608" lon="11.021851365821"><ele>598.0</ele><time>2026-05-03T09:09:57.971Z</time></trkpt><trkpt lat="45.93077520755828" lon="11.021958944383647"><ele>598.0</ele><time>2026-05-03T09:09:58.971Z</time></trkpt><trkpt lat="45.930993103949824" lon="11.022044551645205"><ele>603.3333333333334</ele><time>2026-05-03T09:09:59.971Z</time></trkpt><trkpt lat="45.93117349980079" lon="11.02211559078733"><ele>608.6666666666666</ele><time>2026-05-03T09:10:00.971Z</time></trkpt><trkpt lat="45.931309897091054" lon="11.02222054998788"><ele>614.0</ele><time>2026-05-03T09:10:01.971Z</time></trkpt><trkpt lat="45.93141376912251" lon="11.022317265223009"><ele>614.0</ele><time>2026-05-03T09:10:02.971Z</time></trkpt><trkpt lat="45.93151046191288" lon="11.022396459719797"><ele>614.0</ele><time>2026-05-03T09:10:03.971Z</time></trkpt><trkpt lat="45.931575725497794" lon="11.022478519741227"><ele>614.0</ele><time>2026-05-03T09:10:04.971Z</time></trkpt><trkpt lat="45.9316503424163" lon="11.022493464592197"><ele>614.0</ele><time>2026-05-03T09:10:05.971Z</time></trkpt><trkpt lat="45.931714291783756" lon="11.022423326065178"><ele>614.0</ele><time>2026-05-03T09:10:06.971Z</time></trkpt><trkpt lat="45.93173058955159" lon="11.022318934270489"><ele>614.0</ele><time>2026-05-03T09:10:07.971Z</time></trkpt><trkpt lat="45.93170037366765" lon="11.022209820852458"><ele>614.0</ele><time>2026-05-03T09:10:08.97Z</time></trkpt><trkpt lat="45.93162598166475" lon="11.022121383266722"><ele>614.0</ele><time>2026-05-03T09:10:09.97Z</time></trkpt><trkpt lat="45.931526797388614" lon="11.022090685196606"><ele>614.0</ele><time>2026-05-03T09:10:10.97Z</time></trkpt><trkpt lat="45.93140744553022" lon="11.022064655252207"><ele>614.0</ele><time>2026-05-03T09:10:11.97Z</time></trkpt><trkpt lat="45.931278103044995" lon="11.021993179582488"><ele>614.0</ele><time>2026-05-03T09:10:12.97Z</time></trkpt><trkpt lat="45.931142738479465" lon="11.021880788244582"><ele>614.0</ele><time>2026-05-03T09:10:13.97Z</time></trkpt><trkpt lat="45.93098744889398" lon="11.021736348203621"><ele>614.0</ele><time>2026-05-03T09:10:14.97Z</time></trkpt><trkpt lat="45.930805913650914" lon="11.021576390666267"><ele>630.5</ele><time>2026-05-03T09:10:15.97Z</time></trkpt><trkpt lat="45.93060232980583" lon="11.021403147892663"><ele>647.0</ele><time>2026-05-03T09:10:16.97Z</time></trkpt><trkpt lat="45.930406765673" lon="11.021232211527789"><ele>647.0</ele><time>2026-05-03T09:10:17.97Z</time></trkpt><trkpt lat="45.93023595825604" lon="11.021071141724198"><ele>647.0</ele><time>2026-05-03T09:10:18.97Z</time></trkpt><trkpt lat="45.93008351237456" lon="11.02091583815588"><ele>647.0</ele><time>2026-05-03T09:10:19.971Z</time></trkpt><trkpt lat="45.929943065430834" lon="11.020740871566785"><ele>649.0</ele><time>2026-05-03T09:10:20.971Z</time></trkpt><trkpt lat="45.92982882307139" lon="11.020530783652186"><ele>651.0</ele><time>2026-05-03T09:10:21.971Z</time></trkpt><trkpt lat="45.92969836399853" lon="11.020336322251783"><ele>653.0</ele><time>2026-05-03T09:10:22.971Z</time></trkpt><trkpt lat="45.929610605897935" lon="11.02010367010073"><ele>662.0</ele><time>2026-05-03T09:10:23.97Z</time></trkpt><trkpt lat="45.92951022453343" lon="11.019894638254911"><ele>671.0</ele><time>2026-05-03T09:10:24.97Z</time></trkpt><trkpt lat="45.92938944211184" lon="11.019714254880766"><ele>680.0</ele><time>2026-05-03T09:10:25.971Z</time></trkpt><trkpt lat="45.92925066720234" lon="11.01957729178251"><ele>672.6666666666666</ele><time>2026-05-03T09:10:26.971Z</time></trkpt><trkpt lat="45.92910045514962" lon="11.019478779720952"><ele>665.3333333333334</ele><time>2026-05-03T09:10:27.971Z</time></trkpt><trkpt lat="45.9289296829865" lon="11.019454491204485"><ele>658.0</ele><time>2026-05-03T09:10:28.971Z</time></trkpt><trkpt lat="45.928760433136986" lon="11.019411475896925"><ele>658.0</ele><time>2026-05-03T09:10:29.97Z</time></trkpt><trkpt lat="45.92861465971118" lon="11.019369846607445"><ele>658.0</ele><time>2026-05-03T09:10:30.97Z</time></trkpt><trkpt lat="45.928475549958634" lon="11.019309052393135"><ele>658.0</ele><time>2026-05-03T09:10:31.97Z</time></trkpt><trkpt lat="45.928360669542705" lon="11.019162020982177"><ele>658.0</ele><time>2026-05-03T09:10:32.971Z</time></trkpt><trkpt lat="45.92822958677935" lon="11.019037629155155"><ele>666.3333333333334</ele><time>2026-05-03T09:10:33.971Z</time></trkpt><trkpt lat="45.92806066647043" lon="11.018965872692805"><ele>674.6666666666666</ele><time>2026-05-03T09:10:34.971Z</time></trkpt><trkpt lat="45.92788764204594" lon="11.018932846312303"><ele>683.0</ele><time>2026-05-03T09:10:35.971Z</time></trkpt><trkpt lat="45.927718388508225" lon="11.018879869123946"><ele>676.6666666666666</ele><time>2026-05-03T09:10:36.971Z</time></trkpt><trkpt lat="45.92754945716896" lon="11.018811931522619"><ele>670.3333333333334</ele><time>2026-05-03T09:10:37.971Z</time></trkpt><trkpt lat="45.927388511221736" lon="11.018746386859512"><ele>664.0</ele><time>2026-05-03T09:10:38.971Z</time></trkpt><trkpt lat="45.92724119398633" lon="11.018687165517617"><ele>664.0</ele><time>2026-05-03T09:10:39.971Z</time></trkpt><trkpt lat="45.927106892508576" lon="11.01863230225337"><ele>664.0</ele><time>2026-05-03T09:10:40.971Z</time></trkpt><trkpt lat="45.92697848514604" lon="11.01857445166267"><ele>664.0</ele><time>2026-05-03T09:10:41.971Z</time></trkpt><trkpt lat="45.92684635267734" lon="11.018480677322168"><ele>664.0</ele><time>2026-05-03T09:10:42.971Z</time></trkpt><trkpt lat="45.92672702273335" lon="11.01835422121735"><ele>666.0</ele><time>2026-05-03T09:10:43.971Z</time></trkpt><trkpt lat="45.92658700529972" lon="11.018182327124714"><ele>668.0</ele><time>2026-05-03T09:10:44.971Z</time></trkpt><trkpt lat="45.92645574411507" lon="11.018024669006033"><ele>670.0</ele><time>2026-05-03T09:10:45.971Z</time></trkpt><trkpt lat="45.92632232210465" lon="11.017883869648811"><ele>670.0</ele><time>2026-05-03T09:10:46.971Z</time></trkpt><trkpt lat="45.926164971244894" lon="11.017776419001091"><ele>670.0</ele><time>2026-05-03T09:10:47.971Z</time></trkpt><trkpt lat="45.925993568233274" lon="11.01770465073132"><ele>670.0</ele><time>2026-05-03T09:10:48.971Z</time></trkpt><trkpt lat="45.925836314710374" lon="11.017678560218492"><ele>667.4</ele><time>2026-05-03T09:10:49.971Z</time></trkpt><trkpt lat="45.925704101991606" lon="11.017690720518926"><ele>664.8</ele><time>2026-05-03T09:10:50.971Z</time></trkpt><trkpt lat="45.92558835779709" lon="11.017713692722923"><ele>662.2</ele><time>2026-05-03T09:10:51.971Z</time></trkpt><trkpt lat="45.925495441238525" lon="11.017732047677589"><ele>659.6</ele><time>2026-05-03T09:10:52.971Z</time></trkpt><trkpt lat="45.92542273282168" lon="11.017740978741484"><ele>657.0</ele><time>2026-05-03T09:10:53.971Z</time></trkpt><trkpt lat="45.925363412380534" lon="11.017641253032663"><ele>657.0</ele><time>2026-05-03T09:10:55.971Z</time></trkpt><trkpt lat="45.92540640314792" lon="11.017549095878303"><ele>657.0</ele><time>2026-05-03T09:10:56.971Z</time></trkpt><trkpt lat="45.925497475655696" lon="11.017495654036956"><ele>657.0</ele><time>2026-05-03T09:10:57.971Z</time></trkpt><trkpt lat="45.92558445934889" lon="11.017476769725704"><ele>657.0</ele><time>2026-05-03T09:10:58.971Z</time></trkpt><trkpt lat="45.92569762824356" lon="11.017487670214559"><ele>657.0</ele><time>2026-05-03T09:10:59.971Z</time></trkpt><trkpt lat="45.92583773380895" lon="11.017494984852306"><ele>672.3333333333334</ele><time>2026-05-03T09:11:00.971Z</time></trkpt><trkpt lat="45.925984493438165" lon="11.017452568783805"><ele>687.6666666666667</ele><time>2026-05-03T09:11:01.971Z</time></trkpt><trkpt lat="45.926126241568866" lon="11.01741742837196"><ele>703.0</ele><time>2026-05-03T09:11:02.971Z</time></trkpt><trkpt lat="45.92628526952568" lon="11.017438283508488"><ele>694.75</ele><time>2026-05-03T09:11:03.971Z</time></trkpt><trkpt lat="45.926425108922984" lon="11.017528143799726"><ele>686.5</ele><time>2026-05-03T09:11:04.971Z</time></trkpt><trkpt lat="45.92653912049652" lon="11.017650856885734"><ele>678.25</ele><time>2026-05-03T09:11:05.971Z</time></trkpt><trkpt lat="45.926625523645654" lon="11.01779619548604"><ele>670.0</ele><time>2026-05-03T09:11:06.971Z</time></trkpt><trkpt lat="45.92671960615045" lon="11.017973262252996"><ele>675.75</ele><time>2026-05-03T09:11:07.971Z</time></trkpt><trkpt lat="45.92680008381102" lon="11.018079151881318"><ele>681.5</ele><time>2026-05-03T09:11:08.971Z</time></trkpt><trkpt lat="45.92695426866151" lon="11.018192698018575"><ele>687.25</ele><time>2026-05-03T09:11:09.971Z</time></trkpt><trkpt lat="45.92711587144719" lon="11.01822962319325"><ele>693.0</ele><time>2026-05-03T09:11:10.97Z</time></trkpt><trkpt lat="45.92729275268298" lon="11.018218727515753"><ele>693.0</ele><time>2026-05-03T09:11:11.97Z</time></trkpt><trkpt lat="45.92746882430007" lon="11.018226287246115"><ele>693.0</ele><time>2026-05-03T09:11:12.97Z</time></trkpt><trkpt lat="45.927647890585355" lon="11.018271134934583"><ele>693.0</ele><time>2026-05-03T09:11:13.97Z</time></trkpt><trkpt lat="45.927803770620095" lon="11.018325395339538"><ele>691.0</ele><time>2026-05-03T09:11:14.97Z</time></trkpt><trkpt lat="45.9279369883648" lon="11.01837125740477"><ele>689.0</ele><time>2026-05-03T09:11:15.97Z</time></trkpt><trkpt lat="45.92805182659314" lon="11.018412847412819"><ele>687.0</ele><time>2026-05-03T09:11:16.97Z</time></trkpt><trkpt lat="45.92815128004454" lon="11.018442496369437"><ele>685.0</ele><time>2026-05-03T09:11:17.97Z</time></trkpt><trkpt lat="45.928239708463295" lon="11.018460314053218"><ele>683.0</ele><time>2026-05-03T09:11:18.97Z</time></trkpt><trkpt lat="45.92832068665298" lon="11.018433519450122"><ele>683.0</ele><time>2026-05-03T09:11:19.97Z</time></trkpt><trkpt lat="45.92838196093575" lon="11.018384943768881"><ele>683.0</ele><time>2026-05-03T09:11:20.97Z</time></trkpt><trkpt lat="45.92840596569824" lon="11.018287553330895"><ele>683.0</ele><time>2026-05-03T09:11:21.97Z</time></trkpt><trkpt lat="45.92837653755318" lon="11.018174353536459"><ele>683.0</ele><time>2026-05-03T09:11:22.97Z</time></trkpt><trkpt lat="45.92829771558106" lon="11.018116477242021"><ele>683.0</ele><time>2026-05-03T09:11:23.97Z</time></trkpt><trkpt lat="45.92818176383243" lon="11.018058343029073"><ele>683.0</ele><time>2026-05-03T09:11:24.97Z</time></trkpt><trkpt lat="45.928028101572565" lon="11.018001946596522"><ele>691.0</ele><time>2026-05-03T09:11:25.97Z</time></trkpt><trkpt lat="45.92788524040235" lon="11.017947356100377"><ele>699.0</ele><time>2026-05-03T09:11:26.97Z</time></trkpt><trkpt lat="45.92774400880169" lon="11.017879415753297"><ele>707.0</ele><time>2026-05-03T09:11:27.97Z</time></trkpt><trkpt lat="45.92759148620534" lon="11.017786889981158"><ele>711.0</ele><time>2026-05-03T09:11:28.97Z</time></trkpt><trkpt lat="45.92743752531113" lon="11.017618119961183"><ele>715.0</ele><time>2026-05-03T09:11:29.97Z</time></trkpt><trkpt lat="45.927290225995044" lon="11.017430261764325"><ele>719.0</ele><time>2026-05-03T09:11:30.97Z</time></trkpt><trkpt lat="45.92711148272248" lon="11.01730149677131"><ele>719.0</ele><time>2026-05-03T09:11:31.97Z</time></trkpt><trkpt lat="45.92693975840799" lon="11.017204285623684"><ele>719.0</ele><time>2026-05-03T09:11:32.97Z</time></trkpt><trkpt lat="45.92678746491051" lon="11.017120231024983"><ele>719.0</ele><time>2026-05-03T09:11:33.97Z</time></trkpt><trkpt lat="45.926660689765626" lon="11.017024237456463"><ele>719.6666666666666</ele><time>2026-05-03T09:11:34.97Z</time></trkpt><trkpt lat="45.92654800777075" lon="11.01689960090554"><ele>720.3333333333334</ele><time>2026-05-03T09:11:35.97Z</time></trkpt><trkpt lat="45.926434116438514" lon="11.01675004459518"><ele>721.0</ele><time>2026-05-03T09:11:36.97Z</time></trkpt><trkpt lat="45.92631763800972" lon="11.016602627504325"><ele>721.0</ele><time>2026-05-03T09:11:37.97Z</time></trkpt><trkpt lat="45.92618348320039" lon="11.016505432567074"><ele>721.0</ele><time>2026-05-03T09:11:38.97Z</time></trkpt><trkpt lat="45.92604643484555" lon="11.01644998485823"><ele>721.0</ele><time>2026-05-03T09:11:39.97Z</time></trkpt><trkpt lat="45.925916372493425" lon="11.016426433945826"><ele>721.0</ele><time>2026-05-03T09:11:40.97Z</time></trkpt><trkpt lat="45.92582153273797" lon="11.016401718624657"><ele>721.0</ele><time>2026-05-03T09:11:41.97Z</time></trkpt><trkpt lat="45.92576554983804" lon="11.01634068325366"><ele>721.0</ele><time>2026-05-03T09:11:42.97Z</time></trkpt><trkpt lat="45.92575489103484" lon="11.016246466349202"><ele>721.0</ele><time>2026-05-03T09:11:43.97Z</time></trkpt><trkpt lat="45.925791608309595" lon="11.01616982139235"><ele>721.0</ele><time>2026-05-03T09:11:44.97Z</time></trkpt><trkpt lat="45.92586900903653" lon="11.01613962693964"><ele>721.0</ele><time>2026-05-03T09:11:45.97Z</time></trkpt><trkpt lat="45.92595607079321" lon="11.016203053101027"><ele>721.0</ele><time>2026-05-03T09:11:46.97Z</time></trkpt><trkpt lat="45.92604898950702" lon="11.016290371024127"><ele>721.0</ele><time>2026-05-03T09:11:47.97Z</time></trkpt><trkpt lat="45.92617231786072" lon="11.016369855672352"><ele>721.0</ele><time>2026-05-03T09:11:48.97Z</time></trkpt><trkpt lat="45.9263219116788" lon="11.01644425480078"><ele>721.0</ele><time>2026-05-03T09:11:49.97Z</time></trkpt><trkpt lat="45.92649972583946" lon="11.016488863605689"><ele>721.0</ele><time>2026-05-03T09:11:50.97Z</time></trkpt><trkpt lat="45.92669120560228" lon="11.016509701356641"><ele>721.0</ele><time>2026-05-03T09:11:51.97Z</time></trkpt><trkpt lat="45.92688864454423" lon="11.016527055993567"><ele>721.0</ele><time>2026-05-03T09:11:52.97Z</time></trkpt><trkpt lat="45.92706826520036" lon="11.016543215329378"><ele>720.5</ele><time>2026-05-03T09:11:53.97Z</time></trkpt><trkpt lat="45.92723153176338" lon="11.016560810172964"><ele>720.0</ele><time>2026-05-03T09:11:54.97Z</time></trkpt><trkpt lat="45.92737054159404" lon="11.016598919628741"><ele>719.5</ele><time>2026-05-03T09:11:55.97Z</time></trkpt><trkpt lat="45.92749708990106" lon="11.016657037386011"><ele>719.0</ele><time>2026-05-03T09:11:56.97Z</time></trkpt><trkpt lat="45.92758918562525" lon="11.016735220465051"><ele>720.0</ele><time>2026-05-03T09:11:57.97Z</time></trkpt><trkpt lat="45.92767235042128" lon="11.016801489792833"><ele>721.0</ele><time>2026-05-03T09:11:58.97Z</time></trkpt><trkpt lat="45.92775699724901" lon="11.01681935278556"><ele>722.0</ele><time>2026-05-03T09:11:59.97Z</time></trkpt><trkpt lat="45.92783326563819" lon="11.016783648801423"><ele>723.0</ele><time>2026-05-03T09:12:00.97Z</time></trkpt><trkpt lat="45.9278667188202" lon="11.016684619034166"><ele>724.0</ele><time>2026-05-03T09:12:01.97Z</time></trkpt><trkpt lat="45.92785417533983" lon="11.016554310952161"><ele>725.0</ele><time>2026-05-03T09:12:02.97Z</time></trkpt><trkpt lat="45.92780329943436" lon="11.016445063255327"><ele>727.0</ele><time>2026-05-03T09:12:03.97Z</time></trkpt><trkpt lat="45.927674439009934" lon="11.016422671499456"><ele>729.0</ele><time>2026-05-03T09:12:04.97Z</time></trkpt><trkpt lat="45.92755067751082" lon="11.016337619364029"><ele>731.0</ele><time>2026-05-03T09:12:05.97Z</time></trkpt><trkpt lat="45.92743353544974" lon="11.01623557358671"><ele>733.0</ele><time>2026-05-03T09:12:06.97Z</time></trkpt><trkpt lat="45.927331481186926" lon="11.016091327522581"><ele>733.0</ele><time>2026-05-03T09:12:07.97Z</time></trkpt><trkpt lat="45.927229009692375" lon="11.01592374739683"><ele>733.0</ele><time>2026-05-03T09:12:08.97Z</time></trkpt><trkpt lat="45.92711991203394" lon="11.015741524221571"><ele>733.0</ele><time>2026-05-03T09:12:09.97Z</time></trkpt><trkpt lat="45.926993303050544" lon="11.01555199485904"><ele>734.0</ele><time>2026-05-03T09:12:10.97Z</time></trkpt><trkpt lat="45.92685105242115" lon="11.015379508304335"><ele>735.0</ele><time>2026-05-03T09:12:11.97Z</time></trkpt><trkpt lat="45.92670386963887" lon="11.015223243976948"><ele>736.0</ele><time>2026-05-03T09:12:12.97Z</time></trkpt><trkpt lat="45.92657169568033" lon="11.015064640312248"><ele>741.0</ele><time>2026-05-03T09:12:13.97Z</time></trkpt><trkpt lat="45.926452160222716" lon="11.01486788536766"><ele>746.0</ele><time>2026-05-03T09:12:14.97Z</time></trkpt><trkpt lat="45.92634431897448" lon="11.014625316738003"><ele>751.0</ele><time>2026-05-03T09:12:15.97Z</time></trkpt><trkpt lat="45.92624311559811" lon="11.014369762134281"><ele>756.0</ele><time>2026-05-03T09:12:16.97Z</time></trkpt><trkpt lat="45.92613065318054" lon="11.014104704342959"><ele>761.0</ele><time>2026-05-03T09:12:17.97Z</time></trkpt><trkpt lat="45.92601788838682" lon="11.01386449001132"><ele>766.0</ele><time>2026-05-03T09:12:18.97Z</time></trkpt><trkpt lat="45.92590829984012" lon="11.013661110050169"><ele>764.6666666666667</ele><time>2026-05-03T09:12:19.97Z</time></trkpt><trkpt lat="45.925805443844375" lon="11.013479792793351"><ele>763.3333333333334</ele><time>2026-05-03T09:12:20.97Z</time></trkpt><trkpt lat="45.92570203024074" lon="11.013298632625487"><ele>762.0</ele><time>2026-05-03T09:12:21.97Z</time></trkpt><trkpt lat="45.92560764610686" lon="11.013134133176491"><ele>762.0</ele><time>2026-05-03T09:12:22.97Z</time></trkpt><trkpt lat="45.925522439902196" lon="11.01298619345328"><ele>762.0</ele><time>2026-05-03T09:12:23.97Z</time></trkpt><trkpt lat="45.9254278393508" lon="11.012853743243546"><ele>762.0</ele><time>2026-05-03T09:12:24.97Z</time></trkpt><trkpt lat="45.92535615431741" lon="11.012681233697213"><ele>762.0</ele><time>2026-05-03T09:12:25.97Z</time></trkpt><trkpt lat="45.92528557563153" lon="11.012505772849751"><ele>764.0</ele><time>2026-05-03T09:12:26.97Z</time></trkpt><trkpt lat="45.92523623297609" lon="11.012308025888007"><ele>766.0</ele><time>2026-05-03T09:12:27.97Z</time></trkpt><trkpt lat="45.92523562178835" lon="11.012087347516335"><ele>768.0</ele><time>2026-05-03T09:12:28.97Z</time></trkpt><trkpt lat="45.92526999793397" lon="11.011866449391873"><ele>768.0</ele><time>2026-05-03T09:12:29.97Z</time></trkpt><trkpt lat="45.925329037470114" lon="11.011665851395735"><ele>768.0</ele><time>2026-05-03T09:12:30.97Z</time></trkpt><trkpt lat="45.92539321727978" lon="11.011481261597714"><ele>768.0</ele><time>2026-05-03T09:12:31.97Z</time></trkpt><trkpt lat="45.92542594357144" lon="11.011301067069557"><ele>768.0</ele><time>2026-05-03T09:12:32.971Z</time></trkpt><trkpt lat="45.92541609772905" lon="11.011111911990259"><ele>770.6666666666667</ele><time>2026-05-03T09:12:33.971Z</time></trkpt><trkpt lat="45.925369507210156" lon="11.01089561779915"><ele>773.3333333333334</ele><time>2026-05-03T09:12:34.971Z</time></trkpt><trkpt lat="45.925298603242716" lon="11.010666684826315"><ele>776.0</ele><time>2026-05-03T09:12:35.971Z</time></trkpt><trkpt lat="45.92523014420411" lon="11.010406705251398"><ele>777.6666666666667</ele><time>2026-05-03T09:12:36.971Z</time></trkpt><trkpt lat="45.925158798068814" lon="11.010156080302753"><ele>779.3333333333333</ele><time>2026-05-03T09:12:37.97Z</time></trkpt><trkpt lat="45.92509366824902" lon="11.009936270807941"><ele>781.0</ele><time>2026-05-03T09:12:38.97Z</time></trkpt><trkpt lat="45.925029145806306" lon="11.009737327097676"><ele>781.0</ele><time>2026-05-03T09:12:39.97Z</time></trkpt><trkpt lat="45.924966121396594" lon="11.009556738480983"><ele>781.0</ele><time>2026-05-03T09:12:40.97Z</time></trkpt><trkpt lat="45.924888700627086" lon="11.009389715811533"><ele>781.0</ele><time>2026-05-03T09:12:41.97Z</time></trkpt><trkpt lat="45.924793794829945" lon="11.009233937771754"><ele>781.0</ele><time>2026-05-03T09:12:42.97Z</time></trkpt><trkpt lat="45.92468427946976" lon="11.009087738329251"><ele>784.6666666666666</ele><time>2026-05-03T09:12:43.97Z</time></trkpt><trkpt lat="45.924554084090744" lon="11.008960270916825"><ele>788.3333333333333</ele><time>2026-05-03T09:12:44.97Z</time></trkpt><trkpt lat="45.92441663722935" lon="11.008853007225886"><ele>792.0</ele><time>2026-05-03T09:12:45.97Z</time></trkpt><trkpt lat="45.92429077259924" lon="11.008767175986158"><ele>789.25</ele><time>2026-05-03T09:12:46.97Z</time></trkpt><trkpt lat="45.92417625091348" lon="11.008686657043828"><ele>786.5</ele><time>2026-05-03T09:12:47.97Z</time></trkpt><trkpt lat="45.92406178825033" lon="11.008616716264225"><ele>783.75</ele><time>2026-05-03T09:12:48.97Z</time></trkpt><trkpt lat="45.92395040156186" lon="11.008539919167825"><ele>781.0</ele><time>2026-05-03T09:12:49.97Z</time></trkpt><trkpt lat="45.92383943347146" lon="11.008461581542976"><ele>781.0</ele><time>2026-05-03T09:12:50.97Z</time></trkpt><trkpt lat="45.923729163995105" lon="11.008383361246231"><ele>781.0</ele><time>2026-05-03T09:12:51.97Z</time></trkpt><trkpt lat="45.92361856240048" lon="11.008302894234284"><ele>781.0</ele><time>2026-05-03T09:12:52.97Z</time></trkpt><trkpt lat="45.92350985090879" lon="11.008221724869635"><ele>781.0</ele><time>2026-05-03T09:12:53.97Z</time></trkpt><trkpt lat="45.92342468411036" lon="11.008128457010232"><ele>782.4</ele><time>2026-05-03T09:12:54.97Z</time></trkpt><trkpt lat="45.923385993692044" lon="11.00800886660977"><ele>783.8</ele><time>2026-05-03T09:12:55.97Z</time></trkpt><trkpt lat="45.92339796046407" lon="11.00787531685742"><ele>785.1999999999999</ele><time>2026-05-03T09:12:56.97Z</time></trkpt><trkpt lat="45.923456491666464" lon="11.007757240756884"><ele>786.5999999999999</ele><time>2026-05-03T09:12:57.97Z</time></trkpt><trkpt lat="45.92354782313016" lon="11.007689569346914"><ele>788.0</ele><time>2026-05-03T09:12:58.97Z</time></trkpt><trkpt lat="45.923660840238796" lon="11.007684291716352"><ele>789.5</ele><time>2026-05-03T09:12:59.97Z</time></trkpt><trkpt lat="45.92378242785735" lon="11.007729892170044"><ele>791.0</ele><time>2026-05-03T09:13:00.97Z</time></trkpt><trkpt lat="45.923920720189834" lon="11.007799430779949"><ele>792.5</ele><time>2026-05-03T09:13:01.97Z</time></trkpt><trkpt lat="45.92407528910347" lon="11.007864167330197"><ele>794.0</ele><time>2026-05-03T09:13:02.97Z</time></trkpt><trkpt lat="45.9242476561565" lon="11.007925461496077"><ele>797.3333333333334</ele><time>2026-05-03T09:13:03.97Z</time></trkpt><trkpt lat="45.92441687428356" lon="11.00799256386301"><ele>800.6666666666667</ele><time>2026-05-03T09:13:04.97Z</time></trkpt><trkpt lat="45.92457521694212" lon="11.008048100245148"><ele>804.0</ele><time>2026-05-03T09:13:05.97Z</time></trkpt><trkpt lat="45.924715418642904" lon="11.00810550500361"><ele>804.0</ele><time>2026-05-03T09:13:06.97Z</time></trkpt><trkpt lat="45.92484068377371" lon="11.00817739548876"><ele>804.0</ele><time>2026-05-03T09:13:07.97Z</time></trkpt><trkpt lat="45.92494284544158" lon="11.0082786729559"><ele>804.0</ele><time>2026-05-03T09:13:08.97Z</time></trkpt><trkpt lat="45.925027507543064" lon="11.008418327342373"><ele>804.0</ele><time>2026-05-03T09:13:09.97Z</time></trkpt><trkpt lat="45.925113593880845" lon="11.008574956187559"><ele>804.0</ele><time>2026-05-03T09:13:10.97Z</time></trkpt><trkpt lat="45.92520344781881" lon="11.008725610132549"><ele>804.0</ele><time>2026-05-03T09:13:11.97Z</time></trkpt><trkpt lat="45.92530160561274" lon="11.008887268590646"><ele>804.0</ele><time>2026-05-03T09:13:12.97Z</time></trkpt><trkpt lat="45.92539815898728" lon="11.009039499994332"><ele>804.0</ele><time>2026-05-03T09:13:13.97Z</time></trkpt><trkpt lat="45.9254995910239" lon="11.009175449092124"><ele>804.0</ele><time>2026-05-03T09:13:14.97Z</time></trkpt><trkpt lat="45.92559846183235" lon="11.009308717267729"><ele>804.0</ele><time>2026-05-03T09:13:15.97Z</time></trkpt><trkpt lat="45.92571835554749" lon="11.00942868041383"><ele>804.0</ele><time>2026-05-03T09:13:16.97Z</time></trkpt><trkpt lat="45.92583779516685" lon="11.009540400960285"><ele>804.0</ele><time>2026-05-03T09:13:17.97Z</time></trkpt><trkpt lat="45.92596979989736" lon="11.009630794569551"><ele>807.75</ele><time>2026-05-03T09:13:18.97Z</time></trkpt><trkpt lat="45.926084375356446" lon="11.009728007983968"><ele>811.5</ele><time>2026-05-03T09:13:19.97Z</time></trkpt><trkpt lat="45.92618686664225" lon="11.009830833111716"><ele>815.25</ele><time>2026-05-03T09:13:20.97Z</time></trkpt><trkpt lat="45.926276534327286" lon="11.009965742827744"><ele>819.0</ele><time>2026-05-03T09:13:21.97Z</time></trkpt><trkpt lat="45.9263464200265" lon="11.01009446271257"><ele>819.0</ele><time>2026-05-03T09:13:22.97Z</time></trkpt><trkpt lat="45.926404240215206" lon="11.010200919606122"><ele>819.0</ele><time>2026-05-03T09:13:23.97Z</time></trkpt><trkpt lat="45.92645418761985" lon="11.010284424513493"><ele>819.0</ele><time>2026-05-03T09:13:24.97Z</time></trkpt><trkpt lat="45.92650397449842" lon="11.010354452133386"><ele>819.0</ele><time>2026-05-03T09:13:25.97Z</time></trkpt><trkpt lat="45.92657216417805" lon="11.010381283069421"><ele>819.0</ele><time>2026-05-03T09:13:26.97Z</time></trkpt><trkpt lat="45.9266382337159" lon="11.010351939133692"><ele>819.0</ele><time>2026-05-03T09:13:27.97Z</time></trkpt><trkpt lat="45.926705502884914" lon="11.010308949159032"><ele>819.0</ele><time>2026-05-03T09:13:28.97Z</time></trkpt><trkpt lat="45.92668906260523" lon="11.010112731195107"><ele>819.0</ele><time>2026-05-03T09:13:29.97Z</time></trkpt><trkpt lat="45.9266408726497" lon="11.009984880364968"><ele>819.0</ele><time>2026-05-03T09:13:30.97Z</time></trkpt><trkpt lat="45.92655555320346" lon="11.009862110213534"><ele>819.0</ele><time>2026-05-03T09:13:31.97Z</time></trkpt><trkpt lat="45.92647412635904" lon="11.009729850855397"><ele>821.1666666666666</ele><time>2026-05-03T09:13:32.97Z</time></trkpt><trkpt lat="45.92642717310419" lon="11.009580843134406"><ele>823.3333333333333</ele><time>2026-05-03T09:13:33.97Z</time></trkpt><trkpt lat="45.92637675573813" lon="11.009470109419498"><ele>825.5</ele><time>2026-05-03T09:13:34.97Z</time></trkpt><trkpt lat="45.9263338209973" lon="11.009390522352378"><ele>827.6666666666666</ele><time>2026-05-03T09:13:35.97Z</time></trkpt><trkpt lat="45.92629165206326" lon="11.00931901938754"><ele>829.8333333333333</ele><time>2026-05-03T09:13:36.97Z</time></trkpt><trkpt lat="45.92624875633583" lon="11.009239249279535"><ele>832.0</ele><time>2026-05-03T09:13:37.97Z</time></trkpt><trkpt lat="45.92620073515672" lon="11.009154272813372"><ele>832.9999999999999</ele><time>2026-05-03T09:13:38.97Z</time></trkpt><trkpt lat="45.92615906736021" lon="11.009072882871354"><ele>834.0</ele><time>2026-05-03T09:13:39.97Z</time></trkpt><trkpt lat="45.926113421650754" lon="11.008989450094832"><ele>835.0</ele><time>2026-05-03T09:13:40.97Z</time></trkpt><trkpt lat="45.92606089459615" lon="11.008882292199807"><ele>836.0</ele><time>2026-05-03T09:13:41.97Z</time></trkpt><trkpt lat="45.92601085805348" lon="11.008761832769087"><ele>836.9999999999999</ele><time>2026-05-03T09:13:42.97Z</time></trkpt><trkpt lat="45.925971596839126" lon="11.0086161478568"><ele>838.0</ele><time>2026-05-03T09:13:43.97Z</time></trkpt><trkpt lat="45.92594659251879" lon="11.008451591120417"><ele>838.2</ele><time>2026-05-03T09:13:44.97Z</time></trkpt><trkpt lat="45.92594731056699" lon="11.008286978947744"><ele>838.4</ele><time>2026-05-03T09:13:45.97Z</time></trkpt><trkpt lat="45.92595960841753" lon="11.008135384463445"><ele>838.6</ele><time>2026-05-03T09:13:46.97Z</time></trkpt><trkpt lat="45.92598960453236" lon="11.00800190964566"><ele>838.8000000000001</ele><time>2026-05-03T09:13:47.97Z</time></trkpt><trkpt lat="45.92602074732326" lon="11.007881136051015"><ele>839.0</ele><time>2026-05-03T09:13:48.97Z</time></trkpt><trkpt lat="45.926046670704025" lon="11.007751381395252"><ele>839.0</ele><time>2026-05-03T09:13:49.97Z</time></trkpt><trkpt lat="45.92606980178038" lon="11.007610815218076"><ele>839.0</ele><time>2026-05-03T09:13:50.97Z</time></trkpt><trkpt lat="45.92609463763015" lon="11.007459868058573"><ele>839.0</ele><time>2026-05-03T09:13:51.97Z</time></trkpt><trkpt lat="45.92611870297938" lon="11.007306297464693"><ele>839.0</ele><time>2026-05-03T09:13:52.97Z</time></trkpt><trkpt lat="45.926167946758675" lon="11.007156423085899"><ele>839.0</ele><time>2026-05-03T09:13:53.97Z</time></trkpt><trkpt lat="45.92620530389934" lon="11.007006544693285"><ele>839.2</ele><time>2026-05-03T09:13:54.97Z</time></trkpt><trkpt lat="45.92623365899209" lon="11.006864939650168"><ele>839.4000000000001</ele><time>2026-05-03T09:13:55.97Z</time></trkpt><trkpt lat="45.926262677763766" lon="11.006736127734548"><ele>839.6</ele><time>2026-05-03T09:13:56.97Z</time></trkpt><trkpt lat="45.92628539825259" lon="11.006620943984151"><ele>839.8</ele><time>2026-05-03T09:13:57.97Z</time></trkpt><trkpt lat="45.92629533566937" lon="11.006499394100741"><ele>840.0</ele><time>2026-05-03T09:13:58.97Z</time></trkpt><trkpt lat="45.92629778846248" lon="11.00636019217445"><ele>840.6</ele><time>2026-05-03T09:13:59.97Z</time></trkpt><trkpt lat="45.92628232397886" lon="11.00620838329124"><ele>841.2</ele><time>2026-05-03T09:14:00.97Z</time></trkpt><trkpt lat="45.926254893556" lon="11.006065037039248"><ele>841.8</ele><time>2026-05-03T09:14:01.97Z</time></trkpt><trkpt lat="45.92621545331081" lon="11.005947030982597"><ele>842.4</ele><time>2026-05-03T09:14:02.97Z</time></trkpt><trkpt lat="45.926176151516295" lon="11.005843684714637"><ele>843.0</ele><time>2026-05-03T09:14:03.97Z</time></trkpt><trkpt lat="45.926132061461956" lon="11.005741915788427"><ele>844.8333333333334</ele><time>2026-05-03T09:14:04.97Z</time></trkpt><trkpt lat="45.92608659050175" lon="11.005632375274532"><ele>846.6666666666667</ele><time>2026-05-03T09:14:05.97Z</time></trkpt><trkpt lat="45.92605079412891" lon="11.005530792529425"><ele>848.5</ele><time>2026-05-03T09:14:06.969Z</time></trkpt><trkpt lat="45.92601302436395" lon="11.00544752558026"><ele>850.3333333333334</ele><time>2026-05-03T09:14:07.969Z</time></trkpt><trkpt lat="45.92597555216939" lon="11.005368037634192"><ele>852.1666666666667</ele><time>2026-05-03T09:14:08.969Z</time></trkpt><trkpt lat="45.92594057959931" lon="11.005275196174667"><ele>854.0</ele><time>2026-05-03T09:14:09.969Z</time></trkpt><trkpt lat="45.92589965319587" lon="11.005182251884978"><ele>853.6666666666667</ele><time>2026-05-03T09:14:10.969Z</time></trkpt><trkpt lat="45.92585940376857" lon="11.005073816546899"><ele>853.3333333333334</ele><time>2026-05-03T09:14:11.969Z</time></trkpt><trkpt lat="45.925812642568545" lon="11.004963605165326"><ele>853.0</ele><time>2026-05-03T09:14:12.969Z</time></trkpt><trkpt lat="45.925786680835664" lon="11.004853013445455"><ele>852.6666666666667</ele><time>2026-05-03T09:14:13.969Z</time></trkpt><trkpt lat="45.92579628453414" lon="11.004758095793404"><ele>852.3333333333334</ele><time>2026-05-03T09:14:14.969Z</time></trkpt><trkpt lat="45.9258481477938" lon="11.004697313871413"><ele>852.0</ele><time>2026-05-03T09:14:15.969Z</time></trkpt><trkpt lat="45.925928593319206" lon="11.004693211924879"><ele>852.5</ele><time>2026-05-03T09:14:16.969Z</time></trkpt><trkpt lat="45.926012948713435" lon="11.004755136400469"><ele>853.0</ele><time>2026-05-03T09:14:17.969Z</time></trkpt><trkpt lat="45.92611103752916" lon="11.00483633505868"><ele>853.5</ele><time>2026-05-03T09:14:18.969Z</time></trkpt><trkpt lat="45.92622428618238" lon="11.004924585137646"><ele>854.0</ele><time>2026-05-03T09:14:19.969Z</time></trkpt><trkpt lat="45.92636915598791" lon="11.00502662479859"><ele>854.0</ele><time>2026-05-03T09:14:20.969Z</time></trkpt><trkpt lat="45.92653903675255" lon="11.005137516262655"><ele>854.0</ele><time>2026-05-03T09:14:21.969Z</time></trkpt><trkpt lat="45.926708978365035" lon="11.005250107692422"><ele>854.0</ele><time>2026-05-03T09:14:22.969Z</time></trkpt><trkpt lat="45.92685310261684" lon="11.00537965267808"><ele>858.6666666666667</ele><time>2026-05-03T09:14:23.969Z</time></trkpt><trkpt lat="45.92698107277917" lon="11.005492496414703"><ele>863.3333333333333</ele><time>2026-05-03T09:14:24.969Z</time></trkpt><trkpt lat="45.92709440838401" lon="11.005654038335788"><ele>868.0</ele><time>2026-05-03T09:14:25.969Z</time></trkpt><trkpt lat="45.92721652137565" lon="11.00582209476507"><ele>871.3333333333333</ele><time>2026-05-03T09:14:26.969Z</time></trkpt><trkpt lat="45.927349524161826" lon="11.006018436754404"><ele>874.6666666666667</ele><time>2026-05-03T09:14:27.969Z</time></trkpt><trkpt lat="45.927497285843785" lon="11.006236567649635"><ele>878.0</ele><time>2026-05-03T09:14:28.969Z</time></trkpt><trkpt lat="45.927663505184746" lon="11.006479727420308"><ele>875.0</ele><time>2026-05-03T09:14:29.969Z</time></trkpt><trkpt lat="45.92784346745658" lon="11.006718920932222"><ele>872.0</ele><time>2026-05-03T09:14:30.971Z</time></trkpt><trkpt lat="45.92798053580771" lon="11.006958706040377"><ele>872.0</ele><time>2026-05-03T09:14:31.971Z</time></trkpt><trkpt lat="45.928118170442275" lon="11.007169682409915"><ele>872.0</ele><time>2026-05-03T09:14:32.971Z</time></trkpt><trkpt lat="45.92824578980825" lon="11.007357619016217"><ele>872.0</ele><time>2026-05-03T09:14:33.971Z</time></trkpt><trkpt lat="45.9283603006143" lon="11.007521274641435"><ele>873.6666666666667</ele><time>2026-05-03T09:14:34.97Z</time></trkpt><trkpt lat="45.92847516163407" lon="11.007666493600963"><ele>875.3333333333333</ele><time>2026-05-03T09:14:35.97Z</time></trkpt><trkpt lat="45.92861553979747" lon="11.007773576701503"><ele>877.0</ele><time>2026-05-03T09:14:36.97Z</time></trkpt><trkpt lat="45.92878128414548" lon="11.007828626321576"><ele>877.0</ele><time>2026-05-03T09:14:37.97Z</time></trkpt><trkpt lat="45.92895715153259" lon="11.00782937863063"><ele>877.0</ele><time>2026-05-03T09:14:38.97Z</time></trkpt><trkpt lat="45.92915579944473" lon="11.007786029799695"><ele>877.0</ele><time>2026-05-03T09:14:39.97Z</time></trkpt><trkpt lat="45.92938360852284" lon="11.007709385705112"><ele>879.6666666666666</ele><time>2026-05-03T09:14:40.97Z</time></trkpt><trkpt lat="45.92961717608998" lon="11.00763442000482"><ele>882.3333333333333</ele><time>2026-05-03T09:14:41.97Z</time></trkpt><trkpt lat="45.92982176842933" lon="11.007567932791472"><ele>885.0</ele><time>2026-05-03T09:14:42.971Z</time></trkpt><trkpt lat="45.93001099880516" lon="11.007505430813874"><ele>891.6666666666667</ele><time>2026-05-03T09:14:43.971Z</time></trkpt><trkpt lat="45.93018537476243" lon="11.007453769756365"><ele>898.3333333333334</ele><time>2026-05-03T09:14:44.971Z</time></trkpt><trkpt lat="45.93034386379733" lon="11.007420263199693"><ele>905.0</ele><time>2026-05-03T09:14:45.97Z</time></trkpt><trkpt lat="45.930487399695146" lon="11.007383599535247"><ele>905.0</ele><time>2026-05-03T09:14:46.97Z</time></trkpt><trkpt lat="45.930628729710044" lon="11.007342536702556"><ele>905.0</ele><time>2026-05-03T09:14:47.97Z</time></trkpt><trkpt lat="45.93076674637451" lon="11.007305440394585"><ele>905.0</ele><time>2026-05-03T09:14:48.97Z</time></trkpt><trkpt lat="45.930892963640964" lon="11.007260945120734"><ele>905.0</ele><time>2026-05-03T09:14:49.97Z</time></trkpt><trkpt lat="45.93100159356213" lon="11.007235406790217"><ele>907.4</ele><time>2026-05-03T09:14:50.97Z</time></trkpt><trkpt lat="45.93109973958272" lon="11.007212138660236"><ele>909.8</ele><time>2026-05-03T09:14:51.97Z</time></trkpt><trkpt lat="45.93119764347389" lon="11.007193720981029"><ele>912.2</ele><time>2026-05-03T09:14:52.97Z</time></trkpt><trkpt lat="45.93130374670442" lon="11.007184069546335"><ele>914.6</ele><time>2026-05-03T09:14:53.97Z</time></trkpt><trkpt lat="45.9314081328898" lon="11.007179491423479"><ele>917.0</ele><time>2026-05-03T09:14:54.97Z</time></trkpt><trkpt lat="45.93150639763155" lon="11.00718153870646"><ele>917.0</ele><time>2026-05-03T09:14:55.97Z</time></trkpt><trkpt lat="45.93157790761069" lon="11.007203535221619"><ele>917.0</ele><time>2026-05-03T09:14:56.97Z</time></trkpt><trkpt lat="45.931621985763655" lon="11.006952794982332"><ele>917.0</ele><time>2026-05-03T09:14:59.97Z</time></trkpt><trkpt lat="45.93156392465801" lon="11.006876100460994"><ele>917.0</ele><time>2026-05-03T09:15:00.97Z</time></trkpt><trkpt lat="45.931486788193794" lon="11.006792701436646"><ele>917.0</ele><time>2026-05-03T09:15:01.97Z</time></trkpt><trkpt lat="45.93139096409271" lon="11.006707575508248"><ele>921.75</ele><time>2026-05-03T09:15:02.97Z</time></trkpt><trkpt lat="45.93126307442249" lon="11.006607294765654"><ele>926.5</ele><time>2026-05-03T09:15:03.97Z</time></trkpt><trkpt lat="45.931144514056946" lon="11.006512404977054"><ele>931.25</ele><time>2026-05-03T09:15:04.97Z</time></trkpt><trkpt lat="45.93102933521812" lon="11.006410114804053"><ele>936.0</ele><time>2026-05-03T09:15:05.97Z</time></trkpt><trkpt lat="45.93090464784667" lon="11.006315034831673"><ele>931.3333333333333</ele><time>2026-05-03T09:15:06.97Z</time></trkpt><trkpt lat="45.93077371365375" lon="11.006221625833833"><ele>926.6666666666666</ele><time>2026-05-03T09:15:07.97Z</time></trkpt><trkpt lat="45.93062990686111" lon="11.006128904195826"><ele>922.0</ele><time>2026-05-03T09:15:08.97Z</time></trkpt><trkpt lat="45.93047877980952" lon="11.006039668889985"><ele>922.0</ele><time>2026-05-03T09:15:09.97Z</time></trkpt><trkpt lat="45.93033121187754" lon="11.00592941656045"><ele>922.0</ele><time>2026-05-03T09:15:10.97Z</time></trkpt><trkpt lat="45.93017975762343" lon="11.005801021303803"><ele>922.0</ele><time>2026-05-03T09:15:11.97Z</time></trkpt><trkpt lat="45.93001809265531" lon="11.00567554966476"><ele>925.0</ele><time>2026-05-03T09:15:12.97Z</time></trkpt><trkpt lat="45.92986969131192" lon="11.00552613451657"><ele>928.0</ele><time>2026-05-03T09:15:13.97Z</time></trkpt><trkpt lat="45.9297360550077" lon="11.00535080957769"><ele>931.0</ele><time>2026-05-03T09:15:14.97Z</time></trkpt><trkpt lat="45.929640508217496" lon="11.005121982555115"><ele>937.6666666666666</ele><time>2026-05-03T09:15:15.97Z</time></trkpt><trkpt lat="45.92957126735433" lon="11.004853295149633"><ele>944.3333333333333</ele><time>2026-05-03T09:15:16.97Z</time></trkpt><trkpt lat="45.92952663862575" lon="11.004597917844984"><ele>951.0</ele><time>2026-05-03T09:15:17.97Z</time></trkpt><trkpt lat="45.929470572611656" lon="11.0043576576965"><ele>951.0</ele><time>2026-05-03T09:15:18.97Z</time></trkpt><trkpt lat="45.92936579252454" lon="11.004104259608251"><ele>951.0</ele><time>2026-05-03T09:15:19.97Z</time></trkpt><trkpt lat="45.92922166515909" lon="11.003876532473681"><ele>951.0</ele><time>2026-05-03T09:15:20.97Z</time></trkpt><trkpt lat="45.92904220033074" lon="11.003679632608142"><ele>951.0</ele><time>2026-05-03T09:15:21.97Z</time></trkpt><trkpt lat="45.9288545157186" lon="11.003516214872608"><ele>951.0</ele><time>2026-05-03T09:15:22.97Z</time></trkpt><trkpt lat="45.92868880198194" lon="11.00336922574314"><ele>951.0</ele><time>2026-05-03T09:15:23.97Z</time></trkpt><trkpt lat="45.92853686978685" lon="11.003227135384762"><ele>952.5999999999999</ele><time>2026-05-03T09:15:24.97Z</time></trkpt><trkpt lat="45.9284015543704" lon="11.00310516974585"><ele>954.1999999999999</ele><time>2026-05-03T09:15:25.97Z</time></trkpt><trkpt lat="45.92830741093441" lon="11.003005429644181"><ele>955.8000000000001</ele><time>2026-05-03T09:15:26.97Z</time></trkpt><trkpt lat="45.9282573913729" lon="11.00290553479792"><ele>957.4000000000001</ele><time>2026-05-03T09:15:27.97Z</time></trkpt><trkpt lat="45.92823092451423" lon="11.002794637251714"><ele>959.0</ele><time>2026-05-03T09:15:28.97Z</time></trkpt><trkpt lat="45.928335352458234" lon="11.002686540993473"><ele>964.0</ele><time>2026-05-03T09:15:30.97Z</time></trkpt><trkpt lat="45.92842977377815" lon="11.00272814793985"><ele>969.0</ele><time>2026-05-03T09:15:31.97Z</time></trkpt><trkpt lat="45.9285292683411" lon="11.002829336309599"><ele>974.0</ele><time>2026-05-03T09:15:32.97Z</time></trkpt><trkpt lat="45.92866839291211" lon="11.00291505985376"><ele>979.0</ele><time>2026-05-03T09:15:33.97Z</time></trkpt><trkpt lat="45.92882117883597" lon="11.002976698905147"><ele>979.0</ele><time>2026-05-03T09:15:34.97Z</time></trkpt><trkpt lat="45.928987473885115" lon="11.003027907320964"><ele>979.0</ele><time>2026-05-03T09:15:35.97Z</time></trkpt><trkpt lat="45.92916276475763" lon="11.003083430306603"><ele>979.0</ele><time>2026-05-03T09:15:36.97Z</time></trkpt><trkpt lat="45.92932861369455" lon="11.003174369016397"><ele>975.6666666666666</ele><time>2026-05-03T09:15:37.97Z</time></trkpt><trkpt lat="45.92947580943185" lon="11.003321166639505"><ele>972.3333333333333</ele><time>2026-05-03T09:15:38.97Z</time></trkpt><trkpt lat="45.929610648115585" lon="11.003521934700618"><ele>969.0</ele><time>2026-05-03T09:15:39.97Z</time></trkpt><trkpt lat="45.92974479117307" lon="11.003713373911001"><ele>969.0</ele><time>2026-05-03T09:15:40.97Z</time></trkpt><trkpt lat="45.92989873238696" lon="11.003858107210007"><ele>969.0</ele><time>2026-05-03T09:15:41.97Z</time></trkpt><trkpt lat="45.930052912063424" lon="11.0039571455838"><ele>969.0</ele><time>2026-05-03T09:15:42.97Z</time></trkpt><trkpt lat="45.930231812962255" lon="11.004001542390416"><ele>971.6666666666667</ele><time>2026-05-03T09:15:43.97Z</time></trkpt><trkpt lat="45.93041863766666" lon="11.003985012907664"><ele>974.3333333333334</ele><time>2026-05-03T09:15:44.97Z</time></trkpt><trkpt lat="45.93060492751809" lon="11.003936236571713"><ele>977.0</ele><time>2026-05-03T09:15:45.97Z</time></trkpt><trkpt lat="45.93079437181815" lon="11.00393532121401"><ele>978.0</ele><time>2026-05-03T09:15:46.97Z</time></trkpt><trkpt lat="45.93095527381356" lon="11.003995303562252"><ele>979.0</ele><time>2026-05-03T09:15:47.97Z</time></trkpt><trkpt lat="45.931111334380574" lon="11.004136746985953"><ele>980.0</ele><time>2026-05-03T09:15:48.97Z</time></trkpt><trkpt lat="45.931272708711695" lon="11.0043019387896"><ele>980.0</ele><time>2026-05-03T09:15:49.97Z</time></trkpt><trkpt lat="45.93141749097679" lon="11.00443973633198"><ele>980.0</ele><time>2026-05-03T09:15:50.97Z</time></trkpt><trkpt lat="45.93156477775243" lon="11.004534321792823"><ele>980.0</ele><time>2026-05-03T09:15:51.97Z</time></trkpt><trkpt lat="45.93172976397055" lon="11.00457648068413"><ele>982.0</ele><time>2026-05-03T09:15:52.97Z</time></trkpt><trkpt lat="45.931895080688314" lon="11.00457497012894"><ele>984.0</ele><time>2026-05-03T09:15:53.97Z</time></trkpt><trkpt lat="45.93204833447754" lon="11.004569212527212"><ele>986.0</ele><time>2026-05-03T09:15:54.97Z</time></trkpt><trkpt lat="45.932170261543725" lon="11.004557787789127"><ele>988.0</ele><time>2026-05-03T09:15:55.97Z</time></trkpt><trkpt lat="45.932262704237935" lon="11.004515567846632"><ele>988.0</ele><time>2026-05-03T09:15:56.97Z</time></trkpt><trkpt lat="45.93231549513452" lon="11.004382986402538"><ele>988.0</ele><time>2026-05-03T09:15:57.97Z</time></trkpt><trkpt lat="45.932297426428974" lon="11.004243595000503"><ele>988.0</ele><time>2026-05-03T09:15:58.97Z</time></trkpt><trkpt lat="45.93220939883097" lon="11.004174536686701"><ele>988.0</ele><time>2026-05-03T09:15:59.97Z</time></trkpt><trkpt lat="45.93212389656873" lon="11.004151347477045"><ele>988.0</ele><time>2026-05-03T09:16:00.97Z</time></trkpt><trkpt lat="45.93201677312116" lon="11.004194120617463"><ele>988.0</ele><time>2026-05-03T09:16:01.97Z</time></trkpt><trkpt lat="45.931891680997836" lon="11.004237046742565"><ele>988.0</ele><time>2026-05-03T09:16:02.97Z</time></trkpt><trkpt lat="45.93175395563591" lon="11.004257552386424"><ele>988.0</ele><time>2026-05-03T09:16:03.97Z</time></trkpt><trkpt lat="45.931617628617104" lon="11.0042064637663"><ele>988.0</ele><time>2026-05-03T09:16:04.97Z</time></trkpt><trkpt lat="45.93151527498062" lon="11.004074252487484"><ele>991.5</ele><time>2026-05-03T09:16:05.97Z</time></trkpt><trkpt lat="45.93144825959304" lon="11.003919613528689"><ele>995.0</ele><time>2026-05-03T09:16:06.97Z</time></trkpt><trkpt lat="45.93140346028179" lon="11.003727536443137"><ele>998.5</ele><time>2026-05-03T09:16:07.97Z</time></trkpt><trkpt lat="45.93136287350122" lon="11.003492995137051"><ele>1002.0</ele><time>2026-05-03T09:16:08.97Z</time></trkpt><trkpt lat="45.931314764723965" lon="11.00325297071652"><ele>1007.3333333333333</ele><time>2026-05-03T09:16:09.97Z</time></trkpt><trkpt lat="45.93123051663174" lon="11.003029794924473"><ele>1012.6666666666666</ele><time>2026-05-03T09:16:10.97Z</time></trkpt><trkpt lat="45.931099480337984" lon="11.00284340947278"><ele>1018.0</ele><time>2026-05-03T09:16:11.97Z</time></trkpt><trkpt lat="45.93094500225629" lon="11.002701742805284"><ele>1011.3333333333333</ele><time>2026-05-03T09:16:12.97Z</time></trkpt><trkpt lat="45.93076211282583" lon="11.002648690676939"><ele>1004.6666666666667</ele><time>2026-05-03T09:16:13.97Z</time></trkpt><trkpt lat="45.930594922278026" lon="11.002612556424978"><ele>998.0</ele><time>2026-05-03T09:16:14.97Z</time></trkpt><trkpt lat="45.93044821230916" lon="11.002551320596124"><ele>998.0</ele><time>2026-05-03T09:16:15.97Z</time></trkpt><trkpt lat="45.93031966064767" lon="11.00250586590689"><ele>998.0</ele><time>2026-05-03T09:16:16.97Z</time></trkpt><trkpt lat="45.93020043939269" lon="11.00243967305117"><ele>998.0</ele><time>2026-05-03T09:16:17.97Z</time></trkpt><trkpt lat="45.930103104973874" lon="11.002344923989027"><ele>998.0</ele><time>2026-05-03T09:16:18.97Z</time></trkpt><trkpt lat="45.930000723112435" lon="11.002225166013712"><ele>1003.0</ele><time>2026-05-03T09:16:19.969Z</time></trkpt><trkpt lat="45.92988426142198" lon="11.002093376989487"><ele>1008.0</ele><time>2026-05-03T09:16:20.969Z</time></trkpt><trkpt lat="45.92976606061284" lon="11.00195834140846"><ele>1013.0</ele><time>2026-05-03T09:16:21.969Z</time></trkpt><trkpt lat="45.929665769495735" lon="11.001841229237517"><ele>1018.0</ele><time>2026-05-03T09:16:22.969Z</time></trkpt><trkpt lat="45.929585433434966" lon="11.001747733785292"><ele>1019.6666666666666</ele><time>2026-05-03T09:16:23.969Z</time></trkpt><trkpt lat="45.92951419952123" lon="11.001665223266924"><ele>1021.3333333333333</ele><time>2026-05-03T09:16:24.969Z</time></trkpt><trkpt lat="45.92945128600943" lon="11.001592350152768"><ele>1023.0</ele><time>2026-05-03T09:16:25.969Z</time></trkpt><trkpt lat="45.92939735350939" lon="11.001529879934592"><ele>1024.6666666666667</ele><time>2026-05-03T09:16:26.969Z</time></trkpt><trkpt lat="45.92934723529359" lon="11.001471827771889"><ele>1026.3333333333335</ele><time>2026-05-03T09:16:27.969Z</time></trkpt><trkpt lat="45.929254840178864" lon="11.00136480579927"><ele>1028.0</ele><time>2026-05-03T09:16:29.969Z</time></trkpt><trkpt lat="45.92920471104006" lon="11.001306740992241"><ele>1028.0</ele><time>2026-05-03T09:16:30.969Z</time></trkpt><trkpt lat="45.92913560896705" lon="11.001256120773466"><ele>1028.0</ele><time>2026-05-03T09:16:31.969Z</time></trkpt><trkpt lat="45.92906893746805" lon="11.001175244292284"><ele>1028.0</ele><time>2026-05-03T09:16:32.969Z</time></trkpt><trkpt lat="45.92899983225069" lon="11.00108052444442"><ele>1028.0</ele><time>2026-05-03T09:16:33.969Z</time></trkpt><trkpt lat="45.92891878325754" lon="11.00100561711435"><ele>1028.0</ele><time>2026-05-03T09:16:34.969Z</time></trkpt><trkpt lat="45.92882885458146" lon="11.000945873929368"><ele>1028.0</ele><time>2026-05-03T09:16:35.969Z</time></trkpt><trkpt lat="45.92873364272488" lon="11.000912835269911"><ele>1028.0</ele><time>2026-05-03T09:16:36.97Z</time></trkpt><trkpt lat="45.92861708446773" lon="11.000899802024424"><ele>1028.0</ele><time>2026-05-03T09:16:37.969Z</time></trkpt><trkpt lat="45.928499013756735" lon="11.000885980860012"><ele>1028.0</ele><time>2026-05-03T09:16:38.969Z</time></trkpt><trkpt lat="45.928377997789546" lon="11.000882592486017"><ele>1027.75</ele><time>2026-05-03T09:16:39.97Z</time></trkpt><trkpt lat="45.928257480044806" lon="11.000889749060152"><ele>1027.5</ele><time>2026-05-03T09:16:40.97Z</time></trkpt><trkpt lat="45.92814565832274" lon="11.000876293831963"><ele>1027.25</ele><time>2026-05-03T09:16:41.97Z</time></trkpt><trkpt lat="45.92803421439366" lon="11.000826018583222"><ele>1027.0</ele><time>2026-05-03T09:16:42.97Z</time></trkpt><trkpt lat="45.927940123127705" lon="11.000692243850617"><ele>1033.25</ele><time>2026-05-03T09:16:43.97Z</time></trkpt><trkpt lat="45.92786256361937" lon="11.000535554079633"><ele>1039.5</ele><time>2026-05-03T09:16:44.97Z</time></trkpt><trkpt lat="45.927791538971334" lon="11.00039826846708"><ele>1045.75</ele><time>2026-05-03T09:16:45.97Z</time></trkpt><trkpt lat="45.92771779703076" lon="11.00028193541602"><ele>1052.0</ele><time>2026-05-03T09:16:46.97Z</time></trkpt><trkpt lat="45.92765396172176" lon="11.000172171090203"><ele>1052.0</ele><time>2026-05-03T09:16:47.97Z</time></trkpt><trkpt lat="45.92759453635407" lon="11.000065500231509"><ele>1052.0</ele><time>2026-05-03T09:16:48.97Z</time></trkpt><trkpt lat="45.92754192460157" lon="10.999961887185606"><ele>1052.0</ele><time>2026-05-03T09:16:49.97Z</time></trkpt><trkpt lat="45.92750918798318" lon="10.999828780463973"><ele>1052.0</ele><time>2026-05-03T09:16:50.97Z</time></trkpt><trkpt lat="45.92750559968035" lon="10.999675256505068"><ele>1052.0</ele><time>2026-05-03T09:16:51.97Z</time></trkpt><trkpt lat="45.92752577724223" lon="10.999504741185108"><ele>1052.0</ele><time>2026-05-03T09:16:52.97Z</time></trkpt><trkpt lat="45.92756535802205" lon="10.999333584645886"><ele>1052.0</ele><time>2026-05-03T09:16:53.97Z</time></trkpt><trkpt lat="45.927616742988455" lon="10.999163477015715"><ele>1052.0</ele><time>2026-05-03T09:16:54.97Z</time></trkpt><trkpt lat="45.927634178838616" lon="10.998973132685109"><ele>1052.0</ele><time>2026-05-03T09:16:55.97Z</time></trkpt><trkpt lat="45.927642461392544" lon="10.998790552303635"><ele>1053.5</ele><time>2026-05-03T09:16:56.97Z</time></trkpt><trkpt lat="45.92761072504329" lon="10.998602649710397"><ele>1055.0</ele><time>2026-05-03T09:16:57.97Z</time></trkpt><trkpt lat="45.92754554638378" lon="10.998418352651807"><ele>1056.5</ele><time>2026-05-03T09:16:58.97Z</time></trkpt><trkpt lat="45.92748628200508" lon="10.998280313375732"><ele>1058.0</ele><time>2026-05-03T09:16:59.97Z</time></trkpt><trkpt lat="45.9274459397868" lon="10.998129128522471"><ele>1055.0</ele><time>2026-05-03T09:17:00.97Z</time></trkpt><trkpt lat="45.92738737571176" lon="10.997998388089346"><ele>1052.0</ele><time>2026-05-03T09:17:01.97Z</time></trkpt><trkpt lat="45.927330446063266" lon="10.997853349342268"><ele>1049.0</ele><time>2026-05-03T09:17:02.97Z</time></trkpt><trkpt lat="45.92726798407811" lon="10.997702980757127"><ele>1046.0</ele><time>2026-05-03T09:17:03.97Z</time></trkpt><trkpt lat="45.92719686606144" lon="10.997552505110942"><ele>1049.0</ele><time>2026-05-03T09:17:04.97Z</time></trkpt><trkpt lat="45.92713972755513" lon="10.997400883533674"><ele>1052.0</ele><time>2026-05-03T09:17:05.97Z</time></trkpt><trkpt lat="45.92707257686697" lon="10.997268737380637"><ele>1055.0</ele><time>2026-05-03T09:17:06.97Z</time></trkpt><trkpt lat="45.92700829873158" lon="10.997140296435585"><ele>1058.0</ele><time>2026-05-03T09:17:07.97Z</time></trkpt><trkpt lat="45.92692125949889" lon="10.997029623929127"><ele>1058.0</ele><time>2026-05-03T09:17:08.97Z</time></trkpt><trkpt lat="45.926814550839005" lon="10.99693351238577"><ele>1058.0</ele><time>2026-05-03T09:17:09.97Z</time></trkpt><trkpt lat="45.926686781568705" lon="10.996866049099932"><ele>1058.0</ele><time>2026-05-03T09:17:10.97Z</time></trkpt><trkpt lat="45.926541319774074" lon="10.996830645415306"><ele>1058.0</ele><time>2026-05-03T09:17:11.97Z</time></trkpt><trkpt lat="45.92638996257057" lon="10.996833329009696"><ele>1052.75</ele><time>2026-05-03T09:17:12.97Z</time></trkpt><trkpt lat="45.92626182702533" lon="10.99681183950893"><ele>1047.5</ele><time>2026-05-03T09:17:13.97Z</time></trkpt><trkpt lat="45.92615196488096" lon="10.996794911673756"><ele>1042.25</ele><time>2026-05-03T09:17:14.97Z</time></trkpt><trkpt lat="45.92604027770643" lon="10.996752470429385"><ele>1037.0</ele><time>2026-05-03T09:17:15.97Z</time></trkpt><trkpt lat="45.92593509370647" lon="10.996691160028588"><ele>1041.25</ele><time>2026-05-03T09:17:16.97Z</time></trkpt><trkpt lat="45.92582207052938" lon="10.99661330627657"><ele>1045.5</ele><time>2026-05-03T09:17:17.97Z</time></trkpt><trkpt lat="45.92570590269721" lon="10.99653663369168"><ele>1049.75</ele><time>2026-05-03T09:17:18.97Z</time></trkpt><trkpt lat="45.92557725509246" lon="10.996451753300063"><ele>1054.0</ele><time>2026-05-03T09:17:19.97Z</time></trkpt><trkpt lat="45.92544179955305" lon="10.996363618661666"><ele>1054.0</ele><time>2026-05-03T09:17:20.97Z</time></trkpt><trkpt lat="45.92530958577663" lon="10.996253467361443"><ele>1054.0</ele><time>2026-05-03T09:17:21.97Z</time></trkpt><trkpt lat="45.92517131093883" lon="10.99616899513769"><ele>1054.0</ele><time>2026-05-03T09:17:22.97Z</time></trkpt><trkpt lat="45.92504040815121" lon="10.996076991819628"><ele>1054.0</ele><time>2026-05-03T09:17:23.97Z</time></trkpt><trkpt lat="45.924918294723774" lon="10.99599800282034"><ele>1053.25</ele><time>2026-05-03T09:17:24.97Z</time></trkpt><trkpt lat="45.9248091125073" lon="10.995923253302228"><ele>1052.5</ele><time>2026-05-03T09:17:25.969Z</time></trkpt><trkpt lat="45.924700669256715" lon="10.995847715566779"><ele>1051.75</ele><time>2026-05-03T09:17:26.969Z</time></trkpt><trkpt lat="45.924598467760504" lon="10.995753366853869"><ele>1051.0</ele><time>2026-05-03T09:17:27.969Z</time></trkpt><trkpt lat="45.92449475912924" lon="10.995646883078065"><ele>1052.25</ele><time>2026-05-03T09:17:28.969Z</time></trkpt><trkpt lat="45.92438448793181" lon="10.995525395745702"><ele>1053.5</ele><time>2026-05-03T09:17:29.969Z</time></trkpt><trkpt lat="45.924276332008155" lon="10.995389604671953"><ele>1054.75</ele><time>2026-05-03T09:17:30.969Z</time></trkpt><trkpt lat="45.924174499080394" lon="10.995241895077374"><ele>1056.0</ele><time>2026-05-03T09:17:31.969Z</time></trkpt><trkpt lat="45.924081351496035" lon="10.995089450315216"><ele>1057.25</ele><time>2026-05-03T09:17:32.969Z</time></trkpt><trkpt lat="45.92399613639867" lon="10.994928332960901"><ele>1058.5</ele><time>2026-05-03T09:17:33.969Z</time></trkpt><trkpt lat="45.92393590973961" lon="10.994752385474538"><ele>1059.75</ele><time>2026-05-03T09:17:34.969Z</time></trkpt><trkpt lat="45.923870170793066" lon="10.99458104908087"><ele>1061.0</ele><time>2026-05-03T09:17:35.969Z</time></trkpt><trkpt lat="45.92381070379426" lon="10.994401443386815"><ele>1061.0</ele><time>2026-05-03T09:17:36.969Z</time></trkpt><trkpt lat="45.92376432455929" lon="10.994230380557688"><ele>1061.0</ele><time>2026-05-03T09:17:37.969Z</time></trkpt><trkpt lat="45.92372813396417" lon="10.994068710899512"><ele>1061.0</ele><time>2026-05-03T09:17:38.969Z</time></trkpt><trkpt lat="45.92369595517358" lon="10.993897331706709"><ele>1061.0</ele><time>2026-05-03T09:17:39.969Z</time></trkpt><trkpt lat="45.92365551985103" lon="10.993711732128462"><ele>1063.25</ele><time>2026-05-03T09:17:40.969Z</time></trkpt><trkpt lat="45.92364510892514" lon="10.993523295109823"><ele>1065.5</ele><time>2026-05-03T09:17:41.969Z</time></trkpt><trkpt lat="45.923629847520296" lon="10.993337949206971"><ele>1067.75</ele><time>2026-05-03T09:17:42.969Z</time></trkpt><trkpt lat="45.92361711978666" lon="10.993142462285439"><ele>1070.0</ele><time>2026-05-03T09:17:43.969Z</time></trkpt><trkpt lat="45.92359935098947" lon="10.99294385831019"><ele>1070.0</ele><time>2026-05-03T09:17:44.969Z</time></trkpt><trkpt lat="45.923565203603616" lon="10.992729206173953"><ele>1070.0</ele><time>2026-05-03T09:17:45.969Z</time></trkpt><trkpt lat="45.923517426654676" lon="10.99249882296006"><ele>1070.0</ele><time>2026-05-03T09:17:46.969Z</time></trkpt><trkpt lat="45.923459677152735" lon="10.99224998372231"><ele>1067.75</ele><time>2026-05-03T09:17:47.969Z</time></trkpt><trkpt lat="45.92339609156753" lon="10.992110991762331"><ele>1065.5</ele><time>2026-05-03T09:17:48.969Z</time></trkpt><trkpt lat="45.92333078838841" lon="10.991917896695288"><ele>1063.25</ele><time>2026-05-03T09:17:49.969Z</time></trkpt><trkpt lat="45.92325883659356" lon="10.991691277956365"><ele>1061.0</ele><time>2026-05-03T09:17:50.969Z</time></trkpt><trkpt lat="45.923166052925424" lon="10.991465315709597"><ele>1061.0</ele><time>2026-05-03T09:17:51.969Z</time></trkpt><trkpt lat="45.923055744410206" lon="10.991250068149062"><ele>1061.0</ele><time>2026-05-03T09:17:52.969Z</time></trkpt><trkpt lat="45.92292454858454" lon="10.991065430537724"><ele>1061.0</ele><time>2026-05-03T09:17:53.969Z</time></trkpt><trkpt lat="45.922794786777" lon="10.990919880573946"><ele>1064.0</ele><time>2026-05-03T09:17:54.969Z</time></trkpt><trkpt lat="45.92269128881278" lon="10.99080096257165"><ele>1067.0</ele><time>2026-05-03T09:17:55.969Z</time></trkpt><trkpt lat="45.9225891819857" lon="10.990668279422811"><ele>1070.0</ele><time>2026-05-03T09:17:56.969Z</time></trkpt><trkpt lat="45.922476943000426" lon="10.9905386681942"><ele>1073.0</ele><time>2026-05-03T09:17:57.969Z</time></trkpt><trkpt lat="45.92236151021799" lon="10.990422705542796"><ele>1073.0</ele><time>2026-05-03T09:17:58.969Z</time></trkpt><trkpt lat="45.922240512752104" lon="10.990328549124607"><ele>1073.0</ele><time>2026-05-03T09:17:59.969Z</time></trkpt><trkpt lat="45.92211510717977" lon="10.99025547716903"><ele>1073.0</ele><time>2026-05-03T09:18:00.969Z</time></trkpt><trkpt lat="45.92199665636436" lon="10.99019122390008"><ele>1073.0</ele><time>2026-05-03T09:18:01.969Z</time></trkpt><trkpt lat="45.92188684795779" lon="10.990132879339269"><ele>1073.0</ele><time>2026-05-03T09:18:02.969Z</time></trkpt><trkpt lat="45.92178990761796" lon="10.99007726224974"><ele>1073.0</ele><time>2026-05-03T09:18:03.969Z</time></trkpt><trkpt lat="45.921693545980666" lon="10.990020529120963"><ele>1073.0</ele><time>2026-05-03T09:18:04.969Z</time></trkpt><trkpt lat="45.921597151365894" lon="10.989965244992629"><ele>1073.0</ele><time>2026-05-03T09:18:05.969Z</time></trkpt><trkpt lat="45.921488152606734" lon="10.98994452230864"><ele>1073.0</ele><time>2026-05-03T09:18:06.969Z</time></trkpt><trkpt lat="45.921386460704596" lon="10.989958319784865"><ele>1072.8333333333335</ele><time>2026-05-03T09:18:07.969Z</time></trkpt><trkpt lat="45.921295180963384" lon="10.990017399017882"><ele>1072.6666666666667</ele><time>2026-05-03T09:18:08.969Z</time></trkpt><trkpt lat="45.92123253679371" lon="10.990097806040428"><ele>1072.5</ele><time>2026-05-03T09:18:09.969Z</time></trkpt><trkpt lat="45.921179404475424" lon="10.990190483872833"><ele>1072.3333333333333</ele><time>2026-05-03T09:18:10.969Z</time></trkpt><trkpt lat="45.92113295783149" lon="10.990268857651717"><ele>1072.1666666666665</ele><time>2026-05-03T09:18:11.969Z</time></trkpt><trkpt lat="45.921087324606184" lon="10.990341058952117"><ele>1072.0</ele><time>2026-05-03T09:18:12.969Z</time></trkpt><trkpt lat="45.92104377940142" lon="10.990419301996944"><ele>1072.0</ele><time>2026-05-03T09:18:13.969Z</time></trkpt><trkpt lat="45.92100254840275" lon="10.990495485359572"><ele>1072.0</ele><time>2026-05-03T09:18:14.969Z</time></trkpt><trkpt lat="45.92092598193258" lon="10.990635516939447"><ele>1072.0</ele><time>2026-05-03T09:18:16.969Z</time></trkpt><trkpt lat="45.920815660714524" lon="10.990741894384602"><ele>1072.0</ele><time>2026-05-03T09:18:18.969Z</time></trkpt><trkpt lat="45.9207340743847" lon="10.990743225566447"><ele>1072.0</ele><time>2026-05-03T09:18:19.969Z</time></trkpt><trkpt lat="45.92065452013962" lon="10.990731229140664"><ele>1074.8</ele><time>2026-05-03T09:18:20.969Z</time></trkpt><trkpt lat="45.920572997982795" lon="10.990715505557718"><ele>1077.6</ele><time>2026-05-03T09:18:21.969Z</time></trkpt><trkpt lat="45.92048610181187" lon="10.99069541417367"><ele>1080.3999999999999</ele><time>2026-05-03T09:18:22.969Z</time></trkpt><trkpt lat="45.92039068230375" lon="10.99066935338192"><ele>1083.2</ele><time>2026-05-03T09:18:23.969Z</time></trkpt><trkpt lat="45.92029839021736" lon="10.99061151422756"><ele>1086.0</ele><time>2026-05-03T09:18:24.969Z</time></trkpt><trkpt lat="45.920193235208096" lon="10.99059217910429"><ele>1086.0</ele><time>2026-05-03T09:18:25.969Z</time></trkpt><trkpt lat="45.92009155475368" lon="10.990614904437367"><ele>1086.0</ele><time>2026-05-03T09:18:26.969Z</time></trkpt><trkpt lat="45.91999387192062" lon="10.99067026529982"><ele>1086.0</ele><time>2026-05-03T09:18:27.969Z</time></trkpt><trkpt lat="45.91988975056313" lon="10.990754098103212"><ele>1086.0</ele><time>2026-05-03T09:18:28.969Z</time></trkpt><trkpt lat="45.91978859119353" lon="10.990860107051885"><ele>1083.5</ele><time>2026-05-03T09:18:29.969Z</time></trkpt><trkpt lat="45.91967518398995" lon="10.990943867923352"><ele>1081.0</ele><time>2026-05-03T09:18:30.969Z</time></trkpt><trkpt lat="45.919552130966565" lon="10.991042023725774"><ele>1078.5</ele><time>2026-05-03T09:18:31.969Z</time></trkpt><trkpt lat="45.91942571898943" lon="10.991133119389556"><ele>1076.0</ele><time>2026-05-03T09:18:32.969Z</time></trkpt><trkpt lat="45.91929713493303" lon="10.991220988986557"><ele>1081.0</ele><time>2026-05-03T09:18:33.969Z</time></trkpt><trkpt lat="45.91917181868972" lon="10.991253960293378"><ele>1086.0</ele><time>2026-05-03T09:18:34.969Z</time></trkpt><trkpt lat="45.919068310101004" lon="10.991308758706312"><ele>1091.0</ele><time>2026-05-03T09:18:35.969Z</time></trkpt><trkpt lat="45.918947042893855" lon="10.991317452928023"><ele>1096.0</ele><time>2026-05-03T09:18:36.969Z</time></trkpt><trkpt lat="45.91882725214808" lon="10.991326759198625"><ele>1096.0</ele><time>2026-05-03T09:18:37.969Z</time></trkpt><trkpt lat="45.91872177836372" lon="10.991326308185045"><ele>1096.0</ele><time>2026-05-03T09:18:38.969Z</time></trkpt><trkpt lat="45.91863532482434" lon="10.991319045337708"><ele>1096.0</ele><time>2026-05-03T09:18:39.969Z</time></trkpt><trkpt lat="45.918569472287714" lon="10.991287210240179"><ele>1096.0</ele><time>2026-05-03T09:18:40.969Z</time></trkpt><trkpt lat="45.918505783950174" lon="10.991254901919655"><ele>1096.0</ele><time>2026-05-03T09:18:41.969Z</time></trkpt><trkpt lat="45.91844521077708" lon="10.991188122824516"><ele>1096.0</ele><time>2026-05-03T09:18:42.97Z</time></trkpt><trkpt lat="45.918382879202184" lon="10.991130651204308"><ele>1097.0</ele><time>2026-05-03T09:18:43.969Z</time></trkpt><trkpt lat="45.91830357481721" lon="10.991056819169366"><ele>1098.0</ele><time>2026-05-03T09:18:44.969Z</time></trkpt><trkpt lat="45.91823462418239" lon="10.990995084010597"><ele>1099.0</ele><time>2026-05-03T09:18:45.969Z</time></trkpt><trkpt lat="45.918156332322255" lon="10.990944365531359"><ele>1100.0</ele><time>2026-05-03T09:18:46.97Z</time></trkpt><trkpt lat="45.91808033916699" lon="10.990872592455682"><ele>1101.0</ele><time>2026-05-03T09:18:47.97Z</time></trkpt><trkpt lat="45.917991696449626" lon="10.99079240540694"><ele>1104.6666666666667</ele><time>2026-05-03T09:18:48.97Z</time></trkpt><trkpt lat="45.91787723849521" lon="10.99069727077668"><ele>1108.3333333333335</ele><time>2026-05-03T09:18:49.97Z</time></trkpt><trkpt lat="45.91775218381702" lon="10.990554423957663"><ele>1112.0</ele><time>2026-05-03T09:18:50.97Z</time></trkpt><trkpt lat="45.91759335172519" lon="10.990418404773893"><ele>1110.6666666666667</ele><time>2026-05-03T09:18:51.97Z</time></trkpt><trkpt lat="45.917417542426556" lon="10.99027167241038"><ele>1109.3333333333333</ele><time>2026-05-03T09:18:52.97Z</time></trkpt><trkpt lat="45.917220747723476" lon="10.990103999343052"><ele>1108.0</ele><time>2026-05-03T09:18:53.97Z</time></trkpt><trkpt lat="45.91705107605922" lon="10.989915227714722"><ele>1114.0</ele><time>2026-05-03T09:18:54.969Z</time></trkpt><trkpt lat="45.91691260878734" lon="10.989734798444115"><ele>1120.0</ele><time>2026-05-03T09:18:55.97Z</time></trkpt><trkpt lat="45.916790419312" lon="10.989595085149503"><ele>1126.0</ele><time>2026-05-03T09:18:56.97Z</time></trkpt><trkpt lat="45.9166659783067" lon="10.989470963947484"><ele>1126.0</ele><time>2026-05-03T09:18:57.97Z</time></trkpt><trkpt lat="45.91653704933071" lon="10.989366379956515"><ele>1126.0</ele><time>2026-05-03T09:18:58.97Z</time></trkpt><trkpt lat="45.916433451200305" lon="10.989263477121085"><ele>1126.0</ele><time>2026-05-03T09:18:59.97Z</time></trkpt><trkpt lat="45.91633175848362" lon="10.989193093485536"><ele>1126.0</ele><time>2026-05-03T09:19:00.97Z</time></trkpt><trkpt lat="45.91624370144665" lon="10.989132870233993"><ele>1125.6</ele><time>2026-05-03T09:19:01.97Z</time></trkpt><trkpt lat="45.91612595245579" lon="10.989172664334989"><ele>1125.1999999999998</ele><time>2026-05-03T09:19:02.97Z</time></trkpt><trkpt lat="45.91601671016798" lon="10.989151780976593"><ele>1124.8000000000002</ele><time>2026-05-03T09:19:03.97Z</time></trkpt><trkpt lat="45.915901374955645" lon="10.989130734334738"><ele>1124.4</ele><time>2026-05-03T09:19:04.97Z</time></trkpt><trkpt lat="45.915831393376216" lon="10.989078943535873"><ele>1124.0</ele><time>2026-05-03T09:19:05.97Z</time></trkpt><trkpt lat="45.91579955628605" lon="10.98899248678957"><ele>1124.0</ele><time>2026-05-03T09:19:06.97Z</time></trkpt><trkpt lat="45.91578605339514" lon="10.9888846314887"><ele>1124.0</ele><time>2026-05-03T09:19:07.97Z</time></trkpt><trkpt lat="45.91576108752623" lon="10.988737009782328"><ele>1124.0</ele><time>2026-05-03T09:19:08.97Z</time></trkpt><trkpt lat="45.91572648649615" lon="10.98855304786792"><ele>1124.0</ele><time>2026-05-03T09:19:09.97Z</time></trkpt><trkpt lat="45.915666774369555" lon="10.988366340147675"><ele>1125.25</ele><time>2026-05-03T09:19:10.97Z</time></trkpt><trkpt lat="45.91559178982599" lon="10.988176265230347"><ele>1126.5</ele><time>2026-05-03T09:19:11.97Z</time></trkpt><trkpt lat="45.91552930131604" lon="10.987982287787185"><ele>1127.75</ele><time>2026-05-03T09:19:12.97Z</time></trkpt><trkpt lat="45.915485361446834" lon="10.987779728756033"><ele>1129.0</ele><time>2026-05-03T09:19:13.97Z</time></trkpt><trkpt lat="45.91545354923104" lon="10.987557321099066"><ele>1131.6666666666665</ele><time>2026-05-03T09:19:14.97Z</time></trkpt><trkpt lat="45.91540576906037" lon="10.987336320345934"><ele>1134.3333333333333</ele><time>2026-05-03T09:19:15.97Z</time></trkpt><trkpt lat="45.915361185600695" lon="10.987136170761508"><ele>1137.0</ele><time>2026-05-03T09:19:16.97Z</time></trkpt><trkpt lat="45.91531976073264" lon="10.98693863715011"><ele>1137.0</ele><time>2026-05-03T09:19:17.97Z</time></trkpt><trkpt lat="45.915316507837545" lon="10.986745696744144"><ele>1137.0</ele><time>2026-05-03T09:19:18.97Z</time></trkpt><trkpt lat="45.915333619108374" lon="10.98654257309526"><ele>1137.0</ele><time>2026-05-03T09:19:19.97Z</time></trkpt><trkpt lat="45.9153218816676" lon="10.986359512219575"><ele>1137.0</ele><time>2026-05-03T09:19:20.97Z</time></trkpt><trkpt lat="45.915306231430726" lon="10.986196402751796"><ele>1138.5</ele><time>2026-05-03T09:19:21.97Z</time></trkpt><trkpt lat="45.915260936529904" lon="10.986044973086925"><ele>1140.0</ele><time>2026-05-03T09:19:22.97Z</time></trkpt><trkpt lat="45.91520394762659" lon="10.985866544139647"><ele>1141.5</ele><time>2026-05-03T09:19:23.97Z</time></trkpt><trkpt lat="45.91510904203452" lon="10.985685736153451"><ele>1143.0</ele><time>2026-05-03T09:19:24.97Z</time></trkpt><trkpt lat="45.91499892827277" lon="10.985497931262767"><ele>1138.5</ele><time>2026-05-03T09:19:25.97Z</time></trkpt><trkpt lat="45.914925405338685" lon="10.985341468989205"><ele>1134.0</ele><time>2026-05-03T09:19:26.97Z</time></trkpt><trkpt lat="45.914853040890335" lon="10.985198272965714"><ele>1129.5</ele><time>2026-05-03T09:19:27.97Z</time></trkpt><trkpt lat="45.91477023394556" lon="10.98508193223471"><ele>1125.0</ele><time>2026-05-03T09:19:28.97Z</time></trkpt><trkpt lat="45.91466828159093" lon="10.98502057288135"><ele>1125.0</ele><time>2026-05-03T09:19:29.97Z</time></trkpt><trkpt lat="45.91457457098665" lon="10.984990734345844"><ele>1125.0</ele><time>2026-05-03T09:19:30.97Z</time></trkpt><trkpt lat="45.91447011535073" lon="10.984992758665843"><ele>1125.0</ele><time>2026-05-03T09:19:31.969Z</time></trkpt><trkpt lat="45.91437806980595" lon="10.985024043963312"><ele>1125.0</ele><time>2026-05-03T09:19:32.969Z</time></trkpt><trkpt lat="45.91431132594367" lon="10.985058744533946"><ele>1125.0</ele><time>2026-05-03T09:19:33.969Z</time></trkpt><trkpt lat="45.91424375349357" lon="10.985056113178869"><ele>1125.0</ele><time>2026-05-03T09:19:34.969Z</time></trkpt><trkpt lat="45.914164323656976" lon="10.985045193549913"><ele>1127.0</ele><time>2026-05-03T09:19:35.969Z</time></trkpt><trkpt lat="45.91408906002224" lon="10.98497542145368"><ele>1129.0</ele><time>2026-05-03T09:19:36.969Z</time></trkpt><trkpt lat="45.913992306577214" lon="10.984915909123636"><ele>1131.0</ele><time>2026-05-03T09:19:37.969Z</time></trkpt><trkpt lat="45.91388107399221" lon="10.984854557143942"><ele>1133.0</ele><time>2026-05-03T09:19:38.969Z</time></trkpt><trkpt lat="45.91375457151417" lon="10.98480060836461"><ele>1135.0</ele><time>2026-05-03T09:19:39.969Z</time></trkpt><trkpt lat="45.91362601149116" lon="10.984781109408472"><ele>1135.0</ele><time>2026-05-03T09:19:40.969Z</time></trkpt><trkpt lat="45.91350240860334" lon="10.984793476359599"><ele>1135.0</ele><time>2026-05-03T09:19:41.969Z</time></trkpt><trkpt lat="45.91339987847709" lon="10.984817973714238"><ele>1135.0</ele><time>2026-05-03T09:19:42.969Z</time></trkpt><trkpt lat="45.91331397481441" lon="10.984877904757411"><ele>1135.0</ele><time>2026-05-03T09:19:43.969Z</time></trkpt><trkpt lat="45.913266522718175" lon="10.985019449407062"><ele>1135.0</ele><time>2026-05-03T09:19:44.969Z</time></trkpt><trkpt lat="45.91323656614153" lon="10.985177561933707"><ele>1136.0</ele><time>2026-05-03T09:19:45.969Z</time></trkpt><trkpt lat="45.91319516997258" lon="10.98532184616931"><ele>1137.0</ele><time>2026-05-03T09:19:46.969Z</time></trkpt><trkpt lat="45.91313425436121" lon="10.985472165580697"><ele>1138.0</ele><time>2026-05-03T09:19:47.969Z</time></trkpt><trkpt lat="45.91305406075316" lon="10.985615544984071"><ele>1139.0</ele><time>2026-05-03T09:19:48.969Z</time></trkpt><trkpt lat="45.91298365207099" lon="10.985746690789554"><ele>1139.0</ele><time>2026-05-03T09:19:49.969Z</time></trkpt><trkpt lat="45.91291012230363" lon="10.985859053230214"><ele>1139.0</ele><time>2026-05-03T09:19:50.969Z</time></trkpt><trkpt lat="45.912840691111995" lon="10.985933358974876"><ele>1139.0</ele><time>2026-05-03T09:19:51.969Z</time></trkpt><trkpt lat="45.91275958512758" lon="10.985982503829097"><ele>1139.0</ele><time>2026-05-03T09:19:52.969Z</time></trkpt><trkpt lat="45.91266541515055" lon="10.985985406867778"><ele>1139.0</ele><time>2026-05-03T09:19:53.969Z</time></trkpt><trkpt lat="45.912554646905434" lon="10.985959305343577"><ele>1139.0</ele><time>2026-05-03T09:19:54.969Z</time></trkpt><trkpt lat="45.91243529535263" lon="10.985940160622105"><ele>1139.0</ele><time>2026-05-03T09:19:55.969Z</time></trkpt><trkpt lat="45.91232479937842" lon="10.985933369654717"><ele>1139.0</ele><time>2026-05-03T09:19:56.969Z</time></trkpt><trkpt lat="45.91222615028139" lon="10.98595037302629"><ele>1139.0</ele><time>2026-05-03T09:19:57.969Z</time></trkpt><trkpt lat="45.91213217305721" lon="10.985932647273744"><ele>1139.0</ele><time>2026-05-03T09:19:58.969Z</time></trkpt><trkpt lat="45.912043331712646" lon="10.985924263838395"><ele>1139.0</ele><time>2026-05-03T09:19:59.969Z</time></trkpt><trkpt lat="45.91195768487981" lon="10.985929453948083"><ele>1139.0</ele><time>2026-05-03T09:20:00.969Z</time></trkpt><trkpt lat="45.9118910776499" lon="10.985910776746065"><ele>1139.0</ele><time>2026-05-03T09:20:01.969Z</time></trkpt><trkpt lat="45.91178535590045" lon="10.985946453071353"><ele>1139.0</ele><time>2026-05-03T09:20:03.969Z</time></trkpt><trkpt lat="45.911728240601796" lon="10.98599627175408"><ele>1139.0</ele><time>2026-05-03T09:20:04.969Z</time></trkpt><trkpt lat="45.91162315467642" lon="10.986099850020576"><ele>1139.0</ele><time>2026-05-03T09:20:06.969Z</time></trkpt><trkpt lat="45.911562976771016" lon="10.986159366159578"><ele>1139.0</ele><time>2026-05-03T09:20:07.969Z</time></trkpt><trkpt lat="45.9114878845698" lon="10.98623572882725"><ele>1139.0</ele><time>2026-05-03T09:20:08.969Z</time></trkpt><trkpt lat="45.91140998862779" lon="10.986343148708304"><ele>1139.0</ele><time>2026-05-03T09:20:09.969Z</time></trkpt><trkpt lat="45.911311338017285" lon="10.986437455106834"><ele>1139.0</ele><time>2026-05-03T09:20:10.969Z</time></trkpt><trkpt lat="45.91121905799558" lon="10.986530777489765"><ele>1139.0</ele><time>2026-05-03T09:20:11.969Z</time></trkpt><trkpt lat="45.91114036421262" lon="10.98661111515524"><ele>1139.0</ele><time>2026-05-03T09:20:12.969Z</time></trkpt><trkpt lat="45.91106400280134" lon="10.986670876834587"><ele>1139.0</ele><time>2026-05-03T09:20:13.969Z</time></trkpt><trkpt lat="45.91099620045734" lon="10.986710413932402"><ele>1139.0</ele><time>2026-05-03T09:20:14.969Z</time></trkpt><trkpt lat="45.91092480925186" lon="10.986732666054229"><ele>1139.0</ele><time>2026-05-03T09:20:15.969Z</time></trkpt><trkpt lat="45.91085891944319" lon="10.986750620784743"><ele>1139.0</ele><time>2026-05-03T09:20:16.969Z</time></trkpt><trkpt lat="45.91078657485934" lon="10.986757312809544"><ele>1138.8333333333335</ele><time>2026-05-03T09:20:17.969Z</time></trkpt><trkpt lat="45.91071060786357" lon="10.986762563715946"><ele>1138.6666666666667</ele><time>2026-05-03T09:20:18.969Z</time></trkpt><trkpt lat="45.910631239881184" lon="10.986756789575836"><ele>1138.5</ele><time>2026-05-03T09:20:19.969Z</time></trkpt><trkpt lat="45.910546910024316" lon="10.986766044511988"><ele>1138.3333333333333</ele><time>2026-05-03T09:20:20.969Z</time></trkpt><trkpt lat="45.91046663852219" lon="10.986796635279626"><ele>1138.1666666666665</ele><time>2026-05-03T09:20:21.969Z</time></trkpt><trkpt lat="45.9103781679007" lon="10.986795430992888"><ele>1138.0</ele><time>2026-05-03T09:20:22.969Z</time></trkpt><trkpt lat="45.91028090230584" lon="10.986800329680852"><ele>1138.0</ele><time>2026-05-03T09:20:23.969Z</time></trkpt><trkpt lat="45.910191492172345" lon="10.986845104445068"><ele>1138.0</ele><time>2026-05-03T09:20:24.969Z</time></trkpt><trkpt lat="45.910118614136344" lon="10.986937928973846"><ele>1138.0</ele><time>2026-05-03T09:20:25.969Z</time></trkpt><trkpt lat="45.910046073669946" lon="10.987057245325403"><ele>1138.0</ele><time>2026-05-03T09:20:26.969Z</time></trkpt><trkpt lat="45.90999153175259" lon="10.987230668500597"><ele>1138.0</ele><time>2026-05-03T09:20:27.969Z</time></trkpt><trkpt lat="45.90993130964434" lon="10.987384302426989"><ele>1140.3333333333333</ele><time>2026-05-03T09:20:28.969Z</time></trkpt><trkpt lat="45.90987061555496" lon="10.987495993361096"><ele>1142.6666666666665</ele><time>2026-05-03T09:20:29.969Z</time></trkpt><trkpt lat="45.90983802380883" lon="10.987609622064156"><ele>1145.0</ele><time>2026-05-03T09:20:30.969Z</time></trkpt><trkpt lat="45.909792232511734" lon="10.987681328113924"><ele>1147.3333333333333</ele><time>2026-05-03T09:20:31.969Z</time></trkpt><trkpt lat="45.909701917367485" lon="10.9877531206344"><ele>1149.6666666666667</ele><time>2026-05-03T09:20:33.969Z</time></trkpt><trkpt lat="45.909634188735644" lon="10.987765267213428"><ele>1152.0</ele><time>2026-05-03T09:20:34.969Z</time></trkpt><trkpt lat="45.90956438547219" lon="10.987765928704656"><ele>1152.5</ele><time>2026-05-03T09:20:35.969Z</time></trkpt><trkpt lat="45.90949959343451" lon="10.98775982855308"><ele>1153.0</ele><time>2026-05-03T09:20:36.969Z</time></trkpt><trkpt lat="45.90940590399191" lon="10.987763983029264"><ele>1153.5</ele><time>2026-05-03T09:20:38.969Z</time></trkpt><trkpt lat="45.90935919862387" lon="10.987832813789042"><ele>1154.0</ele><time>2026-05-03T09:20:40.969Z</time></trkpt><trkpt lat="45.909376485084955" lon="10.987946013251987"><ele>1154.5</ele><time>2026-05-03T09:20:43.969Z</time></trkpt><trkpt lat="45.909399759375724" lon="10.988088921996138"><ele>1155.0</ele><time>2026-05-03T09:20:45.969Z</time></trkpt><trkpt lat="45.90941538602827" lon="10.988241047675164"><ele>1156.2</ele><time>2026-05-03T09:20:47.969Z</time></trkpt><trkpt lat="45.90941999340027" lon="10.9883624410837"><ele>1157.4</ele><time>2026-05-03T09:20:49.97Z</time></trkpt><trkpt lat="45.90941982571287" lon="10.988522031235695"><ele>1158.6</ele><time>2026-05-03T09:20:51.969Z</time></trkpt><trkpt lat="45.90940549970739" lon="10.988635554167825"><ele>1159.8</ele><time>2026-05-03T09:20:53.969Z</time></trkpt><trkpt lat="45.90931157143907" lon="10.988632163847274"><ele>1161.0</ele><time>2026-05-03T09:20:55.97Z</time></trkpt><trkpt lat="45.909222406371356" lon="10.988518800491919"><ele>1161.2</ele><time>2026-05-03T09:20:57.97Z</time></trkpt><trkpt lat="45.90915759506768" lon="10.98844630124847"><ele>1161.3999999999999</ele><time>2026-05-03T09:20:58.97Z</time></trkpt><trkpt lat="45.90908328419576" lon="10.988379929638969"><ele>1161.6</ele><time>2026-05-03T09:20:59.97Z</time></trkpt><trkpt lat="45.90898856699241" lon="10.988299191057575"><ele>1161.8</ele><time>2026-05-03T09:21:00.969Z</time></trkpt><trkpt lat="45.90888524115787" lon="10.988212068441623"><ele>1162.0</ele><time>2026-05-03T09:21:01.969Z</time></trkpt><trkpt lat="45.908775018253756" lon="10.988151414427296"><ele>1164.0</ele><time>2026-05-03T09:21:02.969Z</time></trkpt><trkpt lat="45.90865590785746" lon="10.988114663263032"><ele>1166.0</ele><time>2026-05-03T09:21:03.969Z</time></trkpt><trkpt lat="45.90854208157934" lon="10.988096371864058"><ele>1168.0</ele><time>2026-05-03T09:21:04.969Z</time></trkpt><trkpt lat="45.90843673131568" lon="10.98804916760303"><ele>1170.0</ele><time>2026-05-03T09:21:05.969Z</time></trkpt><trkpt lat="45.90832534315088" lon="10.988007263879213"><ele>1170.8</ele><time>2026-05-03T09:21:06.969Z</time></trkpt><trkpt lat="45.90822129777877" lon="10.98796598418709"><ele>1171.6</ele><time>2026-05-03T09:21:07.969Z</time></trkpt><trkpt lat="45.90811093308392" lon="10.987973528364652"><ele>1172.4</ele><time>2026-05-03T09:21:08.969Z</time></trkpt><trkpt lat="45.908004478240265" lon="10.987959685849015"><ele>1173.2</ele><time>2026-05-03T09:21:09.969Z</time></trkpt><trkpt lat="45.90791015166037" lon="10.987923902371394"><ele>1174.0</ele><time>2026-05-03T09:21:10.969Z</time></trkpt><trkpt lat="45.907831908248426" lon="10.987891932611033"><ele>1174.0</ele><time>2026-05-03T09:21:11.969Z</time></trkpt><trkpt lat="45.90776584810059" lon="10.987858228224995"><ele>1174.0</ele><time>2026-05-03T09:21:12.969Z</time></trkpt><trkpt lat="45.90769730463044" lon="10.987842877691495"><ele>1174.0</ele><time>2026-05-03T09:21:13.969Z</time></trkpt><trkpt lat="45.90762283453158" lon="10.987827481303215"><ele>1174.0</ele><time>2026-05-03T09:21:14.969Z</time></trkpt><trkpt lat="45.9075530392338" lon="10.98780096985952"><ele>1174.0</ele><time>2026-05-03T09:21:15.969Z</time></trkpt><trkpt lat="45.90748425626562" lon="10.987777790097956"><ele>1174.0</ele><time>2026-05-03T09:21:16.969Z</time></trkpt><trkpt lat="45.907418445295995" lon="10.987748585656124"><ele>1174.0</ele><time>2026-05-03T09:21:17.969Z</time></trkpt><trkpt lat="45.90735749445607" lon="10.987724187040811"><ele>1174.1666666666665</ele><time>2026-05-03T09:21:18.969Z</time></trkpt><trkpt lat="45.90727375821268" lon="10.98765665227658"><ele>1174.3333333333333</ele><time>2026-05-03T09:21:20.969Z</time></trkpt><trkpt lat="45.907300824230184" lon="10.987516607652646"><ele>1174.5</ele><time>2026-05-03T09:21:22.969Z</time></trkpt><trkpt lat="45.90737076624433" lon="10.987502003218717"><ele>1174.6666666666667</ele><time>2026-05-03T09:21:23.969Z</time></trkpt><trkpt lat="45.907431666126" lon="10.987462972972901"><ele>1174.8333333333335</ele><time>2026-05-03T09:21:24.969Z</time></trkpt><trkpt lat="45.907517750014016" lon="10.987376641901712"><ele>1175.0</ele><time>2026-05-03T09:21:26.969Z</time></trkpt><trkpt lat="45.90756027355984" lon="10.987260759174166"><ele>1177.1666666666667</ele><time>2026-05-03T09:21:28.969Z</time></trkpt><trkpt lat="45.907557755162564" lon="10.987120468261466"><ele>1179.3333333333335</ele><time>2026-05-03T09:21:30.969Z</time></trkpt><trkpt lat="45.907508886129435" lon="10.987035172498008"><ele>1181.5</ele><time>2026-05-03T09:21:31.969Z</time></trkpt><trkpt lat="45.90743041828023" lon="10.986998216169267"><ele>1183.6666666666667</ele><time>2026-05-03T09:21:32.969Z</time></trkpt><trkpt lat="45.90736741418833" lon="10.986969369269776"><ele>1185.8333333333333</ele><time>2026-05-03T09:21:33.969Z</time></trkpt><trkpt lat="45.90726567905264" lon="10.98692815975519"><ele>1188.0</ele><time>2026-05-03T09:21:35.969Z</time></trkpt><trkpt lat="45.90713495546993" lon="10.986883269954761"><ele>1188.0</ele><time>2026-05-03T09:21:37.969Z</time></trkpt><trkpt lat="45.9070596258137" lon="10.986855587029284"><ele>1188.0</ele><time>2026-05-03T09:21:38.969Z</time></trkpt><trkpt lat="45.90699726139561" lon="10.986826703113298"><ele>1188.0</ele><time>2026-05-03T09:21:39.969Z</time></trkpt><trkpt lat="45.906905492684814" lon="10.986804281474491"><ele>1188.0</ele><time>2026-05-03T09:21:41.969Z</time></trkpt><trkpt lat="45.90682588287968" lon="10.986795175844815"><ele>1188.0</ele><time>2026-05-03T09:21:43.969Z</time></trkpt><trkpt lat="45.90674784204841" lon="10.986749463620853"><ele>1188.0</ele><time>2026-05-03T09:21:45.969Z</time></trkpt><trkpt lat="45.906807953621126" lon="10.986634031186282"><ele>1190.5</ele><time>2026-05-03T09:21:48.969Z</time></trkpt><trkpt lat="45.90689621509765" lon="10.986628446797564"><ele>1193.0</ele><time>2026-05-03T09:21:49.969Z</time></trkpt><trkpt lat="45.90698616930891" lon="10.986606535417751"><ele>1195.5</ele><time>2026-05-03T09:21:50.969Z</time></trkpt><trkpt lat="45.907087561605856" lon="10.986585405486085"><ele>1198.0</ele><time>2026-05-03T09:21:51.969Z</time></trkpt><trkpt lat="45.90717026126971" lon="10.98656856333224"><ele>1200.5</ele><time>2026-05-03T09:21:52.969Z</time></trkpt><trkpt lat="45.9072388198977" lon="10.98655036354786"><ele>1203.0</ele><time>2026-05-03T09:21:53.969Z</time></trkpt><trkpt lat="45.90733074975514" lon="10.986512803684764"><ele>1203.0</ele><time>2026-05-03T09:21:55.969Z</time></trkpt><trkpt lat="45.90743237484147" lon="10.986466921953417"><ele>1203.0</ele><time>2026-05-03T09:21:57.969Z</time></trkpt><trkpt lat="45.90755078953648" lon="10.986404178300985"><ele>1203.0</ele><time>2026-05-03T09:21:59.969Z</time></trkpt><trkpt lat="45.907613111121755" lon="10.986388860276831"><ele>1203.0</ele><time>2026-05-03T09:22:00.969Z</time></trkpt><trkpt lat="45.90771288613879" lon="10.986344010332877"><ele>1203.0</ele><time>2026-05-03T09:22:02.969Z</time></trkpt><trkpt lat="45.90777209481672" lon="10.986312168563561"><ele>1202.4285714285713</ele><time>2026-05-03T09:22:03.969Z</time></trkpt><trkpt lat="45.907838798082835" lon="10.986295066554273"><ele>1201.857142857143</ele><time>2026-05-03T09:22:04.969Z</time></trkpt><trkpt lat="45.90790595884859" lon="10.98626684099544"><ele>1201.2857142857142</ele><time>2026-05-03T09:22:05.969Z</time></trkpt><trkpt lat="45.90797327060923" lon="10.98622756246391"><ele>1200.7142857142858</ele><time>2026-05-03T09:22:06.969Z</time></trkpt><trkpt lat="45.90804096209707" lon="10.986182531296867"><ele>1200.142857142857</ele><time>2026-05-03T09:22:07.969Z</time></trkpt><trkpt lat="45.90811270972828" lon="10.986138881860061"><ele>1199.5714285714287</ele><time>2026-05-03T09:22:08.969Z</time></trkpt><trkpt lat="45.908177395569496" lon="10.986105180160461"><ele>1199.0</ele><time>2026-05-03T09:22:09.969Z</time></trkpt><trkpt lat="45.908296357970855" lon="10.98604557535509"><ele>1199.0</ele><time>2026-05-03T09:22:11.969Z</time></trkpt><trkpt lat="45.908368755089775" lon="10.98604312517647"><ele>1199.0</ele><time>2026-05-03T09:22:12.969Z</time></trkpt><trkpt lat="45.9084338800245" lon="10.986015913838745"><ele>1199.0</ele><time>2026-05-03T09:22:13.969Z</time></trkpt><trkpt lat="45.90850015135659" lon="10.985944176208852"><ele>1199.0</ele><time>2026-05-03T09:22:14.968Z</time></trkpt><trkpt lat="45.90854494820544" lon="10.985836802320952"><ele>1199.0</ele><time>2026-05-03T09:22:15.968Z</time></trkpt><trkpt lat="45.90856154860565" lon="10.985708136133047"><ele>1199.0</ele><time>2026-05-03T09:22:16.968Z</time></trkpt><trkpt lat="45.90857151133576" lon="10.985604559347756"><ele>1199.5714285714287</ele><time>2026-05-03T09:22:17.968Z</time></trkpt><trkpt lat="45.90858027745361" lon="10.985513423028905"><ele>1200.142857142857</ele><time>2026-05-03T09:22:18.968Z</time></trkpt><trkpt lat="45.90859331953712" lon="10.985416223498568"><ele>1200.7142857142858</ele><time>2026-05-03T09:22:19.968Z</time></trkpt><trkpt lat="45.90861902332296" lon="10.985307721270393"><ele>1201.2857142857142</ele><time>2026-05-03T09:22:20.968Z</time></trkpt><trkpt lat="45.90864487003639" lon="10.985213304560114"><ele>1201.857142857143</ele><time>2026-05-03T09:22:21.968Z</time></trkpt><trkpt lat="45.908670394010294" lon="10.985121855850355"><ele>1202.4285714285713</ele><time>2026-05-03T09:22:22.968Z</time></trkpt><trkpt lat="45.90869969741633" lon="10.985016865872279"><ele>1203.0</ele><time>2026-05-03T09:22:23.968Z</time></trkpt><trkpt lat="45.90873183355884" lon="10.984892939083357"><ele>1203.0</ele><time>2026-05-03T09:22:24.968Z</time></trkpt><trkpt lat="45.90876426618978" lon="10.984745436158335"><ele>1203.0</ele><time>2026-05-03T09:22:25.968Z</time></trkpt><trkpt lat="45.908789201530176" lon="10.98457103491768"><ele>1203.0</ele><time>2026-05-03T09:22:26.968Z</time></trkpt><trkpt lat="45.908823034103165" lon="10.984406019475776"><ele>1203.0</ele><time>2026-05-03T09:22:27.968Z</time></trkpt><trkpt lat="45.90886271733313" lon="10.984237231925645"><ele>1206.0</ele><time>2026-05-03T09:22:28.968Z</time></trkpt><trkpt lat="45.908899306832346" lon="10.984081603129736"><ele>1209.0</ele><time>2026-05-03T09:22:29.968Z</time></trkpt><trkpt lat="45.90893375397361" lon="10.983935086485282"><ele>1212.0</ele><time>2026-05-03T09:22:30.968Z</time></trkpt><trkpt lat="45.908967311544586" lon="10.983806902169041"><ele>1215.0</ele><time>2026-05-03T09:22:31.968Z</time></trkpt><trkpt lat="45.90900774739138" lon="10.983664935613922"><ele>1218.0</ele><time>2026-05-03T09:22:32.968Z</time></trkpt><trkpt lat="45.9090401605122" lon="10.983508641908315"><ele>1220.0</ele><time>2026-05-03T09:22:33.968Z</time></trkpt><trkpt lat="45.90906295857305" lon="10.983346821893454"><ele>1222.0</ele><time>2026-05-03T09:22:34.968Z</time></trkpt><trkpt lat="45.909085190390584" lon="10.983180702972728"><ele>1224.0</ele><time>2026-05-03T09:22:35.968Z</time></trkpt><trkpt lat="45.9091067887665" lon="10.983006213981957"><ele>1226.0</ele><time>2026-05-03T09:22:36.968Z</time></trkpt><trkpt lat="45.90911920152906" lon="10.982829059367901"><ele>1226.0</ele><time>2026-05-03T09:22:37.968Z</time></trkpt><trkpt lat="45.90914105924322" lon="10.98264382812051"><ele>1226.0</ele><time>2026-05-03T09:22:38.968Z</time></trkpt><trkpt lat="45.90915561241137" lon="10.982456007575372"><ele>1226.0</ele><time>2026-05-03T09:22:39.968Z</time></trkpt><trkpt lat="45.90915564348245" lon="10.982269660470271"><ele>1226.0</ele><time>2026-05-03T09:22:40.968Z</time></trkpt><trkpt lat="45.90913010907401" lon="10.982086596713822"><ele>1226.75</ele><time>2026-05-03T09:22:41.968Z</time></trkpt><trkpt lat="45.90907900628257" lon="10.98189885305167"><ele>1227.5</ele><time>2026-05-03T09:22:42.968Z</time></trkpt><trkpt lat="45.909015847760024" lon="10.981729217370296"><ele>1228.25</ele><time>2026-05-03T09:22:43.968Z</time></trkpt><trkpt lat="45.90893270820849" lon="10.981567152211102"><ele>1229.0</ele><time>2026-05-03T09:22:44.968Z</time></trkpt><trkpt lat="45.9088022805628" lon="10.981478828344393"><ele>1229.0</ele><time>2026-05-03T09:22:45.968Z</time></trkpt><trkpt lat="45.908661559980935" lon="10.981408762116265"><ele>1229.0</ele><time>2026-05-03T09:22:46.968Z</time></trkpt><trkpt lat="45.908499237908934" lon="10.981340296548924"><ele>1229.0</ele><time>2026-05-03T09:22:47.968Z</time></trkpt><trkpt lat="45.90834983981281" lon="10.981282822777143"><ele>1228.5</ele><time>2026-05-03T09:22:48.968Z</time></trkpt><trkpt lat="45.9082302432166" lon="10.98120164859048"><ele>1228.0</ele><time>2026-05-03T09:22:49.968Z</time></trkpt><trkpt lat="45.908129326592224" lon="10.98112444089836"><ele>1227.5</ele><time>2026-05-03T09:22:50.968Z</time></trkpt><trkpt lat="45.90805260529679" lon="10.981011532724217"><ele>1227.0</ele><time>2026-05-03T09:22:51.968Z</time></trkpt><trkpt lat="45.90800210460895" lon="10.980886915602987"><ele>1227.75</ele><time>2026-05-03T09:22:52.968Z</time></trkpt><trkpt lat="45.90798816540642" lon="10.980725786101338"><ele>1228.5</ele><time>2026-05-03T09:22:53.969Z</time></trkpt><trkpt lat="45.908009819158536" lon="10.980539015927612"><ele>1229.25</ele><time>2026-05-03T09:22:54.969Z</time></trkpt><trkpt lat="45.90803926506576" lon="10.980341140929923"><ele>1230.0</ele><time>2026-05-03T09:22:55.969Z</time></trkpt><trkpt lat="45.90805997534036" lon="10.98016862407404"><ele>1230.0</ele><time>2026-05-03T09:22:56.969Z</time></trkpt><trkpt lat="45.90808607868169" lon="10.980037398313991"><ele>1230.0</ele><time>2026-05-03T09:22:57.969Z</time></trkpt><trkpt lat="45.90809006574199" lon="10.979932827429428"><ele>1230.0</ele><time>2026-05-03T09:22:58.969Z</time></trkpt><trkpt lat="45.90808911850902" lon="10.979741413498429"><ele>1230.0</ele><time>2026-05-03T09:23:00.97Z</time></trkpt><trkpt lat="45.90806611581105" lon="10.979622298454247"><ele>1230.0</ele><time>2026-05-03T09:23:01.969Z</time></trkpt><trkpt lat="45.90803357135287" lon="10.979486637311622"><ele>1231.0</ele><time>2026-05-03T09:23:02.969Z</time></trkpt><trkpt lat="45.90798794690739" lon="10.979342352743158"><ele>1232.0</ele><time>2026-05-03T09:23:03.969Z</time></trkpt><trkpt lat="45.90795220760799" lon="10.97918107738637"><ele>1233.0</ele><time>2026-05-03T09:23:04.969Z</time></trkpt><trkpt lat="45.90790671712136" lon="10.979011166200813"><ele>1234.0</ele><time>2026-05-03T09:23:05.969Z</time></trkpt><trkpt lat="45.90784375062314" lon="10.978845692478899"><ele>1237.75</ele><time>2026-05-03T09:23:06.969Z</time></trkpt><trkpt lat="45.90777414545031" lon="10.978683551000142"><ele>1241.5</ele><time>2026-05-03T09:23:07.969Z</time></trkpt><trkpt lat="45.90771782649152" lon="10.9785201175915"><ele>1245.25</ele><time>2026-05-03T09:23:08.969Z</time></trkpt><trkpt lat="45.907644651840116" lon="10.97837077114918"><ele>1249.0</ele><time>2026-05-03T09:23:09.969Z</time></trkpt><trkpt lat="45.90756450449665" lon="10.978230085096088"><ele>1250.5</ele><time>2026-05-03T09:23:10.969Z</time></trkpt><trkpt lat="45.907491787106956" lon="10.978085385131132"><ele>1252.0</ele><time>2026-05-03T09:23:11.969Z</time></trkpt><trkpt lat="45.90743336070634" lon="10.977936632449891"><ele>1253.5</ele><time>2026-05-03T09:23:12.969Z</time></trkpt><trkpt lat="45.90738493866168" lon="10.977774623406786"><ele>1255.0</ele><time>2026-05-03T09:23:13.969Z</time></trkpt><trkpt lat="45.907334869787924" lon="10.977614178001456"><ele>1256.75</ele><time>2026-05-03T09:23:14.969Z</time></trkpt><trkpt lat="45.907281519421055" lon="10.977463067963297"><ele>1258.5</ele><time>2026-05-03T09:23:15.969Z</time></trkpt><trkpt lat="45.90722161600399" lon="10.97731067209845"><ele>1260.25</ele><time>2026-05-03T09:23:16.969Z</time></trkpt><trkpt lat="45.90715179594986" lon="10.977155753794657"><ele>1262.0</ele><time>2026-05-03T09:23:17.969Z</time></trkpt><trkpt lat="45.90708482985491" lon="10.977005320686828"><ele>1262.0</ele><time>2026-05-03T09:23:18.969Z</time></trkpt><trkpt lat="45.90701465509774" lon="10.976852731471402"><ele>1262.0</ele><time>2026-05-03T09:23:19.969Z</time></trkpt><trkpt lat="45.90693959386411" lon="10.97669265657914"><ele>1262.0</ele><time>2026-05-03T09:23:20.969Z</time></trkpt><trkpt lat="45.90686164891848" lon="10.97651666014175"><ele>1262.0</ele><time>2026-05-03T09:23:21.969Z</time></trkpt><trkpt lat="45.9067776880399" lon="10.9763263934867"><ele>1261.0</ele><time>2026-05-03T09:23:22.969Z</time></trkpt><trkpt lat="45.90668349475076" lon="10.976144180106138"><ele>1260.0</ele><time>2026-05-03T09:23:23.969Z</time></trkpt><trkpt lat="45.90657577684842" lon="10.975990942352949"><ele>1259.0</ele><time>2026-05-03T09:23:24.969Z</time></trkpt><trkpt lat="45.90646107897998" lon="10.975864523022027"><ele>1260.25</ele><time>2026-05-03T09:23:25.969Z</time></trkpt><trkpt lat="45.90634774444534" lon="10.975747481555931"><ele>1261.5</ele><time>2026-05-03T09:23:26.969Z</time></trkpt><trkpt lat="45.90623810413764" lon="10.975629414427736"><ele>1262.75</ele><time>2026-05-03T09:23:27.969Z</time></trkpt><trkpt lat="45.90613533614247" lon="10.9755043791517"><ele>1264.0</ele><time>2026-05-03T09:23:28.969Z</time></trkpt><trkpt lat="45.90603519771063" lon="10.97538110236067"><ele>1264.0</ele><time>2026-05-03T09:23:29.969Z</time></trkpt><trkpt lat="45.905958508264064" lon="10.97525936133238"><ele>1264.0</ele><time>2026-05-03T09:23:30.969Z</time></trkpt><trkpt lat="45.90589852499161" lon="10.975119186044601"><ele>1264.0</ele><time>2026-05-03T09:23:31.969Z</time></trkpt><trkpt lat="45.90586929935162" lon="10.974964361482375"><ele>1264.0</ele><time>2026-05-03T09:23:32.969Z</time></trkpt><trkpt lat="45.90585944189938" lon="10.974805485182934"><ele>1262.0</ele><time>2026-05-03T09:23:33.969Z</time></trkpt><trkpt lat="45.905860854657355" lon="10.974653000594557"><ele>1260.0</ele><time>2026-05-03T09:23:34.969Z</time></trkpt><trkpt lat="45.905862989161335" lon="10.974507396643448"><ele>1258.0</ele><time>2026-05-03T09:23:35.969Z</time></trkpt><trkpt lat="45.90586439604078" lon="10.974363242519061"><ele>1256.0</ele><time>2026-05-03T09:23:36.969Z</time></trkpt><trkpt lat="45.90583636376794" lon="10.97421924837188"><ele>1254.0</ele><time>2026-05-03T09:23:37.969Z</time></trkpt><trkpt lat="45.905777958766286" lon="10.974080581828892"><ele>1254.0</ele><time>2026-05-03T09:23:38.969Z</time></trkpt><trkpt lat="45.90568193070113" lon="10.973973160436238"><ele>1254.0</ele><time>2026-05-03T09:23:39.969Z</time></trkpt><trkpt lat="45.905540226304495" lon="10.973892656373332"><ele>1254.0</ele><time>2026-05-03T09:23:40.969Z</time></trkpt><trkpt lat="45.905391778716876" lon="10.973829897855284"><ele>1254.0</ele><time>2026-05-03T09:23:41.969Z</time></trkpt><trkpt lat="45.90524879792149" lon="10.973782236561066"><ele>1254.0</ele><time>2026-05-03T09:23:42.969Z</time></trkpt><trkpt lat="45.905114358233334" lon="10.973701183183609"><ele>1254.0</ele><time>2026-05-03T09:23:43.969Z</time></trkpt><trkpt lat="45.904974337841765" lon="10.973634915863073"><ele>1254.0</ele><time>2026-05-03T09:23:44.969Z</time></trkpt><trkpt lat="45.90483417358713" lon="10.973569037253585"><ele>1254.0</ele><time>2026-05-03T09:23:45.969Z</time></trkpt><trkpt lat="45.90468687543517" lon="10.973525644824724"><ele>1248.0</ele><time>2026-05-03T09:23:46.969Z</time></trkpt><trkpt lat="45.904532928351" lon="10.973544354046599"><ele>1242.0</ele><time>2026-05-03T09:23:47.969Z</time></trkpt><trkpt lat="45.90437450478335" lon="10.973621084167592"><ele>1236.0</ele><time>2026-05-03T09:23:48.968Z</time></trkpt><trkpt lat="45.90423905972286" lon="10.973735132238685"><ele>1234.75</ele><time>2026-05-03T09:23:49.968Z</time></trkpt><trkpt lat="45.904112276446796" lon="10.97383868975137"><ele>1233.5</ele><time>2026-05-03T09:23:50.968Z</time></trkpt><trkpt lat="45.903994334336495" lon="10.973934834649105"><ele>1232.25</ele><time>2026-05-03T09:23:51.968Z</time></trkpt><trkpt lat="45.90387490787156" lon="10.974009569471889"><ele>1231.0</ele><time>2026-05-03T09:23:52.968Z</time></trkpt><trkpt lat="45.90373805957122" lon="10.974051939288662"><ele>1231.0</ele><time>2026-05-03T09:23:53.968Z</time></trkpt><trkpt lat="45.903581097504464" lon="10.974086016590313"><ele>1231.0</ele><time>2026-05-03T09:23:54.968Z</time></trkpt><trkpt lat="45.90341349314436" lon="10.97411224916919"><ele>1231.0</ele><time>2026-05-03T09:23:55.968Z</time></trkpt><trkpt lat="45.903238564138455" lon="10.9741578327233"><ele>1228.0</ele><time>2026-05-03T09:23:56.968Z</time></trkpt><trkpt lat="45.90306729473666" lon="10.974142598554526"><ele>1225.0</ele><time>2026-05-03T09:23:57.968Z</time></trkpt><trkpt lat="45.90290261492376" lon="10.97414104363391"><ele>1222.0</ele><time>2026-05-03T09:23:58.968Z</time></trkpt><trkpt lat="45.90273736352289" lon="10.974116762594276"><ele>1222.0</ele><time>2026-05-03T09:23:59.968Z</time></trkpt><trkpt lat="45.90258366552296" lon="10.974134647578119"><ele>1222.0</ele><time>2026-05-03T09:24:00.968Z</time></trkpt><trkpt lat="45.90242672713556" lon="10.97419279584783"><ele>1222.0</ele><time>2026-05-03T09:24:01.968Z</time></trkpt><trkpt lat="45.90227329972179" lon="10.97427461841572"><ele>1220.6666666666665</ele><time>2026-05-03T09:24:02.968Z</time></trkpt><trkpt lat="45.902126632025805" lon="10.974330504204493"><ele>1219.3333333333333</ele><time>2026-05-03T09:24:03.968Z</time></trkpt><trkpt lat="45.90198434504881" lon="10.974370535620704"><ele>1218.0</ele><time>2026-05-03T09:24:04.968Z</time></trkpt><trkpt lat="45.901830368310634" lon="10.97436135624191"><ele>1213.6666666666667</ele><time>2026-05-03T09:24:05.968Z</time></trkpt><trkpt lat="45.901664769164746" lon="10.97430631766712"><ele>1209.3333333333335</ele><time>2026-05-03T09:24:06.968Z</time></trkpt><trkpt lat="45.90148985572009" lon="10.97424108966684"><ele>1205.0</ele><time>2026-05-03T09:24:07.968Z</time></trkpt><trkpt lat="45.90131411329333" lon="10.974237540035176"><ele>1205.0</ele><time>2026-05-03T09:24:08.968Z</time></trkpt><trkpt lat="45.901133639506035" lon="10.974262209679036"><ele>1205.0</ele><time>2026-05-03T09:24:09.968Z</time></trkpt><trkpt lat="45.90097187311245" lon="10.97423580508106"><ele>1205.0</ele><time>2026-05-03T09:24:10.968Z</time></trkpt><trkpt lat="45.90085083318367" lon="10.974193916276423"><ele>1205.0</ele><time>2026-05-03T09:24:11.968Z</time></trkpt><trkpt lat="45.90074335637851" lon="10.97415890503783"><ele>1205.0</ele><time>2026-05-03T09:24:12.968Z</time></trkpt><trkpt lat="45.90062217497378" lon="10.974148665758502"><ele>1205.0</ele><time>2026-05-03T09:24:13.968Z</time></trkpt><trkpt lat="45.90049274230497" lon="10.974185899239206"><ele>1205.0</ele><time>2026-05-03T09:24:14.968Z</time></trkpt><trkpt lat="45.900379719888285" lon="10.974293258684348"><ele>1205.0</ele><time>2026-05-03T09:24:15.968Z</time></trkpt><trkpt lat="45.90028588192412" lon="10.974408592169654"><ele>1205.0</ele><time>2026-05-03T09:24:16.968Z</time></trkpt><trkpt lat="45.900216902357336" lon="10.974532453557103"><ele>1205.0</ele><time>2026-05-03T09:24:17.968Z</time></trkpt><trkpt lat="45.900151790994705" lon="10.974638184136804"><ele>1205.0</ele><time>2026-05-03T09:24:18.968Z</time></trkpt><trkpt lat="45.90007805923582" lon="10.974729834881813"><ele>1205.0</ele><time>2026-05-03T09:24:19.968Z</time></trkpt><trkpt lat="45.89999557754194" lon="10.974771746137979"><ele>1205.0</ele><time>2026-05-03T09:24:20.968Z</time></trkpt><trkpt lat="45.899898129997275" lon="10.974741908919427"><ele>1205.0</ele><time>2026-05-03T09:24:21.968Z</time></trkpt><trkpt lat="45.89978293794174" lon="10.974696831807105"><ele>1205.0</ele><time>2026-05-03T09:24:22.968Z</time></trkpt><trkpt lat="45.89968387232719" lon="10.97464387223715"><ele>1205.0</ele><time>2026-05-03T09:24:23.968Z</time></trkpt><trkpt lat="45.89956959959102" lon="10.974582783744667"><ele>1205.0</ele><time>2026-05-03T09:24:24.968Z</time></trkpt><trkpt lat="45.8994669972984" lon="10.974527933805385"><ele>1205.0</ele><time>2026-05-03T09:24:25.968Z</time></trkpt><trkpt lat="45.899361373539875" lon="10.97447146878259"><ele>1205.0</ele><time>2026-05-03T09:24:26.968Z</time></trkpt><trkpt lat="45.899251650480124" lon="10.974412818903362"><ele>1205.0</ele><time>2026-05-03T09:24:27.968Z</time></trkpt><trkpt lat="45.89913950399001" lon="10.974362746954641"><ele>1205.0</ele><time>2026-05-03T09:24:28.968Z</time></trkpt><trkpt lat="45.899032839744265" lon="10.974323370421757"><ele>1204.4</ele><time>2026-05-03T09:24:29.968Z</time></trkpt><trkpt lat="45.898918864474446" lon="10.974289369286193"><ele>1203.8</ele><time>2026-05-03T09:24:30.968Z</time></trkpt><trkpt lat="45.89880981985731" lon="10.974260015498952"><ele>1203.2</ele><time>2026-05-03T09:24:31.968Z</time></trkpt><trkpt lat="45.898693930340215" lon="10.974226219505171"><ele>1202.6</ele><time>2026-05-03T09:24:32.968Z</time></trkpt><trkpt lat="45.898605711969694" lon="10.974202588881246"><ele>1202.0</ele><time>2026-05-03T09:24:33.968Z</time></trkpt><trkpt lat="45.89852273299531" lon="10.974167808216732"><ele>1202.0</ele><time>2026-05-03T09:24:34.968Z</time></trkpt><trkpt lat="45.8984496380955" lon="10.974079657022926"><ele>1202.0</ele><time>2026-05-03T09:24:35.968Z</time></trkpt><trkpt lat="45.8984033716129" lon="10.973931046330641"><ele>1202.0</ele><time>2026-05-03T09:24:36.968Z</time></trkpt><trkpt lat="45.89837791559035" lon="10.973785348860426"><ele>1202.0</ele><time>2026-05-03T09:24:37.968Z</time></trkpt><trkpt lat="45.8983330239294" lon="10.973648626005831"><ele>1202.0</ele><time>2026-05-03T09:24:38.968Z</time></trkpt><trkpt lat="45.898305361559096" lon="10.97351458998297"><ele>1200.8</ele><time>2026-05-03T09:24:39.968Z</time></trkpt><trkpt lat="45.89827250119676" lon="10.973388292254318"><ele>1199.6</ele><time>2026-05-03T09:24:40.968Z</time></trkpt><trkpt lat="45.89824102411131" lon="10.973262441853345"><ele>1198.3999999999999</ele><time>2026-05-03T09:24:41.968Z</time></trkpt><trkpt lat="45.898218906688726" lon="10.973118744258022"><ele>1197.2</ele><time>2026-05-03T09:24:42.968Z</time></trkpt><trkpt lat="45.89822161279852" lon="10.972962627552551"><ele>1196.0</ele><time>2026-05-03T09:24:43.968Z</time></trkpt><trkpt lat="45.8982460303408" lon="10.972797509190256"><ele>1195.6</ele><time>2026-05-03T09:24:44.968Z</time></trkpt><trkpt lat="45.89828087983913" lon="10.972633457499953"><ele>1195.1999999999998</ele><time>2026-05-03T09:24:45.968Z</time></trkpt><trkpt lat="45.89831853142754" lon="10.972474672130982"><ele>1194.8000000000002</ele><time>2026-05-03T09:24:46.968Z</time></trkpt><trkpt lat="45.898367495253794" lon="10.972343836991172"><ele>1194.4</ele><time>2026-05-03T09:24:47.968Z</time></trkpt><trkpt lat="45.898404971862874" lon="10.972231506262405"><ele>1194.0</ele><time>2026-05-03T09:24:48.968Z</time></trkpt><trkpt lat="45.89844146710329" lon="10.972133759150376"><ele>1193.6666666666667</ele><time>2026-05-03T09:24:49.968Z</time></trkpt><trkpt lat="45.89849742816454" lon="10.97206825272591"><ele>1193.3333333333333</ele><time>2026-05-03T09:24:50.968Z</time></trkpt><trkpt lat="45.898572737774785" lon="10.97208630898628"><ele>1193.0</ele><time>2026-05-03T09:24:51.968Z</time></trkpt><trkpt lat="45.89866756036779" lon="10.972186222623405"><ele>1192.6666666666665</ele><time>2026-05-03T09:24:53.968Z</time></trkpt><trkpt lat="45.89872690064437" lon="10.97224157126805"><ele>1192.3333333333333</ele><time>2026-05-03T09:24:54.968Z</time></trkpt><trkpt lat="45.89880116067299" lon="10.972284222530853"><ele>1192.0</ele><time>2026-05-03T09:24:55.968Z</time></trkpt><trkpt lat="45.89887994306997" lon="10.972274505050498"><ele>1192.0</ele><time>2026-05-03T09:24:56.968Z</time></trkpt><trkpt lat="45.89892006496521" lon="10.972154109509335"><ele>1192.0</ele><time>2026-05-03T09:24:57.968Z</time></trkpt><trkpt lat="45.898882916443355" lon="10.971988966587835"><ele>1192.0</ele><time>2026-05-03T09:24:59.969Z</time></trkpt><trkpt lat="45.89882025841871" lon="10.971886229078313"><ele>1192.0</ele><time>2026-05-03T09:25:00.969Z</time></trkpt><trkpt lat="45.89872327070325" lon="10.971784144745316"><ele>1192.0</ele><time>2026-05-03T09:25:01.969Z</time></trkpt><trkpt lat="45.89861566697723" lon="10.971668914323484"><ele>1190.0</ele><time>2026-05-03T09:25:02.969Z</time></trkpt><trkpt lat="45.89850942603416" lon="10.971543458206666"><ele>1188.0</ele><time>2026-05-03T09:25:03.968Z</time></trkpt><trkpt lat="45.89840600878641" lon="10.971399629376071"><ele>1186.0</ele><time>2026-05-03T09:25:04.968Z</time></trkpt><trkpt lat="45.898313223669355" lon="10.971242912014233"><ele>1184.0</ele><time>2026-05-03T09:25:05.969Z</time></trkpt><trkpt lat="45.89822195013065" lon="10.971072890701663"><ele>1181.75</ele><time>2026-05-03T09:25:06.968Z</time></trkpt><trkpt lat="45.898126908427265" lon="10.970923598060878"><ele>1179.5</ele><time>2026-05-03T09:25:07.968Z</time></trkpt><trkpt lat="45.8980390460324" lon="10.970764416641824"><ele>1177.25</ele><time>2026-05-03T09:25:08.969Z</time></trkpt><trkpt lat="45.89795490853383" lon="10.970607059555066"><ele>1175.0</ele><time>2026-05-03T09:25:09.969Z</time></trkpt><trkpt lat="45.8978754029162" lon="10.970451057887157"><ele>1173.25</ele><time>2026-05-03T09:25:10.969Z</time></trkpt><trkpt lat="45.897812375324435" lon="10.970293951133339"><ele>1171.5</ele><time>2026-05-03T09:25:11.969Z</time></trkpt><trkpt lat="45.89776084259645" lon="10.97013445618361"><ele>1169.75</ele><time>2026-05-03T09:25:12.969Z</time></trkpt><trkpt lat="45.89772673453456" lon="10.96995402752783"><ele>1168.0</ele><time>2026-05-03T09:25:13.969Z</time></trkpt><trkpt lat="45.89770258193168" lon="10.969760746280919"><ele>1167.0</ele><time>2026-05-03T09:25:14.969Z</time></trkpt><trkpt lat="45.897697360403434" lon="10.96956288465089"><ele>1166.0</ele><time>2026-05-03T09:25:15.969Z</time></trkpt><trkpt lat="45.89767984917921" lon="10.969387315910062"><ele>1165.0</ele><time>2026-05-03T09:25:16.969Z</time></trkpt><trkpt lat="45.897676491433174" lon="10.969255488274415"><ele>1164.0</ele><time>2026-05-03T09:25:17.969Z</time></trkpt><trkpt lat="45.89762816849655" lon="10.96914278062886"><ele>1163.0</ele><time>2026-05-03T09:25:18.969Z</time></trkpt><trkpt lat="45.89757487505023" lon="10.96908342640769"><ele>1159.8</ele><time>2026-05-03T09:25:19.969Z</time></trkpt><trkpt lat="45.89748849822874" lon="10.969027735153647"><ele>1156.6</ele><time>2026-05-03T09:25:20.969Z</time></trkpt><trkpt lat="45.897427977410956" lon="10.968979902051718"><ele>1153.4</ele><time>2026-05-03T09:25:21.969Z</time></trkpt><trkpt lat="45.89732768524834" lon="10.968897270921392"><ele>1150.2</ele><time>2026-05-03T09:25:22.969Z</time></trkpt><trkpt lat="45.89719247113259" lon="10.968942576192719"><ele>1147.0</ele><time>2026-05-03T09:25:23.969Z</time></trkpt><trkpt lat="45.897104909295194" lon="10.969040979095011"><ele>1147.0</ele><time>2026-05-03T09:25:24.969Z</time></trkpt><trkpt lat="45.89704409884592" lon="10.96912115173502"><ele>1147.0</ele><time>2026-05-03T09:25:25.969Z</time></trkpt><trkpt lat="45.8969808365845" lon="10.969196603720192"><ele>1147.0</ele><time>2026-05-03T09:25:26.969Z</time></trkpt><trkpt lat="45.896879561046944" lon="10.969164664101774"><ele>1147.0</ele><time>2026-05-03T09:25:28.969Z</time></trkpt><trkpt lat="45.8968362770586" lon="10.96903712830525"><ele>1147.0</ele><time>2026-05-03T09:25:29.969Z</time></trkpt><trkpt lat="45.896815624230854" lon="10.968876366864015"><ele>1147.0</ele><time>2026-05-03T09:25:30.969Z</time></trkpt><trkpt lat="45.89676484310499" lon="10.96871713001452"><ele>1147.0</ele><time>2026-05-03T09:25:31.969Z</time></trkpt><trkpt lat="45.89672340464169" lon="10.968554401756682"><ele>1147.0</ele><time>2026-05-03T09:25:32.969Z</time></trkpt><trkpt lat="45.89667626622473" lon="10.968400656325562"><ele>1147.0</ele><time>2026-05-03T09:25:33.969Z</time></trkpt><trkpt lat="45.89663409788702" lon="10.968243634155959"><ele>1144.4</ele><time>2026-05-03T09:25:34.969Z</time></trkpt><trkpt lat="45.89661698902352" lon="10.968079252318221"><ele>1141.8000000000002</ele><time>2026-05-03T09:25:35.969Z</time></trkpt><trkpt lat="45.89659424588474" lon="10.967959486852436"><ele>1139.2</ele><time>2026-05-03T09:25:36.969Z</time></trkpt><trkpt lat="45.89662325682986" lon="10.967822747175203"><ele>1136.6000000000001</ele><time>2026-05-03T09:25:37.969Z</time></trkpt><trkpt lat="45.89667350951571" lon="10.967663914716123"><ele>1134.0</ele><time>2026-05-03T09:25:38.969Z</time></trkpt><trkpt lat="45.8967395780727" lon="10.967503412918138"><ele>1134.4</ele><time>2026-05-03T09:25:39.969Z</time></trkpt><trkpt lat="45.896799093042844" lon="10.967350800193273"><ele>1134.8000000000002</ele><time>2026-05-03T09:25:40.969Z</time></trkpt><trkpt lat="45.89685523016748" lon="10.967208879951485"><ele>1135.1999999999998</ele><time>2026-05-03T09:25:41.969Z</time></trkpt><trkpt lat="45.896911634491815" lon="10.967103894278605"><ele>1135.6</ele><time>2026-05-03T09:25:42.969Z</time></trkpt><trkpt lat="45.89695807649105" lon="10.96699882562578"><ele>1136.0</ele><time>2026-05-03T09:25:43.969Z</time></trkpt><trkpt lat="45.89699931589215" lon="10.966898678694857"><ele>1136.0</ele><time>2026-05-03T09:25:44.969Z</time></trkpt><trkpt lat="45.89700722514838" lon="10.966783528920377"><ele>1136.0</ele><time>2026-05-03T09:25:45.969Z</time></trkpt><trkpt lat="45.89697720780564" lon="10.966667326979483"><ele>1136.0</ele><time>2026-05-03T09:25:46.969Z</time></trkpt><trkpt lat="45.896901605321936" lon="10.966580793834504"><ele>1136.0</ele><time>2026-05-03T09:25:47.969Z</time></trkpt><trkpt lat="45.89678978925583" lon="10.966565409349256"><ele>1136.0</ele><time>2026-05-03T09:25:48.969Z</time></trkpt><trkpt lat="45.89666806369828" lon="10.966610149401264"><ele>1130.75</ele><time>2026-05-03T09:25:49.969Z</time></trkpt><trkpt lat="45.89655080876748" lon="10.96661508421957"><ele>1125.5</ele><time>2026-05-03T09:25:50.969Z</time></trkpt><trkpt lat="45.896433082221535" lon="10.966554609923302"><ele>1120.25</ele><time>2026-05-03T09:25:51.969Z</time></trkpt><trkpt lat="45.89627539851338" lon="10.966484775131175"><ele>1115.0</ele><time>2026-05-03T09:25:52.969Z</time></trkpt><trkpt lat="45.896089556344826" lon="10.966403154067814"><ele>1113.0</ele><time>2026-05-03T09:25:53.969Z</time></trkpt><trkpt lat="45.89590811487894" lon="10.966320295261967"><ele>1111.0</ele><time>2026-05-03T09:25:54.969Z</time></trkpt><trkpt lat="45.89574615021959" lon="10.966221879152943"><ele>1109.0</ele><time>2026-05-03T09:25:55.969Z</time></trkpt><trkpt lat="45.895618752556615" lon="10.966094691866871"><ele>1109.0</ele><time>2026-05-03T09:25:56.969Z</time></trkpt><trkpt lat="45.89550053730307" lon="10.965937404292147"><ele>1109.0</ele><time>2026-05-03T09:25:57.969Z</time></trkpt><trkpt lat="45.8953973450778" lon="10.965750477207262"><ele>1109.0</ele><time>2026-05-03T09:25:58.968Z</time></trkpt><trkpt lat="45.895326692524925" lon="10.965532340091281"><ele>1105.0</ele><time>2026-05-03T09:25:59.968Z</time></trkpt><trkpt lat="45.89524853259478" lon="10.965309384743074"><ele>1101.0</ele><time>2026-05-03T09:26:00.968Z</time></trkpt><trkpt lat="45.89515896349369" lon="10.965119430550512"><ele>1097.0</ele><time>2026-05-03T09:26:01.968Z</time></trkpt><trkpt lat="45.895033306012145" lon="10.964994399109395"><ele>1097.0</ele><time>2026-05-03T09:26:02.968Z</time></trkpt><trkpt lat="45.89489686093574" lon="10.964850371833693"><ele>1097.0</ele><time>2026-05-03T09:26:03.968Z</time></trkpt><trkpt lat="45.89474157902695" lon="10.964724474544509"><ele>1097.0</ele><time>2026-05-03T09:26:04.968Z</time></trkpt><trkpt lat="45.89459163375923" lon="10.964601695552586"><ele>1097.0</ele><time>2026-05-03T09:26:05.968Z</time></trkpt><trkpt lat="45.894466029273204" lon="10.964496014021698"><ele>1097.0</ele><time>2026-05-03T09:26:06.968Z</time></trkpt><trkpt lat="45.894366637722605" lon="10.964364006875842"><ele>1097.0</ele><time>2026-05-03T09:26:07.968Z</time></trkpt><trkpt lat="45.89428230925787" lon="10.96420027034943"><ele>1097.0</ele><time>2026-05-03T09:26:08.968Z</time></trkpt><trkpt lat="45.89422238060755" lon="10.96399336290852"><ele>1094.3333333333335</ele><time>2026-05-03T09:26:09.968Z</time></trkpt><trkpt lat="45.89418651102408" lon="10.963771280243199"><ele>1091.6666666666667</ele><time>2026-05-03T09:26:10.968Z</time></trkpt><trkpt lat="45.89416745076449" lon="10.963549716088652"><ele>1089.0</ele><time>2026-05-03T09:26:11.968Z</time></trkpt><trkpt lat="45.89418000600424" lon="10.963342830989177"><ele>1087.0</ele><time>2026-05-03T09:26:12.968Z</time></trkpt><trkpt lat="45.89423897886967" lon="10.963140981535847"><ele>1085.0</ele><time>2026-05-03T09:26:13.968Z</time></trkpt><trkpt lat="45.89433575364769" lon="10.962925593616884"><ele>1083.0</ele><time>2026-05-03T09:26:14.968Z</time></trkpt><trkpt lat="45.894421334919315" lon="10.962680362073677"><ele>1078.0</ele><time>2026-05-03T09:26:15.968Z</time></trkpt><trkpt lat="45.894539850093665" lon="10.962420097251057"><ele>1073.0</ele><time>2026-05-03T09:26:16.968Z</time></trkpt><trkpt lat="45.894657528180566" lon="10.962132753098155"><ele>1068.0</ele><time>2026-05-03T09:26:17.968Z</time></trkpt><trkpt lat="45.89481122391973" lon="10.961883017213305"><ele>1067.6666666666667</ele><time>2026-05-03T09:26:18.968Z</time></trkpt><trkpt lat="45.89497140742507" lon="10.96166843842851"><ele>1067.3333333333335</ele><time>2026-05-03T09:26:19.968Z</time></trkpt><trkpt lat="45.8950898959214" lon="10.96146641396331"><ele>1067.0</ele><time>2026-05-03T09:26:20.968Z</time></trkpt><trkpt lat="45.89518083916427" lon="10.961298158452328"><ele>1067.5</ele><time>2026-05-03T09:26:21.968Z</time></trkpt><trkpt lat="45.8952301868869" lon="10.961156148435688"><ele>1068.0</ele><time>2026-05-03T09:26:22.968Z</time></trkpt><trkpt lat="45.89524233448951" lon="10.960978275453154"><ele>1068.5</ele><time>2026-05-03T09:26:23.968Z</time></trkpt><trkpt lat="45.89519328107154" lon="10.960802778527423"><ele>1069.0</ele><time>2026-05-03T09:26:24.968Z</time></trkpt><trkpt lat="45.89511578636822" lon="10.960620604107115"><ele>1069.0</ele><time>2026-05-03T09:26:25.968Z</time></trkpt><trkpt lat="45.895039267721785" lon="10.960450704979419"><ele>1069.0</ele><time>2026-05-03T09:26:26.968Z</time></trkpt><trkpt lat="45.89501925239976" lon="10.960276732100528"><ele>1069.0</ele><time>2026-05-03T09:26:27.968Z</time></trkpt><trkpt lat="45.89504638552761" lon="10.960078796992006"><ele>1069.0</ele><time>2026-05-03T09:26:28.968Z</time></trkpt><trkpt lat="45.89507777734334" lon="10.959848593642878"><ele>1070.25</ele><time>2026-05-03T09:26:29.968Z</time></trkpt><trkpt lat="45.895096563102804" lon="10.959629258123584"><ele>1071.5</ele><time>2026-05-03T09:26:30.968Z</time></trkpt><trkpt lat="45.89511162540003" lon="10.95949886256628"><ele>1072.75</ele><time>2026-05-03T09:26:31.968Z</time></trkpt><trkpt lat="45.89517335919942" lon="10.959347020795565"><ele>1074.0</ele><time>2026-05-03T09:26:32.968Z</time></trkpt><trkpt lat="45.89530760170863" lon="10.959249877200588"><ele>1073.25</ele><time>2026-05-03T09:26:33.968Z</time></trkpt><trkpt lat="45.895438406420844" lon="10.959157749152052"><ele>1072.5</ele><time>2026-05-03T09:26:34.968Z</time></trkpt><trkpt lat="45.89554284461851" lon="10.959042303608205"><ele>1071.75</ele><time>2026-05-03T09:26:35.968Z</time></trkpt><trkpt lat="45.89561286155536" lon="10.958931083045"><ele>1071.0</ele><time>2026-05-03T09:26:36.968Z</time></trkpt><trkpt lat="45.895663496135924" lon="10.958779393466855"><ele>1071.0</ele><time>2026-05-03T09:26:37.968Z</time></trkpt><trkpt lat="45.89569929776303" lon="10.958617256417499"><ele>1071.0</ele><time>2026-05-03T09:26:38.968Z</time></trkpt><trkpt lat="45.89569674538952" lon="10.958390690330035"><ele>1071.0</ele><time>2026-05-03T09:26:39.968Z</time></trkpt><trkpt lat="45.89566694832245" lon="10.958131163918136"><ele>1068.6666666666667</ele><time>2026-05-03T09:26:40.968Z</time></trkpt><trkpt lat="45.89564406359403" lon="10.9578855412741"><ele>1066.3333333333335</ele><time>2026-05-03T09:26:41.968Z</time></trkpt><trkpt lat="45.895614464800495" lon="10.957638860553113"><ele>1064.0</ele><time>2026-05-03T09:26:42.968Z</time></trkpt><trkpt lat="45.89555956851629" lon="10.957437797604864"><ele>1063.6666666666667</ele><time>2026-05-03T09:26:43.968Z</time></trkpt><trkpt lat="45.89546154795882" lon="10.95726159667539"><ele>1063.3333333333333</ele><time>2026-05-03T09:26:44.968Z</time></trkpt><trkpt lat="45.895339481588216" lon="10.95707922131099"><ele>1063.0</ele><time>2026-05-03T09:26:45.968Z</time></trkpt><trkpt lat="45.89523797597615" lon="10.956868063784622"><ele>1064.0</ele><time>2026-05-03T09:26:46.968Z</time></trkpt><trkpt lat="45.89517550827682" lon="10.956631661342897"><ele>1065.0</ele><time>2026-05-03T09:26:47.968Z</time></trkpt><trkpt lat="45.895141577628955" lon="10.956409615290596"><ele>1066.0</ele><time>2026-05-03T09:26:48.968Z</time></trkpt><trkpt lat="45.89512275945599" lon="10.956233604539376"><ele>1062.0</ele><time>2026-05-03T09:26:49.968Z</time></trkpt><trkpt lat="45.89508568748793" lon="10.956107291657743"><ele>1058.0</ele><time>2026-05-03T09:26:50.968Z</time></trkpt><trkpt lat="45.89500525840155" lon="10.95603093109551"><ele>1054.0</ele><time>2026-05-03T09:26:51.968Z</time></trkpt><trkpt lat="45.894882189706756" lon="10.956003325870867"><ele>1050.0</ele><time>2026-05-03T09:26:52.968Z</time></trkpt><trkpt lat="45.894740862146705" lon="10.95598654466569"><ele>1050.0</ele><time>2026-05-03T09:26:53.968Z</time></trkpt><trkpt lat="45.894598253288684" lon="10.955954326864033"><ele>1050.0</ele><time>2026-05-03T09:26:54.968Z</time></trkpt><trkpt lat="45.89446902556863" lon="10.955866390688033"><ele>1050.0</ele><time>2026-05-03T09:26:55.968Z</time></trkpt><trkpt lat="45.894393294100254" lon="10.955683220167295"><ele>1050.0</ele><time>2026-05-03T09:26:56.968Z</time></trkpt><trkpt lat="45.894291315860535" lon="10.955488832634504"><ele>1043.6666666666667</ele><time>2026-05-03T09:26:57.968Z</time></trkpt><trkpt lat="45.89417715280527" lon="10.95528552074486"><ele>1037.3333333333335</ele><time>2026-05-03T09:26:58.968Z</time></trkpt><trkpt lat="45.89406065449127" lon="10.955074664961362"><ele>1031.0</ele><time>2026-05-03T09:26:59.968Z</time></trkpt><trkpt lat="45.89394413815485" lon="10.9548764454063"><ele>1028.3333333333335</ele><time>2026-05-03T09:27:00.968Z</time></trkpt><trkpt lat="45.893835975979144" lon="10.954683878180242"><ele>1025.6666666666667</ele><time>2026-05-03T09:27:01.968Z</time></trkpt><trkpt lat="45.89373922608944" lon="10.954520781350368"><ele>1023.0</ele><time>2026-05-03T09:27:02.968Z</time></trkpt><trkpt lat="45.89364961008366" lon="10.95438165587432"><ele>1023.0</ele><time>2026-05-03T09:27:03.968Z</time></trkpt><trkpt lat="45.89353655082776" lon="10.954289010122983"><ele>1023.0</ele><time>2026-05-03T09:27:04.968Z</time></trkpt><trkpt lat="45.89339960948803" lon="10.9542315020861"><ele>1023.0</ele><time>2026-05-03T09:27:05.968Z</time></trkpt><trkpt lat="45.89324996872408" lon="10.954192865771507"><ele>1023.0</ele><time>2026-05-03T09:27:06.968Z</time></trkpt><trkpt lat="45.893115533903774" lon="10.954170651094149"><ele>1021.5999999999999</ele><time>2026-05-03T09:27:07.968Z</time></trkpt><trkpt lat="45.89297032848561" lon="10.954137696322032"><ele>1020.1999999999999</ele><time>2026-05-03T09:27:09.968Z</time></trkpt><trkpt lat="45.892883073465335" lon="10.954099760176375"><ele>1018.8</ele><time>2026-05-03T09:27:10.968Z</time></trkpt><trkpt lat="45.89280140569876" lon="10.954062329069924"><ele>1017.4</ele><time>2026-05-03T09:27:11.968Z</time></trkpt><trkpt lat="45.892729742254815" lon="10.954006824388205"><ele>1016.0</ele><time>2026-05-03T09:27:13.968Z</time></trkpt><trkpt lat="45.89264004359448" lon="10.9539103790677"><ele>1014.5000000000001</ele><time>2026-05-03T09:27:15.968Z</time></trkpt><trkpt lat="45.89257262565159" lon="10.95384615480838"><ele>1013.0</ele><time>2026-05-03T09:27:16.968Z</time></trkpt><trkpt lat="45.89250625818917" lon="10.953773536116609"><ele>1011.5</ele><time>2026-05-03T09:27:17.968Z</time></trkpt><trkpt lat="45.89244733263641" lon="10.953708029463233"><ele>1010.0</ele><time>2026-05-03T09:27:18.968Z</time></trkpt><trkpt lat="45.89239402195536" lon="10.953634766703052"><ele>1008.5000000000001</ele><time>2026-05-03T09:27:19.968Z</time></trkpt><trkpt lat="45.89233582908169" lon="10.953547654678347"><ele>1007.0</ele><time>2026-05-03T09:27:20.968Z</time></trkpt><trkpt lat="45.89226786501119" lon="10.953450762317814"><ele>1007.4000000000001</ele><time>2026-05-03T09:27:21.968Z</time></trkpt><trkpt lat="45.892208908913716" lon="10.95335056937165"><ele>1007.8000000000001</ele><time>2026-05-03T09:27:22.968Z</time></trkpt><trkpt lat="45.8921495956132" lon="10.953264818859243"><ele>1008.2</ele><time>2026-05-03T09:27:23.968Z</time></trkpt><trkpt lat="45.89206837069204" lon="10.953191620122638"><ele>1008.6</ele><time>2026-05-03T09:27:24.968Z</time></trkpt><trkpt lat="45.89198735027666" lon="10.953109421734434"><ele>1009.0</ele><time>2026-05-03T09:27:25.968Z</time></trkpt><trkpt lat="45.89191493922408" lon="10.953016491293175"><ele>1009.0</ele><time>2026-05-03T09:27:26.968Z</time></trkpt><trkpt lat="45.89187480878628" lon="10.952888941128656"><ele>1009.0000000000001</ele><time>2026-05-03T09:27:27.968Z</time></trkpt><trkpt lat="45.891819454759954" lon="10.952772078404482"><ele>1009.0000000000001</ele><time>2026-05-03T09:27:28.968Z</time></trkpt><trkpt lat="45.89177558607128" lon="10.952651034700844"><ele>1009.0</ele><time>2026-05-03T09:27:29.968Z</time></trkpt><trkpt lat="45.89173516616737" lon="10.952529246648373"><ele>1009.0</ele><time>2026-05-03T09:27:30.968Z</time></trkpt><trkpt lat="45.89169209958256" lon="10.952423794359175"><ele>1006.8333333333333</ele><time>2026-05-03T09:27:31.968Z</time></trkpt><trkpt lat="45.89166047569698" lon="10.952336167683194"><ele>1004.6666666666666</ele><time>2026-05-03T09:27:32.968Z</time></trkpt><trkpt lat="45.891654741671836" lon="10.952236736934397"><ele>1002.5</ele><time>2026-05-03T09:27:33.968Z</time></trkpt><trkpt lat="45.891671611024286" lon="10.95214242731387"><ele>1000.3333333333333</ele><time>2026-05-03T09:27:34.968Z</time></trkpt><trkpt lat="45.89170831253211" lon="10.952043161542923"><ele>998.1666666666666</ele><time>2026-05-03T09:27:35.968Z</time></trkpt><trkpt lat="45.89171940335292" lon="10.951945801825834"><ele>996.0</ele><time>2026-05-03T09:27:36.968Z</time></trkpt><trkpt lat="45.891744128210874" lon="10.951805413409485"><ele>996.0</ele><time>2026-05-03T09:27:38.968Z</time></trkpt><trkpt lat="45.891689788374656" lon="10.951695661056608"><ele>996.0</ele><time>2026-05-03T09:27:40.968Z</time></trkpt><trkpt lat="45.89158510472219" lon="10.95168515607842"><ele>996.0</ele><time>2026-05-03T09:27:42.968Z</time></trkpt><trkpt lat="45.89151835331231" lon="10.951756761298032"><ele>996.0</ele><time>2026-05-03T09:27:43.968Z</time></trkpt><trkpt lat="45.89148184467876" lon="10.951866959152975"><ele>996.0</ele><time>2026-05-03T09:27:44.968Z</time></trkpt><trkpt lat="45.89146629569061" lon="10.951965384409087"><ele>996.0</ele><time>2026-05-03T09:27:45.968Z</time></trkpt><trkpt lat="45.89145506086633" lon="10.95205526297487"><ele>996.0</ele><time>2026-05-03T09:27:46.968Z</time></trkpt><trkpt lat="45.89144390614425" lon="10.95214450094001"><ele>996.0</ele><time>2026-05-03T09:27:47.968Z</time></trkpt><trkpt lat="45.891404624839154" lon="10.952235358960229"><ele>996.0</ele><time>2026-05-03T09:27:49.968Z</time></trkpt><trkpt lat="45.891348619106" lon="10.952284266495091"><ele>996.0</ele><time>2026-05-03T09:27:51.968Z</time></trkpt><trkpt lat="45.891255465849746" lon="10.95218527519724"><ele>996.0</ele><time>2026-05-03T09:27:53.968Z</time></trkpt><trkpt lat="45.89120597003722" lon="10.952112530156331"><ele>996.0</ele><time>2026-05-03T09:27:54.968Z</time></trkpt><trkpt lat="45.89115780454219" lon="10.952048318138086"><ele>996.0</ele><time>2026-05-03T09:27:55.968Z</time></trkpt><trkpt lat="45.891104731038176" lon="10.95197886401179"><ele>996.0</ele><time>2026-05-03T09:27:56.968Z</time></trkpt><trkpt lat="45.89105240894081" lon="10.951917906722521"><ele>996.0</ele><time>2026-05-03T09:27:57.968Z</time></trkpt><trkpt lat="45.89099396770736" lon="10.951852556307744"><ele>996.0</ele><time>2026-05-03T09:27:58.968Z</time></trkpt><trkpt lat="45.8909077698584" lon="10.951740381769858"><ele>996.0</ele><time>2026-05-03T09:28:00.968Z</time></trkpt><trkpt lat="45.89083051839477" lon="10.951645604218214"><ele>996.0</ele><time>2026-05-03T09:28:02.968Z</time></trkpt><trkpt lat="45.89074051281746" lon="10.95151775154662"><ele>994.0</ele><time>2026-05-03T09:28:04.968Z</time></trkpt><trkpt lat="45.8906923737786" lon="10.951445192581133"><ele>992.0</ele><time>2026-05-03T09:28:05.968Z</time></trkpt><trkpt lat="45.89063960028801" lon="10.951364994852375"><ele>990.0</ele><time>2026-05-03T09:28:06.968Z</time></trkpt><trkpt lat="45.890581765468475" lon="10.95128408630851"><ele>988.0</ele><time>2026-05-03T09:28:07.968Z</time></trkpt><trkpt lat="45.890519266262764" lon="10.951191499866226"><ele>986.0</ele><time>2026-05-03T09:28:08.968Z</time></trkpt><trkpt lat="45.89046662213133" lon="10.951106240347476"><ele>984.0</ele><time>2026-05-03T09:28:09.968Z</time></trkpt><trkpt lat="45.89042023218863" lon="10.951015619312004"><ele>984.0</ele><time>2026-05-03T09:28:10.968Z</time></trkpt><trkpt lat="45.89036893448644" lon="10.950935810462266"><ele>984.0000000000001</ele><time>2026-05-03T09:28:11.968Z</time></trkpt><trkpt lat="45.89030928813888" lon="10.950835529749451"><ele>984.0000000000001</ele><time>2026-05-03T09:28:12.968Z</time></trkpt><trkpt lat="45.890255991868266" lon="10.950727987697661"><ele>984.0</ele><time>2026-05-03T09:28:13.968Z</time></trkpt><trkpt lat="45.89020601072506" lon="10.950619995835401"><ele>984.0</ele><time>2026-05-03T09:28:14.968Z</time></trkpt><trkpt lat="45.89014954174082" lon="10.950501133179356"><ele>982.4000000000001</ele><time>2026-05-03T09:28:15.968Z</time></trkpt><trkpt lat="45.890088266165854" lon="10.950383841595412"><ele>980.8000000000001</ele><time>2026-05-03T09:28:16.968Z</time></trkpt><trkpt lat="45.890020085049116" lon="10.950255758283214"><ele>979.1999999999999</ele><time>2026-05-03T09:28:17.968Z</time></trkpt><trkpt lat="45.88995712438416" lon="10.950139243048188"><ele>977.5999999999999</ele><time>2026-05-03T09:28:18.968Z</time></trkpt><trkpt lat="45.88989524350899" lon="10.950033266852188"><ele>976.0</ele><time>2026-05-03T09:28:19.968Z</time></trkpt><trkpt lat="45.889831642828504" lon="10.94993016749676"><ele>976.0</ele><time>2026-05-03T09:28:20.968Z</time></trkpt><trkpt lat="45.889762920050515" lon="10.949822531111998"><ele>975.9999999999999</ele><time>2026-05-03T09:28:21.968Z</time></trkpt><trkpt lat="45.88968685570467" lon="10.94970716556194"><ele>975.9999999999999</ele><time>2026-05-03T09:28:22.968Z</time></trkpt><trkpt lat="45.8896126111828" lon="10.949578876851549"><ele>976.0</ele><time>2026-05-03T09:28:23.968Z</time></trkpt><trkpt lat="45.889509881814334" lon="10.949493394816393"><ele>976.0</ele><time>2026-05-03T09:28:24.968Z</time></trkpt><trkpt lat="45.88942049738493" lon="10.949412843096983"><ele>975.9999999999999</ele><time>2026-05-03T09:28:25.968Z</time></trkpt><trkpt lat="45.88932791659626" lon="10.94937153472307"><ele>976.0</ele><time>2026-05-03T09:28:26.968Z</time></trkpt><trkpt lat="45.88923465516026" lon="10.949356463361148"><ele>976.0</ele><time>2026-05-03T09:28:27.968Z</time></trkpt><trkpt lat="45.88914480578099" lon="10.949325501126523"><ele>976.0</ele><time>2026-05-03T09:28:28.968Z</time></trkpt><trkpt lat="45.88906211072256" lon="10.949266740081454"><ele>975.9999999999999</ele><time>2026-05-03T09:28:29.968Z</time></trkpt><trkpt lat="45.88900192183324" lon="10.949233744906023"><ele>976.0</ele><time>2026-05-03T09:28:30.968Z</time></trkpt><trkpt lat="45.888950388741875" lon="10.949167267291896"><ele>974.8333333333333</ele><time>2026-05-03T09:28:32.969Z</time></trkpt><trkpt lat="45.888924618604655" lon="10.949076871443072"><ele>973.6666666666666</ele><time>2026-05-03T09:28:34.969Z</time></trkpt><trkpt lat="45.88887594718599" lon="10.948995453526567"><ele>972.5</ele><time>2026-05-03T09:28:37.969Z</time></trkpt><trkpt lat="45.8888672341419" lon="10.948886866744255"><ele>971.3333333333333</ele><time>2026-05-03T09:32:35.971Z</time></trkpt><trkpt lat="45.88894575284596" lon="10.948803505588122"><ele>970.1666666666666</ele><time>2026-05-03T09:32:37.971Z</time></trkpt><trkpt lat="45.8889902749495" lon="10.948715909564523"><ele>969.0</ele><time>2026-05-03T09:32:39.971Z</time></trkpt><trkpt lat="45.88899723929763" lon="10.948557004839067"><ele>969.0</ele><time>2026-05-03T09:33:16.971Z</time></trkpt><trkpt lat="45.888959297356806" lon="10.948483591559224"><ele>969.0</ele><time>2026-05-03T09:34:19.971Z</time></trkpt><trkpt lat="45.88894616983199" lon="10.948383561497213"><ele>969.0</ele><time>2026-05-03T09:34:21.971Z</time></trkpt><trkpt lat="45.88892348191662" lon="10.948270202549887"><ele>969.0</ele><time>2026-05-03T09:34:24.971Z</time></trkpt><trkpt lat="45.888878949733616" lon="10.94812181040616"><ele>969.0</ele><time>2026-05-03T09:34:59.971Z</time></trkpt><trkpt lat="45.88885873812469" lon="10.94802653858005"><ele>969.0</ele><time>2026-05-03T09:35:00.97Z</time></trkpt><trkpt lat="45.88883493404439" lon="10.947916831630256"><ele>970.4000000000001</ele><time>2026-05-03T09:35:01.97Z</time></trkpt><trkpt lat="45.888809474574536" lon="10.947801655824945"><ele>971.8000000000001</ele><time>2026-05-03T09:35:02.97Z</time></trkpt><trkpt lat="45.888794503395744" lon="10.947663725272612"><ele>973.1999999999999</ele><time>2026-05-03T09:35:03.97Z</time></trkpt><trkpt lat="45.888748600425025" lon="10.947540888183841"><ele>974.5999999999999</ele><time>2026-05-03T09:35:04.97Z</time></trkpt><trkpt lat="45.888647737768046" lon="10.947430877701539"><ele>976.0</ele><time>2026-05-03T09:35:05.97Z</time></trkpt><trkpt lat="45.888572721976985" lon="10.94731162258877"><ele>976.8333333333333</ele><time>2026-05-03T09:35:06.97Z</time></trkpt><trkpt lat="45.888510284984626" lon="10.947231858814332"><ele>977.6666666666666</ele><time>2026-05-03T09:35:07.97Z</time></trkpt><trkpt lat="45.888472111182274" lon="10.947066162546118"><ele>978.5</ele><time>2026-05-03T09:35:09.97Z</time></trkpt><trkpt lat="45.88850006395322" lon="10.946980693100903"><ele>979.3333333333333</ele><time>2026-05-03T09:35:10.97Z</time></trkpt><trkpt lat="45.888555885019564" lon="10.946936660212666"><ele>980.1666666666666</ele><time>2026-05-03T09:35:11.97Z</time></trkpt><trkpt lat="45.88862943927827" lon="10.946925971529923"><ele>981.0</ele><time>2026-05-03T09:35:12.97Z</time></trkpt><trkpt lat="45.888718704936466" lon="10.946961697154807"><ele>981.0</ele><time>2026-05-03T09:35:13.97Z</time></trkpt><trkpt lat="45.88881848514065" lon="10.94700874198602"><ele>980.9999999999999</ele><time>2026-05-03T09:35:14.97Z</time></trkpt><trkpt lat="45.88893365564668" lon="10.947034753585614"><ele>980.9999999999999</ele><time>2026-05-03T09:35:15.97Z</time></trkpt><trkpt lat="45.8890230604102" lon="10.947048419223348"><ele>981.0</ele><time>2026-05-03T09:35:16.97Z</time></trkpt><trkpt lat="45.88912086922175" lon="10.947059414334255"><ele>981.0</ele><time>2026-05-03T09:35:18.97Z</time></trkpt><trkpt lat="45.88918847649322" lon="10.94706341741346"><ele>983.0</ele><time>2026-05-03T09:35:19.97Z</time></trkpt><trkpt lat="45.88928428247229" lon="10.94707666771569"><ele>985.0</ele><time>2026-05-03T09:35:20.97Z</time></trkpt><trkpt lat="45.88939185893609" lon="10.947094847176958"><ele>987.0</ele><time>2026-05-03T09:35:21.97Z</time></trkpt><trkpt lat="45.889515618069424" lon="10.947118842544633"><ele>989.0</ele><time>2026-05-03T09:35:22.97Z</time></trkpt><trkpt lat="45.88965316413594" lon="10.947129643326589"><ele>989.0</ele><time>2026-05-03T09:35:23.97Z</time></trkpt><trkpt lat="45.8897892639004" lon="10.947111264832868"><ele>989.0</ele><time>2026-05-03T09:35:24.97Z</time></trkpt><trkpt lat="45.8899350035601" lon="10.947070796187429"><ele>989.0</ele><time>2026-05-03T09:35:25.97Z</time></trkpt><trkpt lat="45.8900846398737" lon="10.947021170986794"><ele>989.0</ele><time>2026-05-03T09:35:26.97Z</time></trkpt><trkpt lat="45.89022824731481" lon="10.946989627889538"><ele>991.75</ele><time>2026-05-03T09:35:27.97Z</time></trkpt><trkpt lat="45.890360332381796" lon="10.94698054251409"><ele>994.5</ele><time>2026-05-03T09:35:28.97Z</time></trkpt><trkpt lat="45.89048699004281" lon="10.947008289503989"><ele>997.25</ele><time>2026-05-03T09:35:29.971Z</time></trkpt><trkpt lat="45.890615707550104" lon="10.947054116049861"><ele>1000.0</ele><time>2026-05-03T09:35:30.971Z</time></trkpt><trkpt lat="45.89074234633547" lon="10.947134666997284"><ele>1000.0</ele><time>2026-05-03T09:35:31.971Z</time></trkpt><trkpt lat="45.890874004744404" lon="10.947232443964996"><ele>1000.0</ele><time>2026-05-03T09:35:32.972Z</time></trkpt><trkpt lat="45.89100950460919" lon="10.947345132011016"><ele>1000.0</ele><time>2026-05-03T09:35:33.972Z</time></trkpt><trkpt lat="45.89115123232709" lon="10.947462020919511"><ele>1003.0</ele><time>2026-05-03T09:35:34.972Z</time></trkpt><trkpt lat="45.89129446228119" lon="10.947571082466725"><ele>1006.0</ele><time>2026-05-03T09:35:35.971Z</time></trkpt><trkpt lat="45.89142534271194" lon="10.947674266768484"><ele>1009.0</ele><time>2026-05-03T09:35:36.971Z</time></trkpt><trkpt lat="45.8915397245733" lon="10.947790169577027"><ele>1009.0</ele><time>2026-05-03T09:35:37.971Z</time></trkpt><trkpt lat="45.89160587479026" lon="10.947915829286389"><ele>1009.0000000000001</ele><time>2026-05-03T09:35:38.971Z</time></trkpt><trkpt lat="45.89166022470947" lon="10.948007954522321"><ele>1009.0000000000001</ele><time>2026-05-03T09:35:39.972Z</time></trkpt><trkpt lat="45.891698232297045" lon="10.94808422809491"><ele>1009.0</ele><time>2026-05-03T09:35:40.972Z</time></trkpt><trkpt lat="45.891751915029445" lon="10.948203992187537"><ele>1009.0</ele><time>2026-05-03T09:35:41.971Z</time></trkpt><trkpt lat="45.89187100724932" lon="10.948279775451441"><ele>1014.25</ele><time>2026-05-03T09:35:42.971Z</time></trkpt><trkpt lat="45.89201065617368" lon="10.948201246049637"><ele>1019.5</ele><time>2026-05-03T09:35:43.971Z</time></trkpt><trkpt lat="45.89205901885793" lon="10.948068034069301"><ele>1024.75</ele><time>2026-05-03T09:35:44.971Z</time></trkpt><trkpt lat="45.89202757890585" lon="10.947915513655486"><ele>1030.0</ele><time>2026-05-03T09:35:45.971Z</time></trkpt><trkpt lat="45.89195353700824" lon="10.947788430020468"><ele>1030.0</ele><time>2026-05-03T09:35:46.971Z</time></trkpt><trkpt lat="45.891908719086636" lon="10.947639647093556"><ele>1030.0</ele><time>2026-05-03T09:35:47.971Z</time></trkpt><trkpt lat="45.89187745631268" lon="10.947491774501348"><ele>1030.0</ele><time>2026-05-03T09:35:48.971Z</time></trkpt><trkpt lat="45.89185966643189" lon="10.947291611782155"><ele>1030.0</ele><time>2026-05-03T09:35:49.971Z</time></trkpt><trkpt lat="45.89184427658768" lon="10.947056315829217"><ele>1029.0</ele><time>2026-05-03T09:35:50.971Z</time></trkpt><trkpt lat="45.89182752615966" lon="10.94680021793518"><ele>1028.0</ele><time>2026-05-03T09:35:51.971Z</time></trkpt><trkpt lat="45.89180770550322" lon="10.946527348664493"><ele>1027.0</ele><time>2026-05-03T09:35:52.971Z</time></trkpt><trkpt lat="45.89175594759096" lon="10.946255420402904"><ele>1027.0</ele><time>2026-05-03T09:35:53.971Z</time></trkpt><trkpt lat="45.89167260965891" lon="10.945973606992876"><ele>1027.0</ele><time>2026-05-03T09:35:54.971Z</time></trkpt><trkpt lat="45.891584847435624" lon="10.945687926529066"><ele>1027.0</ele><time>2026-05-03T09:35:55.971Z</time></trkpt><trkpt lat="45.89149440227582" lon="10.945393512711487"><ele>1030.6666666666665</ele><time>2026-05-03T09:35:56.971Z</time></trkpt><trkpt lat="45.8914246538379" lon="10.945110018738514"><ele>1034.3333333333333</ele><time>2026-05-03T09:35:57.971Z</time></trkpt><trkpt lat="45.89140243054189" lon="10.944819323254555"><ele>1038.0</ele><time>2026-05-03T09:35:58.971Z</time></trkpt><trkpt lat="45.89138454654044" lon="10.944551067007156"><ele>1042.0</ele><time>2026-05-03T09:35:59.971Z</time></trkpt><trkpt lat="45.89135101387186" lon="10.94425557241498"><ele>1046.0</ele><time>2026-05-03T09:36:00.971Z</time></trkpt><trkpt lat="45.89127439868782" lon="10.94396832552984"><ele>1050.0</ele><time>2026-05-03T09:36:01.971Z</time></trkpt><trkpt lat="45.89116159884556" lon="10.943700661489554"><ele>1053.0</ele><time>2026-05-03T09:36:02.971Z</time></trkpt><trkpt lat="45.8910563733163" lon="10.943436035315536"><ele>1056.0</ele><time>2026-05-03T09:36:03.971Z</time></trkpt><trkpt lat="45.891005710576934" lon="10.943143244401258"><ele>1059.0</ele><time>2026-05-03T09:36:04.971Z</time></trkpt><trkpt lat="45.8909730197886" lon="10.942850118466197"><ele>1057.0</ele><time>2026-05-03T09:36:05.971Z</time></trkpt><trkpt lat="45.89090219661518" lon="10.94255210377282"><ele>1055.0</ele><time>2026-05-03T09:36:06.971Z</time></trkpt><trkpt lat="45.89078545951138" lon="10.94226683395482"><ele>1053.0</ele><time>2026-05-03T09:36:07.971Z</time></trkpt><trkpt lat="45.89068484098315" lon="10.942015014281989"><ele>1057.0</ele><time>2026-05-03T09:36:08.971Z</time></trkpt><trkpt lat="45.890591819866785" lon="10.941790759536252"><ele>1061.0</ele><time>2026-05-03T09:36:09.971Z</time></trkpt><trkpt lat="45.890516772406315" lon="10.94155874719389"><ele>1065.0</ele><time>2026-05-03T09:36:10.971Z</time></trkpt><trkpt lat="45.89041757050977" lon="10.941353919545861"><ele>1069.0</ele><time>2026-05-03T09:36:11.971Z</time></trkpt><trkpt lat="45.890336722248534" lon="10.94114959347428"><ele>1073.0</ele><time>2026-05-03T09:36:12.971Z</time></trkpt><trkpt lat="45.89027291468433" lon="10.940964944384195"><ele>1077.0</ele><time>2026-05-03T09:36:13.971Z</time></trkpt><trkpt lat="45.890196216067416" lon="10.940819251805708"><ele>1081.0</ele><time>2026-05-03T09:36:14.971Z</time></trkpt><trkpt lat="45.89010898868638" lon="10.940701968839697"><ele>1081.0</ele><time>2026-05-03T09:36:15.971Z</time></trkpt><trkpt lat="45.89003684352663" lon="10.940614449775314"><ele>1081.0</ele><time>2026-05-03T09:36:16.971Z</time></trkpt><trkpt lat="45.889990803448285" lon="10.940545759886808"><ele>1081.0</ele><time>2026-05-03T09:36:17.971Z</time></trkpt><trkpt lat="45.88999811776256" lon="10.940449660793483"><ele>1081.0</ele><time>2026-05-03T09:36:18.971Z</time></trkpt><trkpt lat="45.890117265554665" lon="10.940396868463656"><ele>1081.0</ele><time>2026-05-03T09:36:20.971Z</time></trkpt><trkpt lat="45.8901902623606" lon="10.940469858214795"><ele>1081.0</ele><time>2026-05-03T09:36:21.971Z</time></trkpt><trkpt lat="45.89025416006611" lon="10.940558320991707"><ele>1086.6</ele><time>2026-05-03T09:36:22.971Z</time></trkpt><trkpt lat="45.890324211159246" lon="10.940622684314219"><ele>1092.1999999999998</ele><time>2026-05-03T09:36:23.971Z</time></trkpt><trkpt lat="45.89039121809584" lon="10.940659217859945"><ele>1097.8000000000002</ele><time>2026-05-03T09:36:24.971Z</time></trkpt><trkpt lat="45.89051298344498" lon="10.940725175032163"><ele>1103.4</ele><time>2026-05-03T09:36:26.971Z</time></trkpt><trkpt lat="45.8905927013344" lon="10.940776043753129"><ele>1109.0</ele><time>2026-05-03T09:36:27.971Z</time></trkpt><trkpt lat="45.89068557481647" lon="10.940817898995242"><ele>1109.0</ele><time>2026-05-03T09:36:28.971Z</time></trkpt><trkpt lat="45.890795829010514" lon="10.940864755943782"><ele>1109.0</ele><time>2026-05-03T09:36:29.971Z</time></trkpt><trkpt lat="45.89091708204698" lon="10.94092840300283"><ele>1109.0</ele><time>2026-05-03T09:36:30.971Z</time></trkpt><trkpt lat="45.89106352001881" lon="10.941001333867067"><ele>1109.0</ele><time>2026-05-03T09:36:31.971Z</time></trkpt><trkpt lat="45.891229433864474" lon="10.94108504831248"><ele>1106.0</ele><time>2026-05-03T09:36:32.971Z</time></trkpt><trkpt lat="45.89164568290202" lon="10.941273559725426"><ele>1103.0</ele><time>2026-05-03T09:36:34.971Z</time></trkpt><trkpt lat="45.891879974775534" lon="10.941383943838405"><ele>1113.0</ele><time>2026-05-03T09:36:35.971Z</time></trkpt><trkpt lat="45.892124433894274" lon="10.941497776233668"><ele>1123.0</ele><time>2026-05-03T09:36:36.971Z</time></trkpt><trkpt lat="45.89236919812931" lon="10.941595848796503"><ele>1132.5</ele><time>2026-05-03T09:36:37.971Z</time></trkpt><trkpt lat="45.89262165202894" lon="10.941660665175673"><ele>1142.0</ele><time>2026-05-03T09:36:38.971Z</time></trkpt><trkpt lat="45.892878464122624" lon="10.941703704414646"><ele>1142.3333333333335</ele><time>2026-05-03T09:36:39.971Z</time></trkpt><trkpt lat="45.89310596577444" lon="10.941743524895402"><ele>1142.6666666666667</ele><time>2026-05-03T09:36:40.971Z</time></trkpt><trkpt lat="45.893308616225895" lon="10.941764558732052"><ele>1143.0</ele><time>2026-05-03T09:36:41.971Z</time></trkpt><trkpt lat="45.89349196257152" lon="10.941776713594102"><ele>1143.0</ele><time>2026-05-03T09:36:42.971Z</time></trkpt><trkpt lat="45.89366930867125" lon="10.941798480519635"><ele>1143.0</ele><time>2026-05-03T09:36:43.971Z</time></trkpt><trkpt lat="45.89383149233364" lon="10.941864623903802"><ele>1143.0</ele><time>2026-05-03T09:36:44.97Z</time></trkpt><trkpt lat="45.893984604633026" lon="10.941965495590368"><ele>1143.0</ele><time>2026-05-03T09:36:45.97Z</time></trkpt><trkpt lat="45.89411379460651" lon="10.942088605239462"><ele>1143.0</ele><time>2026-05-03T09:36:46.97Z</time></trkpt><trkpt lat="45.894214452781334" lon="10.942194926009092"><ele>1143.0</ele><time>2026-05-03T09:36:47.97Z</time></trkpt><trkpt lat="45.89429942952025" lon="10.94228123516334"><ele>1143.0</ele><time>2026-05-03T09:36:48.97Z</time></trkpt><trkpt lat="45.89441004018894" lon="10.942329230433357"><ele>1146.25</ele><time>2026-05-03T09:36:49.97Z</time></trkpt><trkpt lat="45.89454143614578" lon="10.94233971453716"><ele>1149.5</ele><time>2026-05-03T09:36:50.97Z</time></trkpt><trkpt lat="45.89467432514191" lon="10.942344713208495"><ele>1152.75</ele><time>2026-05-03T09:36:51.97Z</time></trkpt><trkpt lat="45.89482206495297" lon="10.94233272510973"><ele>1156.0</ele><time>2026-05-03T09:36:52.97Z</time></trkpt><trkpt lat="45.8949603839617" lon="10.942320081722057"><ele>1158.75</ele><time>2026-05-03T09:36:53.97Z</time></trkpt><trkpt lat="45.89508783802422" lon="10.942303116676786"><ele>1161.5</ele><time>2026-05-03T09:36:54.97Z</time></trkpt><trkpt lat="45.895205516947144" lon="10.942268011134281"><ele>1164.25</ele><time>2026-05-03T09:36:55.97Z</time></trkpt><trkpt lat="45.895321251611236" lon="10.942199214291415"><ele>1167.0</ele><time>2026-05-03T09:36:56.97Z</time></trkpt><trkpt lat="45.89543168750207" lon="10.942094814097315"><ele>1167.0</ele><time>2026-05-03T09:36:57.97Z</time></trkpt><trkpt lat="45.89553650634647" lon="10.94198557090953"><ele>1167.0</ele><time>2026-05-03T09:36:58.97Z</time></trkpt><trkpt lat="45.89563566417272" lon="10.941868279571375"><ele>1167.0</ele><time>2026-05-03T09:36:59.97Z</time></trkpt><trkpt lat="45.89573407039558" lon="10.941741120950693"><ele>1167.0</ele><time>2026-05-03T09:37:00.97Z</time></trkpt><trkpt lat="45.89581088249627" lon="10.941613989258627"><ele>1168.0</ele><time>2026-05-03T09:37:01.97Z</time></trkpt><trkpt lat="45.895891877872714" lon="10.94150187890266"><ele>1169.0</ele><time>2026-05-03T09:37:02.97Z</time></trkpt><trkpt lat="45.89596283525368" lon="10.941385872230354"><ele>1170.0</ele><time>2026-05-03T09:37:03.97Z</time></trkpt><trkpt lat="45.89603283677568" lon="10.941263846402254"><ele>1171.0</ele><time>2026-05-03T09:37:04.97Z</time></trkpt><trkpt lat="45.89609689838851" lon="10.941119119029272"><ele>1172.0</ele><time>2026-05-03T09:37:05.97Z</time></trkpt><trkpt lat="45.896148723026315" lon="10.940964092681108"><ele>1172.0</ele><time>2026-05-03T09:37:06.97Z</time></trkpt><trkpt lat="45.89620153795526" lon="10.940801965278222"><ele>1172.0</ele><time>2026-05-03T09:37:07.97Z</time></trkpt><trkpt lat="45.89624734516396" lon="10.940629192202472"><ele>1172.0</ele><time>2026-05-03T09:37:08.97Z</time></trkpt><trkpt lat="45.896289625901375" lon="10.940461290273964"><ele>1172.0</ele><time>2026-05-03T09:37:09.97Z</time></trkpt><trkpt lat="45.89632604507645" lon="10.940308184297171"><ele>1172.0</ele><time>2026-05-03T09:37:10.97Z</time></trkpt><trkpt lat="45.89636630045621" lon="10.94016182466325"><ele>1172.0</ele><time>2026-05-03T09:37:11.97Z</time></trkpt><trkpt lat="45.89640167666523" lon="10.940018501350302"><ele>1172.0</ele><time>2026-05-03T09:37:12.97Z</time></trkpt><trkpt lat="45.89642974220904" lon="10.939871982696792"><ele>1172.0</ele><time>2026-05-03T09:37:13.97Z</time></trkpt><trkpt lat="45.896457811326634" lon="10.9397125480285"><ele>1172.0</ele><time>2026-05-03T09:37:14.97Z</time></trkpt><trkpt lat="45.89649750053451" lon="10.939551029421004"><ele>1172.4</ele><time>2026-05-03T09:37:15.97Z</time></trkpt><trkpt lat="45.89654136787525" lon="10.939402571831465"><ele>1172.8000000000002</ele><time>2026-05-03T09:37:16.97Z</time></trkpt><trkpt lat="45.8965843036129" lon="10.939269400193004"><ele>1173.2</ele><time>2026-05-03T09:37:17.97Z</time></trkpt><trkpt lat="45.89663339773212" lon="10.939154941649846"><ele>1173.6000000000001</ele><time>2026-05-03T09:37:18.97Z</time></trkpt><trkpt lat="45.89671452561285" lon="10.939059956719797"><ele>1174.0</ele><time>2026-05-03T09:37:19.97Z</time></trkpt><trkpt lat="45.89680097357734" lon="10.938972547178839"><ele>1174.0</ele><time>2026-05-03T09:37:20.97Z</time></trkpt><trkpt lat="45.89688071090116" lon="10.938865573989046"><ele>1174.0</ele><time>2026-05-03T09:37:21.97Z</time></trkpt><trkpt lat="45.896957992457374" lon="10.938732036418566"><ele>1174.0</ele><time>2026-05-03T09:37:22.97Z</time></trkpt><trkpt lat="45.89703727318986" lon="10.938576296359603"><ele>1174.0</ele><time>2026-05-03T09:37:23.97Z</time></trkpt><trkpt lat="45.89711472155165" lon="10.938411711669444"><ele>1172.0</ele><time>2026-05-03T09:37:24.97Z</time></trkpt><trkpt lat="45.89718250999339" lon="10.938245777160859"><ele>1170.0</ele><time>2026-05-03T09:37:25.97Z</time></trkpt><trkpt lat="45.897235556635806" lon="10.938072051548726"><ele>1168.0</ele><time>2026-05-03T09:37:26.97Z</time></trkpt><trkpt lat="45.897275062294774" lon="10.937893724785761"><ele>1166.0</ele><time>2026-05-03T09:37:27.97Z</time></trkpt><trkpt lat="45.89730257247194" lon="10.93774609515852"><ele>1166.0</ele><time>2026-05-03T09:37:28.97Z</time></trkpt><trkpt lat="45.897322388246806" lon="10.937632937935142"><ele>1166.0</ele><time>2026-05-03T09:37:29.97Z</time></trkpt><trkpt lat="45.89735050470014" lon="10.937517549738638"><ele>1166.0</ele><time>2026-05-03T09:37:30.97Z</time></trkpt><trkpt lat="45.897386243613866" lon="10.937405342870637"><ele>1166.0</ele><time>2026-05-03T09:37:31.97Z</time></trkpt><trkpt lat="45.89743374467602" lon="10.937267479319768"><ele>1166.0</ele><time>2026-05-03T09:37:32.97Z</time></trkpt><trkpt lat="45.89747176982508" lon="10.937133203927154"><ele>1165.6</ele><time>2026-05-03T09:37:33.97Z</time></trkpt><trkpt lat="45.89749559379456" lon="10.936989654635788"><ele>1165.1999999999998</ele><time>2026-05-03T09:37:34.97Z</time></trkpt><trkpt lat="45.8975191238076" lon="10.936842726449472"><ele>1164.8000000000002</ele><time>2026-05-03T09:37:35.971Z</time></trkpt><trkpt lat="45.89756696917703" lon="10.936703896805255"><ele>1164.4</ele><time>2026-05-03T09:37:36.971Z</time></trkpt><trkpt lat="45.8976120067586" lon="10.936567479040374"><ele>1164.0</ele><time>2026-05-03T09:37:37.971Z</time></trkpt><trkpt lat="45.89766222865505" lon="10.936420800387271"><ele>1164.0</ele><time>2026-05-03T09:37:38.971Z</time></trkpt><trkpt lat="45.89771882302528" lon="10.93627049917377"><ele>1164.0</ele><time>2026-05-03T09:37:39.971Z</time></trkpt><trkpt lat="45.897756850990305" lon="10.936109266901228"><ele>1164.0</ele><time>2026-05-03T09:37:40.971Z</time></trkpt><trkpt lat="45.897799950830645" lon="10.935949127062289"><ele>1164.0</ele><time>2026-05-03T09:37:41.971Z</time></trkpt><trkpt lat="45.897878382538586" lon="10.935810626595982"><ele>1163.25</ele><time>2026-05-03T09:37:42.972Z</time></trkpt><trkpt lat="45.89795732105562" lon="10.9356539463769"><ele>1162.5</ele><time>2026-05-03T09:37:43.972Z</time></trkpt><trkpt lat="45.898040611573165" lon="10.93553071690871"><ele>1161.75</ele><time>2026-05-03T09:37:44.971Z</time></trkpt><trkpt lat="45.89811312049368" lon="10.935397766313756"><ele>1161.0</ele><time>2026-05-03T09:37:45.971Z</time></trkpt><trkpt lat="45.8981692097021" lon="10.935242553228123"><ele>1161.0</ele><time>2026-05-03T09:37:46.971Z</time></trkpt><trkpt lat="45.89821303430508" lon="10.935078969344534"><ele>1161.0</ele><time>2026-05-03T09:37:47.971Z</time></trkpt><trkpt lat="45.898246606777725" lon="10.934925634731925"><ele>1161.0</ele><time>2026-05-03T09:37:48.971Z</time></trkpt><trkpt lat="45.89829446145968" lon="10.93477789560438"><ele>1161.0</ele><time>2026-05-03T09:37:49.971Z</time></trkpt><trkpt lat="45.89838407658766" lon="10.93465808690087"><ele>1159.5</ele><time>2026-05-03T09:37:50.971Z</time></trkpt><trkpt lat="45.898470640900456" lon="10.934525466062174"><ele>1158.0</ele><time>2026-05-03T09:37:51.971Z</time></trkpt><trkpt lat="45.89853988051749" lon="10.934382249066521"><ele>1156.5</ele><time>2026-05-03T09:37:52.971Z</time></trkpt><trkpt lat="45.89860073184203" lon="10.934251221481912"><ele>1155.0</ele><time>2026-05-03T09:37:53.971Z</time></trkpt><trkpt lat="45.898636765079225" lon="10.93412003921687"><ele>1155.0</ele><time>2026-05-03T09:37:54.971Z</time></trkpt><trkpt lat="45.89866841389133" lon="10.933999234140924"><ele>1155.0</ele><time>2026-05-03T09:37:55.971Z</time></trkpt><trkpt lat="45.89870885678216" lon="10.933904955565978"><ele>1155.0</ele><time>2026-05-03T09:37:56.971Z</time></trkpt><trkpt lat="45.89877253972992" lon="10.933837585649018"><ele>1155.0</ele><time>2026-05-03T09:37:57.971Z</time></trkpt><trkpt lat="45.89884729532613" lon="10.93386429422276"><ele>1155.0</ele><time>2026-05-03T09:37:58.971Z</time></trkpt><trkpt lat="45.89894519777257" lon="10.933873124210773"><ele>1155.0</ele><time>2026-05-03T09:37:59.971Z</time></trkpt><trkpt lat="45.899055847576946" lon="10.933881759147894"><ele>1155.0</ele><time>2026-05-03T09:38:00.971Z</time></trkpt><trkpt lat="45.899160960598365" lon="10.93389558515633"><ele>1155.0</ele><time>2026-05-03T09:38:01.971Z</time></trkpt><trkpt lat="45.89924102758661" lon="10.933953556633066"><ele>1155.0</ele><time>2026-05-03T09:38:02.971Z</time></trkpt><trkpt lat="45.899339587616396" lon="10.93405211838717"><ele>1155.0</ele><time>2026-05-03T09:38:03.971Z</time></trkpt><trkpt lat="45.89944374654742" lon="10.934106519081183"><ele>1155.0</ele><time>2026-05-03T09:38:04.971Z</time></trkpt><trkpt lat="45.89954272597776" lon="10.934123624734664"><ele>1155.2</ele><time>2026-05-03T09:38:05.971Z</time></trkpt><trkpt lat="45.89964788017793" lon="10.93411375498371"><ele>1155.4</ele><time>2026-05-03T09:38:06.971Z</time></trkpt><trkpt lat="45.89974507538463" lon="10.934095182954257"><ele>1155.6</ele><time>2026-05-03T09:38:07.971Z</time></trkpt><trkpt lat="45.899834691381955" lon="10.93401267024552"><ele>1155.8</ele><time>2026-05-03T09:38:08.971Z</time></trkpt><trkpt lat="45.89990887607593" lon="10.93385961950881"><ele>1156.0</ele><time>2026-05-03T09:38:09.971Z</time></trkpt><trkpt lat="45.899938120866395" lon="10.93367868368626"><ele>1156.0</ele><time>2026-05-03T09:38:10.971Z</time></trkpt><trkpt lat="45.89994667646497" lon="10.933502412079037"><ele>1156.0</ele><time>2026-05-03T09:38:11.971Z</time></trkpt><trkpt lat="45.89995204522169" lon="10.933349553268208"><ele>1156.0</ele><time>2026-05-03T09:38:12.971Z</time></trkpt><trkpt lat="45.89995731026586" lon="10.933246358485455"><ele>1156.0</ele><time>2026-05-03T09:38:13.971Z</time></trkpt><trkpt lat="45.90002183792335" lon="10.933205415961961"><ele>1156.0</ele><time>2026-05-03T09:38:16.971Z</time></trkpt><trkpt lat="45.90009096695453" lon="10.933278507345689"><ele>1153.8</ele><time>2026-05-03T09:38:17.971Z</time></trkpt><trkpt lat="45.900177162987546" lon="10.933335212722774"><ele>1151.6</ele><time>2026-05-03T09:38:18.971Z</time></trkpt><trkpt lat="45.90028124985789" lon="10.933371070504029"><ele>1149.4</ele><time>2026-05-03T09:38:19.971Z</time></trkpt><trkpt lat="45.900380486935894" lon="10.933408034752295"><ele>1147.2</ele><time>2026-05-03T09:38:21.971Z</time></trkpt><trkpt lat="45.900445555162555" lon="10.93326429038098"><ele>1145.0</ele><time>2026-05-03T09:38:23.971Z</time></trkpt><trkpt lat="45.90035058425906" lon="10.933199531469706"><ele>1145.0</ele><time>2026-05-03T09:38:24.971Z</time></trkpt><trkpt lat="45.90026315838863" lon="10.933190252743985"><ele>1145.0</ele><time>2026-05-03T09:38:25.971Z</time></trkpt><trkpt lat="45.90017141368592" lon="10.933172510107362"><ele>1145.0</ele><time>2026-05-03T09:38:26.971Z</time></trkpt><trkpt lat="45.900126429455995" lon="10.933080841666204"><ele>1145.0</ele><time>2026-05-03T09:38:27.971Z</time></trkpt><trkpt lat="45.90011242949491" lon="10.932972871557073"><ele>1145.0</ele><time>2026-05-03T09:38:28.971Z</time></trkpt><trkpt lat="45.90008539695909" lon="10.932814050116027"><ele>1145.0</ele><time>2026-05-03T09:38:29.971Z</time></trkpt><trkpt lat="45.90006455305376" lon="10.932664857382356"><ele>1142.2</ele><time>2026-05-03T09:38:30.971Z</time></trkpt><trkpt lat="45.900048503373505" lon="10.93257147789285"><ele>1139.4</ele><time>2026-05-03T09:38:31.971Z</time></trkpt><trkpt lat="45.89996518726894" lon="10.932463771766507"><ele>1136.6</ele><time>2026-05-03T09:38:33.971Z</time></trkpt><trkpt lat="45.89987168471727" lon="10.93256448671672"><ele>1133.8</ele><time>2026-05-03T09:38:34.971Z</time></trkpt><trkpt lat="45.899827306823745" lon="10.932666313808072"><ele>1131.0</ele><time>2026-05-03T09:38:35.971Z</time></trkpt><trkpt lat="45.89976980084385" lon="10.932800321890689"><ele>1131.0</ele><time>2026-05-03T09:38:36.971Z</time></trkpt><trkpt lat="45.89970353637278" lon="10.932957253412553"><ele>1131.0</ele><time>2026-05-03T09:38:37.971Z</time></trkpt><trkpt lat="45.89965087772193" lon="10.933088527489188"><ele>1131.0</ele><time>2026-05-03T09:38:38.971Z</time></trkpt><trkpt lat="45.89957181457156" lon="10.933177191658379"><ele>1131.0</ele><time>2026-05-03T09:38:40.971Z</time></trkpt><trkpt lat="45.89948793793836" lon="10.93313795320891"><ele>1131.0</ele><time>2026-05-03T09:38:43.97Z</time></trkpt><trkpt lat="45.89948293746507" lon="10.933013377475874"><ele>1131.0</ele><time>2026-05-03T09:38:44.97Z</time></trkpt><trkpt lat="45.89958785161792" lon="10.932969718186131"><ele>1131.0</ele><time>2026-05-03T09:38:45.97Z</time></trkpt><trkpt lat="45.899657595239596" lon="10.932891712643219"><ele>1131.0</ele><time>2026-05-03T09:38:46.97Z</time></trkpt><trkpt lat="45.899709633135195" lon="10.932738685396572"><ele>1131.0</ele><time>2026-05-03T09:38:47.97Z</time></trkpt><trkpt lat="45.89974736176565" lon="10.9325408607539"><ele>1127.5</ele><time>2026-05-03T09:38:48.97Z</time></trkpt><trkpt lat="45.89979582134308" lon="10.932333697141155"><ele>1124.0</ele><time>2026-05-03T09:38:49.97Z</time></trkpt><trkpt lat="45.899853545893905" lon="10.932149228240387"><ele>1120.5</ele><time>2026-05-03T09:38:50.97Z</time></trkpt><trkpt lat="45.89992400505352" lon="10.932009285759557"><ele>1117.0</ele><time>2026-05-03T09:38:51.97Z</time></trkpt><trkpt lat="45.89999370435334" lon="10.931882998015995"><ele>1117.0</ele><time>2026-05-03T09:38:52.97Z</time></trkpt><trkpt lat="45.900082273038784" lon="10.931773954891188"><ele>1117.0</ele><time>2026-05-03T09:38:53.97Z</time></trkpt><trkpt lat="45.90014344160615" lon="10.93166863915215"><ele>1117.0</ele><time>2026-05-03T09:38:54.97Z</time></trkpt><trkpt lat="45.90018892947241" lon="10.9315894321988"><ele>1117.0</ele><time>2026-05-03T09:38:55.97Z</time></trkpt><trkpt lat="45.90027973108858" lon="10.93162027353438"><ele>1117.0</ele><time>2026-05-03T09:38:58.97Z</time></trkpt><trkpt lat="45.900268086846644" lon="10.931756337926755"><ele>1118.2</ele><time>2026-05-03T09:38:59.97Z</time></trkpt><trkpt lat="45.90029610741966" lon="10.931902622328414"><ele>1119.4</ele><time>2026-05-03T09:39:00.97Z</time></trkpt><trkpt lat="45.90032703078945" lon="10.932072742159528"><ele>1120.6</ele><time>2026-05-03T09:39:01.97Z</time></trkpt><trkpt lat="45.900357421373116" lon="10.932193457188212"><ele>1121.8</ele><time>2026-05-03T09:39:02.97Z</time></trkpt><trkpt lat="45.90041123887652" lon="10.932252762602426"><ele>1123.0</ele><time>2026-05-03T09:39:03.97Z</time></trkpt><trkpt lat="45.90049632532774" lon="10.93226832142299"><ele>1123.0</ele><time>2026-05-03T09:39:04.97Z</time></trkpt><trkpt lat="45.9005894497606" lon="10.932235436052755"><ele>1123.0</ele><time>2026-05-03T09:39:05.97Z</time></trkpt><trkpt lat="45.900659699712946" lon="10.932112925592513"><ele>1123.0</ele><time>2026-05-03T09:39:06.97Z</time></trkpt><trkpt lat="45.90078893981148" lon="10.931991271341184"><ele>1123.0</ele><time>2026-05-03T09:39:07.97Z</time></trkpt><trkpt lat="45.90091572892418" lon="10.931884934169455"><ele>1122.75</ele><time>2026-05-03T09:39:08.97Z</time></trkpt><trkpt lat="45.90101579711775" lon="10.931792807584795"><ele>1122.5</ele><time>2026-05-03T09:39:09.97Z</time></trkpt><trkpt lat="45.90105812362301" lon="10.931687811104776"><ele>1122.25</ele><time>2026-05-03T09:39:10.97Z</time></trkpt><trkpt lat="45.90108411191554" lon="10.931480520744081"><ele>1122.0</ele><time>2026-05-03T09:39:11.97Z</time></trkpt><trkpt lat="45.901228865873954" lon="10.93137263487303"><ele>1122.0</ele><time>2026-05-03T09:39:12.97Z</time></trkpt><trkpt lat="45.90130500004729" lon="10.931323117147304"><ele>1122.0</ele><time>2026-05-03T09:39:13.97Z</time></trkpt><trkpt lat="45.901368738733304" lon="10.931259215389144"><ele>1122.0</ele><time>2026-05-03T09:39:15.97Z</time></trkpt><trkpt lat="45.90137321219975" lon="10.930696557957454"><ele>1120.0</ele><time>2026-05-03T09:39:18.97Z</time></trkpt><trkpt lat="45.90135032275443" lon="10.930539212006074"><ele>1118.0</ele><time>2026-05-03T09:39:19.97Z</time></trkpt><trkpt lat="45.901282234848516" lon="10.930396774079155"><ele>1116.0</ele><time>2026-05-03T09:39:20.97Z</time></trkpt><trkpt lat="45.90119250242895" lon="10.93029371975858"><ele>1114.0</ele><time>2026-05-03T09:39:21.97Z</time></trkpt><trkpt lat="45.90116145418304" lon="10.930152147527842"><ele>1111.5</ele><time>2026-05-03T09:39:22.97Z</time></trkpt><trkpt lat="45.90117328264609" lon="10.92995750153812"><ele>1109.0</ele><time>2026-05-03T09:39:23.97Z</time></trkpt><trkpt lat="45.90118116825347" lon="10.929787720985772"><ele>1106.5</ele><time>2026-05-03T09:39:24.97Z</time></trkpt><trkpt lat="45.901142162444366" lon="10.929592305616488"><ele>1104.0</ele><time>2026-05-03T09:39:25.97Z</time></trkpt><trkpt lat="45.901101521763955" lon="10.929375836218151"><ele>1099.0</ele><time>2026-05-03T09:39:26.97Z</time></trkpt><trkpt lat="45.901138078302424" lon="10.929154940371964"><ele>1094.0</ele><time>2026-05-03T09:39:27.97Z</time></trkpt><trkpt lat="45.90115009929331" lon="10.928967474521219"><ele>1089.0</ele><time>2026-05-03T09:39:28.97Z</time></trkpt><trkpt lat="45.90113598139746" lon="10.928792606953824"><ele>1084.0</ele><time>2026-05-03T09:39:29.97Z</time></trkpt><trkpt lat="45.90113936090311" lon="10.928639589794981"><ele>1084.0</ele><time>2026-05-03T09:39:30.97Z</time></trkpt><trkpt lat="45.901126726352686" lon="10.928509222015"><ele>1084.0</ele><time>2026-05-03T09:39:31.97Z</time></trkpt><trkpt lat="45.901081768741506" lon="10.928427858560667"><ele>1084.0</ele><time>2026-05-03T09:39:32.97Z</time></trkpt><trkpt lat="45.901059806764835" lon="10.928277473486085"><ele>1084.0</ele><time>2026-05-03T09:39:34.97Z</time></trkpt><trkpt lat="45.90117395945505" lon="10.928207019066615"><ele>1084.0</ele><time>2026-05-03T09:39:36.97Z</time></trkpt><trkpt lat="45.901204728724" lon="10.928340675478324"><ele>1084.0</ele><time>2026-05-03T09:39:37.97Z</time></trkpt><trkpt lat="45.9012459373605" lon="10.928442780949851"><ele>1084.0</ele><time>2026-05-03T09:39:38.97Z</time></trkpt><trkpt lat="45.90131856220986" lon="10.928553243718198"><ele>1084.0</ele><time>2026-05-03T09:39:39.97Z</time></trkpt><trkpt lat="45.90143746281724" lon="10.928660035221233"><ele>1084.0</ele><time>2026-05-03T09:39:40.97Z</time></trkpt><trkpt lat="45.90151951824471" lon="10.928727808542991"><ele>1084.0</ele><time>2026-05-03T09:39:41.97Z</time></trkpt><trkpt lat="45.90158982236327" lon="10.928795964216102"><ele>1084.0</ele><time>2026-05-03T09:39:42.971Z</time></trkpt><trkpt lat="45.90167827314385" lon="10.928845237620374"><ele>1084.0</ele><time>2026-05-03T09:39:43.971Z</time></trkpt><trkpt lat="45.90175854795741" lon="10.928885349714035"><ele>1084.0</ele><time>2026-05-03T09:39:44.971Z</time></trkpt><trkpt lat="45.90187846861821" lon="10.928846275933001"><ele>1084.0</ele><time>2026-05-03T09:39:46.97Z</time></trkpt><trkpt lat="45.901932276447475" lon="10.92870408794168"><ele>1084.0</ele><time>2026-05-03T09:39:47.97Z</time></trkpt><trkpt lat="45.90194992717186" lon="10.92852820607462"><ele>1081.2</ele><time>2026-05-03T09:39:48.97Z</time></trkpt><trkpt lat="45.90195219192457" lon="10.92836285859024"><ele>1078.4</ele><time>2026-05-03T09:39:49.97Z</time></trkpt><trkpt lat="45.90200607847013" lon="10.92824818778462"><ele>1075.6</ele><time>2026-05-03T09:39:50.97Z</time></trkpt><trkpt lat="45.902062998716026" lon="10.928151534000488"><ele>1072.8</ele><time>2026-05-03T09:39:51.971Z</time></trkpt><trkpt lat="45.902131899892176" lon="10.928041884110886"><ele>1070.0</ele><time>2026-05-03T09:39:52.971Z</time></trkpt><trkpt lat="45.90221498861278" lon="10.927934302331813"><ele>1070.0</ele><time>2026-05-03T09:39:53.97Z</time></trkpt><trkpt lat="45.90229506819775" lon="10.927832391713626"><ele>1070.0</ele><time>2026-05-03T09:39:54.97Z</time></trkpt><trkpt lat="45.90238150875461" lon="10.927736493045089"><ele>1070.0</ele><time>2026-05-03T09:39:55.97Z</time></trkpt><trkpt lat="45.9024551807147" lon="10.927696574173039"><ele>1070.0</ele><time>2026-05-03T09:39:56.97Z</time></trkpt><trkpt lat="45.90257052025594" lon="10.927663391929478"><ele>1070.0</ele><time>2026-05-03T09:39:58.97Z</time></trkpt><trkpt lat="45.90267693897684" lon="10.927727664417212"><ele>1068.8</ele><time>2026-05-03T09:40:00.97Z</time></trkpt><trkpt lat="45.902724793692336" lon="10.927831361820779"><ele>1067.6</ele><time>2026-05-03T09:40:01.97Z</time></trkpt><trkpt lat="45.90274548088912" lon="10.927962870751"><ele>1066.4</ele><time>2026-05-03T09:40:02.97Z</time></trkpt><trkpt lat="45.902738768746204" lon="10.928124265472329"><ele>1065.2</ele><time>2026-05-03T09:40:03.97Z</time></trkpt><trkpt lat="45.90275125229713" lon="10.928229832576461"><ele>1064.0</ele><time>2026-05-03T09:40:04.97Z</time></trkpt><trkpt lat="45.90280976671494" lon="10.928368236313007"><ele>1064.0</ele><time>2026-05-03T09:40:06.97Z</time></trkpt><trkpt lat="45.90293064724012" lon="10.928379891502523"><ele>1064.0</ele><time>2026-05-03T09:40:07.97Z</time></trkpt><trkpt lat="45.90303203314005" lon="10.928308735278968"><ele>1064.0</ele><time>2026-05-03T09:40:08.97Z</time></trkpt><trkpt lat="45.90314719903045" lon="10.928216810426148"><ele>1064.0</ele><time>2026-05-03T09:40:09.97Z</time></trkpt><trkpt lat="45.9032675034253" lon="10.928130261424865"><ele>1064.0</ele><time>2026-05-03T09:40:10.97Z</time></trkpt><trkpt lat="45.90338200352343" lon="10.928030183381248"><ele>1064.0</ele><time>2026-05-03T09:40:11.97Z</time></trkpt><trkpt lat="45.903492158241804" lon="10.927943777667357"><ele>1064.0</ele><time>2026-05-03T09:40:12.97Z</time></trkpt><trkpt lat="45.90359268464874" lon="10.927855093651226"><ele>1064.0</ele><time>2026-05-03T09:40:13.97Z</time></trkpt><trkpt lat="45.903681451116796" lon="10.92773537906782"><ele>1061.0</ele><time>2026-05-03T09:40:14.97Z</time></trkpt><trkpt lat="45.90377663196072" lon="10.927612499732742"><ele>1058.0</ele><time>2026-05-03T09:40:15.97Z</time></trkpt><trkpt lat="45.90385912739283" lon="10.92753059590479"><ele>1055.0</ele><time>2026-05-03T09:40:16.97Z</time></trkpt><trkpt lat="45.90394094552917" lon="10.927473795568167"><ele>1052.0</ele><time>2026-05-03T09:40:17.97Z</time></trkpt><trkpt lat="45.90401852987436" lon="10.927455494976059"><ele>1049.0</ele><time>2026-05-03T09:40:18.97Z</time></trkpt><trkpt lat="45.90408426564035" lon="10.927530621250298"><ele>1049.0</ele><time>2026-05-03T09:40:19.97Z</time></trkpt><trkpt lat="45.904132088754665" lon="10.927655881892113"><ele>1049.0</ele><time>2026-05-03T09:40:20.97Z</time></trkpt><trkpt lat="45.90421182658085" lon="10.927750440319716"><ele>1049.0</ele><time>2026-05-03T09:40:21.97Z</time></trkpt><trkpt lat="45.90430649560617" lon="10.927858689581832"><ele>1049.0</ele><time>2026-05-03T09:40:22.97Z</time></trkpt><trkpt lat="45.90439766877061" lon="10.927973142164284"><ele>1049.0</ele><time>2026-05-03T09:40:23.97Z</time></trkpt><trkpt lat="45.90444801204617" lon="10.928108082000007"><ele>1043.6000000000001</ele><time>2026-05-03T09:40:24.97Z</time></trkpt><trkpt lat="45.90450890316257" lon="10.928256012211222"><ele>1038.2</ele><time>2026-05-03T09:40:25.97Z</time></trkpt><trkpt lat="45.904577736458585" lon="10.928381898226364"><ele>1032.8000000000002</ele><time>2026-05-03T09:40:26.97Z</time></trkpt><trkpt lat="45.904608499526155" lon="10.928490477491454"><ele>1027.4</ele><time>2026-05-03T09:40:27.97Z</time></trkpt><trkpt lat="45.90460486793414" lon="10.928610529373772"><ele>1022.0</ele><time>2026-05-03T09:40:28.97Z</time></trkpt><trkpt lat="45.90457976328235" lon="10.92873297084632"><ele>1022.0</ele><time>2026-05-03T09:40:29.97Z</time></trkpt><trkpt lat="45.904588180694695" lon="10.928854120551364"><ele>1022.0</ele><time>2026-05-03T09:40:30.97Z</time></trkpt><trkpt lat="45.90467320644592" lon="10.92893238694875"><ele>1022.0</ele><time>2026-05-03T09:40:31.97Z</time></trkpt><trkpt lat="45.90475027617459" lon="10.92902078039125"><ele>1022.0</ele><time>2026-05-03T09:40:32.97Z</time></trkpt><trkpt lat="45.90478089998764" lon="10.929156515316654"><ele>1022.0</ele><time>2026-05-03T09:40:33.97Z</time></trkpt><trkpt lat="45.90479258454859" lon="10.929314813675562"><ele>1024.6666666666667</ele><time>2026-05-03T09:40:34.97Z</time></trkpt><trkpt lat="45.90481605157196" lon="10.929431199077381"><ele>1027.3333333333335</ele><time>2026-05-03T09:40:35.97Z</time></trkpt><trkpt lat="45.90481924466904" lon="10.929525109198595"><ele>1030.0</ele><time>2026-05-03T09:40:36.97Z</time></trkpt><trkpt lat="45.904798023482314" lon="10.929679943632397"><ele>1032.6666666666667</ele><time>2026-05-03T09:40:38.97Z</time></trkpt><trkpt lat="45.90485429247988" lon="10.929783444765139"><ele>1035.3333333333333</ele><time>2026-05-03T09:40:40.97Z</time></trkpt><trkpt lat="45.90492970134755" lon="10.929752785820016"><ele>1038.0</ele><time>2026-05-03T09:40:41.97Z</time></trkpt><trkpt lat="45.90495741988713" lon="10.92965744607761"><ele>1038.0</ele><time>2026-05-03T09:40:42.97Z</time></trkpt><trkpt lat="45.904948116391466" lon="10.929520105553577"><ele>1038.0</ele><time>2026-05-03T09:40:43.97Z</time></trkpt><trkpt lat="45.90491965788689" lon="10.929359564471277"><ele>1038.0</ele><time>2026-05-03T09:40:44.97Z</time></trkpt><trkpt lat="45.90488013082173" lon="10.929177603724648"><ele>1038.0</ele><time>2026-05-03T09:40:45.97Z</time></trkpt><trkpt lat="45.90487233807459" lon="10.92900498553199"><ele>1034.8</ele><time>2026-05-03T09:40:46.97Z</time></trkpt><trkpt lat="45.90482773241045" lon="10.928860277594804"><ele>1031.6</ele><time>2026-05-03T09:40:47.97Z</time></trkpt><trkpt lat="45.90478807809074" lon="10.928737180786102"><ele>1028.4</ele><time>2026-05-03T09:40:48.97Z</time></trkpt><trkpt lat="45.904748459108724" lon="10.928590240633461"><ele>1025.2</ele><time>2026-05-03T09:40:49.969Z</time></trkpt><trkpt lat="45.90475184159921" lon="10.928428399845423"><ele>1022.0</ele><time>2026-05-03T09:40:50.969Z</time></trkpt><trkpt lat="45.904738326357844" lon="10.928282492456825"><ele>1019.0</ele><time>2026-05-03T09:40:51.969Z</time></trkpt><trkpt lat="45.90471787559591" lon="10.928157083902521"><ele>1016.0</ele><time>2026-05-03T09:40:52.969Z</time></trkpt><trkpt lat="45.904673354172765" lon="10.928012307940756"><ele>1013.0</ele><time>2026-05-03T09:40:53.969Z</time></trkpt><trkpt lat="45.90457060694285" lon="10.927810730562022"><ele>1010.0</ele><time>2026-05-03T09:40:54.969Z</time></trkpt><trkpt lat="45.90450227834749" lon="10.927599249690662"><ele>1012.5</ele><time>2026-05-03T09:40:55.969Z</time></trkpt><trkpt lat="45.904407349346094" lon="10.927447197325279"><ele>1015.0</ele><time>2026-05-03T09:40:56.969Z</time></trkpt><trkpt lat="45.90433234878761" lon="10.92732279076072"><ele>1017.5</ele><time>2026-05-03T09:40:57.969Z</time></trkpt><trkpt lat="45.904255355580304" lon="10.92718437869042"><ele>1020.0</ele><time>2026-05-03T09:40:58.969Z</time></trkpt><trkpt lat="45.904165477435434" lon="10.927084179790093"><ele>1020.0</ele><time>2026-05-03T09:40:59.969Z</time></trkpt><trkpt lat="45.90406334183082" lon="10.927003285941039"><ele>1020.0</ele><time>2026-05-03T09:41:00.969Z</time></trkpt><trkpt lat="45.903938280259865" lon="10.926927300234187"><ele>1020.0</ele><time>2026-05-03T09:41:01.969Z</time></trkpt><trkpt lat="45.90383327503169" lon="10.926864275644421"><ele>1020.0</ele><time>2026-05-03T09:41:02.969Z</time></trkpt><trkpt lat="45.90373367931315" lon="10.926784340178282"><ele>1014.5</ele><time>2026-05-03T09:41:03.969Z</time></trkpt><trkpt lat="45.903666502679734" lon="10.926687125829469"><ele>1009.0</ele><time>2026-05-03T09:41:04.969Z</time></trkpt><trkpt lat="45.903603870197635" lon="10.926523159704137"><ele>1003.5</ele><time>2026-05-03T09:41:05.969Z</time></trkpt><trkpt lat="45.90353110732554" lon="10.926345300391064"><ele>998.0</ele><time>2026-05-03T09:41:06.969Z</time></trkpt><trkpt lat="45.90346995812837" lon="10.926196275122491"><ele>996.25</ele><time>2026-05-03T09:41:07.969Z</time></trkpt><trkpt lat="45.903403274006784" lon="10.926054946610897"><ele>994.5</ele><time>2026-05-03T09:41:08.969Z</time></trkpt><trkpt lat="45.90329913056206" lon="10.925937705605318"><ele>992.75</ele><time>2026-05-03T09:41:09.969Z</time></trkpt><trkpt lat="45.903154050978884" lon="10.925808373079505"><ele>991.0</ele><time>2026-05-03T09:41:10.969Z</time></trkpt><trkpt lat="45.903060156720414" lon="10.925728729133821"><ele>991.0</ele><time>2026-05-03T09:41:11.969Z</time></trkpt><trkpt lat="45.90297909387719" lon="10.925672974095287"><ele>990.9999999999999</ele><time>2026-05-03T09:41:12.969Z</time></trkpt><trkpt lat="45.90290368516305" lon="10.925646792470562"><ele>990.9999999999999</ele><time>2026-05-03T09:41:13.969Z</time></trkpt><trkpt lat="45.90280343776535" lon="10.925680013515771"><ele>991.0</ele><time>2026-05-03T09:41:14.969Z</time></trkpt><trkpt lat="45.902683171548546" lon="10.925731498444318"><ele>991.0</ele><time>2026-05-03T09:41:15.969Z</time></trkpt><trkpt lat="45.902571503711435" lon="10.925816301277465"><ele>992.4</ele><time>2026-05-03T09:41:16.969Z</time></trkpt><trkpt lat="45.902500886057304" lon="10.925907793240732"><ele>993.8</ele><time>2026-05-03T09:41:17.969Z</time></trkpt><trkpt lat="45.90242649257231" lon="10.925911288604475"><ele>995.1999999999999</ele><time>2026-05-03T09:41:18.969Z</time></trkpt><trkpt lat="45.90233820079137" lon="10.925767228589132"><ele>996.5999999999999</ele><time>2026-05-03T09:41:20.969Z</time></trkpt><trkpt lat="45.90232036663248" lon="10.925609895003644"><ele>998.0</ele><time>2026-05-03T09:41:21.969Z</time></trkpt><trkpt lat="45.90230059353277" lon="10.925410206796263"><ele>998.0</ele><time>2026-05-03T09:41:22.969Z</time></trkpt><trkpt lat="45.90227796882343" lon="10.925229113217524"><ele>998.0</ele><time>2026-05-03T09:41:23.969Z</time></trkpt><trkpt lat="45.90227051867037" lon="10.92507582369338"><ele>998.0</ele><time>2026-05-03T09:41:24.969Z</time></trkpt><trkpt lat="45.902250395622126" lon="10.924902581474477"><ele>998.0</ele><time>2026-05-03T09:41:25.969Z</time></trkpt><trkpt lat="45.902195817235516" lon="10.924725967030549"><ele>992.25</ele><time>2026-05-03T09:41:26.969Z</time></trkpt><trkpt lat="45.902133363295455" lon="10.92455116423728"><ele>986.5</ele><time>2026-05-03T09:41:27.969Z</time></trkpt><trkpt lat="45.90205985501705" lon="10.924388552443105"><ele>980.75</ele><time>2026-05-03T09:41:28.969Z</time></trkpt><trkpt lat="45.90199466706258" lon="10.924213886449655"><ele>975.0</ele><time>2026-05-03T09:41:29.969Z</time></trkpt><trkpt lat="45.90192117166892" lon="10.924024813149014"><ele>971.0</ele><time>2026-05-03T09:41:30.969Z</time></trkpt><trkpt lat="45.90186807588606" lon="10.923849564409643"><ele>967.0</ele><time>2026-05-03T09:41:31.969Z</time></trkpt><trkpt lat="45.90179685367789" lon="10.923700502874105"><ele>963.0</ele><time>2026-05-03T09:41:32.969Z</time></trkpt><trkpt lat="45.9017014857544" lon="10.923596440061175"><ele>959.0</ele><time>2026-05-03T09:41:33.969Z</time></trkpt><trkpt lat="45.901599359349305" lon="10.923510430782471"><ele>960.8000000000001</ele><time>2026-05-03T09:41:34.969Z</time></trkpt><trkpt lat="45.90154543611607" lon="10.92341284019229"><ele>962.6000000000001</ele><time>2026-05-03T09:41:35.969Z</time></trkpt><trkpt lat="45.901565610470506" lon="10.923283269838223"><ele>964.4</ele><time>2026-05-03T09:41:36.969Z</time></trkpt><trkpt lat="45.90153497077917" lon="10.923106099801323"><ele>966.2</ele><time>2026-05-03T09:41:37.969Z</time></trkpt><trkpt lat="45.901489643098394" lon="10.922946510352638"><ele>968.0</ele><time>2026-05-03T09:41:38.969Z</time></trkpt><trkpt lat="45.9014115970662" lon="10.922840534620137"><ele>968.0</ele><time>2026-05-03T09:41:39.969Z</time></trkpt><trkpt lat="45.90133080156677" lon="10.922769156973686"><ele>968.0</ele><time>2026-05-03T09:41:40.969Z</time></trkpt><trkpt lat="45.90121555590363" lon="10.922706341111894"><ele>968.0</ele><time>2026-05-03T09:41:41.969Z</time></trkpt><trkpt lat="45.90107540317006" lon="10.922681594101078"><ele>968.0</ele><time>2026-05-03T09:41:42.969Z</time></trkpt><trkpt lat="45.900974275144954" lon="10.922655161617866"><ele>969.1666666666667</ele><time>2026-05-03T09:41:43.969Z</time></trkpt><trkpt lat="45.90090512439863" lon="10.922638411402165"><ele>970.3333333333334</ele><time>2026-05-03T09:41:44.969Z</time></trkpt><trkpt lat="45.90079256459691" lon="10.922733407392323"><ele>971.5</ele><time>2026-05-03T09:41:46.97Z</time></trkpt><trkpt lat="45.900747541172194" lon="10.922828825142847"><ele>972.6666666666667</ele><time>2026-05-03T09:41:47.97Z</time></trkpt><trkpt lat="45.90070521123883" lon="10.92292965230824"><ele>973.8333333333334</ele><time>2026-05-03T09:41:48.97Z</time></trkpt><trkpt lat="45.90068630780459" lon="10.923039325474308"><ele>975.0</ele><time>2026-05-03T09:41:49.97Z</time></trkpt><trkpt lat="45.90069264817688" lon="10.923145448441868"><ele>975.0</ele><time>2026-05-03T09:41:50.97Z</time></trkpt><trkpt lat="45.900710839975154" lon="10.923298901073755"><ele>975.0</ele><time>2026-05-03T09:41:51.97Z</time></trkpt><trkpt lat="45.90071956745952" lon="10.923445773758626"><ele>975.0</ele><time>2026-05-03T09:41:52.971Z</time></trkpt><trkpt lat="45.90072600021579" lon="10.923559246247901"><ele>975.0</ele><time>2026-05-03T09:41:53.97Z</time></trkpt><trkpt lat="45.90070885767041" lon="10.92368055748639"><ele>975.0</ele><time>2026-05-03T09:41:55.97Z</time></trkpt><trkpt lat="45.90063399290153" lon="10.923646986538277"><ele>975.0</ele><time>2026-05-03T09:41:57.97Z</time></trkpt><trkpt lat="45.90061631102336" lon="10.923462375779174"><ele>975.0</ele><time>2026-05-03T09:41:59.97Z</time></trkpt><trkpt lat="45.90060428319237" lon="10.92334739830499"><ele>975.0</ele><time>2026-05-03T09:42:00.97Z</time></trkpt><trkpt lat="45.900591976076456" lon="10.923243585562366"><ele>975.0</ele><time>2026-05-03T09:42:01.97Z</time></trkpt><trkpt lat="45.90057701380976" lon="10.923140288562484"><ele>975.0</ele><time>2026-05-03T09:42:02.97Z</time></trkpt><trkpt lat="45.90057239474872" lon="10.92303937981329"><ele>975.0</ele><time>2026-05-03T09:42:03.97Z</time></trkpt><trkpt lat="45.90058513803499" lon="10.92293952708234"><ele>975.0</ele><time>2026-05-03T09:42:04.97Z</time></trkpt><trkpt lat="45.900641939035346" lon="10.922862039666697"><ele>975.0</ele><time>2026-05-03T09:42:05.97Z</time></trkpt><trkpt lat="45.90069480683375" lon="10.92275616791235"><ele>975.0</ele><time>2026-05-03T09:42:06.97Z</time></trkpt><trkpt lat="45.90076086685584" lon="10.922682701678667"><ele>975.0</ele><time>2026-05-03T09:42:07.97Z</time></trkpt><trkpt lat="45.90080602175455" lon="10.922617688234368"><ele>975.0</ele><time>2026-05-03T09:42:08.97Z</time></trkpt><trkpt lat="45.90089017377286" lon="10.922519656976062"><ele>975.0</ele><time>2026-05-03T09:42:10.97Z</time></trkpt><trkpt lat="45.901011638374634" lon="10.922528899356186"><ele>973.8333333333334</ele><time>2026-05-03T09:42:12.97Z</time></trkpt><trkpt lat="45.90109144522015" lon="10.922543931258001"><ele>972.6666666666667</ele><time>2026-05-03T09:42:13.97Z</time></trkpt><trkpt lat="45.9011696776435" lon="10.922551999753487"><ele>971.5</ele><time>2026-05-03T09:42:14.97Z</time></trkpt><trkpt lat="45.90124120639722" lon="10.92256130756716"><ele>970.3333333333334</ele><time>2026-05-03T09:42:15.97Z</time></trkpt><trkpt lat="45.90130902405203" lon="10.92256174990782"><ele>969.1666666666667</ele><time>2026-05-03T09:42:16.97Z</time></trkpt><trkpt lat="45.90144239392527" lon="10.922597990326665"><ele>968.0</ele><time>2026-05-03T09:42:18.97Z</time></trkpt><trkpt lat="45.90151510470101" lon="10.922650585544037"><ele>968.0</ele><time>2026-05-03T09:42:19.97Z</time></trkpt><trkpt lat="45.9015981904944" lon="10.922745895987529"><ele>968.0</ele><time>2026-05-03T09:42:20.97Z</time></trkpt><trkpt lat="45.901691176455785" lon="10.922884954338675"><ele>968.0</ele><time>2026-05-03T09:42:21.97Z</time></trkpt><trkpt lat="45.901772240164206" lon="10.923057995966644"><ele>968.0</ele><time>2026-05-03T09:42:22.97Z</time></trkpt><trkpt lat="45.901878960226156" lon="10.923211959322062"><ele>965.75</ele><time>2026-05-03T09:42:23.97Z</time></trkpt><trkpt lat="45.90198315431733" lon="10.923358550463035"><ele>963.5</ele><time>2026-05-03T09:42:24.97Z</time></trkpt><trkpt lat="45.902065792442265" lon="10.923490739433198"><ele>961.25</ele><time>2026-05-03T09:42:25.97Z</time></trkpt><trkpt lat="45.9021458895977" lon="10.9236034566923"><ele>959.0</ele><time>2026-05-03T09:42:26.97Z</time></trkpt><trkpt lat="45.90224661622701" lon="10.923683114208236"><ele>959.0</ele><time>2026-05-03T09:42:27.97Z</time></trkpt><trkpt lat="45.9023420024063" lon="10.923729350500153"><ele>959.0000000000001</ele><time>2026-05-03T09:42:28.97Z</time></trkpt><trkpt lat="45.90242364228" lon="10.923804027308536"><ele>959.0000000000001</ele><time>2026-05-03T09:42:29.97Z</time></trkpt><trkpt lat="45.90251671749301" lon="10.923920876069376"><ele>959.0</ele><time>2026-05-03T09:42:30.97Z</time></trkpt><trkpt lat="45.90258903405765" lon="10.924046600071058"><ele>959.0</ele><time>2026-05-03T09:42:31.97Z</time></trkpt><trkpt lat="45.90264877731587" lon="10.924172821929629"><ele>959.6</ele><time>2026-05-03T09:42:32.97Z</time></trkpt><trkpt lat="45.90265875944048" lon="10.924322035231418"><ele>960.2</ele><time>2026-05-03T09:42:33.97Z</time></trkpt><trkpt lat="45.9026776914923" lon="10.924477082826522"><ele>960.8000000000001</ele><time>2026-05-03T09:42:35.97Z</time></trkpt><trkpt lat="45.90274564578859" lon="10.924490536701548"><ele>961.4000000000001</ele><time>2026-05-03T09:42:36.97Z</time></trkpt><trkpt lat="45.9028301603536" lon="10.924495746872068"><ele>962.0</ele><time>2026-05-03T09:42:37.97Z</time></trkpt><trkpt lat="45.90294510199066" lon="10.924437454346641"><ele>962.0</ele><time>2026-05-03T09:42:38.97Z</time></trkpt><trkpt lat="45.90307066929359" lon="10.92438630636367"><ele>962.0</ele><time>2026-05-03T09:42:39.97Z</time></trkpt><trkpt lat="45.90317390974452" lon="10.924353467680485"><ele>962.0</ele><time>2026-05-03T09:42:40.97Z</time></trkpt><trkpt lat="45.90327874853834" lon="10.924350174364791"><ele>962.0</ele><time>2026-05-03T09:42:41.97Z</time></trkpt><trkpt lat="45.90337003235312" lon="10.92439794903292"><ele>962.0</ele><time>2026-05-03T09:42:42.97Z</time></trkpt><trkpt lat="45.903472851868365" lon="10.924494144790055"><ele>949.6666666666667</ele><time>2026-05-03T09:42:43.97Z</time></trkpt><trkpt lat="45.9035872284342" lon="10.924629044153347"><ele>937.3333333333333</ele><time>2026-05-03T09:42:44.97Z</time></trkpt><trkpt lat="45.90373683612381" lon="10.924764378394332"><ele>925.0</ele><time>2026-05-03T09:42:45.97Z</time></trkpt><trkpt lat="45.9038788958743" lon="10.924879365433402"><ele>925.0</ele><time>2026-05-03T09:42:46.97Z</time></trkpt><trkpt lat="45.90402025561129" lon="10.924970033688243"><ele>925.0</ele><time>2026-05-03T09:42:47.97Z</time></trkpt><trkpt lat="45.904166098260305" lon="10.925069225441527"><ele>925.0</ele><time>2026-05-03T09:42:48.97Z</time></trkpt><trkpt lat="45.90430140911592" lon="10.925138522639026"><ele>924.5</ele><time>2026-05-03T09:42:49.97Z</time></trkpt><trkpt lat="45.90443335437506" lon="10.925236580029129"><ele>924.0</ele><time>2026-05-03T09:42:50.97Z</time></trkpt><trkpt lat="45.90456329689752" lon="10.925333357293757"><ele>923.5</ele><time>2026-05-03T09:42:51.97Z</time></trkpt><trkpt lat="45.90468332160263" lon="10.925423515995647"><ele>923.0</ele><time>2026-05-03T09:42:52.97Z</time></trkpt><trkpt lat="45.90479772774092" lon="10.92552139898119"><ele>923.0</ele><time>2026-05-03T09:42:53.97Z</time></trkpt><trkpt lat="45.90492284730029" lon="10.925612517450507"><ele>923.0</ele><time>2026-05-03T09:42:54.97Z</time></trkpt><trkpt lat="45.90503895759465" lon="10.925740088709713"><ele>923.0</ele><time>2026-05-03T09:42:55.97Z</time></trkpt><trkpt lat="45.90516208632599" lon="10.925856993137568"><ele>923.0</ele><time>2026-05-03T09:42:56.97Z</time></trkpt><trkpt lat="45.90525984758342" lon="10.926003078167911"><ele>917.75</ele><time>2026-05-03T09:42:57.97Z</time></trkpt><trkpt lat="45.905341541137155" lon="10.926179923091683"><ele>912.5</ele><time>2026-05-03T09:42:58.97Z</time></trkpt><trkpt lat="45.90541624784735" lon="10.9263249598834"><ele>907.25</ele><time>2026-05-03T09:42:59.97Z</time></trkpt><trkpt lat="45.90548205318217" lon="10.926449964555554"><ele>902.0</ele><time>2026-05-03T09:43:00.97Z</time></trkpt><trkpt lat="45.90554450757289" lon="10.92657304064502"><ele>902.0000000000001</ele><time>2026-05-03T09:43:01.97Z</time></trkpt><trkpt lat="45.90558986610565" lon="10.926688307160283"><ele>902.0</ele><time>2026-05-03T09:43:02.97Z</time></trkpt><trkpt lat="45.90561666295346" lon="10.92680547415047"><ele>902.0</ele><time>2026-05-03T09:43:03.97Z</time></trkpt><trkpt lat="45.905656391733835" lon="10.926887618279945"><ele>902.0</ele><time>2026-05-03T09:43:04.97Z</time></trkpt><trkpt lat="45.90572196563921" lon="10.926940437901655"><ele>902.0000000000001</ele><time>2026-05-03T09:43:05.97Z</time></trkpt><trkpt lat="45.90577937766697" lon="10.926893759689872"><ele>902.0</ele><time>2026-05-03T09:43:06.97Z</time></trkpt><trkpt lat="45.905788046010215" lon="10.926775451214873"><ele>902.0000000000001</ele><time>2026-05-03T09:43:08.97Z</time></trkpt><trkpt lat="45.905744066172026" lon="10.926688181683787"><ele>902.0</ele><time>2026-05-03T09:43:09.97Z</time></trkpt><trkpt lat="45.90568457227917" lon="10.92659459827047"><ele>902.0</ele><time>2026-05-03T09:43:10.97Z</time></trkpt><trkpt lat="45.90562903891113" lon="10.926493453983332"><ele>902.0</ele><time>2026-05-03T09:43:11.97Z</time></trkpt><trkpt lat="45.90559354871066" lon="10.926379392232082"><ele>902.0000000000001</ele><time>2026-05-03T09:43:12.97Z</time></trkpt><trkpt lat="45.90555492031917" lon="10.92625150846924"><ele>902.0</ele><time>2026-05-03T09:43:13.97Z</time></trkpt><trkpt lat="45.90552673770348" lon="10.926122891887717"><ele>902.0</ele><time>2026-05-03T09:43:14.97Z</time></trkpt><trkpt lat="45.905495173643885" lon="10.925981172023729"><ele>902.0</ele><time>2026-05-03T09:43:15.97Z</time></trkpt><trkpt lat="45.9054522699932" lon="10.925847000702548"><ele>902.0</ele><time>2026-05-03T09:43:16.97Z</time></trkpt><trkpt lat="45.90539049652117" lon="10.925697144495716"><ele>902.0</ele><time>2026-05-03T09:43:17.97Z</time></trkpt><trkpt lat="45.90531527005611" lon="10.925555481808859"><ele>898.3333333333334</ele><time>2026-05-03T09:43:18.97Z</time></trkpt><trkpt lat="45.90521878094119" lon="10.925396425862601"><ele>894.6666666666667</ele><time>2026-05-03T09:43:19.97Z</time></trkpt><trkpt lat="45.90510886810548" lon="10.925224214431058"><ele>891.0</ele><time>2026-05-03T09:43:20.97Z</time></trkpt><trkpt lat="45.9049953807536" lon="10.925062008396797"><ele>891.0</ele><time>2026-05-03T09:43:21.97Z</time></trkpt><trkpt lat="45.90488831099719" lon="10.92492062620457"><ele>891.0</ele><time>2026-05-03T09:43:22.97Z</time></trkpt><trkpt lat="45.90478442507636" lon="10.924785523999146"><ele>891.0</ele><time>2026-05-03T09:43:23.97Z</time></trkpt><trkpt lat="45.904682697287086" lon="10.9246317248602"><ele>891.0</ele><time>2026-05-03T09:43:24.97Z</time></trkpt><trkpt lat="45.904603526945124" lon="10.924467178951454"><ele>891.0</ele><time>2026-05-03T09:43:25.97Z</time></trkpt><trkpt lat="45.90452000760095" lon="10.924299394501803"><ele>891.0</ele><time>2026-05-03T09:43:26.97Z</time></trkpt><trkpt lat="45.90443396813124" lon="10.924148892536921"><ele>891.0</ele><time>2026-05-03T09:43:27.97Z</time></trkpt><trkpt lat="45.90435328015627" lon="10.924011651131051"><ele>891.0</ele><time>2026-05-03T09:43:28.97Z</time></trkpt><trkpt lat="45.9042833823018" lon="10.923898723898994"><ele>891.8333333333334</ele><time>2026-05-03T09:43:29.97Z</time></trkpt><trkpt lat="45.90421740398153" lon="10.923807996645817"><ele>892.6666666666667</ele><time>2026-05-03T09:43:30.97Z</time></trkpt><trkpt lat="45.9041554234079" lon="10.92372965253689"><ele>893.5</ele><time>2026-05-03T09:43:31.97Z</time></trkpt><trkpt lat="45.90410502966536" lon="10.923669278108147"><ele>894.3333333333334</ele><time>2026-05-03T09:43:32.97Z</time></trkpt><trkpt lat="45.9040549082559" lon="10.923599643124938"><ele>895.1666666666667</ele><time>2026-05-03T09:43:34.97Z</time></trkpt><trkpt lat="45.904137332742586" lon="10.923605273950606"><ele>896.0</ele><time>2026-05-03T09:43:37.97Z</time></trkpt><trkpt lat="45.904194001400576" lon="10.923678604700068"><ele>887.25</ele><time>2026-05-03T09:43:38.969Z</time></trkpt><trkpt lat="45.90426380824007" lon="10.92375184683824"><ele>878.5</ele><time>2026-05-03T09:43:39.969Z</time></trkpt><trkpt lat="45.90435770339153" lon="10.923822218979508"><ele>869.75</ele><time>2026-05-03T09:43:40.969Z</time></trkpt><trkpt lat="45.904470595523875" lon="10.923916742601504"><ele>861.0</ele><time>2026-05-03T09:43:41.969Z</time></trkpt><trkpt lat="45.90458831833488" lon="10.924035646438881"><ele>861.0</ele><time>2026-05-03T09:43:42.969Z</time></trkpt><trkpt lat="45.9047101644644" lon="10.924150664209144"><ele>861.0</ele><time>2026-05-03T09:43:43.969Z</time></trkpt><trkpt lat="45.90482020795721" lon="10.924271678235355"><ele>861.0</ele><time>2026-05-03T09:43:44.969Z</time></trkpt><trkpt lat="45.90491963101911" lon="10.92439795826682"><ele>861.0</ele><time>2026-05-03T09:43:45.969Z</time></trkpt><trkpt lat="45.90502073472215" lon="10.924498432959322"><ele>857.5</ele><time>2026-05-03T09:43:46.969Z</time></trkpt><trkpt lat="45.90513299726647" lon="10.924577724184198"><ele>854.0</ele><time>2026-05-03T09:43:47.969Z</time></trkpt><trkpt lat="45.905265430354646" lon="10.924696023172606"><ele>850.5</ele><time>2026-05-03T09:43:48.969Z</time></trkpt><trkpt lat="45.90537639188873" lon="10.924850749676958"><ele>847.0</ele><time>2026-05-03T09:43:49.969Z</time></trkpt><trkpt lat="45.90548655889896" lon="10.924993253238993"><ele>853.25</ele><time>2026-05-03T09:43:50.969Z</time></trkpt><trkpt lat="45.905582032742956" lon="10.925148649849115"><ele>859.5</ele><time>2026-05-03T09:43:51.969Z</time></trkpt><trkpt lat="45.905688359485396" lon="10.925298475960636"><ele>865.75</ele><time>2026-05-03T09:43:52.969Z</time></trkpt><trkpt lat="45.90578081251261" lon="10.925452071268321"><ele>872.0</ele><time>2026-05-03T09:43:53.97Z</time></trkpt><trkpt lat="45.90587719448844" lon="10.92559445549721"><ele>866.5</ele><time>2026-05-03T09:43:54.97Z</time></trkpt><trkpt lat="45.90596897239976" lon="10.925736357269777"><ele>861.0</ele><time>2026-05-03T09:43:55.969Z</time></trkpt><trkpt lat="45.906056943201925" lon="10.925873746992643"><ele>855.5</ele><time>2026-05-03T09:43:56.97Z</time></trkpt><trkpt lat="45.906125247568724" lon="10.926019967097307"><ele>850.0</ele><time>2026-05-03T09:43:57.97Z</time></trkpt><trkpt lat="45.90620539296043" lon="10.926166489933662"><ele>850.0</ele><time>2026-05-03T09:43:58.97Z</time></trkpt><trkpt lat="45.90629219116351" lon="10.926299658683533"><ele>850.0</ele><time>2026-05-03T09:43:59.97Z</time></trkpt><trkpt lat="45.906358702385205" lon="10.926437412910603"><ele>850.0</ele><time>2026-05-03T09:44:00.97Z</time></trkpt><trkpt lat="45.90642590791411" lon="10.92654262495051"><ele>850.0</ele><time>2026-05-03T09:44:01.97Z</time></trkpt><trkpt lat="45.90649662851392" lon="10.926631289558472"><ele>850.0</ele><time>2026-05-03T09:44:02.97Z</time></trkpt><trkpt lat="45.90656213415662" lon="10.926721526687968"><ele>855.4</ele><time>2026-05-03T09:44:03.97Z</time></trkpt><trkpt lat="45.90660742191035" lon="10.926798229763358"><ele>860.8</ele><time>2026-05-03T09:44:04.969Z</time></trkpt><trkpt lat="45.90667343759819" lon="10.926939689392292"><ele>866.2</ele><time>2026-05-03T09:44:06.97Z</time></trkpt><trkpt lat="45.90672058015995" lon="10.927007698698144"><ele>871.6</ele><time>2026-05-03T09:44:07.97Z</time></trkpt><trkpt lat="45.90675697336328" lon="10.92708515737678"><ele>877.0</ele><time>2026-05-03T09:44:08.97Z</time></trkpt><trkpt lat="45.906839167116054" lon="10.927231790343644"><ele>870.1666666666666</ele><time>2026-05-03T09:44:10.97Z</time></trkpt><trkpt lat="45.906887295901726" lon="10.927314712467911"><ele>863.3333333333333</ele><time>2026-05-03T09:44:11.97Z</time></trkpt><trkpt lat="45.906938478293135" lon="10.927396642442021"><ele>856.5</ele><time>2026-05-03T09:44:12.97Z</time></trkpt><trkpt lat="45.9069736122421" lon="10.92750423487368"><ele>849.6666666666667</ele><time>2026-05-03T09:44:13.97Z</time></trkpt><trkpt lat="45.90700833638754" lon="10.927619012520797"><ele>842.8333333333334</ele><time>2026-05-03T09:44:14.97Z</time></trkpt><trkpt lat="45.907060502705306" lon="10.927751242103326"><ele>836.0</ele><time>2026-05-03T09:44:15.97Z</time></trkpt><trkpt lat="45.9071328432022" lon="10.927906216753298"><ele>836.0</ele><time>2026-05-03T09:44:16.97Z</time></trkpt><trkpt lat="45.90722620862125" lon="10.928081386244719"><ele>836.0</ele><time>2026-05-03T09:44:17.97Z</time></trkpt><trkpt lat="45.90734064113583" lon="10.928279723730972"><ele>836.0</ele><time>2026-05-03T09:44:18.97Z</time></trkpt><trkpt lat="45.90744721342071" lon="10.928481445138848"><ele>830.5</ele><time>2026-05-03T09:44:19.97Z</time></trkpt><trkpt lat="45.90754426069487" lon="10.92865970902862"><ele>825.0</ele><time>2026-05-03T09:44:20.97Z</time></trkpt><trkpt lat="45.907655226746655" lon="10.928769626644147"><ele>819.5</ele><time>2026-05-03T09:44:21.97Z</time></trkpt><trkpt lat="45.907756604744506" lon="10.928900575079947"><ele>814.0</ele><time>2026-05-03T09:44:22.97Z</time></trkpt><trkpt lat="45.907850899447894" lon="10.92906146203143"><ele>814.0</ele><time>2026-05-03T09:44:23.97Z</time></trkpt><trkpt lat="45.90790477214884" lon="10.92920569597801"><ele>814.0</ele><time>2026-05-03T09:44:24.97Z</time></trkpt><trkpt lat="45.90793629598064" lon="10.92929379434095"><ele>814.0</ele><time>2026-05-03T09:44:25.97Z</time></trkpt><trkpt lat="45.90798027677545" lon="10.929379734492619"><ele>814.0</ele><time>2026-05-03T09:44:27.97Z</time></trkpt><trkpt lat="45.90811264210251" lon="10.929296043842674"><ele>814.0</ele><time>2026-05-03T09:44:29.97Z</time></trkpt><trkpt lat="45.9080486376133" lon="10.929126907832632"><ele>814.0</ele><time>2026-05-03T09:44:30.97Z</time></trkpt><trkpt lat="45.90800683315139" lon="10.929035043215023"><ele>814.0</ele><time>2026-05-03T09:44:31.97Z</time></trkpt><trkpt lat="45.90796134910789" lon="10.928920521733387"><ele>814.0</ele><time>2026-05-03T09:44:32.97Z</time></trkpt><trkpt lat="45.9079153049617" lon="10.928771441443317"><ele>814.0</ele><time>2026-05-03T09:44:33.97Z</time></trkpt><trkpt lat="45.90782870006019" lon="10.92860712154919"><ele>814.0</ele><time>2026-05-03T09:44:34.97Z</time></trkpt><trkpt lat="45.90774033192114" lon="10.92842364882631"><ele>807.3333333333333</ele><time>2026-05-03T09:44:35.97Z</time></trkpt><trkpt lat="45.907661254709744" lon="10.92820595382385"><ele>800.6666666666667</ele><time>2026-05-03T09:44:36.97Z</time></trkpt><trkpt lat="45.90758780498795" lon="10.927998737443026"><ele>794.0</ele><time>2026-05-03T09:44:37.97Z</time></trkpt><trkpt lat="45.90752377313024" lon="10.927796203602748"><ele>799.2</ele><time>2026-05-03T09:44:38.97Z</time></trkpt><trkpt lat="45.907459237269876" lon="10.927659902446848"><ele>804.4000000000001</ele><time>2026-05-03T09:44:39.969Z</time></trkpt><trkpt lat="45.907424114996296" lon="10.927542067663877"><ele>809.6</ele><time>2026-05-03T09:44:40.969Z</time></trkpt><trkpt lat="45.90742062574257" lon="10.927413438962928"><ele>814.8</ele><time>2026-05-03T09:44:41.969Z</time></trkpt><trkpt lat="45.90742207039073" lon="10.927204097512513"><ele>820.0</ele><time>2026-05-03T09:44:42.969Z</time></trkpt><trkpt lat="45.9073993850598" lon="10.926973911227696"><ele>814.6666666666666</ele><time>2026-05-03T09:44:43.969Z</time></trkpt><trkpt lat="45.90734073407521" lon="10.92672553056806"><ele>809.3333333333333</ele><time>2026-05-03T09:44:44.969Z</time></trkpt><trkpt lat="45.9072540552531" lon="10.92648707781339"><ele>804.0</ele><time>2026-05-03T09:44:45.969Z</time></trkpt><trkpt lat="45.907157120224106" lon="10.926233620138992"><ele>804.0</ele><time>2026-05-03T09:44:46.969Z</time></trkpt><trkpt lat="45.9070659731784" lon="10.926002165311305"><ele>804.0</ele><time>2026-05-03T09:44:47.969Z</time></trkpt><trkpt lat="45.90699247394387" lon="10.925793184769"><ele>804.0</ele><time>2026-05-03T09:44:48.969Z</time></trkpt><trkpt lat="45.90692596823459" lon="10.925596300521729"><ele>802.0</ele><time>2026-05-03T09:44:49.969Z</time></trkpt><trkpt lat="45.906846694702914" lon="10.9253758066383"><ele>800.0</ele><time>2026-05-03T09:44:50.969Z</time></trkpt><trkpt lat="45.9067563152116" lon="10.925155162845792"><ele>798.0</ele><time>2026-05-03T09:44:51.969Z</time></trkpt><trkpt lat="45.90667319607911" lon="10.924949488824744"><ele>798.0</ele><time>2026-05-03T09:44:52.969Z</time></trkpt><trkpt lat="45.90658677987017" lon="10.924728950725262"><ele>798.0</ele><time>2026-05-03T09:44:53.969Z</time></trkpt><trkpt lat="45.90650700271469" lon="10.924518082944745"><ele>798.0</ele><time>2026-05-03T09:44:54.969Z</time></trkpt><trkpt lat="45.90642908244732" lon="10.924313455800977"><ele>791.75</ele><time>2026-05-03T09:44:55.969Z</time></trkpt><trkpt lat="45.906353175907455" lon="10.924123786067586"><ele>785.5</ele><time>2026-05-03T09:44:56.969Z</time></trkpt><trkpt lat="45.906287369411544" lon="10.923952039215864"><ele>779.25</ele><time>2026-05-03T09:44:57.969Z</time></trkpt><trkpt lat="45.90622268355158" lon="10.923791243424185"><ele>773.0</ele><time>2026-05-03T09:44:58.969Z</time></trkpt><trkpt lat="45.90612540834951" lon="10.92365729454231"><ele>773.0</ele><time>2026-05-03T09:44:59.969Z</time></trkpt><trkpt lat="45.906007899606976" lon="10.923513452050294"><ele>773.0</ele><time>2026-05-03T09:45:00.969Z</time></trkpt><trkpt lat="45.90587980470506" lon="10.923369284666725"><ele>773.0</ele><time>2026-05-03T09:45:01.969Z</time></trkpt><trkpt lat="45.905763178053085" lon="10.923233638614619"><ele>776.0</ele><time>2026-05-03T09:45:02.969Z</time></trkpt><trkpt lat="45.90568150551647" lon="10.923075559600358"><ele>779.0</ele><time>2026-05-03T09:45:03.969Z</time></trkpt><trkpt lat="45.90559355048716" lon="10.922922914608018"><ele>782.0</ele><time>2026-05-03T09:45:04.969Z</time></trkpt><trkpt lat="45.90552270993323" lon="10.922759704863603"><ele>785.0</ele><time>2026-05-03T09:45:05.969Z</time></trkpt><trkpt lat="45.905469989629935" lon="10.922583720524326"><ele>778.0</ele><time>2026-05-03T09:45:06.969Z</time></trkpt><trkpt lat="45.90541109396164" lon="10.9224116698654"><ele>771.0</ele><time>2026-05-03T09:45:07.969Z</time></trkpt><trkpt lat="45.90533950710207" lon="10.922250472937899"><ele>764.0</ele><time>2026-05-03T09:45:08.969Z</time></trkpt><trkpt lat="45.905272758152854" lon="10.922102453884019"><ele>757.0</ele><time>2026-05-03T09:45:09.969Z</time></trkpt><trkpt lat="45.905208616887954" lon="10.921972761434573"><ele>757.0</ele><time>2026-05-03T09:45:10.969Z</time></trkpt><trkpt lat="45.90512680001439" lon="10.921875041195149"><ele>757.0</ele><time>2026-05-03T09:45:11.969Z</time></trkpt><trkpt lat="45.905016257712184" lon="10.92180445788968"><ele>757.0</ele><time>2026-05-03T09:45:12.969Z</time></trkpt><trkpt lat="45.90495273485203" lon="10.921715112238957"><ele>757.0</ele><time>2026-05-03T09:45:13.969Z</time></trkpt><trkpt lat="45.90490668419913" lon="10.92163009993381"><ele>757.0</ele><time>2026-05-03T09:45:14.969Z</time></trkpt><trkpt lat="45.904849092946556" lon="10.921553604171423"><ele>758.0</ele><time>2026-05-03T09:45:15.969Z</time></trkpt><trkpt lat="45.904784012081855" lon="10.921499080649662"><ele>759.0</ele><time>2026-05-03T09:45:16.969Z</time></trkpt><trkpt lat="45.90469426001808" lon="10.921520692361423"><ele>760.0</ele><time>2026-05-03T09:45:17.969Z</time></trkpt><trkpt lat="45.90462090867063" lon="10.92149090277089"><ele>761.0</ele><time>2026-05-03T09:45:18.969Z</time></trkpt><trkpt lat="45.90452554135199" lon="10.921377051543244"><ele>762.0</ele><time>2026-05-03T09:45:20.969Z</time></trkpt><trkpt lat="45.90446863419085" lon="10.921270183168108"><ele>762.0</ele><time>2026-05-03T09:45:21.969Z</time></trkpt><trkpt lat="45.904413259233166" lon="10.921150584855534"><ele>762.0</ele><time>2026-05-03T09:45:22.969Z</time></trkpt><trkpt lat="45.90435762013798" lon="10.921020732046589"><ele>762.0</ele><time>2026-05-03T09:45:23.969Z</time></trkpt><trkpt lat="45.90430812892368" lon="10.920887926191268"><ele>762.0</ele><time>2026-05-03T09:45:24.969Z</time></trkpt><trkpt lat="45.90426761690605" lon="10.920755065610678"><ele>762.0</ele><time>2026-05-03T09:45:25.969Z</time></trkpt><trkpt lat="45.904226283707985" lon="10.92060161927947"><ele>763.0</ele><time>2026-05-03T09:45:26.969Z</time></trkpt><trkpt lat="45.904168431554574" lon="10.920436498430675"><ele>764.0</ele><time>2026-05-03T09:45:27.969Z</time></trkpt><trkpt lat="45.90410908821618" lon="10.92026693585325"><ele>765.0</ele><time>2026-05-03T09:45:28.969Z</time></trkpt><trkpt lat="45.90404314020016" lon="10.920129663152945"><ele>766.0</ele><time>2026-05-03T09:45:29.969Z</time></trkpt><trkpt lat="45.90397647684668" lon="10.919963606059993"><ele>759.5</ele><time>2026-05-03T09:45:30.969Z</time></trkpt><trkpt lat="45.90392586033765" lon="10.919822712903958"><ele>753.0</ele><time>2026-05-03T09:45:31.969Z</time></trkpt><trkpt lat="45.90385434638798" lon="10.919702410616623"><ele>746.5</ele><time>2026-05-03T09:45:32.969Z</time></trkpt><trkpt lat="45.90376149635909" lon="10.919563429406313"><ele>740.0</ele><time>2026-05-03T09:45:33.969Z</time></trkpt><trkpt lat="45.90366216205825" lon="10.919424283387713"><ele>740.0</ele><time>2026-05-03T09:45:34.969Z</time></trkpt><trkpt lat="45.903539598896934" lon="10.919269890132849"><ele>740.0</ele><time>2026-05-03T09:45:35.969Z</time></trkpt><trkpt lat="45.903426029204695" lon="10.919118193344472"><ele>740.0</ele><time>2026-05-03T09:45:36.969Z</time></trkpt><trkpt lat="45.90332035762627" lon="10.91897822104717"><ele>740.0</ele><time>2026-05-03T09:45:37.969Z</time></trkpt><trkpt lat="45.90319124169868" lon="10.918800953444538"><ele>740.0</ele><time>2026-05-03T09:45:38.969Z</time></trkpt><trkpt lat="45.90306932161742" lon="10.918692512917186"><ele>740.0</ele><time>2026-05-03T09:45:39.969Z</time></trkpt><trkpt lat="45.90294455636944" lon="10.918600353265253"><ele>740.0</ele><time>2026-05-03T09:45:40.969Z</time></trkpt><trkpt lat="45.902844974660965" lon="10.918495487408789"><ele>740.0</ele><time>2026-05-03T09:45:41.969Z</time></trkpt><trkpt lat="45.90274426908682" lon="10.918427807465749"><ele>740.0</ele><time>2026-05-03T09:45:42.969Z</time></trkpt><trkpt lat="45.90263590566459" lon="10.918391336970135"><ele>740.0</ele><time>2026-05-03T09:45:43.969Z</time></trkpt><trkpt lat="45.90252474867467" lon="10.918338317858979"><ele>739.0</ele><time>2026-05-03T09:45:44.969Z</time></trkpt><trkpt lat="45.90242710065098" lon="10.91829743135275"><ele>738.0</ele><time>2026-05-03T09:45:45.968Z</time></trkpt><trkpt lat="45.902369618344196" lon="10.918254937188873"><ele>737.0</ele><time>2026-05-03T09:45:46.968Z</time></trkpt><trkpt lat="45.902452262665705" lon="10.918165027309046"><ele>736.0</ele><time>2026-05-03T09:45:49.968Z</time></trkpt><trkpt lat="45.90255482215487" lon="10.91817210165481"><ele>735.0</ele><time>2026-05-03T09:45:50.968Z</time></trkpt><trkpt lat="45.902655198123" lon="10.918228789911115"><ele>736.25</ele><time>2026-05-03T09:45:51.968Z</time></trkpt><trkpt lat="45.90277678013607" lon="10.918265555549805"><ele>737.5</ele><time>2026-05-03T09:45:52.968Z</time></trkpt><trkpt lat="45.90288873718192" lon="10.91831726920747"><ele>738.75</ele><time>2026-05-03T09:45:53.968Z</time></trkpt><trkpt lat="45.903000894552385" lon="10.918367119230048"><ele>740.0</ele><time>2026-05-03T09:45:54.968Z</time></trkpt><trkpt lat="45.903108705093224" lon="10.91842953936744"><ele>740.0</ele><time>2026-05-03T09:45:55.968Z</time></trkpt><trkpt lat="45.90322221722828" lon="10.918508951589425"><ele>740.0</ele><time>2026-05-03T09:45:56.968Z</time></trkpt><trkpt lat="45.90335000582251" lon="10.918602265071932"><ele>740.0</ele><time>2026-05-03T09:45:57.968Z</time></trkpt><trkpt lat="45.90348195483363" lon="10.918711782440266"><ele>740.0</ele><time>2026-05-03T09:45:58.969Z</time></trkpt><trkpt lat="45.903619058810854" lon="10.918798031250573"><ele>729.0</ele><time>2026-05-03T09:45:59.969Z</time></trkpt><trkpt lat="45.90375491225653" lon="10.918893669082959"><ele>718.0</ele><time>2026-05-03T09:46:00.969Z</time></trkpt><trkpt lat="45.90389754088927" lon="10.918996446656745"><ele>707.0</ele><time>2026-05-03T09:46:01.969Z</time></trkpt><trkpt lat="45.90404138603615" lon="10.919121490874202"><ele>707.0</ele><time>2026-05-03T09:46:02.969Z</time></trkpt><trkpt lat="45.904170221927615" lon="10.919224176833955"><ele>707.0</ele><time>2026-05-03T09:46:03.969Z</time></trkpt><trkpt lat="45.90429019658576" lon="10.919320151879608"><ele>707.0</ele><time>2026-05-03T09:46:04.969Z</time></trkpt><trkpt lat="45.90440496651681" lon="10.919402477672087"><ele>707.0</ele><time>2026-05-03T09:46:05.969Z</time></trkpt><trkpt lat="45.90449879037534" lon="10.919484480395834"><ele>702.75</ele><time>2026-05-03T09:46:06.969Z</time></trkpt><trkpt lat="45.90458787446247" lon="10.9195731648121"><ele>698.5</ele><time>2026-05-03T09:46:07.969Z</time></trkpt><trkpt lat="45.9046284998376" lon="10.919719057672166"><ele>694.25</ele><time>2026-05-03T09:46:08.969Z</time></trkpt><trkpt lat="45.904664831372074" lon="10.919889669933669"><ele>690.0</ele><time>2026-05-03T09:46:09.969Z</time></trkpt><trkpt lat="45.90471170829606" lon="10.920041631914469"><ele>691.2</ele><time>2026-05-03T09:46:10.969Z</time></trkpt><trkpt lat="45.904753588464715" lon="10.920179318456471"><ele>692.4</ele><time>2026-05-03T09:46:11.969Z</time></trkpt><trkpt lat="45.90481690557691" lon="10.920287434759953"><ele>693.5999999999999</ele><time>2026-05-03T09:46:12.969Z</time></trkpt><trkpt lat="45.90492486075901" lon="10.920342389381366"><ele>694.8</ele><time>2026-05-03T09:46:13.969Z</time></trkpt><trkpt lat="45.90502964816505" lon="10.920270283672656"><ele>696.0</ele><time>2026-05-03T09:46:14.969Z</time></trkpt><trkpt lat="45.90513289906453" lon="10.920240916636686"><ele>696.0</ele><time>2026-05-03T09:46:15.969Z</time></trkpt><trkpt lat="45.9052071912591" lon="10.920275852642945"><ele>696.0</ele><time>2026-05-03T09:46:16.969Z</time></trkpt><trkpt lat="45.905319128299425" lon="10.920284484913571"><ele>696.0</ele><time>2026-05-03T09:46:17.969Z</time></trkpt><trkpt lat="45.90542391221384" lon="10.920277994444172"><ele>696.0</ele><time>2026-05-03T09:46:18.969Z</time></trkpt><trkpt lat="45.90553444147546" lon="10.9203211691393"><ele>696.0</ele><time>2026-05-03T09:46:19.969Z</time></trkpt><trkpt lat="45.90564936885403" lon="10.92041040413177"><ele>696.0</ele><time>2026-05-03T09:46:20.969Z</time></trkpt><trkpt lat="45.90576765405668" lon="10.920489689300062"><ele>696.0</ele><time>2026-05-03T09:46:21.969Z</time></trkpt><trkpt lat="45.905877922401785" lon="10.920599600140369"><ele>696.0</ele><time>2026-05-03T09:46:22.969Z</time></trkpt><trkpt lat="45.905991099387634" lon="10.920697121038376"><ele>696.0</ele><time>2026-05-03T09:46:23.969Z</time></trkpt><trkpt lat="45.906103084705755" lon="10.920800215058044"><ele>695.0</ele><time>2026-05-03T09:46:24.969Z</time></trkpt><trkpt lat="45.90621550930941" lon="10.920894647103019"><ele>694.0</ele><time>2026-05-03T09:46:25.969Z</time></trkpt><trkpt lat="45.906325390259084" lon="10.920997585037316"><ele>693.0</ele><time>2026-05-03T09:46:26.969Z</time></trkpt><trkpt lat="45.90643498589287" lon="10.92110502207136"><ele>692.0</ele><time>2026-05-03T09:46:27.969Z</time></trkpt><trkpt lat="45.90654476080433" lon="10.92121034209694"><ele>692.0</ele><time>2026-05-03T09:46:28.969Z</time></trkpt><trkpt lat="45.906655845478" lon="10.92129860331393"><ele>692.0</ele><time>2026-05-03T09:46:29.969Z</time></trkpt><trkpt lat="45.906767453160455" lon="10.921367153303994"><ele>692.0</ele><time>2026-05-03T09:46:30.969Z</time></trkpt><trkpt lat="45.90689866784146" lon="10.92143997626139"><ele>692.0</ele><time>2026-05-03T09:46:31.969Z</time></trkpt><trkpt lat="45.9070256719756" lon="10.921534439115215"><ele>690.5</ele><time>2026-05-03T09:46:32.969Z</time></trkpt><trkpt lat="45.907151733987334" lon="10.92162895891748"><ele>689.0</ele><time>2026-05-03T09:46:33.969Z</time></trkpt><trkpt lat="45.90727154725374" lon="10.921735299120341"><ele>687.5</ele><time>2026-05-03T09:46:34.969Z</time></trkpt><trkpt lat="45.90737225099203" lon="10.921853325016372"><ele>686.0</ele><time>2026-05-03T09:46:35.969Z</time></trkpt><trkpt lat="45.907491767228855" lon="10.921948979453871"><ele>676.0</ele><time>2026-05-03T09:46:36.969Z</time></trkpt><trkpt lat="45.90762362613422" lon="10.922055626673707"><ele>666.0</ele><time>2026-05-03T09:46:37.969Z</time></trkpt><trkpt lat="45.9077447857961" lon="10.922183729934472"><ele>656.0</ele><time>2026-05-03T09:46:38.969Z</time></trkpt><trkpt lat="45.90785770488795" lon="10.922312300043796"><ele>646.0</ele><time>2026-05-03T09:46:39.969Z</time></trkpt><trkpt lat="45.907969755688505" lon="10.922425200649482"><ele>646.0</ele><time>2026-05-03T09:46:40.969Z</time></trkpt><trkpt lat="45.90808049870434" lon="10.922545329922759"><ele>646.0</ele><time>2026-05-03T09:46:41.969Z</time></trkpt><trkpt lat="45.90818738678348" lon="10.922672182796957"><ele>646.0</ele><time>2026-05-03T09:46:42.969Z</time></trkpt><trkpt lat="45.908277138500154" lon="10.922793534027875"><ele>646.0</ele><time>2026-05-03T09:46:43.969Z</time></trkpt><trkpt lat="45.908381796411646" lon="10.922875172316688"><ele>643.0</ele><time>2026-05-03T09:46:44.969Z</time></trkpt><trkpt lat="45.90847448160926" lon="10.922991645948123"><ele>640.0</ele><time>2026-05-03T09:46:45.969Z</time></trkpt><trkpt lat="45.908565432049905" lon="10.923120007125569"><ele>637.0</ele><time>2026-05-03T09:46:46.969Z</time></trkpt><trkpt lat="45.90866294835164" lon="10.923261708969969"><ele>634.0</ele><time>2026-05-03T09:46:47.969Z</time></trkpt><trkpt lat="45.9087557256107" lon="10.923403585784046"><ele>640.0</ele><time>2026-05-03T09:46:48.969Z</time></trkpt><trkpt lat="45.90884794950057" lon="10.92353666819206"><ele>646.0</ele><time>2026-05-03T09:46:49.969Z</time></trkpt><trkpt lat="45.90894403789583" lon="10.923662789920062"><ele>652.0</ele><time>2026-05-03T09:46:50.969Z</time></trkpt><trkpt lat="45.90904598401831" lon="10.923788803701665"><ele>658.0</ele><time>2026-05-03T09:46:51.969Z</time></trkpt><trkpt lat="45.909145439909956" lon="10.923924117352914"><ele>658.0</ele><time>2026-05-03T09:46:52.969Z</time></trkpt><trkpt lat="45.909240666250135" lon="10.9240335803016"><ele>658.0</ele><time>2026-05-03T09:46:53.969Z</time></trkpt><trkpt lat="45.90932476567765" lon="10.924095861469336"><ele>658.0</ele><time>2026-05-03T09:46:54.969Z</time></trkpt><trkpt lat="45.90939283151768" lon="10.924154831259381"><ele>658.0</ele><time>2026-05-03T09:46:55.969Z</time></trkpt><trkpt lat="45.90948187323851" lon="10.924162460085839"><ele>658.0</ele><time>2026-05-03T09:46:56.969Z</time></trkpt><trkpt lat="45.90959658977667" lon="10.92415291600534"><ele>654.25</ele><time>2026-05-03T09:46:57.969Z</time></trkpt><trkpt lat="45.90971002662914" lon="10.924213996711845"><ele>650.5</ele><time>2026-05-03T09:46:58.969Z</time></trkpt><trkpt lat="45.90980401821317" lon="10.92427885766367"><ele>646.75</ele><time>2026-05-03T09:46:59.969Z</time></trkpt><trkpt lat="45.9098848736705" lon="10.924388494679802"><ele>643.0</ele><time>2026-05-03T09:47:00.969Z</time></trkpt><trkpt lat="45.909899863812626" lon="10.92457191243478"><ele>643.0</ele><time>2026-05-03T09:47:01.969Z</time></trkpt><trkpt lat="45.90993107590539" lon="10.924801600338402"><ele>643.0</ele><time>2026-05-03T09:47:02.969Z</time></trkpt><trkpt lat="45.90999368962514" lon="10.924961968546977"><ele>643.0</ele><time>2026-05-03T09:47:03.969Z</time></trkpt><trkpt lat="45.91006284025254" lon="10.925163730183568"><ele>643.0</ele><time>2026-05-03T09:47:04.969Z</time></trkpt><trkpt lat="45.91018580337211" lon="10.925324475611891"><ele>644.4</ele><time>2026-05-03T09:47:05.969Z</time></trkpt><trkpt lat="45.910285535737216" lon="10.925384670148926"><ele>645.8</ele><time>2026-05-03T09:47:06.969Z</time></trkpt><trkpt lat="45.91041089551373" lon="10.925355467808389"><ele>647.2</ele><time>2026-05-03T09:47:07.969Z</time></trkpt><trkpt lat="45.91050609054425" lon="10.92534255305304"><ele>648.6</ele><time>2026-05-03T09:47:08.969Z</time></trkpt><trkpt lat="45.91059387267608" lon="10.925292664615336"><ele>650.0</ele><time>2026-05-03T09:47:09.969Z</time></trkpt><trkpt lat="45.910686298006034" lon="10.925208684257658"><ele>650.0</ele><time>2026-05-03T09:47:10.969Z</time></trkpt><trkpt lat="45.91077758143796" lon="10.925149228334107"><ele>650.0</ele><time>2026-05-03T09:47:11.969Z</time></trkpt><trkpt lat="45.91086760301836" lon="10.925104449834558"><ele>650.0</ele><time>2026-05-03T09:47:12.969Z</time></trkpt><trkpt lat="45.91093609396614" lon="10.925174379023357"><ele>650.0</ele><time>2026-05-03T09:47:13.969Z</time></trkpt><trkpt lat="45.91104800901471" lon="10.925248643503638"><ele>650.0</ele><time>2026-05-03T09:47:14.969Z</time></trkpt><trkpt lat="45.911186073624144" lon="10.925251150767041"><ele>652.25</ele><time>2026-05-03T09:47:15.969Z</time></trkpt><trkpt lat="45.91132690935142" lon="10.925151235331398"><ele>654.5</ele><time>2026-05-03T09:47:16.969Z</time></trkpt><trkpt lat="45.9114123964569" lon="10.924993844776425"><ele>656.75</ele><time>2026-05-03T09:47:17.969Z</time></trkpt><trkpt lat="45.911492129068115" lon="10.924828660800346"><ele>659.0</ele><time>2026-05-03T09:47:18.969Z</time></trkpt><trkpt lat="45.91155016061077" lon="10.924647574369295"><ele>654.4000000000001</ele><time>2026-05-03T09:47:19.969Z</time></trkpt><trkpt lat="45.911601836034365" lon="10.924486609735997"><ele>649.8000000000001</ele><time>2026-05-03T09:47:20.969Z</time></trkpt><trkpt lat="45.911641485512106" lon="10.924405453666408"><ele>645.2</ele><time>2026-05-03T09:47:21.969Z</time></trkpt><trkpt lat="45.911694884552574" lon="10.924344051745217"><ele>640.6</ele><time>2026-05-03T09:47:22.969Z</time></trkpt><trkpt lat="45.911775721778504" lon="10.924277232618037"><ele>636.0</ele><time>2026-05-03T09:47:23.969Z</time></trkpt><trkpt lat="45.91187560307301" lon="10.924172774153051"><ele>628.0</ele><time>2026-05-03T09:47:24.969Z</time></trkpt><trkpt lat="45.91196848146808" lon="10.924115032890658"><ele>620.0</ele><time>2026-05-03T09:47:25.969Z</time></trkpt><trkpt lat="45.91204437518588" lon="10.924030640021288"><ele>612.0</ele><time>2026-05-03T09:47:26.969Z</time></trkpt><trkpt lat="45.91216156864263" lon="10.923997483604223"><ele>604.0</ele><time>2026-05-03T09:47:27.969Z</time></trkpt><trkpt lat="45.91228069525923" lon="10.924121008330774"><ele>604.0</ele><time>2026-05-03T09:47:28.968Z</time></trkpt><trkpt lat="45.91240517326559" lon="10.924216864151276"><ele>604.0</ele><time>2026-05-03T09:47:29.968Z</time></trkpt><trkpt lat="45.912533884786285" lon="10.924303879695335"><ele>604.0</ele><time>2026-05-03T09:47:30.968Z</time></trkpt><trkpt lat="45.912457867365255" lon="10.924062943158054"><ele>604.75</ele><time>2026-05-03T09:47:31.968Z</time></trkpt><trkpt lat="45.912584734801804" lon="10.924066408332042"><ele>605.5</ele><time>2026-05-03T09:47:32.968Z</time></trkpt><trkpt lat="45.91271237671012" lon="10.924024968462255"><ele>606.25</ele><time>2026-05-03T09:47:33.968Z</time></trkpt><trkpt lat="45.91282418559913" lon="10.923973765847563"><ele>607.0</ele><time>2026-05-03T09:47:34.968Z</time></trkpt><trkpt lat="45.91294264671692" lon="10.923886848866763"><ele>607.0</ele><time>2026-05-03T09:47:35.968Z</time></trkpt><trkpt lat="45.91306690822254" lon="10.923821411324843"><ele>607.0</ele><time>2026-05-03T09:47:36.968Z</time></trkpt><trkpt lat="45.91319844720978" lon="10.923762294018701"><ele>607.0</ele><time>2026-05-03T09:47:37.968Z</time></trkpt><trkpt lat="45.91332117365138" lon="10.923733073944527"><ele>607.0</ele><time>2026-05-03T09:47:38.968Z</time></trkpt><trkpt lat="45.913445711493075" lon="10.923703608454126"><ele>605.2</ele><time>2026-05-03T09:47:39.968Z</time></trkpt><trkpt lat="45.91355236072448" lon="10.923678176599"><ele>603.4000000000001</ele><time>2026-05-03T09:47:40.968Z</time></trkpt><trkpt lat="45.91364467440536" lon="10.923670018019266"><ele>601.5999999999999</ele><time>2026-05-03T09:47:41.968Z</time></trkpt><trkpt lat="45.91373229349784" lon="10.923688445025965"><ele>599.8</ele><time>2026-05-03T09:47:42.968Z</time></trkpt><trkpt lat="45.91383154529142" lon="10.923720121684944"><ele>598.0</ele><time>2026-05-03T09:47:43.968Z</time></trkpt><trkpt lat="45.91397470922395" lon="10.923772545871572"><ele>598.0</ele><time>2026-05-03T09:47:44.968Z</time></trkpt><trkpt lat="45.91410445109401" lon="10.923819396498846"><ele>598.0</ele><time>2026-05-03T09:47:45.968Z</time></trkpt><trkpt lat="45.914231825157344" lon="10.923838866378324"><ele>598.0</ele><time>2026-05-03T09:47:46.968Z</time></trkpt><trkpt lat="45.91433962190464" lon="10.923866700514248"><ele>598.0</ele><time>2026-05-03T09:47:47.968Z</time></trkpt><trkpt lat="45.91445322629012" lon="10.92381839259485"><ele>595.4</ele><time>2026-05-03T09:47:48.968Z</time></trkpt><trkpt lat="45.91457687006296" lon="10.9237680705727"><ele>592.8</ele><time>2026-05-03T09:47:49.968Z</time></trkpt><trkpt lat="45.91466516491009" lon="10.92370149069993"><ele>590.2</ele><time>2026-05-03T09:47:50.968Z</time></trkpt><trkpt lat="45.91473283583555" lon="10.92365152446666"><ele>587.6</ele><time>2026-05-03T09:47:51.968Z</time></trkpt><trkpt lat="45.91480148768494" lon="10.923515908994327"><ele>585.0</ele><time>2026-05-03T09:47:53.968Z</time></trkpt><trkpt lat="45.91471924387227" lon="10.9233861166"><ele>585.0</ele><time>2026-05-03T09:47:54.968Z</time></trkpt><trkpt lat="45.91462382453215" lon="10.923355703184404"><ele>585.0</ele><time>2026-05-03T09:47:55.968Z</time></trkpt><trkpt lat="45.91449419460441" lon="10.923446730361146"><ele>585.0</ele><time>2026-05-03T09:47:56.968Z</time></trkpt><trkpt lat="45.91441797473558" lon="10.92354268328715"><ele>585.0</ele><time>2026-05-03T09:47:57.968Z</time></trkpt><trkpt lat="45.914366432650716" lon="10.923620879418625"><ele>585.0</ele><time>2026-05-03T09:47:58.968Z</time></trkpt><trkpt lat="45.914247909497156" lon="10.923589668643883"><ele>587.6</ele><time>2026-05-03T09:48:00.968Z</time></trkpt><trkpt lat="45.91416509354797" lon="10.923501514080582"><ele>590.2</ele><time>2026-05-03T09:48:01.968Z</time></trkpt><trkpt lat="45.914066130856234" lon="10.923400690417521"><ele>592.8</ele><time>2026-05-03T09:48:02.968Z</time></trkpt><trkpt lat="45.913986946604375" lon="10.923308753181166"><ele>595.4</ele><time>2026-05-03T09:48:03.968Z</time></trkpt><trkpt lat="45.91392875320243" lon="10.923253185421691"><ele>598.0</ele><time>2026-05-03T09:48:04.968Z</time></trkpt><trkpt lat="45.91386222740362" lon="10.92323783758107"><ele>590.5</ele><time>2026-05-03T09:48:05.969Z</time></trkpt><trkpt lat="45.91376323580392" lon="10.923305264834115"><ele>583.0</ele><time>2026-05-03T09:48:06.969Z</time></trkpt><trkpt lat="45.913639505871394" lon="10.92335146284297"><ele>575.5</ele><time>2026-05-03T09:48:07.969Z</time></trkpt><trkpt lat="45.91351477532512" lon="10.923343325165071"><ele>568.0</ele><time>2026-05-03T09:48:08.969Z</time></trkpt><trkpt lat="45.91339347482041" lon="10.923331872922532"><ele>567.8333333333334</ele><time>2026-05-03T09:48:09.969Z</time></trkpt><trkpt lat="45.913284359413595" lon="10.923295121991474"><ele>567.6666666666667</ele><time>2026-05-03T09:48:10.969Z</time></trkpt><trkpt lat="45.91320180864671" lon="10.923264377777349"><ele>567.5</ele><time>2026-05-03T09:48:11.969Z</time></trkpt><trkpt lat="45.91311447768502" lon="10.923254928942049"><ele>567.3333333333334</ele><time>2026-05-03T09:48:12.969Z</time></trkpt><trkpt lat="45.913045922476" lon="10.923218001459913"><ele>567.1666666666666</ele><time>2026-05-03T09:48:13.969Z</time></trkpt><trkpt lat="45.91297447580161" lon="10.92320599123605"><ele>567.0</ele><time>2026-05-03T09:48:14.969Z</time></trkpt><trkpt lat="45.91290360826653" lon="10.923131776081824"><ele>567.0</ele><time>2026-05-03T09:48:15.969Z</time></trkpt><trkpt lat="45.9128222885476" lon="10.923110177843089"><ele>567.0</ele><time>2026-05-03T09:48:16.969Z</time></trkpt><trkpt lat="45.91274516193888" lon="10.923095217604741"><ele>567.0</ele><time>2026-05-03T09:48:17.969Z</time></trkpt><trkpt lat="45.912675441930666" lon="10.923075325521795"><ele>567.0</ele><time>2026-05-03T09:48:18.969Z</time></trkpt><trkpt lat="45.912600985515255" lon="10.923072852673572"><ele>567.0</ele><time>2026-05-03T09:48:19.969Z</time></trkpt><trkpt lat="45.91250492244043" lon="10.923074235248857"><ele>567.0</ele><time>2026-05-03T09:48:20.969Z</time></trkpt><trkpt lat="45.91240366295925" lon="10.923074934613778"><ele>567.4</ele><time>2026-05-03T09:48:21.969Z</time></trkpt><trkpt lat="45.91231176638524" lon="10.923069093009959"><ele>567.8000000000001</ele><time>2026-05-03T09:48:22.969Z</time></trkpt><trkpt lat="45.91221803466817" lon="10.923055554169546"><ele>568.2</ele><time>2026-05-03T09:48:23.969Z</time></trkpt><trkpt lat="45.912119956617055" lon="10.9230210904093"><ele>568.6</ele><time>2026-05-03T09:48:24.969Z</time></trkpt><trkpt lat="45.9120292332414" lon="10.922969355681163"><ele>569.0</ele><time>2026-05-03T09:48:25.968Z</time></trkpt><trkpt lat="45.91194638132" lon="10.922918989180909"><ele>569.0</ele><time>2026-05-03T09:48:26.968Z</time></trkpt><trkpt lat="45.91186643443935" lon="10.922858936225019"><ele>569.0</ele><time>2026-05-03T09:48:27.968Z</time></trkpt><trkpt lat="45.91180805727425" lon="10.922780885127512"><ele>569.0</ele><time>2026-05-03T09:48:28.968Z</time></trkpt><trkpt lat="45.91174273927884" lon="10.922675689305247"><ele>569.0</ele><time>2026-05-03T09:48:29.968Z</time></trkpt><trkpt lat="45.911686447939786" lon="10.922576682345749"><ele>569.0</ele><time>2026-05-03T09:48:30.968Z</time></trkpt><trkpt lat="45.911632717499884" lon="10.922497422942316"><ele>569.0</ele><time>2026-05-03T09:48:31.968Z</time></trkpt><trkpt lat="45.911544561585956" lon="10.922451389511616"><ele>562.5</ele><time>2026-05-03T09:48:32.968Z</time></trkpt><trkpt lat="45.911452243101316" lon="10.922488642392112"><ele>556.0</ele><time>2026-05-03T09:48:33.968Z</time></trkpt><trkpt lat="45.91138608814885" lon="10.92244357319328"><ele>549.5</ele><time>2026-05-03T09:48:36.968Z</time></trkpt><trkpt lat="45.9114356677557" lon="10.922383378165447"><ele>543.0</ele><time>2026-05-03T09:48:37.968Z</time></trkpt><trkpt lat="45.91151163184967" lon="10.922367589125614"><ele>536.5</ele><time>2026-05-03T09:48:38.968Z</time></trkpt><trkpt lat="45.91160362298523" lon="10.92239556236497"><ele>530.0</ele><time>2026-05-03T09:48:39.968Z</time></trkpt><trkpt lat="45.911684741015655" lon="10.922443245379373"><ele>527.3333333333333</ele><time>2026-05-03T09:48:40.968Z</time></trkpt><trkpt lat="45.91174460329834" lon="10.922521688889594"><ele>524.6666666666666</ele><time>2026-05-03T09:48:41.968Z</time></trkpt><trkpt lat="45.91182532287325" lon="10.922567009419677"><ele>522.0</ele><time>2026-05-03T09:48:42.968Z</time></trkpt><trkpt lat="45.91191119002856" lon="10.922621157243931"><ele>519.3333333333334</ele><time>2026-05-03T09:48:43.968Z</time></trkpt><trkpt lat="45.91197749373097" lon="10.922645530674517"><ele>516.6666666666667</ele><time>2026-05-03T09:48:44.968Z</time></trkpt><trkpt lat="45.91206132290175" lon="10.922651831981675"><ele>514.0</ele><time>2026-05-03T09:48:45.968Z</time></trkpt><trkpt lat="45.9121416665333" lon="10.922654012694224"><ele>524.6</ele><time>2026-05-03T09:48:46.968Z</time></trkpt><trkpt lat="45.91222416198348" lon="10.922662024398845"><ele>535.2</ele><time>2026-05-03T09:48:47.968Z</time></trkpt><trkpt lat="45.91231504186089" lon="10.922671045047016"><ele>545.8000000000001</ele><time>2026-05-03T09:48:48.968Z</time></trkpt><trkpt lat="45.91240451461995" lon="10.922683258722982"><ele>556.4</ele><time>2026-05-03T09:48:49.968Z</time></trkpt><trkpt lat="45.9125067642985" lon="10.922672990219478"><ele>567.0</ele><time>2026-05-03T09:48:50.968Z</time></trkpt><trkpt lat="45.912602419521654" lon="10.922669228033756"><ele>567.0</ele><time>2026-05-03T09:48:51.968Z</time></trkpt><trkpt lat="45.912696517056645" lon="10.922638373576815"><ele>567.0</ele><time>2026-05-03T09:48:52.968Z</time></trkpt><trkpt lat="45.912782484408176" lon="10.922576118368795"><ele>567.0</ele><time>2026-05-03T09:48:53.968Z</time></trkpt><trkpt lat="45.912881883828035" lon="10.922581888683393"><ele>567.0</ele><time>2026-05-03T09:48:54.968Z</time></trkpt><trkpt lat="45.91296538950186" lon="10.922602114091774"><ele>567.0</ele><time>2026-05-03T09:48:55.968Z</time></trkpt><trkpt lat="45.913066644636345" lon="10.922621642162202"><ele>567.0</ele><time>2026-05-03T09:48:56.968Z</time></trkpt><trkpt lat="45.913198956068705" lon="10.922601018024855"><ele>567.0</ele><time>2026-05-03T09:48:57.968Z</time></trkpt><trkpt lat="45.91333253224366" lon="10.922533607232555"><ele>567.0</ele><time>2026-05-03T09:48:58.968Z</time></trkpt><trkpt lat="45.913441320738805" lon="10.922475829422929"><ele>567.0</ele><time>2026-05-03T09:48:59.968Z</time></trkpt><trkpt lat="45.91355693009313" lon="10.92241256807248"><ele>557.25</ele><time>2026-05-03T09:49:00.968Z</time></trkpt><trkpt lat="45.91366016961685" lon="10.922294135111779"><ele>547.5</ele><time>2026-05-03T09:49:01.968Z</time></trkpt><trkpt lat="45.91375009172783" lon="10.922170477672704"><ele>537.75</ele><time>2026-05-03T09:49:02.968Z</time></trkpt><trkpt lat="45.91383864084051" lon="10.922077907160011"><ele>528.0</ele><time>2026-05-03T09:49:03.968Z</time></trkpt><trkpt lat="45.91392943847378" lon="10.922016450693302"><ele>528.0</ele><time>2026-05-03T09:49:04.968Z</time></trkpt><trkpt lat="45.91402190549824" lon="10.92197788497813"><ele>528.0</ele><time>2026-05-03T09:49:05.968Z</time></trkpt><trkpt lat="45.91413505265783" lon="10.92192051589948"><ele>528.0</ele><time>2026-05-03T09:49:06.968Z</time></trkpt><trkpt lat="45.91421913079137" lon="10.921847326485429"><ele>528.0</ele><time>2026-05-03T09:49:07.968Z</time></trkpt><trkpt lat="45.91425925508685" lon="10.921676908481995"><ele>528.0</ele><time>2026-05-03T09:49:08.968Z</time></trkpt><trkpt lat="45.91432221454099" lon="10.92158886434022"><ele>519.0</ele><time>2026-05-03T09:49:09.968Z</time></trkpt><trkpt lat="45.91438131844284" lon="10.921480541263286"><ele>509.99999999999994</ele><time>2026-05-03T09:49:10.968Z</time></trkpt><trkpt lat="45.914401935722246" lon="10.921365937757987"><ele>500.99999999999994</ele><time>2026-05-03T09:49:11.968Z</time></trkpt><trkpt lat="45.914441266430636" lon="10.921227630062381"><ele>492.0</ele><time>2026-05-03T09:49:13.968Z</time></trkpt><trkpt lat="45.91451503688318" lon="10.921175858206357"><ele>483.0</ele><time>2026-05-03T09:49:15.968Z</time></trkpt><trkpt lat="45.914625524221165" lon="10.921263104400328"><ele>483.0</ele><time>2026-05-03T09:49:17.968Z</time></trkpt><trkpt lat="45.9147231718989" lon="10.921360340867281"><ele>482.99999999999994</ele><time>2026-05-03T09:49:18.968Z</time></trkpt><trkpt lat="45.91482570709728" lon="10.921460448520387"><ele>482.99999999999994</ele><time>2026-05-03T09:49:19.968Z</time></trkpt><trkpt lat="45.91490825636765" lon="10.921548778016163"><ele>483.0</ele><time>2026-05-03T09:49:20.968Z</time></trkpt><trkpt lat="45.91496582430508" lon="10.921647998500996"><ele>483.0</ele><time>2026-05-03T09:49:21.968Z</time></trkpt><trkpt lat="45.9150441058263" lon="10.92175857289889"><ele>481.79999999999995</ele><time>2026-05-03T09:49:22.968Z</time></trkpt><trkpt lat="45.915138105076984" lon="10.921847094465242"><ele>480.59999999999997</ele><time>2026-05-03T09:49:23.968Z</time></trkpt><trkpt lat="45.91521224992964" lon="10.921896932408805"><ele>479.40000000000003</ele><time>2026-05-03T09:49:24.968Z</time></trkpt><trkpt lat="45.91529272240429" lon="10.92193060101347"><ele>478.20000000000005</ele><time>2026-05-03T09:49:25.968Z</time></trkpt><trkpt lat="45.9153635020065" lon="10.92201354561008"><ele>477.0</ele><time>2026-05-03T09:49:26.968Z</time></trkpt><trkpt lat="45.9154678217678" lon="10.922100276774586"><ele>477.0</ele><time>2026-05-03T09:49:27.968Z</time></trkpt><trkpt lat="45.915554108591095" lon="10.922147580976546"><ele>477.0</ele><time>2026-05-03T09:49:28.968Z</time></trkpt><trkpt lat="45.91564646584327" lon="10.92222719292044"><ele>477.0</ele><time>2026-05-03T09:49:29.968Z</time></trkpt><trkpt lat="45.91573448066056" lon="10.92234148207275"><ele>477.0</ele><time>2026-05-03T09:49:30.968Z</time></trkpt><trkpt lat="45.915842127062014" lon="10.922461629868387"><ele>475.75</ele><time>2026-05-03T09:49:31.968Z</time></trkpt><trkpt lat="45.915974146494925" lon="10.92255814132747"><ele>474.5</ele><time>2026-05-03T09:49:32.968Z</time></trkpt><trkpt lat="45.916083144974294" lon="10.922642251120296"><ele>473.25</ele><time>2026-05-03T09:49:33.968Z</time></trkpt><trkpt lat="45.91617965412015" lon="10.92273419043669"><ele>472.0</ele><time>2026-05-03T09:49:34.968Z</time></trkpt><trkpt lat="45.916272288989305" lon="10.922789010696306"><ele>472.00000000000006</ele><time>2026-05-03T09:49:35.968Z</time></trkpt><trkpt lat="45.91635919058561" lon="10.922874483291194"><ele>472.0</ele><time>2026-05-03T09:49:36.968Z</time></trkpt><trkpt lat="45.916426587989925" lon="10.922930786883686"><ele>472.0</ele><time>2026-05-03T09:49:37.968Z</time></trkpt><trkpt lat="45.91649635110868" lon="10.922995722314761"><ele>472.0</ele><time>2026-05-03T09:49:38.968Z</time></trkpt><trkpt lat="45.9165566002354" lon="10.923058581499008"><ele>472.00000000000006</ele><time>2026-05-03T09:49:39.968Z</time></trkpt><trkpt lat="45.91663233535851" lon="10.92308626460087"><ele>472.0</ele><time>2026-05-03T09:49:40.968Z</time></trkpt><trkpt lat="45.91674230332394" lon="10.922981129701776"><ele>472.0</ele><time>2026-05-03T09:49:42.968Z</time></trkpt><trkpt lat="45.91674817893266" lon="10.922870423597397"><ele>472.00000000000006</ele><time>2026-05-03T09:49:43.968Z</time></trkpt><trkpt lat="45.91669392452833" lon="10.922769154349606"><ele>472.00000000000006</ele><time>2026-05-03T09:49:44.968Z</time></trkpt><trkpt lat="45.916559631652646" lon="10.922692325523872"><ele>472.0</ele><time>2026-05-03T09:49:45.968Z</time></trkpt><trkpt lat="45.916458705919155" lon="10.922565764764105"><ele>472.0</ele><time>2026-05-03T09:49:46.968Z</time></trkpt><trkpt lat="45.91636399087054" lon="10.92240868061101"><ele>468.0</ele><time>2026-05-03T09:49:47.968Z</time></trkpt><trkpt lat="45.91626779075568" lon="10.922248135394295"><ele>464.0</ele><time>2026-05-03T09:49:48.968Z</time></trkpt><trkpt lat="45.91617408780295" lon="10.922090921185623"><ele>460.0</ele><time>2026-05-03T09:49:49.968Z</time></trkpt><trkpt lat="45.916088912396845" lon="10.921938434519168"><ele>456.0</ele><time>2026-05-03T09:49:50.968Z</time></trkpt><trkpt lat="45.9160100537694" lon="10.9217765267378"><ele>455.0</ele><time>2026-05-03T09:49:51.968Z</time></trkpt><trkpt lat="45.915935757736555" lon="10.92160687740102"><ele>454.0</ele><time>2026-05-03T09:49:52.968Z</time></trkpt><trkpt lat="45.91585925607319" lon="10.92142649264874"><ele>453.0</ele><time>2026-05-03T09:49:53.968Z</time></trkpt><trkpt lat="45.91577805600708" lon="10.921235029731676"><ele>452.0</ele><time>2026-05-03T09:49:54.968Z</time></trkpt><trkpt lat="45.9156912477571" lon="10.921030343086555"><ele>447.0</ele><time>2026-05-03T09:49:55.968Z</time></trkpt><trkpt lat="45.91561272533798" lon="10.92084734553616"><ele>442.0</ele><time>2026-05-03T09:49:56.968Z</time></trkpt><trkpt lat="45.915535893110565" lon="10.920670560673049"><ele>437.0</ele><time>2026-05-03T09:49:57.968Z</time></trkpt><trkpt lat="45.91546294725078" lon="10.920498981737875"><ele>432.0</ele><time>2026-05-03T09:49:58.968Z</time></trkpt><trkpt lat="45.91537487483251" lon="10.920331878102298"><ele>432.0</ele><time>2026-05-03T09:49:59.968Z</time></trkpt><trkpt lat="45.91527015706483" lon="10.92017157389985"><ele>432.0</ele><time>2026-05-03T09:50:00.968Z</time></trkpt><trkpt lat="45.91513759302994" lon="10.92003090379942"><ele>432.0</ele><time>2026-05-03T09:50:01.968Z</time></trkpt><trkpt lat="45.91501585132919" lon="10.919913376588713"><ele>431.25</ele><time>2026-05-03T09:50:02.968Z</time></trkpt><trkpt lat="45.91490306722822" lon="10.91981196868307"><ele>430.5</ele><time>2026-05-03T09:50:03.968Z</time></trkpt><trkpt lat="45.91477062330075" lon="10.919731148044194"><ele>429.75</ele><time>2026-05-03T09:50:04.967Z</time></trkpt><trkpt lat="45.914655432966086" lon="10.919719594153426"><ele>429.0</ele><time>2026-05-03T09:50:05.967Z</time></trkpt><trkpt lat="45.91451100696265" lon="10.919728590349541"><ele>429.0</ele><time>2026-05-03T09:50:06.967Z</time></trkpt><trkpt lat="45.91434677004363" lon="10.919769555695341"><ele>429.0</ele><time>2026-05-03T09:50:07.967Z</time></trkpt><trkpt lat="45.91420241445154" lon="10.91976336369618"><ele>429.0</ele><time>2026-05-03T09:50:08.967Z</time></trkpt><trkpt lat="45.91406907920159" lon="10.919796048721413"><ele>429.0</ele><time>2026-05-03T09:50:09.967Z</time></trkpt><trkpt lat="45.913940978442554" lon="10.919871086507829"><ele>427.79999999999995</ele><time>2026-05-03T09:50:10.969Z</time></trkpt><trkpt lat="45.91382893138379" lon="10.919947532377266"><ele>426.59999999999997</ele><time>2026-05-03T09:50:11.968Z</time></trkpt><trkpt lat="45.913728187891415" lon="10.920003822850177"><ele>425.4</ele><time>2026-05-03T09:50:12.968Z</time></trkpt><trkpt lat="45.913629361619854" lon="10.920005899908341"><ele>424.2</ele><time>2026-05-03T09:50:13.968Z</time></trkpt><trkpt lat="45.913529759831" lon="10.91996610181745"><ele>423.0</ele><time>2026-05-03T09:50:14.969Z</time></trkpt><trkpt lat="45.913421271230646" lon="10.91988152653469"><ele>420.0</ele><time>2026-05-03T09:50:15.969Z</time></trkpt><trkpt lat="45.91327985365696" lon="10.919791175123724"><ele>417.0</ele><time>2026-05-03T09:50:16.969Z</time></trkpt><trkpt lat="45.91313149992935" lon="10.91975827746827"><ele>414.0</ele><time>2026-05-03T09:50:17.969Z</time></trkpt><trkpt lat="45.913011618188385" lon="10.919731009377353"><ele>411.0</ele><time>2026-05-03T09:50:18.969Z</time></trkpt><trkpt lat="45.91290573950098" lon="10.919682624298305"><ele>411.0</ele><time>2026-05-03T09:50:19.968Z</time></trkpt><trkpt lat="45.91281660598382" lon="10.919609316408975"><ele>411.0</ele><time>2026-05-03T09:50:20.968Z</time></trkpt><trkpt lat="45.912713155247005" lon="10.919497163030641"><ele>411.0</ele><time>2026-05-03T09:50:21.968Z</time></trkpt><trkpt lat="45.91260555135519" lon="10.919425510773129"><ele>411.0</ele><time>2026-05-03T09:50:22.968Z</time></trkpt><trkpt lat="45.91249178424665" lon="10.919400586758835"><ele>411.6</ele><time>2026-05-03T09:50:23.969Z</time></trkpt><trkpt lat="45.912380564884785" lon="10.919378466551859"><ele>412.20000000000005</ele><time>2026-05-03T09:50:24.969Z</time></trkpt><trkpt lat="45.91226981489624" lon="10.919356439655239"><ele>412.79999999999995</ele><time>2026-05-03T09:50:25.969Z</time></trkpt><trkpt lat="45.91215631567258" lon="10.919332415979012"><ele>413.4</ele><time>2026-05-03T09:50:26.969Z</time></trkpt><trkpt lat="45.91207221808613" lon="10.919310348757158"><ele>414.0</ele><time>2026-05-03T09:50:27.969Z</time></trkpt><trkpt lat="45.91200730667323" lon="10.919255231181866"><ele>414.0</ele><time>2026-05-03T09:50:29.969Z</time></trkpt><trkpt lat="45.91205159812909" lon="10.91917374995889"><ele>414.0</ele><time>2026-05-03T09:50:31.969Z</time></trkpt><trkpt lat="45.91214092848679" lon="10.919196876617168"><ele>414.0</ele><time>2026-05-03T09:50:32.969Z</time></trkpt><trkpt lat="45.9122494516487" lon="10.919245862652899"><ele>414.0</ele><time>2026-05-03T09:50:33.969Z</time></trkpt><trkpt lat="45.91237594321138" lon="10.9192464048028"><ele>414.0</ele><time>2026-05-03T09:50:34.969Z</time></trkpt><trkpt lat="45.91252045229355" lon="10.919202484752304"><ele>406.0</ele><time>2026-05-03T09:50:35.969Z</time></trkpt><trkpt lat="45.912634798379024" lon="10.919163431422735"><ele>398.0</ele><time>2026-05-03T09:50:36.969Z</time></trkpt><trkpt lat="45.912727872572034" lon="10.91913757505571"><ele>390.0</ele><time>2026-05-03T09:50:37.969Z</time></trkpt><trkpt lat="45.9128379876481" lon="10.919118062113226"><ele>382.0</ele><time>2026-05-03T09:50:38.969Z</time></trkpt><trkpt lat="45.91297159056737" lon="10.919103062875388"><ele>382.0</ele><time>2026-05-03T09:50:39.969Z</time></trkpt><trkpt lat="45.91313004491632" lon="10.919087824655355"><ele>382.0</ele><time>2026-05-03T09:50:40.969Z</time></trkpt><trkpt lat="45.91328047562599" lon="10.919082643618584"><ele>382.0</ele><time>2026-05-03T09:50:41.969Z</time></trkpt><trkpt lat="45.91342795772403" lon="10.919071132628662"><ele>384.75</ele><time>2026-05-03T09:50:42.969Z</time></trkpt><trkpt lat="45.913563159965605" lon="10.919028681593643"><ele>387.5</ele><time>2026-05-03T09:50:43.969Z</time></trkpt><trkpt lat="45.91368260943527" lon="10.918952656343059"><ele>390.25</ele><time>2026-05-03T09:50:44.969Z</time></trkpt><trkpt lat="45.913788278380956" lon="10.91884951894049"><ele>393.0</ele><time>2026-05-03T09:50:45.969Z</time></trkpt><trkpt lat="45.913869070431595" lon="10.918766886779668"><ele>393.0</ele><time>2026-05-03T09:50:46.969Z</time></trkpt><trkpt lat="45.9139466736171" lon="10.918706113445408"><ele>393.0</ele><time>2026-05-03T09:50:47.969Z</time></trkpt><trkpt lat="45.91398410650477" lon="10.918614395113698"><ele>393.0</ele><time>2026-05-03T09:50:48.969Z</time></trkpt><trkpt lat="45.914026559385256" lon="10.918529062682747"><ele>393.0</ele><time>2026-05-03T09:50:49.969Z</time></trkpt><trkpt lat="45.91399655631504" lon="10.91844188539993"><ele>393.0</ele><time>2026-05-03T09:50:50.969Z</time></trkpt><trkpt lat="45.91389380557586" lon="10.918427730322989"><ele>393.0</ele><time>2026-05-03T09:50:52.969Z</time></trkpt><trkpt lat="45.913827480045846" lon="10.91849587191202"><ele>393.0</ele><time>2026-05-03T09:50:53.969Z</time></trkpt><trkpt lat="45.913763664368815" lon="10.918590847340184"><ele>393.0</ele><time>2026-05-03T09:50:54.969Z</time></trkpt><trkpt lat="45.91365667358162" lon="10.918633303798579"><ele>393.0</ele><time>2026-05-03T09:50:55.969Z</time></trkpt><trkpt lat="45.913543226799604" lon="10.918642218355764"><ele>393.0</ele><time>2026-05-03T09:50:56.969Z</time></trkpt><trkpt lat="45.91341987520619" lon="10.91861488033333"><ele>393.0</ele><time>2026-05-03T09:50:57.969Z</time></trkpt><trkpt lat="45.913303011370616" lon="10.918537007868363"><ele>390.25</ele><time>2026-05-03T09:50:58.969Z</time></trkpt><trkpt lat="45.91317608067094" lon="10.918439353269966"><ele>387.5</ele><time>2026-05-03T09:50:59.969Z</time></trkpt><trkpt lat="45.91304674607261" lon="10.918357835327994"><ele>384.75</ele><time>2026-05-03T09:51:00.969Z</time></trkpt><trkpt lat="45.912929096681665" lon="10.91829065930175"><ele>382.0</ele><time>2026-05-03T09:51:01.969Z</time></trkpt><trkpt lat="45.91281712949695" lon="10.918231956706975"><ele>377.8</ele><time>2026-05-03T09:51:02.969Z</time></trkpt><trkpt lat="45.91270292859111" lon="10.918157184699439"><ele>373.6</ele><time>2026-05-03T09:51:03.969Z</time></trkpt><trkpt lat="45.91260691152782" lon="10.918055409983355"><ele>369.40000000000003</ele><time>2026-05-03T09:51:04.969Z</time></trkpt><trkpt lat="45.912520630013574" lon="10.91795150898691"><ele>365.20000000000005</ele><time>2026-05-03T09:51:05.969Z</time></trkpt><trkpt lat="45.91244690824805" lon="10.917874576736667"><ele>361.0</ele><time>2026-05-03T09:51:06.969Z</time></trkpt><trkpt lat="45.91235741906767" lon="10.917843561573271"><ele>361.0</ele><time>2026-05-03T09:51:07.969Z</time></trkpt><trkpt lat="45.91226588918812" lon="10.917861743969048"><ele>361.0</ele><time>2026-05-03T09:51:08.969Z</time></trkpt><trkpt lat="45.91217666815356" lon="10.917902238139138"><ele>361.0</ele><time>2026-05-03T09:51:09.969Z</time></trkpt><trkpt lat="45.91211394390536" lon="10.917924198046071"><ele>361.0</ele><time>2026-05-03T09:51:10.969Z</time></trkpt><trkpt lat="45.91206274316685" lon="10.91776971274535"><ele>361.0</ele><time>2026-05-03T09:51:12.969Z</time></trkpt><trkpt lat="45.91211162120917" lon="10.91767349178673"><ele>361.0</ele><time>2026-05-03T09:51:13.969Z</time></trkpt><trkpt lat="45.912203612521786" lon="10.917617842794376"><ele>361.0</ele><time>2026-05-03T09:51:14.968Z</time></trkpt><trkpt lat="45.91231356323927" lon="10.91756883478057"><ele>361.0</ele><time>2026-05-03T09:51:15.968Z</time></trkpt><trkpt lat="45.91240063819278" lon="10.917506886520432"><ele>361.0</ele><time>2026-05-03T09:51:16.968Z</time></trkpt><trkpt lat="45.91247194108907" lon="10.917472545938399"><ele>361.0</ele><time>2026-05-03T09:51:17.968Z</time></trkpt><trkpt lat="45.912522837767646" lon="10.917416848199489"><ele>357.8333333333333</ele><time>2026-05-03T09:51:18.968Z</time></trkpt><trkpt lat="45.91254506352252" lon="10.917323600010592"><ele>354.66666666666663</ele><time>2026-05-03T09:51:19.968Z</time></trkpt><trkpt lat="45.912524207363504" lon="10.917210391339061"><ele>351.5</ele><time>2026-05-03T09:51:20.968Z</time></trkpt><trkpt lat="45.91246466926581" lon="10.917170737608481"><ele>348.3333333333333</ele><time>2026-05-03T09:51:21.968Z</time></trkpt><trkpt lat="45.91237653498608" lon="10.917129503151152"><ele>345.1666666666667</ele><time>2026-05-03T09:51:22.968Z</time></trkpt><trkpt lat="45.91226565793534" lon="10.91714521190935"><ele>342.0</ele><time>2026-05-03T09:51:23.968Z</time></trkpt><trkpt lat="45.912139007739064" lon="10.917160075359513"><ele>342.0</ele><time>2026-05-03T09:51:24.968Z</time></trkpt><trkpt lat="45.91200028801513" lon="10.917165353407036"><ele>342.0</ele><time>2026-05-03T09:51:25.968Z</time></trkpt><trkpt lat="45.91187048295608" lon="10.917163590013274"><ele>342.0</ele><time>2026-05-03T09:51:26.968Z</time></trkpt><trkpt lat="45.91174450592637" lon="10.917161878622343"><ele>342.0</ele><time>2026-05-03T09:51:27.968Z</time></trkpt><trkpt lat="45.91163329232708" lon="10.91716040284241"><ele>342.5</ele><time>2026-05-03T09:51:28.968Z</time></trkpt><trkpt lat="45.91154556382812" lon="10.917159433051578"><ele>343.0</ele><time>2026-05-03T09:51:29.968Z</time></trkpt><trkpt lat="45.91147916769658" lon="10.917160275872549"><ele>343.5</ele><time>2026-05-03T09:51:30.968Z</time></trkpt><trkpt lat="45.911402556699194" lon="10.917041159030084"><ele>344.0</ele><time>2026-05-03T09:51:32.968Z</time></trkpt><trkpt lat="45.911429406564146" lon="10.916950897679332"><ele>344.5</ele><time>2026-05-03T09:51:33.968Z</time></trkpt><trkpt lat="45.911505314621735" lon="10.916904713236711"><ele>345.0</ele><time>2026-05-03T09:51:34.968Z</time></trkpt><trkpt lat="45.91160097854568" lon="10.916960168713693"><ele>345.0</ele><time>2026-05-03T09:51:35.968Z</time></trkpt><trkpt lat="45.9116878737308" lon="10.916940877831275"><ele>345.0</ele><time>2026-05-03T09:51:36.968Z</time></trkpt><trkpt lat="45.911765555154176" lon="10.916892107699251"><ele>345.0</ele><time>2026-05-03T09:51:37.968Z</time></trkpt><trkpt lat="45.91181631092202" lon="10.916798570930023"><ele>345.0</ele><time>2026-05-03T09:51:38.968Z</time></trkpt><trkpt lat="45.91186656580554" lon="10.916652060988927"><ele>345.0</ele><time>2026-05-03T09:51:39.968Z</time></trkpt><trkpt lat="45.911918779656204" lon="10.916494723139586"><ele>340.5</ele><time>2026-05-03T09:51:40.968Z</time></trkpt><trkpt lat="45.91197883970143" lon="10.916352905318542"><ele>336.0</ele><time>2026-05-03T09:51:41.968Z</time></trkpt><trkpt lat="45.912039070885314" lon="10.9162119670297"><ele>331.5</ele><time>2026-05-03T09:51:42.968Z</time></trkpt><trkpt lat="45.91212424999774" lon="10.916076623365543"><ele>327.0</ele><time>2026-05-03T09:51:43.968Z</time></trkpt><trkpt lat="45.912227925162554" lon="10.915949719821516"><ele>322.0</ele><time>2026-05-03T09:51:44.968Z</time></trkpt><trkpt lat="45.91233182827604" lon="10.915862579912481"><ele>317.0</ele><time>2026-05-03T09:51:45.968Z</time></trkpt><trkpt lat="45.91244191901152" lon="10.915791848543819"><ele>312.0</ele><time>2026-05-03T09:51:46.968Z</time></trkpt><trkpt lat="45.912549982437234" lon="10.915784449663274"><ele>307.0</ele><time>2026-05-03T09:51:47.968Z</time></trkpt><trkpt lat="45.91266007068514" lon="10.915763149160249"><ele>305.75</ele><time>2026-05-03T09:51:48.968Z</time></trkpt><trkpt lat="45.91277137817385" lon="10.915815562520542"><ele>304.5</ele><time>2026-05-03T09:51:49.968Z</time></trkpt><trkpt lat="45.912893449567754" lon="10.915860616648775"><ele>303.25</ele><time>2026-05-03T09:51:50.968Z</time></trkpt><trkpt lat="45.91301914188351" lon="10.91590121497624"><ele>302.0</ele><time>2026-05-03T09:51:51.968Z</time></trkpt><trkpt lat="45.91313124392678" lon="10.915954786692112"><ele>300.75</ele><time>2026-05-03T09:51:52.968Z</time></trkpt><trkpt lat="45.91325054341899" lon="10.91595834455072"><ele>299.5</ele><time>2026-05-03T09:51:53.968Z</time></trkpt><trkpt lat="45.913378120134" lon="10.915915552788931"><ele>298.25</ele><time>2026-05-03T09:51:54.968Z</time></trkpt><trkpt lat="45.913530093908996" lon="10.91588154222346"><ele>297.0</ele><time>2026-05-03T09:51:55.968Z</time></trkpt><trkpt lat="45.913669358131386" lon="10.915836153922797"><ele>297.0</ele><time>2026-05-03T09:51:56.968Z</time></trkpt><trkpt lat="45.91379873743202" lon="10.915763314028764"><ele>297.0</ele><time>2026-05-03T09:51:57.968Z</time></trkpt><trkpt lat="45.91393413170836" lon="10.915710867636635"><ele>297.0</ele><time>2026-05-03T09:51:58.968Z</time></trkpt><trkpt lat="45.914076893204125" lon="10.915625329024245"><ele>297.0</ele><time>2026-05-03T09:51:59.968Z</time></trkpt><trkpt lat="45.91422150937079" lon="10.915538600715344"><ele>296.25</ele><time>2026-05-03T09:52:00.968Z</time></trkpt><trkpt lat="45.914362261446136" lon="10.915451649145705"><ele>295.5</ele><time>2026-05-03T09:52:01.968Z</time></trkpt><trkpt lat="45.91448468092817" lon="10.915368838549579"><ele>294.75</ele><time>2026-05-03T09:52:02.968Z</time></trkpt><trkpt lat="45.91461265309309" lon="10.915307497177105"><ele>294.0</ele><time>2026-05-03T09:52:03.968Z</time></trkpt><trkpt lat="45.91473318609911" lon="10.91529143983885"><ele>294.0</ele><time>2026-05-03T09:52:04.968Z</time></trkpt><trkpt lat="45.91482728560342" lon="10.915300099705195"><ele>294.0</ele><time>2026-05-03T09:52:05.968Z</time></trkpt><trkpt lat="45.91489503819234" lon="10.915295124210084"><ele>294.0</ele><time>2026-05-03T09:52:06.968Z</time></trkpt><trkpt lat="45.91495132768173" lon="10.915150091742255"><ele>294.0</ele><time>2026-05-03T09:52:08.968Z</time></trkpt><trkpt lat="45.91492365863401" lon="10.915063599990871"><ele>294.0</ele><time>2026-05-03T09:52:09.968Z</time></trkpt><trkpt lat="45.91482857248646" lon="10.914998246396967"><ele>294.0</ele><time>2026-05-03T09:52:10.968Z</time></trkpt><trkpt lat="45.9147275278881" lon="10.91501255637504"><ele>291.59999999999997</ele><time>2026-05-03T09:52:11.968Z</time></trkpt><trkpt lat="45.914622743339685" lon="10.915011962054416"><ele>289.2</ele><time>2026-05-03T09:52:12.968Z</time></trkpt><trkpt lat="45.91453843853796" lon="10.915001747076797"><ele>286.79999999999995</ele><time>2026-05-03T09:52:13.968Z</time></trkpt><trkpt lat="45.914452289705" lon="10.914992320067684"><ele>284.4</ele><time>2026-05-03T09:52:14.968Z</time></trkpt><trkpt lat="45.914362997057516" lon="10.914986012313204"><ele>282.0</ele><time>2026-05-03T09:52:15.968Z</time></trkpt><trkpt lat="45.91425474931926" lon="10.91498448830596"><ele>280.75</ele><time>2026-05-03T09:52:16.969Z</time></trkpt><trkpt lat="45.91413109056715" lon="10.914991938973548"><ele>279.5</ele><time>2026-05-03T09:52:17.968Z</time></trkpt><trkpt lat="45.914013918291644" lon="10.915033950377191"><ele>278.25</ele><time>2026-05-03T09:52:18.968Z</time></trkpt><trkpt lat="45.91390069610019" lon="10.915056493997543"><ele>277.0</ele><time>2026-05-03T09:52:19.969Z</time></trkpt><trkpt lat="45.91379809456734" lon="10.915090849166884"><ele>277.0</ele><time>2026-05-03T09:52:20.969Z</time></trkpt><trkpt lat="45.91372092191351" lon="10.915117260902349"><ele>277.0</ele><time>2026-05-03T09:52:21.969Z</time></trkpt><trkpt lat="45.913625993554795" lon="10.915082982947396"><ele>277.0</ele><time>2026-05-03T09:52:23.968Z</time></trkpt><trkpt lat="45.91365295230765" lon="10.914931147270414"><ele>277.0</ele><time>2026-05-03T09:52:25.968Z</time></trkpt><trkpt lat="45.91374696591943" lon="10.914880612738429"><ele>277.0</ele><time>2026-05-03T09:52:26.969Z</time></trkpt><trkpt lat="45.913852269839516" lon="10.914856630744778"><ele>277.0</ele><time>2026-05-03T09:52:27.969Z</time></trkpt><trkpt lat="45.913972102599324" lon="10.914809001683112"><ele>277.0</ele><time>2026-05-03T09:52:28.968Z</time></trkpt><trkpt lat="45.91410259532754" lon="10.914716961515149"><ele>277.0</ele><time>2026-05-03T09:52:29.968Z</time></trkpt><trkpt lat="45.9142189869983" lon="10.9146218570532"><ele>277.0</ele><time>2026-05-03T09:52:30.968Z</time></trkpt><trkpt lat="45.91432971495312" lon="10.914591295322236"><ele>278.0</ele><time>2026-05-03T09:52:31.968Z</time></trkpt><trkpt lat="45.914435749317626" lon="10.914607177669739"><ele>279.0</ele><time>2026-05-03T09:52:32.968Z</time></trkpt><trkpt lat="45.91451163175051" lon="10.914638618686592"><ele>280.0</ele><time>2026-05-03T09:52:33.968Z</time></trkpt><trkpt lat="45.91461083972262" lon="10.914610755053939"><ele>281.0</ele><time>2026-05-03T09:52:35.968Z</time></trkpt><trkpt lat="45.91466485564772" lon="10.914562591446956"><ele>282.0</ele><time>2026-05-03T09:52:36.968Z</time></trkpt><trkpt lat="45.914655221336076" lon="10.914406207837725"><ele>282.0</ele><time>2026-05-03T09:52:37.968Z</time></trkpt><trkpt lat="45.914457278193616" lon="10.914396945100236"><ele>282.0</ele><time>2026-05-03T09:52:38.968Z</time></trkpt><trkpt lat="45.914358753053804" lon="10.914421265758724"><ele>282.0</ele><time>2026-05-03T09:52:39.968Z</time></trkpt><trkpt lat="45.91424896669761" lon="10.914419054828503"><ele>282.0</ele><time>2026-05-03T09:52:40.968Z</time></trkpt><trkpt lat="45.91414828139462" lon="10.914331536969305"><ele>280.75</ele><time>2026-05-03T09:52:41.968Z</time></trkpt><trkpt lat="45.91399674663982" lon="10.9142984017743"><ele>279.5</ele><time>2026-05-03T09:52:42.968Z</time></trkpt><trkpt lat="45.9138314937499" lon="10.914267853490601"><ele>278.25</ele><time>2026-05-03T09:52:43.968Z</time></trkpt><trkpt lat="45.91371065042026" lon="10.914239340879735"><ele>277.0</ele><time>2026-05-03T09:52:44.968Z</time></trkpt><trkpt lat="45.91358747062821" lon="10.914193131822968"><ele>273.4</ele><time>2026-05-03T09:52:45.968Z</time></trkpt><trkpt lat="45.9135141009765" lon="10.914156194480752"><ele>269.79999999999995</ele><time>2026-05-03T09:52:46.968Z</time></trkpt><trkpt lat="45.91342732802116" lon="10.914064276505117"><ele>266.2</ele><time>2026-05-03T09:52:47.968Z</time></trkpt><trkpt lat="45.91333636476306" lon="10.913956067320857"><ele>262.59999999999997</ele><time>2026-05-03T09:52:48.968Z</time></trkpt><trkpt lat="45.91323179815199" lon="10.913832440698958"><ele>259.0</ele><time>2026-05-03T09:52:49.968Z</time></trkpt><trkpt lat="45.913121587876276" lon="10.913698568545119"><ele>259.0</ele><time>2026-05-03T09:52:50.968Z</time></trkpt><trkpt lat="45.913020215337504" lon="10.913573404096951"><ele>259.0</ele><time>2026-05-03T09:52:51.968Z</time></trkpt><trkpt lat="45.912949763015725" lon="10.913471757575445"><ele>259.0</ele><time>2026-05-03T09:52:52.968Z</time></trkpt><trkpt lat="45.91290290058424" lon="10.913375578478426"><ele>259.0</ele><time>2026-05-03T09:52:53.968Z</time></trkpt><trkpt lat="45.91290747042027" lon="10.913266849428602"><ele>259.0</ele><time>2026-05-03T09:52:54.968Z</time></trkpt><trkpt lat="45.91289560519851" lon="10.913108251270486"><ele>257.2</ele><time>2026-05-03T09:52:55.968Z</time></trkpt><trkpt lat="45.91287813118772" lon="10.912959230422498"><ele>255.39999999999998</ele><time>2026-05-03T09:52:56.968Z</time></trkpt><trkpt lat="45.912845665333435" lon="10.912849613833412"><ele>253.6</ele><time>2026-05-03T09:52:57.968Z</time></trkpt><trkpt lat="45.91277029631331" lon="10.912778604296086"><ele>251.8</ele><time>2026-05-03T09:52:58.968Z</time></trkpt><trkpt lat="45.912652933074405" lon="10.91280517810377"><ele>250.0</ele><time>2026-05-03T09:52:59.968Z</time></trkpt><trkpt lat="45.91254714631103" lon="10.912819391481873"><ele>250.0</ele><time>2026-05-03T09:53:00.968Z</time></trkpt><trkpt lat="45.91248296781386" lon="10.912793611524434"><ele>250.0</ele><time>2026-05-03T09:53:01.968Z</time></trkpt><trkpt lat="45.91246100884457" lon="10.912671679903731"><ele>250.0</ele><time>2026-05-03T09:53:03.968Z</time></trkpt><trkpt lat="45.91257844063147" lon="10.912575791906532"><ele>250.0</ele><time>2026-05-03T09:53:05.968Z</time></trkpt><trkpt lat="45.912686469362285" lon="10.912575033604762"><ele>250.0</ele><time>2026-05-03T09:53:06.968Z</time></trkpt><trkpt lat="45.912795619629776" lon="10.912583885210406"><ele>248.2</ele><time>2026-05-03T09:53:07.968Z</time></trkpt><trkpt lat="45.91288351728871" lon="10.912626468906023"><ele>246.4</ele><time>2026-05-03T09:53:08.968Z</time></trkpt><trkpt lat="45.91295848661448" lon="10.912712380418723"><ele>244.60000000000002</ele><time>2026-05-03T09:53:09.968Z</time></trkpt><trkpt lat="45.91302722686353" lon="10.912787008538864"><ele>242.8</ele><time>2026-05-03T09:53:10.968Z</time></trkpt><trkpt lat="45.913135466963475" lon="10.912824945287786"><ele>241.0</ele><time>2026-05-03T09:53:12.968Z</time></trkpt><trkpt lat="45.9131942492971" lon="10.912750831279777"><ele>241.0</ele><time>2026-05-03T09:53:13.968Z</time></trkpt><trkpt lat="45.91319419858726" lon="10.912611692876629"><ele>241.00000000000003</ele><time>2026-05-03T09:53:14.968Z</time></trkpt><trkpt lat="45.91311418434432" lon="10.912509325263196"><ele>241.00000000000003</ele><time>2026-05-03T09:53:15.968Z</time></trkpt><trkpt lat="45.91301575233333" lon="10.912419330197748"><ele>241.0</ele><time>2026-05-03T09:53:16.968Z</time></trkpt><trkpt lat="45.9129178534221" lon="10.912326684273125"><ele>241.0</ele><time>2026-05-03T09:53:17.968Z</time></trkpt><trkpt lat="45.912806366958186" lon="10.912249888343641"><ele>238.20000000000002</ele><time>2026-05-03T09:53:18.968Z</time></trkpt><trkpt lat="45.912718524188534" lon="10.912170126835322"><ele>235.40000000000003</ele><time>2026-05-03T09:53:19.968Z</time></trkpt><trkpt lat="45.91262702522264" lon="10.912111811940308"><ele>232.6</ele><time>2026-05-03T09:53:20.968Z</time></trkpt><trkpt lat="45.91253367468869" lon="10.912075340948348"><ele>229.8</ele><time>2026-05-03T09:53:21.968Z</time></trkpt><trkpt lat="45.91243683127679" lon="10.912140497146607"><ele>227.0</ele><time>2026-05-03T09:53:22.968Z</time></trkpt><trkpt lat="45.912359892708885" lon="10.912182559817335"><ele>227.0</ele><time>2026-05-03T09:53:23.968Z</time></trkpt><trkpt lat="45.91228761180503" lon="10.912174240604006"><ele>227.0</ele><time>2026-05-03T09:53:24.968Z</time></trkpt><trkpt lat="45.912228511594634" lon="10.912085750297974"><ele>227.0</ele><time>2026-05-03T09:53:25.968Z</time></trkpt><trkpt lat="45.91218764545196" lon="10.911948566838955"><ele>227.0</ele><time>2026-05-03T09:53:26.967Z</time></trkpt><trkpt lat="45.91215006575768" lon="10.911795679886547"><ele>227.0</ele><time>2026-05-03T09:53:27.967Z</time></trkpt><trkpt lat="45.91208971088745" lon="10.911667547456437"><ele>223.6</ele><time>2026-05-03T09:53:28.967Z</time></trkpt><trkpt lat="45.91199918803982" lon="10.911583381869663"><ele>220.2</ele><time>2026-05-03T09:53:29.967Z</time></trkpt><trkpt lat="45.91190951819455" lon="10.911541356551991"><ele>216.8</ele><time>2026-05-03T09:53:30.967Z</time></trkpt><trkpt lat="45.911859308810506" lon="10.91140628919841"><ele>213.4</ele><time>2026-05-03T09:53:32.967Z</time></trkpt><trkpt lat="45.91189637551608" lon="10.911300020356713"><ele>210.0</ele><time>2026-05-03T09:53:33.967Z</time></trkpt><trkpt lat="45.91198540072446" lon="10.91120189280793"><ele>210.0</ele><time>2026-05-03T09:53:34.967Z</time></trkpt><trkpt lat="45.912098619265834" lon="10.91112428526419"><ele>210.0</ele><time>2026-05-03T09:53:35.967Z</time></trkpt><trkpt lat="45.91220163013268" lon="10.911064473095081"><ele>210.0</ele><time>2026-05-03T09:53:36.967Z</time></trkpt><trkpt lat="45.912302503390016" lon="10.910999596122041"><ele>210.0</ele><time>2026-05-03T09:53:37.967Z</time></trkpt><trkpt lat="45.91242797789646" lon="10.910967689907093"><ele>210.0</ele><time>2026-05-03T09:53:38.967Z</time></trkpt><trkpt lat="45.91257112895614" lon="10.91095672401357"><ele>210.0</ele><time>2026-05-03T09:53:39.967Z</time></trkpt><trkpt lat="45.91269735352396" lon="10.910944278261331"><ele>210.0</ele><time>2026-05-03T09:53:40.967Z</time></trkpt><trkpt lat="45.91281147241036" lon="10.910936467655949"><ele>210.0</ele><time>2026-05-03T09:53:41.967Z</time></trkpt><trkpt lat="45.91292562570517" lon="10.910917997166894"><ele>205.5</ele><time>2026-05-03T09:53:42.967Z</time></trkpt><trkpt lat="45.91303883104459" lon="10.910899368267343"><ele>201.0</ele><time>2026-05-03T09:53:43.967Z</time></trkpt><trkpt lat="45.91314145548291" lon="10.91083446750279"><ele>196.5</ele><time>2026-05-03T09:53:44.967Z</time></trkpt><trkpt lat="45.913228564228646" lon="10.91071347035086"><ele>192.0</ele><time>2026-05-03T09:53:45.967Z</time></trkpt><trkpt lat="45.91331751174182" lon="10.910581692569428"><ele>192.0</ele><time>2026-05-03T09:53:46.967Z</time></trkpt><trkpt lat="45.91339700413451" lon="10.910457986346373"><ele>192.0</ele><time>2026-05-03T09:53:47.967Z</time></trkpt><trkpt lat="45.91345338716044" lon="10.910309112549523"><ele>192.0</ele><time>2026-05-03T09:53:48.967Z</time></trkpt><trkpt lat="45.9135062652524" lon="10.910101525034756"><ele>192.0</ele><time>2026-05-03T09:53:49.967Z</time></trkpt><trkpt lat="45.913547588244825" lon="10.909923498371285"><ele>189.75</ele><time>2026-05-03T09:53:50.967Z</time></trkpt><trkpt lat="45.913587184714004" lon="10.909758351063552"><ele>187.5</ele><time>2026-05-03T09:53:51.967Z</time></trkpt><trkpt lat="45.91362816923686" lon="10.909583171607807"><ele>185.25</ele><time>2026-05-03T09:53:52.967Z</time></trkpt><trkpt lat="45.91366794337465" lon="10.909401113271567"><ele>183.0</ele><time>2026-05-03T09:53:53.967Z</time></trkpt><trkpt lat="45.913699478161924" lon="10.909237111458083"><ele>180.75</ele><time>2026-05-03T09:53:54.967Z</time></trkpt><trkpt lat="45.9137112522566" lon="10.909049437222846"><ele>178.5</ele><time>2026-05-03T09:53:55.967Z</time></trkpt><trkpt lat="45.913692630995776" lon="10.908879629997905"><ele>176.25</ele><time>2026-05-03T09:53:56.967Z</time></trkpt><trkpt lat="45.913641342515746" lon="10.908713762015758"><ele>174.0</ele><time>2026-05-03T09:53:57.967Z</time></trkpt><trkpt lat="45.91355725522467" lon="10.908592739591272"><ele>174.0</ele><time>2026-05-03T09:53:58.967Z</time></trkpt><trkpt lat="45.91347169254546" lon="10.908485859527953"><ele>174.0</ele><time>2026-05-03T09:53:59.967Z</time></trkpt><trkpt lat="45.91338931339192" lon="10.908379871965424"><ele>174.0</ele><time>2026-05-03T09:54:00.967Z</time></trkpt><trkpt lat="45.9132943190205" lon="10.908256542603675"><ele>174.0</ele><time>2026-05-03T09:54:01.967Z</time></trkpt><trkpt lat="45.913184819404265" lon="10.908122700800423"><ele>172.25</ele><time>2026-05-03T09:54:02.967Z</time></trkpt><trkpt lat="45.91307902445355" lon="10.907997435173565"><ele>170.5</ele><time>2026-05-03T09:54:03.967Z</time></trkpt><trkpt lat="45.91297815931539" lon="10.907872810674071"><ele>168.75</ele><time>2026-05-03T09:54:04.967Z</time></trkpt><trkpt lat="45.91288359712931" lon="10.907748481273847"><ele>167.0</ele><time>2026-05-03T09:54:05.967Z</time></trkpt><trkpt lat="45.91278559319806" lon="10.907628046924275"><ele>165.25</ele><time>2026-05-03T09:54:06.967Z</time></trkpt><trkpt lat="45.912690399332604" lon="10.907512262997448"><ele>163.5</ele><time>2026-05-03T09:54:07.967Z</time></trkpt><trkpt lat="45.91259632982748" lon="10.907400393717134"><ele>161.75</ele><time>2026-05-03T09:54:08.967Z</time></trkpt><trkpt lat="45.91250219897027" lon="10.907289839341896"><ele>160.0</ele><time>2026-05-03T09:54:09.967Z</time></trkpt><trkpt lat="45.91240795166469" lon="10.90718732112753"><ele>160.0</ele><time>2026-05-03T09:54:10.967Z</time></trkpt><trkpt lat="45.912310464284054" lon="10.907089713042215"><ele>160.0</ele><time>2026-05-03T09:54:11.967Z</time></trkpt><trkpt lat="45.91220886631512" lon="10.907001040299255"><ele>160.0</ele><time>2026-05-03T09:54:12.967Z</time></trkpt><trkpt lat="45.91209684362957" lon="10.906912200532911"><ele>160.0</ele><time>2026-05-03T09:54:13.967Z</time></trkpt><trkpt lat="45.911978461480466" lon="10.906823088752805"><ele>159.25</ele><time>2026-05-03T09:54:14.967Z</time></trkpt><trkpt lat="45.91185807126821" lon="10.906737628899698"><ele>158.5</ele><time>2026-05-03T09:54:15.967Z</time></trkpt><trkpt lat="45.91174941218003" lon="10.906644180447394"><ele>157.75</ele><time>2026-05-03T09:54:16.967Z</time></trkpt><trkpt lat="45.911666540438524" lon="10.906520891161346"><ele>157.0</ele><time>2026-05-03T09:54:17.967Z</time></trkpt><trkpt lat="45.91160927620078" lon="10.906362654247514"><ele>157.0</ele><time>2026-05-03T09:54:18.967Z</time></trkpt><trkpt lat="45.91159014137859" lon="10.906188778316034"><ele>157.0</ele><time>2026-05-03T09:54:19.967Z</time></trkpt><trkpt lat="45.91160144615367" lon="10.906006266976474"><ele>157.0</ele><time>2026-05-03T09:54:20.967Z</time></trkpt><trkpt lat="45.91164432295837" lon="10.905821321461532"><ele>157.0</ele><time>2026-05-03T09:54:21.967Z</time></trkpt><trkpt lat="45.911717510006426" lon="10.90563479675631"><ele>154.75</ele><time>2026-05-03T09:54:22.968Z</time></trkpt><trkpt lat="45.9118002442677" lon="10.905452927667996"><ele>152.5</ele><time>2026-05-03T09:54:23.968Z</time></trkpt><trkpt lat="45.91187873979581" lon="10.905277015131583"><ele>150.25</ele><time>2026-05-03T09:54:24.968Z</time></trkpt><trkpt lat="45.91195684637753" lon="10.905115362089818"><ele>148.0</ele><time>2026-05-03T09:54:25.969Z</time></trkpt><trkpt lat="45.91203555191062" lon="10.904959861220481"><ele>146.75</ele><time>2026-05-03T09:54:26.968Z</time></trkpt><trkpt lat="45.912112998985826" lon="10.904810765180528"><ele>145.5</ele><time>2026-05-03T09:54:27.968Z</time></trkpt><trkpt lat="45.91218374390987" lon="10.904660292787668"><ele>144.25</ele><time>2026-05-03T09:54:28.969Z</time></trkpt><trkpt lat="45.91225392259328" lon="10.904514357166146"><ele>143.0</ele><time>2026-05-03T09:54:29.969Z</time></trkpt><trkpt lat="45.91231974343363" lon="10.904370182368925"><ele>141.75</ele><time>2026-05-03T09:54:30.969Z</time></trkpt><trkpt lat="45.912363497752104" lon="10.904209366927617"><ele>140.5</ele><time>2026-05-03T09:54:31.968Z</time></trkpt><trkpt lat="45.912400710076476" lon="10.904044083786141"><ele>139.25</ele><time>2026-05-03T09:54:32.969Z</time></trkpt><trkpt lat="45.91243673272972" lon="10.903885812883907"><ele>138.0</ele><time>2026-05-03T09:54:33.969Z</time></trkpt><trkpt lat="45.91246546685963" lon="10.903753445934111"><ele>138.0</ele><time>2026-05-03T09:54:34.968Z</time></trkpt><trkpt lat="45.912493311132266" lon="10.903655049786567"><ele>138.0</ele><time>2026-05-03T09:54:35.968Z</time></trkpt><trkpt lat="45.912539579004566" lon="10.903580558255365"><ele>138.0</ele><time>2026-05-03T09:54:36.968Z</time></trkpt><trkpt lat="45.91260492641389" lon="10.903564926505942"><ele>138.0</ele><time>2026-05-03T09:54:37.968Z</time></trkpt><trkpt lat="45.91266809635757" lon="10.903584806950438"><ele>138.0</ele><time>2026-05-03T09:54:38.968Z</time></trkpt><trkpt lat="45.912745598222074" lon="10.903609481741723"><ele>138.0</ele><time>2026-05-03T09:54:39.968Z</time></trkpt><trkpt lat="45.91283448668779" lon="10.903624493844916"><ele>138.0</ele><time>2026-05-03T09:54:40.968Z</time></trkpt><trkpt lat="45.91292683966898" lon="10.90363990008267"><ele>137.85714285714286</ele><time>2026-05-03T09:54:41.968Z</time></trkpt><trkpt lat="45.91301089833518" lon="10.903659067124172"><ele>137.71428571428572</ele><time>2026-05-03T09:54:42.968Z</time></trkpt><trkpt lat="45.91307550033874" lon="10.903625170827983"><ele>137.57142857142858</ele><time>2026-05-03T09:54:43.968Z</time></trkpt><trkpt lat="45.91311025376254" lon="10.90352860134016"><ele>137.42857142857144</ele><time>2026-05-03T09:54:44.968Z</time></trkpt><trkpt lat="45.91313395244267" lon="10.903429098905342"><ele>137.28571428571428</ele><time>2026-05-03T09:54:45.968Z</time></trkpt><trkpt lat="45.91315973422412" lon="10.903338345565997"><ele>137.14285714285717</ele><time>2026-05-03T09:54:46.968Z</time></trkpt><trkpt lat="45.91318699183264" lon="10.903246327719406"><ele>137.0</ele><time>2026-05-03T09:54:47.968Z</time></trkpt><trkpt lat="45.91321335037542" lon="10.90315344647044"><ele>136.16666666666666</ele><time>2026-05-03T09:54:48.968Z</time></trkpt><trkpt lat="45.91323810459617" lon="10.903060426731727"><ele>135.33333333333331</ele><time>2026-05-03T09:54:49.968Z</time></trkpt><trkpt lat="45.913263195030986" lon="10.902966147587739"><ele>134.5</ele><time>2026-05-03T09:54:50.968Z</time></trkpt><trkpt lat="45.913273505960085" lon="10.90286874372154"><ele>133.66666666666666</ele><time>2026-05-03T09:54:51.967Z</time></trkpt><trkpt lat="45.91314840785936" lon="10.902716819899418"><ele>132.83333333333334</ele><time>2026-05-03T09:54:53.967Z</time></trkpt><trkpt lat="45.91308129910258" lon="10.902672025776168"><ele>132.0</ele><time>2026-05-03T09:54:54.967Z</time></trkpt><trkpt lat="45.91301467793616" lon="10.902621869175091"><ele>131.28571428571428</ele><time>2026-05-03T09:54:55.967Z</time></trkpt><trkpt lat="45.91295271713864" lon="10.902572515367872"><ele>130.57142857142858</ele><time>2026-05-03T09:54:56.967Z</time></trkpt><trkpt lat="45.91288945702751" lon="10.902532661134547"><ele>129.85714285714286</ele><time>2026-05-03T09:54:57.967Z</time></trkpt><trkpt lat="45.91282661733502" lon="10.902487321836478"><ele>129.14285714285714</ele><time>2026-05-03T09:54:58.967Z</time></trkpt><trkpt lat="45.912767955154415" lon="10.902422493503648"><ele>128.42857142857142</ele><time>2026-05-03T09:54:59.967Z</time></trkpt><trkpt lat="45.912698807232964" lon="10.902371763187437"><ele>127.71428571428572</ele><time>2026-05-03T09:55:00.967Z</time></trkpt><trkpt lat="45.91262846667064" lon="10.902320128659046"><ele>127.0</ele><time>2026-05-03T09:55:01.967Z</time></trkpt><trkpt lat="45.91255158263223" lon="10.902263690981602"><ele>126.8</ele><time>2026-05-03T09:55:02.967Z</time></trkpt><trkpt lat="45.91247107670129" lon="10.902204155990582"><ele>126.6</ele><time>2026-05-03T09:55:03.967Z</time></trkpt><trkpt lat="45.912387421079" lon="10.902141993319276"><ele>126.39999999999999</ele><time>2026-05-03T09:55:04.967Z</time></trkpt><trkpt lat="45.91230172185685" lon="10.902078312201764"><ele>126.19999999999999</ele><time>2026-05-03T09:55:05.967Z</time></trkpt><trkpt lat="45.91221324920921" lon="10.902012923823508"><ele>126.0</ele><time>2026-05-03T09:55:06.967Z</time></trkpt><trkpt lat="45.91211998062061" lon="10.901944293905187"><ele>126.0</ele><time>2026-05-03T09:55:07.967Z</time></trkpt><trkpt lat="45.91203393673883" lon="10.90188098021807"><ele>126.0</ele><time>2026-05-03T09:55:08.967Z</time></trkpt><trkpt lat="45.9119452743118" lon="10.901815739634232"><ele>126.0</ele><time>2026-05-03T09:55:09.967Z</time></trkpt><trkpt lat="45.91184882538599" lon="10.901744769517403"><ele>126.0</ele><time>2026-05-03T09:55:10.967Z</time></trkpt><trkpt lat="45.91175502818468" lon="10.901701208666731"><ele>126.0</ele><time>2026-05-03T09:55:11.967Z</time></trkpt><trkpt lat="45.91167753416791" lon="10.901625867099616"><ele>124.6</ele><time>2026-05-03T09:55:12.967Z</time></trkpt><trkpt lat="45.91158827441568" lon="10.901555378157415"><ele>123.19999999999999</ele><time>2026-05-03T09:55:13.967Z</time></trkpt><trkpt lat="45.91149835564843" lon="10.901492880059891"><ele>121.80000000000001</ele><time>2026-05-03T09:55:14.967Z</time></trkpt><trkpt lat="45.91140853060102" lon="10.901433163834975"><ele>120.4</ele><time>2026-05-03T09:55:15.967Z</time></trkpt><trkpt lat="45.911322314243314" lon="10.901374767243343"><ele>119.0</ele><time>2026-05-03T09:55:16.967Z</time></trkpt><trkpt lat="45.91124213453595" lon="10.90130837241981"><ele>118.99999999999999</ele><time>2026-05-03T09:55:17.967Z</time></trkpt><trkpt lat="45.91116444715442" lon="10.90124721672891"><ele>119.0</ele><time>2026-05-03T09:55:18.967Z</time></trkpt><trkpt lat="45.911085937155946" lon="10.901188715589234"><ele>119.0</ele><time>2026-05-03T09:55:19.967Z</time></trkpt><trkpt lat="45.9110104382258" lon="10.901138257526672"><ele>119.0</ele><time>2026-05-03T09:55:20.967Z</time></trkpt><trkpt lat="45.91093665439491" lon="10.90108463883566"><ele>118.99999999999999</ele><time>2026-05-03T09:55:21.967Z</time></trkpt><trkpt lat="45.91086703813009" lon="10.901028873147915"><ele>119.0</ele><time>2026-05-03T09:55:22.967Z</time></trkpt><trkpt lat="45.910804296165985" lon="10.90098148514067"><ele>117.99999999999999</ele><time>2026-05-03T09:55:23.967Z</time></trkpt><trkpt lat="45.9107321883253" lon="10.900887692341664"><ele>117.0</ele><time>2026-05-03T09:55:25.967Z</time></trkpt><trkpt lat="45.910703850680164" lon="10.900801420961193"><ele>116.0</ele><time>2026-05-03T09:55:32.967Z</time></trkpt><trkpt lat="45.910739020845256" lon="10.900647285669727"><ele>115.0</ele><time>2026-05-03T09:55:40.967Z</time></trkpt><trkpt lat="45.91078329809795" lon="10.90052400926638"><ele>113.99999999999999</ele><time>2026-05-03T09:55:42.967Z</time></trkpt><trkpt lat="45.91082853786174" lon="10.90045079104524"><ele>113.0</ele><time>2026-05-03T09:55:43.967Z</time></trkpt><trkpt lat="45.91088605246614" lon="10.90037143365919"><ele>113.4</ele><time>2026-05-03T09:55:44.967Z</time></trkpt><trkpt lat="45.9109638690428" lon="10.900326698068872"><ele>113.80000000000001</ele><time>2026-05-03T09:55:45.967Z</time></trkpt><trkpt lat="45.91102784847343" lon="10.900239281096935"><ele>114.2</ele><time>2026-05-03T09:55:46.967Z</time></trkpt><trkpt lat="45.9110988240177" lon="10.900140900178632"><ele>114.6</ele><time>2026-05-03T09:55:47.967Z</time></trkpt><trkpt lat="45.91117981593318" lon="10.900028635308352"><ele>115.0</ele><time>2026-05-03T09:55:48.967Z</time></trkpt><trkpt lat="45.911252610930276" lon="10.899895535141022"><ele>114.0</ele><time>2026-05-03T09:55:49.967Z</time></trkpt><trkpt lat="45.911344415309266" lon="10.899769424570286"><ele>113.0</ele><time>2026-05-03T09:55:50.967Z</time></trkpt><trkpt lat="45.91144493180821" lon="10.899644054206941"><ele>112.0</ele><time>2026-05-03T09:55:51.967Z</time></trkpt><trkpt lat="45.9115479106343" lon="10.899507788498175"><ele>111.0</ele><time>2026-05-03T09:55:52.967Z</time></trkpt><trkpt lat="45.911648988146325" lon="10.899361228133586"><ele>111.33333333333334</ele><time>2026-05-03T09:55:53.967Z</time></trkpt><trkpt lat="45.911759461382424" lon="10.899210606215533"><ele>111.66666666666667</ele><time>2026-05-03T09:55:54.967Z</time></trkpt><trkpt lat="45.91187306751301" lon="10.899054279208823"><ele>112.0</ele><time>2026-05-03T09:55:55.967Z</time></trkpt><trkpt lat="45.911984398064156" lon="10.898905360585186"><ele>112.0</ele><time>2026-05-03T09:55:56.967Z</time></trkpt><trkpt lat="45.91209250127311" lon="10.89875503975997"><ele>112.0</ele><time>2026-05-03T09:55:57.967Z</time></trkpt><trkpt lat="45.91219870890101" lon="10.89860132768662"><ele>112.0</ele><time>2026-05-03T09:55:58.967Z</time></trkpt><trkpt lat="45.91230480830198" lon="10.898451051164733"><ele>110.66666666666667</ele><time>2026-05-03T09:55:59.967Z</time></trkpt><trkpt lat="45.91240734005398" lon="10.898301097034679"><ele>109.33333333333334</ele><time>2026-05-03T09:56:00.967Z</time></trkpt><trkpt lat="45.91251173923071" lon="10.898144707921041"><ele>108.0</ele><time>2026-05-03T09:56:01.967Z</time></trkpt><trkpt lat="45.91261852212927" lon="10.897987930456534"><ele>107.5</ele><time>2026-05-03T09:56:02.967Z</time></trkpt><trkpt lat="45.912721433133456" lon="10.897848763678454"><ele>107.0</ele><time>2026-05-03T09:56:03.967Z</time></trkpt><trkpt lat="45.91281931576727" lon="10.89771485741614"><ele>106.5</ele><time>2026-05-03T09:56:04.967Z</time></trkpt><trkpt lat="45.91291406437805" lon="10.897577899399268"><ele>106.0</ele><time>2026-05-03T09:56:05.967Z</time></trkpt><trkpt lat="45.91301069773229" lon="10.897443997982839"><ele>105.25</ele><time>2026-05-03T09:56:06.967Z</time></trkpt><trkpt lat="45.913103926014486" lon="10.897311218480686"><ele>104.5</ele><time>2026-05-03T09:56:07.967Z</time></trkpt><trkpt lat="45.91320491574812" lon="10.89719569070644"><ele>103.75</ele><time>2026-05-03T09:56:08.967Z</time></trkpt><trkpt lat="45.9132834354521" lon="10.897064217208042"><ele>103.0</ele><time>2026-05-03T09:56:09.967Z</time></trkpt><trkpt lat="45.91334349058159" lon="10.896970217603215"><ele>103.00000000000001</ele><time>2026-05-03T09:56:10.967Z</time></trkpt><trkpt lat="45.91338749361052" lon="10.896905098034036"><ele>103.0</ele><time>2026-05-03T09:56:11.967Z</time></trkpt><trkpt lat="45.913476684404145" lon="10.896778172646076"><ele>103.0</ele><time>2026-05-03T09:56:13.967Z</time></trkpt><trkpt lat="45.913531737119875" lon="10.896707880566346"><ele>103.0</ele><time>2026-05-03T09:56:16.967Z</time></trkpt><trkpt lat="45.913593008289034" lon="10.896632185936342"><ele>103.00000000000001</ele><time>2026-05-03T09:56:25.967Z</time></trkpt><trkpt lat="45.913638542688" lon="10.896559179143164"><ele>103.0</ele><time>2026-05-03T09:56:27.967Z</time></trkpt><trkpt lat="45.91368512914223" lon="10.896491594903159"><ele>102.66666666666667</ele><time>2026-05-03T09:56:29.968Z</time></trkpt><trkpt lat="45.913756389931905" lon="10.896399135518662"><ele>102.33333333333334</ele><time>2026-05-03T09:56:38.968Z</time></trkpt><trkpt lat="45.913800641238744" lon="10.896327989986219"><ele>102.0</ele><time>2026-05-03T09:56:39.968Z</time></trkpt><trkpt lat="45.91385494801495" lon="10.896246857346224"><ele>101.66666666666666</ele><time>2026-05-03T09:56:40.968Z</time></trkpt><trkpt lat="45.91392712124401" lon="10.89618361513031"><ele>101.33333333333333</ele><time>2026-05-03T09:56:41.968Z</time></trkpt><trkpt lat="45.9139816483197" lon="10.896107805850232"><ele>101.0</ele><time>2026-05-03T09:56:42.968Z</time></trkpt><trkpt lat="45.91403185945833" lon="10.896041672337"><ele>100.99999999999999</ele><time>2026-05-03T09:56:43.968Z</time></trkpt><trkpt lat="45.91411582013989" lon="10.895928608155538"><ele>101.0</ele><time>2026-05-03T09:56:45.968Z</time></trkpt><trkpt lat="45.914198246182224" lon="10.89580174092664"><ele>101.0</ele><time>2026-05-03T09:56:47.968Z</time></trkpt><trkpt lat="45.9142446499253" lon="10.895729113430127"><ele>101.0</ele><time>2026-05-03T09:56:48.968Z</time></trkpt><trkpt lat="45.914290364376065" lon="10.895655727916564"><ele>100.99999999999999</ele><time>2026-05-03T09:56:49.968Z</time></trkpt><trkpt lat="45.91433870157088" lon="10.895584807008674"><ele>101.0</ele><time>2026-05-03T09:56:50.968Z</time></trkpt><trkpt lat="45.9143909873757" lon="10.895523503401517"><ele>100.85714285714286</ele><time>2026-05-03T09:56:51.968Z</time></trkpt><trkpt lat="45.91444560360105" lon="10.895473704991288"><ele>100.71428571428571</ele><time>2026-05-03T09:56:52.968Z</time></trkpt><trkpt lat="45.91450922285885" lon="10.895438067302637"><ele>100.57142857142858</ele><time>2026-05-03T09:56:53.968Z</time></trkpt><trkpt lat="45.91458148350021" lon="10.895421274343935"><ele>100.42857142857143</ele><time>2026-05-03T09:56:54.967Z</time></trkpt><trkpt lat="45.914656041865385" lon="10.895407879533149"><ele>100.28571428571429</ele><time>2026-05-03T09:56:55.967Z</time></trkpt><trkpt lat="45.914732643429204" lon="10.895399658087129"><ele>100.14285714285715</ele><time>2026-05-03T09:56:56.967Z</time></trkpt><trkpt lat="45.91480372576839" lon="10.895373492149838"><ele>100.0</ele><time>2026-05-03T09:56:57.967Z</time></trkpt><trkpt lat="45.914881354023684" lon="10.89534468408169"><ele>100.0</ele><time>2026-05-03T09:56:58.967Z</time></trkpt><trkpt lat="45.91495434733315" lon="10.895340039753382"><ele>100.0</ele><time>2026-05-03T09:56:59.967Z</time></trkpt><trkpt lat="45.91503471470064" lon="10.895353520551394"><ele>100.0</ele><time>2026-05-03T09:57:00.967Z</time></trkpt><trkpt lat="45.91512237416626" lon="10.895388678577653"><ele>100.0</ele><time>2026-05-03T09:57:01.967Z</time></trkpt><trkpt lat="45.915218632495495" lon="10.895432331410488"><ele>100.0</ele><time>2026-05-03T09:57:02.967Z</time></trkpt><trkpt lat="45.915326226604236" lon="10.895473164924326"><ele>100.0</ele><time>2026-05-03T09:57:03.967Z</time></trkpt><trkpt lat="45.915444054838844" lon="10.895515540177001"><ele>100.0</ele><time>2026-05-03T09:57:04.967Z</time></trkpt><trkpt lat="45.91557832817918" lon="10.895565108106087"><ele>100.0</ele><time>2026-05-03T09:57:05.967Z</time></trkpt><trkpt lat="45.915718520940516" lon="10.89560689808477"><ele>100.0</ele><time>2026-05-03T09:57:06.967Z</time></trkpt><trkpt lat="45.91587446401112" lon="10.89564281930461"><ele>100.0</ele><time>2026-05-03T09:57:07.967Z</time></trkpt><trkpt lat="45.91606681790814" lon="10.895689851247916"><ele>100.0</ele><time>2026-05-03T09:57:08.967Z</time></trkpt><trkpt lat="45.91629958165957" lon="10.895747147183018"><ele>100.0</ele><time>2026-05-03T09:57:09.967Z</time></trkpt><trkpt lat="45.91656237422063" lon="10.895825846203984"><ele>99.5</ele><time>2026-05-03T09:57:10.967Z</time></trkpt><trkpt lat="45.91684972904406" lon="10.895896387459166"><ele>99.0</ele><time>2026-05-03T09:57:11.967Z</time></trkpt><trkpt lat="45.917129495246876" lon="10.89596533122851"><ele>100.0</ele><time>2026-05-03T09:57:12.967Z</time></trkpt><trkpt lat="45.917383821249395" lon="10.896037740726555"><ele>101.0</ele><time>2026-05-03T09:57:13.967Z</time></trkpt><trkpt lat="45.91763710344419" lon="10.896104936232495"><ele>101.5</ele><time>2026-05-03T09:57:14.967Z</time></trkpt><trkpt lat="45.91789781316838" lon="10.896197423667196"><ele>102.0</ele><time>2026-05-03T09:57:15.967Z</time></trkpt><trkpt lat="45.91815285257206" lon="10.89626538730836"><ele>102.0</ele><time>2026-05-03T09:57:16.967Z</time></trkpt><trkpt lat="45.91839426451875" lon="10.896329719449636"><ele>102.0</ele><time>2026-05-03T09:57:17.967Z</time></trkpt><trkpt lat="45.918624453193154" lon="10.896399093248755"><ele>101.33333333333334</ele><time>2026-05-03T09:57:18.967Z</time></trkpt><trkpt lat="45.91884566688734" lon="10.896458196914729"><ele>100.66666666666667</ele><time>2026-05-03T09:57:19.967Z</time></trkpt><trkpt lat="45.91905702962845" lon="10.896507150082552"><ele>100.0</ele><time>2026-05-03T09:57:20.967Z</time></trkpt><trkpt lat="45.91926045486955" lon="10.89656167643252"><ele>100.0</ele><time>2026-05-03T09:57:21.967Z</time></trkpt><trkpt lat="45.919448435975475" lon="10.896611194043988"><ele>100.0</ele><time>2026-05-03T09:57:22.967Z</time></trkpt><trkpt lat="45.919617598214124" lon="10.896625116102586"><ele>100.0</ele><time>2026-05-03T09:57:23.967Z</time></trkpt><trkpt lat="45.91978899060182" lon="10.896642788773628"><ele>100.0</ele><time>2026-05-03T09:57:24.967Z</time></trkpt><trkpt lat="45.91997124399114" lon="10.896653922954503"><ele>100.0</ele><time>2026-05-03T09:57:25.967Z</time></trkpt><trkpt lat="45.9201719475502" lon="10.896616958099102"><ele>100.0</ele><time>2026-05-03T09:57:26.967Z</time></trkpt><trkpt lat="45.92037506445491" lon="10.896551685991682"><ele>100.0</ele><time>2026-05-03T09:57:27.967Z</time></trkpt><trkpt lat="45.92055451074375" lon="10.896468546410382"><ele>100.0</ele><time>2026-05-03T09:57:28.967Z</time></trkpt><trkpt lat="45.92072504381917" lon="10.896362090156686"><ele>100.0</ele><time>2026-05-03T09:57:29.967Z</time></trkpt><trkpt lat="45.92088979370645" lon="10.896230969433386"><ele>100.0</ele><time>2026-05-03T09:57:30.967Z</time></trkpt><trkpt lat="45.921049978225966" lon="10.896073448402976"><ele>100.0</ele><time>2026-05-03T09:57:31.967Z</time></trkpt><trkpt lat="45.92120201611316" lon="10.8958894455106"><ele>100.0</ele><time>2026-05-03T09:57:32.967Z</time></trkpt><trkpt lat="45.921343375849446" lon="10.895674385338987"><ele>99.33333333333334</ele><time>2026-05-03T09:57:33.967Z</time></trkpt><trkpt lat="45.921471983904134" lon="10.895442314568326"><ele>98.66666666666666</ele><time>2026-05-03T09:57:34.967Z</time></trkpt><trkpt lat="45.92157202011653" lon="10.89521260943395"><ele>98.0</ele><time>2026-05-03T09:57:35.967Z</time></trkpt><trkpt lat="45.92165857036922" lon="10.89498042200752"><ele>98.0</ele><time>2026-05-03T09:57:36.967Z</time></trkpt><trkpt lat="45.92173188549882" lon="10.894740329802389"><ele>98.0</ele><time>2026-05-03T09:57:37.967Z</time></trkpt><trkpt lat="45.92182328784686" lon="10.894510064795274"><ele>98.0</ele><time>2026-05-03T09:57:38.967Z</time></trkpt><trkpt lat="45.921923245600304" lon="10.894286919092758"><ele>96.33333333333333</ele><time>2026-05-03T09:57:39.967Z</time></trkpt><trkpt lat="45.92205425374137" lon="10.894124560349713"><ele>94.66666666666666</ele><time>2026-05-03T09:57:40.967Z</time></trkpt><trkpt lat="45.92218549463808" lon="10.893974544305738"><ele>93.0</ele><time>2026-05-03T09:57:41.967Z</time></trkpt><trkpt lat="45.92232514767995" lon="10.893847389430178"><ele>93.0</ele><time>2026-05-03T09:57:42.967Z</time></trkpt><trkpt lat="45.922464402883676" lon="10.893745413216996"><ele>93.0</ele><time>2026-05-03T09:57:43.967Z</time></trkpt><trkpt lat="45.922603941303024" lon="10.893668655131952"><ele>93.0</ele><time>2026-05-03T09:57:44.967Z</time></trkpt><trkpt lat="45.922737665007425" lon="10.893621146263387"><ele>93.0</ele><time>2026-05-03T09:57:45.967Z</time></trkpt><trkpt lat="45.922849517511516" lon="10.893585146618744"><ele>93.16666666666667</ele><time>2026-05-03T09:57:46.967Z</time></trkpt><trkpt lat="45.922931724827514" lon="10.893557969734147"><ele>93.33333333333333</ele><time>2026-05-03T09:57:47.967Z</time></trkpt><trkpt lat="45.923021283834444" lon="10.893528067645505"><ele>93.5</ele><time>2026-05-03T09:57:49.967Z</time></trkpt><trkpt lat="45.92310817455229" lon="10.893492680857246"><ele>93.66666666666666</ele><time>2026-05-03T09:57:51.967Z</time></trkpt><trkpt lat="45.9231780910529" lon="10.893471296134745"><ele>93.83333333333333</ele><time>2026-05-03T09:57:53.967Z</time></trkpt><trkpt lat="45.92325922484131" lon="10.89346117147671"><ele>94.0</ele><time>2026-05-03T09:57:56.967Z</time></trkpt><trkpt lat="45.923350982818704" lon="10.893442413136798"><ele>93.83333333333333</ele><time>2026-05-03T09:58:00.967Z</time></trkpt><trkpt lat="45.92346346427198" lon="10.893459190629112"><ele>93.66666666666666</ele><time>2026-05-03T09:58:02.967Z</time></trkpt><trkpt lat="45.92353243396926" lon="10.893473361630798"><ele>93.5</ele><time>2026-05-03T09:58:03.967Z</time></trkpt><trkpt lat="45.92360806691503" lon="10.893492623942704"><ele>93.33333333333333</ele><time>2026-05-03T09:58:04.967Z</time></trkpt><trkpt lat="45.923678666458024" lon="10.893509850442582"><ele>93.16666666666667</ele><time>2026-05-03T09:58:05.967Z</time></trkpt><trkpt lat="45.92374476464821" lon="10.893528868800056"><ele>93.0</ele><time>2026-05-03T09:58:06.967Z</time></trkpt><trkpt lat="45.92380423800475" lon="10.893565647746392"><ele>93.0</ele><time>2026-05-03T09:58:07.967Z</time></trkpt><trkpt lat="45.92389939702979" lon="10.893649381737765"><ele>93.0</ele><time>2026-05-03T09:58:09.967Z</time></trkpt><trkpt lat="45.923986119436584" lon="10.893728882357472"><ele>93.0</ele><time>2026-05-03T09:58:11.967Z</time></trkpt><trkpt lat="45.92406917759067" lon="10.893784417171865"><ele>93.0</ele><time>2026-05-03T09:58:13.967Z</time></trkpt><trkpt lat="45.924146766852104" lon="10.893846724264204"><ele>93.0</ele><time>2026-05-03T09:58:15.967Z</time></trkpt><trkpt lat="45.924237602898934" lon="10.893920614978196"><ele>92.66666666666667</ele><time>2026-05-03T09:58:17.967Z</time></trkpt><trkpt lat="45.92433901232182" lon="10.893999269095813"><ele>92.33333333333333</ele><time>2026-05-03T09:58:19.967Z</time></trkpt><trkpt lat="45.92439682768349" lon="10.894043272095312"><ele>92.0</ele><time>2026-05-03T09:58:20.967Z</time></trkpt><trkpt lat="45.92446243145231" lon="10.894083392780262"><ele>91.66666666666666</ele><time>2026-05-03T09:58:21.967Z</time></trkpt><trkpt lat="45.92453043685628" lon="10.89412832252183"><ele>91.33333333333333</ele><time>2026-05-03T09:58:22.967Z</time></trkpt><trkpt lat="45.92460421972759" lon="10.894171439063516"><ele>91.0</ele><time>2026-05-03T09:58:23.967Z</time></trkpt><trkpt lat="45.92467472953928" lon="10.894207054444358"><ele>91.0</ele><time>2026-05-03T09:58:24.967Z</time></trkpt><trkpt lat="45.92473923473139" lon="10.894229697168955"><ele>91.0</ele><time>2026-05-03T09:58:25.967Z</time></trkpt><trkpt lat="45.92485238979067" lon="10.894262950163293"><ele>91.0</ele><time>2026-05-03T09:58:27.967Z</time></trkpt><trkpt lat="45.92497116768241" lon="10.894323967275426"><ele>91.0</ele><time>2026-05-03T09:58:29.967Z</time></trkpt><trkpt lat="45.925034529662476" lon="10.894358515176533"><ele>91.0</ele><time>2026-05-03T09:58:30.967Z</time></trkpt><trkpt lat="45.92509454255164" lon="10.89438728127922"><ele>91.0</ele><time>2026-05-03T09:58:31.967Z</time></trkpt><trkpt lat="45.92521492947512" lon="10.894445734152068"><ele>91.19999999999999</ele><time>2026-05-03T09:58:33.966Z</time></trkpt><trkpt lat="45.92527698082015" lon="10.894477814611422"><ele>91.39999999999999</ele><time>2026-05-03T09:58:34.967Z</time></trkpt><trkpt lat="45.9253914018099" lon="10.894536667114105"><ele>91.6</ele><time>2026-05-03T09:58:36.967Z</time></trkpt><trkpt lat="45.925507447759635" lon="10.89459416528299"><ele>91.8</ele><time>2026-05-03T09:58:38.967Z</time></trkpt><trkpt lat="45.92556684609194" lon="10.894646011178606"><ele>92.0</ele><time>2026-05-03T09:58:39.967Z</time></trkpt><trkpt lat="45.925685842962565" lon="10.894729665241178"><ele>92.0</ele><time>2026-05-03T09:58:41.967Z</time></trkpt><trkpt lat="45.92574978488872" lon="10.894765303296783"><ele>92.0</ele><time>2026-05-03T09:58:42.967Z</time></trkpt><trkpt lat="45.92581506239251" lon="10.894796840080284"><ele>92.0</ele><time>2026-05-03T09:58:43.966Z</time></trkpt><trkpt lat="45.92588240360802" lon="10.894828125850887"><ele>92.0</ele><time>2026-05-03T09:58:44.966Z</time></trkpt><trkpt lat="45.92595436956381" lon="10.894860304496934"><ele>92.0</ele><time>2026-05-03T09:58:45.966Z</time></trkpt><trkpt lat="45.92602867891977" lon="10.894893268302162"><ele>92.0</ele><time>2026-05-03T09:58:46.966Z</time></trkpt><trkpt lat="45.92610387494138" lon="10.89492881974539"><ele>92.0</ele><time>2026-05-03T09:58:47.966Z</time></trkpt><trkpt lat="45.926186319959555" lon="10.894963062161395"><ele>92.0</ele><time>2026-05-03T09:58:48.966Z</time></trkpt><trkpt lat="45.9262751191863" lon="10.895005405306616"><ele>92.0</ele><time>2026-05-03T09:58:49.966Z</time></trkpt><trkpt lat="45.92636485542377" lon="10.895047673201331"><ele>92.0</ele><time>2026-05-03T09:58:50.966Z</time></trkpt><trkpt lat="45.926457958945946" lon="10.895089008276415"><ele>92.0</ele><time>2026-05-03T09:58:51.966Z</time></trkpt><trkpt lat="45.92655175310078" lon="10.895134049533645"><ele>92.0</ele><time>2026-05-03T09:58:52.966Z</time></trkpt><trkpt lat="45.926642475521064" lon="10.89517437936116"><ele>92.19999999999999</ele><time>2026-05-03T09:58:53.966Z</time></trkpt><trkpt lat="45.926728181997674" lon="10.895219781540687"><ele>92.4</ele><time>2026-05-03T09:58:54.966Z</time></trkpt><trkpt lat="45.92682105383928" lon="10.895267366098636"><ele>92.6</ele><time>2026-05-03T09:58:55.966Z</time></trkpt><trkpt lat="45.92691575518333" lon="10.8953147176736"><ele>92.80000000000001</ele><time>2026-05-03T09:58:56.966Z</time></trkpt><trkpt lat="45.92700911049612" lon="10.89536541102685"><ele>93.0</ele><time>2026-05-03T09:58:57.966Z</time></trkpt><trkpt lat="45.92710567030355" lon="10.895416935943718"><ele>93.0</ele><time>2026-05-03T09:58:58.966Z</time></trkpt><trkpt lat="45.927200909730814" lon="10.89546624347557"><ele>93.0</ele><time>2026-05-03T09:58:59.966Z</time></trkpt><trkpt lat="45.92729430631922" lon="10.895509200491707"><ele>93.0</ele><time>2026-05-03T09:59:00.966Z</time></trkpt><trkpt lat="45.92738420142775" lon="10.895556689214722"><ele>93.0</ele><time>2026-05-03T09:59:01.966Z</time></trkpt><trkpt lat="45.927470649985175" lon="10.895605076852801"><ele>93.0</ele><time>2026-05-03T09:59:02.966Z</time></trkpt><trkpt lat="45.92755433446058" lon="10.895652162322456"><ele>92.83333333333333</ele><time>2026-05-03T09:59:03.966Z</time></trkpt><trkpt lat="45.927637150538516" lon="10.895695972783022"><ele>92.66666666666667</ele><time>2026-05-03T09:59:04.966Z</time></trkpt><trkpt lat="45.92771963043452" lon="10.895735566720372"><ele>92.5</ele><time>2026-05-03T09:59:05.966Z</time></trkpt><trkpt lat="45.92780326071153" lon="10.895769374587404"><ele>92.33333333333334</ele><time>2026-05-03T09:59:06.966Z</time></trkpt><trkpt lat="45.927890505459004" lon="10.895800181056739"><ele>92.16666666666667</ele><time>2026-05-03T09:59:07.966Z</time></trkpt><trkpt lat="45.92798278229405" lon="10.895830869662676"><ele>92.0</ele><time>2026-05-03T09:59:08.966Z</time></trkpt><trkpt lat="45.92807756787622" lon="10.89586159464638"><ele>92.0</ele><time>2026-05-03T09:59:09.966Z</time></trkpt><trkpt lat="45.92816969731328" lon="10.895886740108502"><ele>92.0</ele><time>2026-05-03T09:59:10.966Z</time></trkpt><trkpt lat="45.92826137390963" lon="10.895907421405717"><ele>92.0</ele><time>2026-05-03T09:59:11.966Z</time></trkpt><trkpt lat="45.92835107417198" lon="10.895924455437711"><ele>92.0</ele><time>2026-05-03T09:59:12.966Z</time></trkpt><trkpt lat="45.92844228456631" lon="10.895941583930943"><ele>92.0</ele><time>2026-05-03T09:59:13.966Z</time></trkpt><trkpt lat="45.92853000451892" lon="10.895955271613508"><ele>92.16666666666667</ele><time>2026-05-03T09:59:14.966Z</time></trkpt><trkpt lat="45.92861042380164" lon="10.895966841621037"><ele>92.33333333333334</ele><time>2026-05-03T09:59:15.966Z</time></trkpt><trkpt lat="45.92868596454629" lon="10.895978803907687"><ele>92.5</ele><time>2026-05-03T09:59:16.966Z</time></trkpt><trkpt lat="45.92875839366391" lon="10.895990986556862"><ele>92.66666666666667</ele><time>2026-05-03T09:59:17.966Z</time></trkpt><trkpt lat="45.928830946918644" lon="10.896003169386738"><ele>92.83333333333333</ele><time>2026-05-03T09:59:18.966Z</time></trkpt><trkpt lat="45.92890755773" lon="10.896011391439773"><ele>93.0</ele><time>2026-05-03T09:59:19.966Z</time></trkpt><trkpt lat="45.928986346844766" lon="10.896028938611138"><ele>93.0</ele><time>2026-05-03T09:59:20.966Z</time></trkpt><trkpt lat="45.9290710650433" lon="10.896045523156003"><ele>93.0</ele><time>2026-05-03T09:59:21.966Z</time></trkpt><trkpt lat="45.929159083625024" lon="10.896057595582295"><ele>93.0</ele><time>2026-05-03T09:59:22.966Z</time></trkpt><trkpt lat="45.92924193473174" lon="10.896069971590952"><ele>93.0</ele><time>2026-05-03T09:59:23.966Z</time></trkpt><trkpt lat="45.929320113273505" lon="10.89607789311999"><ele>93.0</ele><time>2026-05-03T09:59:24.966Z</time></trkpt><trkpt lat="45.929394462735516" lon="10.896089341725883"><ele>93.0</ele><time>2026-05-03T09:59:25.966Z</time></trkpt><trkpt lat="45.92946426836509" lon="10.896103443182831"><ele>93.71428571428572</ele><time>2026-05-03T09:59:26.966Z</time></trkpt><trkpt lat="45.92953048027833" lon="10.896116054178073"><ele>94.42857142857143</ele><time>2026-05-03T09:59:27.966Z</time></trkpt><trkpt lat="45.929595064873396" lon="10.89613047167965"><ele>95.14285714285714</ele><time>2026-05-03T09:59:28.966Z</time></trkpt><trkpt lat="45.92965888649252" lon="10.896138265625657"><ele>95.85714285714286</ele><time>2026-05-03T09:59:29.966Z</time></trkpt><trkpt lat="45.92972186423544" lon="10.896150639181675"><ele>96.57142857142857</ele><time>2026-05-03T09:59:30.966Z</time></trkpt><trkpt lat="45.92978759214934" lon="10.89616123077902"><ele>97.28571428571429</ele><time>2026-05-03T09:59:31.966Z</time></trkpt><trkpt lat="45.929854057301434" lon="10.896170970508612"><ele>98.0</ele><time>2026-05-03T09:59:32.966Z</time></trkpt><trkpt lat="45.92992752013287" lon="10.896176356913566"><ele>97.99999999999999</ele><time>2026-05-03T09:59:33.966Z</time></trkpt><trkpt lat="45.93000409839354" lon="10.896187348373706"><ele>98.0</ele><time>2026-05-03T09:59:34.966Z</time></trkpt><trkpt lat="45.93008548482956" lon="10.896203125381787"><ele>98.0</ele><time>2026-05-03T09:59:35.966Z</time></trkpt><trkpt lat="45.9301673359523" lon="10.896216233385951"><ele>98.0</ele><time>2026-05-03T09:59:36.966Z</time></trkpt><trkpt lat="45.93024384823005" lon="10.896226220939376"><ele>97.99999999999999</ele><time>2026-05-03T09:59:37.966Z</time></trkpt><trkpt lat="45.93032225181886" lon="10.896238257273291"><ele>98.0</ele><time>2026-05-03T09:59:38.966Z</time></trkpt><trkpt lat="45.93040292967307" lon="10.896247877908706"><ele>97.99999999999999</ele><time>2026-05-03T09:59:39.966Z</time></trkpt><trkpt lat="45.93048708363606" lon="10.896264857257039"><ele>98.0</ele><time>2026-05-03T09:59:40.966Z</time></trkpt><trkpt lat="45.93057053610682" lon="10.896282130053596"><ele>98.0</ele><time>2026-05-03T09:59:41.966Z</time></trkpt><trkpt lat="45.93065109937216" lon="10.896297605899527"><ele>98.0</ele><time>2026-05-03T09:59:42.966Z</time></trkpt><trkpt lat="45.93073195622086" lon="10.896308474518161"><ele>97.99999999999999</ele><time>2026-05-03T09:59:43.966Z</time></trkpt><trkpt lat="45.930816383048025" lon="10.896321207177747"><ele>98.0</ele><time>2026-05-03T09:59:44.966Z</time></trkpt><trkpt lat="45.9309042176245" lon="10.896335593112186"><ele>97.99999999999999</ele><time>2026-05-03T09:59:45.966Z</time></trkpt><trkpt lat="45.93099244401673" lon="10.896349892457746"><ele>98.0</ele><time>2026-05-03T09:59:46.966Z</time></trkpt><trkpt lat="45.93108013693127" lon="10.896351677394142"><ele>98.0</ele><time>2026-05-03T09:59:47.966Z</time></trkpt><trkpt lat="45.931164441423874" lon="10.896401037488683"><ele>98.0</ele><time>2026-05-03T09:59:48.966Z</time></trkpt><trkpt lat="45.93124844875792" lon="10.896416927381113"><ele>97.99999999999999</ele><time>2026-05-03T09:59:49.966Z</time></trkpt><trkpt lat="45.93134089199854" lon="10.896431937217029"><ele>98.0</ele><time>2026-05-03T09:59:50.966Z</time></trkpt><trkpt lat="45.93143915879868" lon="10.896446353765882"><ele>98.0</ele><time>2026-05-03T09:59:51.966Z</time></trkpt><trkpt lat="45.93153491518176" lon="10.89646221478455"><ele>98.0</ele><time>2026-05-03T09:59:52.966Z</time></trkpt><trkpt lat="45.93163131372439" lon="10.896476661661715"><ele>98.0</ele><time>2026-05-03T09:59:53.966Z</time></trkpt><trkpt lat="45.93172679360016" lon="10.896490170983123"><ele>98.0</ele><time>2026-05-03T09:59:54.966Z</time></trkpt><trkpt lat="45.93182481725194" lon="10.896507510774425"><ele>98.0</ele><time>2026-05-03T09:59:55.966Z</time></trkpt><trkpt lat="45.93192585188826" lon="10.896523227698784"><ele>97.2</ele><time>2026-05-03T09:59:56.966Z</time></trkpt><trkpt lat="45.932027910987586" lon="10.896539563202214"><ele>96.4</ele><time>2026-05-03T09:59:57.966Z</time></trkpt><trkpt lat="45.93213184216304" lon="10.896556901217465"><ele>95.60000000000001</ele><time>2026-05-03T09:59:58.966Z</time></trkpt><trkpt lat="45.93223305133692" lon="10.896573449072346"><ele>94.80000000000001</ele><time>2026-05-03T09:59:59.966Z</time></trkpt><trkpt lat="45.93232907762724" lon="10.896595643241646"><ele>94.0</ele><time>2026-05-03T10:00:00.966Z</time></trkpt><trkpt lat="45.93242277281686" lon="10.896620473018105"><ele>94.0</ele><time>2026-05-03T10:00:01.966Z</time></trkpt><trkpt lat="45.93250930033343" lon="10.896646127370671"><ele>94.0</ele><time>2026-05-03T10:00:02.966Z</time></trkpt><trkpt lat="45.93259218281254" lon="10.89667240536531"><ele>94.0</ele><time>2026-05-03T10:00:03.966Z</time></trkpt><trkpt lat="45.93267636847884" lon="10.896700478468064"><ele>94.0</ele><time>2026-05-03T10:00:04.966Z</time></trkpt><trkpt lat="45.93276668612448" lon="10.896737024792566"><ele>94.0</ele><time>2026-05-03T10:00:05.966Z</time></trkpt><trkpt lat="45.93285764174326" lon="10.896771047150974"><ele>94.0</ele><time>2026-05-03T10:00:06.966Z</time></trkpt><trkpt lat="45.93295112320611" lon="10.896808143947014"><ele>94.2</ele><time>2026-05-03T10:00:07.966Z</time></trkpt><trkpt lat="45.93304517583049" lon="10.89684614096854"><ele>94.4</ele><time>2026-05-03T10:00:08.966Z</time></trkpt><trkpt lat="45.93313755946587" lon="10.896892683682678"><ele>94.6</ele><time>2026-05-03T10:00:09.966Z</time></trkpt><trkpt lat="45.933229278195675" lon="10.89693131076207"><ele>94.8</ele><time>2026-05-03T10:00:10.966Z</time></trkpt><trkpt lat="45.93331355545347" lon="10.896968150405"><ele>95.0</ele><time>2026-05-03T10:00:11.966Z</time></trkpt><trkpt lat="45.93339738937206" lon="10.897002684309008"><ele>94.66666666666667</ele><time>2026-05-03T10:00:12.966Z</time></trkpt><trkpt lat="45.9334836240363" lon="10.897038855917012"><ele>94.33333333333334</ele><time>2026-05-03T10:00:13.966Z</time></trkpt><trkpt lat="45.933571016851005" lon="10.897074131083281"><ele>94.0</ele><time>2026-05-03T10:00:14.966Z</time></trkpt><trkpt lat="45.93365353341058" lon="10.897115790932386"><ele>93.66666666666667</ele><time>2026-05-03T10:00:15.966Z</time></trkpt><trkpt lat="45.93373468970617" lon="10.897148882392266"><ele>93.33333333333333</ele><time>2026-05-03T10:00:16.966Z</time></trkpt><trkpt lat="45.93380957016568" lon="10.897181318143296"><ele>93.0</ele><time>2026-05-03T10:00:17.966Z</time></trkpt><trkpt lat="45.933878575192274" lon="10.89721177037462"><ele>93.00000000000001</ele><time>2026-05-03T10:00:18.966Z</time></trkpt><trkpt lat="45.933951362461" lon="10.897247441027154"><ele>93.0</ele><time>2026-05-03T10:00:19.966Z</time></trkpt><trkpt lat="45.934023443677894" lon="10.897285805228295"><ele>93.0</ele><time>2026-05-03T10:00:20.966Z</time></trkpt><trkpt lat="45.934091547775786" lon="10.89731546317464"><ele>93.0</ele><time>2026-05-03T10:00:21.966Z</time></trkpt><trkpt lat="45.934152261278584" lon="10.897346747498533"><ele>93.0</ele><time>2026-05-03T10:00:22.966Z</time></trkpt><trkpt lat="45.93421299835964" lon="10.89737818971501"><ele>93.00000000000001</ele><time>2026-05-03T10:00:23.966Z</time></trkpt><trkpt lat="45.93428345874142" lon="10.89741192580442"><ele>93.0</ele><time>2026-05-03T10:00:24.966Z</time></trkpt><trkpt lat="45.934359089645746" lon="10.897447182654549"><ele>93.2</ele><time>2026-05-03T10:00:25.965Z</time></trkpt><trkpt lat="45.93444453044218" lon="10.897486753171865"><ele>93.4</ele><time>2026-05-03T10:00:26.965Z</time></trkpt><trkpt lat="45.93454361458702" lon="10.897529209029802"><ele>93.60000000000001</ele><time>2026-05-03T10:00:27.965Z</time></trkpt><trkpt lat="45.93465373931543" lon="10.897577088904587"><ele>93.80000000000001</ele><time>2026-05-03T10:00:28.965Z</time></trkpt><trkpt lat="45.93477471077025" lon="10.897631482202895"><ele>94.0</ele><time>2026-05-03T10:00:29.965Z</time></trkpt><trkpt lat="45.93489991866472" lon="10.897686341589164"><ele>93.75</ele><time>2026-05-03T10:00:30.965Z</time></trkpt><trkpt lat="45.935026552377316" lon="10.89774390767468"><ele>93.5</ele><time>2026-05-03T10:00:31.966Z</time></trkpt><trkpt lat="45.935154610455534" lon="10.897804503600677"><ele>93.25</ele><time>2026-05-03T10:00:32.966Z</time></trkpt><trkpt lat="45.93529319742036" lon="10.89786206329437"><ele>93.0</ele><time>2026-05-03T10:00:33.966Z</time></trkpt><trkpt lat="45.93544244046292" lon="10.897926009656324"><ele>93.0</ele><time>2026-05-03T10:00:34.966Z</time></trkpt><trkpt lat="45.93558305023149" lon="10.89799972897718"><ele>93.0</ele><time>2026-05-03T10:00:35.967Z</time></trkpt><trkpt lat="45.93572846037201" lon="10.89806627532992"><ele>93.0</ele><time>2026-05-03T10:00:36.967Z</time></trkpt><trkpt lat="45.93587181085361" lon="10.898143972140621"><ele>92.33333333333333</ele><time>2026-05-03T10:00:37.967Z</time></trkpt><trkpt lat="45.936007244270456" lon="10.898237196444297"><ele>91.66666666666666</ele><time>2026-05-03T10:00:38.967Z</time></trkpt><trkpt lat="45.93613515157442" lon="10.898348962909969"><ele>91.0</ele><time>2026-05-03T10:00:39.967Z</time></trkpt><trkpt lat="45.93625896157984" lon="10.898479364644825"><ele>92.66666666666666</ele><time>2026-05-03T10:00:40.968Z</time></trkpt><trkpt lat="45.936369223298044" lon="10.8986371529519"><ele>94.33333333333333</ele><time>2026-05-03T10:00:41.968Z</time></trkpt><trkpt lat="45.936489439160674" lon="10.898781502964129"><ele>96.0</ele><time>2026-05-03T10:00:42.968Z</time></trkpt><trkpt lat="45.93661257743379" lon="10.89892955540576"><ele>95.66666666666667</ele><time>2026-05-03T10:00:43.968Z</time></trkpt><trkpt lat="45.93673929009193" lon="10.899081905324334"><ele>95.33333333333334</ele><time>2026-05-03T10:00:44.969Z</time></trkpt><trkpt lat="45.936872155882895" lon="10.89924104703776"><ele>95.0</ele><time>2026-05-03T10:00:45.969Z</time></trkpt><trkpt lat="45.937009412311696" lon="10.899404637449274"><ele>96.0</ele><time>2026-05-03T10:00:46.968Z</time></trkpt><trkpt lat="45.93716125971276" lon="10.899556656187391"><ele>97.0</ele><time>2026-05-03T10:00:47.968Z</time></trkpt><trkpt lat="45.937293571483366" lon="10.899741361576323"><ele>98.0</ele><time>2026-05-03T10:00:48.968Z</time></trkpt><trkpt lat="45.937464113004324" lon="10.899895555530728"><ele>97.66666666666666</ele><time>2026-05-03T10:00:49.969Z</time></trkpt><trkpt lat="45.93761751594256" lon="10.9000614849458"><ele>97.33333333333334</ele><time>2026-05-03T10:00:50.969Z</time></trkpt><trkpt lat="45.93779956358506" lon="10.900192106679787"><ele>97.0</ele><time>2026-05-03T10:00:51.969Z</time></trkpt><trkpt lat="45.937998494235494" lon="10.900308883967954"><ele>97.0</ele><time>2026-05-03T10:00:52.969Z</time></trkpt><trkpt lat="45.938175156011596" lon="10.900447002314591"><ele>97.0</ele><time>2026-05-03T10:00:53.969Z</time></trkpt><trkpt lat="45.93835546311135" lon="10.900543729300995"><ele>97.0</ele><time>2026-05-03T10:00:54.969Z</time></trkpt><trkpt lat="45.9385153205002" lon="10.900660037263703"><ele>96.66666666666667</ele><time>2026-05-03T10:00:55.969Z</time></trkpt><trkpt lat="45.938681017681" lon="10.90075365032657"><ele>96.33333333333334</ele><time>2026-05-03T10:00:56.969Z</time></trkpt><trkpt lat="45.938836491104965" lon="10.900831952927541"><ele>96.0</ele><time>2026-05-03T10:00:57.969Z</time></trkpt><trkpt lat="45.9389819868219" lon="10.90089333206279"><ele>96.25</ele><time>2026-05-03T10:00:58.969Z</time></trkpt><trkpt lat="45.93911980493903" lon="10.900950990298224"><ele>96.5</ele><time>2026-05-03T10:00:59.969Z</time></trkpt><trkpt lat="45.9392566418442" lon="10.900993805014814"><ele>96.75</ele><time>2026-05-03T10:01:00.969Z</time></trkpt><trkpt lat="45.93938371662862" lon="10.901030566337603"><ele>97.0</ele><time>2026-05-03T10:01:01.969Z</time></trkpt><trkpt lat="45.93950024264147" lon="10.901060443460848"><ele>97.16666666666667</ele><time>2026-05-03T10:01:02.969Z</time></trkpt><trkpt lat="45.93959812555791" lon="10.901089104084003"><ele>97.33333333333334</ele><time>2026-05-03T10:01:03.969Z</time></trkpt><trkpt lat="45.9396757833559" lon="10.901113462526657"><ele>97.5</ele><time>2026-05-03T10:01:04.969Z</time></trkpt><trkpt lat="45.93975876051091" lon="10.90114720451335"><ele>97.66666666666666</ele><time>2026-05-03T10:01:05.969Z</time></trkpt><trkpt lat="45.939826387465175" lon="10.901177938171598"><ele>97.83333333333333</ele><time>2026-05-03T10:01:06.969Z</time></trkpt><trkpt lat="45.93989976053796" lon="10.901224800094012"><ele>98.0</ele><time>2026-05-03T10:01:07.969Z</time></trkpt><trkpt lat="45.939953131519275" lon="10.901294922355413"><ele>97.99999999999999</ele><time>2026-05-03T10:01:08.969Z</time></trkpt><trkpt lat="45.939997777803" lon="10.90137074884167"><ele>98.0</ele><time>2026-05-03T10:01:09.97Z</time></trkpt><trkpt lat="45.94005631820573" lon="10.901412815049495"><ele>98.0</ele><time>2026-05-03T10:01:10.97Z</time></trkpt><trkpt lat="45.9401233910929" lon="10.901412858158348"><ele>98.0</ele><time>2026-05-03T10:01:11.97Z</time></trkpt><trkpt lat="45.94020508198255" lon="10.901367678793937"><ele>97.99999999999999</ele><time>2026-05-03T10:01:12.97Z</time></trkpt><trkpt lat="45.94029917273887" lon="10.901317446949218"><ele>98.0</ele><time>2026-05-03T10:01:13.97Z</time></trkpt><trkpt lat="45.94040073190656" lon="10.90128967406817"><ele>98.25</ele><time>2026-05-03T10:01:14.97Z</time></trkpt><trkpt lat="45.94051351512977" lon="10.901285560008986"><ele>98.5</ele><time>2026-05-03T10:01:15.97Z</time></trkpt><trkpt lat="45.94063091972628" lon="10.901298015058849"><ele>98.75</ele><time>2026-05-03T10:01:16.97Z</time></trkpt><trkpt lat="45.940756284435786" lon="10.901310357697048"><ele>99.0</ele><time>2026-05-03T10:01:17.97Z</time></trkpt><trkpt lat="45.94088550935001" lon="10.901330231315413"><ele>99.25</ele><time>2026-05-03T10:01:18.97Z</time></trkpt><trkpt lat="45.94102136879868" lon="10.901355273871966"><ele>99.5</ele><time>2026-05-03T10:01:19.97Z</time></trkpt><trkpt lat="45.941162353546055" lon="10.901377215982137"><ele>99.75</ele><time>2026-05-03T10:01:20.97Z</time></trkpt><trkpt lat="45.94128983738601" lon="10.901394992100528"><ele>100.0</ele><time>2026-05-03T10:01:21.97Z</time></trkpt><trkpt lat="45.94140828510056" lon="10.90142944709806"><ele>100.0</ele><time>2026-05-03T10:01:22.97Z</time></trkpt><trkpt lat="45.94153811754304" lon="10.90146114471492"><ele>100.0</ele><time>2026-05-03T10:01:23.97Z</time></trkpt><trkpt lat="45.94166008743552" lon="10.901494336564229"><ele>100.0</ele><time>2026-05-03T10:01:24.97Z</time></trkpt><trkpt lat="45.94177955388824" lon="10.901534762870284"><ele>100.0</ele><time>2026-05-03T10:01:25.97Z</time></trkpt><trkpt lat="45.941903127305494" lon="10.90157811816037"><ele>100.25</ele><time>2026-05-03T10:01:26.97Z</time></trkpt><trkpt lat="45.94202171951788" lon="10.901625599652984"><ele>100.5</ele><time>2026-05-03T10:01:27.97Z</time></trkpt><trkpt lat="45.94213707757633" lon="10.901677418051511"><ele>100.75</ele><time>2026-05-03T10:01:28.97Z</time></trkpt><trkpt lat="45.94225271748251" lon="10.901727909372495"><ele>101.0</ele><time>2026-05-03T10:01:29.97Z</time></trkpt><trkpt lat="45.94237391330326" lon="10.901768799337528"><ele>100.5</ele><time>2026-05-03T10:01:30.97Z</time></trkpt><trkpt lat="45.942501112137165" lon="10.901815332631685"><ele>100.0</ele><time>2026-05-03T10:01:31.97Z</time></trkpt><trkpt lat="45.942629669531314" lon="10.901871989328434"><ele>99.5</ele><time>2026-05-03T10:01:32.97Z</time></trkpt><trkpt lat="45.94276219938655" lon="10.901929681101638"><ele>99.0</ele><time>2026-05-03T10:01:33.97Z</time></trkpt><trkpt lat="45.942899131041074" lon="10.901986187459396"><ele>98.33333333333334</ele><time>2026-05-03T10:01:34.97Z</time></trkpt><trkpt lat="45.94304526204125" lon="10.902036322415686"><ele>97.66666666666667</ele><time>2026-05-03T10:01:35.97Z</time></trkpt><trkpt lat="45.94319442313214" lon="10.902091520039495"><ele>97.0</ele><time>2026-05-03T10:01:36.97Z</time></trkpt><trkpt lat="45.94333595639304" lon="10.902145855345758"><ele>97.5</ele><time>2026-05-03T10:01:37.97Z</time></trkpt><trkpt lat="45.943469111745365" lon="10.902198433040901"><ele>98.0</ele><time>2026-05-03T10:01:38.97Z</time></trkpt><trkpt lat="45.94359984561053" lon="10.902249713131487"><ele>98.5</ele><time>2026-05-03T10:01:39.97Z</time></trkpt><trkpt lat="45.94372682160753" lon="10.90230022637523"><ele>99.0</ele><time>2026-05-03T10:01:40.97Z</time></trkpt><trkpt lat="45.943850068392656" lon="10.902351905155951"><ele>99.0</ele><time>2026-05-03T10:01:41.97Z</time></trkpt><trkpt lat="45.943975359974196" lon="10.902402631607353"><ele>99.0</ele><time>2026-05-03T10:01:42.97Z</time></trkpt><trkpt lat="45.94409781904502" lon="10.902449181813576"><ele>99.0</ele><time>2026-05-03T10:01:43.97Z</time></trkpt><trkpt lat="45.94422108846248" lon="10.902495954037864"><ele>99.0</ele><time>2026-05-03T10:01:44.97Z</time></trkpt><trkpt lat="45.94434462061746" lon="10.902538834382385"><ele>99.5</ele><time>2026-05-03T10:01:45.969Z</time></trkpt><trkpt lat="45.94446704032419" lon="10.902585151229237"><ele>100.0</ele><time>2026-05-03T10:01:46.969Z</time></trkpt><trkpt lat="45.94458418848373" lon="10.902650148419351"><ele>100.5</ele><time>2026-05-03T10:01:47.969Z</time></trkpt><trkpt lat="45.94471552111649" lon="10.902701079456593"><ele>101.0</ele><time>2026-05-03T10:01:48.969Z</time></trkpt><trkpt lat="45.944851174204025" lon="10.902751450990596"><ele>101.0</ele><time>2026-05-03T10:01:49.969Z</time></trkpt><trkpt lat="45.94499045653812" lon="10.90280455772471"><ele>101.0</ele><time>2026-05-03T10:01:50.969Z</time></trkpt><trkpt lat="45.94513521243076" lon="10.902863264117624"><ele>101.0</ele><time>2026-05-03T10:01:51.969Z</time></trkpt><trkpt lat="45.94528281575019" lon="10.902924296560947"><ele>101.0</ele><time>2026-05-03T10:01:52.969Z</time></trkpt><trkpt lat="45.9454394871883" lon="10.90298551016974"><ele>101.33333333333333</ele><time>2026-05-03T10:01:53.969Z</time></trkpt><trkpt lat="45.945602065229366" lon="10.90303165648071"><ele>101.66666666666666</ele><time>2026-05-03T10:01:54.969Z</time></trkpt><trkpt lat="45.945760854757374" lon="10.90311387999238"><ele>102.0</ele><time>2026-05-03T10:01:55.969Z</time></trkpt><trkpt lat="45.94592355238062" lon="10.903185037591937"><ele>102.0</ele><time>2026-05-03T10:01:56.969Z</time></trkpt><trkpt lat="45.9460873635583" lon="10.903247232552175"><ele>102.0</ele><time>2026-05-03T10:01:57.969Z</time></trkpt><trkpt lat="45.94625041602273" lon="10.903317624839568"><ele>102.0</ele><time>2026-05-03T10:01:58.969Z</time></trkpt><trkpt lat="45.94642569207581" lon="10.90338610458805"><ele>102.0</ele><time>2026-05-03T10:01:59.969Z</time></trkpt><trkpt lat="45.94659795322419" lon="10.903467493838077"><ele>102.0</ele><time>2026-05-03T10:02:00.969Z</time></trkpt><trkpt lat="45.94677361451799" lon="10.903548395550137"><ele>102.0</ele><time>2026-05-03T10:02:01.969Z</time></trkpt><trkpt lat="45.946951340473085" lon="10.903625957132311"><ele>102.33333333333334</ele><time>2026-05-03T10:02:02.969Z</time></trkpt><trkpt lat="45.9471341821421" lon="10.903701188527135"><ele>102.66666666666667</ele><time>2026-05-03T10:02:03.969Z</time></trkpt><trkpt lat="45.947320543971415" lon="10.903765213281368"><ele>103.0</ele><time>2026-05-03T10:02:04.969Z</time></trkpt><trkpt lat="45.947507534009354" lon="10.903841177136048"><ele>103.66666666666667</ele><time>2026-05-03T10:02:05.969Z</time></trkpt><trkpt lat="45.947695648471495" lon="10.903919055687172"><ele>104.33333333333334</ele><time>2026-05-03T10:02:06.969Z</time></trkpt><trkpt lat="45.94788924117109" lon="10.904004462368054"><ele>105.0</ele><time>2026-05-03T10:02:07.969Z</time></trkpt><trkpt lat="45.948079200850465" lon="10.9041011679712"><ele>105.0</ele><time>2026-05-03T10:02:08.969Z</time></trkpt><trkpt lat="45.94824916521846" lon="10.904205307710043"><ele>105.0</ele><time>2026-05-03T10:02:09.969Z</time></trkpt><trkpt lat="45.94841879970151" lon="10.904322626492494"><ele>105.0</ele><time>2026-05-03T10:02:10.969Z</time></trkpt><trkpt lat="45.94857845393467" lon="10.904433753673386"><ele>105.0</ele><time>2026-05-03T10:02:11.969Z</time></trkpt><trkpt lat="45.94874562860973" lon="10.904552679476751"><ele>105.0</ele><time>2026-05-03T10:02:12.969Z</time></trkpt><trkpt lat="45.94891478710158" lon="10.90467296546235"><ele>105.0</ele><time>2026-05-03T10:02:13.969Z</time></trkpt><trkpt lat="45.9490884413651" lon="10.904792799997827"><ele>105.33333333333334</ele><time>2026-05-03T10:02:14.969Z</time></trkpt><trkpt lat="45.94925669880911" lon="10.904916127247576"><ele>105.66666666666667</ele><time>2026-05-03T10:02:15.969Z</time></trkpt><trkpt lat="45.94942921942317" lon="10.90504362033691"><ele>106.0</ele><time>2026-05-03T10:02:16.969Z</time></trkpt><trkpt lat="45.94960844747455" lon="10.905170745922355"><ele>106.0</ele><time>2026-05-03T10:02:17.969Z</time></trkpt><trkpt lat="45.94977303876393" lon="10.905288103449598"><ele>106.0</ele><time>2026-05-03T10:02:18.969Z</time></trkpt><trkpt lat="45.94993378381412" lon="10.905402806842751"><ele>106.0</ele><time>2026-05-03T10:02:19.969Z</time></trkpt><trkpt lat="45.95009158423057" lon="10.905517008357865"><ele>107.33333333333334</ele><time>2026-05-03T10:02:20.969Z</time></trkpt><trkpt lat="45.95024681602978" lon="10.905633353918166"><ele>108.66666666666666</ele><time>2026-05-03T10:02:21.969Z</time></trkpt><trkpt lat="45.95039883066741" lon="10.905743295008541"><ele>110.0</ele><time>2026-05-03T10:02:22.969Z</time></trkpt><trkpt lat="45.95054761057223" lon="10.90584995617877"><ele>109.33333333333333</ele><time>2026-05-03T10:02:23.969Z</time></trkpt><trkpt lat="45.950697921473704" lon="10.90595007292847"><ele>108.66666666666666</ele><time>2026-05-03T10:02:24.969Z</time></trkpt><trkpt lat="45.95084916095705" lon="10.90605399266285"><ele>108.0</ele><time>2026-05-03T10:02:25.969Z</time></trkpt><trkpt lat="45.95100754975207" lon="10.90615821417367"><ele>109.66666666666666</ele><time>2026-05-03T10:02:26.969Z</time></trkpt><trkpt lat="45.951168974373516" lon="10.906296641523625"><ele>111.33333333333333</ele><time>2026-05-03T10:02:27.969Z</time></trkpt><trkpt lat="45.95133709283379" lon="10.906419340027572"><ele>113.0</ele><time>2026-05-03T10:02:28.969Z</time></trkpt><trkpt lat="45.95150826517971" lon="10.906543076209955"><ele>113.0</ele><time>2026-05-03T10:02:29.969Z</time></trkpt><trkpt lat="45.95168326491922" lon="10.906666909669843"><ele>113.0</ele><time>2026-05-03T10:02:30.969Z</time></trkpt><trkpt lat="45.95186594481778" lon="10.906796177767292"><ele>113.0</ele><time>2026-05-03T10:02:31.969Z</time></trkpt><trkpt lat="45.952077876783775" lon="10.906947478501753"><ele>111.5</ele><time>2026-05-03T10:02:32.969Z</time></trkpt><trkpt lat="45.95230427207426" lon="10.907108101630893"><ele>110.0</ele><time>2026-05-03T10:02:33.969Z</time></trkpt><trkpt lat="45.95255444904064" lon="10.90728561851259"><ele>109.5</ele><time>2026-05-03T10:02:34.969Z</time></trkpt><trkpt lat="45.95281809392472" lon="10.907472717928961"><ele>109.0</ele><time>2026-05-03T10:02:35.969Z</time></trkpt><trkpt lat="45.953088417131525" lon="10.907664556736982"><ele>109.0</ele><time>2026-05-03T10:02:36.969Z</time></trkpt><trkpt lat="45.953334407468674" lon="10.907839127358708"><ele>109.0</ele><time>2026-05-03T10:02:37.969Z</time></trkpt><trkpt lat="45.95355102225536" lon="10.907992811697772"><ele>109.0</ele><time>2026-05-03T10:02:38.969Z</time></trkpt><trkpt lat="45.953758668235096" lon="10.908140096199775"><ele>109.0</ele><time>2026-05-03T10:02:39.969Z</time></trkpt><trkpt lat="45.95395300868472" lon="10.908279346025568"><ele>109.0</ele><time>2026-05-03T10:02:40.969Z</time></trkpt><trkpt lat="45.95415406826629" lon="10.908366585687023"><ele>110.66666666666667</ele><time>2026-05-03T10:02:41.969Z</time></trkpt><trkpt lat="45.95432652344989" lon="10.9085024806577"><ele>112.33333333333334</ele><time>2026-05-03T10:02:42.969Z</time></trkpt><trkpt lat="45.95449676941713" lon="10.90862530994982"><ele>114.0</ele><time>2026-05-03T10:02:43.969Z</time></trkpt><trkpt lat="45.954667846942236" lon="10.9087510574723"><ele>114.0</ele><time>2026-05-03T10:02:44.969Z</time></trkpt><trkpt lat="45.95484424618663" lon="10.908879155407215"><ele>114.0</ele><time>2026-05-03T10:02:45.969Z</time></trkpt><trkpt lat="45.95501008853691" lon="10.909039250321106"><ele>114.0</ele><time>2026-05-03T10:02:46.969Z</time></trkpt><trkpt lat="45.955192844739834" lon="10.909169016512358"><ele>115.33333333333334</ele><time>2026-05-03T10:02:47.97Z</time></trkpt><trkpt lat="45.955384861711224" lon="10.909305318948515"><ele>116.66666666666667</ele><time>2026-05-03T10:02:48.97Z</time></trkpt><trkpt lat="45.95558283059613" lon="10.909445762808772"><ele>118.0</ele><time>2026-05-03T10:02:49.969Z</time></trkpt><trkpt lat="45.95576403438957" lon="10.90957417595767"><ele>119.0</ele><time>2026-05-03T10:02:50.969Z</time></trkpt><trkpt lat="45.9559379543343" lon="10.909697427241266"><ele>120.0</ele><time>2026-05-03T10:02:51.969Z</time></trkpt><trkpt lat="45.956120559957235" lon="10.909810750708404"><ele>121.0</ele><time>2026-05-03T10:02:52.969Z</time></trkpt><trkpt lat="45.95630585553927" lon="10.90995916468078"><ele>120.5</ele><time>2026-05-03T10:02:53.969Z</time></trkpt><trkpt lat="45.956500966222535" lon="10.910114507722453"><ele>120.0</ele><time>2026-05-03T10:02:54.969Z</time></trkpt><trkpt lat="45.956714237459224" lon="10.910278788505625"><ele>120.0</ele><time>2026-05-03T10:02:55.969Z</time></trkpt><trkpt lat="45.95694503843602" lon="10.910446257300539"><ele>120.0</ele><time>2026-05-03T10:02:56.969Z</time></trkpt><trkpt lat="45.95717226823842" lon="10.910600509206548"><ele>120.0</ele><time>2026-05-03T10:02:57.969Z</time></trkpt><trkpt lat="45.957374621077214" lon="10.910743291245472"><ele>120.0</ele><time>2026-05-03T10:02:58.969Z</time></trkpt><trkpt lat="45.95754655653509" lon="10.910866399890386"><ele>120.0</ele><time>2026-05-03T10:02:59.969Z</time></trkpt><trkpt lat="45.95769418911695" lon="10.910982372936507"><ele>119.5</ele><time>2026-05-03T10:03:00.969Z</time></trkpt><trkpt lat="45.95782578585363" lon="10.911105335673934"><ele>119.0</ele><time>2026-05-03T10:03:01.969Z</time></trkpt><trkpt lat="45.95794839004267" lon="10.911222598285345"><ele>118.5</ele><time>2026-05-03T10:03:02.969Z</time></trkpt><trkpt lat="45.958055727563035" lon="10.911336094913537"><ele>118.0</ele><time>2026-05-03T10:03:03.969Z</time></trkpt><trkpt lat="45.9581495439659" lon="10.911443689645948"><ele>118.0</ele><time>2026-05-03T10:03:04.969Z</time></trkpt><trkpt lat="45.95823174216153" lon="10.911547972581893"><ele>118.00000000000001</ele><time>2026-05-03T10:03:05.969Z</time></trkpt><trkpt lat="45.95831099463965" lon="10.91164138407759"><ele>118.00000000000001</ele><time>2026-05-03T10:03:06.969Z</time></trkpt><trkpt lat="45.95839283280974" lon="10.91172428739717"><ele>118.0</ele><time>2026-05-03T10:03:07.969Z</time></trkpt><trkpt lat="45.95846043551703" lon="10.911803816938548"><ele>118.0</ele><time>2026-05-03T10:03:08.969Z</time></trkpt><trkpt lat="45.958519785094005" lon="10.91188714077227"><ele>118.16666666666667</ele><time>2026-05-03T10:03:09.969Z</time></trkpt><trkpt lat="45.95857927817972" lon="10.911961067552769"><ele>118.33333333333334</ele><time>2026-05-03T10:03:10.969Z</time></trkpt><trkpt lat="45.95863600306946" lon="10.912034244499193"><ele>118.5</ele><time>2026-05-03T10:03:11.969Z</time></trkpt><trkpt lat="45.958681992061" lon="10.912102986857802"><ele>118.66666666666666</ele><time>2026-05-03T10:03:12.969Z</time></trkpt><trkpt lat="45.95875168489884" lon="10.912233802179985"><ele>118.83333333333333</ele><time>2026-05-03T10:03:14.969Z</time></trkpt><trkpt lat="45.95881274721159" lon="10.91235741586303"><ele>119.0</ele><time>2026-05-03T10:03:16.969Z</time></trkpt><trkpt lat="45.95884330292993" lon="10.912444097565878"><ele>119.0</ele><time>2026-05-03T10:03:17.969Z</time></trkpt><trkpt lat="45.95887803549399" lon="10.912537865326295"><ele>119.0</ele><time>2026-05-03T10:03:18.969Z</time></trkpt><trkpt lat="45.95893069777661" lon="10.912623460946737"><ele>119.0</ele><time>2026-05-03T10:03:19.969Z</time></trkpt><trkpt lat="45.95900625727087" lon="10.912689208304982"><ele>119.0</ele><time>2026-05-03T10:03:20.969Z</time></trkpt><trkpt lat="45.9590978759999" lon="10.91274148905114"><ele>119.0</ele><time>2026-05-03T10:03:21.969Z</time></trkpt><trkpt lat="45.9591983893722" lon="10.912818305919508"><ele>120.0</ele><time>2026-05-03T10:03:22.969Z</time></trkpt><trkpt lat="45.959293635038335" lon="10.912928301687883"><ele>121.0</ele><time>2026-05-03T10:03:23.969Z</time></trkpt><trkpt lat="45.95938213348013" lon="10.913042517920845"><ele>122.0</ele><time>2026-05-03T10:03:24.969Z</time></trkpt><trkpt lat="45.959463540163405" lon="10.913166258951113"><ele>123.0</ele><time>2026-05-03T10:03:25.969Z</time></trkpt><trkpt lat="45.95954994185957" lon="10.91328855931714"><ele>123.25</ele><time>2026-05-03T10:03:26.969Z</time></trkpt><trkpt lat="45.95963915020713" lon="10.913414288530138"><ele>123.5</ele><time>2026-05-03T10:03:27.969Z</time></trkpt><trkpt lat="45.95972709635858" lon="10.913532566639754"><ele>123.75</ele><time>2026-05-03T10:03:28.969Z</time></trkpt><trkpt lat="45.95980540219629" lon="10.913642086650965"><ele>124.0</ele><time>2026-05-03T10:03:29.969Z</time></trkpt><trkpt lat="45.959877069878715" lon="10.913744841549127"><ele>124.0</ele><time>2026-05-03T10:03:30.969Z</time></trkpt><trkpt lat="45.95994784096404" lon="10.91384295522349"><ele>124.0</ele><time>2026-05-03T10:03:31.969Z</time></trkpt><trkpt lat="45.96001592252523" lon="10.913938723092445"><ele>124.0</ele><time>2026-05-03T10:03:32.969Z</time></trkpt><trkpt lat="45.96009124144157" lon="10.91403963909591"><ele>124.0</ele><time>2026-05-03T10:03:33.969Z</time></trkpt><trkpt lat="45.960176414094626" lon="10.914153691512952"><ele>124.0</ele><time>2026-05-03T10:03:34.969Z</time></trkpt><trkpt lat="45.96026675905588" lon="10.914275759949472"><ele>123.75</ele><time>2026-05-03T10:03:35.969Z</time></trkpt><trkpt lat="45.96036834293168" lon="10.914405063382928"><ele>123.5</ele><time>2026-05-03T10:03:36.969Z</time></trkpt><trkpt lat="45.96047595197714" lon="10.914553065503915"><ele>123.25</ele><time>2026-05-03T10:03:37.969Z</time></trkpt><trkpt lat="45.96058912142741" lon="10.914716432829175"><ele>123.0</ele><time>2026-05-03T10:03:38.969Z</time></trkpt><trkpt lat="45.960705531856334" lon="10.91488298252902"><ele>123.0</ele><time>2026-05-03T10:03:39.969Z</time></trkpt><trkpt lat="45.96082986603824" lon="10.915053566254844"><ele>123.0</ele><time>2026-05-03T10:03:40.969Z</time></trkpt><trkpt lat="45.96095973567032" lon="10.91522906406152"><ele>123.0</ele><time>2026-05-03T10:03:41.969Z</time></trkpt><trkpt lat="45.96109220589098" lon="10.915416407385067"><ele>123.0</ele><time>2026-05-03T10:03:42.969Z</time></trkpt><trkpt lat="45.96121831053191" lon="10.915601715585579"><ele>123.0</ele><time>2026-05-03T10:03:43.969Z</time></trkpt><trkpt lat="45.96134593000639" lon="10.91578426800601"><ele>123.0</ele><time>2026-05-03T10:03:44.969Z</time></trkpt><trkpt lat="45.961474489738606" lon="10.915963267771604"><ele>123.0</ele><time>2026-05-03T10:03:45.969Z</time></trkpt><trkpt lat="45.96160399980636" lon="10.916140122721051"><ele>123.0</ele><time>2026-05-03T10:03:46.969Z</time></trkpt><trkpt lat="45.96172813489395" lon="10.916313623145687"><ele>123.0</ele><time>2026-05-03T10:03:47.969Z</time></trkpt><trkpt lat="45.96185020670455" lon="10.916483199733468"><ele>123.0</ele><time>2026-05-03T10:03:48.969Z</time></trkpt><trkpt lat="45.96196838881866" lon="10.916649345402664"><ele>123.0</ele><time>2026-05-03T10:03:49.969Z</time></trkpt><trkpt lat="45.96208229952623" lon="10.916809838473373"><ele>123.0</ele><time>2026-05-03T10:03:50.969Z</time></trkpt><trkpt lat="45.96219790682017" lon="10.916970681351962"><ele>122.66666666666666</ele><time>2026-05-03T10:03:51.969Z</time></trkpt><trkpt lat="45.9623144599295" lon="10.917130872803336"><ele>122.33333333333333</ele><time>2026-05-03T10:03:52.969Z</time></trkpt><trkpt lat="45.96243257347607" lon="10.917295257825277"><ele>122.0</ele><time>2026-05-03T10:03:53.969Z</time></trkpt><trkpt lat="45.962552201079525" lon="10.91746462274109"><ele>122.66666666666666</ele><time>2026-05-03T10:03:54.969Z</time></trkpt><trkpt lat="45.962676459758804" lon="10.917639957591758"><ele>123.33333333333334</ele><time>2026-05-03T10:03:55.969Z</time></trkpt><trkpt lat="45.96280734953946" lon="10.917826208851997"><ele>124.0</ele><time>2026-05-03T10:03:56.969Z</time></trkpt><trkpt lat="45.96293163569413" lon="10.91800723950879"><ele>124.0</ele><time>2026-05-03T10:03:57.969Z</time></trkpt><trkpt lat="45.963049422164225" lon="10.918175668826994"><ele>124.0</ele><time>2026-05-03T10:03:58.969Z</time></trkpt><trkpt lat="45.9631635549851" lon="10.918338482895544"><ele>124.0</ele><time>2026-05-03T10:03:59.969Z</time></trkpt><trkpt lat="45.96327492754916" lon="10.918491740536506"><ele>124.33333333333334</ele><time>2026-05-03T10:04:00.969Z</time></trkpt><trkpt lat="45.96338340359837" lon="10.918644637066626"><ele>124.66666666666666</ele><time>2026-05-03T10:04:01.969Z</time></trkpt><trkpt lat="45.96348847383639" lon="10.918793686343436"><ele>125.0</ele><time>2026-05-03T10:04:02.969Z</time></trkpt><trkpt lat="45.963595588112746" lon="10.918945554073595"><ele>125.0</ele><time>2026-05-03T10:04:03.969Z</time></trkpt><trkpt lat="45.963704712726326" lon="10.919101678219059"><ele>125.0</ele><time>2026-05-03T10:04:04.968Z</time></trkpt><trkpt lat="45.96381495212427" lon="10.919260755240769"><ele>125.0</ele><time>2026-05-03T10:04:05.968Z</time></trkpt><trkpt lat="45.963929982607134" lon="10.919421728059108"><ele>125.33333333333333</ele><time>2026-05-03T10:04:06.968Z</time></trkpt><trkpt lat="45.96404692153158" lon="10.91958549154174"><ele>125.66666666666666</ele><time>2026-05-03T10:04:07.968Z</time></trkpt><trkpt lat="45.96415986304215" lon="10.919743664973872"><ele>126.0</ele><time>2026-05-03T10:04:08.968Z</time></trkpt><trkpt lat="45.96427567482189" lon="10.919894485794238"><ele>126.66666666666666</ele><time>2026-05-03T10:04:09.968Z</time></trkpt><trkpt lat="45.964392648985175" lon="10.92005029851136"><ele>127.33333333333333</ele><time>2026-05-03T10:04:10.968Z</time></trkpt><trkpt lat="45.96449606464745" lon="10.920218663341801"><ele>128.0</ele><time>2026-05-03T10:04:11.968Z</time></trkpt><trkpt lat="45.964607719922604" lon="10.920373870257029"><ele>128.0</ele><time>2026-05-03T10:04:12.968Z</time></trkpt><trkpt lat="45.96471992551095" lon="10.92053073055692"><ele>128.0</ele><time>2026-05-03T10:04:13.968Z</time></trkpt><trkpt lat="45.96483290066668" lon="10.920684736188244"><ele>128.0</ele><time>2026-05-03T10:04:14.968Z</time></trkpt><trkpt lat="45.96494384289465" lon="10.920832108992544"><ele>129.25</ele><time>2026-05-03T10:04:15.968Z</time></trkpt><trkpt lat="45.96505875382922" lon="10.920946400643505"><ele>130.5</ele><time>2026-05-03T10:04:16.968Z</time></trkpt><trkpt lat="45.96515704305155" lon="10.921069413749484"><ele>131.75</ele><time>2026-05-03T10:04:17.968Z</time></trkpt><trkpt lat="45.96523335056646" lon="10.921186721568153"><ele>133.0</ele><time>2026-05-03T10:04:18.968Z</time></trkpt><trkpt lat="45.965339102003604" lon="10.921283403360867"><ele>133.0</ele><time>2026-05-03T10:04:19.968Z</time></trkpt><trkpt lat="45.96544574904881" lon="10.921383017206937"><ele>133.0</ele><time>2026-05-03T10:04:20.968Z</time></trkpt><trkpt lat="45.96555134933654" lon="10.92147791682276"><ele>133.0</ele><time>2026-05-03T10:04:21.968Z</time></trkpt><trkpt lat="45.965651640901925" lon="10.92156429965589"><ele>133.0</ele><time>2026-05-03T10:04:22.968Z</time></trkpt><trkpt lat="45.96574753606512" lon="10.921642670763003"><ele>133.0</ele><time>2026-05-03T10:04:23.968Z</time></trkpt><trkpt lat="45.96584612578381" lon="10.921718682457298"><ele>133.0</ele><time>2026-05-03T10:04:24.968Z</time></trkpt><trkpt lat="45.96595395403258" lon="10.921790581490994"><ele>133.0</ele><time>2026-05-03T10:04:25.968Z</time></trkpt><trkpt lat="45.96605473338486" lon="10.921859554292576"><ele>133.0</ele><time>2026-05-03T10:04:26.968Z</time></trkpt><trkpt lat="45.96615235355486" lon="10.921922000921308"><ele>133.0</ele><time>2026-05-03T10:04:27.968Z</time></trkpt><trkpt lat="45.96624743631686" lon="10.921980004670823"><ele>133.0</ele><time>2026-05-03T10:04:28.968Z</time></trkpt><trkpt lat="45.96635202500764" lon="10.922036452177908"><ele>133.0</ele><time>2026-05-03T10:04:29.968Z</time></trkpt><trkpt lat="45.966454602178885" lon="10.922093609082863"><ele>133.0</ele><time>2026-05-03T10:04:30.968Z</time></trkpt><trkpt lat="45.96655131836076" lon="10.922143880907306"><ele>133.0</ele><time>2026-05-03T10:04:31.968Z</time></trkpt><trkpt lat="45.96665879448188" lon="10.922189793276683"><ele>133.0</ele><time>2026-05-03T10:04:32.968Z</time></trkpt><trkpt lat="45.96677283359501" lon="10.922232205998801"><ele>133.0</ele><time>2026-05-03T10:04:33.968Z</time></trkpt><trkpt lat="45.96689355491494" lon="10.922275264587846"><ele>133.0</ele><time>2026-05-03T10:04:34.968Z</time></trkpt><trkpt lat="45.96701829869137" lon="10.922318336767399"><ele>133.0</ele><time>2026-05-03T10:04:35.968Z</time></trkpt><trkpt lat="45.96714278581228" lon="10.922365325576424"><ele>133.0</ele><time>2026-05-03T10:04:36.968Z</time></trkpt><trkpt lat="45.96726673566429" lon="10.922413111007602"><ele>133.0</ele><time>2026-05-03T10:04:37.968Z</time></trkpt><trkpt lat="45.967393934965145" lon="10.92245768421957"><ele>133.0</ele><time>2026-05-03T10:04:38.968Z</time></trkpt><trkpt lat="45.96751349609571" lon="10.922520771370863"><ele>133.0</ele><time>2026-05-03T10:04:39.968Z</time></trkpt><trkpt lat="45.96767412582157" lon="10.922565081677178"><ele>133.0</ele><time>2026-05-03T10:04:40.968Z</time></trkpt><trkpt lat="45.96783224671847" lon="10.922621615813886"><ele>131.66666666666669</ele><time>2026-05-03T10:04:41.968Z</time></trkpt><trkpt lat="45.96799718429859" lon="10.922681643707362"><ele>130.33333333333334</ele><time>2026-05-03T10:04:42.968Z</time></trkpt><trkpt lat="45.96817029915979" lon="10.922742431410013"><ele>129.0</ele><time>2026-05-03T10:04:43.968Z</time></trkpt><trkpt lat="45.96835387226254" lon="10.92280837036564"><ele>130.33333333333334</ele><time>2026-05-03T10:04:44.968Z</time></trkpt><trkpt lat="45.968547415693386" lon="10.922879085880574"><ele>131.66666666666669</ele><time>2026-05-03T10:04:45.968Z</time></trkpt><trkpt lat="45.96874919389229" lon="10.922949901711585"><ele>133.0</ele><time>2026-05-03T10:04:46.968Z</time></trkpt><trkpt lat="45.968953559250664" lon="10.92302239898166"><ele>133.0</ele><time>2026-05-03T10:04:47.968Z</time></trkpt><trkpt lat="45.969154585045395" lon="10.923095774334215"><ele>133.0</ele><time>2026-05-03T10:04:48.968Z</time></trkpt><trkpt lat="45.969357796594686" lon="10.923169014932553"><ele>133.0</ele><time>2026-05-03T10:04:49.968Z</time></trkpt><trkpt lat="45.96956214787946" lon="10.923238307465482"><ele>134.66666666666669</ele><time>2026-05-03T10:04:50.968Z</time></trkpt><trkpt lat="45.969765307885496" lon="10.923315320283079"><ele>136.33333333333334</ele><time>2026-05-03T10:04:51.968Z</time></trkpt><trkpt lat="45.969961849933206" lon="10.92338839169684"><ele>138.0</ele><time>2026-05-03T10:04:52.968Z</time></trkpt><trkpt lat="45.9701432058915" lon="10.923458103564476"><ele>138.33333333333334</ele><time>2026-05-03T10:04:53.968Z</time></trkpt><trkpt lat="45.97030495444124" lon="10.923522027038173"><ele>138.66666666666669</ele><time>2026-05-03T10:04:54.968Z</time></trkpt><trkpt lat="45.97045927960861" lon="10.923577785547641"><ele>139.0</ele><time>2026-05-03T10:04:55.968Z</time></trkpt><trkpt lat="45.97060179368779" lon="10.923626080895778"><ele>139.0</ele><time>2026-05-03T10:04:56.968Z</time></trkpt><trkpt lat="45.97075084395497" lon="10.923676785497147"><ele>139.0</ele><time>2026-05-03T10:04:57.968Z</time></trkpt><trkpt lat="45.97091020961729" lon="10.923729564179775"><ele>139.0</ele><time>2026-05-03T10:04:58.967Z</time></trkpt><trkpt lat="45.97107707506341" lon="10.923788702393276"><ele>139.75</ele><time>2026-05-03T10:04:59.968Z</time></trkpt><trkpt lat="45.97123528687748" lon="10.923857083260481"><ele>140.5</ele><time>2026-05-03T10:05:00.968Z</time></trkpt><trkpt lat="45.97135524320291" lon="10.923947500258492"><ele>141.25</ele><time>2026-05-03T10:05:01.968Z</time></trkpt><trkpt lat="45.97147708091509" lon="10.92401427297723"><ele>142.0</ele><time>2026-05-03T10:05:02.968Z</time></trkpt><trkpt lat="45.97161491213714" lon="10.924065358441169"><ele>142.0</ele><time>2026-05-03T10:05:03.968Z</time></trkpt><trkpt lat="45.971772913348715" lon="10.924120603600848"><ele>142.0</ele><time>2026-05-03T10:05:04.968Z</time></trkpt><trkpt lat="45.97194048300544" lon="10.924173293352485"><ele>142.0</ele><time>2026-05-03T10:05:05.968Z</time></trkpt><trkpt lat="45.972113730648275" lon="10.924231622505593"><ele>142.66666666666669</ele><time>2026-05-03T10:05:06.968Z</time></trkpt><trkpt lat="45.97229583058237" lon="10.924292859484597"><ele>143.33333333333334</ele><time>2026-05-03T10:05:07.968Z</time></trkpt><trkpt lat="45.972479915079006" lon="10.924357857355508"><ele>144.0</ele><time>2026-05-03T10:05:08.968Z</time></trkpt><trkpt lat="45.97266255740134" lon="10.924426132184882"><ele>144.0</ele><time>2026-05-03T10:05:09.968Z</time></trkpt><trkpt lat="45.97284618719777" lon="10.924490255680466"><ele>144.0</ele><time>2026-05-03T10:05:10.968Z</time></trkpt><trkpt lat="45.97303458954463" lon="10.924549017222654"><ele>144.0</ele><time>2026-05-03T10:05:11.968Z</time></trkpt><trkpt lat="45.97321992436912" lon="10.924609502271549"><ele>145.66666666666666</ele><time>2026-05-03T10:05:12.968Z</time></trkpt><trkpt lat="45.97340383563856" lon="10.924664922501895"><ele>147.33333333333331</ele><time>2026-05-03T10:05:13.968Z</time></trkpt><trkpt lat="45.973594682862874" lon="10.924719459954046"><ele>149.0</ele><time>2026-05-03T10:05:14.968Z</time></trkpt><trkpt lat="45.973796892169496" lon="10.924780618350741"><ele>149.0</ele><time>2026-05-03T10:05:15.968Z</time></trkpt><trkpt lat="45.97400484423964" lon="10.924846090597367"><ele>149.0</ele><time>2026-05-03T10:05:16.968Z</time></trkpt><trkpt lat="45.974217902696786" lon="10.924941426369784"><ele>149.0</ele><time>2026-05-03T10:05:17.968Z</time></trkpt><trkpt lat="45.97444121607564" lon="10.925021286391136"><ele>149.5</ele><time>2026-05-03T10:05:18.968Z</time></trkpt><trkpt lat="45.974672723342245" lon="10.925079586218896"><ele>150.0</ele><time>2026-05-03T10:05:19.968Z</time></trkpt><trkpt lat="45.97488614201714" lon="10.925172177676183"><ele>150.0</ele><time>2026-05-03T10:05:20.968Z</time></trkpt><trkpt lat="45.97508315156618" lon="10.925255490091375"><ele>150.0</ele><time>2026-05-03T10:05:21.968Z</time></trkpt><trkpt lat="45.9752645734476" lon="10.925328159161907"><ele>150.0</ele><time>2026-05-03T10:05:22.968Z</time></trkpt><trkpt lat="45.97542806627782" lon="10.925388099044708"><ele>150.0</ele><time>2026-05-03T10:05:23.968Z</time></trkpt><trkpt lat="45.975583126065565" lon="10.925438088561826"><ele>150.0</ele><time>2026-05-03T10:05:24.968Z</time></trkpt><trkpt lat="45.975727142635" lon="10.92548728914829"><ele>150.0</ele><time>2026-05-03T10:05:25.968Z</time></trkpt><trkpt lat="45.97585880009831" lon="10.925531528288438"><ele>150.0</ele><time>2026-05-03T10:05:26.968Z</time></trkpt><trkpt lat="45.97599239414303" lon="10.925557959615013"><ele>151.0</ele><time>2026-05-03T10:05:27.968Z</time></trkpt><trkpt lat="45.97612841153179" lon="10.9255600797599"><ele>152.0</ele><time>2026-05-03T10:05:28.968Z</time></trkpt><trkpt lat="45.97627963666807" lon="10.925526853626515"><ele>153.0</ele><time>2026-05-03T10:05:29.968Z</time></trkpt><trkpt lat="45.97643414288426" lon="10.925461301096657"><ele>153.0</ele><time>2026-05-03T10:05:30.968Z</time></trkpt><trkpt lat="45.97658563829812" lon="10.925404715907568"><ele>153.0</ele><time>2026-05-03T10:05:31.968Z</time></trkpt><trkpt lat="45.97670234909463" lon="10.925315244308672"><ele>153.0</ele><time>2026-05-03T10:05:32.968Z</time></trkpt><trkpt lat="45.97681829534402" lon="10.925243299743876"><ele>153.0</ele><time>2026-05-03T10:05:33.968Z</time></trkpt><trkpt lat="45.976925823094255" lon="10.925174507836429"><ele>154.5</ele><time>2026-05-03T10:05:34.968Z</time></trkpt><trkpt lat="45.97703618244969" lon="10.925097095652065"><ele>156.0</ele><time>2026-05-03T10:05:35.968Z</time></trkpt><trkpt lat="45.97714514795673" lon="10.925028711988903"><ele>157.5</ele><time>2026-05-03T10:05:36.968Z</time></trkpt><trkpt lat="45.97724621665506" lon="10.924958722302009"><ele>159.0</ele><time>2026-05-03T10:05:37.968Z</time></trkpt><trkpt lat="45.97733446087924" lon="10.924859166654484"><ele>159.2</ele><time>2026-05-03T10:05:38.968Z</time></trkpt><trkpt lat="45.97741960446238" lon="10.924749572622865"><ele>159.4</ele><time>2026-05-03T10:05:39.968Z</time></trkpt><trkpt lat="45.97749795274615" lon="10.924636817061062"><ele>159.6</ele><time>2026-05-03T10:05:40.968Z</time></trkpt><trkpt lat="45.977567044826" lon="10.924531497801622"><ele>159.8</ele><time>2026-05-03T10:05:41.968Z</time></trkpt><trkpt lat="45.97763101554816" lon="10.924434274165394"><ele>160.0</ele><time>2026-05-03T10:05:42.968Z</time></trkpt><trkpt lat="45.97769789275007" lon="10.924332077198995"><ele>159.25</ele><time>2026-05-03T10:05:43.968Z</time></trkpt><trkpt lat="45.977769719753574" lon="10.924225016450695"><ele>158.5</ele><time>2026-05-03T10:05:44.968Z</time></trkpt><trkpt lat="45.97784874399462" lon="10.924106217386472"><ele>157.75</ele><time>2026-05-03T10:05:45.968Z</time></trkpt><trkpt lat="45.97793254947308" lon="10.923986120558682"><ele>157.0</ele><time>2026-05-03T10:05:46.968Z</time></trkpt><trkpt lat="45.97801994119152" lon="10.923860455523101"><ele>157.0</ele><time>2026-05-03T10:05:47.968Z</time></trkpt><trkpt lat="45.97811443570905" lon="10.923733755014776"><ele>157.0</ele><time>2026-05-03T10:05:48.968Z</time></trkpt><trkpt lat="45.978218566345426" lon="10.923616135229747"><ele>157.0</ele><time>2026-05-03T10:05:49.968Z</time></trkpt><trkpt lat="45.97833345952167" lon="10.923513332220232"><ele>157.0</ele><time>2026-05-03T10:05:50.968Z</time></trkpt><trkpt lat="45.978451619533544" lon="10.923442870188778"><ele>161.25</ele><time>2026-05-03T10:05:51.968Z</time></trkpt><trkpt lat="45.9785678437878" lon="10.92337582749892"><ele>165.5</ele><time>2026-05-03T10:05:52.968Z</time></trkpt><trkpt lat="45.97868538963874" lon="10.923333381439845"><ele>169.75</ele><time>2026-05-03T10:05:53.968Z</time></trkpt><trkpt lat="45.97880456552864" lon="10.923307474446213"><ele>174.0</ele><time>2026-05-03T10:05:54.968Z</time></trkpt><trkpt lat="45.978935030350506" lon="10.923289953292725"><ele>174.0</ele><time>2026-05-03T10:05:55.968Z</time></trkpt><trkpt lat="45.97907103656493" lon="10.923279369890938"><ele>174.0</ele><time>2026-05-03T10:05:56.968Z</time></trkpt><trkpt lat="45.979203271527666" lon="10.923287320690905"><ele>174.0</ele><time>2026-05-03T10:05:57.968Z</time></trkpt><trkpt lat="45.97933987879442" lon="10.923307985128398"><ele>174.0</ele><time>2026-05-03T10:05:58.968Z</time></trkpt><trkpt lat="45.97947034990211" lon="10.923344274409503"><ele>175.0</ele><time>2026-05-03T10:05:59.968Z</time></trkpt><trkpt lat="45.97958539160607" lon="10.923386023472721"><ele>176.0</ele><time>2026-05-03T10:06:00.968Z</time></trkpt><trkpt lat="45.97968920013937" lon="10.923466424490815"><ele>177.0</ele><time>2026-05-03T10:06:01.968Z</time></trkpt><trkpt lat="45.97980277274981" lon="10.923516623582207"><ele>178.0</ele><time>2026-05-03T10:06:02.968Z</time></trkpt><trkpt lat="45.979910770377884" lon="10.923558875154228"><ele>175.25</ele><time>2026-05-03T10:06:03.968Z</time></trkpt><trkpt lat="45.98001754775074" lon="10.923600656321245"><ele>172.5</ele><time>2026-05-03T10:06:04.968Z</time></trkpt><trkpt lat="45.98012455749566" lon="10.923652195298835"><ele>169.75</ele><time>2026-05-03T10:06:05.968Z</time></trkpt><trkpt lat="45.980233278223615" lon="10.923698208839703"><ele>167.0</ele><time>2026-05-03T10:06:06.968Z</time></trkpt><trkpt lat="45.980342645654346" lon="10.923749821064332"><ele>167.0</ele><time>2026-05-03T10:06:07.968Z</time></trkpt><trkpt lat="45.98044656880077" lon="10.923806467523272"><ele>167.0</ele><time>2026-05-03T10:06:08.968Z</time></trkpt><trkpt lat="45.98055298369363" lon="10.923868286805316"><ele>167.0</ele><time>2026-05-03T10:06:09.968Z</time></trkpt><trkpt lat="45.9806625846797" lon="10.923930527611914"><ele>167.0</ele><time>2026-05-03T10:06:10.968Z</time></trkpt><trkpt lat="45.98078791037319" lon="10.923998470859042"><ele>169.0</ele><time>2026-05-03T10:06:11.968Z</time></trkpt><trkpt lat="45.98093224448279" lon="10.924073907268312"><ele>171.0</ele><time>2026-05-03T10:06:12.968Z</time></trkpt><trkpt lat="45.981084691884725" lon="10.92421481472019"><ele>173.0</ele><time>2026-05-03T10:06:13.968Z</time></trkpt><trkpt lat="45.981252126887384" lon="10.924324114687973"><ele>173.0</ele><time>2026-05-03T10:06:14.968Z</time></trkpt><trkpt lat="45.98141574315076" lon="10.92443441135058"><ele>173.0</ele><time>2026-05-03T10:06:15.968Z</time></trkpt><trkpt lat="45.9815686422313" lon="10.924536485858228"><ele>173.0</ele><time>2026-05-03T10:06:16.968Z</time></trkpt><trkpt lat="45.981713372013274" lon="10.924621454872478"><ele>173.66666666666666</ele><time>2026-05-03T10:06:17.967Z</time></trkpt><trkpt lat="45.98184819712072" lon="10.92469801911016"><ele>174.33333333333334</ele><time>2026-05-03T10:06:18.967Z</time></trkpt><trkpt lat="45.98198674236722" lon="10.924784819382705"><ele>175.0</ele><time>2026-05-03T10:06:19.967Z</time></trkpt><trkpt lat="45.982131243699484" lon="10.924872541173709"><ele>175.0</ele><time>2026-05-03T10:06:20.967Z</time></trkpt><trkpt lat="45.98227988809159" lon="10.9249661613786"><ele>175.0</ele><time>2026-05-03T10:06:21.967Z</time></trkpt><trkpt lat="45.982423247797726" lon="10.925052495468831"><ele>175.0</ele><time>2026-05-03T10:06:22.967Z</time></trkpt><trkpt lat="45.98255900661115" lon="10.925127265978844"><ele>175.5</ele><time>2026-05-03T10:06:23.967Z</time></trkpt><trkpt lat="45.982687330937054" lon="10.925191867213092"><ele>176.0</ele><time>2026-05-03T10:06:24.967Z</time></trkpt><trkpt lat="45.98281651590688" lon="10.92527575633071"><ele>176.5</ele><time>2026-05-03T10:06:25.967Z</time></trkpt><trkpt lat="45.9829514744423" lon="10.92535875187651"><ele>177.0</ele><time>2026-05-03T10:06:26.967Z</time></trkpt><trkpt lat="45.98310263414464" lon="10.925444961295852"><ele>177.0</ele><time>2026-05-03T10:06:27.967Z</time></trkpt><trkpt lat="45.98326950636284" lon="10.925551440534203"><ele>177.0</ele><time>2026-05-03T10:06:28.967Z</time></trkpt><trkpt lat="45.98344994845071" lon="10.925661155355971"><ele>177.0</ele><time>2026-05-03T10:06:29.967Z</time></trkpt><trkpt lat="45.98364356231481" lon="10.925764352552317"><ele>178.0</ele><time>2026-05-03T10:06:30.967Z</time></trkpt><trkpt lat="45.98384542658495" lon="10.925912757583648"><ele>179.0</ele><time>2026-05-03T10:06:31.967Z</time></trkpt><trkpt lat="45.98406289123405" lon="10.926024961944057"><ele>180.0</ele><time>2026-05-03T10:06:32.967Z</time></trkpt><trkpt lat="45.98426301811275" lon="10.926167691362371"><ele>181.0</ele><time>2026-05-03T10:06:33.967Z</time></trkpt><trkpt lat="45.984453287611544" lon="10.926287919869567"><ele>182.0</ele><time>2026-05-03T10:06:34.967Z</time></trkpt><trkpt lat="45.984635677664635" lon="10.92639746295024"><ele>182.0</ele><time>2026-05-03T10:06:35.967Z</time></trkpt><trkpt lat="45.98480269472847" lon="10.926497953402125"><ele>182.0</ele><time>2026-05-03T10:06:36.967Z</time></trkpt><trkpt lat="45.98495295966082" lon="10.926592066411805"><ele>182.0</ele><time>2026-05-03T10:06:37.967Z</time></trkpt><trkpt lat="45.98509167788747" lon="10.926679337110626"><ele>181.5</ele><time>2026-05-03T10:06:38.967Z</time></trkpt><trkpt lat="45.98522054597425" lon="10.926760341420723"><ele>181.0</ele><time>2026-05-03T10:06:39.967Z</time></trkpt><trkpt lat="45.98534431147051" lon="10.92684280698041"><ele>180.5</ele><time>2026-05-03T10:06:40.967Z</time></trkpt><trkpt lat="45.985474937533695" lon="10.926910619089114"><ele>180.0</ele><time>2026-05-03T10:06:41.967Z</time></trkpt><trkpt lat="45.9856153206674" lon="10.926953511037299"><ele>180.0</ele><time>2026-05-03T10:06:42.967Z</time></trkpt><trkpt lat="45.985771104254574" lon="10.926968212656204"><ele>180.0</ele><time>2026-05-03T10:06:43.967Z</time></trkpt><trkpt lat="45.98595152213596" lon="10.926945171609667"><ele>180.0</ele><time>2026-05-03T10:06:44.967Z</time></trkpt><trkpt lat="45.98615693888812" lon="10.92695500042143"><ele>183.5</ele><time>2026-05-03T10:06:45.967Z</time></trkpt><trkpt lat="45.98639525626791" lon="10.9269540212345"><ele>187.0</ele><time>2026-05-03T10:06:46.967Z</time></trkpt><trkpt lat="45.98665362413693" lon="10.92693329289286"><ele>187.0</ele><time>2026-05-03T10:06:47.967Z</time></trkpt><trkpt lat="45.98692824386394" lon="10.92695966600951"><ele>187.0</ele><time>2026-05-03T10:06:48.967Z</time></trkpt><trkpt lat="45.98722516576586" lon="10.92697283724698"><ele>189.0</ele><time>2026-05-03T10:06:49.967Z</time></trkpt><trkpt lat="45.98753925613971" lon="10.926973100775445"><ele>191.0</ele><time>2026-05-03T10:06:50.967Z</time></trkpt><trkpt lat="45.98784462298498" lon="10.92696067031577"><ele>191.0</ele><time>2026-05-03T10:06:51.967Z</time></trkpt><trkpt lat="45.988105096846695" lon="10.926932812131712"><ele>191.0</ele><time>2026-05-03T10:06:52.967Z</time></trkpt><trkpt lat="45.98834783504428" lon="10.926914584928449"><ele>190.5</ele><time>2026-05-03T10:06:53.967Z</time></trkpt><trkpt lat="45.98857671783672" lon="10.926899129236185"><ele>190.0</ele><time>2026-05-03T10:06:54.967Z</time></trkpt><trkpt lat="45.988797065636376" lon="10.926885739182355"><ele>190.0</ele><time>2026-05-03T10:06:55.967Z</time></trkpt><trkpt lat="45.98902580559627" lon="10.92683434326471"><ele>190.0</ele><time>2026-05-03T10:06:56.967Z</time></trkpt><trkpt lat="45.989232926799126" lon="10.926727923911816"><ele>193.66666666666669</ele><time>2026-05-03T10:06:57.967Z</time></trkpt><trkpt lat="45.98942603451626" lon="10.926605017616652"><ele>197.33333333333334</ele><time>2026-05-03T10:06:58.967Z</time></trkpt><trkpt lat="45.989616476308605" lon="10.926458223085284"><ele>201.0</ele><time>2026-05-03T10:06:59.967Z</time></trkpt><trkpt lat="45.98980070191914" lon="10.92628827045508"><ele>201.0</ele><time>2026-05-03T10:07:00.967Z</time></trkpt><trkpt lat="45.98995869776782" lon="10.926140296679712"><ele>201.0</ele><time>2026-05-03T10:07:01.967Z</time></trkpt><trkpt lat="45.99010654817178" lon="10.926033672040576"><ele>201.0</ele><time>2026-05-03T10:07:02.967Z</time></trkpt><trkpt lat="45.990251841584374" lon="10.925996356926564"><ele>203.33333333333331</ele><time>2026-05-03T10:07:03.967Z</time></trkpt><trkpt lat="45.990416475781096" lon="10.926021853982903"><ele>205.66666666666666</ele><time>2026-05-03T10:07:04.967Z</time></trkpt><trkpt lat="45.99059874950458" lon="10.926098411751067"><ele>208.0</ele><time>2026-05-03T10:07:05.967Z</time></trkpt><trkpt lat="45.990797711815766" lon="10.926230059035984"><ele>210.0</ele><time>2026-05-03T10:07:06.967Z</time></trkpt><trkpt lat="45.99098674914966" lon="10.926347953627937"><ele>212.0</ele><time>2026-05-03T10:07:07.967Z</time></trkpt><trkpt lat="45.99115353596043" lon="10.926444976722436"><ele>214.0</ele><time>2026-05-03T10:07:08.967Z</time></trkpt><trkpt lat="45.99130760539364" lon="10.926535669766375"><ele>214.0</ele><time>2026-05-03T10:07:09.967Z</time></trkpt><trkpt lat="45.99148434514234" lon="10.926606484269172"><ele>214.0</ele><time>2026-05-03T10:07:10.967Z</time></trkpt><trkpt lat="45.991667042199815" lon="10.926662893832269"><ele>214.0</ele><time>2026-05-03T10:07:11.966Z</time></trkpt><trkpt lat="45.99184771418719" lon="10.92669195486504"><ele>215.0</ele><time>2026-05-03T10:07:12.966Z</time></trkpt><trkpt lat="45.99204672041631" lon="10.926671640900201"><ele>216.0</ele><time>2026-05-03T10:07:13.966Z</time></trkpt><trkpt lat="45.992243762112714" lon="10.926659613208555"><ele>217.0</ele><time>2026-05-03T10:07:14.966Z</time></trkpt><trkpt lat="45.99242475974716" lon="10.926652919014524"><ele>217.0</ele><time>2026-05-03T10:07:15.966Z</time></trkpt><trkpt lat="45.99259171629326" lon="10.926650427375213"><ele>217.0</ele><time>2026-05-03T10:07:16.966Z</time></trkpt><trkpt lat="45.99275181822721" lon="10.92664538392443"><ele>217.0</ele><time>2026-05-03T10:07:17.966Z</time></trkpt><trkpt lat="45.99290452015404" lon="10.926647795543534"><ele>217.0</ele><time>2026-05-03T10:07:18.966Z</time></trkpt><trkpt lat="45.993057222187524" lon="10.92664922564222"><ele>217.0</ele><time>2026-05-03T10:07:19.966Z</time></trkpt><trkpt lat="45.99320714405435" lon="10.926643974698028"><ele>217.0</ele><time>2026-05-03T10:07:20.966Z</time></trkpt><trkpt lat="45.993346578174595" lon="10.926644002307249"><ele>217.0</ele><time>2026-05-03T10:07:21.966Z</time></trkpt><trkpt lat="45.99347656232484" lon="10.926643657280975"><ele>217.0</ele><time>2026-05-03T10:07:22.966Z</time></trkpt><trkpt lat="45.99360991921093" lon="10.926656950744798"><ele>217.0</ele><time>2026-05-03T10:07:23.966Z</time></trkpt><trkpt lat="45.993745809346734" lon="10.926661002914788"><ele>217.0</ele><time>2026-05-03T10:07:24.966Z</time></trkpt><trkpt lat="45.993892047194024" lon="10.926652183392386"><ele>217.0</ele><time>2026-05-03T10:07:25.966Z</time></trkpt><trkpt lat="45.99403867919696" lon="10.926653273892201"><ele>217.66666666666666</ele><time>2026-05-03T10:07:26.966Z</time></trkpt><trkpt lat="45.99419085591315" lon="10.926649612386973"><ele>218.33333333333331</ele><time>2026-05-03T10:07:27.966Z</time></trkpt><trkpt lat="45.99434587738166" lon="10.926652462819"><ele>219.0</ele><time>2026-05-03T10:07:28.966Z</time></trkpt><trkpt lat="45.99450664362803" lon="10.926649574457079"><ele>219.0</ele><time>2026-05-03T10:07:29.966Z</time></trkpt><trkpt lat="45.994667582261435" lon="10.926648992108724"><ele>219.0</ele><time>2026-05-03T10:07:30.966Z</time></trkpt><trkpt lat="45.99482932663052" lon="10.926652931177893"><ele>219.0</ele><time>2026-05-03T10:07:31.966Z</time></trkpt><trkpt lat="45.994988381719196" lon="10.926652996216083"><ele>220.0</ele><time>2026-05-03T10:07:32.966Z</time></trkpt><trkpt lat="45.99514097076195" lon="10.926652789043905"><ele>221.0</ele><time>2026-05-03T10:07:33.966Z</time></trkpt><trkpt lat="45.995291581806924" lon="10.926650826703373"><ele>222.0</ele><time>2026-05-03T10:07:34.966Z</time></trkpt><trkpt lat="45.99544247773507" lon="10.92665214741411"><ele>222.0</ele><time>2026-05-03T10:07:35.966Z</time></trkpt><trkpt lat="45.995597885192346" lon="10.926641558912069"><ele>222.0</ele><time>2026-05-03T10:07:36.966Z</time></trkpt><trkpt lat="45.995752428045876" lon="10.926623071533767"><ele>222.0</ele><time>2026-05-03T10:07:37.966Z</time></trkpt><trkpt lat="45.995908260282455" lon="10.926592552235702"><ele>221.66666666666669</ele><time>2026-05-03T10:07:38.966Z</time></trkpt><trkpt lat="45.9960636348904" lon="10.926564470578315"><ele>221.33333333333334</ele><time>2026-05-03T10:07:39.966Z</time></trkpt><trkpt lat="45.996219108528294" lon="10.926533714262186"><ele>221.0</ele><time>2026-05-03T10:07:40.966Z</time></trkpt><trkpt lat="45.99637487541346" lon="10.926509592485209"><ele>221.0</ele><time>2026-05-03T10:07:41.966Z</time></trkpt><trkpt lat="45.99653320791784" lon="10.926476756159543"><ele>221.0</ele><time>2026-05-03T10:07:42.966Z</time></trkpt><trkpt lat="45.99668930453804" lon="10.926447637441068"><ele>221.0</ele><time>2026-05-03T10:07:43.966Z</time></trkpt><trkpt lat="45.996834945173845" lon="10.926407029740526"><ele>221.33333333333334</ele><time>2026-05-03T10:07:44.966Z</time></trkpt><trkpt lat="45.99697674157198" lon="10.926344413768293"><ele>221.66666666666669</ele><time>2026-05-03T10:07:45.966Z</time></trkpt><trkpt lat="45.997112963465916" lon="10.92624129465235"><ele>222.0</ele><time>2026-05-03T10:07:46.966Z</time></trkpt><trkpt lat="45.99724632282514" lon="10.926110657847664"><ele>222.0</ele><time>2026-05-03T10:07:47.966Z</time></trkpt><trkpt lat="45.997373460608756" lon="10.925964051130277"><ele>222.0</ele><time>2026-05-03T10:07:48.966Z</time></trkpt><trkpt lat="45.997494611421416" lon="10.925825894404818"><ele>222.0</ele><time>2026-05-03T10:07:49.966Z</time></trkpt><trkpt lat="45.997620972607756" lon="10.925687849914251"><ele>221.66666666666669</ele><time>2026-05-03T10:07:50.966Z</time></trkpt><trkpt lat="45.997756867097976" lon="10.925566960815367"><ele>221.33333333333334</ele><time>2026-05-03T10:07:51.966Z</time></trkpt><trkpt lat="45.99790905570839" lon="10.92547861729541"><ele>221.0</ele><time>2026-05-03T10:07:52.966Z</time></trkpt><trkpt lat="45.99808075924349" lon="10.925443581665686"><ele>221.0</ele><time>2026-05-03T10:07:53.966Z</time></trkpt><trkpt lat="45.998262870927746" lon="10.925438895436555"><ele>221.0</ele><time>2026-05-03T10:07:54.966Z</time></trkpt><trkpt lat="45.99844062079598" lon="10.925427768497801"><ele>221.0</ele><time>2026-05-03T10:07:55.966Z</time></trkpt><trkpt lat="45.998636318456484" lon="10.925409651759779"><ele>221.66666666666669</ele><time>2026-05-03T10:07:56.966Z</time></trkpt><trkpt lat="45.99883840000153" lon="10.925383330920235"><ele>222.33333333333331</ele><time>2026-05-03T10:07:57.966Z</time></trkpt><trkpt lat="45.99902562440406" lon="10.925364628640956"><ele>223.0</ele><time>2026-05-03T10:07:58.966Z</time></trkpt><trkpt lat="45.999201337940455" lon="10.925345781244431"><ele>223.5</ele><time>2026-05-03T10:07:59.966Z</time></trkpt><trkpt lat="45.999362036114086" lon="10.92533359534162"><ele>224.0</ele><time>2026-05-03T10:08:00.966Z</time></trkpt><trkpt lat="45.999508263098114" lon="10.92532151317676"><ele>224.5</ele><time>2026-05-03T10:08:01.966Z</time></trkpt><trkpt lat="45.999647354972055" lon="10.92531357639982"><ele>225.0</ele><time>2026-05-03T10:08:02.966Z</time></trkpt><trkpt lat="45.999783373014694" lon="10.925304322182019"><ele>225.0</ele><time>2026-05-03T10:08:03.966Z</time></trkpt><trkpt lat="45.9999109968064" lon="10.925285010503298"><ele>225.0</ele><time>2026-05-03T10:08:04.966Z</time></trkpt><trkpt lat="46.000044231732346" lon="10.925275629038314"><ele>225.0</ele><time>2026-05-03T10:08:05.966Z</time></trkpt><trkpt lat="46.00019053913157" lon="10.925264222624618"><ele>225.0</ele><time>2026-05-03T10:08:06.966Z</time></trkpt><trkpt lat="46.00034181660456" lon="10.925264998437477"><ele>225.0</ele><time>2026-05-03T10:08:07.966Z</time></trkpt><trkpt lat="46.00049959161454" lon="10.925264469091317"><ele>225.0</ele><time>2026-05-03T10:08:08.966Z</time></trkpt><trkpt lat="46.000663276659985" lon="10.925256107661562"><ele>225.0</ele><time>2026-05-03T10:08:09.966Z</time></trkpt><trkpt lat="46.000838562641654" lon="10.92525015333566"><ele>225.0</ele><time>2026-05-03T10:08:10.966Z</time></trkpt><trkpt lat="46.00101093642081" lon="10.925271890372901"><ele>225.0</ele><time>2026-05-03T10:08:11.966Z</time></trkpt><trkpt lat="46.00118931467241" lon="10.925346344666055"><ele>225.0</ele><time>2026-05-03T10:08:12.966Z</time></trkpt><trkpt lat="46.001364519494736" lon="10.925483280973642"><ele>225.0</ele><time>2026-05-03T10:08:13.966Z</time></trkpt><trkpt lat="46.00153169220532" lon="10.925650377581562"><ele>225.0</ele><time>2026-05-03T10:08:14.966Z</time></trkpt><trkpt lat="46.001699090660736" lon="10.92583833124016"><ele>225.0</ele><time>2026-05-03T10:08:15.966Z</time></trkpt><trkpt lat="46.00185758590789" lon="10.926017521872634"><ele>225.33333333333331</ele><time>2026-05-03T10:08:16.966Z</time></trkpt><trkpt lat="46.002006417642555" lon="10.926212779664347"><ele>225.66666666666666</ele><time>2026-05-03T10:08:17.966Z</time></trkpt><trkpt lat="46.00212841985327" lon="10.926453731595418"><ele>226.0</ele><time>2026-05-03T10:08:18.966Z</time></trkpt><trkpt lat="46.002222270166165" lon="10.926699107104278"><ele>227.0</ele><time>2026-05-03T10:08:19.966Z</time></trkpt><trkpt lat="46.00230384763297" lon="10.926932450106918"><ele>228.0</ele><time>2026-05-03T10:08:20.966Z</time></trkpt><trkpt lat="46.00238670248494" lon="10.927141616618659"><ele>229.0</ele><time>2026-05-03T10:08:21.966Z</time></trkpt><trkpt lat="46.002462872128845" lon="10.927341671687469"><ele>229.0</ele><time>2026-05-03T10:08:22.966Z</time></trkpt><trkpt lat="46.00253675425435" lon="10.927527615105856"><ele>229.0</ele><time>2026-05-03T10:08:23.966Z</time></trkpt><trkpt lat="46.00261740213502" lon="10.927717375350966"><ele>229.0</ele><time>2026-05-03T10:08:24.966Z</time></trkpt><trkpt lat="46.002699908467186" lon="10.927916614455944"><ele>229.0</ele><time>2026-05-03T10:08:25.966Z</time></trkpt><trkpt lat="46.00278314100882" lon="10.928125624812965"><ele>229.0</ele><time>2026-05-03T10:08:26.966Z</time></trkpt><trkpt lat="46.002868052455774" lon="10.928350529455368"><ele>229.0</ele><time>2026-05-03T10:08:27.966Z</time></trkpt><trkpt lat="46.00295048643616" lon="10.92859146518045"><ele>230.66666666666666</ele><time>2026-05-03T10:08:28.965Z</time></trkpt><trkpt lat="46.00302692366532" lon="10.92883336336861"><ele>232.33333333333331</ele><time>2026-05-03T10:08:29.965Z</time></trkpt><trkpt lat="46.00310039789978" lon="10.929052141296825"><ele>234.0</ele><time>2026-05-03T10:08:30.965Z</time></trkpt><trkpt lat="46.003167131412965" lon="10.929247139951189"><ele>235.0</ele><time>2026-05-03T10:08:31.965Z</time></trkpt><trkpt lat="46.0032151204919" lon="10.929437947867246"><ele>236.0</ele><time>2026-05-03T10:08:32.965Z</time></trkpt><trkpt lat="46.00324159310488" lon="10.929650676995252"><ele>237.0</ele><time>2026-05-03T10:08:33.965Z</time></trkpt><trkpt lat="46.003238012718576" lon="10.929886469173933"><ele>238.0</ele><time>2026-05-03T10:08:34.965Z</time></trkpt><trkpt lat="46.0032292353885" lon="10.930131950599852"><ele>239.0</ele><time>2026-05-03T10:08:35.965Z</time></trkpt><trkpt lat="46.003226252018166" lon="10.930386650033054"><ele>240.0</ele><time>2026-05-03T10:08:36.965Z</time></trkpt><trkpt lat="46.00322432500984" lon="10.930649898063237"><ele>243.0</ele><time>2026-05-03T10:08:37.965Z</time></trkpt><trkpt lat="46.00322305728793" lon="10.930906646392359"><ele>246.0</ele><time>2026-05-03T10:08:38.965Z</time></trkpt><trkpt lat="46.00321271083527" lon="10.931158480658576"><ele>249.0</ele><time>2026-05-03T10:08:39.965Z</time></trkpt><trkpt lat="46.00325544527176" lon="10.931414847433778"><ele>249.0</ele><time>2026-05-03T10:08:40.965Z</time></trkpt><trkpt lat="46.003315693009625" lon="10.931676105283916"><ele>249.0</ele><time>2026-05-03T10:08:41.965Z</time></trkpt><trkpt lat="46.00340891107878" lon="10.931935186799997"><ele>249.0</ele><time>2026-05-03T10:08:42.965Z</time></trkpt><trkpt lat="46.003523220858064" lon="10.932179619918"><ele>250.33333333333331</ele><time>2026-05-03T10:08:43.965Z</time></trkpt><trkpt lat="46.00366429546518" lon="10.932416306484894"><ele>251.66666666666666</ele><time>2026-05-03T10:08:44.965Z</time></trkpt><trkpt lat="46.00383093994802" lon="10.932620093991135"><ele>253.0</ele><time>2026-05-03T10:08:45.965Z</time></trkpt><trkpt lat="46.00401743871592" lon="10.93278981229115"><ele>246.5</ele><time>2026-05-03T10:08:46.965Z</time></trkpt><trkpt lat="46.0042258534878" lon="10.932917190399012"><ele>240.0</ele><time>2026-05-03T10:08:47.965Z</time></trkpt><trkpt lat="46.00444367759032" lon="10.933026443275379"><ele>240.0</ele><time>2026-05-03T10:08:48.965Z</time></trkpt><trkpt lat="46.00465441834792" lon="10.93314317748179"><ele>240.0</ele><time>2026-05-03T10:08:49.965Z</time></trkpt><trkpt lat="46.00484347865635" lon="10.933256318193626"><ele>240.0</ele><time>2026-05-03T10:08:50.965Z</time></trkpt><trkpt lat="46.00503342244711" lon="10.933358439206057"><ele>241.33333333333331</ele><time>2026-05-03T10:08:51.965Z</time></trkpt><trkpt lat="46.005220838679264" lon="10.933455294151232"><ele>242.66666666666666</ele><time>2026-05-03T10:08:52.965Z</time></trkpt><trkpt lat="46.005402203593206" lon="10.933541200355007"><ele>244.0</ele><time>2026-05-03T10:08:53.965Z</time></trkpt><trkpt lat="46.00557518385536" lon="10.933628186718348"><ele>244.0</ele><time>2026-05-03T10:08:54.965Z</time></trkpt><trkpt lat="46.00572804213546" lon="10.933706736902572"><ele>244.0</ele><time>2026-05-03T10:08:55.965Z</time></trkpt><trkpt lat="46.005873770838726" lon="10.933770683246305"><ele>244.0</ele><time>2026-05-03T10:08:56.965Z</time></trkpt><trkpt lat="46.006013889999686" lon="10.933809736187438"><ele>243.75</ele><time>2026-05-03T10:08:57.965Z</time></trkpt><trkpt lat="46.00615656674003" lon="10.933806754186953"><ele>243.5</ele><time>2026-05-03T10:08:58.965Z</time></trkpt><trkpt lat="46.00629941291035" lon="10.933779176083247"><ele>243.25</ele><time>2026-05-03T10:08:59.965Z</time></trkpt><trkpt lat="46.006438765413364" lon="10.933737434049041"><ele>243.0</ele><time>2026-05-03T10:09:00.965Z</time></trkpt><trkpt lat="46.00657716785658" lon="10.933692273797003"><ele>241.75</ele><time>2026-05-03T10:09:01.965Z</time></trkpt><trkpt lat="46.00670935621161" lon="10.933647589956358"><ele>240.5</ele><time>2026-05-03T10:09:02.965Z</time></trkpt><trkpt lat="46.006851456181735" lon="10.933597889738127"><ele>239.25</ele><time>2026-05-03T10:09:03.965Z</time></trkpt><trkpt lat="46.006990078941314" lon="10.933549394926182"><ele>238.0</ele><time>2026-05-03T10:09:04.966Z</time></trkpt><trkpt lat="46.00713090551102" lon="10.93351010876201"><ele>238.0</ele><time>2026-05-03T10:09:05.966Z</time></trkpt><trkpt lat="46.007264476883215" lon="10.93349264082037"><ele>238.0</ele><time>2026-05-03T10:09:06.965Z</time></trkpt><trkpt lat="46.007396971078386" lon="10.933515980714386"><ele>238.0</ele><time>2026-05-03T10:09:07.966Z</time></trkpt><trkpt lat="46.00752485529849" lon="10.933590442099003"><ele>238.0</ele><time>2026-05-03T10:09:08.965Z</time></trkpt><trkpt lat="46.0076365359372" lon="10.93370294871961"><ele>239.0</ele><time>2026-05-03T10:09:09.965Z</time></trkpt><trkpt lat="46.00772157903456" lon="10.933866661719497"><ele>240.0</ele><time>2026-05-03T10:09:10.966Z</time></trkpt><trkpt lat="46.00778365122544" lon="10.934052064411414"><ele>241.0</ele><time>2026-05-03T10:09:11.965Z</time></trkpt><trkpt lat="46.007827994428276" lon="10.934261156409326"><ele>242.0</ele><time>2026-05-03T10:09:12.965Z</time></trkpt><trkpt lat="46.007871859967494" lon="10.93447663002456"><ele>242.0</ele><time>2026-05-03T10:09:13.966Z</time></trkpt><trkpt lat="46.0079201996539" lon="10.934668800253936"><ele>242.0</ele><time>2026-05-03T10:09:14.965Z</time></trkpt><trkpt lat="46.007974114255354" lon="10.934852679911565"><ele>242.0</ele><time>2026-05-03T10:09:15.965Z</time></trkpt><trkpt lat="46.00803511804215" lon="10.935024379535765"><ele>242.0</ele><time>2026-05-03T10:09:16.966Z</time></trkpt><trkpt lat="46.00811185408138" lon="10.935180184590884"><ele>241.25</ele><time>2026-05-03T10:09:17.965Z</time></trkpt><trkpt lat="46.008216942439795" lon="10.93530909374202"><ele>240.5</ele><time>2026-05-03T10:09:18.965Z</time></trkpt><trkpt lat="46.008338615096086" lon="10.935415417018355"><ele>239.75</ele><time>2026-05-03T10:09:19.965Z</time></trkpt><trkpt lat="46.008486140263685" lon="10.935492448480929"><ele>239.0</ele><time>2026-05-03T10:09:20.965Z</time></trkpt><trkpt lat="46.00864479177109" lon="10.935571015985788"><ele>241.0</ele><time>2026-05-03T10:09:21.965Z</time></trkpt><trkpt lat="46.008810065122056" lon="10.935661235775296"><ele>243.0</ele><time>2026-05-03T10:09:22.965Z</time></trkpt><trkpt lat="46.00897760052316" lon="10.935758494972369"><ele>245.0</ele><time>2026-05-03T10:09:23.965Z</time></trkpt><trkpt lat="46.009158303352365" lon="10.935858215594534"><ele>244.66666666666669</ele><time>2026-05-03T10:09:24.965Z</time></trkpt><trkpt lat="46.00932888373127" lon="10.935971635388706"><ele>244.33333333333331</ele><time>2026-05-03T10:09:25.965Z</time></trkpt><trkpt lat="46.00950056887436" lon="10.936095843157275"><ele>244.0</ele><time>2026-05-03T10:09:26.965Z</time></trkpt><trkpt lat="46.00967660235316" lon="10.936227985363542"><ele>244.0</ele><time>2026-05-03T10:09:27.965Z</time></trkpt><trkpt lat="46.009849110232395" lon="10.936343387737322"><ele>244.0</ele><time>2026-05-03T10:09:28.965Z</time></trkpt><trkpt lat="46.01001023865825" lon="10.93643681552462"><ele>244.0</ele><time>2026-05-03T10:09:29.965Z</time></trkpt><trkpt lat="46.01016524384423" lon="10.936522734180985"><ele>244.0</ele><time>2026-05-03T10:09:30.965Z</time></trkpt><trkpt lat="46.0103109017119" lon="10.936606393694833"><ele>244.0</ele><time>2026-05-03T10:09:31.965Z</time></trkpt><trkpt lat="46.01045436066651" lon="10.93669277552053"><ele>244.0</ele><time>2026-05-03T10:09:32.965Z</time></trkpt><trkpt lat="46.01059570393733" lon="10.93677465191485"><ele>244.0</ele><time>2026-05-03T10:09:33.965Z</time></trkpt><trkpt lat="46.01074251737768" lon="10.936851567632216"><ele>244.0</ele><time>2026-05-03T10:09:34.965Z</time></trkpt><trkpt lat="46.010896735855326" lon="10.93690482011805"><ele>244.0</ele><time>2026-05-03T10:09:35.965Z</time></trkpt><trkpt lat="46.01105588398598" lon="10.936935122956331"><ele>244.0</ele><time>2026-05-03T10:09:36.965Z</time></trkpt><trkpt lat="46.01123453331321" lon="10.936932829154534"><ele>244.0</ele><time>2026-05-03T10:09:37.965Z</time></trkpt><trkpt lat="46.011395794706935" lon="10.936932967686822"><ele>244.0</ele><time>2026-05-03T10:09:38.965Z</time></trkpt><trkpt lat="46.01154624073753" lon="10.93696760088677"><ele>245.0</ele><time>2026-05-03T10:09:39.965Z</time></trkpt><trkpt lat="46.01169600740984" lon="10.937066988847397"><ele>246.0</ele><time>2026-05-03T10:09:40.965Z</time></trkpt><trkpt lat="46.01184123381941" lon="10.937209584948725"><ele>247.0</ele><time>2026-05-03T10:09:41.965Z</time></trkpt><trkpt lat="46.01196470854324" lon="10.937384753712818"><ele>245.0</ele><time>2026-05-03T10:09:42.965Z</time></trkpt><trkpt lat="46.01209595347784" lon="10.93755392767506"><ele>243.0</ele><time>2026-05-03T10:09:43.965Z</time></trkpt><trkpt lat="46.01224501380396" lon="10.937707976191776"><ele>241.0</ele><time>2026-05-03T10:09:44.965Z</time></trkpt><trkpt lat="46.01238667934652" lon="10.937840047171488"><ele>242.33333333333331</ele><time>2026-05-03T10:09:45.965Z</time></trkpt><trkpt lat="46.01252331292053" lon="10.937964440846535"><ele>243.66666666666669</ele><time>2026-05-03T10:09:46.965Z</time></trkpt><trkpt lat="46.0126503623546" lon="10.93808339498564"><ele>245.0</ele><time>2026-05-03T10:09:47.965Z</time></trkpt><trkpt lat="46.01276761985102" lon="10.938192661509325"><ele>245.0</ele><time>2026-05-03T10:09:48.965Z</time></trkpt><trkpt lat="46.01286180187486" lon="10.93833510290886"><ele>245.0</ele><time>2026-05-03T10:09:49.965Z</time></trkpt><trkpt lat="46.01296151252062" lon="10.938488125241017"><ele>245.0</ele><time>2026-05-03T10:09:50.965Z</time></trkpt><trkpt lat="46.01306818209226" lon="10.938672504986977"><ele>245.0</ele><time>2026-05-03T10:09:51.965Z</time></trkpt><trkpt lat="46.01317178645484" lon="10.93883939848759"><ele>245.0</ele><time>2026-05-03T10:09:52.965Z</time></trkpt><trkpt lat="46.01327106836617" lon="10.938999717494953"><ele>245.0</ele><time>2026-05-03T10:09:53.965Z</time></trkpt><trkpt lat="46.01336915601446" lon="10.939145631748776"><ele>245.0</ele><time>2026-05-03T10:09:54.965Z</time></trkpt><trkpt lat="46.013473995176945" lon="10.939281008275637"><ele>245.0</ele><time>2026-05-03T10:09:55.965Z</time></trkpt><trkpt lat="46.01358565274241" lon="10.939395518423021"><ele>245.0</ele><time>2026-05-03T10:09:56.965Z</time></trkpt><trkpt lat="46.01371007169287" lon="10.939510211885834"><ele>245.0</ele><time>2026-05-03T10:09:57.965Z</time></trkpt><trkpt lat="46.0138418352683" lon="10.939615441713007"><ele>245.0</ele><time>2026-05-03T10:09:58.965Z</time></trkpt><trkpt lat="46.0139755377051" lon="10.939720868515279"><ele>245.0</ele><time>2026-05-03T10:09:59.965Z</time></trkpt><trkpt lat="46.01411033743547" lon="10.939821429515755"><ele>245.0</ele><time>2026-05-03T10:10:00.965Z</time></trkpt><trkpt lat="46.01425138431884" lon="10.939971665647473"><ele>245.0</ele><time>2026-05-03T10:10:01.965Z</time></trkpt><trkpt lat="46.0144361697473" lon="10.940020262821244"><ele>244.5</ele><time>2026-05-03T10:10:02.965Z</time></trkpt><trkpt lat="46.01459999252673" lon="10.940056608599438"><ele>244.0</ele><time>2026-05-03T10:10:03.965Z</time></trkpt><trkpt lat="46.01473805638725" lon="10.940092489724725"><ele>243.5</ele><time>2026-05-03T10:10:04.965Z</time></trkpt><trkpt lat="46.01483906794283" lon="10.940139338153966"><ele>243.0</ele><time>2026-05-03T10:10:05.965Z</time></trkpt><trkpt lat="46.014934165755" lon="10.94021343359583"><ele>243.0</ele><time>2026-05-03T10:10:06.965Z</time></trkpt><trkpt lat="46.015009561247" lon="10.940282457868033"><ele>243.0</ele><time>2026-05-03T10:10:07.965Z</time></trkpt><trkpt lat="46.01509204324663" lon="10.940375928312388"><ele>243.0</ele><time>2026-05-03T10:10:08.965Z</time></trkpt><trkpt lat="46.015235007899484" lon="10.940459013769429"><ele>243.0</ele><time>2026-05-03T10:10:09.965Z</time></trkpt><trkpt lat="46.0153340594142" lon="10.940600063600424"><ele>243.0</ele><time>2026-05-03T10:10:10.965Z</time></trkpt><trkpt lat="46.015446601590334" lon="10.940723374769645"><ele>243.0</ele><time>2026-05-03T10:10:11.965Z</time></trkpt><trkpt lat="46.01556654896357" lon="10.940837786374246"><ele>243.0</ele><time>2026-05-03T10:10:12.965Z</time></trkpt><trkpt lat="46.01569635637499" lon="10.94093101516116"><ele>243.0</ele><time>2026-05-03T10:10:13.965Z</time></trkpt><trkpt lat="46.015819180773924" lon="10.941034010278093"><ele>243.75</ele><time>2026-05-03T10:10:14.965Z</time></trkpt><trkpt lat="46.015938987576746" lon="10.941136054673063"><ele>244.5</ele><time>2026-05-03T10:10:15.965Z</time></trkpt><trkpt lat="46.016060474236916" lon="10.94123789976581"><ele>245.25</ele><time>2026-05-03T10:10:16.965Z</time></trkpt><trkpt lat="46.01617989925507" lon="10.94132947158111"><ele>246.0</ele><time>2026-05-03T10:10:17.965Z</time></trkpt><trkpt lat="46.016295207309824" lon="10.941412844757284"><ele>246.0</ele><time>2026-05-03T10:10:18.965Z</time></trkpt><trkpt lat="46.016392137424255" lon="10.941518797757933"><ele>246.0</ele><time>2026-05-03T10:10:19.965Z</time></trkpt><trkpt lat="46.01649080277447" lon="10.941600626042906"><ele>246.0</ele><time>2026-05-03T10:10:20.965Z</time></trkpt><trkpt lat="46.01658823122003" lon="10.94168213049887"><ele>246.0</ele><time>2026-05-03T10:10:21.965Z</time></trkpt><trkpt lat="46.01669038158316" lon="10.941765932535812"><ele>246.25</ele><time>2026-05-03T10:10:22.965Z</time></trkpt><trkpt lat="46.01680725805872" lon="10.941831591062947"><ele>246.5</ele><time>2026-05-03T10:10:23.965Z</time></trkpt><trkpt lat="46.01691845948241" lon="10.941923104777041"><ele>246.75</ele><time>2026-05-03T10:10:24.965Z</time></trkpt><trkpt lat="46.01705132437962" lon="10.941969918742133"><ele>247.0</ele><time>2026-05-03T10:10:25.965Z</time></trkpt><trkpt lat="46.0171986998808" lon="10.94198893289807"><ele>247.0</ele><time>2026-05-03T10:10:26.965Z</time></trkpt><trkpt lat="46.0173590744415" lon="10.941996500822372"><ele>247.0</ele><time>2026-05-03T10:10:27.965Z</time></trkpt><trkpt lat="46.01751877260188" lon="10.94200475188369"><ele>247.0</ele><time>2026-05-03T10:10:28.965Z</time></trkpt><trkpt lat="46.01767009525474" lon="10.942014571999028"><ele>247.66666666666666</ele><time>2026-05-03T10:10:29.965Z</time></trkpt><trkpt lat="46.017821552951276" lon="10.942011735389237"><ele>248.33333333333331</ele><time>2026-05-03T10:10:30.965Z</time></trkpt><trkpt lat="46.01797664163861" lon="10.941973841337274"><ele>249.0</ele><time>2026-05-03T10:10:31.965Z</time></trkpt><trkpt lat="46.01812678118132" lon="10.941890095247539"><ele>249.0</ele><time>2026-05-03T10:10:32.965Z</time></trkpt><trkpt lat="46.018268885799706" lon="10.941777293968213"><ele>249.0</ele><time>2026-05-03T10:10:33.965Z</time></trkpt><trkpt lat="46.01839824397408" lon="10.94167464879961"><ele>249.0</ele><time>2026-05-03T10:10:34.965Z</time></trkpt><trkpt lat="46.018527230063285" lon="10.94158388722764"><ele>250.5</ele><time>2026-05-03T10:10:35.965Z</time></trkpt><trkpt lat="46.018656091619974" lon="10.941481528656906"><ele>252.0</ele><time>2026-05-03T10:10:36.965Z</time></trkpt><trkpt lat="46.0187781532137" lon="10.941376018073653"><ele>253.5</ele><time>2026-05-03T10:10:37.964Z</time></trkpt><trkpt lat="46.018893066519986" lon="10.941274751996422"><ele>255.0</ele><time>2026-05-03T10:10:38.964Z</time></trkpt><trkpt lat="46.01900792391104" lon="10.941194992218472"><ele>255.0</ele><time>2026-05-03T10:10:39.964Z</time></trkpt><trkpt lat="46.019132466958965" lon="10.94115406394866"><ele>255.0</ele><time>2026-05-03T10:10:40.964Z</time></trkpt><trkpt lat="46.01927528837956" lon="10.941146872826755"><ele>255.0</ele><time>2026-05-03T10:10:41.964Z</time></trkpt><trkpt lat="46.01941753980352" lon="10.941177167380557"><ele>255.0</ele><time>2026-05-03T10:10:42.964Z</time></trkpt><trkpt lat="46.01955771710514" lon="10.941221059800833"><ele>254.5</ele><time>2026-05-03T10:10:43.964Z</time></trkpt><trkpt lat="46.01968956711291" lon="10.94127979926714"><ele>254.0</ele><time>2026-05-03T10:10:44.964Z</time></trkpt><trkpt lat="46.019826018735884" lon="10.941350587110573"><ele>253.5</ele><time>2026-05-03T10:10:45.964Z</time></trkpt><trkpt lat="46.01996270460086" lon="10.941437652736388"><ele>253.0</ele><time>2026-05-03T10:10:46.964Z</time></trkpt><trkpt lat="46.02010512948466" lon="10.941541177324035"><ele>255.0</ele><time>2026-05-03T10:10:47.964Z</time></trkpt><trkpt lat="46.02025608338325" lon="10.941649393901757"><ele>257.0</ele><time>2026-05-03T10:10:48.964Z</time></trkpt><trkpt lat="46.02041039606823" lon="10.941762129741086"><ele>259.0</ele><time>2026-05-03T10:10:49.964Z</time></trkpt><trkpt lat="46.020565550617995" lon="10.941867568153773"><ele>259.0</ele><time>2026-05-03T10:10:50.964Z</time></trkpt><trkpt lat="46.02070829955314" lon="10.941966351331795"><ele>259.0</ele><time>2026-05-03T10:10:51.964Z</time></trkpt><trkpt lat="46.02084646521257" lon="10.94205662322672"><ele>259.0</ele><time>2026-05-03T10:10:52.964Z</time></trkpt><trkpt lat="46.02097807958269" lon="10.942140774989143"><ele>258.0</ele><time>2026-05-03T10:10:53.964Z</time></trkpt><trkpt lat="46.021097138010084" lon="10.942229022296882"><ele>257.0</ele><time>2026-05-03T10:10:54.964Z</time></trkpt><trkpt lat="46.02121593432867" lon="10.942319875942852"><ele>256.0</ele><time>2026-05-03T10:10:55.964Z</time></trkpt><trkpt lat="46.02133080812205" lon="10.942401210954282"><ele>255.0</ele><time>2026-05-03T10:10:56.964Z</time></trkpt><trkpt lat="46.02145517891703" lon="10.942486740439572"><ele>254.75</ele><time>2026-05-03T10:10:57.964Z</time></trkpt><trkpt lat="46.021572747488605" lon="10.942568665857044"><ele>254.5</ele><time>2026-05-03T10:10:58.964Z</time></trkpt><trkpt lat="46.02168013817106" lon="10.942646955857091"><ele>254.25</ele><time>2026-05-03T10:10:59.964Z</time></trkpt><trkpt lat="46.02178478480754" lon="10.942717880033504"><ele>254.0</ele><time>2026-05-03T10:11:00.964Z</time></trkpt><trkpt lat="46.021894051289046" lon="10.942790921465408"><ele>254.0</ele><time>2026-05-03T10:11:01.964Z</time></trkpt><trkpt lat="46.02200800022768" lon="10.942869661039223"><ele>254.0</ele><time>2026-05-03T10:11:02.964Z</time></trkpt><trkpt lat="46.02212328815598" lon="10.942947979098813"><ele>254.0</ele><time>2026-05-03T10:11:03.964Z</time></trkpt><trkpt lat="46.0222446330891" lon="10.943025903328621"><ele>254.0</ele><time>2026-05-03T10:11:04.964Z</time></trkpt><trkpt lat="46.02236518822824" lon="10.9431076603819"><ele>254.25</ele><time>2026-05-03T10:11:05.964Z</time></trkpt><trkpt lat="46.022488566235694" lon="10.943191323642148"><ele>254.5</ele><time>2026-05-03T10:11:06.964Z</time></trkpt><trkpt lat="46.022617025992226" lon="10.943276708811734"><ele>254.75</ele><time>2026-05-03T10:11:07.964Z</time></trkpt><trkpt lat="46.0227372925076" lon="10.943383471603697"><ele>255.0</ele><time>2026-05-03T10:11:08.964Z</time></trkpt><trkpt lat="46.02287520137685" lon="10.943469201002571"><ele>254.75</ele><time>2026-05-03T10:11:09.964Z</time></trkpt><trkpt lat="46.0230030660094" lon="10.943562463864566"><ele>254.5</ele><time>2026-05-03T10:11:10.965Z</time></trkpt><trkpt lat="46.02313381246403" lon="10.943652773405763"><ele>254.25</ele><time>2026-05-03T10:11:11.965Z</time></trkpt><trkpt lat="46.02325715305111" lon="10.94373545759988"><ele>254.0</ele><time>2026-05-03T10:11:12.965Z</time></trkpt><trkpt lat="46.02337429374655" lon="10.943806666061617"><ele>254.0</ele><time>2026-05-03T10:11:13.965Z</time></trkpt><trkpt lat="46.02349072795434" lon="10.943882822675874"><ele>254.0</ele><time>2026-05-03T10:11:14.964Z</time></trkpt><trkpt lat="46.02360763192542" lon="10.943968602355346"><ele>254.0</ele><time>2026-05-03T10:11:15.964Z</time></trkpt><trkpt lat="46.023723946401475" lon="10.944048472062295"><ele>254.0</ele><time>2026-05-03T10:11:16.965Z</time></trkpt><trkpt lat="46.02384171301266" lon="10.944122242921374"><ele>254.0</ele><time>2026-05-03T10:11:17.964Z</time></trkpt><trkpt lat="46.023968307452996" lon="10.944191393328774"><ele>254.0</ele><time>2026-05-03T10:11:18.964Z</time></trkpt><trkpt lat="46.02408883716775" lon="10.944306906382094"><ele>254.0</ele><time>2026-05-03T10:11:19.964Z</time></trkpt><trkpt lat="46.02422254937533" lon="10.944380898332593"><ele>254.0</ele><time>2026-05-03T10:11:20.965Z</time></trkpt><trkpt lat="46.02436180035097" lon="10.944453746206955"><ele>253.33333333333334</ele><time>2026-05-03T10:11:21.965Z</time></trkpt><trkpt lat="46.024510000209176" lon="10.944501709256127"><ele>252.66666666666669</ele><time>2026-05-03T10:11:22.964Z</time></trkpt><trkpt lat="46.024655373625066" lon="10.944580226177457"><ele>252.0</ele><time>2026-05-03T10:11:23.965Z</time></trkpt><trkpt lat="46.02480616328034" lon="10.944650378638526"><ele>252.0</ele><time>2026-05-03T10:11:24.965Z</time></trkpt><trkpt lat="46.024961240102755" lon="10.944703871702217"><ele>252.0</ele><time>2026-05-03T10:11:25.965Z</time></trkpt><trkpt lat="46.025103360302296" lon="10.944753786367219"><ele>252.0</ele><time>2026-05-03T10:11:26.965Z</time></trkpt><trkpt lat="46.02523703251553" lon="10.944823646360295"><ele>252.0</ele><time>2026-05-03T10:11:27.965Z</time></trkpt><trkpt lat="46.02537768159441" lon="10.944871486858581"><ele>252.0</ele><time>2026-05-03T10:11:28.965Z</time></trkpt><trkpt lat="46.02551518458124" lon="10.944915937052142"><ele>252.0</ele><time>2026-05-03T10:11:29.965Z</time></trkpt><trkpt lat="46.02565106566248" lon="10.944935968748565"><ele>252.0</ele><time>2026-05-03T10:11:30.965Z</time></trkpt><trkpt lat="46.02578131273956" lon="10.944995002271671"><ele>252.0</ele><time>2026-05-03T10:11:31.965Z</time></trkpt><trkpt lat="46.02591991365831" lon="10.945040042178436"><ele>251.5</ele><time>2026-05-03T10:11:32.965Z</time></trkpt><trkpt lat="46.026059069065994" lon="10.945077245722702"><ele>251.0</ele><time>2026-05-03T10:11:33.965Z</time></trkpt><trkpt lat="46.02620180752457" lon="10.94511692528555"><ele>250.5</ele><time>2026-05-03T10:11:34.965Z</time></trkpt><trkpt lat="46.02634525712766" lon="10.945158304063488"><ele>250.0</ele><time>2026-05-03T10:11:35.965Z</time></trkpt><trkpt lat="46.026489549317105" lon="10.945198632250664"><ele>250.0</ele><time>2026-05-03T10:11:36.965Z</time></trkpt><trkpt lat="46.02662898799316" lon="10.945230135766817"><ele>250.0</ele><time>2026-05-03T10:11:37.965Z</time></trkpt><trkpt lat="46.02676405414611" lon="10.945264385124888"><ele>250.0</ele><time>2026-05-03T10:11:38.965Z</time></trkpt><trkpt lat="46.02688514323098" lon="10.945305443579164"><ele>250.0</ele><time>2026-05-03T10:11:39.965Z</time></trkpt><trkpt lat="46.027002328031195" lon="10.94533945205667"><ele>250.0</ele><time>2026-05-03T10:11:40.965Z</time></trkpt><trkpt lat="46.02711012227814" lon="10.945369897603593"><ele>250.0</ele><time>2026-05-03T10:11:41.965Z</time></trkpt><trkpt lat="46.02721676100605" lon="10.945392936261234"><ele>250.0</ele><time>2026-05-03T10:11:42.965Z</time></trkpt><trkpt lat="46.02733702977304" lon="10.945420660904839"><ele>250.0</ele><time>2026-05-03T10:11:43.965Z</time></trkpt><trkpt lat="46.027458530931014" lon="10.945444910007502"><ele>250.25</ele><time>2026-05-03T10:11:44.964Z</time></trkpt><trkpt lat="46.027589574274145" lon="10.945475877662108"><ele>250.5</ele><time>2026-05-03T10:11:45.964Z</time></trkpt><trkpt lat="46.027722217894585" lon="10.945509633068657"><ele>250.75</ele><time>2026-05-03T10:11:46.964Z</time></trkpt><trkpt lat="46.027854586425995" lon="10.945529006512377"><ele>251.0</ele><time>2026-05-03T10:11:47.964Z</time></trkpt><trkpt lat="46.02800011199337" lon="10.945561757726068"><ele>251.0</ele><time>2026-05-03T10:11:48.964Z</time></trkpt><trkpt lat="46.02814704214891" lon="10.945592457682457"><ele>251.0</ele><time>2026-05-03T10:11:49.964Z</time></trkpt><trkpt lat="46.028297290171665" lon="10.945629522414759"><ele>251.0</ele><time>2026-05-03T10:11:50.964Z</time></trkpt><trkpt lat="46.02844156236101" lon="10.945663000453571"><ele>251.0</ele><time>2026-05-03T10:11:51.964Z</time></trkpt><trkpt lat="46.02858575273338" lon="10.945695410574444"><ele>250.5</ele><time>2026-05-03T10:11:52.964Z</time></trkpt><trkpt lat="46.02872880077233" lon="10.945721914518623"><ele>250.0</ele><time>2026-05-03T10:11:53.964Z</time></trkpt><trkpt lat="46.028859345697015" lon="10.945751600244941"><ele>249.5</ele><time>2026-05-03T10:11:54.964Z</time></trkpt><trkpt lat="46.028979096204395" lon="10.94577837383546"><ele>249.0</ele><time>2026-05-03T10:11:55.964Z</time></trkpt><trkpt lat="46.02909027851663" lon="10.945806768141676"><ele>249.25</ele><time>2026-05-03T10:11:56.964Z</time></trkpt><trkpt lat="46.02920364551747" lon="10.94584228393822"><ele>249.5</ele><time>2026-05-03T10:11:57.964Z</time></trkpt><trkpt lat="46.02932135174655" lon="10.945890263070405"><ele>249.75</ele><time>2026-05-03T10:11:58.964Z</time></trkpt><trkpt lat="46.02944976223626" lon="10.945916415938006"><ele>250.0</ele><time>2026-05-03T10:11:59.964Z</time></trkpt><trkpt lat="46.029589761034714" lon="10.945927832266205"><ele>250.0</ele><time>2026-05-03T10:12:00.964Z</time></trkpt><trkpt lat="46.029741420471574" lon="10.945954728506232"><ele>250.0</ele><time>2026-05-03T10:12:01.964Z</time></trkpt><trkpt lat="46.029918427042425" lon="10.94599394597074"><ele>250.0</ele><time>2026-05-03T10:12:02.964Z</time></trkpt><trkpt lat="46.03011243771241" lon="10.946037233907084"><ele>249.0</ele><time>2026-05-03T10:12:03.964Z</time></trkpt><trkpt lat="46.03030763968422" lon="10.946080706252557"><ele>248.0</ele><time>2026-05-03T10:12:04.964Z</time></trkpt><trkpt lat="46.03050642015992" lon="10.946125384853811"><ele>247.0</ele><time>2026-05-03T10:12:05.964Z</time></trkpt><trkpt lat="46.03071331283722" lon="10.946172801966483"><ele>247.0</ele><time>2026-05-03T10:12:06.964Z</time></trkpt><trkpt lat="46.030921298980786" lon="10.946220109379924"><ele>247.0</ele><time>2026-05-03T10:12:07.964Z</time></trkpt><trkpt lat="46.031120432596424" lon="10.946261447952164"><ele>247.0</ele><time>2026-05-03T10:12:08.964Z</time></trkpt><trkpt lat="46.031304499207955" lon="10.94630932254445"><ele>247.0</ele><time>2026-05-03T10:12:09.964Z</time></trkpt><trkpt lat="46.03148104734842" lon="10.946343753270908"><ele>247.0</ele><time>2026-05-03T10:12:10.964Z</time></trkpt><trkpt lat="46.03165316688106" lon="10.946350277244616"><ele>247.0</ele><time>2026-05-03T10:12:11.964Z</time></trkpt><trkpt lat="46.03181368832201" lon="10.946334383693658"><ele>247.0</ele><time>2026-05-03T10:12:12.964Z</time></trkpt><trkpt lat="46.031962631100114" lon="10.946298112232595"><ele>247.0</ele><time>2026-05-03T10:12:13.964Z</time></trkpt><trkpt lat="46.0321081996655" lon="10.946254099990938"><ele>247.0</ele><time>2026-05-03T10:12:14.964Z</time></trkpt><trkpt lat="46.03224802335505" lon="10.94622267688829"><ele>247.0</ele><time>2026-05-03T10:12:15.964Z</time></trkpt><trkpt lat="46.03238962610586" lon="10.946186043631547"><ele>247.0</ele><time>2026-05-03T10:12:16.964Z</time></trkpt><trkpt lat="46.03252899680775" lon="10.946152215706018"><ele>247.0</ele><time>2026-05-03T10:12:17.964Z</time></trkpt><trkpt lat="46.032643535597316" lon="10.946125548453843"><ele>247.0</ele><time>2026-05-03T10:12:18.964Z</time></trkpt><trkpt lat="46.03274572435292" lon="10.946113427095803"><ele>247.0</ele><time>2026-05-03T10:12:19.964Z</time></trkpt><trkpt lat="46.032835842047916" lon="10.94613305930305"><ele>247.0</ele><time>2026-05-03T10:12:20.964Z</time></trkpt><trkpt lat="46.03290703979981" lon="10.946193204247818"><ele>247.0</ele><time>2026-05-03T10:12:21.964Z</time></trkpt><trkpt lat="46.03295179348608" lon="10.946295549402995"><ele>247.0</ele><time>2026-05-03T10:12:22.964Z</time></trkpt><trkpt lat="46.03298534613659" lon="10.946429541218592"><ele>247.0</ele><time>2026-05-03T10:12:23.964Z</time></trkpt><trkpt lat="46.03301767810848" lon="10.946581866007866"><ele>247.0</ele><time>2026-05-03T10:12:24.964Z</time></trkpt><trkpt lat="46.03305820339033" lon="10.946730592968024"><ele>247.25</ele><time>2026-05-03T10:12:25.964Z</time></trkpt><trkpt lat="46.03309999032481" lon="10.946872216024596"><ele>247.5</ele><time>2026-05-03T10:12:26.964Z</time></trkpt><trkpt lat="46.03314635569907" lon="10.947027945002866"><ele>247.75</ele><time>2026-05-03T10:12:27.964Z</time></trkpt><trkpt lat="46.033212711622284" lon="10.947168342733711"><ele>248.0</ele><time>2026-05-03T10:12:28.964Z</time></trkpt><trkpt lat="46.0333085695949" lon="10.947293855309521"><ele>248.0</ele><time>2026-05-03T10:12:29.964Z</time></trkpt><trkpt lat="46.033425177894486" lon="10.947421085746155"><ele>248.0</ele><time>2026-05-03T10:12:30.964Z</time></trkpt><trkpt lat="46.033557897988" lon="10.947526997660432"><ele>248.0</ele><time>2026-05-03T10:12:31.964Z</time></trkpt><trkpt lat="46.03370458638251" lon="10.947625266881756"><ele>247.66666666666669</ele><time>2026-05-03T10:12:32.964Z</time></trkpt><trkpt lat="46.033858037581915" lon="10.94773008140872"><ele>247.33333333333331</ele><time>2026-05-03T10:12:33.964Z</time></trkpt><trkpt lat="46.03401914211216" lon="10.947838574341878"><ele>247.0</ele><time>2026-05-03T10:12:34.964Z</time></trkpt><trkpt lat="46.03418430598495" lon="10.947951919075562"><ele>246.66666666666666</ele><time>2026-05-03T10:12:35.964Z</time></trkpt><trkpt lat="46.034359560468474" lon="10.94805400231232"><ele>246.33333333333331</ele><time>2026-05-03T10:12:36.964Z</time></trkpt><trkpt lat="46.03453563125602" lon="10.948127747972817"><ele>246.0</ele><time>2026-05-03T10:12:37.964Z</time></trkpt><trkpt lat="46.03471335392877" lon="10.9481930751249"><ele>246.0</ele><time>2026-05-03T10:12:38.964Z</time></trkpt><trkpt lat="46.034890574131886" lon="10.948267594448263"><ele>246.0</ele><time>2026-05-03T10:12:39.964Z</time></trkpt><trkpt lat="46.035077510344756" lon="10.948346153409506"><ele>246.0</ele><time>2026-05-03T10:12:40.964Z</time></trkpt><trkpt lat="46.03529118938317" lon="10.94843075429174"><ele>245.0</ele><time>2026-05-03T10:12:41.964Z</time></trkpt><trkpt lat="46.03553513898152" lon="10.948544034259383"><ele>244.0</ele><time>2026-05-03T10:12:42.964Z</time></trkpt><trkpt lat="46.03581036745662" lon="10.948659516998728"><ele>244.0</ele><time>2026-05-03T10:12:43.964Z</time></trkpt><trkpt lat="46.03611511706955" lon="10.948787200186915"><ele>244.0</ele><time>2026-05-03T10:12:44.964Z</time></trkpt><trkpt lat="46.03644193223858" lon="10.9489238906702"><ele>244.0</ele><time>2026-05-03T10:12:45.964Z</time></trkpt><trkpt lat="46.036784123107594" lon="10.94905551967235"><ele>244.0</ele><time>2026-05-03T10:12:46.964Z</time></trkpt><trkpt lat="46.03714466023952" lon="10.949216671176917"><ele>244.5</ele><time>2026-05-03T10:12:47.964Z</time></trkpt><trkpt lat="46.037486755425405" lon="10.949347504145466"><ele>245.0</ele><time>2026-05-03T10:12:48.964Z</time></trkpt><trkpt lat="46.03779076206294" lon="10.949490909575502"><ele>245.0</ele><time>2026-05-03T10:12:49.964Z</time></trkpt><trkpt lat="46.03807743046219" lon="10.949612460964786"><ele>245.0</ele><time>2026-05-03T10:12:50.964Z</time></trkpt><trkpt lat="46.038343654388285" lon="10.949704010937282"><ele>245.0</ele><time>2026-05-03T10:12:51.964Z</time></trkpt><trkpt lat="46.03858578689968" lon="10.949810945977696"><ele>245.0</ele><time>2026-05-03T10:12:52.964Z</time></trkpt><trkpt lat="46.038809650711784" lon="10.949909695521791"><ele>245.0</ele><time>2026-05-03T10:12:53.964Z</time></trkpt><trkpt lat="46.039017870699226" lon="10.949998655010376"><ele>245.0</ele><time>2026-05-03T10:12:54.964Z</time></trkpt><trkpt lat="46.03920663558254" lon="10.950075295464732"><ele>245.0</ele><time>2026-05-03T10:12:55.964Z</time></trkpt><trkpt lat="46.03938512937026" lon="10.950151642391834"><ele>245.66666666666669</ele><time>2026-05-03T10:12:56.964Z</time></trkpt><trkpt lat="46.03956153092681" lon="10.950231835803487"><ele>246.33333333333331</ele><time>2026-05-03T10:12:57.964Z</time></trkpt><trkpt lat="46.0397715444149" lon="10.950327469463957"><ele>247.0</ele><time>2026-05-03T10:12:58.964Z</time></trkpt><trkpt lat="46.040004907693756" lon="10.950416155799745"><ele>247.66666666666666</ele><time>2026-05-03T10:12:59.964Z</time></trkpt><trkpt lat="46.040214660364455" lon="10.950480450694522"><ele>248.33333333333331</ele><time>2026-05-03T10:13:00.964Z</time></trkpt><trkpt lat="46.04040968862638" lon="10.950533291312743"><ele>249.0</ele><time>2026-05-03T10:13:01.964Z</time></trkpt><trkpt lat="46.040592910138294" lon="10.95058608736947"><ele>249.0</ele><time>2026-05-03T10:13:02.964Z</time></trkpt><trkpt lat="46.040759625697724" lon="10.95063374693106"><ele>249.0</ele><time>2026-05-03T10:13:03.964Z</time></trkpt><trkpt lat="46.040901820505425" lon="10.950675272343057"><ele>249.0</ele><time>2026-05-03T10:13:04.964Z</time></trkpt><trkpt lat="46.04104196937033" lon="10.950713856567557"><ele>249.0</ele><time>2026-05-03T10:13:05.964Z</time></trkpt><trkpt lat="46.041171740301685" lon="10.950751403481329"><ele>249.0</ele><time>2026-05-03T10:13:06.964Z</time></trkpt><trkpt lat="46.04129031631141" lon="10.950788937545028"><ele>249.0</ele><time>2026-05-03T10:13:07.964Z</time></trkpt><trkpt lat="46.04140814555809" lon="10.950825312213869"><ele>249.0</ele><time>2026-05-03T10:13:08.964Z</time></trkpt><trkpt lat="46.04152282563499" lon="10.950860480042492"><ele>248.79999999999998</ele><time>2026-05-03T10:13:09.964Z</time></trkpt><trkpt lat="46.041632039829935" lon="10.950893944424676"><ele>248.59999999999997</ele><time>2026-05-03T10:13:10.964Z</time></trkpt><trkpt lat="46.041738281403056" lon="10.950917124231582"><ele>248.4</ele><time>2026-05-03T10:13:11.964Z</time></trkpt><trkpt lat="46.041827268505294" lon="10.950939322204341"><ele>248.2</ele><time>2026-05-03T10:13:12.964Z</time></trkpt><trkpt lat="46.04190265350392" lon="10.950961518991708"><ele>248.0</ele><time>2026-05-03T10:13:13.964Z</time></trkpt><trkpt lat="46.0419781830371" lon="10.950980676930683"><ele>248.0</ele><time>2026-05-03T10:13:14.964Z</time></trkpt><trkpt lat="46.0420513260043" lon="10.950999142718192"><ele>248.0</ele><time>2026-05-03T10:13:15.964Z</time></trkpt><trkpt lat="46.04211855226576" lon="10.95101676493442"><ele>248.0</ele><time>2026-05-03T10:13:16.964Z</time></trkpt><trkpt lat="46.042224040319034" lon="10.951045749043582"><ele>248.0</ele><time>2026-05-03T10:13:18.964Z</time></trkpt><trkpt lat="46.042316683661966" lon="10.95106745832575"><ele>248.0</ele><time>2026-05-03T10:13:20.963Z</time></trkpt><trkpt lat="46.042422083285764" lon="10.951092032823924"><ele>247.8</ele><time>2026-05-03T10:13:22.963Z</time></trkpt><trkpt lat="46.042513595037434" lon="10.95112234264784"><ele>247.60000000000002</ele><time>2026-05-03T10:13:24.963Z</time></trkpt><trkpt lat="46.04260291429438" lon="10.951141693811708"><ele>247.39999999999998</ele><time>2026-05-03T10:13:26.963Z</time></trkpt><trkpt lat="46.042726926575575" lon="10.951175088061943"><ele>247.2</ele><time>2026-05-03T10:13:28.963Z</time></trkpt><trkpt lat="46.042794510057924" lon="10.951193633731936"><ele>247.0</ele><time>2026-05-03T10:13:29.964Z</time></trkpt><trkpt lat="46.042864261572475" lon="10.951215610136495"><ele>246.99999999999997</ele><time>2026-05-03T10:13:30.964Z</time></trkpt><trkpt lat="46.04293821261416" lon="10.951231752986361"><ele>247.0</ele><time>2026-05-03T10:13:31.964Z</time></trkpt><trkpt lat="46.04301816082663" lon="10.951249948697187"><ele>247.0</ele><time>2026-05-03T10:13:32.963Z</time></trkpt><trkpt lat="46.04310547875212" lon="10.951272362287732"><ele>247.0</ele><time>2026-05-03T10:13:33.963Z</time></trkpt><trkpt lat="46.043194470126394" lon="10.95131043383105"><ele>246.99999999999997</ele><time>2026-05-03T10:13:34.963Z</time></trkpt><trkpt lat="46.043292134522574" lon="10.951339033934392"><ele>247.0</ele><time>2026-05-03T10:13:35.963Z</time></trkpt><trkpt lat="46.04338731527183" lon="10.951363190017968"><ele>247.33333333333331</ele><time>2026-05-03T10:13:36.963Z</time></trkpt><trkpt lat="46.04345232972841" lon="10.951387266735201"><ele>247.66666666666666</ele><time>2026-05-03T10:13:37.963Z</time></trkpt><trkpt lat="46.04353819807754" lon="10.951405488572927"><ele>248.0</ele><time>2026-05-03T10:13:40.963Z</time></trkpt><trkpt lat="46.04360311439117" lon="10.951422339046823"><ele>248.33333333333331</ele><time>2026-05-03T10:13:43.963Z</time></trkpt><trkpt lat="46.043684962870145" lon="10.951442219117284"><ele>248.66666666666666</ele><time>2026-05-03T10:13:46.963Z</time></trkpt><trkpt lat="46.04377092764078" lon="10.95146502858024"><ele>249.0</ele><time>2026-05-03T10:13:48.963Z</time></trkpt><trkpt lat="46.04384767488232" lon="10.951494501237347"><ele>249.0</ele><time>2026-05-03T10:13:50.963Z</time></trkpt><trkpt lat="46.04391478125536" lon="10.951514919113961"><ele>249.0</ele><time>2026-05-03T10:13:52.963Z</time></trkpt><trkpt lat="46.043985550833874" lon="10.95152625266327"><ele>249.0</ele><time>2026-05-03T10:13:54.963Z</time></trkpt><trkpt lat="46.04407328677282" lon="10.95156158896136"><ele>249.0</ele><time>2026-05-03T10:13:57.963Z</time></trkpt><trkpt lat="46.04415081735033" lon="10.951580684809777"><ele>249.0</ele><time>2026-05-03T10:13:59.963Z</time></trkpt><trkpt lat="46.0442526649098" lon="10.951599899431187"><ele>249.0</ele><time>2026-05-03T10:14:01.963Z</time></trkpt><trkpt lat="46.04433422746647" lon="10.951634369007337"><ele>249.0</ele><time>2026-05-03T10:14:03.963Z</time></trkpt><trkpt lat="46.04440276702536" lon="10.951657241724595"><ele>249.0</ele><time>2026-05-03T10:14:05.963Z</time></trkpt><trkpt lat="46.044472449445564" lon="10.951685191709212"><ele>249.0</ele><time>2026-05-03T10:14:08.963Z</time></trkpt><trkpt lat="46.04452930281673" lon="10.95172456562983"><ele>249.0</ele><time>2026-05-03T10:14:13.963Z</time></trkpt><trkpt lat="46.0445931785506" lon="10.95179842846017"><ele>249.0</ele><time>2026-05-03T10:14:17.963Z</time></trkpt><trkpt lat="46.044650142229536" lon="10.951870298445996"><ele>249.0</ele><time>2026-05-03T10:14:19.963Z</time></trkpt><trkpt lat="46.04473664123614" lon="10.951915145361516"><ele>249.16666666666666</ele><time>2026-05-03T10:14:21.963Z</time></trkpt><trkpt lat="46.04483595017308" lon="10.951898701698761"><ele>249.33333333333331</ele><time>2026-05-03T10:14:23.963Z</time></trkpt><trkpt lat="46.0448953638869" lon="10.951853526741989"><ele>249.5</ele><time>2026-05-03T10:14:25.963Z</time></trkpt><trkpt lat="46.04497136775322" lon="10.951804319944554"><ele>249.66666666666666</ele><time>2026-05-03T10:14:28.963Z</time></trkpt><trkpt lat="46.045050385246284" lon="10.951799009431767"><ele>249.83333333333331</ele><time>2026-05-03T10:14:31.963Z</time></trkpt><trkpt lat="46.045105934807246" lon="10.951853315654686"><ele>250.0</ele><time>2026-05-03T10:14:33.963Z</time></trkpt><trkpt lat="46.04518748282993" lon="10.951875128289949"><ele>249.99999999999997</ele><time>2026-05-03T10:14:35.963Z</time></trkpt><trkpt lat="46.045262264045846" lon="10.951895130897196"><ele>250.0</ele><time>2026-05-03T10:14:37.963Z</time></trkpt><trkpt lat="46.04533188699131" lon="10.951914208167175"><ele>250.0</ele><time>2026-05-03T10:14:39.963Z</time></trkpt><trkpt lat="46.04543167641603" lon="10.951941486840662"><ele>250.0</ele><time>2026-05-03T10:14:41.963Z</time></trkpt><trkpt lat="46.04553078021218" lon="10.951968578105664"><ele>249.99999999999997</ele><time>2026-05-03T10:14:43.963Z</time></trkpt><trkpt lat="46.045622585516625" lon="10.951993674137972"><ele>250.0</ele><time>2026-05-03T10:14:45.963Z</time></trkpt><trkpt lat="46.04569544031548" lon="10.95201359405236"><ele>249.99999999999997</ele><time>2026-05-03T10:14:47.963Z</time></trkpt><trkpt lat="46.0457736026961" lon="10.952034962333657"><ele>250.0</ele><time>2026-05-03T10:14:50.963Z</time></trkpt><trkpt lat="46.045840334627094" lon="10.952055356327962"><ele>250.0</ele><time>2026-05-03T10:14:53.963Z</time></trkpt><trkpt lat="46.04590565025504" lon="10.952073793132802"><ele>250.0</ele><time>2026-05-03T10:14:58.963Z</time></trkpt><trkpt lat="46.045970653085845" lon="10.952089712420435"><ele>249.99999999999997</ele><time>2026-05-03T10:15:02.963Z</time></trkpt><trkpt lat="46.04605856357965" lon="10.952058942853455"><ele>250.0</ele><time>2026-05-03T10:15:07.963Z</time></trkpt><trkpt lat="46.04616372176248" lon="10.952088107809058"><ele>249.66666666666666</ele><time>2026-05-03T10:15:09.963Z</time></trkpt><trkpt lat="46.04626988188804" lon="10.952170195368863"><ele>249.33333333333331</ele><time>2026-05-03T10:15:11.963Z</time></trkpt><trkpt lat="46.04633932970568" lon="10.952188873768185"><ele>249.0</ele><time>2026-05-03T10:15:13.963Z</time></trkpt><trkpt lat="46.04640243926564" lon="10.95220584747566"><ele>248.66666666666669</ele><time>2026-05-03T10:15:16.963Z</time></trkpt><trkpt lat="46.04647250010606" lon="10.952224690762339"><ele>248.33333333333334</ele><time>2026-05-03T10:15:19.963Z</time></trkpt><trkpt lat="46.04655206768436" lon="10.952245347930145"><ele>248.0</ele><time>2026-05-03T10:15:23.962Z</time></trkpt><trkpt lat="46.04662702066831" lon="10.952264411799636"><ele>248.16666666666669</ele><time>2026-05-03T10:15:26.962Z</time></trkpt><trkpt lat="46.046717693184284" lon="10.952264538432992"><ele>248.33333333333334</ele><time>2026-05-03T10:15:29.962Z</time></trkpt><trkpt lat="46.04680421074902" lon="10.95228802104337"><ele>248.5</ele><time>2026-05-03T10:15:32.962Z</time></trkpt><trkpt lat="46.04687144069063" lon="10.952325513621568"><ele>248.66666666666669</ele><time>2026-05-03T10:15:34.963Z</time></trkpt><trkpt lat="46.04694478307026" lon="10.952342259525487"><ele>248.83333333333334</ele><time>2026-05-03T10:15:37.962Z</time></trkpt><trkpt lat="46.047017209364235" lon="10.952319425347117"><ele>249.0</ele><time>2026-05-03T10:15:43.962Z</time></trkpt><trkpt lat="46.04711347735997" lon="10.952329386929158"><ele>249.0</ele><time>2026-05-03T10:15:45.962Z</time></trkpt><trkpt lat="46.04718700540319" lon="10.952311163569872"><ele>249.0</ele><time>2026-05-03T10:15:47.962Z</time></trkpt><trkpt lat="46.04717994001579" lon="10.95213613134681"><ele>249.0</ele><time>2026-05-03T10:15:48.962Z</time></trkpt><trkpt lat="46.04715583756935" lon="10.95203084509245"><ele>249.0</ele><time>2026-05-03T10:15:49.962Z</time></trkpt><trkpt lat="46.04712491580378" lon="10.951922514512482"><ele>249.0</ele><time>2026-05-03T10:15:50.962Z</time></trkpt><trkpt lat="46.04709524644946" lon="10.951796344083744"><ele>249.0</ele><time>2026-05-03T10:15:51.962Z</time></trkpt><trkpt lat="46.04706789138392" lon="10.951657614852374"><ele>248.75</ele><time>2026-05-03T10:15:52.962Z</time></trkpt><trkpt lat="46.04703787428425" lon="10.951497489218825"><ele>248.5</ele><time>2026-05-03T10:15:53.962Z</time></trkpt><trkpt lat="46.04701906983395" lon="10.951295743990656"><ele>248.25</ele><time>2026-05-03T10:15:54.962Z</time></trkpt><trkpt lat="46.04698122330647" lon="10.951073088367266"><ele>248.0</ele><time>2026-05-03T10:15:55.962Z</time></trkpt><trkpt lat="46.04694080260842" lon="10.950833030924588"><ele>247.66666666666669</ele><time>2026-05-03T10:15:56.962Z</time></trkpt><trkpt lat="46.046897495486895" lon="10.950556595819588"><ele>247.33333333333331</ele><time>2026-05-03T10:15:57.962Z</time></trkpt><trkpt lat="46.04685467392124" lon="10.950258092611524"><ele>247.0</ele><time>2026-05-03T10:15:58.962Z</time></trkpt><trkpt lat="46.04681860074871" lon="10.949991157567588"><ele>248.33333333333331</ele><time>2026-05-03T10:15:59.962Z</time></trkpt><trkpt lat="46.04677529050696" lon="10.949747868175432"><ele>249.66666666666669</ele><time>2026-05-03T10:16:00.962Z</time></trkpt><trkpt lat="46.04673151611907" lon="10.949501049770534"><ele>251.0</ele><time>2026-05-03T10:16:01.962Z</time></trkpt><trkpt lat="46.04665767239201" lon="10.949254103944995"><ele>251.33333333333334</ele><time>2026-05-03T10:16:02.962Z</time></trkpt><trkpt lat="46.04656935241879" lon="10.949021316298348"><ele>251.66666666666669</ele><time>2026-05-03T10:16:03.962Z</time></trkpt><trkpt lat="46.04649629193848" lon="10.948805812253607"><ele>252.0</ele><time>2026-05-03T10:16:04.962Z</time></trkpt><trkpt lat="46.04640714337369" lon="10.9486302454459"><ele>252.0</ele><time>2026-05-03T10:16:05.962Z</time></trkpt><trkpt lat="46.04634663618706" lon="10.948467561667204"><ele>252.0</ele><time>2026-05-03T10:16:06.962Z</time></trkpt><trkpt lat="46.046285818917134" lon="10.948315566922851"><ele>252.0</ele><time>2026-05-03T10:16:07.962Z</time></trkpt><trkpt lat="46.04622548450017" lon="10.94816024859879"><ele>252.0</ele><time>2026-05-03T10:16:08.962Z</time></trkpt><trkpt lat="46.04617279953774" lon="10.947995661836067"><ele>252.5</ele><time>2026-05-03T10:16:09.962Z</time></trkpt><trkpt lat="46.046136593117005" lon="10.947824740058318"><ele>253.0</ele><time>2026-05-03T10:16:10.962Z</time></trkpt><trkpt lat="46.04610611512945" lon="10.947646133151986"><ele>253.5</ele><time>2026-05-03T10:16:11.962Z</time></trkpt><trkpt lat="46.04608605757481" lon="10.947462403896237"><ele>254.0</ele><time>2026-05-03T10:16:12.962Z</time></trkpt><trkpt lat="46.04607547998039" lon="10.94726817838027"><ele>257.0</ele><time>2026-05-03T10:16:13.962Z</time></trkpt><trkpt lat="46.046078318291016" lon="10.947065195888525"><ele>260.0</ele><time>2026-05-03T10:16:14.962Z</time></trkpt><trkpt lat="46.04609359639444" lon="10.9468476869162"><ele>263.0</ele><time>2026-05-03T10:16:15.962Z</time></trkpt><trkpt lat="46.04612325850165" lon="10.946621685359661"><ele>265.33333333333337</ele><time>2026-05-03T10:16:16.962Z</time></trkpt><trkpt lat="46.04619645586896" lon="10.946402842472335"><ele>267.6666666666667</ele><time>2026-05-03T10:16:17.962Z</time></trkpt><trkpt lat="46.04626843981112" lon="10.946153331534479"><ele>270.0</ele><time>2026-05-03T10:16:18.962Z</time></trkpt><trkpt lat="46.04635082664002" lon="10.94587020281927"><ele>272.6666666666667</ele><time>2026-05-03T10:16:19.962Z</time></trkpt><trkpt lat="46.0464262509389" lon="10.945579644424294"><ele>275.33333333333337</ele><time>2026-05-03T10:16:20.962Z</time></trkpt><trkpt lat="46.04651252851167" lon="10.945350074546734"><ele>278.0</ele><time>2026-05-03T10:16:21.962Z</time></trkpt><trkpt lat="46.04658232502941" lon="10.945161514281617"><ele>279.2</ele><time>2026-05-03T10:16:22.962Z</time></trkpt><trkpt lat="46.04663931990366" lon="10.945010368737535"><ele>280.4</ele><time>2026-05-03T10:16:23.962Z</time></trkpt><trkpt lat="46.046659488602614" lon="10.944875777466631"><ele>281.59999999999997</ele><time>2026-05-03T10:16:24.962Z</time></trkpt><trkpt lat="46.04665030446741" lon="10.9447656218842"><ele>282.8</ele><time>2026-05-03T10:16:25.962Z</time></trkpt><trkpt lat="46.04660310836461" lon="10.94466094523104"><ele>284.0</ele><time>2026-05-03T10:16:26.962Z</time></trkpt><trkpt lat="46.046523624016665" lon="10.944604673600116"><ele>284.0</ele><time>2026-05-03T10:16:27.962Z</time></trkpt><trkpt lat="46.04643517860985" lon="10.944586798963144"><ele>284.0</ele><time>2026-05-03T10:16:28.962Z</time></trkpt><trkpt lat="46.04634508169259" lon="10.944686792310236"><ele>284.0</ele><time>2026-05-03T10:16:29.962Z</time></trkpt><trkpt lat="46.046252853805115" lon="10.94480486789411"><ele>284.0</ele><time>2026-05-03T10:16:30.962Z</time></trkpt><trkpt lat="46.04615212295553" lon="10.944957097814012"><ele>282.0</ele><time>2026-05-03T10:16:31.962Z</time></trkpt><trkpt lat="46.04601014087036" lon="10.945120812161184"><ele>280.0</ele><time>2026-05-03T10:16:32.962Z</time></trkpt><trkpt lat="46.04586236054862" lon="10.94535020870189"><ele>278.0</ele><time>2026-05-03T10:16:33.963Z</time></trkpt><trkpt lat="46.045700158195075" lon="10.945557660681486"><ele>282.0</ele><time>2026-05-03T10:16:34.963Z</time></trkpt><trkpt lat="46.04558444284922" lon="10.945770441882178"><ele>286.0</ele><time>2026-05-03T10:16:35.963Z</time></trkpt><trkpt lat="46.04550989400701" lon="10.94597354992434"><ele>290.0</ele><time>2026-05-03T10:16:36.963Z</time></trkpt><trkpt lat="46.045430079067636" lon="10.946103458183503"><ele>290.0</ele><time>2026-05-03T10:16:37.963Z</time></trkpt><trkpt lat="46.04536996395226" lon="10.946192129386054"><ele>290.0</ele><time>2026-05-03T10:16:38.963Z</time></trkpt><trkpt lat="46.045314557756654" lon="10.946240321148972"><ele>290.0</ele><time>2026-05-03T10:16:39.963Z</time></trkpt><trkpt lat="46.045226513896495" lon="10.94620034091358"><ele>290.0</ele><time>2026-05-03T10:16:40.963Z</time></trkpt><trkpt lat="46.04517806190577" lon="10.946070677515953"><ele>290.0</ele><time>2026-05-03T10:16:41.964Z</time></trkpt><trkpt lat="46.045176896939495" lon="10.945942705989557"><ele>290.0</ele><time>2026-05-03T10:16:42.964Z</time></trkpt><trkpt lat="46.045207984169664" lon="10.94576572555921"><ele>295.6666666666667</ele><time>2026-05-03T10:16:43.964Z</time></trkpt><trkpt lat="46.04523381229746" lon="10.945525385090171"><ele>301.3333333333333</ele><time>2026-05-03T10:16:44.964Z</time></trkpt><trkpt lat="46.04529757230953" lon="10.945255839303487"><ele>307.0</ele><time>2026-05-03T10:16:45.964Z</time></trkpt><trkpt lat="46.04540799587426" lon="10.944990301479667"><ele>310.5</ele><time>2026-05-03T10:16:46.964Z</time></trkpt><trkpt lat="46.04553279586737" lon="10.944713148490413"><ele>314.0</ele><time>2026-05-03T10:16:47.964Z</time></trkpt><trkpt lat="46.0456642509704" lon="10.944394973904327"><ele>305.5</ele><time>2026-05-03T10:16:48.964Z</time></trkpt><trkpt lat="46.04582582671182" lon="10.94406688303876"><ele>297.0</ele><time>2026-05-03T10:16:49.964Z</time></trkpt><trkpt lat="46.04597844027069" lon="10.943731087314145"><ele>297.0</ele><time>2026-05-03T10:16:50.964Z</time></trkpt><trkpt lat="46.046108285949565" lon="10.943433071283705"><ele>297.0</ele><time>2026-05-03T10:16:51.964Z</time></trkpt><trkpt lat="46.04621521679731" lon="10.94319562382093"><ele>297.0</ele><time>2026-05-03T10:16:52.964Z</time></trkpt><trkpt lat="46.04632917877633" lon="10.943002879626334"><ele>296.0</ele><time>2026-05-03T10:16:53.964Z</time></trkpt><trkpt lat="46.04647970151744" lon="10.942869925872577"><ele>295.0</ele><time>2026-05-03T10:16:54.964Z</time></trkpt><trkpt lat="46.04661446825359" lon="10.942764151762875"><ele>294.0</ele><time>2026-05-03T10:16:55.964Z</time></trkpt><trkpt lat="46.046722904927144" lon="10.942677497883313"><ele>294.0</ele><time>2026-05-03T10:16:56.964Z</time></trkpt><trkpt lat="46.04678942751083" lon="10.942566657897254"><ele>294.0</ele><time>2026-05-03T10:16:57.964Z</time></trkpt><trkpt lat="46.046816218469004" lon="10.942421281142954"><ele>294.0</ele><time>2026-05-03T10:16:58.964Z</time></trkpt><trkpt lat="46.046752846236664" lon="10.94228512085528"><ele>294.0</ele><time>2026-05-03T10:16:59.965Z</time></trkpt><trkpt lat="46.04667035137031" lon="10.942218213170491"><ele>294.0</ele><time>2026-05-03T10:17:00.965Z</time></trkpt><trkpt lat="46.04657833523435" lon="10.94222358859305"><ele>301.0</ele><time>2026-05-03T10:17:01.965Z</time></trkpt><trkpt lat="46.046488055055875" lon="10.942293770257798"><ele>308.0</ele><time>2026-05-03T10:17:02.965Z</time></trkpt><trkpt lat="46.04638623438776" lon="10.942434079889553"><ele>315.0</ele><time>2026-05-03T10:17:03.965Z</time></trkpt><trkpt lat="46.04624645661992" lon="10.9426113857971"><ele>322.0</ele><time>2026-05-03T10:17:04.965Z</time></trkpt><trkpt lat="46.046073462294856" lon="10.942823533621091"><ele>322.0</ele><time>2026-05-03T10:17:05.965Z</time></trkpt><trkpt lat="46.045880491775854" lon="10.943032864208236"><ele>322.0</ele><time>2026-05-03T10:17:06.965Z</time></trkpt><trkpt lat="46.04567110972726" lon="10.943263440980305"><ele>326.3333333333333</ele><time>2026-05-03T10:17:07.965Z</time></trkpt><trkpt lat="46.04555785232681" lon="10.943403491124307"><ele>330.6666666666667</ele><time>2026-05-03T10:17:08.965Z</time></trkpt><trkpt lat="46.04538411248165" lon="10.94367589117106"><ele>335.0</ele><time>2026-05-03T10:17:09.965Z</time></trkpt><trkpt lat="46.045212489320626" lon="10.94398395527265"><ele>339.0</ele><time>2026-05-03T10:17:10.965Z</time></trkpt><trkpt lat="46.0450659244179" lon="10.944300657122453"><ele>343.0</ele><time>2026-05-03T10:17:11.965Z</time></trkpt><trkpt lat="46.04495277086112" lon="10.944570357956271"><ele>343.0</ele><time>2026-05-03T10:17:12.965Z</time></trkpt><trkpt lat="46.04485610118115" lon="10.944806456551595"><ele>343.0</ele><time>2026-05-03T10:17:13.965Z</time></trkpt><trkpt lat="46.0447743947826" lon="10.945015468023676"><ele>343.0</ele><time>2026-05-03T10:17:14.965Z</time></trkpt><trkpt lat="46.04469849001551" lon="10.945167778593454"><ele>343.0</ele><time>2026-05-03T10:17:15.965Z</time></trkpt><trkpt lat="46.04463554819226" lon="10.945256974259799"><ele>343.0</ele><time>2026-05-03T10:17:16.965Z</time></trkpt><trkpt lat="46.04454431276802" lon="10.945252277247867"><ele>343.0</ele><time>2026-05-03T10:17:17.965Z</time></trkpt><trkpt lat="46.04446040178209" lon="10.94516991430244"><ele>343.0</ele><time>2026-05-03T10:17:18.965Z</time></trkpt><trkpt lat="46.04440199700681" lon="10.945072532356397"><ele>343.0</ele><time>2026-05-03T10:17:19.965Z</time></trkpt><trkpt lat="46.044409489458594" lon="10.944957266195592"><ele>343.0</ele><time>2026-05-03T10:17:20.965Z</time></trkpt><trkpt lat="46.04444271610834" lon="10.944841688634973"><ele>343.0</ele><time>2026-05-03T10:17:21.965Z</time></trkpt><trkpt lat="46.04452346706769" lon="10.944706147411484"><ele>343.0</ele><time>2026-05-03T10:17:22.965Z</time></trkpt><trkpt lat="46.04463574671518" lon="10.94450225842488"><ele>343.0</ele><time>2026-05-03T10:17:23.965Z</time></trkpt><trkpt lat="46.04476590256834" lon="10.944259264993478"><ele>339.0</ele><time>2026-05-03T10:17:24.965Z</time></trkpt><trkpt lat="46.044920285385494" lon="10.94397055389024"><ele>335.0</ele><time>2026-05-03T10:17:25.965Z</time></trkpt><trkpt lat="46.0450841749577" lon="10.943667074710687"><ele>344.5</ele><time>2026-05-03T10:17:26.965Z</time></trkpt><trkpt lat="46.04526555989648" lon="10.943335303923545"><ele>354.0</ele><time>2026-05-03T10:17:27.965Z</time></trkpt><trkpt lat="46.04545375714783" lon="10.942991185726555"><ele>354.0</ele><time>2026-05-03T10:17:28.964Z</time></trkpt><trkpt lat="46.04560702754539" lon="10.942698693158674"><ele>354.0</ele><time>2026-05-03T10:17:29.964Z</time></trkpt><trkpt lat="46.04574376368757" lon="10.942461478146836"><ele>352.6666666666667</ele><time>2026-05-03T10:17:30.964Z</time></trkpt><trkpt lat="46.04589181343627" lon="10.942249589011745"><ele>351.33333333333337</ele><time>2026-05-03T10:17:31.965Z</time></trkpt><trkpt lat="46.04601739315108" lon="10.942107012211553"><ele>350.0</ele><time>2026-05-03T10:17:32.965Z</time></trkpt><trkpt lat="46.046140502808434" lon="10.941986236022405"><ele>350.0</ele><time>2026-05-03T10:17:33.965Z</time></trkpt><trkpt lat="46.04626924645742" lon="10.94187767781775"><ele>350.0</ele><time>2026-05-03T10:17:34.965Z</time></trkpt><trkpt lat="46.04639800654975" lon="10.941779636166656"><ele>350.0</ele><time>2026-05-03T10:17:35.964Z</time></trkpt><trkpt lat="46.04653276132255" lon="10.941673508521472"><ele>350.0</ele><time>2026-05-03T10:17:36.964Z</time></trkpt><trkpt lat="46.04665862946763" lon="10.94157093621598"><ele>351.4</ele><time>2026-05-03T10:17:37.964Z</time></trkpt><trkpt lat="46.04675496623661" lon="10.94149242948544"><ele>352.8</ele><time>2026-05-03T10:17:38.964Z</time></trkpt><trkpt lat="46.04683250674782" lon="10.941429240249054"><ele>354.20000000000005</ele><time>2026-05-03T10:17:39.964Z</time></trkpt><trkpt lat="46.046904114550856" lon="10.941371001246633"><ele>355.6</ele><time>2026-05-03T10:17:40.964Z</time></trkpt><trkpt lat="46.046978773319246" lon="10.941311218469357"><ele>357.0</ele><time>2026-05-03T10:17:41.964Z</time></trkpt><trkpt lat="46.047060631244335" lon="10.941245821198857"><ele>357.0</ele><time>2026-05-03T10:17:42.964Z</time></trkpt><trkpt lat="46.04714106240832" lon="10.941181808980602"><ele>357.0</ele><time>2026-05-03T10:17:43.964Z</time></trkpt><trkpt lat="46.04722644109667" lon="10.94111502346442"><ele>357.0</ele><time>2026-05-03T10:17:44.964Z</time></trkpt><trkpt lat="46.04731209332409" lon="10.94104726372482"><ele>357.0</ele><time>2026-05-03T10:17:45.964Z</time></trkpt><trkpt lat="46.04739640594035" lon="10.940972819136546"><ele>357.0</ele><time>2026-05-03T10:17:46.964Z</time></trkpt><trkpt lat="46.047465970041884" lon="10.940885755980291"><ele>366.40000000000003</ele><time>2026-05-03T10:17:47.964Z</time></trkpt><trkpt lat="46.0474786763377" lon="10.940750074764155"><ele>375.8</ele><time>2026-05-03T10:17:48.964Z</time></trkpt><trkpt lat="46.04747234944482" lon="10.940646378322631"><ele>385.2</ele><time>2026-05-03T10:17:49.964Z</time></trkpt><trkpt lat="46.04741405223686" lon="10.940536167226183"><ele>394.6</ele><time>2026-05-03T10:17:50.964Z</time></trkpt><trkpt lat="46.04732787628202" lon="10.940456689006712"><ele>404.0</ele><time>2026-05-03T10:17:51.964Z</time></trkpt><trkpt lat="46.04723980252327" lon="10.94044830515848"><ele>404.0</ele><time>2026-05-03T10:17:52.964Z</time></trkpt><trkpt lat="46.04712790935852" lon="10.940497697745572"><ele>404.0</ele><time>2026-05-03T10:17:53.964Z</time></trkpt><trkpt lat="46.04703455687309" lon="10.940614463092217"><ele>404.0</ele><time>2026-05-03T10:17:54.964Z</time></trkpt><trkpt lat="46.04694679313291" lon="10.940729778599593"><ele>404.0</ele><time>2026-05-03T10:17:55.964Z</time></trkpt><trkpt lat="46.04683850102272" lon="10.940857994504562"><ele>397.66666666666663</ele><time>2026-05-03T10:17:56.964Z</time></trkpt><trkpt lat="46.046719615594576" lon="10.94099430957642"><ele>391.33333333333337</ele><time>2026-05-03T10:17:57.964Z</time></trkpt><trkpt lat="46.046572751273864" lon="10.941166753240905"><ele>385.0</ele><time>2026-05-03T10:17:58.964Z</time></trkpt><trkpt lat="46.04641502192072" lon="10.941336542734584"><ele>385.0</ele><time>2026-05-03T10:17:59.964Z</time></trkpt><trkpt lat="46.046260764065856" lon="10.941482562114281"><ele>385.0</ele><time>2026-05-03T10:18:00.964Z</time></trkpt><trkpt lat="46.04607686696044" lon="10.941598637881933"><ele>385.0</ele><time>2026-05-03T10:18:01.964Z</time></trkpt><trkpt lat="46.04586756390178" lon="10.941754303974772"><ele>382.5</ele><time>2026-05-03T10:18:02.964Z</time></trkpt><trkpt lat="46.04561769572626" lon="10.941942119351292"><ele>380.0</ele><time>2026-05-03T10:18:03.964Z</time></trkpt><trkpt lat="46.04536204207084" lon="10.942133445692189"><ele>380.0</ele><time>2026-05-03T10:18:04.964Z</time></trkpt><trkpt lat="46.04514610156065" lon="10.942297045847795"><ele>380.0</ele><time>2026-05-03T10:18:05.964Z</time></trkpt><trkpt lat="46.04496701824318" lon="10.942442817898959"><ele>377.6666666666667</ele><time>2026-05-03T10:18:06.964Z</time></trkpt><trkpt lat="46.0448160754885" lon="10.942588005444826"><ele>375.3333333333333</ele><time>2026-05-03T10:18:07.964Z</time></trkpt><trkpt lat="46.044679201720044" lon="10.942699667119758"><ele>373.0</ele><time>2026-05-03T10:18:08.964Z</time></trkpt><trkpt lat="46.04456519426106" lon="10.94283332266079"><ele>373.0</ele><time>2026-05-03T10:18:09.964Z</time></trkpt><trkpt lat="46.04446278884523" lon="10.942953556491183"><ele>373.0</ele><time>2026-05-03T10:18:10.964Z</time></trkpt><trkpt lat="46.0443718889459" lon="10.94306781822881"><ele>373.0</ele><time>2026-05-03T10:18:11.964Z</time></trkpt><trkpt lat="46.044289207514474" lon="10.943174437512475"><ele>373.0</ele><time>2026-05-03T10:18:12.964Z</time></trkpt><trkpt lat="46.04421261118216" lon="10.94328133819614"><ele>370.2</ele><time>2026-05-03T10:18:13.964Z</time></trkpt><trkpt lat="46.04413508971371" lon="10.943387082973922"><ele>367.4</ele><time>2026-05-03T10:18:14.964Z</time></trkpt><trkpt lat="46.044059579830815" lon="10.943471982016296"><ele>364.59999999999997</ele><time>2026-05-03T10:18:15.964Z</time></trkpt><trkpt lat="46.04396168964839" lon="10.943489027587743"><ele>361.79999999999995</ele><time>2026-05-03T10:18:16.964Z</time></trkpt><trkpt lat="46.04387342199013" lon="10.94347463018647"><ele>359.0</ele><time>2026-05-03T10:18:17.964Z</time></trkpt><trkpt lat="46.043786165536595" lon="10.943426289484592"><ele>368.6</ele><time>2026-05-03T10:18:18.964Z</time></trkpt><trkpt lat="46.04373231314109" lon="10.943318514709311"><ele>378.2</ele><time>2026-05-03T10:18:19.964Z</time></trkpt><trkpt lat="46.043727112201665" lon="10.943177763409295"><ele>387.8</ele><time>2026-05-03T10:18:20.964Z</time></trkpt><trkpt lat="46.04374621931033" lon="10.943053594540993"><ele>397.40000000000003</ele><time>2026-05-03T10:18:21.964Z</time></trkpt><trkpt lat="46.04380375757098" lon="10.942926624602567"><ele>407.0</ele><time>2026-05-03T10:18:22.964Z</time></trkpt><trkpt lat="46.04386892134288" lon="10.942769644064693"><ele>407.0</ele><time>2026-05-03T10:18:23.964Z</time></trkpt><trkpt lat="46.0439497354916" lon="10.942570596692311"><ele>407.0</ele><time>2026-05-03T10:18:24.964Z</time></trkpt><trkpt lat="46.04404549032044" lon="10.942333154788557"><ele>407.0</ele><time>2026-05-03T10:18:25.964Z</time></trkpt><trkpt lat="46.044140033985535" lon="10.94204989498278"><ele>403.66666666666663</ele><time>2026-05-03T10:18:26.964Z</time></trkpt><trkpt lat="46.044247980411974" lon="10.941784477312295"><ele>400.33333333333337</ele><time>2026-05-03T10:18:27.964Z</time></trkpt><trkpt lat="46.04436867263291" lon="10.941552140688335"><ele>397.0</ele><time>2026-05-03T10:18:28.964Z</time></trkpt><trkpt lat="46.04448928525862" lon="10.94132616560675"><ele>409.0</ele><time>2026-05-03T10:18:29.964Z</time></trkpt><trkpt lat="46.044614819950716" lon="10.941136766835474"><ele>421.0</ele><time>2026-05-03T10:18:30.964Z</time></trkpt><trkpt lat="46.04474566738127" lon="10.94096973692132"><ele>433.0</ele><time>2026-05-03T10:18:31.964Z</time></trkpt><trkpt lat="46.04487698035367" lon="10.940824337155458"><ele>443.5</ele><time>2026-05-03T10:18:32.964Z</time></trkpt><trkpt lat="46.04499453793461" lon="10.940708951548508"><ele>454.0</ele><time>2026-05-03T10:18:33.964Z</time></trkpt><trkpt lat="46.0463132318755" lon="10.940036962397256"><ele>443.0</ele><time>2026-05-03T10:18:37.164Z</time></trkpt><trkpt lat="46.046746255310346" lon="10.939860693671342"><ele>432.0</ele><time>2026-05-03T10:18:38.164Z</time></trkpt><trkpt lat="46.048030331669004" lon="10.939266560774005"><ele>437.0</ele><time>2026-05-03T10:18:41.164Z</time></trkpt><trkpt lat="46.048451709443874" lon="10.93904080598428"><ele>437.0</ele><time>2026-05-03T10:18:42.164Z</time></trkpt><trkpt lat="46.04887307083979" lon="10.938815059969645"><ele>440.0</ele><time>2026-05-03T10:18:43.164Z</time></trkpt><trkpt lat="46.04885427731577" lon="10.939345532710881"><ele>443.0</ele><time>2026-05-03T10:18:44.964Z</time></trkpt><trkpt lat="46.04732998346985" lon="10.939358960302762"><ele>437.5</ele><time>2026-05-03T10:18:45.964Z</time></trkpt><trkpt lat="46.04766938908683" lon="10.939347348182237"><ele>432.0</ele><time>2026-05-03T10:18:46.964Z</time></trkpt><trkpt lat="46.047882879343526" lon="10.9393046720855"><ele>432.0</ele><time>2026-05-03T10:18:47.964Z</time></trkpt><trkpt lat="46.04807123650765" lon="10.939223499251623"><ele>432.0</ele><time>2026-05-03T10:18:48.964Z</time></trkpt><trkpt lat="46.04823711431485" lon="10.939141798183847"><ele>432.0</ele><time>2026-05-03T10:18:49.964Z</time></trkpt><trkpt lat="46.04840555895594" lon="10.939058736191932"><ele>433.66666666666663</ele><time>2026-05-03T10:18:50.964Z</time></trkpt><trkpt lat="46.0485656819808" lon="10.93897815623762"><ele>435.3333333333333</ele><time>2026-05-03T10:18:51.964Z</time></trkpt><trkpt lat="46.048727100541264" lon="10.938918773635406"><ele>437.0</ele><time>2026-05-03T10:18:52.964Z</time></trkpt><trkpt lat="46.048906995957736" lon="10.938822393966069"><ele>437.0</ele><time>2026-05-03T10:18:53.964Z</time></trkpt><trkpt lat="46.04909909212708" lon="10.938718935181262"><ele>437.0</ele><time>2026-05-03T10:18:54.964Z</time></trkpt><trkpt lat="46.04948984771507" lon="10.938470893372203"><ele>438.0</ele><time>2026-05-03T10:18:55.964Z</time></trkpt><trkpt lat="46.0496698579659" lon="10.938322678203011"><ele>439.0</ele><time>2026-05-03T10:18:56.964Z</time></trkpt><trkpt lat="46.04984533519094" lon="10.938149712196086"><ele>440.0</ele><time>2026-05-03T10:18:57.964Z</time></trkpt><trkpt lat="46.05000318886965" lon="10.937932432461386"><ele>435.0</ele><time>2026-05-03T10:18:58.964Z</time></trkpt><trkpt lat="46.05015465934879" lon="10.937733012002571"><ele>430.0</ele><time>2026-05-03T10:18:59.964Z</time></trkpt><trkpt lat="46.05030666775181" lon="10.937479467597703"><ele>425.0</ele><time>2026-05-03T10:19:00.964Z</time></trkpt><trkpt lat="46.050475100556" lon="10.937156180222265"><ele>425.0</ele><time>2026-05-03T10:19:01.964Z</time></trkpt><trkpt lat="46.050650766788074" lon="10.936804299842244"><ele>425.0</ele><time>2026-05-03T10:19:02.964Z</time></trkpt><trkpt lat="46.05082881819402" lon="10.936474019724729"><ele>426.5</ele><time>2026-05-03T10:19:03.964Z</time></trkpt><trkpt lat="46.05097900502688" lon="10.936185486399607"><ele>428.0</ele><time>2026-05-03T10:19:04.964Z</time></trkpt><trkpt lat="46.05111799802819" lon="10.935914687779844"><ele>430.0</ele><time>2026-05-03T10:19:05.964Z</time></trkpt><trkpt lat="46.05126516318351" lon="10.935669982705516"><ele>432.0</ele><time>2026-05-03T10:19:06.964Z</time></trkpt><trkpt lat="46.05139015565811" lon="10.93543232437421"><ele>434.0</ele><time>2026-05-03T10:19:07.964Z</time></trkpt><trkpt lat="46.05151703164799" lon="10.935191804340926"><ele>430.66666666666663</ele><time>2026-05-03T10:19:08.964Z</time></trkpt><trkpt lat="46.051643553323714" lon="10.9349701575656"><ele>427.33333333333337</ele><time>2026-05-03T10:19:09.964Z</time></trkpt><trkpt lat="46.05176158829901" lon="10.934730049467255"><ele>424.0</ele><time>2026-05-03T10:19:10.964Z</time></trkpt><trkpt lat="46.051885415003284" lon="10.934494082709707"><ele>424.0</ele><time>2026-05-03T10:19:11.964Z</time></trkpt><trkpt lat="46.05200278489193" lon="10.934247539083701"><ele>424.0</ele><time>2026-05-03T10:19:12.964Z</time></trkpt><trkpt lat="46.0521004533513" lon="10.933984094273926"><ele>424.0</ele><time>2026-05-03T10:19:13.964Z</time></trkpt><trkpt lat="46.05217503292191" lon="10.933694152234725"><ele>428.33333333333337</ele><time>2026-05-03T10:19:14.964Z</time></trkpt><trkpt lat="46.052249357526925" lon="10.933405389580477"><ele>432.66666666666663</ele><time>2026-05-03T10:19:15.964Z</time></trkpt><trkpt lat="46.05231481574043" lon="10.933115315692339"><ele>437.0</ele><time>2026-05-03T10:19:16.964Z</time></trkpt><trkpt lat="46.0523700822637" lon="10.932815205679363"><ele>430.0</ele><time>2026-05-03T10:19:17.964Z</time></trkpt><trkpt lat="46.05242399486286" lon="10.932498970383197"><ele>423.0</ele><time>2026-05-03T10:19:18.964Z</time></trkpt><trkpt lat="46.05247027863008" lon="10.932166408144049"><ele>423.0</ele><time>2026-05-03T10:19:19.964Z</time></trkpt><trkpt lat="46.05252408990709" lon="10.931839742130583"><ele>423.0</ele><time>2026-05-03T10:19:20.964Z</time></trkpt><trkpt lat="46.052571443429464" lon="10.931513400832456"><ele>428.66666666666663</ele><time>2026-05-03T10:19:21.964Z</time></trkpt><trkpt lat="46.0526317057183" lon="10.931213890482534"><ele>434.3333333333333</ele><time>2026-05-03T10:19:22.964Z</time></trkpt><trkpt lat="46.05268806903386" lon="10.930915418399687"><ele>440.0</ele><time>2026-05-03T10:19:23.964Z</time></trkpt><trkpt lat="46.052751956350676" lon="10.930617200351133"><ele>444.66666666666663</ele><time>2026-05-03T10:19:24.964Z</time></trkpt><trkpt lat="46.05282626209348" lon="10.930334903834764"><ele>449.33333333333337</ele><time>2026-05-03T10:19:25.964Z</time></trkpt><trkpt lat="46.05290302825405" lon="10.930067775804034"><ele>454.0</ele><time>2026-05-03T10:19:26.964Z</time></trkpt><trkpt lat="46.05299198090981" lon="10.929795016846356"><ele>459.0</ele><time>2026-05-03T10:19:27.964Z</time></trkpt><trkpt lat="46.053080751559875" lon="10.929550480962469"><ele>464.0</ele><time>2026-05-03T10:19:28.964Z</time></trkpt><trkpt lat="46.053182217014154" lon="10.929292713735098"><ele>469.0</ele><time>2026-05-03T10:19:29.964Z</time></trkpt><trkpt lat="46.0532829325043" lon="10.929062162178692"><ele>462.6666666666667</ele><time>2026-05-03T10:19:30.964Z</time></trkpt><trkpt lat="46.053392854068875" lon="10.928832745763147"><ele>456.33333333333337</ele><time>2026-05-03T10:19:31.964Z</time></trkpt><trkpt lat="46.05349882761666" lon="10.928625186762064"><ele>450.0</ele><time>2026-05-03T10:19:32.964Z</time></trkpt><trkpt lat="46.0536048682537" lon="10.928437819446225"><ele>450.0</ele><time>2026-05-03T10:19:33.964Z</time></trkpt><trkpt lat="46.05372712182538" lon="10.928249367913635"><ele>450.0</ele><time>2026-05-03T10:19:34.964Z</time></trkpt><trkpt lat="46.053852888374" lon="10.928085213869426"><ele>450.0</ele><time>2026-05-03T10:19:36.106Z</time></trkpt><trkpt lat="46.05396209284435" lon="10.927969732194562"><ele>450.0</ele><time>2026-05-03T10:19:37.102Z</time></trkpt><trkpt lat="46.05403258833878" lon="10.927869222829985"><ele>450.0</ele><time>2026-05-03T10:19:38.104Z</time></trkpt><trkpt lat="46.05531074918461" lon="10.9270997508734"><ele>450.0</ele><time>2026-05-03T10:19:41.164Z</time></trkpt><trkpt lat="46.05573467336667" lon="10.926884262746578"><ele>450.0</ele><time>2026-05-03T10:19:42.164Z</time></trkpt><trkpt lat="46.05615973948193" lon="10.92667391889519"><ele>450.0</ele><time>2026-05-03T10:19:43.163Z</time></trkpt><trkpt lat="46.05658514200543" lon="10.926462921462472"><ele>486.0</ele><time>2026-05-03T10:19:44.164Z</time></trkpt><trkpt lat="46.05701014055319" lon="10.926252124399614"><ele>522.0</ele><time>2026-05-03T10:19:45.163Z</time></trkpt><trkpt lat="46.057435472925825" lon="10.926041161761361"><ele>539.0</ele><time>2026-05-03T10:19:46.164Z</time></trkpt><trkpt lat="46.05786056590355" lon="10.925830317861735"><ele>539.0</ele><time>2026-05-03T10:19:47.163Z</time></trkpt><trkpt lat="46.0579852" lon="10.9257685"><ele>539.0</ele><time>2026-05-03T10:19:48.164Z</time></trkpt><trkpt lat="46.05955528038996" lon="10.924674565150639"><ele>490.5</ele><time>2026-05-03T10:20:04.963Z</time></trkpt><trkpt lat="46.05970848558754" lon="10.924555534471676"><ele>442.0</ele><time>2026-05-03T10:20:05.963Z</time></trkpt><trkpt lat="46.060096918589295" lon="10.9245161455238"><ele>442.33333333333337</ele><time>2026-05-03T10:20:06.963Z</time></trkpt><trkpt lat="46.060306085229364" lon="10.924408077274334"><ele>442.66666666666663</ele><time>2026-05-03T10:20:07.963Z</time></trkpt><trkpt lat="46.060480119454404" lon="10.924235794563904"><ele>443.0</ele><time>2026-05-03T10:20:08.963Z</time></trkpt><trkpt lat="46.06063582655642" lon="10.924026503340256"><ele>442.66666666666663</ele><time>2026-05-03T10:20:09.963Z</time></trkpt><trkpt lat="46.060802356393836" lon="10.923814671120402"><ele>442.33333333333337</ele><time>2026-05-03T10:20:10.963Z</time></trkpt><trkpt lat="46.06093097707917" lon="10.923575001077262"><ele>442.0</ele><time>2026-05-03T10:20:11.963Z</time></trkpt><trkpt lat="46.06104555981031" lon="10.9233230651072"><ele>442.0</ele><time>2026-05-03T10:20:12.963Z</time></trkpt><trkpt lat="46.061153487341954" lon="10.923049218090362"><ele>442.0</ele><time>2026-05-03T10:20:13.963Z</time></trkpt><trkpt lat="46.06123896176696" lon="10.922768158172087"><ele>442.0</ele><time>2026-05-03T10:20:14.963Z</time></trkpt><trkpt lat="46.061299325616545" lon="10.922477111119704"><ele>442.0</ele><time>2026-05-03T10:20:15.963Z</time></trkpt><trkpt lat="46.061333352461475" lon="10.922179272535054"><ele>442.0</ele><time>2026-05-03T10:20:16.963Z</time></trkpt><trkpt lat="46.06137374088651" lon="10.92188902187993"><ele>442.0</ele><time>2026-05-03T10:20:17.963Z</time></trkpt><trkpt lat="46.06138205159558" lon="10.92161761443398"><ele>498.33333333333337</ele><time>2026-05-03T10:20:18.963Z</time></trkpt><trkpt lat="46.06137266486401" lon="10.921352331178085"><ele>554.6666666666666</ele><time>2026-05-03T10:20:19.963Z</time></trkpt><trkpt lat="46.061342647239755" lon="10.921048100931815"><ele>611.0</ele><time>2026-05-03T10:20:21.1Z</time></trkpt><trkpt lat="46.06093685179585" lon="10.91850929747747"><ele>593.5</ele><time>2026-05-03T10:20:25.163Z</time></trkpt><trkpt lat="46.06084023632197" lon="10.91787820402388"><ele>576.0</ele><time>2026-05-03T10:20:26.163Z</time></trkpt><trkpt lat="46.06074329005167" lon="10.917246779326925"><ele>558.5</ele><time>2026-05-03T10:20:27.163Z</time></trkpt><trkpt lat="46.06063540489965" lon="10.916619766438"><ele>541.0</ele><time>2026-05-03T10:20:28.163Z</time></trkpt><trkpt lat="46.060490476936124" lon="10.916008319384272"><ele>524.5</ele><time>2026-05-03T10:20:29.163Z</time></trkpt><trkpt lat="46.060304409975224" lon="10.915420126538313"><ele>508.0</ele><time>2026-05-03T10:20:30.163Z</time></trkpt><trkpt lat="46.057853802316274" lon="10.909720639482572"><ele>498.0</ele><time>2026-05-03T10:21:04.963Z</time></trkpt><trkpt lat="46.057682730558426" lon="10.909386119867971"><ele>488.0</ele><time>2026-05-03T10:21:05.963Z</time></trkpt><trkpt lat="46.0576410840887" lon="10.909152950252205"><ele>493.0</ele><time>2026-05-03T10:21:06.963Z</time></trkpt><trkpt lat="46.05759735703893" lon="10.908918591042397"><ele>498.0</ele><time>2026-05-03T10:21:07.963Z</time></trkpt><trkpt lat="46.057528127955464" lon="10.908748837944207"><ele>503.0</ele><time>2026-05-03T10:21:08.963Z</time></trkpt><trkpt lat="46.05742032607955" lon="10.908603235839562"><ele>503.0</ele><time>2026-05-03T10:21:09.963Z</time></trkpt><trkpt lat="46.05727202600374" lon="10.908457374354258"><ele>503.0</ele><time>2026-05-03T10:21:10.963Z</time></trkpt><trkpt lat="46.05712656042982" lon="10.9082795375808"><ele>503.0</ele><time>2026-05-03T10:21:11.963Z</time></trkpt><trkpt lat="46.05697715653878" lon="10.908113034611045"><ele>503.66666666666663</ele><time>2026-05-03T10:21:12.963Z</time></trkpt><trkpt lat="46.056826065107586" lon="10.907962566217966"><ele>504.33333333333337</ele><time>2026-05-03T10:21:13.963Z</time></trkpt><trkpt lat="46.05669915020708" lon="10.907794686563545"><ele>505.0</ele><time>2026-05-03T10:21:14.963Z</time></trkpt><trkpt lat="46.05657890656495" lon="10.907645844402166"><ele>495.33333333333337</ele><time>2026-05-03T10:21:15.963Z</time></trkpt><trkpt lat="46.05645321707367" lon="10.907504247700615"><ele>485.66666666666663</ele><time>2026-05-03T10:21:16.963Z</time></trkpt><trkpt lat="46.056308589325695" lon="10.907352985289997"><ele>476.0</ele><time>2026-05-03T10:21:17.963Z</time></trkpt><trkpt lat="46.05613751400439" lon="10.907163172104402"><ele>476.0</ele><time>2026-05-03T10:21:18.963Z</time></trkpt><trkpt lat="46.05594010272824" lon="10.906958647840929"><ele>476.0</ele><time>2026-05-03T10:21:19.963Z</time></trkpt><trkpt lat="46.05571758517838" lon="10.906737879182026"><ele>479.0</ele><time>2026-05-03T10:21:20.963Z</time></trkpt><trkpt lat="46.055496024229804" lon="10.906479694610756"><ele>482.0</ele><time>2026-05-03T10:21:21.963Z</time></trkpt><trkpt lat="46.055262237202975" lon="10.90619526870803"><ele>491.5</ele><time>2026-05-03T10:21:22.963Z</time></trkpt><trkpt lat="46.055027896604464" lon="10.905875961705872"><ele>501.0</ele><time>2026-05-03T10:21:23.963Z</time></trkpt><trkpt lat="46.054813082786566" lon="10.905554624997283"><ele>501.0</ele><time>2026-05-03T10:21:24.963Z</time></trkpt><trkpt lat="46.05460440656593" lon="10.905248052154775"><ele>501.0</ele><time>2026-05-03T10:21:25.963Z</time></trkpt><trkpt lat="46.05437193043992" lon="10.904929254875503"><ele>506.0</ele><time>2026-05-03T10:21:26.963Z</time></trkpt><trkpt lat="46.05416257295965" lon="10.904623103322708"><ele>511.0</ele><time>2026-05-03T10:21:27.963Z</time></trkpt><trkpt lat="46.053960409681885" lon="10.904341030643394"><ele>493.5</ele><time>2026-05-03T10:21:28.963Z</time></trkpt><trkpt lat="46.053716633056304" lon="10.904097518537913"><ele>476.0</ele><time>2026-05-03T10:21:29.963Z</time></trkpt><trkpt lat="46.0534825106183" lon="10.903853214422167"><ele>477.0</ele><time>2026-05-03T10:21:30.963Z</time></trkpt><trkpt lat="46.05327028930094" lon="10.903615862242559"><ele>478.0</ele><time>2026-05-03T10:21:31.963Z</time></trkpt><trkpt lat="46.05307754885555" lon="10.903397575952223"><ele>478.0</ele><time>2026-05-03T10:21:32.963Z</time></trkpt><trkpt lat="46.05289305203291" lon="10.903201185942832"><ele>478.0</ele><time>2026-05-03T10:21:33.963Z</time></trkpt><trkpt lat="46.05272874629894" lon="10.9030159474801"><ele>478.0</ele><time>2026-05-03T10:21:34.963Z</time></trkpt><trkpt lat="46.052580669488414" lon="10.90284682735413"><ele>474.0</ele><time>2026-05-03T10:21:35.963Z</time></trkpt><trkpt lat="46.05241665084583" lon="10.902700373909152"><ele>470.0</ele><time>2026-05-03T10:21:36.963Z</time></trkpt><trkpt lat="46.052233551174716" lon="10.902544810250022"><ele>466.0</ele><time>2026-05-03T10:21:37.963Z</time></trkpt><trkpt lat="46.05202197015067" lon="10.902388648579098"><ele>466.0</ele><time>2026-05-03T10:21:38.963Z</time></trkpt><trkpt lat="46.051767646254376" lon="10.902310492094818"><ele>466.0</ele><time>2026-05-03T10:21:39.963Z</time></trkpt><trkpt lat="46.05155608058858" lon="10.902287893074783"><ele>471.0</ele><time>2026-05-03T10:21:40.963Z</time></trkpt><trkpt lat="46.051341059640386" lon="10.902243519887321"><ele>476.0</ele><time>2026-05-03T10:21:41.964Z</time></trkpt><trkpt lat="46.05111706719498" lon="10.90217542596346"><ele>481.0</ele><time>2026-05-03T10:21:42.964Z</time></trkpt><trkpt lat="46.05089986530932" lon="10.90203310140493"><ele>483.5</ele><time>2026-05-03T10:21:43.963Z</time></trkpt><trkpt lat="46.05069645758887" lon="10.901791319230849"><ele>486.0</ele><time>2026-05-03T10:21:44.963Z</time></trkpt><trkpt lat="46.05048561101503" lon="10.901553473291926"><ele>486.0</ele><time>2026-05-03T10:21:45.963Z</time></trkpt><trkpt lat="46.05027020183653" lon="10.90131047877974"><ele>486.0</ele><time>2026-05-03T10:21:46.963Z</time></trkpt><trkpt lat="46.05005608713604" lon="10.901068942534234"><ele>483.5</ele><time>2026-05-03T10:21:47.963Z</time></trkpt><trkpt lat="46.049842793869594" lon="10.900834677957432"><ele>481.0</ele><time>2026-05-03T10:21:48.963Z</time></trkpt><trkpt lat="46.04957321652851" lon="10.900696442622637"><ele>481.0</ele><time>2026-05-03T10:21:49.963Z</time></trkpt><trkpt lat="46.0493590771491" lon="10.900504103679673"><ele>481.0</ele><time>2026-05-03T10:21:50.963Z</time></trkpt><trkpt lat="46.04915158785081" lon="10.900336087134367"><ele>478.6666666666667</ele><time>2026-05-03T10:21:51.963Z</time></trkpt><trkpt lat="46.0489613924179" lon="10.900159081864933"><ele>476.33333333333337</ele><time>2026-05-03T10:21:52.963Z</time></trkpt><trkpt lat="46.048779690028866" lon="10.899997970361945"><ele>474.0</ele><time>2026-05-03T10:21:53.963Z</time></trkpt><trkpt lat="46.048599469949174" lon="10.899851676430682"><ele>474.0</ele><time>2026-05-03T10:21:54.963Z</time></trkpt><trkpt lat="46.04842155762504" lon="10.899719552454505"><ele>474.0</ele><time>2026-05-03T10:21:55.963Z</time></trkpt><trkpt lat="46.0482380831045" lon="10.899599009308169"><ele>474.0</ele><time>2026-05-03T10:21:56.963Z</time></trkpt><trkpt lat="46.048044748596624" lon="10.899470143406754"><ele>470.0</ele><time>2026-05-03T10:21:57.963Z</time></trkpt><trkpt lat="46.0478458322155" lon="10.89931434899359"><ele>466.0</ele><time>2026-05-03T10:21:58.963Z</time></trkpt><trkpt lat="46.047663013422145" lon="10.899127865047939"><ele>466.0</ele><time>2026-05-03T10:21:59.963Z</time></trkpt><trkpt lat="46.047492726967434" lon="10.898924217564138"><ele>466.0</ele><time>2026-05-03T10:22:00.963Z</time></trkpt><trkpt lat="46.04733022833072" lon="10.89873706031537"><ele>466.0</ele><time>2026-05-03T10:22:01.963Z</time></trkpt><trkpt lat="46.047176867691505" lon="10.898560476075518"><ele>469.0</ele><time>2026-05-03T10:22:02.963Z</time></trkpt><trkpt lat="46.047029832793456" lon="10.898402275397752"><ele>472.0</ele><time>2026-05-03T10:22:03.963Z</time></trkpt><trkpt lat="46.046878138319585" lon="10.898240320928688"><ele>475.0</ele><time>2026-05-03T10:22:04.963Z</time></trkpt><trkpt lat="46.04674456660904" lon="10.898044361547573"><ele>475.0</ele><time>2026-05-03T10:22:05.963Z</time></trkpt><trkpt lat="46.046632330953784" lon="10.897789185759677"><ele>475.0</ele><time>2026-05-03T10:22:06.963Z</time></trkpt><trkpt lat="46.04653856647893" lon="10.897520216155062"><ele>475.0</ele><time>2026-05-03T10:22:07.963Z</time></trkpt><trkpt lat="46.04641881989" lon="10.897284477369977"><ele>484.0</ele><time>2026-05-03T10:22:08.963Z</time></trkpt><trkpt lat="46.04626688920928" lon="10.897057234140545"><ele>493.0</ele><time>2026-05-03T10:22:09.963Z</time></trkpt><trkpt lat="46.04612050628785" lon="10.896799196708885"><ele>496.5</ele><time>2026-05-03T10:22:10.963Z</time></trkpt><trkpt lat="46.04595722151636" lon="10.896567302922998"><ele>500.0</ele><time>2026-05-03T10:22:11.963Z</time></trkpt><trkpt lat="46.04578494766839" lon="10.896367798673769"><ele>500.0</ele><time>2026-05-03T10:22:12.963Z</time></trkpt><trkpt lat="46.0456090332001" lon="10.896191368339869"><ele>500.0</ele><time>2026-05-03T10:22:13.963Z</time></trkpt><trkpt lat="46.04544226922516" lon="10.896029874568448"><ele>500.0</ele><time>2026-05-03T10:22:14.963Z</time></trkpt><trkpt lat="46.04529488898247" lon="10.89582719412534"><ele>486.0</ele><time>2026-05-03T10:22:15.963Z</time></trkpt><trkpt lat="46.0451711019211" lon="10.895563739008818"><ele>472.0</ele><time>2026-05-03T10:22:16.963Z</time></trkpt><trkpt lat="46.0450800029194" lon="10.895247522459833"><ele>470.0</ele><time>2026-05-03T10:22:17.963Z</time></trkpt><trkpt lat="46.04503595921302" lon="10.894945251348014"><ele>468.0</ele><time>2026-05-03T10:22:18.963Z</time></trkpt><trkpt lat="46.04505544082186" lon="10.894681546660612"><ele>466.0</ele><time>2026-05-03T10:22:19.963Z</time></trkpt><trkpt lat="46.04509672327443" lon="10.89439387888465"><ele>467.75</ele><time>2026-05-03T10:22:20.963Z</time></trkpt><trkpt lat="46.045168772240814" lon="10.894197526770583"><ele>469.5</ele><time>2026-05-03T10:22:21.963Z</time></trkpt><trkpt lat="46.04525791263391" lon="10.894069374540171"><ele>471.25</ele><time>2026-05-03T10:22:22.963Z</time></trkpt><trkpt lat="46.04533897442491" lon="10.893961441002482"><ele>473.0</ele><time>2026-05-03T10:22:23.963Z</time></trkpt><trkpt lat="46.04541712611987" lon="10.893891156456629"><ele>472.99999999999994</ele><time>2026-05-03T10:22:24.963Z</time></trkpt><trkpt lat="46.045478040522795" lon="10.893827705703075"><ele>473.0</ele><time>2026-05-03T10:22:25.963Z</time></trkpt><trkpt lat="46.045537249354844" lon="10.893766296776501"><ele>473.0</ele><time>2026-05-03T10:22:26.963Z</time></trkpt><trkpt lat="46.04560663112899" lon="10.89373787569824"><ele>473.0</ele><time>2026-05-03T10:22:27.963Z</time></trkpt><trkpt lat="46.04569401964304" lon="10.893735132354923"><ele>472.99999999999994</ele><time>2026-05-03T10:22:28.963Z</time></trkpt><trkpt lat="46.0457862197027" lon="10.893737249393327"><ele>473.0</ele><time>2026-05-03T10:22:29.963Z</time></trkpt><trkpt lat="46.04588354736693" lon="10.893746463050691"><ele>463.75</ele><time>2026-05-03T10:22:30.962Z</time></trkpt><trkpt lat="46.0459766511012" lon="10.893749607897233"><ele>454.5</ele><time>2026-05-03T10:22:31.962Z</time></trkpt><trkpt lat="46.04608315533715" lon="10.893758033492938"><ele>445.25</ele><time>2026-05-03T10:22:32.962Z</time></trkpt><trkpt lat="46.04619900567854" lon="10.893756455740215"><ele>436.0</ele><time>2026-05-03T10:22:33.962Z</time></trkpt><trkpt lat="46.04633460258052" lon="10.89376653726833"><ele>436.0</ele><time>2026-05-03T10:22:34.962Z</time></trkpt><trkpt lat="46.04647834385835" lon="10.893777815266734"><ele>436.0</ele><time>2026-05-03T10:22:35.962Z</time></trkpt><trkpt lat="46.046613102935254" lon="10.893782147927297"><ele>436.0</ele><time>2026-05-03T10:22:36.962Z</time></trkpt><trkpt lat="46.04674313219137" lon="10.893785962907025"><ele>436.0</ele><time>2026-05-03T10:22:37.962Z</time></trkpt><trkpt lat="46.04685738110117" lon="10.89378776664114"><ele>433.20000000000005</ele><time>2026-05-03T10:22:38.962Z</time></trkpt><trkpt lat="46.04694911285118" lon="10.893777419245795"><ele>430.40000000000003</ele><time>2026-05-03T10:22:39.962Z</time></trkpt><trkpt lat="46.04701941900032" lon="10.893730536235807"><ele>427.6</ele><time>2026-05-03T10:22:40.962Z</time></trkpt><trkpt lat="46.04705153449602" lon="10.893625895435152"><ele>424.8</ele><time>2026-05-03T10:22:41.962Z</time></trkpt><trkpt lat="46.04704913977435" lon="10.893480796229154"><ele>422.0</ele><time>2026-05-03T10:22:42.962Z</time></trkpt><trkpt lat="46.04705036251206" lon="10.893322178250756"><ele>422.0</ele><time>2026-05-03T10:22:43.962Z</time></trkpt><trkpt lat="46.04704154627495" lon="10.89313934663388"><ele>422.0</ele><time>2026-05-03T10:22:44.962Z</time></trkpt><trkpt lat="46.04703256461059" lon="10.89293752108256"><ele>422.0</ele><time>2026-05-03T10:22:45.962Z</time></trkpt><trkpt lat="46.047027329880635" lon="10.892738092336346"><ele>422.0</ele><time>2026-05-03T10:22:46.962Z</time></trkpt><trkpt lat="46.04702670041669" lon="10.89251772073104"><ele>425.5</ele><time>2026-05-03T10:22:47.962Z</time></trkpt><trkpt lat="46.04702904549009" lon="10.892318154427723"><ele>429.0</ele><time>2026-05-03T10:22:48.962Z</time></trkpt><trkpt lat="46.047002288252074" lon="10.892099471267485"><ele>432.5</ele><time>2026-05-03T10:22:49.962Z</time></trkpt><trkpt lat="46.046946439990855" lon="10.891890318496468"><ele>436.0</ele><time>2026-05-03T10:22:50.962Z</time></trkpt><trkpt lat="46.04686562725746" lon="10.891643526483385"><ele>440.0</ele><time>2026-05-03T10:22:51.962Z</time></trkpt><trkpt lat="46.0468180134184" lon="10.891399315656438"><ele>444.0</ele><time>2026-05-03T10:22:52.962Z</time></trkpt><trkpt lat="46.04677697829953" lon="10.89118698087939"><ele>448.0</ele><time>2026-05-03T10:22:53.962Z</time></trkpt><trkpt lat="46.046735087679494" lon="10.8910056835107"><ele>446.25</ele><time>2026-05-03T10:22:54.962Z</time></trkpt><trkpt lat="46.04665857880326" lon="10.890858694148754"><ele>444.5</ele><time>2026-05-03T10:22:55.962Z</time></trkpt><trkpt lat="46.04653947285911" lon="10.89074150444461"><ele>442.75</ele><time>2026-05-03T10:22:56.962Z</time></trkpt><trkpt lat="46.04643103882755" lon="10.890619472472325"><ele>441.0</ele><time>2026-05-03T10:22:57.962Z</time></trkpt><trkpt lat="46.046336527807526" lon="10.890542364774223"><ele>441.0</ele><time>2026-05-03T10:22:58.962Z</time></trkpt><trkpt lat="46.046220811889896" lon="10.890502289517638"><ele>441.0</ele><time>2026-05-03T10:22:59.962Z</time></trkpt><trkpt lat="46.04606685099868" lon="10.890488596315604"><ele>441.0</ele><time>2026-05-03T10:23:00.962Z</time></trkpt><trkpt lat="46.045902180747575" lon="10.890434775907995"><ele>441.0</ele><time>2026-05-03T10:23:01.962Z</time></trkpt><trkpt lat="46.04576826235913" lon="10.890331021367935"><ele>439.0</ele><time>2026-05-03T10:23:02.962Z</time></trkpt><trkpt lat="46.04564287714992" lon="10.890214262489202"><ele>437.0</ele><time>2026-05-03T10:23:03.962Z</time></trkpt><trkpt lat="46.04555381042676" lon="10.890030658919496"><ele>435.0</ele><time>2026-05-03T10:23:04.962Z</time></trkpt><trkpt lat="46.045505285472856" lon="10.889807457836858"><ele>435.0</ele><time>2026-05-03T10:23:05.962Z</time></trkpt><trkpt lat="46.04550440478795" lon="10.889587398988118"><ele>435.0</ele><time>2026-05-03T10:23:06.962Z</time></trkpt><trkpt lat="46.0455057863026" lon="10.889314439564707"><ele>435.0</ele><time>2026-05-03T10:23:07.962Z</time></trkpt><trkpt lat="46.04550644453761" lon="10.889045183427623"><ele>439.0</ele><time>2026-05-03T10:23:08.962Z</time></trkpt><trkpt lat="46.045506980813464" lon="10.888825814643134"><ele>443.0</ele><time>2026-05-03T10:23:09.962Z</time></trkpt><trkpt lat="46.045507489207615" lon="10.888583077782167"><ele>447.0</ele><time>2026-05-03T10:23:10.962Z</time></trkpt><trkpt lat="46.045508040075454" lon="10.888314859148068"><ele>449.0</ele><time>2026-05-03T10:23:11.962Z</time></trkpt><trkpt lat="46.04550804258286" lon="10.888010306435747"><ele>451.0</ele><time>2026-05-03T10:23:12.962Z</time></trkpt><trkpt lat="46.04550984257633" lon="10.887719759557378"><ele>453.0</ele><time>2026-05-03T10:23:13.962Z</time></trkpt><trkpt lat="46.04549177380219" lon="10.887466810973155"><ele>455.66666666666663</ele><time>2026-05-03T10:23:14.962Z</time></trkpt><trkpt lat="46.04543642437794" lon="10.887232719375117"><ele>458.3333333333333</ele><time>2026-05-03T10:23:15.962Z</time></trkpt><trkpt lat="46.045365280630925" lon="10.887001913741496"><ele>461.0</ele><time>2026-05-03T10:23:16.962Z</time></trkpt><trkpt lat="46.04531295543653" lon="10.886764100136768"><ele>465.0</ele><time>2026-05-03T10:23:17.962Z</time></trkpt><trkpt lat="46.04526734072213" lon="10.886550907423432"><ele>469.0</ele><time>2026-05-03T10:23:18.962Z</time></trkpt><trkpt lat="46.0451711989056" lon="10.886289510197043"><ele>473.0</ele><time>2026-05-03T10:23:19.962Z</time></trkpt><trkpt lat="46.04506739332043" lon="10.885991957500488"><ele>478.3333333333333</ele><time>2026-05-03T10:23:20.962Z</time></trkpt><trkpt lat="46.04498326721932" lon="10.885719779333499"><ele>483.66666666666663</ele><time>2026-05-03T10:23:21.962Z</time></trkpt><trkpt lat="46.04493174081603" lon="10.885507735496333"><ele>489.0</ele><time>2026-05-03T10:23:22.962Z</time></trkpt><trkpt lat="46.04490234632926" lon="10.885315560384283"><ele>490.33333333333337</ele><time>2026-05-03T10:23:23.962Z</time></trkpt><trkpt lat="46.044913548377245" lon="10.885111063030994"><ele>491.6666666666667</ele><time>2026-05-03T10:23:24.962Z</time></trkpt><trkpt lat="46.0449529451253" lon="10.884889861597246"><ele>493.0</ele><time>2026-05-03T10:23:25.962Z</time></trkpt><trkpt lat="46.04502686334844" lon="10.884686103178545"><ele>493.0</ele><time>2026-05-03T10:23:26.962Z</time></trkpt><trkpt lat="46.04511192851885" lon="10.884517887270066"><ele>493.0</ele><time>2026-05-03T10:23:27.962Z</time></trkpt><trkpt lat="46.045171899868855" lon="10.884372358088514"><ele>493.0</ele><time>2026-05-03T10:23:28.962Z</time></trkpt><trkpt lat="46.04519567055751" lon="10.88422166006227"><ele>493.0</ele><time>2026-05-03T10:23:29.962Z</time></trkpt><trkpt lat="46.04519565862699" lon="10.884098331263592"><ele>492.6666666666667</ele><time>2026-05-03T10:23:30.962Z</time></trkpt><trkpt lat="46.045191761859634" lon="10.883999287377835"><ele>492.33333333333337</ele><time>2026-05-03T10:23:31.962Z</time></trkpt><trkpt lat="46.045175727693525" lon="10.883847528009724"><ele>492.0</ele><time>2026-05-03T10:23:33.962Z</time></trkpt><trkpt lat="46.04520063270421" lon="10.883714906277767"><ele>491.66666666666663</ele><time>2026-05-03T10:23:35.962Z</time></trkpt><trkpt lat="46.04530466377902" lon="10.883715366789882"><ele>491.3333333333333</ele><time>2026-05-03T10:23:37.962Z</time></trkpt><trkpt lat="46.0453397423553" lon="10.883791052727238"><ele>491.0</ele><time>2026-05-03T10:23:38.962Z</time></trkpt><trkpt lat="46.04534895795421" lon="10.883902723111264"><ele>491.0</ele><time>2026-05-03T10:23:39.962Z</time></trkpt><trkpt lat="46.04532806093515" lon="10.884043063836856"><ele>491.0</ele><time>2026-05-03T10:23:40.962Z</time></trkpt><trkpt lat="46.04531516264683" lon="10.884199420212294"><ele>491.0</ele><time>2026-05-03T10:23:41.962Z</time></trkpt><trkpt lat="46.04530214431189" lon="10.884379557701223"><ele>491.0</ele><time>2026-05-03T10:23:42.962Z</time></trkpt><trkpt lat="46.04529019385612" lon="10.884561365442485"><ele>491.5</ele><time>2026-05-03T10:23:43.962Z</time></trkpt><trkpt lat="46.045285747913944" lon="10.884755904692996"><ele>492.0</ele><time>2026-05-03T10:23:44.962Z</time></trkpt><trkpt lat="46.04529888851932" lon="10.884957296968473"><ele>492.5</ele><time>2026-05-03T10:23:45.962Z</time></trkpt><trkpt lat="46.04534640294454" lon="10.885150656736343"><ele>493.0</ele><time>2026-05-03T10:23:46.963Z</time></trkpt><trkpt lat="46.045441696508966" lon="10.885341808074218"><ele>491.6666666666667</ele><time>2026-05-03T10:23:47.963Z</time></trkpt><trkpt lat="46.04556055593819" lon="10.885554727815093"><ele>490.33333333333337</ele><time>2026-05-03T10:23:48.963Z</time></trkpt><trkpt lat="46.04567618120964" lon="10.885782913299812"><ele>489.0</ele><time>2026-05-03T10:23:49.963Z</time></trkpt><trkpt lat="46.04578958824572" lon="10.885997525533229"><ele>496.33333333333337</ele><time>2026-05-03T10:23:50.963Z</time></trkpt><trkpt lat="46.045890730336936" lon="10.886197459214415"><ele>503.6666666666667</ele><time>2026-05-03T10:23:51.963Z</time></trkpt><trkpt lat="46.04598159210219" lon="10.88638225236344"><ele>511.0</ele><time>2026-05-03T10:23:52.963Z</time></trkpt><trkpt lat="46.046060291854126" lon="10.886550194366167"><ele>511.0</ele><time>2026-05-03T10:23:53.964Z</time></trkpt><trkpt lat="46.04613261553351" lon="10.886696243480452"><ele>511.0</ele><time>2026-05-03T10:23:54.964Z</time></trkpt><trkpt lat="46.04620002518215" lon="10.88683202913987"><ele>511.0</ele><time>2026-05-03T10:23:55.963Z</time></trkpt><trkpt lat="46.04626756094509" lon="10.886949933525726"><ele>511.0</ele><time>2026-05-03T10:23:56.963Z</time></trkpt><trkpt lat="46.046336420891606" lon="10.88707510698999"><ele>508.75</ele><time>2026-05-03T10:23:57.963Z</time></trkpt><trkpt lat="46.046406689616546" lon="10.887201974622386"><ele>506.5</ele><time>2026-05-03T10:23:58.963Z</time></trkpt><trkpt lat="46.0464722802859" lon="10.887340947492936"><ele>504.25</ele><time>2026-05-03T10:23:59.963Z</time></trkpt><trkpt lat="46.046541907483615" lon="10.887488698191635"><ele>502.0</ele><time>2026-05-03T10:24:00.963Z</time></trkpt><trkpt lat="46.04661358633456" lon="10.887636584432592"><ele>508.25</ele><time>2026-05-03T10:24:01.963Z</time></trkpt><trkpt lat="46.04668468402796" lon="10.887767196459858"><ele>514.5</ele><time>2026-05-03T10:24:02.963Z</time></trkpt><trkpt lat="46.04675930022548" lon="10.88789638295242"><ele>520.75</ele><time>2026-05-03T10:24:03.963Z</time></trkpt><trkpt lat="46.04683002788719" lon="10.888028078401666"><ele>527.0</ele><time>2026-05-03T10:24:04.963Z</time></trkpt><trkpt lat="46.046887150158156" lon="10.888178768892237"><ele>527.0</ele><time>2026-05-03T10:24:05.963Z</time></trkpt><trkpt lat="46.04695713465911" lon="10.888318246028657"><ele>527.0</ele><time>2026-05-03T10:24:06.963Z</time></trkpt><trkpt lat="46.04703103440805" lon="10.88845300768534"><ele>527.0</ele><time>2026-05-03T10:24:07.963Z</time></trkpt><trkpt lat="46.04710906496857" lon="10.888603243489385"><ele>527.0</ele><time>2026-05-03T10:24:08.963Z</time></trkpt><trkpt lat="46.04718644202212" lon="10.88876093611313"><ele>525.6666666666666</ele><time>2026-05-03T10:24:09.963Z</time></trkpt><trkpt lat="46.04727198981466" lon="10.888925926320585"><ele>524.3333333333334</ele><time>2026-05-03T10:24:10.963Z</time></trkpt><trkpt lat="46.04734864886305" lon="10.889111653512238"><ele>523.0</ele><time>2026-05-03T10:24:11.963Z</time></trkpt><trkpt lat="46.04744871064449" lon="10.889305242607714"><ele>526.3333333333334</ele><time>2026-05-03T10:24:12.963Z</time></trkpt><trkpt lat="46.047562514818544" lon="10.889498914237938"><ele>529.6666666666666</ele><time>2026-05-03T10:24:13.963Z</time></trkpt><trkpt lat="46.04770144584273" lon="10.889684413739895"><ele>533.0</ele><time>2026-05-03T10:24:14.963Z</time></trkpt><trkpt lat="46.04786563954751" lon="10.889861119498729"><ele>533.0</ele><time>2026-05-03T10:24:15.963Z</time></trkpt><trkpt lat="46.04802758976515" lon="10.890029023296115"><ele>533.0</ele><time>2026-05-03T10:24:16.963Z</time></trkpt><trkpt lat="46.048174185457995" lon="10.890187089693729"><ele>533.0</ele><time>2026-05-03T10:24:17.963Z</time></trkpt><trkpt lat="46.048310962401864" lon="10.890387548031999"><ele>532.6666666666666</ele><time>2026-05-03T10:24:18.963Z</time></trkpt><trkpt lat="46.04843729957385" lon="10.890620612538244"><ele>532.3333333333334</ele><time>2026-05-03T10:24:19.963Z</time></trkpt><trkpt lat="46.04854322458715" lon="10.890843818223482"><ele>532.0</ele><time>2026-05-03T10:24:20.963Z</time></trkpt><trkpt lat="46.048640743735575" lon="10.89105252426266"><ele>532.0</ele><time>2026-05-03T10:24:21.963Z</time></trkpt><trkpt lat="46.04873598757835" lon="10.891239866302255"><ele>532.0</ele><time>2026-05-03T10:24:22.963Z</time></trkpt><trkpt lat="46.048835510195275" lon="10.89142027420331"><ele>532.0</ele><time>2026-05-03T10:24:23.963Z</time></trkpt><trkpt lat="46.04893973508554" lon="10.89159890385095"><ele>530.0</ele><time>2026-05-03T10:24:24.963Z</time></trkpt><trkpt lat="46.0490623832979" lon="10.891777826717819"><ele>528.0</ele><time>2026-05-03T10:24:25.963Z</time></trkpt><trkpt lat="46.04919338751468" lon="10.891962304282599"><ele>526.0</ele><time>2026-05-03T10:24:26.963Z</time></trkpt><trkpt lat="46.049331449477485" lon="10.892149204887756"><ele>528.3333333333334</ele><time>2026-05-03T10:24:27.963Z</time></trkpt><trkpt lat="46.04947888724561" lon="10.892350526230862"><ele>530.6666666666666</ele><time>2026-05-03T10:24:28.963Z</time></trkpt><trkpt lat="46.04962356134915" lon="10.892553436516797"><ele>533.0</ele><time>2026-05-03T10:24:29.963Z</time></trkpt><trkpt lat="46.049761783984245" lon="10.892737744835426"><ele>533.0</ele><time>2026-05-03T10:24:30.963Z</time></trkpt><trkpt lat="46.049891226855145" lon="10.892907346905403"><ele>533.0</ele><time>2026-05-03T10:24:31.963Z</time></trkpt><trkpt lat="46.050024153504594" lon="10.893070043384068"><ele>533.0</ele><time>2026-05-03T10:24:32.963Z</time></trkpt><trkpt lat="46.0501833263945" lon="10.893205923699707"><ele>533.3333333333333</ele><time>2026-05-03T10:24:33.963Z</time></trkpt><trkpt lat="46.05036897758038" lon="10.893315311463574"><ele>533.6666666666666</ele><time>2026-05-03T10:24:34.963Z</time></trkpt><trkpt lat="46.05055739334356" lon="10.893410100115988"><ele>534.0</ele><time>2026-05-03T10:24:35.963Z</time></trkpt><trkpt lat="46.050736167100006" lon="10.893524928492413"><ele>541.0</ele><time>2026-05-03T10:24:36.963Z</time></trkpt><trkpt lat="46.05091177177857" lon="10.89367930595967"><ele>548.0</ele><time>2026-05-03T10:24:37.963Z</time></trkpt><trkpt lat="46.051078302841695" lon="10.893854330484102"><ele>555.0</ele><time>2026-05-03T10:24:38.963Z</time></trkpt><trkpt lat="46.05124844850742" lon="10.894016882503085"><ele>555.0</ele><time>2026-05-03T10:24:39.962Z</time></trkpt><trkpt lat="46.05141493838458" lon="10.894171875036387"><ele>555.0</ele><time>2026-05-03T10:24:40.962Z</time></trkpt><trkpt lat="46.05157568075076" lon="10.894324304610484"><ele>555.0</ele><time>2026-05-03T10:24:41.962Z</time></trkpt><trkpt lat="46.051730993474045" lon="10.894472666450868"><ele>557.3333333333334</ele><time>2026-05-03T10:24:42.962Z</time></trkpt><trkpt lat="46.0518828612044" lon="10.894622941117321"><ele>559.6666666666667</ele><time>2026-05-03T10:24:43.962Z</time></trkpt><trkpt lat="46.05203576055262" lon="10.894768105031973"><ele>562.0</ele><time>2026-05-03T10:24:44.962Z</time></trkpt><trkpt lat="46.052185280494385" lon="10.894912805928467"><ele>562.0</ele><time>2026-05-03T10:24:45.962Z</time></trkpt><trkpt lat="46.05233295434379" lon="10.895055421814396"><ele>562.0</ele><time>2026-05-03T10:24:46.962Z</time></trkpt><trkpt lat="46.05246265991966" lon="10.895228082427897"><ele>562.0</ele><time>2026-05-03T10:24:47.962Z</time></trkpt><trkpt lat="46.05261879097911" lon="10.895382691340378"><ele>565.0</ele><time>2026-05-03T10:24:48.962Z</time></trkpt><trkpt lat="46.052763472674265" lon="10.895576809078571"><ele>568.0</ele><time>2026-05-03T10:24:49.962Z</time></trkpt><trkpt lat="46.05290723355152" lon="10.895764729664183"><ele>571.0</ele><time>2026-05-03T10:24:50.962Z</time></trkpt><trkpt lat="46.05303956291246" lon="10.895935435280217"><ele>575.0</ele><time>2026-05-03T10:24:51.962Z</time></trkpt><trkpt lat="46.05316316112227" lon="10.896096464521907"><ele>579.0</ele><time>2026-05-03T10:24:52.962Z</time></trkpt><trkpt lat="46.05328635107844" lon="10.89627244701405"><ele>583.0</ele><time>2026-05-03T10:24:53.962Z</time></trkpt><trkpt lat="46.05341615852911" lon="10.896453891223715"><ele>583.0</ele><time>2026-05-03T10:24:54.962Z</time></trkpt><trkpt lat="46.05355960401904" lon="10.896640669228752"><ele>583.0</ele><time>2026-05-03T10:24:55.962Z</time></trkpt><trkpt lat="46.05370498772315" lon="10.896840933062627"><ele>583.0</ele><time>2026-05-03T10:24:56.962Z</time></trkpt><trkpt lat="46.053857848953356" lon="10.897050048783445"><ele>585.6666666666667</ele><time>2026-05-03T10:24:57.962Z</time></trkpt><trkpt lat="46.054018720173524" lon="10.897241222308198"><ele>588.3333333333334</ele><time>2026-05-03T10:24:58.962Z</time></trkpt><trkpt lat="46.05414920335758" lon="10.897439896608502"><ele>591.0</ele><time>2026-05-03T10:24:59.962Z</time></trkpt><trkpt lat="46.05427747489487" lon="10.897611578364659"><ele>585.0</ele><time>2026-05-03T10:25:00.962Z</time></trkpt><trkpt lat="46.054393771438875" lon="10.897761821039849"><ele>579.0</ele><time>2026-05-03T10:25:01.962Z</time></trkpt><trkpt lat="46.05453292937769" lon="10.897896724441127"><ele>573.0</ele><time>2026-05-03T10:25:02.962Z</time></trkpt><trkpt lat="46.0547347455849" lon="10.897996596946669"><ele>577.0</ele><time>2026-05-03T10:25:03.962Z</time></trkpt><trkpt lat="46.05496530228138" lon="10.898096947429039"><ele>581.0</ele><time>2026-05-03T10:25:04.962Z</time></trkpt><trkpt lat="46.05521191754083" lon="10.898181723665262"><ele>581.0</ele><time>2026-05-03T10:25:05.962Z</time></trkpt><trkpt lat="46.05542352506171" lon="10.898193842640906"><ele>581.0</ele><time>2026-05-03T10:25:06.962Z</time></trkpt><trkpt lat="46.055607841097874" lon="10.898215867824483"><ele>581.0</ele><time>2026-05-03T10:25:07.962Z</time></trkpt><trkpt lat="46.05578374558143" lon="10.898228197250594"><ele>581.0</ele><time>2026-05-03T10:25:08.962Z</time></trkpt><trkpt lat="46.05570454542293" lon="10.898178040315408"><ele>581.0</ele><time>2026-05-03T10:25:09.962Z</time></trkpt><trkpt lat="46.055857290389795" lon="10.89819541066749"><ele>581.0</ele><time>2026-05-03T10:25:10.962Z</time></trkpt><trkpt lat="46.0560184951823" lon="10.898166854785643"><ele>581.0</ele><time>2026-05-03T10:25:11.962Z</time></trkpt><trkpt lat="46.05618523745085" lon="10.898089368421786"><ele>581.3333333333333</ele><time>2026-05-03T10:25:12.962Z</time></trkpt><trkpt lat="46.05635360008173" lon="10.897971992271117"><ele>581.6666666666666</ele><time>2026-05-03T10:25:13.962Z</time></trkpt><trkpt lat="46.05652052050683" lon="10.897829708819538"><ele>582.0</ele><time>2026-05-03T10:25:14.962Z</time></trkpt><trkpt lat="46.05666192107544" lon="10.89773012587695"><ele>582.0</ele><time>2026-05-03T10:25:15.962Z</time></trkpt><trkpt lat="46.05679219270312" lon="10.897638411456558"><ele>582.0</ele><time>2026-05-03T10:25:16.962Z</time></trkpt><trkpt lat="46.05690750773112" lon="10.897547933571845"><ele>582.0</ele><time>2026-05-03T10:25:17.962Z</time></trkpt><trkpt lat="46.05701178144012" lon="10.897454450831686"><ele>582.0</ele><time>2026-05-03T10:25:18.962Z</time></trkpt><trkpt lat="46.057117214504814" lon="10.89733846249948"><ele>585.0</ele><time>2026-05-03T10:25:19.962Z</time></trkpt><trkpt lat="46.05721589404939" lon="10.89718529142757"><ele>588.0</ele><time>2026-05-03T10:25:20.962Z</time></trkpt><trkpt lat="46.05730085701619" lon="10.896994522708129"><ele>591.0</ele><time>2026-05-03T10:25:21.962Z</time></trkpt><trkpt lat="46.05736221477681" lon="10.89677555897948"><ele>597.0</ele><time>2026-05-03T10:25:22.962Z</time></trkpt><trkpt lat="46.05738981868775" lon="10.896533295648291"><ele>603.0</ele><time>2026-05-03T10:25:23.962Z</time></trkpt><trkpt lat="46.057379218684424" lon="10.896286193620323"><ele>609.0</ele><time>2026-05-03T10:25:24.962Z</time></trkpt><trkpt lat="46.057332005632695" lon="10.896039863116947"><ele>611.0</ele><time>2026-05-03T10:25:25.962Z</time></trkpt><trkpt lat="46.057264831983986" lon="10.895816823299521"><ele>613.0</ele><time>2026-05-03T10:25:26.962Z</time></trkpt><trkpt lat="46.0572271986305" lon="10.895611397197683"><ele>615.0</ele><time>2026-05-03T10:25:27.962Z</time></trkpt><trkpt lat="46.057220457571155" lon="10.895427190081522"><ele>617.0</ele><time>2026-05-03T10:25:28.962Z</time></trkpt><trkpt lat="46.05723258677184" lon="10.895252980513812"><ele>616.25</ele><time>2026-05-03T10:25:29.962Z</time></trkpt><trkpt lat="46.05726208848194" lon="10.895084095872132"><ele>615.5</ele><time>2026-05-03T10:25:30.962Z</time></trkpt><trkpt lat="46.05731294102114" lon="10.894904025906081"><ele>614.75</ele><time>2026-05-03T10:25:31.962Z</time></trkpt><trkpt lat="46.057406516125496" lon="10.894733240801209"><ele>614.0</ele><time>2026-05-03T10:25:32.962Z</time></trkpt><trkpt lat="46.057509791897246" lon="10.894568250511089"><ele>610.6666666666666</ele><time>2026-05-03T10:25:33.962Z</time></trkpt><trkpt lat="46.05763283090014" lon="10.894431931986583"><ele>607.3333333333334</ele><time>2026-05-03T10:25:34.962Z</time></trkpt><trkpt lat="46.05776647507537" lon="10.89433159368016"><ele>604.0</ele><time>2026-05-03T10:25:35.962Z</time></trkpt><trkpt lat="46.057929224240134" lon="10.894238711600991"><ele>604.0</ele><time>2026-05-03T10:25:36.962Z</time></trkpt><trkpt lat="46.05809865902042" lon="10.89414180551133"><ele>604.0</ele><time>2026-05-03T10:25:37.962Z</time></trkpt><trkpt lat="46.05825085763429" lon="10.894053239081119"><ele>604.0</ele><time>2026-05-03T10:25:38.962Z</time></trkpt><trkpt lat="46.05839569888012" lon="10.893971810251353"><ele>599.3333333333334</ele><time>2026-05-03T10:25:39.962Z</time></trkpt><trkpt lat="46.05855263399909" lon="10.893881766511411"><ele>594.6666666666666</ele><time>2026-05-03T10:25:40.962Z</time></trkpt><trkpt lat="46.05870255738106" lon="10.893763192249084"><ele>590.0</ele><time>2026-05-03T10:25:41.962Z</time></trkpt><trkpt lat="46.05884818651568" lon="10.893665663709431"><ele>590.0</ele><time>2026-05-03T10:25:42.962Z</time></trkpt><trkpt lat="46.05898357911117" lon="10.893557368030589"><ele>590.0</ele><time>2026-05-03T10:25:43.962Z</time></trkpt><trkpt lat="46.059118887595965" lon="10.893408072754829"><ele>590.0</ele><time>2026-05-03T10:25:44.962Z</time></trkpt><trkpt lat="46.05924933213484" lon="10.893274586296911"><ele>590.5</ele><time>2026-05-03T10:25:45.962Z</time></trkpt><trkpt lat="46.05936381251036" lon="10.893148631263104"><ele>591.0</ele><time>2026-05-03T10:25:46.962Z</time></trkpt><trkpt lat="46.05947983312234" lon="10.893024841138631"><ele>591.5</ele><time>2026-05-03T10:25:47.962Z</time></trkpt><trkpt lat="46.05960358757733" lon="10.892902377961944"><ele>592.0</ele><time>2026-05-03T10:25:48.962Z</time></trkpt><trkpt lat="46.05971658333543" lon="10.892769472588695"><ele>597.0</ele><time>2026-05-03T10:25:49.962Z</time></trkpt><trkpt lat="46.05981025083051" lon="10.892587555063516"><ele>602.0</ele><time>2026-05-03T10:25:50.962Z</time></trkpt><trkpt lat="46.059852775583146" lon="10.892350439174932"><ele>607.0</ele><time>2026-05-03T10:25:51.962Z</time></trkpt><trkpt lat="46.05983546034292" lon="10.892099692956041"><ele>607.0</ele><time>2026-05-03T10:25:52.963Z</time></trkpt><trkpt lat="46.059890637326475" lon="10.891958480480787"><ele>607.0</ele><time>2026-05-03T10:25:53.962Z</time></trkpt><trkpt lat="46.05999122629482" lon="10.891868853158782"><ele>607.0</ele><time>2026-05-03T10:25:54.962Z</time></trkpt><trkpt lat="46.06010609927974" lon="10.891810917320518"><ele>607.0</ele><time>2026-05-03T10:25:55.963Z</time></trkpt><trkpt lat="46.06024607497282" lon="10.891794879297574"><ele>604.3333333333334</ele><time>2026-05-03T10:25:56.963Z</time></trkpt><trkpt lat="46.060403276894725" lon="10.891798235711537"><ele>601.6666666666666</ele><time>2026-05-03T10:25:57.963Z</time></trkpt><trkpt lat="46.060557822581266" lon="10.891752918305706"><ele>599.0</ele><time>2026-05-03T10:25:58.963Z</time></trkpt><trkpt lat="46.06071841518029" lon="10.891688836863583"><ele>596.0</ele><time>2026-05-03T10:25:59.962Z</time></trkpt><trkpt lat="46.06087334140768" lon="10.89158077871105"><ele>593.0</ele><time>2026-05-03T10:26:00.962Z</time></trkpt><trkpt lat="46.061018207004594" lon="10.891465844766637"><ele>590.0</ele><time>2026-05-03T10:26:01.963Z</time></trkpt><trkpt lat="46.06116461262427" lon="10.891368250950517"><ele>590.0</ele><time>2026-05-03T10:26:02.963Z</time></trkpt><trkpt lat="46.06128326743943" lon="10.891270623138581"><ele>590.0</ele><time>2026-05-03T10:26:03.963Z</time></trkpt><trkpt lat="46.06137762814143" lon="10.89114791458427"><ele>590.0</ele><time>2026-05-03T10:26:04.963Z</time></trkpt><trkpt lat="46.061467502747824" lon="10.891016746834271"><ele>590.0</ele><time>2026-05-03T10:26:05.962Z</time></trkpt><trkpt lat="46.0615348452355" lon="10.8908256430367"><ele>598.0</ele><time>2026-05-03T10:26:06.962Z</time></trkpt><trkpt lat="46.06156005909229" lon="10.89057346496512"><ele>606.0</ele><time>2026-05-03T10:26:07.962Z</time></trkpt><trkpt lat="46.061539136186646" lon="10.890355916701312"><ele>614.0</ele><time>2026-05-03T10:26:08.962Z</time></trkpt><trkpt lat="46.06148446414282" lon="10.89013573987138"><ele>616.0</ele><time>2026-05-03T10:26:09.962Z</time></trkpt><trkpt lat="46.061404891567975" lon="10.889946370745328"><ele>618.0</ele><time>2026-05-03T10:26:10.962Z</time></trkpt><trkpt lat="46.061313021712415" lon="10.889784572373248"><ele>620.0</ele><time>2026-05-03T10:26:11.962Z</time></trkpt><trkpt lat="46.06124581109767" lon="10.889650948880586"><ele>622.0</ele><time>2026-05-03T10:26:12.962Z</time></trkpt><trkpt lat="46.0612035867874" lon="10.889508256095572"><ele>622.0</ele><time>2026-05-03T10:26:13.962Z</time></trkpt><trkpt lat="46.061177622671934" lon="10.889377619508464"><ele>622.0</ele><time>2026-05-03T10:26:14.962Z</time></trkpt><trkpt lat="46.061170164742336" lon="10.889244567896023"><ele>622.0</ele><time>2026-05-03T10:26:15.962Z</time></trkpt><trkpt lat="46.061201470999144" lon="10.889103474362331"><ele>622.0</ele><time>2026-05-03T10:26:16.962Z</time></trkpt><trkpt lat="46.061248839355336" lon="10.888980858628134"><ele>622.0</ele><time>2026-05-03T10:26:17.962Z</time></trkpt><trkpt lat="46.06133300289902" lon="10.888874278982566"><ele>620.25</ele><time>2026-05-03T10:26:18.962Z</time></trkpt><trkpt lat="46.06143196452327" lon="10.888762205069987"><ele>618.5</ele><time>2026-05-03T10:26:19.962Z</time></trkpt><trkpt lat="46.06158053198152" lon="10.888772486680136"><ele>616.75</ele><time>2026-05-03T10:26:20.962Z</time></trkpt><trkpt lat="46.06170541059664" lon="10.88882350132896"><ele>615.0</ele><time>2026-05-03T10:26:21.962Z</time></trkpt><trkpt lat="46.06183256357572" lon="10.888945160314778"><ele>607.0</ele><time>2026-05-03T10:26:22.962Z</time></trkpt><trkpt lat="46.061951039858585" lon="10.889106206892945"><ele>599.0</ele><time>2026-05-03T10:26:23.962Z</time></trkpt><trkpt lat="46.0620772606765" lon="10.889249363406192"><ele>591.0</ele><time>2026-05-03T10:26:24.962Z</time></trkpt><trkpt lat="46.0621708711117" lon="10.889382898760836"><ele>589.75</ele><time>2026-05-03T10:26:25.962Z</time></trkpt><trkpt lat="46.06225412272844" lon="10.889493397102855"><ele>588.5</ele><time>2026-05-03T10:26:26.962Z</time></trkpt><trkpt lat="46.06234528528273" lon="10.889606492737482"><ele>587.25</ele><time>2026-05-03T10:26:27.962Z</time></trkpt><trkpt lat="46.06243912972466" lon="10.889724831191206"><ele>586.0</ele><time>2026-05-03T10:26:28.962Z</time></trkpt><trkpt lat="46.06253259145482" lon="10.889826181623995"><ele>585.75</ele><time>2026-05-03T10:26:29.962Z</time></trkpt><trkpt lat="46.06263973084471" lon="10.889884076662817"><ele>585.5</ele><time>2026-05-03T10:26:30.962Z</time></trkpt><trkpt lat="46.06275655025996" lon="10.889888749720537"><ele>585.25</ele><time>2026-05-03T10:26:31.962Z</time></trkpt><trkpt lat="46.06288317890728" lon="10.889830580141059"><ele>585.0</ele><time>2026-05-03T10:26:32.962Z</time></trkpt><trkpt lat="46.06299060737775" lon="10.889705205195748"><ele>585.0</ele><time>2026-05-03T10:26:33.962Z</time></trkpt><trkpt lat="46.06306889798695" lon="10.88953627581615"><ele>585.0</ele><time>2026-05-03T10:26:34.962Z</time></trkpt><trkpt lat="46.06311848126317" lon="10.889385512226957"><ele>585.0</ele><time>2026-05-03T10:26:35.962Z</time></trkpt><trkpt lat="46.06318422494907" lon="10.889246294230137"><ele>585.0</ele><time>2026-05-03T10:26:36.962Z</time></trkpt><trkpt lat="46.06326669811164" lon="10.889148367961907"><ele>587.25</ele><time>2026-05-03T10:26:37.962Z</time></trkpt><trkpt lat="46.06337614934834" lon="10.889093384385594"><ele>589.5</ele><time>2026-05-03T10:26:38.962Z</time></trkpt><trkpt lat="46.06348304676398" lon="10.8890490403678"><ele>591.75</ele><time>2026-05-03T10:26:39.962Z</time></trkpt><trkpt lat="46.063595162703585" lon="10.889079766510438"><ele>594.0</ele><time>2026-05-03T10:26:40.962Z</time></trkpt><trkpt lat="46.06370480852613" lon="10.88916147394137"><ele>591.25</ele><time>2026-05-03T10:26:41.962Z</time></trkpt><trkpt lat="46.06380208701691" lon="10.889294050401904"><ele>588.5</ele><time>2026-05-03T10:26:42.962Z</time></trkpt><trkpt lat="46.06388383784763" lon="10.889464924261105"><ele>585.75</ele><time>2026-05-03T10:26:43.962Z</time></trkpt><trkpt lat="46.063902816670556" lon="10.88966497339504"><ele>583.0</ele><time>2026-05-03T10:26:44.962Z</time></trkpt><trkpt lat="46.063898057741284" lon="10.889855328156571"><ele>583.0</ele><time>2026-05-03T10:26:45.962Z</time></trkpt><trkpt lat="46.06389805774297" lon="10.890042097313838"><ele>583.0</ele><time>2026-05-03T10:26:46.962Z</time></trkpt><trkpt lat="46.06389614108232" lon="10.890221148912312"><ele>583.0</ele><time>2026-05-03T10:26:47.962Z</time></trkpt><trkpt lat="46.06390949637294" lon="10.890423573336312"><ele>583.0</ele><time>2026-05-03T10:26:48.962Z</time></trkpt><trkpt lat="46.06389436889516" lon="10.890620582691312"><ele>579.5</ele><time>2026-05-03T10:26:49.962Z</time></trkpt><trkpt lat="46.06389554719256" lon="10.89078988810339"><ele>576.0</ele><time>2026-05-03T10:26:50.962Z</time></trkpt><trkpt lat="46.06390187242182" lon="10.890957563858551"><ele>572.5</ele><time>2026-05-03T10:26:51.962Z</time></trkpt><trkpt lat="46.06392752982051" lon="10.89112002969287"><ele>569.0</ele><time>2026-05-03T10:26:52.962Z</time></trkpt><trkpt lat="46.063987203185455" lon="10.891275644908887"><ele>568.0</ele><time>2026-05-03T10:26:53.962Z</time></trkpt><trkpt lat="46.06407653576837" lon="10.891419399594575"><ele>567.0</ele><time>2026-05-03T10:26:54.962Z</time></trkpt><trkpt lat="46.06419302663134" lon="10.891527951774076"><ele>566.0</ele><time>2026-05-03T10:26:55.962Z</time></trkpt><trkpt lat="46.06431004104347" lon="10.891598150553744"><ele>565.0</ele><time>2026-05-03T10:26:56.962Z</time></trkpt><trkpt lat="46.064436102075014" lon="10.89164129057059"><ele>567.25</ele><time>2026-05-03T10:26:57.962Z</time></trkpt><trkpt lat="46.064544981816496" lon="10.891716226306796"><ele>569.5</ele><time>2026-05-03T10:26:58.962Z</time></trkpt><trkpt lat="46.06464891374528" lon="10.891795046604972"><ele>571.75</ele><time>2026-05-03T10:26:59.962Z</time></trkpt><trkpt lat="46.06472403389199" lon="10.891929099812835"><ele>574.0</ele><time>2026-05-03T10:27:00.962Z</time></trkpt><trkpt lat="46.06480273173778" lon="10.892070141909569"><ele>574.0</ele><time>2026-05-03T10:27:01.962Z</time></trkpt><trkpt lat="46.06488221761243" lon="10.892213239118595"><ele>574.0</ele><time>2026-05-03T10:27:02.962Z</time></trkpt><trkpt lat="46.064941772368606" lon="10.892393028602998"><ele>574.0</ele><time>2026-05-03T10:27:03.962Z</time></trkpt><trkpt lat="46.065000011797615" lon="10.892572553926007"><ele>574.0</ele><time>2026-05-03T10:27:04.962Z</time></trkpt><trkpt lat="46.06507362037839" lon="10.89274980755098"><ele>575.0</ele><time>2026-05-03T10:27:05.962Z</time></trkpt><trkpt lat="46.065155278957064" lon="10.89293338400843"><ele>576.0</ele><time>2026-05-03T10:27:06.962Z</time></trkpt><trkpt lat="46.06522668065728" lon="10.893126067430265"><ele>577.0</ele><time>2026-05-03T10:27:07.962Z</time></trkpt><trkpt lat="46.06534689205375" lon="10.893282186308918"><ele>577.0</ele><time>2026-05-03T10:27:08.962Z</time></trkpt><trkpt lat="46.065487961517" lon="10.893414503212275"><ele>577.0</ele><time>2026-05-03T10:27:09.962Z</time></trkpt><trkpt lat="46.06564720192974" lon="10.893528129110852"><ele>577.0</ele><time>2026-05-03T10:27:10.962Z</time></trkpt><trkpt lat="46.06582428553197" lon="10.893622170954096"><ele>573.3333333333334</ele><time>2026-05-03T10:27:11.962Z</time></trkpt><trkpt lat="46.066021894146154" lon="10.893699648808784"><ele>569.6666666666666</ele><time>2026-05-03T10:27:12.962Z</time></trkpt><trkpt lat="46.06621159201485" lon="10.89371883395387"><ele>566.0</ele><time>2026-05-03T10:27:13.962Z</time></trkpt><trkpt lat="46.066375886795875" lon="10.893704070419906"><ele>566.0</ele><time>2026-05-03T10:27:14.962Z</time></trkpt><trkpt lat="46.0665086519637" lon="10.893695205175236"><ele>566.0</ele><time>2026-05-03T10:27:15.962Z</time></trkpt><trkpt lat="46.066628383252876" lon="10.893679014715794"><ele>566.0</ele><time>2026-05-03T10:27:16.962Z</time></trkpt><trkpt lat="46.06674585029405" lon="10.893614074642704"><ele>566.0</ele><time>2026-05-03T10:27:17.962Z</time></trkpt><trkpt lat="46.06685855941917" lon="10.893460878349513"><ele>574.3333333333333</ele><time>2026-05-03T10:27:18.962Z</time></trkpt><trkpt lat="46.066954942498306" lon="10.893246083840603"><ele>582.6666666666666</ele><time>2026-05-03T10:27:19.962Z</time></trkpt><trkpt lat="46.06704879437022" lon="10.892993049803225"><ele>591.0</ele><time>2026-05-03T10:27:20.962Z</time></trkpt><trkpt lat="46.06713540889369" lon="10.892763656400357"><ele>591.0</ele><time>2026-05-03T10:27:21.962Z</time></trkpt><trkpt lat="46.067216028856095" lon="10.89260126872725"><ele>591.0</ele><time>2026-05-03T10:27:22.962Z</time></trkpt><trkpt lat="46.067288116211856" lon="10.892451211858964"><ele>591.0</ele><time>2026-05-03T10:27:23.962Z</time></trkpt><trkpt lat="46.06734867994231" lon="10.892303949310474"><ele>591.0</ele><time>2026-05-03T10:27:24.962Z</time></trkpt><trkpt lat="46.06741266885815" lon="10.892173563976309"><ele>587.75</ele><time>2026-05-03T10:27:25.962Z</time></trkpt><trkpt lat="46.06749363133233" lon="10.892032372783286"><ele>584.5</ele><time>2026-05-03T10:27:26.962Z</time></trkpt><trkpt lat="46.06760145788539" lon="10.891915671685151"><ele>581.25</ele><time>2026-05-03T10:27:27.962Z</time></trkpt><trkpt lat="46.06771679426787" lon="10.89182789983871"><ele>578.0</ele><time>2026-05-03T10:27:28.962Z</time></trkpt><trkpt lat="46.067841291052986" lon="10.891784823685553"><ele>578.0</ele><time>2026-05-03T10:27:29.962Z</time></trkpt><trkpt lat="46.067958827648795" lon="10.891759117098326"><ele>578.0</ele><time>2026-05-03T10:27:30.962Z</time></trkpt><trkpt lat="46.06808714231272" lon="10.891734080948222"><ele>578.0</ele><time>2026-05-03T10:27:31.962Z</time></trkpt><trkpt lat="46.06821229716295" lon="10.891711555111735"><ele>578.0</ele><time>2026-05-03T10:27:32.962Z</time></trkpt><trkpt lat="46.06834033686706" lon="10.891684298163353"><ele>580.0</ele><time>2026-05-03T10:27:33.962Z</time></trkpt><trkpt lat="46.06846631377464" lon="10.891648976763074"><ele>582.0</ele><time>2026-05-03T10:27:34.962Z</time></trkpt><trkpt lat="46.06860153777575" lon="10.891621010445778"><ele>584.0</ele><time>2026-05-03T10:27:35.962Z</time></trkpt><trkpt lat="46.06874639865333" lon="10.891620917664428"><ele>586.0</ele><time>2026-05-03T10:27:36.962Z</time></trkpt><trkpt lat="46.06888539624266" lon="10.891651185427875"><ele>586.0</ele><time>2026-05-03T10:27:37.962Z</time></trkpt><trkpt lat="46.06902182532759" lon="10.891689778518076"><ele>586.0</ele><time>2026-05-03T10:27:38.962Z</time></trkpt><trkpt lat="46.069160116719395" lon="10.891725909049995"><ele>586.0</ele><time>2026-05-03T10:27:39.962Z</time></trkpt><trkpt lat="46.06929332889633" lon="10.891745487425244"><ele>586.0</ele><time>2026-05-03T10:27:40.962Z</time></trkpt><trkpt lat="46.069415572086356" lon="10.89170850748576"><ele>586.75</ele><time>2026-05-03T10:27:41.962Z</time></trkpt><trkpt lat="46.069537553509086" lon="10.891614922355652"><ele>587.5</ele><time>2026-05-03T10:27:42.962Z</time></trkpt><trkpt lat="46.069657835411654" lon="10.891499750367668"><ele>588.25</ele><time>2026-05-03T10:27:43.962Z</time></trkpt><trkpt lat="46.06978200789374" lon="10.891428986468176"><ele>589.0</ele><time>2026-05-03T10:27:44.962Z</time></trkpt><trkpt lat="46.06990580427273" lon="10.891417685447486"><ele>587.75</ele><time>2026-05-03T10:27:45.962Z</time></trkpt><trkpt lat="46.070036590747584" lon="10.891409917929789"><ele>586.5</ele><time>2026-05-03T10:27:46.962Z</time></trkpt><trkpt lat="46.070165280199426" lon="10.891424114220058"><ele>585.25</ele><time>2026-05-03T10:27:47.962Z</time></trkpt><trkpt lat="46.07028556479378" lon="10.891415312269864"><ele>584.0</ele><time>2026-05-03T10:27:48.961Z</time></trkpt><trkpt lat="46.070407603905394" lon="10.891361699972904"><ele>584.0</ele><time>2026-05-03T10:27:49.961Z</time></trkpt><trkpt lat="46.07053734877842" lon="10.891260850256149"><ele>584.0</ele><time>2026-05-03T10:27:50.961Z</time></trkpt><trkpt lat="46.0706685510746" lon="10.891138121135414"><ele>584.0</ele><time>2026-05-03T10:27:51.961Z</time></trkpt><trkpt lat="46.07082152909029" lon="10.8910411996131"><ele>588.6666666666666</ele><time>2026-05-03T10:27:52.961Z</time></trkpt><trkpt lat="46.07097164259462" lon="10.890926306899036"><ele>593.3333333333334</ele><time>2026-05-03T10:27:53.961Z</time></trkpt><trkpt lat="46.071130088663445" lon="10.890817453859324"><ele>598.0</ele><time>2026-05-03T10:27:54.961Z</time></trkpt><trkpt lat="46.07129937182172" lon="10.890735646228155"><ele>598.0</ele><time>2026-05-03T10:27:55.961Z</time></trkpt><trkpt lat="46.07147813091454" lon="10.89068634997771"><ele>598.0</ele><time>2026-05-03T10:27:56.961Z</time></trkpt><trkpt lat="46.0716664192436" lon="10.8906393873601"><ele>598.0</ele><time>2026-05-03T10:27:57.961Z</time></trkpt><trkpt lat="46.07183933984661" lon="10.890594554882759"><ele>595.0</ele><time>2026-05-03T10:27:58.962Z</time></trkpt><trkpt lat="46.072003422135424" lon="10.8905520140267"><ele>592.0</ele><time>2026-05-03T10:27:59.962Z</time></trkpt><trkpt lat="46.07215353812899" lon="10.890513435107236"><ele>589.0</ele><time>2026-05-03T10:28:00.962Z</time></trkpt><trkpt lat="46.072296087718506" lon="10.890477558916917"><ele>586.25</ele><time>2026-05-03T10:28:01.962Z</time></trkpt><trkpt lat="46.07244217739518" lon="10.890440791765657"><ele>583.5</ele><time>2026-05-03T10:28:02.962Z</time></trkpt><trkpt lat="46.07259205087452" lon="10.890410973136465"><ele>580.75</ele><time>2026-05-03T10:28:03.962Z</time></trkpt><trkpt lat="46.07272237915179" lon="10.890427928484318"><ele>578.0</ele><time>2026-05-03T10:28:04.963Z</time></trkpt><trkpt lat="46.07285313046866" lon="10.890495214939538"><ele>578.0</ele><time>2026-05-03T10:28:05.962Z</time></trkpt><trkpt lat="46.07297170263591" lon="10.89060088824597"><ele>578.0</ele><time>2026-05-03T10:28:06.962Z</time></trkpt><trkpt lat="46.07308011948072" lon="10.890702548991602"><ele>578.0</ele><time>2026-05-03T10:28:07.962Z</time></trkpt><trkpt lat="46.07319650888516" lon="10.890783207713326"><ele>578.0</ele><time>2026-05-03T10:28:08.961Z</time></trkpt><trkpt lat="46.07329866496927" lon="10.890912158607348"><ele>575.4</ele><time>2026-05-03T10:28:09.961Z</time></trkpt><trkpt lat="46.07339751503169" lon="10.890989602815203"><ele>572.8</ele><time>2026-05-03T10:28:10.962Z</time></trkpt><trkpt lat="46.073488901582664" lon="10.891074388767485"><ele>570.2</ele><time>2026-05-03T10:28:11.962Z</time></trkpt><trkpt lat="46.07359361884128" lon="10.891134815951103"><ele>567.6</ele><time>2026-05-03T10:28:12.962Z</time></trkpt><trkpt lat="46.073691170973056" lon="10.891166245652899"><ele>565.0</ele><time>2026-05-03T10:28:13.962Z</time></trkpt><trkpt lat="46.07380054025146" lon="10.891172887666947"><ele>565.0</ele><time>2026-05-03T10:28:14.962Z</time></trkpt><trkpt lat="46.07391112091933" lon="10.891195687657678"><ele>565.0</ele><time>2026-05-03T10:28:15.962Z</time></trkpt><trkpt lat="46.07401676668584" lon="10.891205780366086"><ele>565.0</ele><time>2026-05-03T10:28:16.962Z</time></trkpt><trkpt lat="46.07411296998988" lon="10.891220714747982"><ele>565.0</ele><time>2026-05-03T10:28:17.962Z</time></trkpt><trkpt lat="46.07420774248336" lon="10.89121103621924"><ele>565.0</ele><time>2026-05-03T10:28:18.962Z</time></trkpt><trkpt lat="46.074286395310196" lon="10.891147885935881"><ele>566.4</ele><time>2026-05-03T10:28:19.962Z</time></trkpt><trkpt lat="46.07435924576923" lon="10.891057019382757"><ele>567.8</ele><time>2026-05-03T10:28:20.962Z</time></trkpt><trkpt lat="46.07442265202321" lon="10.890970054267218"><ele>569.2</ele><time>2026-05-03T10:28:21.962Z</time></trkpt><trkpt lat="46.07449332968429" lon="10.890900707529882"><ele>570.6</ele><time>2026-05-03T10:28:22.962Z</time></trkpt><trkpt lat="46.074577251622195" lon="10.890856788803696"><ele>572.0</ele><time>2026-05-03T10:28:23.962Z</time></trkpt><trkpt lat="46.07468748079906" lon="10.89086087388687"><ele>572.0</ele><time>2026-05-03T10:28:24.962Z</time></trkpt><trkpt lat="46.0748023061057" lon="10.890909830492323"><ele>572.0</ele><time>2026-05-03T10:28:25.962Z</time></trkpt><trkpt lat="46.074916689698064" lon="10.890956470883403"><ele>572.0</ele><time>2026-05-03T10:28:26.962Z</time></trkpt><trkpt lat="46.07503288421439" lon="10.890997447876119"><ele>572.0</ele><time>2026-05-03T10:28:27.962Z</time></trkpt><trkpt lat="46.07515405103616" lon="10.891027914609156"><ele>572.75</ele><time>2026-05-03T10:28:28.962Z</time></trkpt><trkpt lat="46.07528031208828" lon="10.891049922379013"><ele>573.5</ele><time>2026-05-03T10:28:29.962Z</time></trkpt><trkpt lat="46.07539771652614" lon="10.891039739439385"><ele>574.25</ele><time>2026-05-03T10:28:30.962Z</time></trkpt><trkpt lat="46.075506450224715" lon="10.891001845970708"><ele>575.0</ele><time>2026-05-03T10:28:31.962Z</time></trkpt><trkpt lat="46.07560272229485" lon="10.89097048877251"><ele>575.0</ele><time>2026-05-03T10:28:32.962Z</time></trkpt><trkpt lat="46.07569108369693" lon="10.890932080096272"><ele>575.0</ele><time>2026-05-03T10:28:33.962Z</time></trkpt><trkpt lat="46.075770095855646" lon="10.890922864355446"><ele>575.0</ele><time>2026-05-03T10:28:34.962Z</time></trkpt><trkpt lat="46.07585321095676" lon="10.89094045768673"><ele>575.0</ele><time>2026-05-03T10:28:35.962Z</time></trkpt><trkpt lat="46.075938205838064" lon="10.890986601686217"><ele>575.0</ele><time>2026-05-03T10:28:36.962Z</time></trkpt><trkpt lat="46.07601465818124" lon="10.891101630874827"><ele>577.75</ele><time>2026-05-03T10:28:37.962Z</time></trkpt><trkpt lat="46.0760617634746" lon="10.8912607391084"><ele>580.5</ele><time>2026-05-03T10:28:38.962Z</time></trkpt><trkpt lat="46.07606458854442" lon="10.891439490203636"><ele>583.25</ele><time>2026-05-03T10:28:39.962Z</time></trkpt><trkpt lat="46.0760158481871" lon="10.8916284978805"><ele>586.0</ele><time>2026-05-03T10:28:40.962Z</time></trkpt><trkpt lat="46.07593087799195" lon="10.891787124205424"><ele>582.0</ele><time>2026-05-03T10:28:41.962Z</time></trkpt><trkpt lat="46.075867863228595" lon="10.891933521494936"><ele>578.0</ele><time>2026-05-03T10:28:42.962Z</time></trkpt><trkpt lat="46.075803128163884" lon="10.892110325228034"><ele>574.0</ele><time>2026-05-03T10:28:43.962Z</time></trkpt><trkpt lat="46.07572525786439" lon="10.892294514616855"><ele>570.0</ele><time>2026-05-03T10:28:44.962Z</time></trkpt><trkpt lat="46.07563759708839" lon="10.892483509571852"><ele>577.6666666666666</ele><time>2026-05-03T10:28:45.962Z</time></trkpt><trkpt lat="46.07555303108351" lon="10.892710317811229"><ele>585.3333333333333</ele><time>2026-05-03T10:28:46.962Z</time></trkpt><trkpt lat="46.075474668340824" lon="10.892918668993099"><ele>593.0</ele><time>2026-05-03T10:28:47.962Z</time></trkpt><trkpt lat="46.07541454864719" lon="10.89311670571904"><ele>593.0</ele><time>2026-05-03T10:28:48.962Z</time></trkpt><trkpt lat="46.075358492480504" lon="10.893287979409411"><ele>593.0</ele><time>2026-05-03T10:28:49.962Z</time></trkpt><trkpt lat="46.07530345917153" lon="10.893464719434494"><ele>593.0</ele><time>2026-05-03T10:28:50.962Z</time></trkpt><trkpt lat="46.075270750883426" lon="10.89366297358753"><ele>593.0</ele><time>2026-05-03T10:28:51.962Z</time></trkpt><trkpt lat="46.07527014366626" lon="10.893858418189014"><ele>598.1999999999999</ele><time>2026-05-03T10:28:52.962Z</time></trkpt><trkpt lat="46.075287262120895" lon="10.894019791552155"><ele>603.4</ele><time>2026-05-03T10:28:53.962Z</time></trkpt><trkpt lat="46.07529724319732" lon="10.894182905898754"><ele>608.5999999999999</ele><time>2026-05-03T10:28:54.962Z</time></trkpt><trkpt lat="46.075263635115626" lon="10.894331144183607"><ele>613.8</ele><time>2026-05-03T10:28:55.962Z</time></trkpt><trkpt lat="46.07520357683559" lon="10.894446099989036"><ele>619.0</ele><time>2026-05-03T10:28:56.962Z</time></trkpt><trkpt lat="46.07513645271492" lon="10.894513635545275"><ele>621.8333333333334</ele><time>2026-05-03T10:28:57.962Z</time></trkpt><trkpt lat="46.07504142506463" lon="10.894518666657678"><ele>624.6666666666667</ele><time>2026-05-03T10:28:58.962Z</time></trkpt><trkpt lat="46.07494752030272" lon="10.894480441913592"><ele>627.5</ele><time>2026-05-03T10:28:59.962Z</time></trkpt><trkpt lat="46.07488120298374" lon="10.894426036942757"><ele>630.3333333333334</ele><time>2026-05-03T10:29:00.962Z</time></trkpt><trkpt lat="46.074837658040636" lon="10.894315078163185"><ele>633.1666666666666</ele><time>2026-05-03T10:29:01.962Z</time></trkpt><trkpt lat="46.07478646976636" lon="10.894229595467129"><ele>636.0</ele><time>2026-05-03T10:29:02.962Z</time></trkpt><trkpt lat="46.07470253364535" lon="10.894115904056893"><ele>636.0</ele><time>2026-05-03T10:29:04.962Z</time></trkpt><trkpt lat="46.07458540976965" lon="10.894007065210493"><ele>636.0</ele><time>2026-05-03T10:29:06.962Z</time></trkpt><trkpt lat="46.07450875136872" lon="10.893960113440661"><ele>636.0</ele><time>2026-05-03T10:29:07.962Z</time></trkpt><trkpt lat="46.07440843888682" lon="10.89391313840495"><ele>636.0</ele><time>2026-05-03T10:29:08.962Z</time></trkpt><trkpt lat="46.074299181905644" lon="10.893866728967605"><ele>636.0</ele><time>2026-05-03T10:29:09.962Z</time></trkpt><trkpt lat="46.07416609118936" lon="10.893811544018464"><ele>635.75</ele><time>2026-05-03T10:29:10.962Z</time></trkpt><trkpt lat="46.07402501293894" lon="10.893758402983932"><ele>635.5</ele><time>2026-05-03T10:29:11.962Z</time></trkpt><trkpt lat="46.073887552059276" lon="10.893712030368118"><ele>635.25</ele><time>2026-05-03T10:29:12.962Z</time></trkpt><trkpt lat="46.0737527489428" lon="10.893684114859843"><ele>635.0</ele><time>2026-05-03T10:29:13.962Z</time></trkpt><trkpt lat="46.07362517234301" lon="10.893667898361146"><ele>635.0</ele><time>2026-05-03T10:29:14.962Z</time></trkpt><trkpt lat="46.073493763699986" lon="10.893653684616554"><ele>635.0</ele><time>2026-05-03T10:29:15.962Z</time></trkpt><trkpt lat="46.073363350091974" lon="10.893639578543246"><ele>635.0</ele><time>2026-05-03T10:29:16.962Z</time></trkpt><trkpt lat="46.073224584632555" lon="10.893624628018209"><ele>635.0</ele><time>2026-05-03T10:29:17.962Z</time></trkpt><trkpt lat="46.073087777638555" lon="10.893614117074797"><ele>630.25</ele><time>2026-05-03T10:29:18.962Z</time></trkpt><trkpt lat="46.072955039478806" lon="10.893614910528969"><ele>625.5</ele><time>2026-05-03T10:29:19.962Z</time></trkpt><trkpt lat="46.0728027080047" lon="10.893696718662358"><ele>620.75</ele><time>2026-05-03T10:29:20.962Z</time></trkpt><trkpt lat="46.07268859607242" lon="10.893821560456624"><ele>616.0</ele><time>2026-05-03T10:29:21.962Z</time></trkpt><trkpt lat="46.07261237717598" lon="10.893982243146834"><ele>616.0</ele><time>2026-05-03T10:29:22.962Z</time></trkpt><trkpt lat="46.07255606338891" lon="10.894112579549589"><ele>616.0</ele><time>2026-05-03T10:29:23.962Z</time></trkpt><trkpt lat="46.072534610753024" lon="10.894246570704839"><ele>616.0</ele><time>2026-05-03T10:29:24.962Z</time></trkpt><trkpt lat="46.072532577708095" lon="10.894394055240904"><ele>616.0</ele><time>2026-05-03T10:29:25.962Z</time></trkpt><trkpt lat="46.07254896408452" lon="10.894511377768984"><ele>616.0</ele><time>2026-05-03T10:29:26.961Z</time></trkpt><trkpt lat="46.07258394674624" lon="10.89461575219958"><ele>616.8333333333334</ele><time>2026-05-03T10:29:27.961Z</time></trkpt><trkpt lat="46.07263431065525" lon="10.894693006929822"><ele>617.6666666666667</ele><time>2026-05-03T10:29:28.961Z</time></trkpt><trkpt lat="46.072704828360905" lon="10.894721516083377"><ele>618.5</ele><time>2026-05-03T10:29:29.961Z</time></trkpt><trkpt lat="46.07277744074206" lon="10.894691080319372"><ele>619.3333333333334</ele><time>2026-05-03T10:29:30.961Z</time></trkpt><trkpt lat="46.07283412487725" lon="10.894619241982154"><ele>620.1666666666666</ele><time>2026-05-03T10:29:31.961Z</time></trkpt><trkpt lat="46.07286504285438" lon="10.894497907393328"><ele>621.0</ele><time>2026-05-03T10:29:32.961Z</time></trkpt><trkpt lat="46.07286373563255" lon="10.894354144146583"><ele>620.1666666666666</ele><time>2026-05-03T10:29:33.961Z</time></trkpt><trkpt lat="46.07284569686037" lon="10.89422015754044"><ele>619.3333333333334</ele><time>2026-05-03T10:29:34.961Z</time></trkpt><trkpt lat="46.07284738945859" lon="10.894104023434691"><ele>618.5</ele><time>2026-05-03T10:29:35.961Z</time></trkpt><trkpt lat="46.072886725669555" lon="10.8940174779634"><ele>617.6666666666667</ele><time>2026-05-03T10:29:36.961Z</time></trkpt><trkpt lat="46.07295406189061" lon="10.893965138284006"><ele>616.8333333333334</ele><time>2026-05-03T10:29:37.961Z</time></trkpt><trkpt lat="46.0730436147249" lon="10.893952095335907"><ele>616.0</ele><time>2026-05-03T10:29:38.961Z</time></trkpt><trkpt lat="46.073125221951834" lon="10.8939956711951"><ele>616.0</ele><time>2026-05-03T10:29:39.961Z</time></trkpt><trkpt lat="46.07317798173011" lon="10.894094393257234"><ele>616.0</ele><time>2026-05-03T10:29:40.961Z</time></trkpt><trkpt lat="46.07320467317943" lon="10.894233147509034"><ele>616.0</ele><time>2026-05-03T10:29:41.961Z</time></trkpt><trkpt lat="46.07322956550972" lon="10.894384806340227"><ele>616.0</ele><time>2026-05-03T10:29:42.961Z</time></trkpt><trkpt lat="46.07325919361805" lon="10.894548777541308"><ele>616.0</ele><time>2026-05-03T10:29:43.961Z</time></trkpt><trkpt lat="46.07329096219556" lon="10.894723545751377"><ele>621.75</ele><time>2026-05-03T10:29:44.961Z</time></trkpt><trkpt lat="46.07331734535685" lon="10.894909175917315"><ele>627.5</ele><time>2026-05-03T10:29:45.961Z</time></trkpt><trkpt lat="46.07333523423486" lon="10.895106568986456"><ele>633.25</ele><time>2026-05-03T10:29:46.961Z</time></trkpt><trkpt lat="46.07334769691553" lon="10.895307679559329"><ele>639.0</ele><time>2026-05-03T10:29:47.961Z</time></trkpt><trkpt lat="46.07335631881971" lon="10.895511844985908"><ele>640.25</ele><time>2026-05-03T10:29:48.961Z</time></trkpt><trkpt lat="46.07335700696867" lon="10.895695873449245"><ele>641.5</ele><time>2026-05-03T10:29:49.961Z</time></trkpt><trkpt lat="46.073351661853195" lon="10.895876672406866"><ele>642.75</ele><time>2026-05-03T10:29:50.961Z</time></trkpt><trkpt lat="46.07334516040498" lon="10.896056758521246"><ele>644.0</ele><time>2026-05-03T10:29:51.961Z</time></trkpt><trkpt lat="46.073338148154555" lon="10.89623491097815"><ele>644.0</ele><time>2026-05-03T10:29:52.961Z</time></trkpt><trkpt lat="46.073329104593284" lon="10.896409666947605"><ele>644.0</ele><time>2026-05-03T10:29:53.961Z</time></trkpt><trkpt lat="46.07332468687553" lon="10.896578761054307"><ele>644.0</ele><time>2026-05-03T10:29:54.961Z</time></trkpt><trkpt lat="46.07332792908924" lon="10.896735403863463"><ele>644.0</ele><time>2026-05-03T10:29:55.961Z</time></trkpt><trkpt lat="46.07333989898541" lon="10.896904565004126"><ele>644.0</ele><time>2026-05-03T10:29:56.961Z</time></trkpt><trkpt lat="46.07335039944734" lon="10.897062316480769"><ele>644.0</ele><time>2026-05-03T10:29:57.961Z</time></trkpt><trkpt lat="46.07336472279049" lon="10.89721202244919"><ele>644.0</ele><time>2026-05-03T10:29:58.961Z</time></trkpt><trkpt lat="46.07337007043355" lon="10.89735934427052"><ele>644.0</ele><time>2026-05-03T10:29:59.961Z</time></trkpt><trkpt lat="46.07337206124364" lon="10.897528547301679"><ele>644.0</ele><time>2026-05-03T10:30:00.961Z</time></trkpt><trkpt lat="46.07337128075894" lon="10.897701388435449"><ele>645.25</ele><time>2026-05-03T10:30:01.961Z</time></trkpt><trkpt lat="46.07335824175511" lon="10.897881856761526"><ele>646.5</ele><time>2026-05-03T10:30:02.961Z</time></trkpt><trkpt lat="46.07333260378924" lon="10.898040367607328"><ele>647.75</ele><time>2026-05-03T10:30:03.962Z</time></trkpt><trkpt lat="46.07329880524129" lon="10.898200471226728"><ele>649.0</ele><time>2026-05-03T10:30:04.961Z</time></trkpt><trkpt lat="46.073277027896786" lon="10.898361738271122"><ele>650.0</ele><time>2026-05-03T10:30:05.961Z</time></trkpt><trkpt lat="46.073273414108755" lon="10.898512068686083"><ele>651.0</ele><time>2026-05-03T10:30:06.962Z</time></trkpt><trkpt lat="46.07328791137405" lon="10.898665477492193"><ele>652.0</ele><time>2026-05-03T10:30:07.962Z</time></trkpt><trkpt lat="46.07330777174908" lon="10.898798809076212"><ele>653.0</ele><time>2026-05-03T10:30:08.962Z</time></trkpt><trkpt lat="46.073332673843346" lon="10.898911157381052"><ele>654.0</ele><time>2026-05-03T10:30:09.962Z</time></trkpt><trkpt lat="46.07335356695535" lon="10.899010223185938"><ele>654.0</ele><time>2026-05-03T10:30:10.961Z</time></trkpt><trkpt lat="46.073383417988964" lon="10.899114750907081"><ele>654.0</ele><time>2026-05-03T10:30:11.961Z</time></trkpt><trkpt lat="46.07342100622048" lon="10.899242555750371"><ele>654.0</ele><time>2026-05-03T10:30:12.961Z</time></trkpt><trkpt lat="46.07345910003986" lon="10.899388206299768"><ele>654.0</ele><time>2026-05-03T10:30:13.961Z</time></trkpt><trkpt lat="46.073493115639444" lon="10.899543788147453"><ele>654.0</ele><time>2026-05-03T10:30:14.961Z</time></trkpt><trkpt lat="46.07353000757843" lon="10.899716642993543"><ele>653.6666666666666</ele><time>2026-05-03T10:30:15.961Z</time></trkpt><trkpt lat="46.07358061228734" lon="10.899893039236929"><ele>653.3333333333333</ele><time>2026-05-03T10:30:16.962Z</time></trkpt><trkpt lat="46.07363800175002" lon="10.90010180906675"><ele>653.0</ele><time>2026-05-03T10:30:17.962Z</time></trkpt><trkpt lat="46.073700360844754" lon="10.900337362102048"><ele>651.0</ele><time>2026-05-03T10:30:18.962Z</time></trkpt><trkpt lat="46.073764140065826" lon="10.900577123392623"><ele>649.0</ele><time>2026-05-03T10:30:19.962Z</time></trkpt><trkpt lat="46.07383362859372" lon="10.900823404111524"><ele>647.0</ele><time>2026-05-03T10:30:20.962Z</time></trkpt><trkpt lat="46.073907734194584" lon="10.901069070091431"><ele>647.0</ele><time>2026-05-03T10:30:21.961Z</time></trkpt><trkpt lat="46.07397693147917" lon="10.901311544402436"><ele>647.0</ele><time>2026-05-03T10:30:22.961Z</time></trkpt><trkpt lat="46.07404808090388" lon="10.901557291523913"><ele>647.0</ele><time>2026-05-03T10:30:23.961Z</time></trkpt><trkpt lat="46.07412477702784" lon="10.901809424320936"><ele>654.0</ele><time>2026-05-03T10:30:24.961Z</time></trkpt><trkpt lat="46.074199439080424" lon="10.902066034627476"><ele>661.0</ele><time>2026-05-03T10:30:25.961Z</time></trkpt><trkpt lat="46.07426572684642" lon="10.902298115520825"><ele>668.0</ele><time>2026-05-03T10:30:26.961Z</time></trkpt><trkpt lat="46.074327221759205" lon="10.902522477792775"><ele>668.3333333333333</ele><time>2026-05-03T10:30:27.961Z</time></trkpt><trkpt lat="46.0743935169956" lon="10.902739443398689"><ele>668.6666666666666</ele><time>2026-05-03T10:30:28.961Z</time></trkpt><trkpt lat="46.074462363972245" lon="10.902945770878443"><ele>669.0</ele><time>2026-05-03T10:30:29.961Z</time></trkpt><trkpt lat="46.074538508217785" lon="10.903142691247139"><ele>669.0</ele><time>2026-05-03T10:30:30.961Z</time></trkpt><trkpt lat="46.07461015066032" lon="10.903335319673612"><ele>669.0</ele><time>2026-05-03T10:30:31.961Z</time></trkpt><trkpt lat="46.07468037241938" lon="10.903523824246058"><ele>669.0</ele><time>2026-05-03T10:30:32.961Z</time></trkpt><trkpt lat="46.07475786602182" lon="10.903709285285318"><ele>669.0</ele><time>2026-05-03T10:30:33.961Z</time></trkpt><trkpt lat="46.07483222496846" lon="10.903889798974552"><ele>669.0</ele><time>2026-05-03T10:30:34.961Z</time></trkpt><trkpt lat="46.074907402446286" lon="10.904077082227987"><ele>669.0</ele><time>2026-05-03T10:30:35.961Z</time></trkpt><trkpt lat="46.074986113798" lon="10.904275418442989"><ele>674.6666666666666</ele><time>2026-05-03T10:30:36.961Z</time></trkpt><trkpt lat="46.07506584643742" lon="10.904481554925193"><ele>680.3333333333333</ele><time>2026-05-03T10:30:37.961Z</time></trkpt><trkpt lat="46.07515280012986" lon="10.90469298587993"><ele>686.0</ele><time>2026-05-03T10:30:38.961Z</time></trkpt><trkpt lat="46.07523735993002" lon="10.904915032204283"><ele>686.0</ele><time>2026-05-03T10:30:39.961Z</time></trkpt><trkpt lat="46.07530734763209" lon="10.905123837571308"><ele>686.0</ele><time>2026-05-03T10:30:40.961Z</time></trkpt><trkpt lat="46.07536620130173" lon="10.90531414084675"><ele>686.0</ele><time>2026-05-03T10:30:41.961Z</time></trkpt><trkpt lat="46.07541766821265" lon="10.905476463336507"><ele>686.0</ele><time>2026-05-03T10:30:42.961Z</time></trkpt><trkpt lat="46.07546107076866" lon="10.90563357826163"><ele>686.0</ele><time>2026-05-03T10:30:43.961Z</time></trkpt><trkpt lat="46.07550093804258" lon="10.905785773382233"><ele>686.0</ele><time>2026-05-03T10:30:44.961Z</time></trkpt><trkpt lat="46.075545272584826" lon="10.905937882105432"><ele>686.0</ele><time>2026-05-03T10:30:45.961Z</time></trkpt><trkpt lat="46.07558615779028" lon="10.906086444443138"><ele>686.0</ele><time>2026-05-03T10:30:46.961Z</time></trkpt><trkpt lat="46.07562694419002" lon="10.906242889713587"><ele>686.75</ele><time>2026-05-03T10:30:47.961Z</time></trkpt><trkpt lat="46.07565439723723" lon="10.906415373749459"><ele>687.5</ele><time>2026-05-03T10:30:48.961Z</time></trkpt><trkpt lat="46.07567904960383" lon="10.906602226629706"><ele>688.25</ele><time>2026-05-03T10:30:49.961Z</time></trkpt><trkpt lat="46.07569874738175" lon="10.906781296422627"><ele>689.0</ele><time>2026-05-03T10:30:50.961Z</time></trkpt><trkpt lat="46.07571190226083" lon="10.906950919442204"><ele>689.8000000000001</ele><time>2026-05-03T10:30:51.961Z</time></trkpt><trkpt lat="46.075722753624056" lon="10.907117775544775"><ele>690.6</ele><time>2026-05-03T10:30:52.961Z</time></trkpt><trkpt lat="46.07573240979619" lon="10.90727833952721"><ele>691.4</ele><time>2026-05-03T10:30:53.961Z</time></trkpt><trkpt lat="46.075740457368774" lon="10.907419482674708"><ele>692.2</ele><time>2026-05-03T10:30:54.961Z</time></trkpt><trkpt lat="46.07575161398556" lon="10.907557223029107"><ele>693.0</ele><time>2026-05-03T10:30:55.961Z</time></trkpt><trkpt lat="46.07574909999138" lon="10.907689462743207"><ele>697.2</ele><time>2026-05-03T10:30:56.961Z</time></trkpt><trkpt lat="46.07579498821365" lon="10.907817351974293"><ele>701.4</ele><time>2026-05-03T10:30:57.961Z</time></trkpt><trkpt lat="46.07585525674863" lon="10.907911344788719"><ele>705.6</ele><time>2026-05-03T10:30:58.961Z</time></trkpt><trkpt lat="46.07593012961365" lon="10.907967434087574"><ele>709.8000000000001</ele><time>2026-05-03T10:30:59.961Z</time></trkpt><trkpt lat="46.07601899902488" lon="10.907997730740707"><ele>714.0</ele><time>2026-05-03T10:31:00.961Z</time></trkpt><trkpt lat="46.07612002063198" lon="10.907996659463857"><ele>714.0</ele><time>2026-05-03T10:31:01.961Z</time></trkpt><trkpt lat="46.076228429512774" lon="10.90797557413186"><ele>714.0</ele><time>2026-05-03T10:31:02.961Z</time></trkpt><trkpt lat="46.07630544043591" lon="10.907883395725813"><ele>714.0</ele><time>2026-05-03T10:31:03.961Z</time></trkpt><trkpt lat="46.07636114138454" lon="10.907788330429034"><ele>714.0</ele><time>2026-05-03T10:31:04.961Z</time></trkpt><trkpt lat="46.07641159366162" lon="10.907654493916004"><ele>714.0</ele><time>2026-05-03T10:31:05.961Z</time></trkpt><trkpt lat="46.07646563726227" lon="10.90751157337142"><ele>713.3333333333334</ele><time>2026-05-03T10:31:06.961Z</time></trkpt><trkpt lat="46.07650192464401" lon="10.907396579012413"><ele>712.6666666666666</ele><time>2026-05-03T10:31:07.961Z</time></trkpt><trkpt lat="46.076541048630475" lon="10.907289003997855"><ele>712.0</ele><time>2026-05-03T10:31:08.961Z</time></trkpt><trkpt lat="46.076576888497954" lon="10.907189267262599"><ele>711.3333333333333</ele><time>2026-05-03T10:31:09.961Z</time></trkpt><trkpt lat="46.07661265777149" lon="10.907073466378668"><ele>710.6666666666666</ele><time>2026-05-03T10:31:10.961Z</time></trkpt><trkpt lat="46.07667565527175" lon="10.906999236215187"><ele>710.0</ele><time>2026-05-03T10:31:11.961Z</time></trkpt><trkpt lat="46.07675301661158" lon="10.906972574691288"><ele>712.0</ele><time>2026-05-03T10:31:12.961Z</time></trkpt><trkpt lat="46.07683919134142" lon="10.90699039987736"><ele>714.0</ele><time>2026-05-03T10:31:13.961Z</time></trkpt><trkpt lat="46.07691599703015" lon="10.907069981633501"><ele>716.0</ele><time>2026-05-03T10:31:14.961Z</time></trkpt><trkpt lat="46.07696493239013" lon="10.907186819529612"><ele>718.0</ele><time>2026-05-03T10:31:15.961Z</time></trkpt><trkpt lat="46.076970803692575" lon="10.907324266866196"><ele>720.0</ele><time>2026-05-03T10:31:16.961Z</time></trkpt><trkpt lat="46.076927862863805" lon="10.907457593799649"><ele>721.8</ele><time>2026-05-03T10:31:17.961Z</time></trkpt><trkpt lat="46.07690004206926" lon="10.907598682394747"><ele>723.6</ele><time>2026-05-03T10:31:18.961Z</time></trkpt><trkpt lat="46.07687180728165" lon="10.907747227815793"><ele>725.4000000000001</ele><time>2026-05-03T10:31:19.961Z</time></trkpt><trkpt lat="46.076841157494606" lon="10.90790847891957"><ele>727.2</ele><time>2026-05-03T10:31:20.961Z</time></trkpt><trkpt lat="46.076810304234556" lon="10.908070800582136"><ele>729.0</ele><time>2026-05-03T10:31:21.961Z</time></trkpt><trkpt lat="46.07677975613919" lon="10.908231516253874"><ele>729.0</ele><time>2026-05-03T10:31:22.961Z</time></trkpt><trkpt lat="46.07675087106836" lon="10.908393656730052"><ele>729.0</ele><time>2026-05-03T10:31:23.961Z</time></trkpt><trkpt lat="46.07672844488389" lon="10.908547851111779"><ele>729.0</ele><time>2026-05-03T10:31:24.961Z</time></trkpt><trkpt lat="46.076700888050404" lon="10.908693117814122"><ele>729.0</ele><time>2026-05-03T10:31:25.961Z</time></trkpt><trkpt lat="46.07667674082958" lon="10.9088299712628"><ele>729.0</ele><time>2026-05-03T10:31:26.961Z</time></trkpt><trkpt lat="46.07665712496294" lon="10.90895338257783"><ele>729.2857142857143</ele><time>2026-05-03T10:31:27.961Z</time></trkpt><trkpt lat="46.07665229225122" lon="10.909072116213544"><ele>729.5714285714286</ele><time>2026-05-03T10:31:28.961Z</time></trkpt><trkpt lat="46.07664849825876" lon="10.90917960154459"><ele>729.8571428571429</ele><time>2026-05-03T10:31:29.961Z</time></trkpt><trkpt lat="46.076651102540914" lon="10.909270482330625"><ele>730.1428571428571</ele><time>2026-05-03T10:31:30.961Z</time></trkpt><trkpt lat="46.07666119857519" lon="10.909366398316383"><ele>730.4285714285713</ele><time>2026-05-03T10:31:31.961Z</time></trkpt><trkpt lat="46.076678796987025" lon="10.909468912456035"><ele>730.7142857142857</ele><time>2026-05-03T10:31:32.961Z</time></trkpt><trkpt lat="46.076699441431316" lon="10.90956750927584"><ele>731.0</ele><time>2026-05-03T10:31:33.961Z</time></trkpt><trkpt lat="46.07673080651704" lon="10.909677006894707"><ele>731.0</ele><time>2026-05-03T10:31:34.961Z</time></trkpt><trkpt lat="46.076769828836184" lon="10.90979755981593"><ele>731.0</ele><time>2026-05-03T10:31:35.961Z</time></trkpt><trkpt lat="46.076812022418345" lon="10.909929881988354"><ele>731.0</ele><time>2026-05-03T10:31:36.961Z</time></trkpt><trkpt lat="46.07685673380745" lon="10.910072585174376"><ele>731.0</ele><time>2026-05-03T10:31:37.961Z</time></trkpt><trkpt lat="46.0768926025396" lon="10.910232849546336"><ele>731.0</ele><time>2026-05-03T10:31:38.961Z</time></trkpt><trkpt lat="46.07692541904683" lon="10.910404059927634"><ele>731.75</ele><time>2026-05-03T10:31:39.961Z</time></trkpt><trkpt lat="46.07694742338422" lon="10.910587158508656"><ele>732.5</ele><time>2026-05-03T10:31:40.961Z</time></trkpt><trkpt lat="46.07695968746264" lon="10.91078380360297"><ele>733.25</ele><time>2026-05-03T10:31:41.961Z</time></trkpt><trkpt lat="46.076967329072104" lon="10.91099669613463"><ele>734.0</ele><time>2026-05-03T10:31:42.961Z</time></trkpt><trkpt lat="46.07698035536582" lon="10.911219370649487"><ele>735.5</ele><time>2026-05-03T10:31:43.961Z</time></trkpt><trkpt lat="46.07698627896709" lon="10.911443001320833"><ele>737.0</ele><time>2026-05-03T10:31:44.961Z</time></trkpt><trkpt lat="46.07698786464439" lon="10.911662002464967"><ele>738.5</ele><time>2026-05-03T10:31:45.961Z</time></trkpt><trkpt lat="46.07697346555354" lon="10.911858159364204"><ele>740.0</ele><time>2026-05-03T10:31:46.961Z</time></trkpt><trkpt lat="46.076929481599635" lon="10.912049605101176"><ele>742.0</ele><time>2026-05-03T10:31:47.961Z</time></trkpt><trkpt lat="46.076855188296086" lon="10.912218545501247"><ele>744.0</ele><time>2026-05-03T10:31:48.961Z</time></trkpt><trkpt lat="46.07677112318425" lon="10.91235338988334"><ele>746.0</ele><time>2026-05-03T10:31:49.961Z</time></trkpt><trkpt lat="46.07668951081972" lon="10.912450600322769"><ele>748.0</ele><time>2026-05-03T10:31:50.961Z</time></trkpt><trkpt lat="46.076629768585086" lon="10.912535992459599"><ele>753.0</ele><time>2026-05-03T10:31:51.961Z</time></trkpt><trkpt lat="46.07661513228353" lon="10.912637771383535"><ele>758.0</ele><time>2026-05-03T10:31:52.961Z</time></trkpt><trkpt lat="46.07661743894623" lon="10.91276410762808"><ele>763.0</ele><time>2026-05-03T10:31:53.961Z</time></trkpt><trkpt lat="46.076678293071915" lon="10.912867635136186"><ele>768.0</ele><time>2026-05-03T10:31:54.961Z</time></trkpt><trkpt lat="46.07674773975645" lon="10.912922936852029"><ele>773.0</ele><time>2026-05-03T10:31:55.961Z</time></trkpt><trkpt lat="46.076886760279585" lon="10.912867667544884"><ele>773.0</ele><time>2026-05-03T10:31:56.961Z</time></trkpt><trkpt lat="46.07700737468484" lon="10.912822945998716"><ele>773.0</ele><time>2026-05-03T10:31:57.961Z</time></trkpt><trkpt lat="46.077125231093326" lon="10.91278146496395"><ele>773.0</ele><time>2026-05-03T10:31:58.961Z</time></trkpt><trkpt lat="46.07724577116981" lon="10.912754330795233"><ele>773.0</ele><time>2026-05-03T10:31:59.961Z</time></trkpt><trkpt lat="46.07737704717682" lon="10.91277355296298"><ele>776.25</ele><time>2026-05-03T10:32:00.961Z</time></trkpt><trkpt lat="46.07751998885619" lon="10.912808323046683"><ele>779.5</ele><time>2026-05-03T10:32:01.961Z</time></trkpt><trkpt lat="46.07766743464836" lon="10.912843266876406"><ele>782.75</ele><time>2026-05-03T10:32:02.961Z</time></trkpt><trkpt lat="46.07781352410502" lon="10.912879702059058"><ele>786.0</ele><time>2026-05-03T10:32:03.961Z</time></trkpt><trkpt lat="46.07796588525662" lon="10.912917701330947"><ele>786.0</ele><time>2026-05-03T10:32:04.961Z</time></trkpt><trkpt lat="46.07812167828931" lon="10.912956556489986"><ele>786.0</ele><time>2026-05-03T10:32:05.961Z</time></trkpt><trkpt lat="46.07827456702285" lon="10.912996076916919"><ele>786.0</ele><time>2026-05-03T10:32:06.961Z</time></trkpt><trkpt lat="46.07842063861058" lon="10.91305449428383"><ele>784.3333333333333</ele><time>2026-05-03T10:32:07.961Z</time></trkpt><trkpt lat="46.078542010618406" lon="10.913181618844082"><ele>782.6666666666666</ele><time>2026-05-03T10:32:08.961Z</time></trkpt><trkpt lat="46.078681744680075" lon="10.913297962405188"><ele>781.0</ele><time>2026-05-03T10:32:09.962Z</time></trkpt><trkpt lat="46.07881801052055" lon="10.913442059583879"><ele>786.0</ele><time>2026-05-03T10:32:10.961Z</time></trkpt><trkpt lat="46.0789564821111" lon="10.913583677683285"><ele>791.0</ele><time>2026-05-03T10:32:11.961Z</time></trkpt><trkpt lat="46.07909783083549" lon="10.913711567440433"><ele>796.0</ele><time>2026-05-03T10:32:12.961Z</time></trkpt><trkpt lat="46.07923763987643" lon="10.913848361664332"><ele>796.0</ele><time>2026-05-03T10:32:13.961Z</time></trkpt><trkpt lat="46.07938429196847" lon="10.913976186007934"><ele>796.0</ele><time>2026-05-03T10:32:14.961Z</time></trkpt><trkpt lat="46.079538898839694" lon="10.914071013894981"><ele>796.0</ele><time>2026-05-03T10:32:15.961Z</time></trkpt><trkpt lat="46.07968386932295" lon="10.914183044703652"><ele>799.5</ele><time>2026-05-03T10:32:16.962Z</time></trkpt><trkpt lat="46.07982342111758" lon="10.914268832449972"><ele>803.0</ele><time>2026-05-03T10:32:17.962Z</time></trkpt><trkpt lat="46.079957250190354" lon="10.914353584768739"><ele>806.5</ele><time>2026-05-03T10:32:18.961Z</time></trkpt><trkpt lat="46.0800776152581" lon="10.914429614643684"><ele>810.0</ele><time>2026-05-03T10:32:19.961Z</time></trkpt><trkpt lat="46.08017740685387" lon="10.914496598337745"><ele>810.0</ele><time>2026-05-03T10:32:20.961Z</time></trkpt><trkpt lat="46.0802673841033" lon="10.91456692329719"><ele>810.0</ele><time>2026-05-03T10:32:21.961Z</time></trkpt><trkpt lat="46.08035038016147" lon="10.914660010651144"><ele>810.0</ele><time>2026-05-03T10:32:22.961Z</time></trkpt><trkpt lat="46.08044390808773" lon="10.914759358899797"><ele>810.0</ele><time>2026-05-03T10:32:23.961Z</time></trkpt><trkpt lat="46.08051162589066" lon="10.91487828834476"><ele>810.0</ele><time>2026-05-03T10:32:24.961Z</time></trkpt><trkpt lat="46.080588166478194" lon="10.914977320015087"><ele>809.6</ele><time>2026-05-03T10:32:25.961Z</time></trkpt><trkpt lat="46.08066570954422" lon="10.915080593521617"><ele>809.2</ele><time>2026-05-03T10:32:26.961Z</time></trkpt><trkpt lat="46.080743253656664" lon="10.91518667233197"><ele>808.8</ele><time>2026-05-03T10:32:27.961Z</time></trkpt><trkpt lat="46.08082260876185" lon="10.91529555715469"><ele>808.4</ele><time>2026-05-03T10:32:28.961Z</time></trkpt><trkpt lat="46.0809059328143" lon="10.915404872249399"><ele>808.0</ele><time>2026-05-03T10:32:29.961Z</time></trkpt><trkpt lat="46.0809974477086" lon="10.915518279672964"><ele>808.0</ele><time>2026-05-03T10:32:30.961Z</time></trkpt><trkpt lat="46.08108410116693" lon="10.91566724129777"><ele>808.0</ele><time>2026-05-03T10:32:31.961Z</time></trkpt><trkpt lat="46.08122514233541" lon="10.91572219958909"><ele>808.0</ele><time>2026-05-03T10:32:32.961Z</time></trkpt><trkpt lat="46.08136445170362" lon="10.915778879815734"><ele>808.0</ele><time>2026-05-03T10:32:33.961Z</time></trkpt><trkpt lat="46.08151292078881" lon="10.915811465007181"><ele>799.6666666666666</ele><time>2026-05-03T10:32:34.961Z</time></trkpt><trkpt lat="46.08167201146597" lon="10.915827085424555"><ele>791.3333333333333</ele><time>2026-05-03T10:32:35.962Z</time></trkpt><trkpt lat="46.081830297941416" lon="10.915844102735317"><ele>783.0</ele><time>2026-05-03T10:32:36.962Z</time></trkpt><trkpt lat="46.081982644141014" lon="10.91586980645716"><ele>783.0</ele><time>2026-05-03T10:32:37.962Z</time></trkpt><trkpt lat="46.08213877565157" lon="10.915895173352736"><ele>783.0</ele><time>2026-05-03T10:32:38.962Z</time></trkpt><trkpt lat="46.08229612833114" lon="10.915919796855219"><ele>783.0</ele><time>2026-05-03T10:32:39.962Z</time></trkpt><trkpt lat="46.0824479263126" lon="10.915980492094157"><ele>780.0</ele><time>2026-05-03T10:32:40.962Z</time></trkpt><trkpt lat="46.08259371329749" lon="10.916082680197212"><ele>777.0</ele><time>2026-05-03T10:32:41.962Z</time></trkpt><trkpt lat="46.082731627240705" lon="10.916227341652741"><ele>774.0</ele><time>2026-05-03T10:32:42.962Z</time></trkpt><trkpt lat="46.0828704994144" lon="10.916414905411887"><ele>774.0</ele><time>2026-05-03T10:32:43.962Z</time></trkpt><trkpt lat="46.08299179911378" lon="10.916604716474623"><ele>774.0</ele><time>2026-05-03T10:32:44.962Z</time></trkpt><trkpt lat="46.08310368507288" lon="10.916801834852189"><ele>774.0</ele><time>2026-05-03T10:32:45.962Z</time></trkpt><trkpt lat="46.08321774465928" lon="10.916990128724052"><ele>776.3333333333333</ele><time>2026-05-03T10:32:46.962Z</time></trkpt><trkpt lat="46.08335370592888" lon="10.917163357039"><ele>778.6666666666666</ele><time>2026-05-03T10:32:47.962Z</time></trkpt><trkpt lat="46.08352133373296" lon="10.917284643241462"><ele>781.0</ele><time>2026-05-03T10:32:48.962Z</time></trkpt><trkpt lat="46.083696272587886" lon="10.917416877914341"><ele>781.0</ele><time>2026-05-03T10:32:49.962Z</time></trkpt><trkpt lat="46.08387338701396" lon="10.917566460557548"><ele>781.0</ele><time>2026-05-03T10:32:50.962Z</time></trkpt><trkpt lat="46.08405347984328" lon="10.917718842459466"><ele>781.0</ele><time>2026-05-03T10:32:51.962Z</time></trkpt><trkpt lat="46.0842333268987" lon="10.917876259616527"><ele>788.6666666666666</ele><time>2026-05-03T10:32:52.962Z</time></trkpt><trkpt lat="46.0844258702068" lon="10.91799821122059"><ele>796.3333333333333</ele><time>2026-05-03T10:32:53.962Z</time></trkpt><trkpt lat="46.08461871083724" lon="10.91810925798849"><ele>804.0</ele><time>2026-05-03T10:32:54.963Z</time></trkpt><trkpt lat="46.0848125500331" lon="10.918202004596903"><ele>820.3333333333333</ele><time>2026-05-03T10:32:55.963Z</time></trkpt><trkpt lat="46.08500225508933" lon="10.918274807722275"><ele>836.6666666666666</ele><time>2026-05-03T10:32:56.963Z</time></trkpt><trkpt lat="46.085227633978434" lon="10.918346276665105"><ele>853.0</ele><time>2026-05-03T10:32:58.107Z</time></trkpt><trkpt lat="46.085405023003105" lon="10.918386201226236"><ele>823.0</ele><time>2026-05-03T10:32:59.106Z</time></trkpt><trkpt lat="46.08772590151364" lon="10.919329694731454"><ele>776.0</ele><time>2026-05-03T10:33:03.159Z</time></trkpt><trkpt lat="46.0880711418222" lon="10.920085493155021"><ele>776.0</ele><time>2026-05-03T10:33:04.158Z</time></trkpt><trkpt lat="46.0882123" lon="10.9204102"><ele>776.0</ele><time>2026-05-03T10:33:05.159Z</time></trkpt><trkpt lat="46.08884068756666" lon="10.92187560972431"><ele>686.0</ele><time>2026-05-03T10:33:22.963Z</time></trkpt><trkpt lat="46.08811154859736" lon="10.922353003982838"><ele>712.0</ele><time>2026-05-03T10:33:23.963Z</time></trkpt><trkpt lat="46.0885256374071" lon="10.92234690541988"><ele>738.0</ele><time>2026-05-03T10:33:24.963Z</time></trkpt><trkpt lat="46.08894583279144" lon="10.922453619704267"><ele>745.3333333333334</ele><time>2026-05-03T10:33:25.963Z</time></trkpt><trkpt lat="46.08916171621915" lon="10.922539747031147"><ele>752.6666666666667</ele><time>2026-05-03T10:33:26.963Z</time></trkpt><trkpt lat="46.08927199757622" lon="10.922721628593155"><ele>760.0</ele><time>2026-05-03T10:33:27.963Z</time></trkpt><trkpt lat="46.08936753524996" lon="10.922887062223447"><ele>760.0</ele><time>2026-05-03T10:33:28.963Z</time></trkpt><trkpt lat="46.089433595098875" lon="10.923070041323513"><ele>760.0</ele><time>2026-05-03T10:33:29.963Z</time></trkpt><trkpt lat="46.08949756995426" lon="10.923256196126983"><ele>760.0</ele><time>2026-05-03T10:33:30.963Z</time></trkpt><trkpt lat="46.08959307775311" lon="10.923443583236422"><ele>760.0</ele><time>2026-05-03T10:33:31.963Z</time></trkpt><trkpt lat="46.08970759306185" lon="10.92363680428485"><ele>760.6666666666667</ele><time>2026-05-03T10:33:32.963Z</time></trkpt><trkpt lat="46.08986097830057" lon="10.923767279567699"><ele>761.3333333333334</ele><time>2026-05-03T10:33:33.963Z</time></trkpt><trkpt lat="46.090026633321166" lon="10.923822802036863"><ele>762.0</ele><time>2026-05-03T10:33:34.963Z</time></trkpt><trkpt lat="46.09019507196498" lon="10.923856448979736"><ele>762.0</ele><time>2026-05-03T10:33:35.963Z</time></trkpt><trkpt lat="46.090408163786805" lon="10.923965425783827"><ele>762.0</ele><time>2026-05-03T10:33:36.963Z</time></trkpt><trkpt lat="46.09051384059048" lon="10.92421632207353"><ele>762.0</ele><time>2026-05-03T10:33:37.963Z</time></trkpt><trkpt lat="46.09057245988646" lon="10.924346157745914"><ele>766.0</ele><time>2026-05-03T10:33:38.963Z</time></trkpt><trkpt lat="46.09063625924763" lon="10.924487562247645"><ele>770.0</ele><time>2026-05-03T10:33:39.963Z</time></trkpt><trkpt lat="46.09070299673861" lon="10.924633476976862"><ele>774.0</ele><time>2026-05-03T10:33:40.963Z</time></trkpt><trkpt lat="46.09077799731784" lon="10.924792599263714"><ele>778.0</ele><time>2026-05-03T10:33:41.963Z</time></trkpt><trkpt lat="46.09086303036327" lon="10.92494649014272"><ele>768.3333333333333</ele><time>2026-05-03T10:33:42.963Z</time></trkpt><trkpt lat="46.0909751048107" lon="10.925064532308475"><ele>758.6666666666666</ele><time>2026-05-03T10:33:43.963Z</time></trkpt><trkpt lat="46.09114896341994" lon="10.925168952251054"><ele>749.0</ele><time>2026-05-03T10:33:44.963Z</time></trkpt><trkpt lat="46.09132508047665" lon="10.925304091130178"><ele>749.0</ele><time>2026-05-03T10:33:45.963Z</time></trkpt><trkpt lat="46.09143943093595" lon="10.925495799099123"><ele>749.0</ele><time>2026-05-03T10:33:46.963Z</time></trkpt><trkpt lat="46.091536741231664" lon="10.925693204672797"><ele>749.0</ele><time>2026-05-03T10:33:47.963Z</time></trkpt><trkpt lat="46.09165521853216" lon="10.92589172819157"><ele>751.3333333333333</ele><time>2026-05-03T10:33:48.963Z</time></trkpt><trkpt lat="46.09182293692461" lon="10.926059157854123"><ele>753.6666666666666</ele><time>2026-05-03T10:33:49.963Z</time></trkpt><trkpt lat="46.09199076278905" lon="10.926280012634724"><ele>756.0</ele><time>2026-05-03T10:33:50.963Z</time></trkpt><trkpt lat="46.09211238195589" lon="10.926472214460862"><ele>756.0</ele><time>2026-05-03T10:33:51.962Z</time></trkpt><trkpt lat="46.092219290512716" lon="10.926628803265558"><ele>756.0</ele><time>2026-05-03T10:33:52.962Z</time></trkpt><trkpt lat="46.09232656205283" lon="10.926768906045206"><ele>756.0</ele><time>2026-05-03T10:33:53.962Z</time></trkpt><trkpt lat="46.09243960622985" lon="10.92689149320263"><ele>756.0</ele><time>2026-05-03T10:33:54.962Z</time></trkpt><trkpt lat="46.092558969393316" lon="10.92697279747611"><ele>758.0</ele><time>2026-05-03T10:33:55.962Z</time></trkpt><trkpt lat="46.09266753275536" lon="10.927032286030848"><ele>760.0</ele><time>2026-05-03T10:33:56.962Z</time></trkpt><trkpt lat="46.09278143509047" lon="10.927093648574456"><ele>762.0</ele><time>2026-05-03T10:33:57.962Z</time></trkpt><trkpt lat="46.0928907102375" lon="10.927169548761302"><ele>764.0</ele><time>2026-05-03T10:33:58.962Z</time></trkpt><trkpt lat="46.092991369164416" lon="10.927270759072547"><ele>764.0</ele><time>2026-05-03T10:33:59.962Z</time></trkpt><trkpt lat="46.09309400973611" lon="10.927391729528651"><ele>764.0</ele><time>2026-05-03T10:34:00.962Z</time></trkpt><trkpt lat="46.09320689965619" lon="10.927514339256675"><ele>764.0</ele><time>2026-05-03T10:34:01.962Z</time></trkpt><trkpt lat="46.09331937129463" lon="10.927637710006518"><ele>764.0</ele><time>2026-05-03T10:34:02.962Z</time></trkpt><trkpt lat="46.09344382672188" lon="10.927764155357115"><ele>766.3333333333333</ele><time>2026-05-03T10:34:03.962Z</time></trkpt><trkpt lat="46.09354786268612" lon="10.927927192037497"><ele>768.6666666666666</ele><time>2026-05-03T10:34:04.962Z</time></trkpt><trkpt lat="46.09366674078181" lon="10.928077401684416"><ele>771.0</ele><time>2026-05-03T10:34:05.962Z</time></trkpt><trkpt lat="46.09378268892092" lon="10.928228056946129"><ele>771.0</ele><time>2026-05-03T10:34:06.962Z</time></trkpt><trkpt lat="46.093885919550964" lon="10.928379292184058"><ele>771.0</ele><time>2026-05-03T10:34:07.962Z</time></trkpt><trkpt lat="46.09398243864155" lon="10.928527801119877"><ele>771.0</ele><time>2026-05-03T10:34:08.962Z</time></trkpt><trkpt lat="46.09408083036509" lon="10.92867893949945"><ele>771.0</ele><time>2026-05-03T10:34:09.962Z</time></trkpt><trkpt lat="46.09418107144941" lon="10.928832918903533"><ele>769.3333333333334</ele><time>2026-05-03T10:34:10.962Z</time></trkpt><trkpt lat="46.094288993227" lon="10.928998946552838"><ele>767.6666666666667</ele><time>2026-05-03T10:34:11.962Z</time></trkpt><trkpt lat="46.09439813959297" lon="10.929167465732748"><ele>766.0</ele><time>2026-05-03T10:34:12.962Z</time></trkpt><trkpt lat="46.09451322335601" lon="10.929345553938733"><ele>766.0</ele><time>2026-05-03T10:34:13.962Z</time></trkpt><trkpt lat="46.09463647932408" lon="10.92953654844773"><ele>766.0</ele><time>2026-05-03T10:34:14.962Z</time></trkpt><trkpt lat="46.09475784626824" lon="10.929724617138584"><ele>766.0</ele><time>2026-05-03T10:34:15.963Z</time></trkpt><trkpt lat="46.09488226294204" lon="10.929889327448121"><ele>771.6666666666667</ele><time>2026-05-03T10:34:16.963Z</time></trkpt><trkpt lat="46.09496519661982" lon="10.93008099410862"><ele>777.3333333333334</ele><time>2026-05-03T10:34:17.963Z</time></trkpt><trkpt lat="46.09505045944003" lon="10.930260074006831"><ele>783.0</ele><time>2026-05-03T10:34:18.964Z</time></trkpt><trkpt lat="46.095132204150055" lon="10.93043254212493"><ele>783.0</ele><time>2026-05-03T10:34:19.964Z</time></trkpt><trkpt lat="46.09520854873386" lon="10.930591135146363"><ele>783.0</ele><time>2026-05-03T10:34:20.964Z</time></trkpt><trkpt lat="46.0952825831539" lon="10.930744928988704"><ele>783.0</ele><time>2026-05-03T10:34:21.964Z</time></trkpt><trkpt lat="46.095367162548364" lon="10.930883766185502"><ele>783.0</ele><time>2026-05-03T10:34:22.964Z</time></trkpt><trkpt lat="46.09543218114208" lon="10.931031814960825"><ele>785.0</ele><time>2026-05-03T10:34:23.964Z</time></trkpt><trkpt lat="46.095494179837175" lon="10.931188582465722"><ele>787.0</ele><time>2026-05-03T10:34:24.963Z</time></trkpt><trkpt lat="46.09556435458467" lon="10.931336929566356"><ele>789.0</ele><time>2026-05-03T10:34:25.963Z</time></trkpt><trkpt lat="46.09563515347425" lon="10.931481763871929"><ele>791.0</ele><time>2026-05-03T10:34:26.963Z</time></trkpt><trkpt lat="46.095699867677034" lon="10.931619759262086"><ele>792.0</ele><time>2026-05-03T10:34:27.963Z</time></trkpt><trkpt lat="46.09576494029058" lon="10.931747987528079"><ele>793.0</ele><time>2026-05-03T10:34:28.963Z</time></trkpt><trkpt lat="46.095829085184484" lon="10.931880278276976"><ele>794.0</ele><time>2026-05-03T10:34:29.963Z</time></trkpt><trkpt lat="46.09588964457515" lon="10.931999030238128"><ele>795.0</ele><time>2026-05-03T10:34:30.963Z</time></trkpt><trkpt lat="46.095945305091824" lon="10.932120617899095"><ele>796.0</ele><time>2026-05-03T10:34:31.963Z</time></trkpt><trkpt lat="46.095995925573035" lon="10.932250734900585"><ele>796.0</ele><time>2026-05-03T10:34:32.963Z</time></trkpt><trkpt lat="46.09604695304215" lon="10.932398249836682"><ele>796.0</ele><time>2026-05-03T10:34:33.963Z</time></trkpt><trkpt lat="46.096084768349904" lon="10.932567552060934"><ele>796.0</ele><time>2026-05-03T10:34:34.963Z</time></trkpt><trkpt lat="46.09610309190559" lon="10.932744878762662"><ele>796.0</ele><time>2026-05-03T10:34:35.963Z</time></trkpt><trkpt lat="46.09609930757219" lon="10.932942734309815"><ele>796.5</ele><time>2026-05-03T10:34:36.963Z</time></trkpt><trkpt lat="46.09607140616022" lon="10.933129955769505"><ele>797.0</ele><time>2026-05-03T10:34:37.963Z</time></trkpt><trkpt lat="46.096024100980486" lon="10.933312598309163"><ele>797.5</ele><time>2026-05-03T10:34:38.963Z</time></trkpt><trkpt lat="46.09596176815646" lon="10.933493146738048"><ele>798.0</ele><time>2026-05-03T10:34:39.963Z</time></trkpt><trkpt lat="46.09588608229198" lon="10.933676287680884"><ele>798.0</ele><time>2026-05-03T10:34:40.963Z</time></trkpt><trkpt lat="46.09582317772977" lon="10.933850205969017"><ele>798.0</ele><time>2026-05-03T10:34:41.963Z</time></trkpt><trkpt lat="46.095746765783474" lon="10.934032256286935"><ele>798.0</ele><time>2026-05-03T10:34:42.963Z</time></trkpt><trkpt lat="46.09571084632928" lon="10.934237110477339"><ele>798.0</ele><time>2026-05-03T10:34:43.963Z</time></trkpt><trkpt lat="46.09569849662365" lon="10.934451244516874"><ele>799.6666666666667</ele><time>2026-05-03T10:34:44.963Z</time></trkpt><trkpt lat="46.09572150585116" lon="10.934675702964475"><ele>801.3333333333334</ele><time>2026-05-03T10:34:45.963Z</time></trkpt><trkpt lat="46.09576289361636" lon="10.934867318605114"><ele>803.0</ele><time>2026-05-03T10:34:46.963Z</time></trkpt><trkpt lat="46.095810388970264" lon="10.935079880366661"><ele>804.75</ele><time>2026-05-03T10:34:47.963Z</time></trkpt><trkpt lat="46.09585368104397" lon="10.935280716070485"><ele>806.5</ele><time>2026-05-03T10:34:48.963Z</time></trkpt><trkpt lat="46.095891089991426" lon="10.935447755250271"><ele>808.25</ele><time>2026-05-03T10:34:49.963Z</time></trkpt><trkpt lat="46.095931750465255" lon="10.93560760185873"><ele>810.0</ele><time>2026-05-03T10:34:50.963Z</time></trkpt><trkpt lat="46.095988569432926" lon="10.93577778634022"><ele>812.6666666666667</ele><time>2026-05-03T10:34:51.963Z</time></trkpt><trkpt lat="46.09608361626757" lon="10.935951976268628"><ele>815.3333333333334</ele><time>2026-05-03T10:34:52.963Z</time></trkpt><trkpt lat="46.09625306466824" lon="10.936144969153556"><ele>818.0</ele><time>2026-05-03T10:34:53.963Z</time></trkpt><trkpt lat="46.09637537040083" lon="10.936329199068405"><ele>818.0</ele><time>2026-05-03T10:34:54.963Z</time></trkpt><trkpt lat="46.09650294765166" lon="10.936492491992059"><ele>818.0</ele><time>2026-05-03T10:34:55.963Z</time></trkpt><trkpt lat="46.09663367875411" lon="10.936654908219465"><ele>818.0</ele><time>2026-05-03T10:34:56.963Z</time></trkpt><trkpt lat="46.096765224386616" lon="10.93682625847979"><ele>817.6666666666667</ele><time>2026-05-03T10:34:57.963Z</time></trkpt><trkpt lat="46.09690161936272" lon="10.936994662555465"><ele>817.3333333333333</ele><time>2026-05-03T10:34:58.963Z</time></trkpt><trkpt lat="46.097024409742346" lon="10.937175219315206"><ele>817.0</ele><time>2026-05-03T10:34:59.963Z</time></trkpt><trkpt lat="46.097158871515795" lon="10.937348876053504"><ele>817.0</ele><time>2026-05-03T10:35:00.963Z</time></trkpt><trkpt lat="46.09729257034243" lon="10.937521547437155"><ele>817.0</ele><time>2026-05-03T10:35:01.963Z</time></trkpt><trkpt lat="46.09742902791343" lon="10.937697196072829"><ele>817.0</ele><time>2026-05-03T10:35:02.963Z</time></trkpt><trkpt lat="46.09757060049458" lon="10.937877057970757"><ele>819.6666666666666</ele><time>2026-05-03T10:35:03.963Z</time></trkpt><trkpt lat="46.097724306553594" lon="10.938026839606138"><ele>822.3333333333333</ele><time>2026-05-03T10:35:04.963Z</time></trkpt><trkpt lat="46.09788508732201" lon="10.938169436049952"><ele>825.0</ele><time>2026-05-03T10:35:05.963Z</time></trkpt><trkpt lat="46.09805310699222" lon="10.938297452469222"><ele>828.0</ele><time>2026-05-03T10:35:06.963Z</time></trkpt><trkpt lat="46.09821963919195" lon="10.938448325162973"><ele>831.0</ele><time>2026-05-03T10:35:07.963Z</time></trkpt><trkpt lat="46.09839363722607" lon="10.938580378568409"><ele>834.0</ele><time>2026-05-03T10:35:08.963Z</time></trkpt><trkpt lat="46.098554394532194" lon="10.938702383041377"><ele>834.0</ele><time>2026-05-03T10:35:09.963Z</time></trkpt><trkpt lat="46.09871274485186" lon="10.938822560693511"><ele>834.0</ele><time>2026-05-03T10:35:10.963Z</time></trkpt><trkpt lat="46.09885954024154" lon="10.93893396901215"><ele>834.0</ele><time>2026-05-03T10:35:11.963Z</time></trkpt><trkpt lat="46.099020698774794" lon="10.939056278021692"><ele>835.0</ele><time>2026-05-03T10:35:12.963Z</time></trkpt><trkpt lat="46.09917744374804" lon="10.939175807050356"><ele>836.0</ele><time>2026-05-03T10:35:13.963Z</time></trkpt><trkpt lat="46.09933628773775" lon="10.939299590337935"><ele>837.0</ele><time>2026-05-03T10:35:14.963Z</time></trkpt><trkpt lat="46.099504054502525" lon="10.939429921675039"><ele>837.0</ele><time>2026-05-03T10:35:15.963Z</time></trkpt><trkpt lat="46.099675595767145" lon="10.939560230786908"><ele>837.0</ele><time>2026-05-03T10:35:16.963Z</time></trkpt><trkpt lat="46.099853595565904" lon="10.939695302526998"><ele>837.0</ele><time>2026-05-03T10:35:17.963Z</time></trkpt><trkpt lat="46.10003701209834" lon="10.939834487003232"><ele>838.3333333333333</ele><time>2026-05-03T10:35:18.963Z</time></trkpt><trkpt lat="46.100219919577015" lon="10.939975582264994"><ele>839.6666666666666</ele><time>2026-05-03T10:35:19.963Z</time></trkpt><trkpt lat="46.10039844021001" lon="10.940112779820504"><ele>841.0</ele><time>2026-05-03T10:35:20.963Z</time></trkpt><trkpt lat="46.100570011177545" lon="10.94024234409825"><ele>841.0</ele><time>2026-05-03T10:35:21.963Z</time></trkpt><trkpt lat="46.100740831208995" lon="10.940370422825755"><ele>841.0</ele><time>2026-05-03T10:35:22.963Z</time></trkpt><trkpt lat="46.100903732936764" lon="10.940489050580691"><ele>841.0</ele><time>2026-05-03T10:35:23.963Z</time></trkpt><trkpt lat="46.10106567920522" lon="10.940598714008258"><ele>837.3333333333333</ele><time>2026-05-03T10:35:24.963Z</time></trkpt><trkpt lat="46.10121480750608" lon="10.94066911793877"><ele>833.6666666666667</ele><time>2026-05-03T10:35:25.963Z</time></trkpt><trkpt lat="46.101358940724495" lon="10.940770274003423"><ele>830.0</ele><time>2026-05-03T10:35:26.963Z</time></trkpt><trkpt lat="46.1015078497535" lon="10.940887578801927"><ele>833.3333333333334</ele><time>2026-05-03T10:35:27.963Z</time></trkpt><trkpt lat="46.10165985673261" lon="10.94102347425169"><ele>836.6666666666667</ele><time>2026-05-03T10:35:28.963Z</time></trkpt><trkpt lat="46.10180922367634" lon="10.941171597939094"><ele>840.0</ele><time>2026-05-03T10:35:29.963Z</time></trkpt><trkpt lat="46.101958271705676" lon="10.941319287361203"><ele>840.0</ele><time>2026-05-03T10:35:30.963Z</time></trkpt><trkpt lat="46.10211439213676" lon="10.941469756039337"><ele>840.0</ele><time>2026-05-03T10:35:31.963Z</time></trkpt><trkpt lat="46.10226157300496" lon="10.94162120976175"><ele>840.0</ele><time>2026-05-03T10:35:32.963Z</time></trkpt><trkpt lat="46.10240597846328" lon="10.94176043765689"><ele>840.0</ele><time>2026-05-03T10:35:33.963Z</time></trkpt><trkpt lat="46.10254979806968" lon="10.941885997091667"><ele>840.0</ele><time>2026-05-03T10:35:34.963Z</time></trkpt><trkpt lat="46.10267779173998" lon="10.942004161793754"><ele>840.0</ele><time>2026-05-03T10:35:35.963Z</time></trkpt><trkpt lat="46.1028004032949" lon="10.94212242350851"><ele>840.0</ele><time>2026-05-03T10:35:36.963Z</time></trkpt><trkpt lat="46.10292153558663" lon="10.942232619112334"><ele>840.0</ele><time>2026-05-03T10:35:37.963Z</time></trkpt><trkpt lat="46.103035602676705" lon="10.942329625130654"><ele>840.0</ele><time>2026-05-03T10:35:38.963Z</time></trkpt><trkpt lat="46.10316168996882" lon="10.942385932221715"><ele>840.0</ele><time>2026-05-03T10:35:39.963Z</time></trkpt><trkpt lat="46.10329762055341" lon="10.942359614340557"><ele>838.25</ele><time>2026-05-03T10:35:40.963Z</time></trkpt><trkpt lat="46.10343489412037" lon="10.942289637853998"><ele>836.5</ele><time>2026-05-03T10:35:41.963Z</time></trkpt><trkpt lat="46.10357238163369" lon="10.94221175134951"><ele>834.75</ele><time>2026-05-03T10:35:42.963Z</time></trkpt><trkpt lat="46.103710540934365" lon="10.942132277857553"><ele>833.0</ele><time>2026-05-03T10:35:43.963Z</time></trkpt><trkpt lat="46.10384715272569" lon="10.942081056443714"><ele>833.0</ele><time>2026-05-03T10:35:44.963Z</time></trkpt><trkpt lat="46.10398354720277" lon="10.942089844962323"><ele>833.0</ele><time>2026-05-03T10:35:45.963Z</time></trkpt><trkpt lat="46.104122211044555" lon="10.942140741339493"><ele>833.0</ele><time>2026-05-03T10:35:46.963Z</time></trkpt><trkpt lat="46.10425195837984" lon="10.942238861383887"><ele>833.0</ele><time>2026-05-03T10:35:47.963Z</time></trkpt><trkpt lat="46.10439428072931" lon="10.942343160984358"><ele>834.0</ele><time>2026-05-03T10:35:48.963Z</time></trkpt><trkpt lat="46.104541874320766" lon="10.942457481088232"><ele>835.0</ele><time>2026-05-03T10:35:49.963Z</time></trkpt><trkpt lat="46.10470089515573" lon="10.942581721067816"><ele>836.0</ele><time>2026-05-03T10:35:50.963Z</time></trkpt><trkpt lat="46.10486960682397" lon="10.94270439850189"><ele>840.0</ele><time>2026-05-03T10:35:51.963Z</time></trkpt><trkpt lat="46.10505337894641" lon="10.942804963593487"><ele>844.0</ele><time>2026-05-03T10:35:52.963Z</time></trkpt><trkpt lat="46.1052561889346" lon="10.942885720208295"><ele>848.0</ele><time>2026-05-03T10:35:53.963Z</time></trkpt><trkpt lat="46.10544512863437" lon="10.942917775316925"><ele>848.0</ele><time>2026-05-03T10:35:54.963Z</time></trkpt><trkpt lat="46.10563016121879" lon="10.942979629080236"><ele>848.0</ele><time>2026-05-03T10:35:55.963Z</time></trkpt><trkpt lat="46.10581082386125" lon="10.943037299514508"><ele>848.0</ele><time>2026-05-03T10:35:56.963Z</time></trkpt><trkpt lat="46.10598463506956" lon="10.943100945558314"><ele>847.6666666666667</ele><time>2026-05-03T10:35:57.963Z</time></trkpt><trkpt lat="46.10617088407532" lon="10.943149950950867"><ele>847.3333333333333</ele><time>2026-05-03T10:35:58.963Z</time></trkpt><trkpt lat="46.10635708254345" lon="10.943181142567465"><ele>847.0</ele><time>2026-05-03T10:35:59.963Z</time></trkpt><trkpt lat="46.10654239479528" lon="10.943183820655603"><ele>846.6666666666666</ele><time>2026-05-03T10:36:00.963Z</time></trkpt><trkpt lat="46.106717924109034" lon="10.943181655704773"><ele>846.3333333333333</ele><time>2026-05-03T10:36:01.963Z</time></trkpt><trkpt lat="46.10686998712532" lon="10.94315425284834"><ele>846.0</ele><time>2026-05-03T10:36:02.963Z</time></trkpt><trkpt lat="46.107004343516614" lon="10.943137048956725"><ele>846.0</ele><time>2026-05-03T10:36:03.963Z</time></trkpt><trkpt lat="46.107131963621576" lon="10.943118486273757"><ele>846.0</ele><time>2026-05-03T10:36:04.963Z</time></trkpt><trkpt lat="46.10726113623883" lon="10.943103832586896"><ele>846.0</ele><time>2026-05-03T10:36:05.963Z</time></trkpt><trkpt lat="46.107377449215534" lon="10.943084669215208"><ele>846.0</ele><time>2026-05-03T10:36:06.963Z</time></trkpt><trkpt lat="46.10750083540804" lon="10.94307995049927"><ele>846.75</ele><time>2026-05-03T10:36:07.963Z</time></trkpt><trkpt lat="46.10762459552871" lon="10.943086967282827"><ele>847.5</ele><time>2026-05-03T10:36:08.963Z</time></trkpt><trkpt lat="46.10776850631048" lon="10.943129250093179"><ele>848.25</ele><time>2026-05-03T10:36:09.963Z</time></trkpt><trkpt lat="46.107911138751085" lon="10.943198219022436"><ele>849.0</ele><time>2026-05-03T10:36:10.963Z</time></trkpt><trkpt lat="46.108043449251454" lon="10.94330755720955"><ele>847.25</ele><time>2026-05-03T10:36:11.963Z</time></trkpt><trkpt lat="46.10813722860946" lon="10.94347108725214"><ele>845.5</ele><time>2026-05-03T10:36:12.963Z</time></trkpt><trkpt lat="46.10822408582278" lon="10.943641109261549"><ele>843.75</ele><time>2026-05-03T10:36:13.963Z</time></trkpt><trkpt lat="46.10828474674214" lon="10.943841780461291"><ele>842.0</ele><time>2026-05-03T10:36:14.963Z</time></trkpt><trkpt lat="46.10832993843057" lon="10.944086291146286"><ele>845.0</ele><time>2026-05-03T10:36:15.963Z</time></trkpt><trkpt lat="46.10837527507097" lon="10.944381249831187"><ele>848.0</ele><time>2026-05-03T10:36:16.963Z</time></trkpt><trkpt lat="46.108428132202555" lon="10.944724223002762"><ele>851.5</ele><time>2026-05-03T10:36:17.963Z</time></trkpt><trkpt lat="46.108486554071874" lon="10.945101094902734"><ele>855.0</ele><time>2026-05-03T10:36:18.963Z</time></trkpt><trkpt lat="46.108539127951516" lon="10.945434968474242"><ele>855.0</ele><time>2026-05-03T10:36:19.962Z</time></trkpt><trkpt lat="46.10858584701647" lon="10.945733727417512"><ele>855.0</ele><time>2026-05-03T10:36:20.963Z</time></trkpt><trkpt lat="46.108628391174186" lon="10.946005917564307"><ele>855.0</ele><time>2026-05-03T10:36:21.963Z</time></trkpt><trkpt lat="46.108666830931334" lon="10.946246422606357"><ele>860.3333333333333</ele><time>2026-05-03T10:36:22.963Z</time></trkpt><trkpt lat="46.10870964171262" lon="10.946469112529732"><ele>865.6666666666666</ele><time>2026-05-03T10:36:23.963Z</time></trkpt><trkpt lat="46.1088023338508" lon="10.94666396006525"><ele>871.0</ele><time>2026-05-03T10:36:24.962Z</time></trkpt><trkpt lat="46.10893738190938" lon="10.946810413484549"><ele>866.3333333333333</ele><time>2026-05-03T10:36:25.962Z</time></trkpt><trkpt lat="46.10906688748933" lon="10.947006121424394"><ele>861.6666666666667</ele><time>2026-05-03T10:36:26.963Z</time></trkpt><trkpt lat="46.10923571884214" lon="10.947224669199388"><ele>857.0</ele><time>2026-05-03T10:36:27.963Z</time></trkpt><trkpt lat="46.109421947603465" lon="10.947463959385278"><ele>871.5</ele><time>2026-05-03T10:36:28.963Z</time></trkpt><trkpt lat="46.109615097745696" lon="10.947712031496788"><ele>886.0</ele><time>2026-05-03T10:36:29.962Z</time></trkpt><trkpt lat="46.10978414662684" lon="10.947928814886984"><ele>880.3333333333333</ele><time>2026-05-03T10:36:30.963Z</time></trkpt><trkpt lat="46.109931844682094" lon="10.948116753376258"><ele>874.6666666666667</ele><time>2026-05-03T10:36:31.963Z</time></trkpt><trkpt lat="46.11005576586988" lon="10.948294373305796"><ele>869.0</ele><time>2026-05-03T10:36:32.963Z</time></trkpt><trkpt lat="46.11017944385072" lon="10.948513559237666"><ele>869.0</ele><time>2026-05-03T10:36:33.963Z</time></trkpt><trkpt lat="46.110314052333656" lon="10.948775935087351"><ele>869.0</ele><time>2026-05-03T10:36:34.963Z</time></trkpt><trkpt lat="46.11045926709795" lon="10.949065017416325"><ele>873.6666666666667</ele><time>2026-05-03T10:36:35.963Z</time></trkpt><trkpt lat="46.11060717056227" lon="10.949323849108685"><ele>878.3333333333333</ele><time>2026-05-03T10:36:36.963Z</time></trkpt><trkpt lat="46.110732830741014" lon="10.949567028350145"><ele>883.0</ele><time>2026-05-03T10:36:37.963Z</time></trkpt><trkpt lat="46.11092128592516" lon="10.949783901686976"><ele>868.0</ele><time>2026-05-03T10:36:38.963Z</time></trkpt><trkpt lat="46.1112891025902" lon="10.950184249242339"><ele>868.0</ele><time>2026-05-03T10:36:40.963Z</time></trkpt><trkpt lat="46.11146713225699" lon="10.950406990883623"><ele>868.0</ele><time>2026-05-03T10:36:41.963Z</time></trkpt><trkpt lat="46.11162291955065" lon="10.950680182439903"><ele>863.6666666666666</ele><time>2026-05-03T10:36:42.963Z</time></trkpt><trkpt lat="46.111746054596665" lon="10.950911771004144"><ele>859.3333333333333</ele><time>2026-05-03T10:36:43.963Z</time></trkpt><trkpt lat="46.11184462828914" lon="10.951117428987962"><ele>855.0</ele><time>2026-05-03T10:36:44.963Z</time></trkpt><trkpt lat="46.11192584881445" lon="10.95133539376052"><ele>855.0</ele><time>2026-05-03T10:36:45.963Z</time></trkpt><trkpt lat="46.11197726753645" lon="10.95160344685277"><ele>855.0</ele><time>2026-05-03T10:36:46.963Z</time></trkpt><trkpt lat="46.11199051285429" lon="10.951902554567436"><ele>855.0</ele><time>2026-05-03T10:36:47.963Z</time></trkpt><trkpt lat="46.112044146225394" lon="10.952219526822702"><ele>857.5</ele><time>2026-05-03T10:36:48.963Z</time></trkpt><trkpt lat="46.11217920952908" lon="10.95250653564207"><ele>860.0</ele><time>2026-05-03T10:36:49.963Z</time></trkpt><trkpt lat="46.11229600189481" lon="10.9527643755539"><ele>859.5</ele><time>2026-05-03T10:36:50.963Z</time></trkpt><trkpt lat="46.112383833500616" lon="10.952959888304155"><ele>859.0</ele><time>2026-05-03T10:36:51.963Z</time></trkpt><trkpt lat="46.112439091390584" lon="10.953134139085446"><ele>858.5</ele><time>2026-05-03T10:36:52.963Z</time></trkpt><trkpt lat="46.11243655153582" lon="10.95335762683048"><ele>858.0</ele><time>2026-05-03T10:36:53.963Z</time></trkpt><trkpt lat="46.11242363127848" lon="10.953599384340096"><ele>858.0</ele><time>2026-05-03T10:36:54.963Z</time></trkpt><trkpt lat="46.112449413568825" lon="10.95388256480564"><ele>858.0</ele><time>2026-05-03T10:36:55.963Z</time></trkpt><trkpt lat="46.11253333275356" lon="10.954174800182708"><ele>858.0</ele><time>2026-05-03T10:36:56.963Z</time></trkpt><trkpt lat="46.11264633923052" lon="10.954516785413729"><ele>863.5</ele><time>2026-05-03T10:36:57.963Z</time></trkpt><trkpt lat="46.11276966739502" lon="10.954888539121422"><ele>869.0</ele><time>2026-05-03T10:36:58.963Z</time></trkpt><trkpt lat="46.11290614345745" lon="10.955300917520507"><ele>874.5</ele><time>2026-05-03T10:36:59.963Z</time></trkpt><trkpt lat="46.11304745941143" lon="10.955728885214215"><ele>880.0</ele><time>2026-05-03T10:37:00.963Z</time></trkpt><trkpt lat="46.113183098488946" lon="10.95614934910813"><ele>875.5</ele><time>2026-05-03T10:37:01.963Z</time></trkpt><trkpt lat="46.11329358020703" lon="10.956482677490996"><ele>871.0</ele><time>2026-05-03T10:37:02.963Z</time></trkpt><trkpt lat="46.11339257893864" lon="10.9567742689402"><ele>871.0</ele><time>2026-05-03T10:37:03.963Z</time></trkpt><trkpt lat="46.113488862441905" lon="10.957057855499077"><ele>871.0</ele><time>2026-05-03T10:37:04.963Z</time></trkpt><trkpt lat="46.11358820686942" lon="10.957334288358066"><ele>871.0</ele><time>2026-05-03T10:37:05.963Z</time></trkpt><trkpt lat="46.11373116923102" lon="10.957586304230103"><ele>863.5</ele><time>2026-05-03T10:37:06.963Z</time></trkpt><trkpt lat="46.11389512342855" lon="10.957860582945164"><ele>856.0</ele><time>2026-05-03T10:37:07.963Z</time></trkpt><trkpt lat="46.11409100710019" lon="10.958144104568454"><ele>872.5</ele><time>2026-05-03T10:37:08.963Z</time></trkpt><trkpt lat="46.114296678065756" lon="10.958436355369688"><ele>889.0</ele><time>2026-05-03T10:37:09.963Z</time></trkpt><trkpt lat="46.11447222585735" lon="10.958669507008754"><ele>889.0</ele><time>2026-05-03T10:37:10.963Z</time></trkpt><trkpt lat="46.11461500718712" lon="10.95888055872067"><ele>889.0</ele><time>2026-05-03T10:37:11.963Z</time></trkpt><trkpt lat="46.11475836962267" lon="10.959070513092477"><ele>889.0</ele><time>2026-05-03T10:37:12.963Z</time></trkpt><trkpt lat="46.114877789776294" lon="10.959249285911683"><ele>877.0</ele><time>2026-05-03T10:37:13.963Z</time></trkpt><trkpt lat="46.11498140224569" lon="10.95943317392195"><ele>865.0</ele><time>2026-05-03T10:37:14.962Z</time></trkpt><trkpt lat="46.11505156704572" lon="10.959691419390085"><ele>853.0</ele><time>2026-05-03T10:37:15.962Z</time></trkpt><trkpt lat="46.11511662604929" lon="10.960003728743521"><ele>861.5</ele><time>2026-05-03T10:37:16.962Z</time></trkpt><trkpt lat="46.115198521198984" lon="10.960359493914549"><ele>870.0</ele><time>2026-05-03T10:37:17.962Z</time></trkpt><trkpt lat="46.11532258391588" lon="10.960692955605992"><ele>880.5</ele><time>2026-05-03T10:37:18.962Z</time></trkpt><trkpt lat="46.11545668340282" lon="10.960993117005943"><ele>891.0</ele><time>2026-05-03T10:37:19.962Z</time></trkpt><trkpt lat="46.11557239418748" lon="10.961265859718551"><ele>891.0</ele><time>2026-05-03T10:37:20.962Z</time></trkpt><trkpt lat="46.11568430701667" lon="10.961500173157981"><ele>891.0</ele><time>2026-05-03T10:37:21.962Z</time></trkpt><trkpt lat="46.115785473938324" lon="10.961701387228759"><ele>891.0</ele><time>2026-05-03T10:37:22.962Z</time></trkpt><trkpt lat="46.11591868078341" lon="10.961856628157895"><ele>890.6666666666667</ele><time>2026-05-03T10:37:23.962Z</time></trkpt><trkpt lat="46.11610012518859" lon="10.96196724861787"><ele>890.3333333333334</ele><time>2026-05-03T10:37:24.962Z</time></trkpt><trkpt lat="46.116275097936324" lon="10.962063602128197"><ele>890.0</ele><time>2026-05-03T10:37:25.962Z</time></trkpt><trkpt lat="46.11642957335771" lon="10.962148632662682"><ele>890.0</ele><time>2026-05-03T10:37:26.962Z</time></trkpt><trkpt lat="46.11656748869691" lon="10.96224612628772"><ele>890.0</ele><time>2026-05-03T10:37:27.962Z</time></trkpt><trkpt lat="46.11669265781178" lon="10.962346064055787"><ele>890.0</ele><time>2026-05-03T10:37:28.962Z</time></trkpt><trkpt lat="46.116808222865984" lon="10.96242254012106"><ele>890.0</ele><time>2026-05-03T10:37:29.962Z</time></trkpt><trkpt lat="46.11691003770967" lon="10.962464724610523"><ele>886.0</ele><time>2026-05-03T10:37:30.962Z</time></trkpt><trkpt lat="46.11701886329064" lon="10.96244523335062"><ele>882.0</ele><time>2026-05-03T10:37:31.962Z</time></trkpt><trkpt lat="46.11711595625373" lon="10.962360012926341"><ele>878.0</ele><time>2026-05-03T10:37:32.962Z</time></trkpt><trkpt lat="46.117197172568865" lon="10.96229802537491"><ele>874.0</ele><time>2026-05-03T10:37:33.962Z</time></trkpt><trkpt lat="46.117281263551305" lon="10.962254894465609"><ele>870.0</ele><time>2026-05-03T10:37:34.962Z</time></trkpt><trkpt lat="46.11735227525877" lon="10.962259436912607"><ele>866.6</ele><time>2026-05-03T10:37:35.962Z</time></trkpt><trkpt lat="46.117436897568005" lon="10.962289197474737"><ele>863.2</ele><time>2026-05-03T10:37:36.962Z</time></trkpt><trkpt lat="46.117537111400445" lon="10.962358467740408"><ele>859.8</ele><time>2026-05-03T10:37:37.962Z</time></trkpt><trkpt lat="46.11762748155107" lon="10.962475256120667"><ele>856.4</ele><time>2026-05-03T10:37:38.962Z</time></trkpt><trkpt lat="46.117731516329435" lon="10.962567769965961"><ele>853.0</ele><time>2026-05-03T10:37:39.962Z</time></trkpt><trkpt lat="46.11783580447618" lon="10.962648881959364"><ele>855.75</ele><time>2026-05-03T10:37:40.962Z</time></trkpt><trkpt lat="46.11794987999681" lon="10.96273007072898"><ele>858.5</ele><time>2026-05-03T10:37:41.962Z</time></trkpt><trkpt lat="46.11805570218193" lon="10.962824870359826"><ele>861.25</ele><time>2026-05-03T10:37:42.962Z</time></trkpt><trkpt lat="46.11816607962848" lon="10.962917460949935"><ele>864.0</ele><time>2026-05-03T10:37:43.962Z</time></trkpt><trkpt lat="46.11828515183736" lon="10.963008132097839"><ele>864.0</ele><time>2026-05-03T10:37:44.962Z</time></trkpt><trkpt lat="46.118411216661485" lon="10.963096689221707"><ele>864.0</ele><time>2026-05-03T10:37:45.962Z</time></trkpt><trkpt lat="46.11853476915885" lon="10.9631836164684"><ele>864.0</ele><time>2026-05-03T10:37:46.962Z</time></trkpt><trkpt lat="46.11863394624466" lon="10.963278516338855"><ele>864.0</ele><time>2026-05-03T10:37:47.962Z</time></trkpt><trkpt lat="46.1187052455111" lon="10.96333673292769"><ele>864.6</ele><time>2026-05-03T10:37:48.962Z</time></trkpt><trkpt lat="46.11880424278665" lon="10.963453851264603"><ele>865.2</ele><time>2026-05-03T10:37:50.962Z</time></trkpt><trkpt lat="46.11886193109698" lon="10.963511757497516"><ele>865.8000000000001</ele><time>2026-05-03T10:37:51.962Z</time></trkpt><trkpt lat="46.11893207586851" lon="10.96357979216689"><ele>866.4000000000001</ele><time>2026-05-03T10:37:52.962Z</time></trkpt><trkpt lat="46.119014082352535" lon="10.963667770627648"><ele>867.0</ele><time>2026-05-03T10:37:53.962Z</time></trkpt><trkpt lat="46.119112309941556" lon="10.963762300650886"><ele>867.0</ele><time>2026-05-03T10:37:54.962Z</time></trkpt><trkpt lat="46.11921560306572" lon="10.963868621353269"><ele>867.0</ele><time>2026-05-03T10:37:55.962Z</time></trkpt><trkpt lat="46.119327638646965" lon="10.963981938991113"><ele>867.0</ele><time>2026-05-03T10:37:56.962Z</time></trkpt><trkpt lat="46.11944786020979" lon="10.964115043317465"><ele>867.0</ele><time>2026-05-03T10:37:57.962Z</time></trkpt><trkpt lat="46.11956848104362" lon="10.964249922241436"><ele>867.0</ele><time>2026-05-03T10:37:58.962Z</time></trkpt><trkpt lat="46.119697209831735" lon="10.964388914522251"><ele>867.0</ele><time>2026-05-03T10:37:59.962Z</time></trkpt><trkpt lat="46.11982929976596" lon="10.964530787653885"><ele>867.0</ele><time>2026-05-03T10:38:00.962Z</time></trkpt><trkpt lat="46.11996687551684" lon="10.964695467839801"><ele>867.0</ele><time>2026-05-03T10:38:01.962Z</time></trkpt><trkpt lat="46.1201002924855" lon="10.964871995837486"><ele>867.0</ele><time>2026-05-03T10:38:02.962Z</time></trkpt><trkpt lat="46.12023358250746" lon="10.965056813955137"><ele>867.0</ele><time>2026-05-03T10:38:03.962Z</time></trkpt><trkpt lat="46.12036371647522" lon="10.965253192581809"><ele>863.3333333333333</ele><time>2026-05-03T10:38:04.962Z</time></trkpt><trkpt lat="46.12050212907663" lon="10.965441329618882"><ele>859.6666666666666</ele><time>2026-05-03T10:38:05.962Z</time></trkpt><trkpt lat="46.12062657488623" lon="10.965607607619296"><ele>856.0</ele><time>2026-05-03T10:38:06.962Z</time></trkpt><trkpt lat="46.12075029903238" lon="10.965755268158423"><ele>865.3333333333333</ele><time>2026-05-03T10:38:07.962Z</time></trkpt><trkpt lat="46.120925455145645" lon="10.96588387385871"><ele>874.6666666666667</ele><time>2026-05-03T10:38:08.962Z</time></trkpt><trkpt lat="46.12109696939922" lon="10.965973135788163"><ele>884.0</ele><time>2026-05-03T10:38:09.962Z</time></trkpt><trkpt lat="46.12126560907036" lon="10.96605910812005"><ele>884.0</ele><time>2026-05-03T10:38:10.962Z</time></trkpt><trkpt lat="46.12144690041845" lon="10.966145844732951"><ele>884.0</ele><time>2026-05-03T10:38:11.962Z</time></trkpt><trkpt lat="46.121640318070064" lon="10.966243359250493"><ele>884.0</ele><time>2026-05-03T10:38:12.962Z</time></trkpt><trkpt lat="46.12183706291189" lon="10.966341658485467"><ele>876.3333333333334</ele><time>2026-05-03T10:38:13.962Z</time></trkpt><trkpt lat="46.12203062419663" lon="10.966443264583814"><ele>868.6666666666667</ele><time>2026-05-03T10:38:14.962Z</time></trkpt><trkpt lat="46.12222395457556" lon="10.966545029583187"><ele>861.0</ele><time>2026-05-03T10:38:15.962Z</time></trkpt><trkpt lat="46.122406223508854" lon="10.966648622902031"><ele>862.6666666666667</ele><time>2026-05-03T10:38:16.962Z</time></trkpt><trkpt lat="46.122576330797564" lon="10.966748992049098"><ele>864.3333333333334</ele><time>2026-05-03T10:38:17.962Z</time></trkpt><trkpt lat="46.12274285728289" lon="10.966843466594609"><ele>866.0</ele><time>2026-05-03T10:38:18.962Z</time></trkpt><trkpt lat="46.12290035010849" lon="10.96692837098675"><ele>866.0</ele><time>2026-05-03T10:38:19.962Z</time></trkpt><trkpt lat="46.12307734254931" lon="10.966971990697493"><ele>866.0</ele><time>2026-05-03T10:38:20.962Z</time></trkpt><trkpt lat="46.12326439366186" lon="10.966951596652256"><ele>866.0</ele><time>2026-05-03T10:38:21.962Z</time></trkpt><trkpt lat="46.12344342314667" lon="10.96691215400574"><ele>864.0</ele><time>2026-05-03T10:38:22.962Z</time></trkpt><trkpt lat="46.12363177486021" lon="10.966876681990959"><ele>862.0</ele><time>2026-05-03T10:38:23.962Z</time></trkpt><trkpt lat="46.12382787712423" lon="10.966844283964935"><ele>860.0</ele><time>2026-05-03T10:38:24.962Z</time></trkpt><trkpt lat="46.12402707483959" lon="10.966813926171259"><ele>863.6666666666667</ele><time>2026-05-03T10:38:25.962Z</time></trkpt><trkpt lat="46.12422594566427" lon="10.966791483926237"><ele>867.3333333333333</ele><time>2026-05-03T10:38:26.962Z</time></trkpt><trkpt lat="46.124424810995066" lon="10.966764077722468"><ele>871.0</ele><time>2026-05-03T10:38:27.963Z</time></trkpt><trkpt lat="46.124631560159386" lon="10.966745277500172"><ele>871.0</ele><time>2026-05-03T10:38:28.963Z</time></trkpt><trkpt lat="46.12484103074784" lon="10.966710658325626"><ele>871.0</ele><time>2026-05-03T10:38:29.962Z</time></trkpt><trkpt lat="46.12504661419334" lon="10.96667860930656"><ele>871.0</ele><time>2026-05-03T10:38:30.962Z</time></trkpt><trkpt lat="46.125234582243415" lon="10.966650544326951"><ele>877.3333333333333</ele><time>2026-05-03T10:38:31.962Z</time></trkpt><trkpt lat="46.12541536876032" lon="10.96665154530891"><ele>883.6666666666667</ele><time>2026-05-03T10:38:32.963Z</time></trkpt><trkpt lat="46.125599825551454" lon="10.966675406914982"><ele>890.0</ele><time>2026-05-03T10:38:33.963Z</time></trkpt><trkpt lat="46.12578937642281" lon="10.966721302621895"><ele>890.0</ele><time>2026-05-03T10:38:34.963Z</time></trkpt><trkpt lat="46.125969512918964" lon="10.966772807263627"><ele>890.0</ele><time>2026-05-03T10:38:35.963Z</time></trkpt><trkpt lat="46.12614312123428" lon="10.966845826632245"><ele>890.0</ele><time>2026-05-03T10:38:36.963Z</time></trkpt><trkpt lat="46.12629398346566" lon="10.966972355202108"><ele>890.0</ele><time>2026-05-03T10:38:37.963Z</time></trkpt><trkpt lat="46.126439194512216" lon="10.967128931486428"><ele>890.0</ele><time>2026-05-03T10:38:38.963Z</time></trkpt><trkpt lat="46.12659744061197" lon="10.96729953131603"><ele>890.0</ele><time>2026-05-03T10:38:39.962Z</time></trkpt><trkpt lat="46.12678632688972" lon="10.967454050877702"><ele>898.3333333333334</ele><time>2026-05-03T10:38:40.962Z</time></trkpt><trkpt lat="46.126977594948066" lon="10.967561846188955"><ele>906.6666666666667</ele><time>2026-05-03T10:38:41.962Z</time></trkpt><trkpt lat="46.1271726287362" lon="10.967674546554592"><ele>915.0</ele><time>2026-05-03T10:38:42.962Z</time></trkpt><trkpt lat="46.127372846540446" lon="10.967790360873318"><ele>908.0</ele><time>2026-05-03T10:38:43.962Z</time></trkpt><trkpt lat="46.12756963094431" lon="10.967906836736503"><ele>901.0</ele><time>2026-05-03T10:38:44.962Z</time></trkpt><trkpt lat="46.127763794813404" lon="10.96802333761701"><ele>894.0</ele><time>2026-05-03T10:38:45.962Z</time></trkpt><trkpt lat="46.1279570224063" lon="10.96813574484332"><ele>894.0</ele><time>2026-05-03T10:38:46.962Z</time></trkpt><trkpt lat="46.12815014091462" lon="10.968225571143513"><ele>894.0</ele><time>2026-05-03T10:38:47.962Z</time></trkpt><trkpt lat="46.1283435422112" lon="10.968252342325101"><ele>894.0</ele><time>2026-05-03T10:38:48.962Z</time></trkpt><trkpt lat="46.12853687549356" lon="10.968271473613164"><ele>882.3333333333333</ele><time>2026-05-03T10:38:49.962Z</time></trkpt><trkpt lat="46.12876082967972" lon="10.96829174341573"><ele>870.6666666666666</ele><time>2026-05-03T10:38:50.962Z</time></trkpt><trkpt lat="46.128969951810134" lon="10.968310117085434"><ele>859.0</ele><time>2026-05-03T10:38:51.962Z</time></trkpt><trkpt lat="46.129137441588014" lon="10.968327686902425"><ele>855.0</ele><time>2026-05-03T10:38:52.962Z</time></trkpt><trkpt lat="46.129295985255666" lon="10.96833222132367"><ele>851.0</ele><time>2026-05-03T10:38:53.962Z</time></trkpt><trkpt lat="46.129452697350544" lon="10.96841973308682"><ele>847.0</ele><time>2026-05-03T10:38:54.962Z</time></trkpt><trkpt lat="46.1296209224689" lon="10.968541330885278"><ele>857.6666666666666</ele><time>2026-05-03T10:38:55.962Z</time></trkpt><trkpt lat="46.12979875376172" lon="10.968668962689286"><ele>868.3333333333333</ele><time>2026-05-03T10:38:56.962Z</time></trkpt><trkpt lat="46.129974286353914" lon="10.968712991071609"><ele>879.0</ele><time>2026-05-03T10:38:57.962Z</time></trkpt><trkpt lat="46.13017079762715" lon="10.968716173826339"><ele>879.0</ele><time>2026-05-03T10:38:58.962Z</time></trkpt><trkpt lat="46.13037212300265" lon="10.968738161459664"><ele>879.0</ele><time>2026-05-03T10:38:59.962Z</time></trkpt><trkpt lat="46.13060171317985" lon="10.968713580021875"><ele>879.0</ele><time>2026-05-03T10:39:00.962Z</time></trkpt><trkpt lat="46.130818098838155" lon="10.96868166013376"><ele>875.0</ele><time>2026-05-03T10:39:01.962Z</time></trkpt><trkpt lat="46.131008728144536" lon="10.968680195599195"><ele>871.0</ele><time>2026-05-03T10:39:02.962Z</time></trkpt><trkpt lat="46.131198326225906" lon="10.96866946872717"><ele>867.0</ele><time>2026-05-03T10:39:03.962Z</time></trkpt><trkpt lat="46.13139067509511" lon="10.968667933678347"><ele>866.6666666666667</ele><time>2026-05-03T10:39:04.962Z</time></trkpt><trkpt lat="46.13157474435614" lon="10.96872811897751"><ele>866.3333333333334</ele><time>2026-05-03T10:39:05.962Z</time></trkpt><trkpt lat="46.13177817577957" lon="10.968783285340631"><ele>866.0</ele><time>2026-05-03T10:39:06.962Z</time></trkpt><trkpt lat="46.13197403231309" lon="10.968884453950368"><ele>866.0</ele><time>2026-05-03T10:39:07.962Z</time></trkpt><trkpt lat="46.13217041433751" lon="10.968959719069398"><ele>866.0</ele><time>2026-05-03T10:39:08.962Z</time></trkpt><trkpt lat="46.1323568351874" lon="10.969030299356103"><ele>866.0</ele><time>2026-05-03T10:39:09.962Z</time></trkpt><trkpt lat="46.13253459075091" lon="10.969097598944145"><ele>864.6666666666667</ele><time>2026-05-03T10:39:10.962Z</time></trkpt><trkpt lat="46.13270511255842" lon="10.969162148969632"><ele>863.3333333333333</ele><time>2026-05-03T10:39:11.962Z</time></trkpt><trkpt lat="46.13287182980411" lon="10.969225190341918"><ele>862.0</ele><time>2026-05-03T10:39:12.962Z</time></trkpt><trkpt lat="46.13302718202508" lon="10.96928471255136"><ele>867.25</ele><time>2026-05-03T10:39:13.962Z</time></trkpt><trkpt lat="46.13316764403127" lon="10.96933707214454"><ele>872.5</ele><time>2026-05-03T10:39:14.962Z</time></trkpt><trkpt lat="46.13330430817993" lon="10.969389928477664"><ele>877.75</ele><time>2026-05-03T10:39:15.962Z</time></trkpt><trkpt lat="46.13343324340847" lon="10.969427804612167"><ele>883.0</ele><time>2026-05-03T10:39:16.962Z</time></trkpt><trkpt lat="46.13356407963932" lon="10.969403093139773"><ele>883.0</ele><time>2026-05-03T10:39:17.962Z</time></trkpt><trkpt lat="46.1336872014789" lon="10.969376952258777"><ele>883.0</ele><time>2026-05-03T10:39:18.962Z</time></trkpt><trkpt lat="46.13380576629018" lon="10.969389513980904"><ele>883.0</ele><time>2026-05-03T10:39:19.962Z</time></trkpt><trkpt lat="46.133912784225274" lon="10.969423237901433"><ele>883.0</ele><time>2026-05-03T10:39:20.962Z</time></trkpt><trkpt lat="46.13399778578096" lon="10.96950356351005"><ele>879.0</ele><time>2026-05-03T10:39:21.962Z</time></trkpt><trkpt lat="46.13409978607082" lon="10.969598616052435"><ele>875.0</ele><time>2026-05-03T10:39:22.962Z</time></trkpt><trkpt lat="46.134209987805384" lon="10.969707240826152"><ele>871.0</ele><time>2026-05-03T10:39:23.962Z</time></trkpt><trkpt lat="46.13432556809808" lon="10.96982142117854"><ele>867.0</ele><time>2026-05-03T10:39:24.962Z</time></trkpt><trkpt lat="46.1344381750281" lon="10.969928804736801"><ele>879.3333333333333</ele><time>2026-05-03T10:39:25.962Z</time></trkpt><trkpt lat="46.13456000147437" lon="10.970028887303314"><ele>891.6666666666666</ele><time>2026-05-03T10:39:26.962Z</time></trkpt><trkpt lat="46.13469898748591" lon="10.970087173620618"><ele>904.0</ele><time>2026-05-03T10:39:27.962Z</time></trkpt><trkpt lat="46.134860184089725" lon="10.970166697700568"><ele>895.0</ele><time>2026-05-03T10:39:28.962Z</time></trkpt><trkpt lat="46.135044938341125" lon="10.97017688258021"><ele>886.0</ele><time>2026-05-03T10:39:29.962Z</time></trkpt><trkpt lat="46.135247956163546" lon="10.970157682403775"><ele>877.0</ele><time>2026-05-03T10:39:30.962Z</time></trkpt><trkpt lat="46.13542031445928" lon="10.970171247209473"><ele>877.0</ele><time>2026-05-03T10:39:31.962Z</time></trkpt><trkpt lat="46.13558727440534" lon="10.970187441022107"><ele>877.0</ele><time>2026-05-03T10:39:32.962Z</time></trkpt><trkpt lat="46.13575318953126" lon="10.970198279431802"><ele>877.0</ele><time>2026-05-03T10:39:33.962Z</time></trkpt><trkpt lat="46.135912262427" lon="10.970218679597762"><ele>874.3333333333333</ele><time>2026-05-03T10:39:34.962Z</time></trkpt><trkpt lat="46.136068371765134" lon="10.970240404161954"><ele>871.6666666666667</ele><time>2026-05-03T10:39:35.962Z</time></trkpt><trkpt lat="46.136220158601866" lon="10.970247459710588"><ele>869.0</ele><time>2026-05-03T10:39:36.962Z</time></trkpt><trkpt lat="46.136372278350244" lon="10.97027003880737"><ele>869.0</ele><time>2026-05-03T10:39:37.962Z</time></trkpt><trkpt lat="46.13652060433505" lon="10.970282160314477"><ele>869.0</ele><time>2026-05-03T10:39:38.962Z</time></trkpt><trkpt lat="46.136656556286994" lon="10.970293295735845"><ele>869.0</ele><time>2026-05-03T10:39:39.962Z</time></trkpt><trkpt lat="46.13675819742288" lon="10.970307072513531"><ele>869.0</ele><time>2026-05-03T10:39:40.962Z</time></trkpt><trkpt lat="46.136863526261145" lon="10.970359873443273"><ele>867.0</ele><time>2026-05-03T10:39:41.962Z</time></trkpt><trkpt lat="46.13696798533125" lon="10.97044452158946"><ele>865.0</ele><time>2026-05-03T10:39:42.962Z</time></trkpt><trkpt lat="46.13708072616845" lon="10.970549139030043"><ele>863.0</ele><time>2026-05-03T10:39:43.962Z</time></trkpt><trkpt lat="46.13719060253122" lon="10.97067934298498"><ele>861.0</ele><time>2026-05-03T10:39:44.962Z</time></trkpt><trkpt lat="46.13733302658509" lon="10.970752954903837"><ele>858.5</ele><time>2026-05-03T10:39:45.962Z</time></trkpt><trkpt lat="46.13748660262908" lon="10.97079956763413"><ele>856.0</ele><time>2026-05-03T10:39:46.962Z</time></trkpt><trkpt lat="46.137635677932195" lon="10.970800960263734"><ele>853.5</ele><time>2026-05-03T10:39:47.962Z</time></trkpt><trkpt lat="46.13776748322169" lon="10.970801449042211"><ele>851.0</ele><time>2026-05-03T10:39:48.962Z</time></trkpt><trkpt lat="46.13788483939545" lon="10.970794605260298"><ele>851.0</ele><time>2026-05-03T10:39:49.962Z</time></trkpt><trkpt lat="46.13798038507164" lon="10.97083847509063"><ele>851.0</ele><time>2026-05-03T10:39:50.962Z</time></trkpt><trkpt lat="46.13808311508241" lon="10.970884556833813"><ele>851.0</ele><time>2026-05-03T10:39:51.962Z</time></trkpt><trkpt lat="46.13819534804979" lon="10.970934255965611"><ele>851.0</ele><time>2026-05-03T10:39:52.962Z</time></trkpt><trkpt lat="46.138305108721084" lon="10.970981865330225"><ele>851.0</ele><time>2026-05-03T10:39:53.962Z</time></trkpt><trkpt lat="46.13840359522212" lon="10.971026032333258"><ele>857.1999999999999</ele><time>2026-05-03T10:39:54.962Z</time></trkpt><trkpt lat="46.138505244226224" lon="10.971065151155672"><ele>863.4</ele><time>2026-05-03T10:39:55.962Z</time></trkpt><trkpt lat="46.13860108263042" lon="10.971056682144429"><ele>869.6</ele><time>2026-05-03T10:39:56.962Z</time></trkpt><trkpt lat="46.13869038207099" lon="10.971076337514347"><ele>875.8</ele><time>2026-05-03T10:39:57.962Z</time></trkpt><trkpt lat="46.138771893444726" lon="10.971021957076683"><ele>882.0</ele><time>2026-05-03T10:39:58.962Z</time></trkpt><trkpt lat="46.13885609780429" lon="10.970980835124292"><ele>882.0</ele><time>2026-05-03T10:39:59.962Z</time></trkpt><trkpt lat="46.138945664031375" lon="10.97091175957464"><ele>882.0</ele><time>2026-05-03T10:40:00.962Z</time></trkpt><trkpt lat="46.139040401468066" lon="10.97084531552554"><ele>882.0</ele><time>2026-05-03T10:40:01.962Z</time></trkpt><trkpt lat="46.13913993110067" lon="10.970775440912538"><ele>882.0</ele><time>2026-05-03T10:40:02.962Z</time></trkpt><trkpt lat="46.13924317144103" lon="10.97071137015072"><ele>882.0</ele><time>2026-05-03T10:40:03.962Z</time></trkpt><trkpt lat="46.13934880260377" lon="10.97064538255313"><ele>874.2</ele><time>2026-05-03T10:40:04.962Z</time></trkpt><trkpt lat="46.13945409504567" lon="10.970575718101793"><ele>866.4000000000001</ele><time>2026-05-03T10:40:05.962Z</time></trkpt><trkpt lat="46.1395533192919" lon="10.970501974149956"><ele>858.5999999999999</ele><time>2026-05-03T10:40:06.962Z</time></trkpt><trkpt lat="46.13965367695224" lon="10.97043019005051"><ele>850.8</ele><time>2026-05-03T10:40:07.962Z</time></trkpt><trkpt lat="46.139749632316445" lon="10.970361026473089"><ele>843.0</ele><time>2026-05-03T10:40:08.962Z</time></trkpt><trkpt lat="46.13984496723859" lon="10.970293186219669"><ele>845.0</ele><time>2026-05-03T10:40:09.962Z</time></trkpt><trkpt lat="46.13993634566677" lon="10.970211651272589"><ele>847.0</ele><time>2026-05-03T10:40:10.962Z</time></trkpt><trkpt lat="46.14002943407576" lon="10.970136501869174"><ele>849.0</ele><time>2026-05-03T10:40:11.962Z</time></trkpt><trkpt lat="46.14011984921885" lon="10.970056704143628"><ele>851.0</ele><time>2026-05-03T10:40:12.962Z</time></trkpt><trkpt lat="46.140205118596114" lon="10.969972393980365"><ele>853.0</ele><time>2026-05-03T10:40:13.962Z</time></trkpt><trkpt lat="46.1402907311588" lon="10.969891360421999"><ele>850.5</ele><time>2026-05-03T10:40:14.962Z</time></trkpt><trkpt lat="46.14038956920099" lon="10.96983886142454"><ele>848.0</ele><time>2026-05-03T10:40:15.962Z</time></trkpt><trkpt lat="46.14050232907071" lon="10.969788578309906"><ele>845.5</ele><time>2026-05-03T10:40:16.962Z</time></trkpt><trkpt lat="46.140611423178754" lon="10.969739833266212"><ele>843.0</ele><time>2026-05-03T10:40:17.962Z</time></trkpt><trkpt lat="46.14071865309135" lon="10.969690521265502"><ele>843.0</ele><time>2026-05-03T10:40:18.962Z</time></trkpt><trkpt lat="46.140820585715765" lon="10.969637334643785"><ele>843.0</ele><time>2026-05-03T10:40:19.962Z</time></trkpt><trkpt lat="46.1409199014468" lon="10.96957908468659"><ele>843.0</ele><time>2026-05-03T10:40:20.962Z</time></trkpt><trkpt lat="46.14102069857901" lon="10.969523124583977"><ele>843.0</ele><time>2026-05-03T10:40:21.962Z</time></trkpt><trkpt lat="46.141119587079004" lon="10.969456916695847"><ele>843.0</ele><time>2026-05-03T10:40:22.962Z</time></trkpt><trkpt lat="46.1412073060738" lon="10.969388332703401"><ele>843.0</ele><time>2026-05-03T10:40:23.962Z</time></trkpt><trkpt lat="46.1412891988635" lon="10.969292280628816"><ele>843.0</ele><time>2026-05-03T10:40:24.962Z</time></trkpt><trkpt lat="46.14137382610464" lon="10.969172833967606"><ele>843.0</ele><time>2026-05-03T10:40:25.962Z</time></trkpt><trkpt lat="46.141455566262984" lon="10.96905116965065"><ele>843.0</ele><time>2026-05-03T10:40:26.962Z</time></trkpt><trkpt lat="46.14151291117249" lon="10.968915236479504"><ele>839.8</ele><time>2026-05-03T10:40:27.962Z</time></trkpt><trkpt lat="46.141554467393654" lon="10.968758199615591"><ele>836.5999999999999</ele><time>2026-05-03T10:40:28.962Z</time></trkpt><trkpt lat="46.14157606673195" lon="10.968599623151526"><ele>833.4000000000001</ele><time>2026-05-03T10:40:29.961Z</time></trkpt><trkpt lat="46.14158099210144" lon="10.968442476323894"><ele>830.2</ele><time>2026-05-03T10:40:30.961Z</time></trkpt><trkpt lat="46.141577683177644" lon="10.968304953155952"><ele>827.0</ele><time>2026-05-03T10:40:31.961Z</time></trkpt><trkpt lat="46.14155656887453" lon="10.968176614884118"><ele>825.3333333333334</ele><time>2026-05-03T10:40:32.962Z</time></trkpt><trkpt lat="46.14152645399488" lon="10.968050015209764"><ele>823.6666666666667</ele><time>2026-05-03T10:40:33.962Z</time></trkpt><trkpt lat="46.141489720396" lon="10.967932701816272"><ele>822.0</ele><time>2026-05-03T10:40:34.962Z</time></trkpt><trkpt lat="46.14144610916239" lon="10.967823495758221"><ele>820.3333333333333</ele><time>2026-05-03T10:40:35.963Z</time></trkpt><trkpt lat="46.14139522646013" lon="10.967734026378896"><ele>818.6666666666666</ele><time>2026-05-03T10:40:36.962Z</time></trkpt><trkpt lat="46.141334704446585" lon="10.967646491087756"><ele>817.0</ele><time>2026-05-03T10:40:37.962Z</time></trkpt><trkpt lat="46.1412746084285" lon="10.96756036957879"><ele>819.6666666666666</ele><time>2026-05-03T10:40:38.962Z</time></trkpt><trkpt lat="46.14121370431819" lon="10.967459102401365"><ele>822.3333333333333</ele><time>2026-05-03T10:40:39.962Z</time></trkpt><trkpt lat="46.141171060263375" lon="10.967350047705084"><ele>825.0</ele><time>2026-05-03T10:40:40.962Z</time></trkpt><trkpt lat="46.1411420725728" lon="10.967230781827679"><ele>827.6666666666667</ele><time>2026-05-03T10:40:41.962Z</time></trkpt><trkpt lat="46.14110926170897" lon="10.967112509916694"><ele>830.3333333333334</ele><time>2026-05-03T10:40:42.962Z</time></trkpt><trkpt lat="46.141080498623246" lon="10.966993440705805"><ele>833.0</ele><time>2026-05-03T10:40:43.962Z</time></trkpt><trkpt lat="46.14104855390168" lon="10.96687368817088"><ele>833.0</ele><time>2026-05-03T10:40:44.963Z</time></trkpt><trkpt lat="46.14101205332017" lon="10.966746525415875"><ele>833.0</ele><time>2026-05-03T10:40:45.962Z</time></trkpt><trkpt lat="46.140978551714355" lon="10.96661049339362"><ele>833.0</ele><time>2026-05-03T10:40:46.962Z</time></trkpt><trkpt lat="46.140944056100544" lon="10.966469216641741"><ele>833.0</ele><time>2026-05-03T10:40:47.962Z</time></trkpt><trkpt lat="46.14090763342371" lon="10.966311832036144"><ele>833.0</ele><time>2026-05-03T10:40:48.962Z</time></trkpt><trkpt lat="46.140892868102085" lon="10.966137868133757"><ele>834.4</ele><time>2026-05-03T10:40:49.962Z</time></trkpt><trkpt lat="46.1409151093649" lon="10.965986628699895"><ele>835.8</ele><time>2026-05-03T10:40:50.962Z</time></trkpt><trkpt lat="46.14097610392744" lon="10.965868462161211"><ele>837.2</ele><time>2026-05-03T10:40:51.962Z</time></trkpt><trkpt lat="46.14107424086077" lon="10.965792033228096"><ele>838.6</ele><time>2026-05-03T10:40:52.962Z</time></trkpt><trkpt lat="46.141179903272636" lon="10.965731231102732"><ele>840.0</ele><time>2026-05-03T10:40:53.962Z</time></trkpt><trkpt lat="46.141290023429896" lon="10.965662473700437"><ele>840.5</ele><time>2026-05-03T10:40:54.962Z</time></trkpt><trkpt lat="46.141406291320365" lon="10.965592716268597"><ele>841.0</ele><time>2026-05-03T10:40:55.962Z</time></trkpt><trkpt lat="46.14151323950265" lon="10.965519739422406"><ele>841.5</ele><time>2026-05-03T10:40:56.962Z</time></trkpt><trkpt lat="46.14161514016916" lon="10.965451705962277"><ele>842.0</ele><time>2026-05-03T10:40:57.962Z</time></trkpt><trkpt lat="46.14171267280309" lon="10.965358272708857"><ele>844.25</ele><time>2026-05-03T10:40:58.962Z</time></trkpt><trkpt lat="46.14178583257291" lon="10.965218998595843"><ele>846.5</ele><time>2026-05-03T10:40:59.962Z</time></trkpt><trkpt lat="46.141847152263644" lon="10.965059688217119"><ele>848.75</ele><time>2026-05-03T10:41:00.962Z</time></trkpt><trkpt lat="46.141914695820596" lon="10.964896764987419"><ele>851.0</ele><time>2026-05-03T10:41:01.962Z</time></trkpt><trkpt lat="46.14197886700057" lon="10.96473185119632"><ele>851.0</ele><time>2026-05-03T10:41:02.962Z</time></trkpt><trkpt lat="46.142047046111436" lon="10.964572975022591"><ele>851.0</ele><time>2026-05-03T10:41:03.962Z</time></trkpt><trkpt lat="46.14211593410383" lon="10.964411863229019"><ele>851.0</ele><time>2026-05-03T10:41:04.962Z</time></trkpt><trkpt lat="46.142186035920986" lon="10.964250428901787"><ele>851.0</ele><time>2026-05-03T10:41:05.962Z</time></trkpt><trkpt lat="46.1422538035512" lon="10.964087543894117"><ele>850.0</ele><time>2026-05-03T10:41:06.962Z</time></trkpt><trkpt lat="46.14231573353644" lon="10.963934115355654"><ele>849.0</ele><time>2026-05-03T10:41:07.962Z</time></trkpt><trkpt lat="46.14237449759133" lon="10.963792216320707"><ele>848.0</ele><time>2026-05-03T10:41:08.962Z</time></trkpt><trkpt lat="46.14242287997699" lon="10.963659228499182"><ele>847.0</ele><time>2026-05-03T10:41:09.962Z</time></trkpt><trkpt lat="46.14245438854245" lon="10.963546339097862"><ele>846.0</ele><time>2026-05-03T10:41:10.962Z</time></trkpt><trkpt lat="46.142468905793976" lon="10.963429972985107"><ele>845.5999999999999</ele><time>2026-05-03T10:41:11.962Z</time></trkpt><trkpt lat="46.142473062904244" lon="10.96330216410272"><ele>845.2</ele><time>2026-05-03T10:41:12.962Z</time></trkpt><trkpt lat="46.14245875400729" lon="10.963162539590643"><ele>844.8</ele><time>2026-05-03T10:41:13.962Z</time></trkpt><trkpt lat="46.14242315473821" lon="10.963016197316989"><ele>844.4000000000001</ele><time>2026-05-03T10:41:14.962Z</time></trkpt><trkpt lat="46.1423749857126" lon="10.96286564944935"><ele>844.0</ele><time>2026-05-03T10:41:15.962Z</time></trkpt><trkpt lat="46.142312943648975" lon="10.962718729027925"><ele>843.9999999999999</ele><time>2026-05-03T10:41:16.962Z</time></trkpt><trkpt lat="46.142254333604676" lon="10.96259206789382"><ele>844.0</ele><time>2026-05-03T10:41:17.962Z</time></trkpt><trkpt lat="46.142202561428405" lon="10.962472963720392"><ele>844.0</ele><time>2026-05-03T10:41:18.962Z</time></trkpt><trkpt lat="46.14217477514569" lon="10.962364454310137"><ele>844.0</ele><time>2026-05-03T10:41:19.962Z</time></trkpt><trkpt lat="46.14217783778149" lon="10.962257864630901"><ele>843.9999999999999</ele><time>2026-05-03T10:41:20.962Z</time></trkpt><trkpt lat="46.142226891272415" lon="10.962169915481043"><ele>844.0</ele><time>2026-05-03T10:41:21.962Z</time></trkpt><trkpt lat="46.142300139122256" lon="10.962107695926829"><ele>844.6</ele><time>2026-05-03T10:41:22.962Z</time></trkpt><trkpt lat="46.142380168953785" lon="10.962100786872748"><ele>845.2</ele><time>2026-05-03T10:41:23.962Z</time></trkpt><trkpt lat="46.142454457003446" lon="10.962163182081257"><ele>845.8000000000001</ele><time>2026-05-03T10:41:24.962Z</time></trkpt><trkpt lat="46.14251657310112" lon="10.962277093073618"><ele>846.4000000000001</ele><time>2026-05-03T10:41:25.962Z</time></trkpt><trkpt lat="46.14255861770499" lon="10.962407588310306"><ele>847.0</ele><time>2026-05-03T10:41:26.962Z</time></trkpt><trkpt lat="46.142585964426715" lon="10.962526128717478"><ele>849.4999999999999</ele><time>2026-05-03T10:41:27.962Z</time></trkpt><trkpt lat="46.14261690094807" lon="10.962643004171829"><ele>852.0</ele><time>2026-05-03T10:41:28.962Z</time></trkpt><trkpt lat="46.14264114575732" lon="10.962753332585997"><ele>854.5</ele><time>2026-05-03T10:41:29.962Z</time></trkpt><trkpt lat="46.142672533966866" lon="10.962857083833242"><ele>857.0</ele><time>2026-05-03T10:41:30.962Z</time></trkpt><trkpt lat="46.142707850853654" lon="10.962957467063337"><ele>859.4999999999999</ele><time>2026-05-03T10:41:31.962Z</time></trkpt><trkpt lat="46.14273781526411" lon="10.963061167935154"><ele>862.0</ele><time>2026-05-03T10:41:32.962Z</time></trkpt><trkpt lat="46.14277158013853" lon="10.963164143178435"><ele>862.0</ele><time>2026-05-03T10:41:33.962Z</time></trkpt><trkpt lat="46.14280101576651" lon="10.96327027858827"><ele>862.0</ele><time>2026-05-03T10:41:34.962Z</time></trkpt><trkpt lat="46.14283555730534" lon="10.963389587328514"><ele>862.0</ele><time>2026-05-03T10:41:35.962Z</time></trkpt><trkpt lat="46.14287412100896" lon="10.963522927635662"><ele>862.0</ele><time>2026-05-03T10:41:36.962Z</time></trkpt><trkpt lat="46.142913196857684" lon="10.963658995513729"><ele>862.0</ele><time>2026-05-03T10:41:37.962Z</time></trkpt><trkpt lat="46.14295218016696" lon="10.963785838752193"><ele>861.8</ele><time>2026-05-03T10:41:38.962Z</time></trkpt><trkpt lat="46.14298488266727" lon="10.963913583133928"><ele>861.6</ele><time>2026-05-03T10:41:39.962Z</time></trkpt><trkpt lat="46.14302029224231" lon="10.964036772422505"><ele>861.3999999999999</ele><time>2026-05-03T10:41:40.962Z</time></trkpt><trkpt lat="46.143067833359474" lon="10.96416184058068"><ele>861.1999999999999</ele><time>2026-05-03T10:41:41.962Z</time></trkpt><trkpt lat="46.1431304854042" lon="10.964271767555562"><ele>861.0</ele><time>2026-05-03T10:41:42.962Z</time></trkpt><trkpt lat="46.14320135512198" lon="10.964350940340935"><ele>863.5</ele><time>2026-05-03T10:41:43.962Z</time></trkpt><trkpt lat="46.14328082818027" lon="10.964402727038843"><ele>866.0</ele><time>2026-05-03T10:41:44.962Z</time></trkpt><trkpt lat="46.143348361884044" lon="10.964436730515486"><ele>868.5</ele><time>2026-05-03T10:41:45.962Z</time></trkpt><trkpt lat="46.14344290129886" lon="10.96445245737419"><ele>871.0</ele><time>2026-05-03T10:41:46.962Z</time></trkpt><trkpt lat="46.143535829382664" lon="10.964477471265871"><ele>873.5</ele><time>2026-05-03T10:41:47.962Z</time></trkpt><trkpt lat="46.14362937140292" lon="10.96450288743928"><ele>876.0</ele><time>2026-05-03T10:41:48.962Z</time></trkpt><trkpt lat="46.143714721767374" lon="10.96452902630686"><ele>876.0</ele><time>2026-05-03T10:41:49.962Z</time></trkpt><trkpt lat="46.143798144420586" lon="10.964554244747491"><ele>876.0</ele><time>2026-05-03T10:41:50.962Z</time></trkpt><trkpt lat="46.14388379682975" lon="10.96460038645041"><ele>876.0</ele><time>2026-05-03T10:41:51.962Z</time></trkpt><trkpt lat="46.143950949319425" lon="10.96466303978038"><ele>876.0</ele><time>2026-05-03T10:41:52.962Z</time></trkpt><trkpt lat="46.144004038980945" lon="10.964736784608334"><ele>876.0</ele><time>2026-05-03T10:41:53.962Z</time></trkpt><trkpt lat="46.14406015983488" lon="10.964784611292467"><ele>876.0</ele><time>2026-05-03T10:41:54.962Z</time></trkpt><trkpt lat="46.14411958605242" lon="10.964894249125594"><ele>878.3333333333334</ele><time>2026-05-03T10:41:56.962Z</time></trkpt><trkpt lat="46.14414896121396" lon="10.965014588914986"><ele>880.6666666666667</ele><time>2026-05-03T10:41:59.962Z</time></trkpt><trkpt lat="46.14417976859371" lon="10.965103645144433"><ele>883.0</ele><time>2026-05-03T10:42:01.962Z</time></trkpt><trkpt lat="46.14421662154856" lon="10.965212309570154"><ele>885.3333333333334</ele><time>2026-05-03T10:42:03.962Z</time></trkpt><trkpt lat="46.144244716331144" lon="10.965343298212797"><ele>887.6666666666667</ele><time>2026-05-03T10:42:05.962Z</time></trkpt><trkpt lat="46.1442604695584" lon="10.965447266872477"><ele>890.0</ele><time>2026-05-03T10:42:06.962Z</time></trkpt><trkpt lat="46.144310156936534" lon="10.965613491466767"><ele>890.2</ele><time>2026-05-03T10:42:08.962Z</time></trkpt><trkpt lat="46.1442908382259" lon="10.965711935950438"><ele>890.4</ele><time>2026-05-03T10:42:09.962Z</time></trkpt><trkpt lat="46.14427153836819" lon="10.96582199978821"><ele>890.5999999999999</ele><time>2026-05-03T10:42:10.962Z</time></trkpt><trkpt lat="46.14425645113902" lon="10.965950372939972"><ele>890.8</ele><time>2026-05-03T10:42:11.962Z</time></trkpt><trkpt lat="46.14423832573725" lon="10.966098918851037"><ele>891.0</ele><time>2026-05-03T10:42:12.962Z</time></trkpt><trkpt lat="46.144214771673695" lon="10.966262211981256"><ele>892.25</ele><time>2026-05-03T10:42:13.962Z</time></trkpt><trkpt lat="46.14417959106762" lon="10.966434010505562"><ele>893.5</ele><time>2026-05-03T10:42:14.962Z</time></trkpt><trkpt lat="46.14414790125949" lon="10.96661305661822"><ele>894.75</ele><time>2026-05-03T10:42:15.962Z</time></trkpt><trkpt lat="46.14411252816104" lon="10.966802007782645"><ele>896.0</ele><time>2026-05-03T10:42:16.962Z</time></trkpt><trkpt lat="46.14407800306122" lon="10.96699485951477"><ele>890.3333333333334</ele><time>2026-05-03T10:42:17.962Z</time></trkpt><trkpt lat="46.144040807321076" lon="10.967190373028222"><ele>884.6666666666667</ele><time>2026-05-03T10:42:18.962Z</time></trkpt><trkpt lat="46.14400844698986" lon="10.967417087845865"><ele>879.0</ele><time>2026-05-03T10:42:19.962Z</time></trkpt><trkpt lat="46.14396218723987" lon="10.967635404680633"><ele>877.75</ele><time>2026-05-03T10:42:20.962Z</time></trkpt><trkpt lat="46.1439383111324" lon="10.967862203211322"><ele>876.5</ele><time>2026-05-03T10:42:21.962Z</time></trkpt><trkpt lat="46.14392656884407" lon="10.968062661896784"><ele>875.25</ele><time>2026-05-03T10:42:22.962Z</time></trkpt><trkpt lat="46.143932840992655" lon="10.968258243381216"><ele>874.0</ele><time>2026-05-03T10:42:23.962Z</time></trkpt><trkpt lat="46.14389664284463" lon="10.968469748798613"><ele>878.0</ele><time>2026-05-03T10:42:24.962Z</time></trkpt><trkpt lat="46.14396735764046" lon="10.968650737743001"><ele>882.0</ele><time>2026-05-03T10:42:25.962Z</time></trkpt><trkpt lat="46.14405816934131" lon="10.968800229952459"><ele>886.0</ele><time>2026-05-03T10:42:26.962Z</time></trkpt><trkpt lat="46.144143049955055" lon="10.968931687319287"><ele>890.0</ele><time>2026-05-03T10:42:27.962Z</time></trkpt><trkpt lat="46.14422925310152" lon="10.96906550517944"><ele>885.5</ele><time>2026-05-03T10:42:28.962Z</time></trkpt><trkpt lat="46.144317434541634" lon="10.96920343959508"><ele>881.0</ele><time>2026-05-03T10:42:29.962Z</time></trkpt><trkpt lat="46.14440607870969" lon="10.969342097764683"><ele>876.5</ele><time>2026-05-03T10:42:30.962Z</time></trkpt><trkpt lat="46.14450125925581" lon="10.969489143838445"><ele>872.0</ele><time>2026-05-03T10:42:31.962Z</time></trkpt><trkpt lat="46.14459850264746" lon="10.969636639554288"><ele>872.0</ele><time>2026-05-03T10:42:32.962Z</time></trkpt><trkpt lat="46.144712472789266" lon="10.969774503909118"><ele>872.0</ele><time>2026-05-03T10:42:33.962Z</time></trkpt><trkpt lat="46.14481856164498" lon="10.969929431143445"><ele>872.0</ele><time>2026-05-03T10:42:34.962Z</time></trkpt><trkpt lat="46.14493090387623" lon="10.970093227869311"><ele>877.75</ele><time>2026-05-03T10:42:35.962Z</time></trkpt><trkpt lat="46.1450370685003" lon="10.97024706517984"><ele>883.5</ele><time>2026-05-03T10:42:36.962Z</time></trkpt><trkpt lat="46.14513472841806" lon="10.970390626735815"><ele>889.25</ele><time>2026-05-03T10:42:37.962Z</time></trkpt><trkpt lat="46.14523654149565" lon="10.970537122800511"><ele>895.0</ele><time>2026-05-03T10:42:38.962Z</time></trkpt><trkpt lat="46.14534257484155" lon="10.970687287140594"><ele>895.0</ele><time>2026-05-03T10:42:39.963Z</time></trkpt><trkpt lat="46.14544713985544" lon="10.970840352958309"><ele>895.0</ele><time>2026-05-03T10:42:40.963Z</time></trkpt><trkpt lat="46.14555685627559" lon="10.970996112032674"><ele>895.0</ele><time>2026-05-03T10:42:41.962Z</time></trkpt><trkpt lat="46.14566806186179" lon="10.971159703891447"><ele>899.3333333333333</ele><time>2026-05-03T10:42:42.962Z</time></trkpt><trkpt lat="46.14577136982482" lon="10.971331894037545"><ele>903.6666666666667</ele><time>2026-05-03T10:42:43.962Z</time></trkpt><trkpt lat="46.145883135326535" lon="10.971493209627564"><ele>908.0</ele><time>2026-05-03T10:42:44.963Z</time></trkpt><trkpt lat="46.14597239266638" lon="10.971642189504614"><ele>908.75</ele><time>2026-05-03T10:42:45.962Z</time></trkpt><trkpt lat="46.146036250300135" lon="10.97178362652214"><ele>909.5</ele><time>2026-05-03T10:42:46.962Z</time></trkpt><trkpt lat="46.14607592381816" lon="10.97193891802702"><ele>910.25</ele><time>2026-05-03T10:42:47.963Z</time></trkpt><trkpt lat="46.14607726903715" lon="10.972112590196264"><ele>911.0</ele><time>2026-05-03T10:42:48.962Z</time></trkpt><trkpt lat="46.14606870132259" lon="10.97229872456233"><ele>911.0</ele><time>2026-05-03T10:42:49.962Z</time></trkpt><trkpt lat="46.1460267693077" lon="10.972476655430667"><ele>911.0</ele><time>2026-05-03T10:42:50.963Z</time></trkpt><trkpt lat="46.14595136458501" lon="10.972661030779419"><ele>911.0</ele><time>2026-05-03T10:42:51.963Z</time></trkpt><trkpt lat="46.14586310132848" lon="10.972868562095483"><ele>911.0</ele><time>2026-05-03T10:42:52.962Z</time></trkpt><trkpt lat="46.14577083891896" lon="10.97308551513013"><ele>907.0</ele><time>2026-05-03T10:42:53.962Z</time></trkpt><trkpt lat="46.14568204125468" lon="10.97330537348102"><ele>903.0</ele><time>2026-05-03T10:42:54.962Z</time></trkpt><trkpt lat="46.14561992475421" lon="10.973530023309957"><ele>899.0</ele><time>2026-05-03T10:42:55.962Z</time></trkpt><trkpt lat="46.145593750519474" lon="10.973770439510345"><ele>899.0</ele><time>2026-05-03T10:42:56.962Z</time></trkpt><trkpt lat="46.14560335500846" lon="10.974008344907556"><ele>899.0</ele><time>2026-05-03T10:42:57.962Z</time></trkpt><trkpt lat="46.14565501413017" lon="10.974260737355262"><ele>899.0</ele><time>2026-05-03T10:42:58.962Z</time></trkpt><trkpt lat="46.145758205290996" lon="10.974473379668545"><ele>909.0</ele><time>2026-05-03T10:42:59.962Z</time></trkpt><trkpt lat="46.14588509635702" lon="10.974682382801372"><ele>919.0</ele><time>2026-05-03T10:43:00.962Z</time></trkpt><trkpt lat="46.1460523753208" lon="10.974840297091523"><ele>929.0</ele><time>2026-05-03T10:43:01.962Z</time></trkpt><trkpt lat="46.14624292175228" lon="10.975010144864566"><ele>927.0</ele><time>2026-05-03T10:43:02.962Z</time></trkpt><trkpt lat="46.14642666002347" lon="10.975185216009457"><ele>925.0</ele><time>2026-05-03T10:43:03.962Z</time></trkpt><trkpt lat="46.146596916259156" lon="10.975378624686522"><ele>923.0</ele><time>2026-05-03T10:43:04.962Z</time></trkpt><trkpt lat="46.14678136310992" lon="10.975560435865004"><ele>929.6666666666667</ele><time>2026-05-03T10:43:05.962Z</time></trkpt><trkpt lat="46.146962972982905" lon="10.97574120026416"><ele>936.3333333333333</ele><time>2026-05-03T10:43:06.962Z</time></trkpt><trkpt lat="46.14712765619474" lon="10.975925366654646"><ele>943.0</ele><time>2026-05-03T10:43:07.962Z</time></trkpt><trkpt lat="46.147293826879626" lon="10.976126745974494"><ele>949.0</ele><time>2026-05-03T10:43:08.962Z</time></trkpt><trkpt lat="46.14747315139127" lon="10.976315383318866"><ele>955.0</ele><time>2026-05-03T10:43:09.962Z</time></trkpt><trkpt lat="46.14766217920318" lon="10.976505329518087"><ele>955.0</ele><time>2026-05-03T10:43:10.962Z</time></trkpt><trkpt lat="46.14787733456728" lon="10.976638869136456"><ele>955.0</ele><time>2026-05-03T10:43:11.962Z</time></trkpt><trkpt lat="46.14808062960594" lon="10.976764584268729"><ele>959.5</ele><time>2026-05-03T10:43:12.962Z</time></trkpt><trkpt lat="46.148300725115085" lon="10.97689311846056"><ele>964.0</ele><time>2026-05-03T10:43:13.962Z</time></trkpt><trkpt lat="46.14851716288208" lon="10.977013385200614"><ele>964.0</ele><time>2026-05-03T10:43:14.962Z</time></trkpt><trkpt lat="46.148711423915316" lon="10.977140794880828"><ele>964.0</ele><time>2026-05-03T10:43:15.962Z</time></trkpt><trkpt lat="46.1488968525952" lon="10.977299292189203"><ele>964.0</ele><time>2026-05-03T10:43:16.962Z</time></trkpt><trkpt lat="46.14908319925745" lon="10.97745780532295"><ele>964.0</ele><time>2026-05-03T10:43:17.962Z</time></trkpt><trkpt lat="46.14927250606696" lon="10.977643782267268"><ele>964.0</ele><time>2026-05-03T10:43:18.962Z</time></trkpt><trkpt lat="46.149454264015695" lon="10.97784602624915"><ele>964.0</ele><time>2026-05-03T10:43:19.962Z</time></trkpt><trkpt lat="46.14962366873946" lon="10.978066757797729"><ele>964.0</ele><time>2026-05-03T10:43:20.962Z</time></trkpt><trkpt lat="46.14978306519748" lon="10.978303267811285"><ele>969.5</ele><time>2026-05-03T10:43:21.962Z</time></trkpt><trkpt lat="46.14993982223381" lon="10.97855267471946"><ele>975.0</ele><time>2026-05-03T10:43:22.962Z</time></trkpt><trkpt lat="46.15008629643648" lon="10.978788173712204"><ele>975.0</ele><time>2026-05-03T10:43:23.962Z</time></trkpt><trkpt lat="46.150222120089076" lon="10.979006539675408"><ele>975.0</ele><time>2026-05-03T10:43:24.962Z</time></trkpt><trkpt lat="46.15034405125678" lon="10.979202570993257"><ele>975.0</ele><time>2026-05-03T10:43:25.962Z</time></trkpt><trkpt lat="46.1504574876803" lon="10.979384143815341"><ele>976.2</ele><time>2026-05-03T10:43:26.962Z</time></trkpt><trkpt lat="46.15055847036336" lon="10.979539902253581"><ele>977.4</ele><time>2026-05-03T10:43:27.962Z</time></trkpt><trkpt lat="46.15064720209056" lon="10.97966175880595"><ele>978.5999999999999</ele><time>2026-05-03T10:43:28.962Z</time></trkpt><trkpt lat="46.150711972889006" lon="10.979750362273093"><ele>979.8</ele><time>2026-05-03T10:43:29.962Z</time></trkpt><trkpt lat="46.15077013734808" lon="10.979831116386446"><ele>981.0</ele><time>2026-05-03T10:43:30.962Z</time></trkpt><trkpt lat="46.15080277063828" lon="10.97995425687859"><ele>982.5999999999999</ele><time>2026-05-03T10:43:31.962Z</time></trkpt><trkpt lat="46.15084115588732" lon="10.980077890400088"><ele>984.1999999999999</ele><time>2026-05-03T10:43:32.962Z</time></trkpt><trkpt lat="46.15091267707827" lon="10.98017443706035"><ele>985.8000000000001</ele><time>2026-05-03T10:43:33.962Z</time></trkpt><trkpt lat="46.15101858981138" lon="10.980244523144927"><ele>987.4000000000001</ele><time>2026-05-03T10:43:34.962Z</time></trkpt><trkpt lat="46.15111098691203" lon="10.980356173505843"><ele>989.0</ele><time>2026-05-03T10:43:35.962Z</time></trkpt><trkpt lat="46.151196246419794" lon="10.980525809229462"><ele>989.0</ele><time>2026-05-03T10:43:36.962Z</time></trkpt><trkpt lat="46.151298745911085" lon="10.980720612185769"><ele>989.0</ele><time>2026-05-03T10:43:37.962Z</time></trkpt><trkpt lat="46.15141286129264" lon="10.980893545967037"><ele>989.0</ele><time>2026-05-03T10:43:38.962Z</time></trkpt><trkpt lat="46.15152623161181" lon="10.98108635017932"><ele>992.0</ele><time>2026-05-03T10:43:39.962Z</time></trkpt><trkpt lat="46.15165872238447" lon="10.98129499295532"><ele>995.0</ele><time>2026-05-03T10:43:40.962Z</time></trkpt><trkpt lat="46.1517853154269" lon="10.981507713188597"><ele>998.0</ele><time>2026-05-03T10:43:41.962Z</time></trkpt><trkpt lat="46.15191347579962" lon="10.981732362759113"><ele>998.0</ele><time>2026-05-03T10:43:42.962Z</time></trkpt><trkpt lat="46.15206575606599" lon="10.981951317948193"><ele>998.0</ele><time>2026-05-03T10:43:43.962Z</time></trkpt><trkpt lat="46.15222428007804" lon="10.982129052031311"><ele>998.0</ele><time>2026-05-03T10:43:44.962Z</time></trkpt><trkpt lat="46.152377011678375" lon="10.982298414048447"><ele>1000.3333333333334</ele><time>2026-05-03T10:43:45.962Z</time></trkpt><trkpt lat="46.15250989500006" lon="10.982484871130968"><ele>1002.6666666666667</ele><time>2026-05-03T10:43:46.962Z</time></trkpt><trkpt lat="46.15263395320525" lon="10.982643239011704"><ele>1005.0</ele><time>2026-05-03T10:43:47.962Z</time></trkpt><trkpt lat="46.15271763754849" lon="10.982796228003464"><ele>1005.0</ele><time>2026-05-03T10:43:48.962Z</time></trkpt><trkpt lat="46.152783589567235" lon="10.982985251425015"><ele>1005.0</ele><time>2026-05-03T10:43:49.962Z</time></trkpt><trkpt lat="46.1528315396239" lon="10.983228589715138"><ele>1005.0</ele><time>2026-05-03T10:43:50.962Z</time></trkpt><trkpt lat="46.15285980272436" lon="10.983484283712864"><ele>1005.3333333333333</ele><time>2026-05-03T10:43:51.962Z</time></trkpt><trkpt lat="46.152852299132" lon="10.983718810720184"><ele>1005.6666666666666</ele><time>2026-05-03T10:43:52.962Z</time></trkpt><trkpt lat="46.152804411842965" lon="10.983923354447935"><ele>1006.0</ele><time>2026-05-03T10:43:53.962Z</time></trkpt><trkpt lat="46.152710184935295" lon="10.984119098976626"><ele>1008.0</ele><time>2026-05-03T10:43:54.962Z</time></trkpt><trkpt lat="46.15259128267756" lon="10.984306538470692"><ele>1010.0</ele><time>2026-05-03T10:43:55.962Z</time></trkpt><trkpt lat="46.15251119197578" lon="10.984513736951573"><ele>1012.0</ele><time>2026-05-03T10:43:56.962Z</time></trkpt><trkpt lat="46.15248834982967" lon="10.984759419526734"><ele>1011.0</ele><time>2026-05-03T10:43:57.962Z</time></trkpt><trkpt lat="46.15252720334801" lon="10.98502573000414"><ele>1010.0</ele><time>2026-05-03T10:43:58.962Z</time></trkpt><trkpt lat="46.15255657939928" lon="10.985292408736541"><ele>1009.0</ele><time>2026-05-03T10:43:59.962Z</time></trkpt><trkpt lat="46.15260774853039" lon="10.985563151783422"><ele>1009.0</ele><time>2026-05-03T10:44:00.962Z</time></trkpt><trkpt lat="46.152655828645734" lon="10.985841621083459"><ele>1009.0</ele><time>2026-05-03T10:44:01.962Z</time></trkpt><trkpt lat="46.152728057387655" lon="10.986115504438233"><ele>1009.0</ele><time>2026-05-03T10:44:02.962Z</time></trkpt><trkpt lat="46.15283792067744" lon="10.986380584765117"><ele>1005.3333333333333</ele><time>2026-05-03T10:44:03.962Z</time></trkpt><trkpt lat="46.15294972744866" lon="10.986636933944995"><ele>1001.6666666666667</ele><time>2026-05-03T10:44:04.962Z</time></trkpt><trkpt lat="46.15305486579896" lon="10.98688259992965"><ele>998.0</ele><time>2026-05-03T10:44:05.962Z</time></trkpt><trkpt lat="46.153164836202784" lon="10.987100896667592"><ele>994.6666666666667</ele><time>2026-05-03T10:44:06.962Z</time></trkpt><trkpt lat="46.153284151986966" lon="10.98731999065422"><ele>991.3333333333333</ele><time>2026-05-03T10:44:07.962Z</time></trkpt><trkpt lat="46.153414312922514" lon="10.98753400244478"><ele>988.0</ele><time>2026-05-03T10:44:08.962Z</time></trkpt><trkpt lat="46.153559781410884" lon="10.987728891230695"><ele>988.0</ele><time>2026-05-03T10:44:09.962Z</time></trkpt><trkpt lat="46.153704109961645" lon="10.987914016009954"><ele>988.0</ele><time>2026-05-03T10:44:10.962Z</time></trkpt><trkpt lat="46.153848086129045" lon="10.988088091085448"><ele>988.0</ele><time>2026-05-03T10:44:11.962Z</time></trkpt><trkpt lat="46.15400403802125" lon="10.988229611567657"><ele>989.0</ele><time>2026-05-03T10:44:12.962Z</time></trkpt><trkpt lat="46.154173760206874" lon="10.988328746435823"><ele>990.0</ele><time>2026-05-03T10:44:13.962Z</time></trkpt><trkpt lat="46.15433809824578" lon="10.988431884597086"><ele>991.0</ele><time>2026-05-03T10:44:14.962Z</time></trkpt><trkpt lat="46.154509465265534" lon="10.98855322281411"><ele>991.0</ele><time>2026-05-03T10:44:15.962Z</time></trkpt><trkpt lat="46.15463775232213" lon="10.988741644183444"><ele>991.0</ele><time>2026-05-03T10:44:16.962Z</time></trkpt><trkpt lat="46.15473835516713" lon="10.9889649082208"><ele>991.0</ele><time>2026-05-03T10:44:17.962Z</time></trkpt><trkpt lat="46.154846347069125" lon="10.989200272733559"><ele>994.6666666666666</ele><time>2026-05-03T10:44:18.962Z</time></trkpt><trkpt lat="46.154929919125216" lon="10.989443336026483"><ele>998.3333333333333</ele><time>2026-05-03T10:44:19.962Z</time></trkpt><trkpt lat="46.15500826208364" lon="10.989679258982587"><ele>1002.0</ele><time>2026-05-03T10:44:20.962Z</time></trkpt><trkpt lat="46.15509069341857" lon="10.989935962812767"><ele>1001.0</ele><time>2026-05-03T10:44:21.962Z</time></trkpt><trkpt lat="46.15517836427984" lon="10.990188851413494"><ele>1000.0</ele><time>2026-05-03T10:44:22.962Z</time></trkpt><trkpt lat="46.15524643048603" lon="10.990473995114515"><ele>999.0</ele><time>2026-05-03T10:44:23.962Z</time></trkpt><trkpt lat="46.15528404470147" lon="10.990776965518231"><ele>999.3333333333333</ele><time>2026-05-03T10:44:24.962Z</time></trkpt><trkpt lat="46.155307870400435" lon="10.991055616966182"><ele>999.6666666666666</ele><time>2026-05-03T10:44:25.962Z</time></trkpt><trkpt lat="46.1553410978949" lon="10.991294931373167"><ele>1000.0</ele><time>2026-05-03T10:44:26.962Z</time></trkpt><trkpt lat="46.15537286144642" lon="10.991526821093492"><ele>1001.6666666666666</ele><time>2026-05-03T10:44:27.962Z</time></trkpt><trkpt lat="46.15544176742792" lon="10.991743980019418"><ele>1003.3333333333333</ele><time>2026-05-03T10:44:28.962Z</time></trkpt><trkpt lat="46.155550224948676" lon="10.991943434830372"><ele>1005.0</ele><time>2026-05-03T10:44:29.962Z</time></trkpt><trkpt lat="46.15568553855691" lon="10.992184691180473"><ele>1002.0</ele><time>2026-05-03T10:44:30.962Z</time></trkpt><trkpt lat="46.15584686828747" lon="10.992434689222398"><ele>999.0</ele><time>2026-05-03T10:44:31.962Z</time></trkpt><trkpt lat="46.15598549060879" lon="10.992675079940918"><ele>997.0</ele><time>2026-05-03T10:44:32.962Z</time></trkpt><trkpt lat="46.15611168724546" lon="10.992916244505126"><ele>995.0</ele><time>2026-05-03T10:44:33.962Z</time></trkpt><trkpt lat="46.156230678867125" lon="10.99316988872119"><ele>993.0</ele><time>2026-05-03T10:44:34.962Z</time></trkpt><trkpt lat="46.15632107659393" lon="10.993443483209418"><ele>992.6666666666667</ele><time>2026-05-03T10:44:35.962Z</time></trkpt><trkpt lat="46.156393033040885" lon="10.993735899495654"><ele>992.3333333333334</ele><time>2026-05-03T10:44:36.962Z</time></trkpt><trkpt lat="46.156449736832705" lon="10.9940339500639"><ele>992.0</ele><time>2026-05-03T10:44:37.962Z</time></trkpt><trkpt lat="46.156504678593386" lon="10.994348419336935"><ele>994.0</ele><time>2026-05-03T10:44:38.962Z</time></trkpt><trkpt lat="46.15656120195856" lon="10.994643574257626"><ele>996.0</ele><time>2026-05-03T10:44:39.962Z</time></trkpt><trkpt lat="46.15661636057807" lon="10.994917728483856"><ele>998.0</ele><time>2026-05-03T10:44:40.962Z</time></trkpt><trkpt lat="46.15666095503093" lon="10.995162532113012"><ele>998.0</ele><time>2026-05-03T10:44:41.962Z</time></trkpt><trkpt lat="46.1567383829419" lon="10.995366251926397"><ele>998.0</ele><time>2026-05-03T10:44:42.962Z</time></trkpt><trkpt lat="46.156840549550374" lon="10.995548501573367"><ele>998.0</ele><time>2026-05-03T10:44:43.962Z</time></trkpt><trkpt lat="46.15697025854952" lon="10.995711444798342"><ele>998.0</ele><time>2026-05-03T10:44:44.962Z</time></trkpt><trkpt lat="46.157126127469276" lon="10.995835978841274"><ele>998.0</ele><time>2026-05-03T10:44:45.963Z</time></trkpt><trkpt lat="46.15730698737053" lon="10.995915391858723"><ele>998.0</ele><time>2026-05-03T10:44:46.963Z</time></trkpt><trkpt lat="46.15750281968547" lon="10.995966945561916"><ele>1000.3333333333334</ele><time>2026-05-03T10:44:47.962Z</time></trkpt><trkpt lat="46.15771781422196" lon="10.996025504917585"><ele>1002.6666666666667</ele><time>2026-05-03T10:44:48.962Z</time></trkpt><trkpt lat="46.15794053678365" lon="10.996111099341825"><ele>1005.0</ele><time>2026-05-03T10:44:49.962Z</time></trkpt><trkpt lat="46.15813202111702" lon="10.996243301076664"><ele>1004.6666666666667</ele><time>2026-05-03T10:44:50.962Z</time></trkpt><trkpt lat="46.15832423375511" lon="10.996350788822049"><ele>1004.3333333333334</ele><time>2026-05-03T10:44:51.962Z</time></trkpt><trkpt lat="46.158540080194136" lon="10.996385649191224"><ele>1004.0</ele><time>2026-05-03T10:44:52.962Z</time></trkpt><trkpt lat="46.15877417224427" lon="10.996401976030711"><ele>1004.0</ele><time>2026-05-03T10:44:53.962Z</time></trkpt><trkpt lat="46.15899287964182" lon="10.996427795815404"><ele>1004.0</ele><time>2026-05-03T10:44:54.962Z</time></trkpt><trkpt lat="46.15920057146865" lon="10.996480473411655"><ele>1004.0</ele><time>2026-05-03T10:44:55.962Z</time></trkpt><trkpt lat="46.159391563823334" lon="10.996579728107328"><ele>1002.6666666666667</ele><time>2026-05-03T10:44:56.962Z</time></trkpt><trkpt lat="46.159584991746016" lon="10.996696433399595"><ele>1001.3333333333333</ele><time>2026-05-03T10:44:57.962Z</time></trkpt><trkpt lat="46.15976428962343" lon="10.996824632499184"><ele>1000.0</ele><time>2026-05-03T10:44:58.962Z</time></trkpt><trkpt lat="46.15993309271054" lon="10.9969501482196"><ele>1004.0</ele><time>2026-05-03T10:44:59.962Z</time></trkpt><trkpt lat="46.16008285733163" lon="10.997048692804128"><ele>1008.0</ele><time>2026-05-03T10:45:00.962Z</time></trkpt><trkpt lat="46.16025784747296" lon="10.997145477746455"><ele>1012.0</ele><time>2026-05-03T10:45:01.962Z</time></trkpt><trkpt lat="46.16042844317949" lon="10.99723867477317"><ele>1012.0</ele><time>2026-05-03T10:45:02.962Z</time></trkpt><trkpt lat="46.16057582469775" lon="10.997330184526232"><ele>1012.0</ele><time>2026-05-03T10:45:03.962Z</time></trkpt><trkpt lat="46.1607042474086" lon="10.997418590641896"><ele>1012.0</ele><time>2026-05-03T10:45:04.962Z</time></trkpt><trkpt lat="46.160824017935866" lon="10.997520819377042"><ele>1012.0</ele><time>2026-05-03T10:45:05.962Z</time></trkpt><trkpt lat="46.16091691386846" lon="10.99763977913994"><ele>1014.4000000000001</ele><time>2026-05-03T10:45:06.962Z</time></trkpt><trkpt lat="46.160989310945496" lon="10.997748474830424"><ele>1016.8000000000001</ele><time>2026-05-03T10:45:07.962Z</time></trkpt><trkpt lat="46.16104703040386" lon="10.997865294633476"><ele>1019.2</ele><time>2026-05-03T10:45:08.962Z</time></trkpt><trkpt lat="46.16108551613589" lon="10.9980010992882"><ele>1021.6</ele><time>2026-05-03T10:45:09.962Z</time></trkpt><trkpt lat="46.16114582571395" lon="10.998144144159824"><ele>1024.0</ele><time>2026-05-03T10:45:10.962Z</time></trkpt><trkpt lat="46.161202541771715" lon="10.998302937651122"><ele>1025.25</ele><time>2026-05-03T10:45:11.962Z</time></trkpt><trkpt lat="46.16126720915556" lon="10.99847348620636"><ele>1026.5</ele><time>2026-05-03T10:45:12.962Z</time></trkpt><trkpt lat="46.161340943877654" lon="10.998651848919073"><ele>1027.75</ele><time>2026-05-03T10:45:13.962Z</time></trkpt><trkpt lat="46.16142963573631" lon="10.998840656337526"><ele>1029.0</ele><time>2026-05-03T10:45:14.962Z</time></trkpt><trkpt lat="46.161534625960755" lon="10.999038867854024"><ele>1026.6666666666667</ele><time>2026-05-03T10:45:15.962Z</time></trkpt><trkpt lat="46.16165505563805" lon="10.999233606061512"><ele>1024.3333333333335</ele><time>2026-05-03T10:45:16.962Z</time></trkpt><trkpt lat="46.1617903129458" lon="10.999424883076928"><ele>1022.0</ele><time>2026-05-03T10:45:17.962Z</time></trkpt><trkpt lat="46.16192564391405" lon="10.999598221149727"><ele>1022.0</ele><time>2026-05-03T10:45:18.962Z</time></trkpt><trkpt lat="46.16206550918826" lon="10.99974904472199"><ele>1022.0</ele><time>2026-05-03T10:45:19.962Z</time></trkpt><trkpt lat="46.162208602243325" lon="10.999875994064304"><ele>1022.0</ele><time>2026-05-03T10:45:20.962Z</time></trkpt><trkpt lat="46.16236983922959" lon="11.000000764891947"><ele>1020.3333333333334</ele><time>2026-05-03T10:45:21.962Z</time></trkpt><trkpt lat="46.16253290804278" lon="11.00009802067267"><ele>1018.6666666666667</ele><time>2026-05-03T10:45:22.962Z</time></trkpt><trkpt lat="46.16269292535788" lon="11.000179220918252"><ele>1017.0</ele><time>2026-05-03T10:45:23.962Z</time></trkpt><trkpt lat="46.16284242244739" lon="11.000261206068004"><ele>1017.0</ele><time>2026-05-03T10:45:24.962Z</time></trkpt><trkpt lat="46.16297485510118" lon="11.000350110667148"><ele>1017.0</ele><time>2026-05-03T10:45:25.962Z</time></trkpt><trkpt lat="46.16309393122622" lon="11.00045529847777"><ele>1017.0</ele><time>2026-05-03T10:45:26.962Z</time></trkpt><trkpt lat="46.163190750692465" lon="11.000579130563361"><ele>1017.0</ele><time>2026-05-03T10:45:27.962Z</time></trkpt><trkpt lat="46.16328310828579" lon="11.00071226535484"><ele>1019.75</ele><time>2026-05-03T10:45:28.962Z</time></trkpt><trkpt lat="46.16337207318454" lon="11.000857204073393"><ele>1022.5</ele><time>2026-05-03T10:45:29.962Z</time></trkpt><trkpt lat="46.163452912717595" lon="11.001026343607933"><ele>1025.25</ele><time>2026-05-03T10:45:30.962Z</time></trkpt><trkpt lat="46.1635129600068" lon="11.001213679005925"><ele>1028.0</ele><time>2026-05-03T10:45:31.962Z</time></trkpt><trkpt lat="46.16357625070084" lon="11.001393280884601"><ele>1028.0</ele><time>2026-05-03T10:45:32.962Z</time></trkpt><trkpt lat="46.16363897260389" lon="11.001564946559453"><ele>1028.0</ele><time>2026-05-03T10:45:33.962Z</time></trkpt><trkpt lat="46.16370113148257" lon="11.0017267986119"><ele>1028.0</ele><time>2026-05-03T10:45:34.962Z</time></trkpt><trkpt lat="46.16376084128335" lon="11.001876040645747"><ele>1028.0</ele><time>2026-05-03T10:45:35.962Z</time></trkpt><trkpt lat="46.163816201541906" lon="11.002010700701252"><ele>1028.25</ele><time>2026-05-03T10:45:36.962Z</time></trkpt><trkpt lat="46.16388071841003" lon="11.002151912790474"><ele>1028.5</ele><time>2026-05-03T10:45:37.962Z</time></trkpt><trkpt lat="46.16395022167105" lon="11.002300046914087"><ele>1028.75</ele><time>2026-05-03T10:45:38.962Z</time></trkpt><trkpt lat="46.16403770117678" lon="11.002423163300314"><ele>1029.0</ele><time>2026-05-03T10:45:39.962Z</time></trkpt><trkpt lat="46.16412597745968" lon="11.002564383409014"><ele>1027.25</ele><time>2026-05-03T10:45:40.962Z</time></trkpt><trkpt lat="46.164228811271876" lon="11.002696793366146"><ele>1025.5</ele><time>2026-05-03T10:45:41.962Z</time></trkpt><trkpt lat="46.1643284159263" lon="11.002824655419948"><ele>1023.75</ele><time>2026-05-03T10:45:42.962Z</time></trkpt><trkpt lat="46.164432308324734" lon="11.00293831281634"><ele>1022.0</ele><time>2026-05-03T10:45:43.962Z</time></trkpt><trkpt lat="46.164519185055276" lon="11.0030702486845"><ele>1022.0</ele><time>2026-05-03T10:45:44.962Z</time></trkpt><trkpt lat="46.164616319575885" lon="11.003171755727498"><ele>1022.0</ele><time>2026-05-03T10:45:45.962Z</time></trkpt><trkpt lat="46.16471186054174" lon="11.003251698663993"><ele>1022.0</ele><time>2026-05-03T10:45:46.962Z</time></trkpt><trkpt lat="46.16481995720328" lon="11.003286185385436"><ele>1022.0</ele><time>2026-05-03T10:45:47.962Z</time></trkpt><trkpt lat="46.164923899332514" lon="11.00332248620711"><ele>1022.0</ele><time>2026-05-03T10:45:48.962Z</time></trkpt><trkpt lat="46.165042696697945" lon="11.003317918775931"><ele>1022.5</ele><time>2026-05-03T10:45:49.962Z</time></trkpt><trkpt lat="46.16518060288662" lon="11.003270721974694"><ele>1023.0</ele><time>2026-05-03T10:45:50.962Z</time></trkpt><trkpt lat="46.16532094911383" lon="11.003239056553497"><ele>1023.5</ele><time>2026-05-03T10:45:51.962Z</time></trkpt><trkpt lat="46.16545416433905" lon="11.003212184710923"><ele>1024.0</ele><time>2026-05-03T10:45:52.962Z</time></trkpt><trkpt lat="46.16556928468452" lon="11.003190153875195"><ele>1024.0</ele><time>2026-05-03T10:45:53.962Z</time></trkpt><trkpt lat="46.16568505614394" lon="11.00316301374015"><ele>1024.0</ele><time>2026-05-03T10:45:54.962Z</time></trkpt><trkpt lat="46.165796087572495" lon="11.003147120936207"><ele>1024.0</ele><time>2026-05-03T10:45:55.962Z</time></trkpt><trkpt lat="46.16590655899897" lon="11.003164190651132"><ele>1024.0</ele><time>2026-05-03T10:45:56.962Z</time></trkpt><trkpt lat="46.166015481857094" lon="11.003198517220495"><ele>1022.75</ele><time>2026-05-03T10:45:57.962Z</time></trkpt><trkpt lat="46.16612649333033" lon="11.003252993695897"><ele>1021.5</ele><time>2026-05-03T10:45:58.962Z</time></trkpt><trkpt lat="46.16623344612853" lon="11.003327805059943"><ele>1020.25</ele><time>2026-05-03T10:45:59.962Z</time></trkpt><trkpt lat="46.16634996643792" lon="11.003393044084042"><ele>1019.0</ele><time>2026-05-03T10:46:00.962Z</time></trkpt><trkpt lat="46.1664641947908" lon="11.003487001547883"><ele>1018.0</ele><time>2026-05-03T10:46:01.962Z</time></trkpt><trkpt lat="46.166579586799735" lon="11.00358118784868"><ele>1017.0</ele><time>2026-05-03T10:46:02.962Z</time></trkpt><trkpt lat="46.166695798649364" lon="11.003674173160695"><ele>1016.0</ele><time>2026-05-03T10:46:03.962Z</time></trkpt><trkpt lat="46.16680006904477" lon="11.00377641522621"><ele>1015.0</ele><time>2026-05-03T10:46:04.962Z</time></trkpt><trkpt lat="46.16693123988096" lon="11.003854462333056"><ele>1015.0</ele><time>2026-05-03T10:46:05.962Z</time></trkpt><trkpt lat="46.167053757158364" lon="11.003956608103863"><ele>1015.0</ele><time>2026-05-03T10:46:06.962Z</time></trkpt><trkpt lat="46.16717996060162" lon="11.004064335953501"><ele>1015.0</ele><time>2026-05-03T10:46:07.962Z</time></trkpt><trkpt lat="46.167305703371284" lon="11.004184119636655"><ele>1015.0</ele><time>2026-05-03T10:46:08.962Z</time></trkpt><trkpt lat="46.167431534442414" lon="11.004312549756117"><ele>1014.3333333333333</ele><time>2026-05-03T10:46:09.962Z</time></trkpt><trkpt lat="46.167563536140136" lon="11.004442415403116"><ele>1013.6666666666667</ele><time>2026-05-03T10:46:10.962Z</time></trkpt><trkpt lat="46.167698623312205" lon="11.004576068550994"><ele>1013.0</ele><time>2026-05-03T10:46:11.962Z</time></trkpt><trkpt lat="46.16782827854602" lon="11.00473332148658"><ele>1013.0</ele><time>2026-05-03T10:46:12.962Z</time></trkpt><trkpt lat="46.167971239343615" lon="11.00487407624399"><ele>1013.0</ele><time>2026-05-03T10:46:13.962Z</time></trkpt><trkpt lat="46.1681214513602" lon="11.005022414665481"><ele>1013.0</ele><time>2026-05-03T10:46:14.962Z</time></trkpt><trkpt lat="46.168277430393616" lon="11.00517839367632"><ele>1011.6666666666667</ele><time>2026-05-03T10:46:15.962Z</time></trkpt><trkpt lat="46.168446315346834" lon="11.005324724867476"><ele>1010.3333333333333</ele><time>2026-05-03T10:46:16.962Z</time></trkpt><trkpt lat="46.16860756290589" lon="11.00550282411174"><ele>1009.0</ele><time>2026-05-03T10:46:17.962Z</time></trkpt><trkpt lat="46.16878502893446" lon="11.005679366442115"><ele>1012.3333333333333</ele><time>2026-05-03T10:46:18.962Z</time></trkpt><trkpt lat="46.16896782992836" lon="11.005851193275376"><ele>1015.6666666666667</ele><time>2026-05-03T10:46:19.962Z</time></trkpt><trkpt lat="46.169141823798476" lon="11.006007481228126"><ele>1019.0</ele><time>2026-05-03T10:46:20.962Z</time></trkpt><trkpt lat="46.16931116477504" lon="11.006169600675493"><ele>1019.0</ele><time>2026-05-03T10:46:21.962Z</time></trkpt><trkpt lat="46.169486541738806" lon="11.006342412051094"><ele>1019.0</ele><time>2026-05-03T10:46:22.962Z</time></trkpt><trkpt lat="46.16964755057901" lon="11.006522763305139"><ele>1019.0</ele><time>2026-05-03T10:46:23.962Z</time></trkpt><trkpt lat="46.16980845976274" lon="11.006688990474938"><ele>1019.6666666666667</ele><time>2026-05-03T10:46:24.962Z</time></trkpt><trkpt lat="46.1699698379665" lon="11.006855702273507"><ele>1020.3333333333333</ele><time>2026-05-03T10:46:25.962Z</time></trkpt><trkpt lat="46.170131220441334" lon="11.0070211121183"><ele>1021.0</ele><time>2026-05-03T10:46:26.962Z</time></trkpt><trkpt lat="46.170297485927364" lon="11.007187721311183"><ele>1021.0</ele><time>2026-05-03T10:46:27.962Z</time></trkpt><trkpt lat="46.170466281940456" lon="11.00735578364685"><ele>1021.0</ele><time>2026-05-03T10:46:28.962Z</time></trkpt><trkpt lat="46.1706349661922" lon="11.00752320618381"><ele>1021.0</ele><time>2026-05-03T10:46:29.962Z</time></trkpt><trkpt lat="46.170802230074095" lon="11.007689195602879"><ele>1020.6666666666666</ele><time>2026-05-03T10:46:30.961Z</time></trkpt><trkpt lat="46.17096745158256" lon="11.007854582539649"><ele>1020.3333333333333</ele><time>2026-05-03T10:46:31.961Z</time></trkpt><trkpt lat="46.17114316266401" lon="11.008012646142785"><ele>1020.0</ele><time>2026-05-03T10:46:32.961Z</time></trkpt><trkpt lat="46.17132850870559" lon="11.008124477863367"><ele>1020.0</ele><time>2026-05-03T10:46:33.961Z</time></trkpt><trkpt lat="46.171503195588315" lon="11.008259019840995"><ele>1020.0</ele><time>2026-05-03T10:46:34.961Z</time></trkpt><trkpt lat="46.17168787366926" lon="11.008384388070315"><ele>1020.0</ele><time>2026-05-03T10:46:35.961Z</time></trkpt><trkpt lat="46.17186493283392" lon="11.008499524635045"><ele>1021.6666666666667</ele><time>2026-05-03T10:46:36.961Z</time></trkpt><trkpt lat="46.17203911704131" lon="11.008615936187441"><ele>1023.3333333333334</ele><time>2026-05-03T10:46:37.961Z</time></trkpt><trkpt lat="46.17220664641914" lon="11.008728879726963"><ele>1025.0</ele><time>2026-05-03T10:46:38.961Z</time></trkpt><trkpt lat="46.17236303895812" lon="11.008847978122594"><ele>1025.0</ele><time>2026-05-03T10:46:39.961Z</time></trkpt><trkpt lat="46.17251102684313" lon="11.008987978938462"><ele>1025.0</ele><time>2026-05-03T10:46:40.961Z</time></trkpt><trkpt lat="46.1726519319024" lon="11.009161449919707"><ele>1025.0</ele><time>2026-05-03T10:46:41.961Z</time></trkpt><trkpt lat="46.17275849019381" lon="11.009391945195134"><ele>1026.0</ele><time>2026-05-03T10:46:42.961Z</time></trkpt><trkpt lat="46.172876858972415" lon="11.009629815074485"><ele>1027.0</ele><time>2026-05-03T10:46:43.961Z</time></trkpt><trkpt lat="46.173009129997425" lon="11.009869222044738"><ele>1028.0</ele><time>2026-05-03T10:46:44.961Z</time></trkpt><trkpt lat="46.173135376644545" lon="11.01012745577123"><ele>1028.5</ele><time>2026-05-03T10:46:45.961Z</time></trkpt><trkpt lat="46.17327094674049" lon="11.010383403808119"><ele>1029.0</ele><time>2026-05-03T10:46:46.961Z</time></trkpt><trkpt lat="46.173411029187136" lon="11.010646896163156"><ele>1029.5</ele><time>2026-05-03T10:46:47.961Z</time></trkpt><trkpt lat="46.17355913392889" lon="11.010906714432885"><ele>1030.0</ele><time>2026-05-03T10:46:48.961Z</time></trkpt><trkpt lat="46.17372139698088" lon="11.011167726652667"><ele>1030.0</ele><time>2026-05-03T10:46:49.961Z</time></trkpt><trkpt lat="46.17390052929329" lon="11.011423279365882"><ele>1030.0</ele><time>2026-05-03T10:46:50.962Z</time></trkpt><trkpt lat="46.174090368829255" lon="11.011667835222932"><ele>1029.0</ele><time>2026-05-03T10:46:51.962Z</time></trkpt><trkpt lat="46.17426605786728" lon="11.011924161568734"><ele>1028.0</ele><time>2026-05-03T10:46:52.962Z</time></trkpt><trkpt lat="46.174444675410896" lon="11.01218294275189"><ele>1028.0</ele><time>2026-05-03T10:46:53.962Z</time></trkpt><trkpt lat="46.174623280090046" lon="11.012445257581808"><ele>1028.0</ele><time>2026-05-03T10:46:54.961Z</time></trkpt><trkpt lat="46.17480482705089" lon="11.012708476856949"><ele>1026.0</ele><time>2026-05-03T10:46:55.961Z</time></trkpt><trkpt lat="46.174989513294946" lon="11.012970838712288"><ele>1024.0</ele><time>2026-05-03T10:46:56.962Z</time></trkpt><trkpt lat="46.17517566056867" lon="11.013226947452521"><ele>1037.5</ele><time>2026-05-03T10:46:57.962Z</time></trkpt><trkpt lat="46.17537252322502" lon="11.013460951169806"><ele>1051.0</ele><time>2026-05-03T10:46:58.962Z</time></trkpt><trkpt lat="46.17559244535784" lon="11.013645214540645"><ele>1037.5</ele><time>2026-05-03T10:46:59.962Z</time></trkpt><trkpt lat="46.17580339301765" lon="11.013841493197637"><ele>1024.0</ele><time>2026-05-03T10:47:00.961Z</time></trkpt><trkpt lat="46.17601312605018" lon="11.014017610518408"><ele>1020.6666666666666</ele><time>2026-05-03T10:47:01.961Z</time></trkpt><trkpt lat="46.17621273770674" lon="11.014170701254136"><ele>1017.3333333333333</ele><time>2026-05-03T10:47:02.962Z</time></trkpt><trkpt lat="46.17638395864146" lon="11.014321930681998"><ele>1014.0</ele><time>2026-05-03T10:47:03.962Z</time></trkpt><trkpt lat="46.17652117515202" lon="11.014496324198843"><ele>1014.0</ele><time>2026-05-03T10:47:04.962Z</time></trkpt><trkpt lat="46.176628697262856" lon="11.01470662269293"><ele>1014.0</ele><time>2026-05-03T10:47:05.962Z</time></trkpt><trkpt lat="46.1767294984872" lon="11.01495808370665"><ele>1014.0</ele><time>2026-05-03T10:47:06.962Z</time></trkpt><trkpt lat="46.17683344805167" lon="11.01522313723884"><ele>1017.3333333333333</ele><time>2026-05-03T10:47:07.962Z</time></trkpt><trkpt lat="46.17694209282307" lon="11.015500163037439"><ele>1020.6666666666666</ele><time>2026-05-03T10:47:08.962Z</time></trkpt><trkpt lat="46.177047682309016" lon="11.015769398186423"><ele>1024.0</ele><time>2026-05-03T10:47:09.962Z</time></trkpt><trkpt lat="46.17715001429088" lon="11.016030327317695"><ele>1025.3333333333333</ele><time>2026-05-03T10:47:10.962Z</time></trkpt><trkpt lat="46.177246181425076" lon="11.016275537250632"><ele>1026.6666666666667</ele><time>2026-05-03T10:47:11.962Z</time></trkpt><trkpt lat="46.17733310938178" lon="11.016493697405174"><ele>1028.0</ele><time>2026-05-03T10:47:12.962Z</time></trkpt><trkpt lat="46.177384863969024" lon="11.016717098969814"><ele>1028.0</ele><time>2026-05-03T10:47:13.962Z</time></trkpt><trkpt lat="46.17740361971994" lon="11.016959613539148"><ele>1028.0</ele><time>2026-05-03T10:47:14.962Z</time></trkpt><trkpt lat="46.177395776003145" lon="11.017207057284764"><ele>1028.0</ele><time>2026-05-03T10:47:15.962Z</time></trkpt><trkpt lat="46.17739598443106" lon="11.017457172984809"><ele>1025.6666666666667</ele><time>2026-05-03T10:47:16.962Z</time></trkpt><trkpt lat="46.17742201384914" lon="11.017681442662944"><ele>1023.3333333333333</ele><time>2026-05-03T10:47:17.962Z</time></trkpt><trkpt lat="46.17749751731688" lon="11.017867144352754"><ele>1021.0</ele><time>2026-05-03T10:47:18.962Z</time></trkpt><trkpt lat="46.17761166970525" lon="11.017996164625968"><ele>1021.0</ele><time>2026-05-03T10:47:19.962Z</time></trkpt><trkpt lat="46.17774475724462" lon="11.018082545671614"><ele>1021.0</ele><time>2026-05-03T10:47:20.962Z</time></trkpt><trkpt lat="46.177915492931014" lon="11.018158336451101"><ele>1021.0</ele><time>2026-05-03T10:47:21.962Z</time></trkpt><trkpt lat="46.17810294586955" lon="11.018239022640236"><ele>1019.3333333333333</ele><time>2026-05-03T10:47:22.962Z</time></trkpt><trkpt lat="46.17829466062385" lon="11.0183286687674"><ele>1017.6666666666667</ele><time>2026-05-03T10:47:23.962Z</time></trkpt><trkpt lat="46.178484338759844" lon="11.018447320910168"><ele>1016.0</ele><time>2026-05-03T10:47:24.962Z</time></trkpt><trkpt lat="46.17865934435459" lon="11.018602391240487"><ele>1016.0</ele><time>2026-05-03T10:47:25.962Z</time></trkpt><trkpt lat="46.17883528036891" lon="11.01877850324006"><ele>1016.0</ele><time>2026-05-03T10:47:26.962Z</time></trkpt><trkpt lat="46.17900226517906" lon="11.018939680633427"><ele>1016.0</ele><time>2026-05-03T10:47:27.962Z</time></trkpt><trkpt lat="46.179170798338184" lon="11.019079736694314"><ele>1010.6666666666667</ele><time>2026-05-03T10:47:28.962Z</time></trkpt><trkpt lat="46.17935567910132" lon="11.01914528411196"><ele>1005.3333333333333</ele><time>2026-05-03T10:47:29.962Z</time></trkpt><trkpt lat="46.17954649110624" lon="11.019173633918985"><ele>1000.0</ele><time>2026-05-03T10:47:30.962Z</time></trkpt><trkpt lat="46.17973587560257" lon="11.019187477330362"><ele>1000.0</ele><time>2026-05-03T10:47:31.962Z</time></trkpt><trkpt lat="46.17993498972587" lon="11.019202032199304"><ele>1000.0</ele><time>2026-05-03T10:47:32.962Z</time></trkpt><trkpt lat="46.18014186484812" lon="11.019224980741097"><ele>1000.0</ele><time>2026-05-03T10:47:33.962Z</time></trkpt><trkpt lat="46.180346872724506" lon="11.019243628498185"><ele>1000.0</ele><time>2026-05-03T10:47:34.962Z</time></trkpt><trkpt lat="46.18055894863433" lon="11.019261488127341"><ele>1000.0</ele><time>2026-05-03T10:47:35.962Z</time></trkpt><trkpt lat="46.18078166365909" lon="11.019262208445513"><ele>1000.0</ele><time>2026-05-03T10:47:36.962Z</time></trkpt><trkpt lat="46.180989265284346" lon="11.019269937945628"><ele>999.6666666666666</ele><time>2026-05-03T10:47:37.962Z</time></trkpt><trkpt lat="46.18119805490168" lon="11.019278683746727"><ele>999.3333333333333</ele><time>2026-05-03T10:47:38.962Z</time></trkpt><trkpt lat="46.181414087212424" lon="11.019301860257361"><ele>999.0</ele><time>2026-05-03T10:47:39.962Z</time></trkpt><trkpt lat="46.1816144721488" lon="11.019328404084142"><ele>997.6666666666667</ele><time>2026-05-03T10:47:40.962Z</time></trkpt><trkpt lat="46.181811939722756" lon="11.019368519636743"><ele>996.3333333333334</ele><time>2026-05-03T10:47:41.962Z</time></trkpt><trkpt lat="46.18201450923553" lon="11.01942933884137"><ele>995.0</ele><time>2026-05-03T10:47:42.962Z</time></trkpt><trkpt lat="46.18220814374207" lon="11.019523276317834"><ele>994.0</ele><time>2026-05-03T10:47:43.962Z</time></trkpt><trkpt lat="46.18238589668171" lon="11.01961884554485"><ele>993.0</ele><time>2026-05-03T10:47:44.962Z</time></trkpt><trkpt lat="46.182554094100354" lon="11.019700943652035"><ele>992.0</ele><time>2026-05-03T10:47:45.962Z</time></trkpt><trkpt lat="46.18271399013322" lon="11.01977605388949"><ele>992.0</ele><time>2026-05-03T10:47:46.962Z</time></trkpt><trkpt lat="46.182861693781284" lon="11.019843861376366"><ele>992.0</ele><time>2026-05-03T10:47:47.962Z</time></trkpt><trkpt lat="46.18299183863012" lon="11.019903206071756"><ele>992.0</ele><time>2026-05-03T10:47:48.962Z</time></trkpt><trkpt lat="46.18309353503861" lon="11.019956177853793"><ele>992.0</ele><time>2026-05-03T10:47:49.962Z</time></trkpt><trkpt lat="46.18317776054056" lon="11.019998614329937"><ele>987.8333333333334</ele><time>2026-05-03T10:47:50.962Z</time></trkpt><trkpt lat="46.18324786495247" lon="11.020041295593462"><ele>983.6666666666667</ele><time>2026-05-03T10:47:51.961Z</time></trkpt><trkpt lat="46.183302640150195" lon="11.020125055135678"><ele>979.5</ele><time>2026-05-03T10:47:52.961Z</time></trkpt><trkpt lat="46.18331753702738" lon="11.020245333222228"><ele>975.3333333333333</ele><time>2026-05-03T10:47:53.961Z</time></trkpt><trkpt lat="46.183282692197174" lon="11.020367433373446"><ele>971.1666666666666</ele><time>2026-05-03T10:47:54.961Z</time></trkpt><trkpt lat="46.18320914254039" lon="11.020471126520572"><ele>967.0</ele><time>2026-05-03T10:47:55.961Z</time></trkpt><trkpt lat="46.18310424021825" lon="11.02054635032538"><ele>967.0</ele><time>2026-05-03T10:47:56.961Z</time></trkpt><trkpt lat="46.182990108794435" lon="11.020611340899535"><ele>967.0</ele><time>2026-05-03T10:47:57.961Z</time></trkpt><trkpt lat="46.18286416870153" lon="11.020690817140817"><ele>967.0</ele><time>2026-05-03T10:47:58.961Z</time></trkpt><trkpt lat="46.18274720368165" lon="11.020763103419311"><ele>967.0</ele><time>2026-05-03T10:47:59.961Z</time></trkpt><trkpt lat="46.18262057638442" lon="11.020767246640888"><ele>967.0</ele><time>2026-05-03T10:48:00.961Z</time></trkpt><trkpt lat="46.182465355978444" lon="11.02070881737325"><ele>967.0</ele><time>2026-05-03T10:48:01.961Z</time></trkpt><trkpt lat="46.182306867634416" lon="11.02060146542435"><ele>967.0</ele><time>2026-05-03T10:48:02.961Z</time></trkpt><trkpt lat="46.182170703664426" lon="11.02052868595208"><ele>964.75</ele><time>2026-05-03T10:48:03.961Z</time></trkpt><trkpt lat="46.182035050912155" lon="11.020505884784018"><ele>962.5</ele><time>2026-05-03T10:48:04.961Z</time></trkpt><trkpt lat="46.18189725632707" lon="11.020480837393427"><ele>960.25</ele><time>2026-05-03T10:48:05.961Z</time></trkpt><trkpt lat="46.181755611258446" lon="11.020440672627464"><ele>958.0</ele><time>2026-05-03T10:48:06.961Z</time></trkpt><trkpt lat="46.18161705312725" lon="11.020402250810575"><ele>959.0</ele><time>2026-05-03T10:48:07.961Z</time></trkpt><trkpt lat="46.1814831045083" lon="11.020378076306548"><ele>960.0</ele><time>2026-05-03T10:48:08.961Z</time></trkpt><trkpt lat="46.18136362315905" lon="11.020353061828617"><ele>961.0</ele><time>2026-05-03T10:48:09.961Z</time></trkpt><trkpt lat="46.181250337104416" lon="11.020338713694022"><ele>962.0</ele><time>2026-05-03T10:48:10.961Z</time></trkpt><trkpt lat="46.18115822938265" lon="11.020353475716469"><ele>962.0</ele><time>2026-05-03T10:48:11.961Z</time></trkpt><trkpt lat="46.18109009077435" lon="11.020428671052404"><ele>962.0</ele><time>2026-05-03T10:48:12.961Z</time></trkpt><trkpt lat="46.18104872986905" lon="11.020563593510463"><ele>962.0</ele><time>2026-05-03T10:48:13.961Z</time></trkpt><trkpt lat="46.181051260188426" lon="11.020715411540364"><ele>962.0</ele><time>2026-05-03T10:48:14.961Z</time></trkpt><trkpt lat="46.18111396862712" lon="11.020851383646507"><ele>962.0</ele><time>2026-05-03T10:48:15.961Z</time></trkpt><trkpt lat="46.181217026349806" lon="11.020954416080082"><ele>955.6666666666667</ele><time>2026-05-03T10:48:16.961Z</time></trkpt><trkpt lat="46.18134191341282" lon="11.021047621837432"><ele>949.3333333333333</ele><time>2026-05-03T10:48:17.961Z</time></trkpt><trkpt lat="46.18147901808397" lon="11.02116559786852"><ele>943.0</ele><time>2026-05-03T10:48:18.961Z</time></trkpt><trkpt lat="46.18162656099276" lon="11.021298619308682"><ele>943.0</ele><time>2026-05-03T10:48:19.961Z</time></trkpt><trkpt lat="46.18177666399187" lon="11.021442810965173"><ele>943.0</ele><time>2026-05-03T10:48:20.961Z</time></trkpt><trkpt lat="46.18192043310214" lon="11.021584625051444"><ele>943.0</ele><time>2026-05-03T10:48:21.961Z</time></trkpt><trkpt lat="46.18206275102024" lon="11.021714862778888"><ele>940.0</ele><time>2026-05-03T10:48:22.961Z</time></trkpt><trkpt lat="46.18220440824907" lon="11.021843423829196"><ele>937.0</ele><time>2026-05-03T10:48:23.961Z</time></trkpt><trkpt lat="46.18235392286075" lon="11.021931679456166"><ele>934.0</ele><time>2026-05-03T10:48:24.961Z</time></trkpt><trkpt lat="46.18252323026381" lon="11.021938461054917"><ele>933.6666666666666</ele><time>2026-05-03T10:48:25.961Z</time></trkpt><trkpt lat="46.18271470837036" lon="11.021889550580527"><ele>933.3333333333333</ele><time>2026-05-03T10:48:26.961Z</time></trkpt><trkpt lat="46.1829189954553" lon="11.021831518417716"><ele>933.0</ele><time>2026-05-03T10:48:27.961Z</time></trkpt><trkpt lat="46.18312390559759" lon="11.02178256379139"><ele>930.3333333333333</ele><time>2026-05-03T10:48:28.961Z</time></trkpt><trkpt lat="46.1833220012861" lon="11.021732727534058"><ele>927.6666666666666</ele><time>2026-05-03T10:48:29.962Z</time></trkpt><trkpt lat="46.18351486470361" lon="11.021685202838855"><ele>925.0</ele><time>2026-05-03T10:48:30.962Z</time></trkpt><trkpt lat="46.18370559149093" lon="11.021635420610043"><ele>928.6666666666666</ele><time>2026-05-03T10:48:31.962Z</time></trkpt><trkpt lat="46.1838878602837" lon="11.021580712096318"><ele>932.3333333333333</ele><time>2026-05-03T10:48:32.963Z</time></trkpt><trkpt lat="46.184069119049546" lon="11.021533738651588"><ele>936.0</ele><time>2026-05-03T10:48:33.963Z</time></trkpt><trkpt lat="46.18424470866059" lon="11.021494338878002"><ele>936.0</ele><time>2026-05-03T10:48:34.963Z</time></trkpt><trkpt lat="46.184413911417046" lon="11.021452393138981"><ele>936.0</ele><time>2026-05-03T10:48:35.963Z</time></trkpt><trkpt lat="46.184581967760366" lon="11.021414273797973"><ele>936.0</ele><time>2026-05-03T10:48:36.963Z</time></trkpt><trkpt lat="46.18474651292748" lon="11.021373404606756"><ele>930.0</ele><time>2026-05-03T10:48:37.964Z</time></trkpt><trkpt lat="46.18491147553609" lon="11.021327622662241"><ele>924.0</ele><time>2026-05-03T10:48:38.964Z</time></trkpt><trkpt lat="46.185072766035155" lon="11.02128656200286"><ele>918.0</ele><time>2026-05-03T10:48:39.964Z</time></trkpt><trkpt lat="46.18522888863354" lon="11.021248309353389"><ele>918.0</ele><time>2026-05-03T10:48:40.964Z</time></trkpt><trkpt lat="46.18537546967664" lon="11.021232191656665"><ele>918.0</ele><time>2026-05-03T10:48:41.964Z</time></trkpt><trkpt lat="46.18552308390017" lon="11.021223287314779"><ele>918.0</ele><time>2026-05-03T10:48:42.965Z</time></trkpt><trkpt lat="46.185663896410254" lon="11.021219265711888"><ele>918.0</ele><time>2026-05-03T10:48:43.965Z</time></trkpt><trkpt lat="46.18579375958021" lon="11.02121334975151"><ele>915.25</ele><time>2026-05-03T10:48:44.965Z</time></trkpt><trkpt lat="46.18591816273912" lon="11.021206801456984"><ele>912.5</ele><time>2026-05-03T10:48:45.965Z</time></trkpt><trkpt lat="46.18603936640013" lon="11.02120004320366"><ele>909.75</ele><time>2026-05-03T10:48:46.965Z</time></trkpt><trkpt lat="46.18615805295674" lon="11.02119983121604"><ele>907.0</ele><time>2026-05-03T10:48:47.965Z</time></trkpt><trkpt lat="46.18628418147289" lon="11.02119486103962"><ele>907.0</ele><time>2026-05-03T10:48:48.965Z</time></trkpt><trkpt lat="46.18641651401027" lon="11.021190351211123"><ele>907.0</ele><time>2026-05-03T10:48:49.965Z</time></trkpt><trkpt lat="46.186547250746735" lon="11.021186105090518"><ele>907.0</ele><time>2026-05-03T10:48:50.965Z</time></trkpt><trkpt lat="46.1866651130849" lon="11.021179207434374"><ele>907.0</ele><time>2026-05-03T10:48:51.965Z</time></trkpt><trkpt lat="46.18676464407843" lon="11.021201627080746"><ele>905.8</ele><time>2026-05-03T10:48:52.966Z</time></trkpt><trkpt lat="46.18684064269461" lon="11.021273403575162"><ele>904.6</ele><time>2026-05-03T10:48:53.966Z</time></trkpt><trkpt lat="46.186890211193905" lon="11.02141075213331"><ele>903.3999999999999</ele><time>2026-05-03T10:48:54.966Z</time></trkpt><trkpt lat="46.18688276537582" lon="11.021566292745389"><ele>902.1999999999999</ele><time>2026-05-03T10:48:55.966Z</time></trkpt><trkpt lat="46.18683104064223" lon="11.021738562891128"><ele>901.0</ele><time>2026-05-03T10:48:56.967Z</time></trkpt><trkpt lat="46.186769369296506" lon="11.02193567435991"><ele>900.0</ele><time>2026-05-03T10:48:57.967Z</time></trkpt><trkpt lat="46.186692761248295" lon="11.022136565096247"><ele>899.0</ele><time>2026-05-03T10:48:58.967Z</time></trkpt><trkpt lat="46.18661642417745" lon="11.022349304422786"><ele>898.0</ele><time>2026-05-03T10:48:59.967Z</time></trkpt><trkpt lat="46.186512167603794" lon="11.022541128426258"><ele>897.6666666666666</ele><time>2026-05-03T10:49:00.966Z</time></trkpt><trkpt lat="46.18639713934985" lon="11.022680099912277"><ele>897.3333333333333</ele><time>2026-05-03T10:49:01.967Z</time></trkpt><trkpt lat="46.18625963288656" lon="11.022786105719616"><ele>897.0</ele><time>2026-05-03T10:49:02.967Z</time></trkpt><trkpt lat="46.1861223246516" lon="11.022895424110482"><ele>897.0</ele><time>2026-05-03T10:49:03.967Z</time></trkpt><trkpt lat="46.185995335398005" lon="11.022984827049795"><ele>897.0</ele><time>2026-05-03T10:49:04.967Z</time></trkpt><trkpt lat="46.18582323107893" lon="11.02307518393799"><ele>897.0</ele><time>2026-05-03T10:49:05.967Z</time></trkpt><trkpt lat="46.18564647175946" lon="11.023170383703281"><ele>896.3333333333333</ele><time>2026-05-03T10:49:06.968Z</time></trkpt><trkpt lat="46.18546598875114" lon="11.023269018154208"><ele>895.6666666666666</ele><time>2026-05-03T10:49:07.968Z</time></trkpt><trkpt lat="46.18528369546044" lon="11.023364794414158"><ele>895.0</ele><time>2026-05-03T10:49:08.967Z</time></trkpt><trkpt lat="46.18508872224956" lon="11.023433315965097"><ele>890.3333333333333</ele><time>2026-05-03T10:49:09.967Z</time></trkpt><trkpt lat="46.184903916352454" lon="11.023522974359572"><ele>885.6666666666667</ele><time>2026-05-03T10:49:10.967Z</time></trkpt><trkpt lat="46.18471852718289" lon="11.02359432892514"><ele>881.0</ele><time>2026-05-03T10:49:11.967Z</time></trkpt><trkpt lat="46.18454260572312" lon="11.023657423344288"><ele>881.0</ele><time>2026-05-03T10:49:12.967Z</time></trkpt><trkpt lat="46.18437714912585" lon="11.023713683813316"><ele>881.0</ele><time>2026-05-03T10:49:13.967Z</time></trkpt><trkpt lat="46.184226901900374" lon="11.023763132998464"><ele>881.0</ele><time>2026-05-03T10:49:14.967Z</time></trkpt><trkpt lat="46.18408898547678" lon="11.023814482433918"><ele>882.5</ele><time>2026-05-03T10:49:15.967Z</time></trkpt><trkpt lat="46.183958873182014" lon="11.023860174240482"><ele>884.0</ele><time>2026-05-03T10:49:16.967Z</time></trkpt><trkpt lat="46.18382795185877" lon="11.0239010468231"><ele>885.5</ele><time>2026-05-03T10:49:17.967Z</time></trkpt><trkpt lat="46.18371610371042" lon="11.023940515473978"><ele>887.0</ele><time>2026-05-03T10:49:18.967Z</time></trkpt><trkpt lat="46.1836284179371" lon="11.023979700362684"><ele>887.0</ele><time>2026-05-03T10:49:19.967Z</time></trkpt><trkpt lat="46.18355260741822" lon="11.024065471496877"><ele>887.0</ele><time>2026-05-03T10:49:20.967Z</time></trkpt><trkpt lat="46.18350908091453" lon="11.024194984495235"><ele>887.0</ele><time>2026-05-03T10:49:21.967Z</time></trkpt><trkpt lat="46.183510150792394" lon="11.024354049568736"><ele>887.0</ele><time>2026-05-03T10:49:22.967Z</time></trkpt><trkpt lat="46.183530265409416" lon="11.024522636634558"><ele>887.0</ele><time>2026-05-03T10:49:23.967Z</time></trkpt><trkpt lat="46.18354658252986" lon="11.024667068600628"><ele>885.5</ele><time>2026-05-03T10:49:24.967Z</time></trkpt><trkpt lat="46.18355763100482" lon="11.024820992290095"><ele>884.0</ele><time>2026-05-03T10:49:25.967Z</time></trkpt><trkpt lat="46.18357442635999" lon="11.024980437284416"><ele>882.5</ele><time>2026-05-03T10:49:26.967Z</time></trkpt><trkpt lat="46.18360365643076" lon="11.025147846764252"><ele>881.0</ele><time>2026-05-03T10:49:27.967Z</time></trkpt><trkpt lat="46.18363768818666" lon="11.02532320834221"><ele>878.25</ele><time>2026-05-03T10:49:28.967Z</time></trkpt><trkpt lat="46.18367992298521" lon="11.02550091381221"><ele>875.5</ele><time>2026-05-03T10:49:29.967Z</time></trkpt><trkpt lat="46.18372038625184" lon="11.025669786735305"><ele>872.75</ele><time>2026-05-03T10:49:30.967Z</time></trkpt><trkpt lat="46.18376612209257" lon="11.025824227963732"><ele>870.0</ele><time>2026-05-03T10:49:31.967Z</time></trkpt><trkpt lat="46.18381615809169" lon="11.025973131919173"><ele>867.6</ele><time>2026-05-03T10:49:32.967Z</time></trkpt><trkpt lat="46.18388071345471" lon="11.02609992224871"><ele>865.2</ele><time>2026-05-03T10:49:33.967Z</time></trkpt><trkpt lat="46.183939755676576" lon="11.026212753822104"><ele>862.8</ele><time>2026-05-03T10:49:34.967Z</time></trkpt><trkpt lat="46.18398110056212" lon="11.026326610626203"><ele>860.4</ele><time>2026-05-03T10:49:35.967Z</time></trkpt><trkpt lat="46.18400511489894" lon="11.026442157997982"><ele>858.0</ele><time>2026-05-03T10:49:36.967Z</time></trkpt><trkpt lat="46.18399507684989" lon="11.026565601002737"><ele>859.2857142857143</ele><time>2026-05-03T10:49:37.967Z</time></trkpt><trkpt lat="46.18396346724416" lon="11.026673431253036"><ele>860.5714285714287</ele><time>2026-05-03T10:49:38.967Z</time></trkpt><trkpt lat="46.18393570759329" lon="11.026770866230938"><ele>861.8571428571429</ele><time>2026-05-03T10:49:39.967Z</time></trkpt><trkpt lat="46.18390354027215" lon="11.026858438419312"><ele>863.1428571428571</ele><time>2026-05-03T10:49:40.967Z</time></trkpt><trkpt lat="46.18386177977425" lon="11.026948084405118"><ele>864.4285714285714</ele><time>2026-05-03T10:49:41.967Z</time></trkpt><trkpt lat="46.18381611664955" lon="11.027033004906489"><ele>865.7142857142857</ele><time>2026-05-03T10:49:42.967Z</time></trkpt><trkpt lat="46.183778202021706" lon="11.027124318788731"><ele>867.0</ele><time>2026-05-03T10:49:43.967Z</time></trkpt><trkpt lat="46.183740950109524" lon="11.02722749967309"><ele>867.0</ele><time>2026-05-03T10:49:44.967Z</time></trkpt><trkpt lat="46.18369729861664" lon="11.027330404985799"><ele>867.0</ele><time>2026-05-03T10:49:45.967Z</time></trkpt><trkpt lat="46.183655618426044" lon="11.027442989542184"><ele>867.0</ele><time>2026-05-03T10:49:46.967Z</time></trkpt><trkpt lat="46.18361380335195" lon="11.027569639293489"><ele>867.0</ele><time>2026-05-03T10:49:47.967Z</time></trkpt><trkpt lat="46.18358073194838" lon="11.027710394389723"><ele>867.0</ele><time>2026-05-03T10:49:48.967Z</time></trkpt><trkpt lat="46.18355011641067" lon="11.027844725529848"><ele>867.4000000000001</ele><time>2026-05-03T10:49:49.967Z</time></trkpt><trkpt lat="46.1835244623804" lon="11.027967710998883"><ele>867.8000000000001</ele><time>2026-05-03T10:49:50.967Z</time></trkpt><trkpt lat="46.183514494404086" lon="11.028102632729999"><ele>868.2</ele><time>2026-05-03T10:49:51.967Z</time></trkpt><trkpt lat="46.18350941279173" lon="11.028244764292563"><ele>868.6</ele><time>2026-05-03T10:49:52.967Z</time></trkpt><trkpt lat="46.183582022306915" lon="11.028380494027846"><ele>869.0</ele><time>2026-05-03T10:49:53.967Z</time></trkpt><trkpt lat="46.18366133818934" lon="11.028508652049485"><ele>869.0</ele><time>2026-05-03T10:49:54.967Z</time></trkpt><trkpt lat="46.183733643200924" lon="11.028634269114697"><ele>869.0000000000001</ele><time>2026-05-03T10:49:55.967Z</time></trkpt><trkpt lat="46.183808832602914" lon="11.028738354709418"><ele>869.0000000000001</ele><time>2026-05-03T10:49:56.967Z</time></trkpt><trkpt lat="46.18388412089938" lon="11.028841030058919"><ele>869.0</ele><time>2026-05-03T10:49:57.967Z</time></trkpt><trkpt lat="46.183950424527765" lon="11.028941619657303"><ele>869.0</ele><time>2026-05-03T10:49:58.967Z</time></trkpt><trkpt lat="46.184019097607944" lon="11.029035814709065"><ele>867.4000000000001</ele><time>2026-05-03T10:49:59.967Z</time></trkpt><trkpt lat="46.18408677513898" lon="11.029132501786767"><ele>865.8000000000001</ele><time>2026-05-03T10:50:00.967Z</time></trkpt><trkpt lat="46.18415867963872" lon="11.029225299296474"><ele>864.1999999999999</ele><time>2026-05-03T10:50:01.967Z</time></trkpt><trkpt lat="46.18422983314494" lon="11.029320183192926"><ele>862.5999999999999</ele><time>2026-05-03T10:50:02.967Z</time></trkpt><trkpt lat="46.184301075104685" lon="11.029405583745248"><ele>861.0</ele><time>2026-05-03T10:50:03.967Z</time></trkpt><trkpt lat="46.18437940852184" lon="11.029483055846805"><ele>861.0</ele><time>2026-05-03T10:50:04.967Z</time></trkpt><trkpt lat="46.18446189334875" lon="11.029553771127668"><ele>860.9999999999999</ele><time>2026-05-03T10:50:05.967Z</time></trkpt><trkpt lat="46.1845603764015" lon="11.02960946572665"><ele>860.9999999999999</ele><time>2026-05-03T10:50:06.967Z</time></trkpt><trkpt lat="46.18466171856649" lon="11.029654390145998"><ele>861.0</ele><time>2026-05-03T10:50:07.967Z</time></trkpt><trkpt lat="46.18477399870036" lon="11.02968579534997"><ele>861.0</ele><time>2026-05-03T10:50:08.967Z</time></trkpt><trkpt lat="46.184888708927524" lon="11.02971280363801"><ele>860.75</ele><time>2026-05-03T10:50:09.967Z</time></trkpt><trkpt lat="46.18500635763995" lon="11.029750427979886"><ele>860.5</ele><time>2026-05-03T10:50:10.967Z</time></trkpt><trkpt lat="46.185108047074195" lon="11.02982283546114"><ele>860.25</ele><time>2026-05-03T10:50:11.967Z</time></trkpt><trkpt lat="46.18520281643972" lon="11.029933492982986"><ele>860.0</ele><time>2026-05-03T10:50:12.967Z</time></trkpt><trkpt lat="46.18527931933957" lon="11.030068285503653"><ele>860.0</ele><time>2026-05-03T10:50:13.967Z</time></trkpt><trkpt lat="46.18535378873731" lon="11.03019391916936"><ele>860.0</ele><time>2026-05-03T10:50:14.967Z</time></trkpt><trkpt lat="46.18542935968951" lon="11.030301536701884"><ele>860.0</ele><time>2026-05-03T10:50:15.967Z</time></trkpt><trkpt lat="46.18550531176593" lon="11.030411097759595"><ele>860.0</ele><time>2026-05-03T10:50:16.967Z</time></trkpt><trkpt lat="46.18557559476498" lon="11.030517205360683"><ele>860.0</ele><time>2026-05-03T10:50:17.967Z</time></trkpt><trkpt lat="46.185644445716484" lon="11.030624350909088"><ele>858.0</ele><time>2026-05-03T10:50:18.967Z</time></trkpt><trkpt lat="46.185715434004095" lon="11.030737744425306"><ele>856.0</ele><time>2026-05-03T10:50:19.967Z</time></trkpt><trkpt lat="46.18579171262894" lon="11.030857042134704"><ele>854.0</ele><time>2026-05-03T10:50:20.967Z</time></trkpt><trkpt lat="46.185872117900615" lon="11.030979568807666"><ele>852.0</ele><time>2026-05-03T10:50:21.967Z</time></trkpt><trkpt lat="46.185951696838316" lon="11.031110094175771"><ele>852.0</ele><time>2026-05-03T10:50:22.967Z</time></trkpt><trkpt lat="46.186022276353185" lon="11.031255976168755"><ele>852.0</ele><time>2026-05-03T10:50:23.967Z</time></trkpt><trkpt lat="46.18607684023271" lon="11.031412851593155"><ele>852.0</ele><time>2026-05-03T10:50:24.967Z</time></trkpt><trkpt lat="46.18607723207279" lon="11.031574132723394"><ele>852.0</ele><time>2026-05-03T10:50:25.967Z</time></trkpt><trkpt lat="46.186070740289175" lon="11.031730898854846"><ele>853.75</ele><time>2026-05-03T10:50:26.967Z</time></trkpt><trkpt lat="46.186059107826104" lon="11.031903648398732"><ele>855.5</ele><time>2026-05-03T10:50:27.967Z</time></trkpt><trkpt lat="46.186023237150145" lon="11.032079257819026"><ele>857.25</ele><time>2026-05-03T10:50:28.967Z</time></trkpt><trkpt lat="46.185991795947" lon="11.032258357542954"><ele>859.0</ele><time>2026-05-03T10:50:29.967Z</time></trkpt><trkpt lat="46.18596550060869" lon="11.03242131297283"><ele>859.2</ele><time>2026-05-03T10:50:30.967Z</time></trkpt><trkpt lat="46.18594458094183" lon="11.032579915471329"><ele>859.4000000000001</ele><time>2026-05-03T10:50:31.967Z</time></trkpt><trkpt lat="46.1859198930473" lon="11.032730372101103"><ele>859.6</ele><time>2026-05-03T10:50:32.967Z</time></trkpt><trkpt lat="46.18589753056325" lon="11.032880879645237"><ele>859.8</ele><time>2026-05-03T10:50:33.967Z</time></trkpt><trkpt lat="46.185864265300054" lon="11.033024870050134"><ele>860.0</ele><time>2026-05-03T10:50:34.967Z</time></trkpt><trkpt lat="46.18585778657232" lon="11.033180756496808"><ele>859.5</ele><time>2026-05-03T10:50:35.967Z</time></trkpt><trkpt lat="46.18582842914806" lon="11.03333500234183"><ele>859.0</ele><time>2026-05-03T10:50:36.967Z</time></trkpt><trkpt lat="46.185791902583226" lon="11.033494212074253"><ele>858.5</ele><time>2026-05-03T10:50:37.967Z</time></trkpt><trkpt lat="46.1857421966237" lon="11.033661315823101"><ele>858.0</ele><time>2026-05-03T10:50:38.967Z</time></trkpt><trkpt lat="46.185669844012224" lon="11.03382492008479"><ele>859.5</ele><time>2026-05-03T10:50:39.967Z</time></trkpt><trkpt lat="46.1855828351916" lon="11.03397979194794"><ele>861.0</ele><time>2026-05-03T10:50:40.967Z</time></trkpt><trkpt lat="46.18549486135726" lon="11.03411225786506"><ele>862.5</ele><time>2026-05-03T10:50:41.967Z</time></trkpt><trkpt lat="46.18540491902456" lon="11.034230647677857"><ele>864.0</ele><time>2026-05-03T10:50:42.967Z</time></trkpt><trkpt lat="46.18531854774794" lon="11.03434359090156"><ele>864.0</ele><time>2026-05-03T10:50:43.967Z</time></trkpt><trkpt lat="46.18523489797206" lon="11.034453352598346"><ele>864.0000000000001</ele><time>2026-05-03T10:50:44.967Z</time></trkpt><trkpt lat="46.1851570742602" lon="11.034564079974153"><ele>864.0000000000001</ele><time>2026-05-03T10:50:45.967Z</time></trkpt><trkpt lat="46.185082048900234" lon="11.034661708197905"><ele>864.0</ele><time>2026-05-03T10:50:46.967Z</time></trkpt><trkpt lat="46.18502067629311" lon="11.034750452882026"><ele>864.0</ele><time>2026-05-03T10:50:47.967Z</time></trkpt><trkpt lat="46.18496952408316" lon="11.034844161860779"><ele>864.0</ele><time>2026-05-03T10:50:48.967Z</time></trkpt><trkpt lat="46.18493810427687" lon="11.034953141068797"><ele>864.0000000000001</ele><time>2026-05-03T10:50:49.967Z</time></trkpt><trkpt lat="46.1849325388831" lon="11.035074583238625"><ele>864.0000000000001</ele><time>2026-05-03T10:50:50.967Z</time></trkpt><trkpt lat="46.18494966306406" lon="11.035198530283935"><ele>864.0</ele><time>2026-05-03T10:50:51.967Z</time></trkpt><trkpt lat="46.184974603246346" lon="11.035334150379187"><ele>864.0</ele><time>2026-05-03T10:50:52.967Z</time></trkpt><trkpt lat="46.18500029838408" lon="11.035487018695703"><ele>861.75</ele><time>2026-05-03T10:50:53.967Z</time></trkpt><trkpt lat="46.18502838048789" lon="11.035645566653937"><ele>859.5</ele><time>2026-05-03T10:50:54.967Z</time></trkpt><trkpt lat="46.185062661640316" lon="11.035822401918908"><ele>857.25</ele><time>2026-05-03T10:50:55.967Z</time></trkpt><trkpt lat="46.185103200771934" lon="11.036013927250478"><ele>855.0</ele><time>2026-05-03T10:50:56.967Z</time></trkpt><trkpt lat="46.18514124247966" lon="11.03621869474743"><ele>854.6666666666667</ele><time>2026-05-03T10:50:57.967Z</time></trkpt><trkpt lat="46.18517721116593" lon="11.036436760589709"><ele>854.3333333333334</ele><time>2026-05-03T10:50:58.967Z</time></trkpt><trkpt lat="46.18521965653941" lon="11.03666507518339"><ele>854.0</ele><time>2026-05-03T10:50:59.967Z</time></trkpt><trkpt lat="46.185262284061444" lon="11.036902123719639"><ele>855.0</ele><time>2026-05-03T10:51:00.967Z</time></trkpt><trkpt lat="46.185307583694154" lon="11.037133937052003"><ele>856.0</ele><time>2026-05-03T10:51:01.967Z</time></trkpt><trkpt lat="46.18534988665477" lon="11.037348437902434"><ele>857.0</ele><time>2026-05-03T10:51:02.968Z</time></trkpt><trkpt lat="46.185375621894025" lon="11.037562095622274"><ele>857.0</ele><time>2026-05-03T10:51:03.967Z</time></trkpt><trkpt lat="46.18541265431768" lon="11.037761521653497"><ele>857.0</ele><time>2026-05-03T10:51:04.967Z</time></trkpt><trkpt lat="46.18544870798551" lon="11.037955676909654"><ele>857.0</ele><time>2026-05-03T10:51:05.967Z</time></trkpt><trkpt lat="46.185484798424355" lon="11.038150030193686"><ele>857.0</ele><time>2026-05-03T10:51:06.968Z</time></trkpt><trkpt lat="46.18551995676304" lon="11.038339363952518"><ele>857.5</ele><time>2026-05-03T10:51:07.968Z</time></trkpt><trkpt lat="46.185556536164896" lon="11.03853471241994"><ele>858.0</ele><time>2026-05-03T10:51:08.968Z</time></trkpt><trkpt lat="46.18559288142534" lon="11.038728460629248"><ele>858.5</ele><time>2026-05-03T10:51:09.967Z</time></trkpt><trkpt lat="46.18563121831628" lon="11.038932825754355"><ele>859.0</ele><time>2026-05-03T10:51:10.967Z</time></trkpt><trkpt lat="46.18567205134237" lon="11.039150497199353"><ele>855.6666666666666</ele><time>2026-05-03T10:51:11.967Z</time></trkpt><trkpt lat="46.18571582659566" lon="11.039385560935356"><ele>852.3333333333333</ele><time>2026-05-03T10:51:12.967Z</time></trkpt><trkpt lat="46.18575715000756" lon="11.039607959799843"><ele>849.0</ele><time>2026-05-03T10:51:13.967Z</time></trkpt><trkpt lat="46.18579542413567" lon="11.03981394771255"><ele>849.0</ele><time>2026-05-03T10:51:14.967Z</time></trkpt><trkpt lat="46.185843505262866" lon="11.039994293362414"><ele>849.0</ele><time>2026-05-03T10:51:15.967Z</time></trkpt><trkpt lat="46.18586403467025" lon="11.040158855944338"><ele>849.0</ele><time>2026-05-03T10:51:16.967Z</time></trkpt><trkpt lat="46.18589570128917" lon="11.04029578789117"><ele>849.0</ele><time>2026-05-03T10:51:17.967Z</time></trkpt><trkpt lat="46.185936052676" lon="11.040418454837067"><ele>849.0</ele><time>2026-05-03T10:51:18.967Z</time></trkpt><trkpt lat="46.18599646975179" lon="11.040525883572222"><ele>849.0</ele><time>2026-05-03T10:51:19.967Z</time></trkpt><trkpt lat="46.18607147463494" lon="11.040622142530438"><ele>849.0</ele><time>2026-05-03T10:51:20.967Z</time></trkpt><trkpt lat="46.186154507421925" lon="11.040704586993476"><ele>849.0</ele><time>2026-05-03T10:51:21.967Z</time></trkpt><trkpt lat="46.18624500544435" lon="11.040752297586621"><ele>849.0</ele><time>2026-05-03T10:51:22.967Z</time></trkpt><trkpt lat="46.18634498188856" lon="11.040777539791742"><ele>849.0</ele><time>2026-05-03T10:51:23.967Z</time></trkpt><trkpt lat="46.18644088601318" lon="11.040780217259684"><ele>848.0</ele><time>2026-05-03T10:51:24.967Z</time></trkpt><trkpt lat="46.18653893347552" lon="11.040759907649344"><ele>847.0</ele><time>2026-05-03T10:51:25.967Z</time></trkpt><trkpt lat="46.1866205120876" lon="11.040736033064539"><ele>846.0</ele><time>2026-05-03T10:51:26.967Z</time></trkpt><trkpt lat="46.18670655945033" lon="11.040729593614198"><ele>845.0</ele><time>2026-05-03T10:51:27.967Z</time></trkpt><trkpt lat="46.18678615467811" lon="11.040738296133085"><ele>844.0</ele><time>2026-05-03T10:51:28.967Z</time></trkpt><trkpt lat="46.186881745950885" lon="11.040752432688251"><ele>843.0</ele><time>2026-05-03T10:51:29.967Z</time></trkpt><trkpt lat="46.18697967814937" lon="11.040782957058205"><ele>843.5999999999999</ele><time>2026-05-03T10:51:30.967Z</time></trkpt><trkpt lat="46.1870821990094" lon="11.040841763463806"><ele>844.1999999999999</ele><time>2026-05-03T10:51:31.967Z</time></trkpt><trkpt lat="46.18717984851485" lon="11.040909380827502"><ele>844.8</ele><time>2026-05-03T10:51:32.967Z</time></trkpt><trkpt lat="46.18727781870824" lon="11.040984199978052"><ele>845.4</ele><time>2026-05-03T10:51:33.967Z</time></trkpt><trkpt lat="46.18738184271312" lon="11.041057860786303"><ele>846.0</ele><time>2026-05-03T10:51:34.967Z</time></trkpt><trkpt lat="46.1874747089044" lon="11.041120911990252"><ele>844.0</ele><time>2026-05-03T10:51:35.967Z</time></trkpt><trkpt lat="46.187557068376115" lon="11.04119269570609"><ele>842.0</ele><time>2026-05-03T10:51:36.967Z</time></trkpt><trkpt lat="46.1876527448501" lon="11.041256190149788"><ele>840.0</ele><time>2026-05-03T10:51:37.967Z</time></trkpt><trkpt lat="46.18774313041913" lon="11.041325427747568"><ele>838.0</ele><time>2026-05-03T10:51:38.967Z</time></trkpt><trkpt lat="46.18783094473599" lon="11.041394469223968"><ele>836.0</ele><time>2026-05-03T10:51:39.967Z</time></trkpt><trkpt lat="46.18791425618679" lon="11.041474876598688"><ele>836.0</ele><time>2026-05-03T10:51:40.967Z</time></trkpt><trkpt lat="46.18799469486344" lon="11.041575776585887"><ele>836.0</ele><time>2026-05-03T10:51:41.967Z</time></trkpt><trkpt lat="46.18807540648281" lon="11.041703411757698"><ele>836.0</ele><time>2026-05-03T10:51:42.967Z</time></trkpt><trkpt lat="46.1881519351549" lon="11.041844858270279"><ele>836.0</ele><time>2026-05-03T10:51:43.967Z</time></trkpt><trkpt lat="46.18822020472472" lon="11.042014887685076"><ele>835.5</ele><time>2026-05-03T10:51:44.967Z</time></trkpt><trkpt lat="46.188306826576564" lon="11.042182293843691"><ele>835.0</ele><time>2026-05-03T10:51:45.967Z</time></trkpt><trkpt lat="46.18838613958641" lon="11.042338846137753"><ele>834.5</ele><time>2026-05-03T10:51:46.967Z</time></trkpt><trkpt lat="46.188453897484465" lon="11.042473805228735"><ele>834.0</ele><time>2026-05-03T10:51:47.967Z</time></trkpt><trkpt lat="46.188509161038816" lon="11.042589102593547"><ele>835.0</ele><time>2026-05-03T10:51:48.967Z</time></trkpt><trkpt lat="46.188558526724584" lon="11.042679270501106"><ele>836.0</ele><time>2026-05-03T10:51:49.967Z</time></trkpt><trkpt lat="46.188604078777296" lon="11.042744799961184"><ele>837.0</ele><time>2026-05-03T10:51:50.967Z</time></trkpt><trkpt lat="46.18866416363263" lon="11.04278010026592"><ele>838.0</ele><time>2026-05-03T10:51:51.967Z</time></trkpt><trkpt lat="46.1887403699446" lon="11.042772007095774"><ele>839.0</ele><time>2026-05-03T10:51:52.967Z</time></trkpt><trkpt lat="46.188856398677544" lon="11.04273310604635"><ele>840.0</ele><time>2026-05-03T10:51:53.967Z</time></trkpt><trkpt lat="46.18900762529362" lon="11.042708900344383"><ele>836.0</ele><time>2026-05-03T10:51:54.967Z</time></trkpt><trkpt lat="46.189166274716975" lon="11.04265573930855"><ele>832.0</ele><time>2026-05-03T10:51:55.967Z</time></trkpt><trkpt lat="46.18934186921305" lon="11.042571461894621"><ele>828.0</ele><time>2026-05-03T10:51:56.967Z</time></trkpt><trkpt lat="46.18953433270005" lon="11.042535518399719"><ele>826.0</ele><time>2026-05-03T10:51:57.967Z</time></trkpt><trkpt lat="46.189727725855995" lon="11.04245868564076"><ele>824.0</ele><time>2026-05-03T10:51:58.967Z</time></trkpt><trkpt lat="46.18992722197333" lon="11.042340928257248"><ele>822.0</ele><time>2026-05-03T10:51:59.967Z</time></trkpt><trkpt lat="46.19013404212587" lon="11.04217567779195"><ele>822.0</ele><time>2026-05-03T10:52:00.967Z</time></trkpt><trkpt lat="46.19034425304328" lon="11.041988720169009"><ele>822.0</ele><time>2026-05-03T10:52:01.967Z</time></trkpt><trkpt lat="46.190546012452884" lon="11.041815159868396"><ele>822.0</ele><time>2026-05-03T10:52:02.967Z</time></trkpt><trkpt lat="46.19073547585024" lon="11.041664643712647"><ele>822.0</ele><time>2026-05-03T10:52:03.967Z</time></trkpt><trkpt lat="46.19091284991847" lon="11.041513238121995"><ele>822.0</ele><time>2026-05-03T10:52:04.967Z</time></trkpt><trkpt lat="46.19108098846703" lon="11.041369335109655"><ele>822.0</ele><time>2026-05-03T10:52:05.967Z</time></trkpt><trkpt lat="46.191240190342754" lon="11.04124443066768"><ele>822.0</ele><time>2026-05-03T10:52:06.967Z</time></trkpt><trkpt lat="46.191393130401565" lon="11.041131460226453"><ele>822.0</ele><time>2026-05-03T10:52:07.967Z</time></trkpt><trkpt lat="46.19155079576738" lon="11.041036397353281"><ele>823.0</ele><time>2026-05-03T10:52:08.967Z</time></trkpt><trkpt lat="46.191721090550494" lon="11.04096620421281"><ele>824.0</ele><time>2026-05-03T10:52:09.967Z</time></trkpt><trkpt lat="46.19190391636588" lon="11.04092605664218"><ele>825.0</ele><time>2026-05-03T10:52:10.967Z</time></trkpt><trkpt lat="46.19209384650002" lon="11.0408924775238"><ele>825.0</ele><time>2026-05-03T10:52:11.967Z</time></trkpt><trkpt lat="46.19228717835128" lon="11.040855064717045"><ele>825.0</ele><time>2026-05-03T10:52:12.967Z</time></trkpt><trkpt lat="46.192508253879595" lon="11.040802936940064"><ele>825.0</ele><time>2026-05-03T10:52:13.967Z</time></trkpt><trkpt lat="46.19276333467649" lon="11.040744514262526"><ele>823.5</ele><time>2026-05-03T10:52:14.967Z</time></trkpt><trkpt lat="46.19304811231169" lon="11.040699422682014"><ele>822.0</ele><time>2026-05-03T10:52:15.967Z</time></trkpt><trkpt lat="46.19336569122501" lon="11.040662705497484"><ele>819.0</ele><time>2026-05-03T10:52:16.967Z</time></trkpt><trkpt lat="46.19366716650161" lon="11.040669005844702"><ele>816.0</ele><time>2026-05-03T10:52:17.967Z</time></trkpt><trkpt lat="46.19392609512212" lon="11.040669444947984"><ele>811.0</ele><time>2026-05-03T10:52:18.967Z</time></trkpt><trkpt lat="46.194153089948905" lon="11.040648877949854"><ele>806.0</ele><time>2026-05-03T10:52:19.967Z</time></trkpt><trkpt lat="46.194372251855896" lon="11.040635739317018"><ele>801.0</ele><time>2026-05-03T10:52:20.967Z</time></trkpt><trkpt lat="46.1945700298326" lon="11.04062368317078"><ele>801.0</ele><time>2026-05-03T10:52:21.967Z</time></trkpt><trkpt lat="46.19474952599323" lon="11.040616087478135"><ele>801.0</ele><time>2026-05-03T10:52:22.967Z</time></trkpt><trkpt lat="46.19490788049952" lon="11.040605864108402"><ele>801.0</ele><time>2026-05-03T10:52:23.967Z</time></trkpt><trkpt lat="46.19504841123301" lon="11.04061648892966"><ele>802.0</ele><time>2026-05-03T10:52:24.967Z</time></trkpt><trkpt lat="46.19518861674098" lon="11.040683100028106"><ele>803.0</ele><time>2026-05-03T10:52:25.967Z</time></trkpt><trkpt lat="46.195304509838444" lon="11.040835237216678"><ele>804.0</ele><time>2026-05-03T10:52:26.967Z</time></trkpt><trkpt lat="46.19542876753773" lon="11.041033683939004"><ele>804.0</ele><time>2026-05-03T10:52:27.967Z</time></trkpt><trkpt lat="46.19557039199399" lon="11.041229310784322"><ele>804.0</ele><time>2026-05-03T10:52:28.967Z</time></trkpt><trkpt lat="46.195701903255284" lon="11.0414565149626"><ele>804.0</ele><time>2026-05-03T10:52:29.967Z</time></trkpt><trkpt lat="46.195856167720386" lon="11.04163626816985"><ele>801.6666666666667</ele><time>2026-05-03T10:52:30.967Z</time></trkpt><trkpt lat="46.19600449360421" lon="11.041793486453745"><ele>799.3333333333334</ele><time>2026-05-03T10:52:31.967Z</time></trkpt><trkpt lat="46.19618642032566" lon="11.0418981094944"><ele>797.0</ele><time>2026-05-03T10:52:32.967Z</time></trkpt><trkpt lat="46.1963820903" lon="11.041959046477306"><ele>788.0</ele><time>2026-05-03T10:52:33.967Z</time></trkpt><trkpt lat="46.1965963565952" lon="11.041991533747435"><ele>779.0</ele><time>2026-05-03T10:52:34.967Z</time></trkpt><trkpt lat="46.19683278339385" lon="11.042015818645773"><ele>779.0</ele><time>2026-05-03T10:52:35.967Z</time></trkpt><trkpt lat="46.197086722307944" lon="11.042088838259922"><ele>779.0</ele><time>2026-05-03T10:52:36.967Z</time></trkpt><trkpt lat="46.197390176854036" lon="11.042127211261672"><ele>774.5</ele><time>2026-05-03T10:52:37.967Z</time></trkpt><trkpt lat="46.19767437018126" lon="11.042217730213425"><ele>770.0</ele><time>2026-05-03T10:52:38.967Z</time></trkpt><trkpt lat="46.19796163133257" lon="11.04235120575088"><ele>764.5</ele><time>2026-05-03T10:52:39.967Z</time></trkpt><trkpt lat="46.19818354938195" lon="11.042413582644894"><ele>759.0</ele><time>2026-05-03T10:52:40.967Z</time></trkpt><trkpt lat="46.19841677107095" lon="11.042442636009254"><ele>759.0</ele><time>2026-05-03T10:52:41.967Z</time></trkpt><trkpt lat="46.198669626659495" lon="11.042463152794268"><ele>759.0</ele><time>2026-05-03T10:52:42.967Z</time></trkpt><trkpt lat="46.1988897600632" lon="11.042451698531595"><ele>759.0</ele><time>2026-05-03T10:52:43.967Z</time></trkpt><trkpt lat="46.19907362094016" lon="11.042415013395559"><ele>759.0</ele><time>2026-05-03T10:52:44.967Z</time></trkpt><trkpt lat="46.199241297306216" lon="11.042316734091"><ele>759.0</ele><time>2026-05-03T10:52:45.967Z</time></trkpt><trkpt lat="46.199398732718436" lon="11.04215577369014"><ele>759.0</ele><time>2026-05-03T10:52:46.967Z</time></trkpt><trkpt lat="46.19955074171216" lon="11.041939105888094"><ele>759.0</ele><time>2026-05-03T10:52:47.967Z</time></trkpt><trkpt lat="46.19968697482367" lon="11.04171638634503"><ele>759.0</ele><time>2026-05-03T10:52:48.967Z</time></trkpt><trkpt lat="46.19981208620039" lon="11.041520133470172"><ele>756.3333333333334</ele><time>2026-05-03T10:52:49.967Z</time></trkpt><trkpt lat="46.19994850898275" lon="11.04134963592192"><ele>753.6666666666667</ele><time>2026-05-03T10:52:50.967Z</time></trkpt><trkpt lat="46.20013583134822" lon="11.041226425314333"><ele>751.0</ele><time>2026-05-03T10:52:51.967Z</time></trkpt><trkpt lat="46.200339881971594" lon="11.041118515884255"><ele>751.0</ele><time>2026-05-03T10:52:52.967Z</time></trkpt><trkpt lat="46.200567369734394" lon="11.040991946646693"><ele>751.0</ele><time>2026-05-03T10:52:53.967Z</time></trkpt><trkpt lat="46.200817672406835" lon="11.040875030182482"><ele>738.5</ele><time>2026-05-03T10:52:54.967Z</time></trkpt><trkpt lat="46.2010676670459" lon="11.040753948240747"><ele>726.0</ele><time>2026-05-03T10:52:55.967Z</time></trkpt><trkpt lat="46.20130515240517" lon="11.040656290542922"><ele>723.0</ele><time>2026-05-03T10:52:56.967Z</time></trkpt><trkpt lat="46.20152926701415" lon="11.040591731782406"><ele>720.0</ele><time>2026-05-03T10:52:57.967Z</time></trkpt><trkpt lat="46.20174571853104" lon="11.040523795795139"><ele>720.0</ele><time>2026-05-03T10:52:58.967Z</time></trkpt><trkpt lat="46.20196582893501" lon="11.040492259060398"><ele>720.0</ele><time>2026-05-03T10:52:59.967Z</time></trkpt><trkpt lat="46.202199225912295" lon="11.040470864239861"><ele>717.0</ele><time>2026-05-03T10:53:00.967Z</time></trkpt><trkpt lat="46.202429812359725" lon="11.040440227804169"><ele>714.0</ele><time>2026-05-03T10:53:01.967Z</time></trkpt><trkpt lat="46.202658933230246" lon="11.040431957568558"><ele>714.0</ele><time>2026-05-03T10:53:02.967Z</time></trkpt><trkpt lat="46.20290887212517" lon="11.040491369415042"><ele>714.0</ele><time>2026-05-03T10:53:03.966Z</time></trkpt><trkpt lat="46.20313617629233" lon="11.040530393577326"><ele>713.0</ele><time>2026-05-03T10:53:04.966Z</time></trkpt><trkpt lat="46.20335034069593" lon="11.040546158671551"><ele>712.0</ele><time>2026-05-03T10:53:05.966Z</time></trkpt><trkpt lat="46.20356910169607" lon="11.040545645218744"><ele>711.0</ele><time>2026-05-03T10:53:06.966Z</time></trkpt><trkpt lat="46.20378487937568" lon="11.040518038323784"><ele>711.0</ele><time>2026-05-03T10:53:07.966Z</time></trkpt><trkpt lat="46.20397385718705" lon="11.040474721704879"><ele>711.0</ele><time>2026-05-03T10:53:08.968Z</time></trkpt><trkpt lat="46.204142619379525" lon="11.04043083563949"><ele>711.0</ele><time>2026-05-03T10:53:09.968Z</time></trkpt><trkpt lat="46.20429447853247" lon="11.040473178346895"><ele>711.6666666666666</ele><time>2026-05-03T10:53:10.968Z</time></trkpt><trkpt lat="46.20444178735222" lon="11.040589602160507"><ele>712.3333333333333</ele><time>2026-05-03T10:53:11.968Z</time></trkpt><trkpt lat="46.20459610248131" lon="11.040784377990628"><ele>713.0</ele><time>2026-05-03T10:53:12.968Z</time></trkpt><trkpt lat="46.20475255046679" lon="11.040992392459177"><ele>713.6666666666666</ele><time>2026-05-03T10:53:13.968Z</time></trkpt><trkpt lat="46.204907961742485" lon="11.04116825928583"><ele>714.3333333333334</ele><time>2026-05-03T10:53:14.967Z</time></trkpt><trkpt lat="46.20505667752924" lon="11.041337780675677"><ele>715.0</ele><time>2026-05-03T10:53:15.968Z</time></trkpt><trkpt lat="46.20519555217913" lon="11.041502111734808"><ele>718.3333333333334</ele><time>2026-05-03T10:53:16.968Z</time></trkpt><trkpt lat="46.20533160326361" lon="11.04166181808158"><ele>721.6666666666666</ele><time>2026-05-03T10:53:17.967Z</time></trkpt><trkpt lat="46.20546117314658" lon="11.041813981725614"><ele>725.0</ele><time>2026-05-03T10:53:18.967Z</time></trkpt><trkpt lat="46.205590677841194" lon="11.041958583789137"><ele>718.6666666666666</ele><time>2026-05-03T10:53:19.967Z</time></trkpt><trkpt lat="46.20571253264806" lon="11.04210417474038"><ele>712.3333333333334</ele><time>2026-05-03T10:53:20.968Z</time></trkpt><trkpt lat="46.20582789832254" lon="11.042253124288903"><ele>706.0</ele><time>2026-05-03T10:53:21.967Z</time></trkpt><trkpt lat="46.205922454416125" lon="11.042415131199773"><ele>708.75</ele><time>2026-05-03T10:53:22.967Z</time></trkpt><trkpt lat="46.2060077942624" lon="11.042571680535476"><ele>711.5</ele><time>2026-05-03T10:53:23.967Z</time></trkpt><trkpt lat="46.20609171674176" lon="11.042717824603756"><ele>714.25</ele><time>2026-05-03T10:53:24.967Z</time></trkpt><trkpt lat="46.20615469497177" lon="11.04281239404924"><ele>717.0</ele><time>2026-05-03T10:53:25.967Z</time></trkpt><trkpt lat="46.20624250083727" lon="11.042851341939295"><ele>717.0</ele><time>2026-05-03T10:53:26.967Z</time></trkpt><trkpt lat="46.20632526595957" lon="11.042823698967254"><ele>717.0</ele><time>2026-05-03T10:53:27.967Z</time></trkpt><trkpt lat="46.206384333921584" lon="11.042720248549168"><ele>717.0</ele><time>2026-05-03T10:53:28.967Z</time></trkpt><trkpt lat="46.20639132510805" lon="11.042590596505065"><ele>717.0</ele><time>2026-05-03T10:53:29.967Z</time></trkpt><trkpt lat="46.2063356101212" lon="11.042459430211075"><ele>717.0</ele><time>2026-05-03T10:53:30.967Z</time></trkpt><trkpt lat="46.206230347293044" lon="11.042338011326532"><ele>714.25</ele><time>2026-05-03T10:53:31.967Z</time></trkpt><trkpt lat="46.20612613990432" lon="11.042211938388775"><ele>711.5</ele><time>2026-05-03T10:53:32.967Z</time></trkpt><trkpt lat="46.2060459090431" lon="11.042088915478809"><ele>708.75</ele><time>2026-05-03T10:53:33.967Z</time></trkpt><trkpt lat="46.205965001992645" lon="11.041916509005414"><ele>706.0</ele><time>2026-05-03T10:53:34.967Z</time></trkpt><trkpt lat="46.20590553445292" lon="11.041679361814248"><ele>704.6666666666667</ele><time>2026-05-03T10:53:35.967Z</time></trkpt><trkpt lat="46.20588137003125" lon="11.041450177017875"><ele>703.3333333333334</ele><time>2026-05-03T10:53:36.967Z</time></trkpt><trkpt lat="46.20585254921785" lon="11.041212095077412"><ele>702.0</ele><time>2026-05-03T10:53:37.967Z</time></trkpt><trkpt lat="46.20583890010684" lon="11.04098134196407"><ele>700.5</ele><time>2026-05-03T10:53:38.967Z</time></trkpt><trkpt lat="46.2058722666658" lon="11.040757984994485"><ele>699.0</ele><time>2026-05-03T10:53:39.967Z</time></trkpt><trkpt lat="46.205943492568096" lon="11.04056491592319"><ele>697.5</ele><time>2026-05-03T10:53:40.967Z</time></trkpt><trkpt lat="46.20601676377675" lon="11.040419520300127"><ele>696.0</ele><time>2026-05-03T10:53:41.967Z</time></trkpt><trkpt lat="46.20608910809355" lon="11.040296563171289"><ele>696.0</ele><time>2026-05-03T10:53:42.967Z</time></trkpt><trkpt lat="46.20617006346803" lon="11.040207808569651"><ele>696.0</ele><time>2026-05-03T10:53:43.967Z</time></trkpt><trkpt lat="46.20625956015243" lon="11.04018328229722"><ele>696.0</ele><time>2026-05-03T10:53:44.967Z</time></trkpt><trkpt lat="46.206343282614675" lon="11.040237366445066"><ele>696.0</ele><time>2026-05-03T10:53:45.967Z</time></trkpt><trkpt lat="46.206388494319405" lon="11.040323499383383"><ele>696.0</ele><time>2026-05-03T10:53:46.967Z</time></trkpt><trkpt lat="46.20639840971441" lon="11.04046252793585"><ele>696.0</ele><time>2026-05-03T10:53:47.967Z</time></trkpt><trkpt lat="46.206323197301714" lon="11.04061532061721"><ele>696.0</ele><time>2026-05-03T10:53:48.967Z</time></trkpt><trkpt lat="46.20626628585654" lon="11.040787826538581"><ele>696.0</ele><time>2026-05-03T10:53:49.967Z</time></trkpt><trkpt lat="46.20630472604571" lon="11.041038226888334"><ele>696.0</ele><time>2026-05-03T10:53:50.967Z</time></trkpt><trkpt lat="46.206356863695945" lon="11.041253479897634"><ele>698.0</ele><time>2026-05-03T10:53:51.967Z</time></trkpt><trkpt lat="46.206442877222784" lon="11.041419801155547"><ele>700.0</ele><time>2026-05-03T10:53:52.967Z</time></trkpt><trkpt lat="46.20655313280463" lon="11.041581489065779"><ele>702.0</ele><time>2026-05-03T10:53:53.967Z</time></trkpt><trkpt lat="46.20667940232966" lon="11.041749305268224"><ele>696.6666666666666</ele><time>2026-05-03T10:53:54.967Z</time></trkpt><trkpt lat="46.20679970620711" lon="11.041929797556744"><ele>691.3333333333333</ele><time>2026-05-03T10:53:55.967Z</time></trkpt><trkpt lat="46.206916155255804" lon="11.042086232907309"><ele>686.0</ele><time>2026-05-03T10:53:56.967Z</time></trkpt><trkpt lat="46.20703651070731" lon="11.042218345175904"><ele>686.0</ele><time>2026-05-03T10:53:57.967Z</time></trkpt><trkpt lat="46.20719573014688" lon="11.042290067042842"><ele>686.0</ele><time>2026-05-03T10:53:58.967Z</time></trkpt><trkpt lat="46.207381542448964" lon="11.042294362381655"><ele>686.0</ele><time>2026-05-03T10:53:59.967Z</time></trkpt><trkpt lat="46.20755285275414" lon="11.042261257101057"><ele>681.25</ele><time>2026-05-03T10:54:00.967Z</time></trkpt><trkpt lat="46.20772613348523" lon="11.042166120750595"><ele>676.5</ele><time>2026-05-03T10:54:01.967Z</time></trkpt><trkpt lat="46.20784494511674" lon="11.042110909474667"><ele>671.75</ele><time>2026-05-03T10:54:02.967Z</time></trkpt><trkpt lat="46.20797147452302" lon="11.042074079316052"><ele>667.0</ele><time>2026-05-03T10:54:03.967Z</time></trkpt><trkpt lat="46.208111150243575" lon="11.042063506714783"><ele>664.0</ele><time>2026-05-03T10:54:04.967Z</time></trkpt><trkpt lat="46.20825708945302" lon="11.042070657846594"><ele>661.0</ele><time>2026-05-03T10:54:05.967Z</time></trkpt><trkpt lat="46.208411381420305" lon="11.04209818880004"><ele>658.0</ele><time>2026-05-03T10:54:06.967Z</time></trkpt><trkpt lat="46.208572963109866" lon="11.042150648128"><ele>658.0</ele><time>2026-05-03T10:54:07.967Z</time></trkpt><trkpt lat="46.20873039884396" lon="11.042230911648947"><ele>658.0</ele><time>2026-05-03T10:54:08.967Z</time></trkpt><trkpt lat="46.20889439065525" lon="11.042355693469357"><ele>658.0</ele><time>2026-05-03T10:54:09.967Z</time></trkpt><trkpt lat="46.20906041603565" lon="11.042533697256351"><ele>656.0</ele><time>2026-05-03T10:54:10.967Z</time></trkpt><trkpt lat="46.20922130793543" lon="11.042752467795106"><ele>654.0</ele><time>2026-05-03T10:54:11.967Z</time></trkpt><trkpt lat="46.20936859895203" lon="11.042980418323683"><ele>652.0</ele><time>2026-05-03T10:54:12.967Z</time></trkpt><trkpt lat="46.20952022116735" lon="11.043194051749865"><ele>648.0</ele><time>2026-05-03T10:54:13.967Z</time></trkpt><trkpt lat="46.20966547992881" lon="11.04339157703045"><ele>644.0</ele><time>2026-05-03T10:54:14.967Z</time></trkpt><trkpt lat="46.20980974504254" lon="11.043576075732922"><ele>640.0</ele><time>2026-05-03T10:54:15.967Z</time></trkpt><trkpt lat="46.20998505926233" lon="11.043694900002839"><ele>640.0</ele><time>2026-05-03T10:54:16.967Z</time></trkpt><trkpt lat="46.210166049629535" lon="11.043735004632719"><ele>640.0</ele><time>2026-05-03T10:54:17.967Z</time></trkpt><trkpt lat="46.21031932452476" lon="11.043810949615493"><ele>640.0</ele><time>2026-05-03T10:54:18.967Z</time></trkpt><trkpt lat="46.210476595364185" lon="11.043872772707402"><ele>640.0</ele><time>2026-05-03T10:54:19.966Z</time></trkpt><trkpt lat="46.210623881542716" lon="11.043957165571152"><ele>640.0</ele><time>2026-05-03T10:54:20.966Z</time></trkpt><trkpt lat="46.21076427027049" lon="11.044076588892416"><ele>640.0</ele><time>2026-05-03T10:54:21.966Z</time></trkpt><trkpt lat="46.21089787112017" lon="11.044243231976727"><ele>638.3333333333334</ele><time>2026-05-03T10:54:22.966Z</time></trkpt><trkpt lat="46.211024868019784" lon="11.044443729197425"><ele>636.6666666666666</ele><time>2026-05-03T10:54:23.966Z</time></trkpt><trkpt lat="46.21116635620322" lon="11.044624670718546"><ele>635.0</ele><time>2026-05-03T10:54:24.966Z</time></trkpt><trkpt lat="46.211312678386705" lon="11.044802064593082"><ele>635.0</ele><time>2026-05-03T10:54:25.966Z</time></trkpt><trkpt lat="46.21147806668345" lon="11.044961895410248"><ele>635.0</ele><time>2026-05-03T10:54:26.966Z</time></trkpt><trkpt lat="46.21164992427725" lon="11.045087937930935"><ele>635.0</ele><time>2026-05-03T10:54:27.966Z</time></trkpt><trkpt lat="46.211815246363145" lon="11.045189075859172"><ele>633.0</ele><time>2026-05-03T10:54:28.966Z</time></trkpt><trkpt lat="46.211969064616774" lon="11.04529744106117"><ele>631.0</ele><time>2026-05-03T10:54:29.966Z</time></trkpt><trkpt lat="46.21212443554619" lon="11.045387429035504"><ele>629.0</ele><time>2026-05-03T10:54:30.966Z</time></trkpt><trkpt lat="46.212247678312856" lon="11.045513792904549"><ele>629.0</ele><time>2026-05-03T10:54:31.966Z</time></trkpt><trkpt lat="46.212321573257" lon="11.045683051952766"><ele>629.0</ele><time>2026-05-03T10:54:32.966Z</time></trkpt><trkpt lat="46.21241645651753" lon="11.045811815386767"><ele>629.0</ele><time>2026-05-03T10:54:33.966Z</time></trkpt><trkpt lat="46.21256106750807" lon="11.0458730627922"><ele>629.0</ele><time>2026-05-03T10:54:34.966Z</time></trkpt><trkpt lat="46.21271692369795" lon="11.045900054978569"><ele>625.0</ele><time>2026-05-03T10:54:35.966Z</time></trkpt><trkpt lat="46.21287491456977" lon="11.045912349045798"><ele>621.0</ele><time>2026-05-03T10:54:36.966Z</time></trkpt><trkpt lat="46.21302330928609" lon="11.045935515632248"><ele>617.0</ele><time>2026-05-03T10:54:37.966Z</time></trkpt><trkpt lat="46.21315245075829" lon="11.046021330378858"><ele>611.3333333333333</ele><time>2026-05-03T10:54:38.966Z</time></trkpt><trkpt lat="46.21327157921137" lon="11.046147700635887"><ele>605.6666666666666</ele><time>2026-05-03T10:54:39.966Z</time></trkpt><trkpt lat="46.21338956978219" lon="11.046314071010341"><ele>600.0</ele><time>2026-05-03T10:54:40.966Z</time></trkpt><trkpt lat="46.21351220149756" lon="11.046484386662033"><ele>605.6666666666666</ele><time>2026-05-03T10:54:41.966Z</time></trkpt><trkpt lat="46.2136287310618" lon="11.046651801066862"><ele>611.3333333333333</ele><time>2026-05-03T10:54:42.966Z</time></trkpt><trkpt lat="46.2137560582835" lon="11.04679456600731"><ele>617.0</ele><time>2026-05-03T10:54:43.966Z</time></trkpt><trkpt lat="46.21388555654932" lon="11.046924036739949"><ele>608.6666666666666</ele><time>2026-05-03T10:54:44.966Z</time></trkpt><trkpt lat="46.214044006153266" lon="11.04700401433597"><ele>600.3333333333334</ele><time>2026-05-03T10:54:45.966Z</time></trkpt><trkpt lat="46.21422499234772" lon="11.047101946061506"><ele>592.0</ele><time>2026-05-03T10:54:46.966Z</time></trkpt><trkpt lat="46.21440872795558" lon="11.047181102797062"><ele>592.0</ele><time>2026-05-03T10:54:47.966Z</time></trkpt><trkpt lat="46.21457196847825" lon="11.047251110348954"><ele>592.0</ele><time>2026-05-03T10:54:48.966Z</time></trkpt><trkpt lat="46.21473221439267" lon="11.047320330714557"><ele>592.0</ele><time>2026-05-03T10:54:49.966Z</time></trkpt><trkpt lat="46.214881192489116" lon="11.047383148548576"><ele>587.6666666666667</ele><time>2026-05-03T10:54:50.966Z</time></trkpt><trkpt lat="46.21503139243417" lon="11.047408509669985"><ele>583.3333333333334</ele><time>2026-05-03T10:54:51.966Z</time></trkpt><trkpt lat="46.215182689615844" lon="11.047415204566732"><ele>579.0</ele><time>2026-05-03T10:54:52.966Z</time></trkpt><trkpt lat="46.21533673101216" lon="11.047393379428684"><ele>579.0</ele><time>2026-05-03T10:54:53.966Z</time></trkpt><trkpt lat="46.2154634932471" lon="11.047371267046604"><ele>579.0</ele><time>2026-05-03T10:54:54.966Z</time></trkpt><trkpt lat="46.21557189949471" lon="11.047359874942599"><ele>579.0</ele><time>2026-05-03T10:54:55.966Z</time></trkpt><trkpt lat="46.215680509216924" lon="11.047357500623017"><ele>579.0</ele><time>2026-05-03T10:54:56.966Z</time></trkpt><trkpt lat="46.21578687898035" lon="11.04734872291441"><ele>578.5</ele><time>2026-05-03T10:54:57.966Z</time></trkpt><trkpt lat="46.215889522571864" lon="11.047343040888972"><ele>578.0</ele><time>2026-05-03T10:54:58.966Z</time></trkpt><trkpt lat="46.215996374191484" lon="11.04732726524101"><ele>577.5</ele><time>2026-05-03T10:54:59.966Z</time></trkpt><trkpt lat="46.21612198494876" lon="11.04731865652816"><ele>577.0</ele><time>2026-05-03T10:55:00.966Z</time></trkpt><trkpt lat="46.21625183772047" lon="11.04731579267535"><ele>577.0</ele><time>2026-05-03T10:55:01.966Z</time></trkpt><trkpt lat="46.21637393803322" lon="11.047338860398566"><ele>577.0</ele><time>2026-05-03T10:55:02.966Z</time></trkpt><trkpt lat="46.216490199760024" lon="11.047384007816982"><ele>577.0</ele><time>2026-05-03T10:55:03.966Z</time></trkpt><trkpt lat="46.216608005919184" lon="11.04745455141772"><ele>577.0</ele><time>2026-05-03T10:55:04.966Z</time></trkpt><trkpt lat="46.21672250540383" lon="11.047531006475191"><ele>578.0</ele><time>2026-05-03T10:55:05.966Z</time></trkpt><trkpt lat="46.21683978082024" lon="11.0476050095579"><ele>579.0</ele><time>2026-05-03T10:55:06.966Z</time></trkpt><trkpt lat="46.21695555070771" lon="11.047674126465301"><ele>580.0</ele><time>2026-05-03T10:55:07.966Z</time></trkpt><trkpt lat="46.217071762202266" lon="11.047741685894307"><ele>581.0</ele><time>2026-05-03T10:55:08.966Z</time></trkpt><trkpt lat="46.21718499859394" lon="11.047805637563378"><ele>581.0</ele><time>2026-05-03T10:55:09.966Z</time></trkpt><trkpt lat="46.21729491498879" lon="11.04786510078483"><ele>581.0</ele><time>2026-05-03T10:55:10.966Z</time></trkpt><trkpt lat="46.21741166744286" lon="11.047915886205145"><ele>581.0</ele><time>2026-05-03T10:55:11.966Z</time></trkpt><trkpt lat="46.21753007013017" lon="11.04794666696186"><ele>581.0</ele><time>2026-05-03T10:55:12.966Z</time></trkpt><trkpt lat="46.217648902076796" lon="11.047976402082224"><ele>579.8</ele><time>2026-05-03T10:55:13.966Z</time></trkpt><trkpt lat="46.21776550817544" lon="11.047996329648022"><ele>578.6</ele><time>2026-05-03T10:55:14.967Z</time></trkpt><trkpt lat="46.21787553161013" lon="11.048014436367307"><ele>577.4</ele><time>2026-05-03T10:55:15.967Z</time></trkpt><trkpt lat="46.21796896953737" lon="11.048030352287348"><ele>576.2</ele><time>2026-05-03T10:55:16.967Z</time></trkpt><trkpt lat="46.218058056819736" lon="11.048039399324969"><ele>575.0</ele><time>2026-05-03T10:55:17.968Z</time></trkpt><trkpt lat="46.21814964764187" lon="11.048037151227101"><ele>574.6</ele><time>2026-05-03T10:55:18.967Z</time></trkpt><trkpt lat="46.21824700747896" lon="11.048045556791168"><ele>574.2</ele><time>2026-05-03T10:55:19.967Z</time></trkpt><trkpt lat="46.21834284527664" lon="11.04805114852192"><ele>573.8</ele><time>2026-05-03T10:55:20.967Z</time></trkpt><trkpt lat="46.218438701457565" lon="11.048059894344364"><ele>573.4</ele><time>2026-05-03T10:55:21.967Z</time></trkpt><trkpt lat="46.21853115151815" lon="11.048065669896737"><ele>573.0</ele><time>2026-05-03T10:55:22.967Z</time></trkpt><trkpt lat="46.21863810945061" lon="11.048077070577913"><ele>573.0</ele><time>2026-05-03T10:55:23.967Z</time></trkpt><trkpt lat="46.21875101785469" lon="11.048077949688544"><ele>573.0</ele><time>2026-05-03T10:55:24.966Z</time></trkpt><trkpt lat="46.21887255949553" lon="11.04808581581188"><ele>573.0</ele><time>2026-05-03T10:55:25.966Z</time></trkpt><trkpt lat="46.218997991020714" lon="11.048093987275546"><ele>573.0</ele><time>2026-05-03T10:55:26.967Z</time></trkpt><trkpt lat="46.21911516820037" lon="11.04810730027684"><ele>570.5</ele><time>2026-05-03T10:55:27.967Z</time></trkpt><trkpt lat="46.21922901839958" lon="11.048145670801032"><ele>568.0</ele><time>2026-05-03T10:55:28.967Z</time></trkpt><trkpt lat="46.21933749947139" lon="11.048207303329454"><ele>565.5</ele><time>2026-05-03T10:55:29.967Z</time></trkpt><trkpt lat="46.21943340259376" lon="11.048302355770424"><ele>563.0</ele><time>2026-05-03T10:55:30.967Z</time></trkpt><trkpt lat="46.21952302331525" lon="11.0484135354789"><ele>563.0</ele><time>2026-05-03T10:55:31.967Z</time></trkpt><trkpt lat="46.21959633361297" lon="11.048517017005485"><ele>563.0</ele><time>2026-05-03T10:55:32.967Z</time></trkpt><trkpt lat="46.219645430449226" lon="11.048589186621998"><ele>563.0</ele><time>2026-05-03T10:55:33.967Z</time></trkpt><trkpt lat="46.21969688221991" lon="11.048660122714505"><ele>563.0</ele><time>2026-05-03T10:55:34.967Z</time></trkpt><trkpt lat="46.21974617329256" lon="11.04871810731861"><ele>563.0</ele><time>2026-05-03T10:55:35.967Z</time></trkpt><trkpt lat="46.219815895494136" lon="11.04879029441326"><ele>563.0</ele><time>2026-05-03T10:55:37.967Z</time></trkpt><trkpt lat="46.21985403162822" lon="11.048867978460931"><ele>555.0</ele><time>2026-05-03T10:55:40.967Z</time></trkpt><trkpt lat="46.21989065225326" lon="11.048957756060313"><ele>555.0</ele><time>2026-05-03T10:56:00.967Z</time></trkpt><trkpt lat="46.21983665778465" lon="11.048905556437195"><ele>555.0</ele><time>2026-05-03T10:57:14.966Z</time></trkpt><trkpt lat="46.219884530473095" lon="11.048976511548375"><ele>555.0</ele><time>2026-05-03T11:02:30.967Z</time></trkpt><trkpt lat="46.219882088502246" lon="11.049075522924928"><ele>555.0</ele><time>2026-05-03T11:02:45.967Z</time></trkpt><trkpt lat="46.219934867095205" lon="11.049126046222513"><ele>561.0</ele><time>2026-05-03T11:03:01.967Z</time></trkpt></trkseg><trkseg><trkpt lat="46.219860014322315" lon="11.048914685925455"><ele>555.0</ele><time>2026-05-03T12:56:56Z</time></trkpt><trkpt lat="46.21993382741339" lon="11.04896387522319"><ele>555.0</ele><time>2026-05-03T12:56:59Z</time></trkpt><trkpt lat="46.220045935855985" lon="11.049027746166987"><ele>555.0</ele><time>2026-05-03T12:57:02Z</time></trkpt><trkpt lat="46.22011852479899" lon="11.049059414426333"><ele>555.0</ele><time>2026-05-03T12:57:03Z</time></trkpt><trkpt lat="46.22019507099093" lon="11.049080997496949"><ele>555.0</ele><time>2026-05-03T12:57:04Z</time></trkpt><trkpt lat="46.2202767365144" lon="11.049129493049607"><ele>555.0</ele><time>2026-05-03T12:57:05Z</time></trkpt><trkpt lat="46.220378065858355" lon="11.049141801644295"><ele>554.0</ele><time>2026-05-03T12:57:06Z</time></trkpt><trkpt lat="46.22048905777061" lon="11.049142274834017"><ele>553.0</ele><time>2026-05-03T12:57:07Z</time></trkpt><trkpt lat="46.22061237201021" lon="11.0491385275063"><ele>552.0</ele><time>2026-05-03T12:57:08Z</time></trkpt><trkpt lat="46.220736854372134" lon="11.049135807560209"><ele>551.0</ele><time>2026-05-03T12:57:09Z</time></trkpt><trkpt lat="46.220873062400344" lon="11.049132999699173"><ele>548.5</ele><time>2026-05-03T12:57:10Z</time></trkpt><trkpt lat="46.22101748041524" lon="11.04910334192498"><ele>546.0</ele><time>2026-05-03T12:57:11Z</time></trkpt><trkpt lat="46.22115987343959" lon="11.049100116862288"><ele>543.5</ele><time>2026-05-03T12:57:12Z</time></trkpt><trkpt lat="46.22129756754364" lon="11.04909670303179"><ele>541.0</ele><time>2026-05-03T12:57:13Z</time></trkpt><trkpt lat="46.22142569211652" lon="11.049091368173201"><ele>537.0</ele><time>2026-05-03T12:57:14Z</time></trkpt><trkpt lat="46.221550107258174" lon="11.049062800916367"><ele>533.0</ele><time>2026-05-03T12:57:15Z</time></trkpt><trkpt lat="46.22167477936196" lon="11.049005372305428"><ele>529.0</ele><time>2026-05-03T12:57:16Z</time></trkpt><trkpt lat="46.22700729068049" lon="11.049528272093697"><ele>521.2</ele><time>2026-05-03T12:58:17Z</time></trkpt><trkpt lat="46.22695378494152" lon="11.049367051372084"><ele>513.4</ele><time>2026-05-03T12:58:18Z</time></trkpt><trkpt lat="46.22690578050876" lon="11.04921398481459"><ele>505.6</ele><time>2026-05-03T12:58:19Z</time></trkpt><trkpt lat="46.22686032687886" lon="11.049078089102201"><ele>497.8</ele><time>2026-05-03T12:58:20Z</time></trkpt><trkpt lat="46.226820811020346" lon="11.04896210623669"><ele>490.0</ele><time>2026-05-03T12:58:21Z</time></trkpt><trkpt lat="46.22678596211523" lon="11.048865590169294"><ele>489.1666666666667</ele><time>2026-05-03T12:58:22Z</time></trkpt><trkpt lat="46.22675482611817" lon="11.048767955935215"><ele>488.33333333333337</ele><time>2026-05-03T12:58:23Z</time></trkpt><trkpt lat="46.22674792325942" lon="11.048657979145672"><ele>487.5</ele><time>2026-05-03T12:58:24Z</time></trkpt><trkpt lat="46.22677998522633" lon="11.048554593380409"><ele>486.66666666666663</ele><time>2026-05-03T12:58:25Z</time></trkpt><trkpt lat="46.2268432821018" lon="11.04849408718373"><ele>485.8333333333333</ele><time>2026-05-03T12:58:26Z</time></trkpt><trkpt lat="46.226929241463914" lon="11.048491931369782"><ele>485.0</ele><time>2026-05-03T12:58:26.999Z</time></trkpt><trkpt lat="46.22701709807197" lon="11.04854382475136"><ele>485.0</ele><time>2026-05-03T12:58:27.999Z</time></trkpt><trkpt lat="46.227106409375054" lon="11.048639228018953"><ele>485.0</ele><time>2026-05-03T12:58:28.999Z</time></trkpt><trkpt lat="46.22718994459445" lon="11.048740754111922"><ele>485.0</ele><time>2026-05-03T12:58:29.999Z</time></trkpt><trkpt lat="46.227271190437214" lon="11.048834134139918"><ele>485.0</ele><time>2026-05-03T12:58:30.999Z</time></trkpt><trkpt lat="46.22735851867977" lon="11.048925900268328"><ele>485.0</ele><time>2026-05-03T12:58:31.999Z</time></trkpt><trkpt lat="46.227446721526896" lon="11.049021148322703"><ele>482.0</ele><time>2026-05-03T12:58:32.999Z</time></trkpt><trkpt lat="46.227540821364954" lon="11.049121423010972"><ele>479.0</ele><time>2026-05-03T12:58:33.999Z</time></trkpt><trkpt lat="46.22763906577708" lon="11.049225988013669"><ele>476.0</ele><time>2026-05-03T12:58:34.999Z</time></trkpt><trkpt lat="46.22774612214828" lon="11.04933693879133"><ele>473.0</ele><time>2026-05-03T12:58:35.999Z</time></trkpt><trkpt lat="46.227858030948646" lon="11.049454383780237"><ele>473.0</ele><time>2026-05-03T12:58:36.999Z</time></trkpt><trkpt lat="46.22797081854127" lon="11.04957869285206"><ele>473.0</ele><time>2026-05-03T12:58:37.999Z</time></trkpt><trkpt lat="46.22807366743207" lon="11.049704866577125"><ele>473.0</ele><time>2026-05-03T12:58:39Z</time></trkpt><trkpt lat="46.228169373080455" lon="11.049823919541854"><ele>473.0</ele><time>2026-05-03T12:58:40Z</time></trkpt><trkpt lat="46.2282608204846" lon="11.049931755195754"><ele>472.0</ele><time>2026-05-03T12:58:41Z</time></trkpt><trkpt lat="46.22835321227947" lon="11.050043707731332"><ele>471.0</ele><time>2026-05-03T12:58:42Z</time></trkpt><trkpt lat="46.22843934864289" lon="11.050169225502497"><ele>470.0</ele><time>2026-05-03T12:58:43Z</time></trkpt><trkpt lat="46.228518346210954" lon="11.050299374741531"><ele>469.0</ele><time>2026-05-03T12:58:44Z</time></trkpt><trkpt lat="46.22858936170861" lon="11.050434815536702"><ele>469.0</ele><time>2026-05-03T12:58:45.001Z</time></trkpt><trkpt lat="46.22865462732544" lon="11.05057360437116"><ele>469.0</ele><time>2026-05-03T12:58:46Z</time></trkpt><trkpt lat="46.22871434769179" lon="11.05071027876855"><ele>469.0</ele><time>2026-05-03T12:58:47Z</time></trkpt><trkpt lat="46.22876691027823" lon="11.050846359581222"><ele>469.0</ele><time>2026-05-03T12:58:48Z</time></trkpt><trkpt lat="46.22881345010014" lon="11.050979531330325"><ele>469.0</ele><time>2026-05-03T12:58:49Z</time></trkpt><trkpt lat="46.228851464592566" lon="11.051109629329241"><ele>470.0</ele><time>2026-05-03T12:58:50Z</time></trkpt><trkpt lat="46.228883318895065" lon="11.051244936040248"><ele>471.0</ele><time>2026-05-03T12:58:51Z</time></trkpt><trkpt lat="46.22891233389899" lon="11.051384731060516"><ele>472.0</ele><time>2026-05-03T12:58:52Z</time></trkpt><trkpt lat="46.228938035545205" lon="11.05153118317194"><ele>473.0</ele><time>2026-05-03T12:58:53Z</time></trkpt><trkpt lat="46.22896069963404" lon="11.051682245929406"><ele>474.0</ele><time>2026-05-03T12:58:54Z</time></trkpt><trkpt lat="46.22897668866565" lon="11.051842948470226"><ele>468.75</ele><time>2026-05-03T12:58:55Z</time></trkpt><trkpt lat="46.228992772759916" lon="11.052012807605587"><ele>463.5</ele><time>2026-05-03T12:58:56Z</time></trkpt><trkpt lat="46.22898998874072" lon="11.052190942126707"><ele>458.25</ele><time>2026-05-03T12:58:57Z</time></trkpt><trkpt lat="46.22900193017634" lon="11.052370785916292"><ele>453.0</ele><time>2026-05-03T12:58:58Z</time></trkpt><trkpt lat="46.22902321206053" lon="11.052553944563586"><ele>453.0</ele><time>2026-05-03T12:58:59Z</time></trkpt><trkpt lat="46.22906531383199" lon="11.05273332484985"><ele>453.0</ele><time>2026-05-03T12:59:00Z</time></trkpt><trkpt lat="46.22913511588241" lon="11.052903429493249"><ele>453.0</ele><time>2026-05-03T12:59:01Z</time></trkpt><trkpt lat="46.22922656474106" lon="11.053063856627553"><ele>453.0</ele><time>2026-05-03T12:59:02Z</time></trkpt><trkpt lat="46.22932929537329" lon="11.053212608088321"><ele>456.0</ele><time>2026-05-03T12:59:03Z</time></trkpt><trkpt lat="46.22943718186151" lon="11.053369078099472"><ele>459.0</ele><time>2026-05-03T12:59:04Z</time></trkpt><trkpt lat="46.229550485485646" lon="11.0535328712714"><ele>462.0</ele><time>2026-05-03T12:59:05Z</time></trkpt><trkpt lat="46.22967851136265" lon="11.053705715134162"><ele>455.0</ele><time>2026-05-03T12:59:06Z</time></trkpt><trkpt lat="46.229811866819446" lon="11.053902274711705"><ele>448.0</ele><time>2026-05-03T12:59:07Z</time></trkpt><trkpt lat="46.22994182007308" lon="11.054084589863006"><ele>441.0</ele><time>2026-05-03T12:59:08Z</time></trkpt><trkpt lat="46.23006813259339" lon="11.054259820963116"><ele>441.0</ele><time>2026-05-03T12:59:09Z</time></trkpt><trkpt lat="46.23019263620844" lon="11.054428699580095"><ele>441.0</ele><time>2026-05-03T12:59:10Z</time></trkpt><trkpt lat="46.23031970818136" lon="11.05459999582359"><ele>441.0</ele><time>2026-05-03T12:59:11Z</time></trkpt><trkpt lat="46.230456046420386" lon="11.054765073194357"><ele>441.0</ele><time>2026-05-03T12:59:12Z</time></trkpt><trkpt lat="46.230600896616245" lon="11.054926817921539"><ele>441.0</ele><time>2026-05-03T12:59:13Z</time></trkpt><trkpt lat="46.23074962904701" lon="11.055086550694602"><ele>441.0</ele><time>2026-05-03T12:59:14Z</time></trkpt><trkpt lat="46.230899976826876" lon="11.055244091654972"><ele>437.5</ele><time>2026-05-03T12:59:15Z</time></trkpt><trkpt lat="46.231052275602565" lon="11.055384917737523"><ele>434.0</ele><time>2026-05-03T12:59:16Z</time></trkpt><trkpt lat="46.23414033091358" lon="11.058293407972853"><ele>426.25</ele><time>2026-05-03T13:00:17.999Z</time></trkpt><trkpt lat="46.23402446285066" lon="11.058405734747726"><ele>418.5</ele><time>2026-05-03T13:00:18.999Z</time></trkpt><trkpt lat="46.23395218246616" lon="11.058546785735015"><ele>410.75</ele><time>2026-05-03T13:00:19.999Z</time></trkpt><trkpt lat="46.23391333478368" lon="11.058746393087326"><ele>403.0</ele><time>2026-05-03T13:00:20.999Z</time></trkpt><trkpt lat="46.23388215406395" lon="11.058962672928052"><ele>400.75</ele><time>2026-05-03T13:00:21.999Z</time></trkpt><trkpt lat="46.23381557563887" lon="11.05913868525905"><ele>398.5</ele><time>2026-05-03T13:00:22.999Z</time></trkpt><trkpt lat="46.233701289163164" lon="11.059263683948357"><ele>396.25</ele><time>2026-05-03T13:00:23.999Z</time></trkpt><trkpt lat="46.23356516815669" lon="11.059335714199438"><ele>394.0</ele><time>2026-05-03T13:00:24.999Z</time></trkpt><trkpt lat="46.23347799116441" lon="11.0594516355241"><ele>394.0</ele><time>2026-05-03T13:00:25.999Z</time></trkpt><trkpt lat="46.23345518951098" lon="11.059680403886906"><ele>394.0</ele><time>2026-05-03T13:00:26.999Z</time></trkpt><trkpt lat="46.23344919127815" lon="11.059897244879732"><ele>394.0</ele><time>2026-05-03T13:00:27.999Z</time></trkpt><trkpt lat="46.23345582673729" lon="11.060111212048872"><ele>388.79999999999995</ele><time>2026-05-03T13:00:28.999Z</time></trkpt><trkpt lat="46.23347074511098" lon="11.060275392539825"><ele>383.59999999999997</ele><time>2026-05-03T13:00:29.999Z</time></trkpt><trkpt lat="46.233526257995514" lon="11.060387320127827"><ele>378.4</ele><time>2026-05-03T13:00:30.999Z</time></trkpt><trkpt lat="46.23363086820022" lon="11.060374016720056"><ele>373.2</ele><time>2026-05-03T13:00:31.999Z</time></trkpt><trkpt lat="46.2337002362765" lon="11.060321576213408"><ele>368.0</ele><time>2026-05-03T13:00:32.999Z</time></trkpt><trkpt lat="46.233728567304524" lon="11.06022885228799"><ele>368.0</ele><time>2026-05-03T13:00:33.999Z</time></trkpt><trkpt lat="46.23370776058877" lon="11.059988496825056"><ele>368.0</ele><time>2026-05-03T13:00:36.999Z</time></trkpt><trkpt lat="46.23366587126519" lon="11.059775440728831"><ele>368.0</ele><time>2026-05-03T13:00:37.999Z</time></trkpt><trkpt lat="46.2337011771063" lon="11.059639240228591"><ele>368.0</ele><time>2026-05-03T13:00:38.999Z</time></trkpt><trkpt lat="46.2337829061053" lon="11.059564383217639"><ele>366.75</ele><time>2026-05-03T13:00:39.999Z</time></trkpt><trkpt lat="46.23389110231285" lon="11.059528987978249"><ele>365.5</ele><time>2026-05-03T13:00:40.999Z</time></trkpt><trkpt lat="46.23399991232861" lon="11.059470862433901"><ele>364.25</ele><time>2026-05-03T13:00:41.999Z</time></trkpt><trkpt lat="46.234083772269365" lon="11.05935843346415"><ele>363.0</ele><time>2026-05-03T13:00:42.999Z</time></trkpt><trkpt lat="46.2341529751044" lon="11.059199335425612"><ele>368.0</ele><time>2026-05-03T13:00:43.999Z</time></trkpt><trkpt lat="46.234210204283826" lon="11.0590266223711"><ele>373.0</ele><time>2026-05-03T13:00:45Z</time></trkpt><trkpt lat="46.23429510760613" lon="11.05889388454872"><ele>378.0</ele><time>2026-05-03T13:00:46Z</time></trkpt><trkpt lat="46.234400033260286" lon="11.058795329779803"><ele>383.0</ele><time>2026-05-03T13:00:47Z</time></trkpt><trkpt lat="46.23454306405063" lon="11.058739060569803"><ele>383.0</ele><time>2026-05-03T13:00:47.999Z</time></trkpt><trkpt lat="46.23468977046479" lon="11.058674373229753"><ele>383.0</ele><time>2026-05-03T13:00:49Z</time></trkpt><trkpt lat="46.23481371137827" lon="11.058607186691136"><ele>383.0</ele><time>2026-05-03T13:00:50Z</time></trkpt><trkpt lat="46.23491212284029" lon="11.05852210039899"><ele>383.0</ele><time>2026-05-03T13:00:51Z</time></trkpt><trkpt lat="46.235009169969686" lon="11.058360821564289"><ele>380.5</ele><time>2026-05-03T13:00:51.999Z</time></trkpt><trkpt lat="46.235095622624875" lon="11.058189013675067"><ele>378.0</ele><time>2026-05-03T13:00:52.999Z</time></trkpt><trkpt lat="46.235207776280106" lon="11.058051787337247"><ele>375.5</ele><time>2026-05-03T13:00:53.999Z</time></trkpt><trkpt lat="46.235336058948675" lon="11.057964421555035"><ele>373.0</ele><time>2026-05-03T13:00:54.999Z</time></trkpt><trkpt lat="46.23547383815149" lon="11.057930412958536"><ele>373.0</ele><time>2026-05-03T13:00:55.999Z</time></trkpt><trkpt lat="46.23560523341253" lon="11.057867045004018"><ele>373.0</ele><time>2026-05-03T13:00:56.999Z</time></trkpt><trkpt lat="46.2357248343653" lon="11.057749764384797"><ele>373.0</ele><time>2026-05-03T13:00:58Z</time></trkpt><trkpt lat="46.235823800279405" lon="11.057623046026174"><ele>373.0</ele><time>2026-05-03T13:00:58.999Z</time></trkpt><trkpt lat="46.23589869500993" lon="11.057498787098499"><ele>366.25</ele><time>2026-05-03T13:00:59.999Z</time></trkpt><trkpt lat="46.235969854538254" lon="11.057373016256951"><ele>359.5</ele><time>2026-05-03T13:01:00.999Z</time></trkpt><trkpt lat="46.235999708095264" lon="11.057208853014341"><ele>352.75</ele><time>2026-05-03T13:01:01.999Z</time></trkpt><trkpt lat="46.23597676946335" lon="11.057017803734121"><ele>346.0</ele><time>2026-05-03T13:01:02.999Z</time></trkpt><trkpt lat="46.235973378176226" lon="11.056816159525656"><ele>346.0</ele><time>2026-05-03T13:01:03.999Z</time></trkpt><trkpt lat="46.23596130341867" lon="11.056626484235252"><ele>346.0</ele><time>2026-05-03T13:01:04.999Z</time></trkpt><trkpt lat="46.23596615400216" lon="11.056455801015401"><ele>346.0</ele><time>2026-05-03T13:01:05.999Z</time></trkpt><trkpt lat="46.235981282873944" lon="11.056293285036327"><ele>346.0</ele><time>2026-05-03T13:01:06.999Z</time></trkpt><trkpt lat="46.23599343483721" lon="11.056146603820523"><ele>345.8</ele><time>2026-05-03T13:01:07.999Z</time></trkpt><trkpt lat="46.23600676098471" lon="11.056012516479234"><ele>345.6</ele><time>2026-05-03T13:01:08.999Z</time></trkpt><trkpt lat="46.23601783236642" lon="11.055878674326134"><ele>345.4</ele><time>2026-05-03T13:01:09.999Z</time></trkpt><trkpt lat="46.23603775129455" lon="11.055754544205493"><ele>345.2</ele><time>2026-05-03T13:01:10.999Z</time></trkpt><trkpt lat="46.236049055473075" lon="11.055647328954356"><ele>345.0</ele><time>2026-05-03T13:01:11.999Z</time></trkpt><trkpt lat="46.23614130281791" lon="11.055577351815014"><ele>340.6666666666667</ele><time>2026-05-03T13:01:13.999Z</time></trkpt><trkpt lat="46.23620513723341" lon="11.055613871380581"><ele>336.33333333333337</ele><time>2026-05-03T13:01:14.999Z</time></trkpt><trkpt lat="46.236228628077505" lon="11.055709021072863"><ele>332.0</ele><time>2026-05-03T13:01:15.999Z</time></trkpt><trkpt lat="46.23234441207115" lon="11.06211261103913"><ele>330.6666666666667</ele><time>2026-05-03T13:02:16.999Z</time></trkpt><trkpt lat="46.232313354480446" lon="11.062224198038566"><ele>329.33333333333337</ele><time>2026-05-03T13:02:17.999Z</time></trkpt><trkpt lat="46.23229370663441" lon="11.062363846750559"><ele>328.0</ele><time>2026-05-03T13:02:18.999Z</time></trkpt><trkpt lat="46.232303190043595" lon="11.062504818816489"><ele>326.6666666666667</ele><time>2026-05-03T13:02:19.999Z</time></trkpt><trkpt lat="46.23232732636547" lon="11.062624961691338"><ele>325.3333333333333</ele><time>2026-05-03T13:02:20.999Z</time></trkpt><trkpt lat="46.23235378530675" lon="11.062734811085468"><ele>324.0</ele><time>2026-05-03T13:02:21.999Z</time></trkpt><trkpt lat="46.23237589896492" lon="11.062847667654777"><ele>318.1666666666667</ele><time>2026-05-03T13:02:22.999Z</time></trkpt><trkpt lat="46.23240154235109" lon="11.062966417176803"><ele>312.3333333333333</ele><time>2026-05-03T13:02:23.999Z</time></trkpt><trkpt lat="46.232422155173566" lon="11.063091105299488"><ele>306.5</ele><time>2026-05-03T13:02:24.999Z</time></trkpt><trkpt lat="46.232423363474396" lon="11.063213881748974"><ele>300.66666666666663</ele><time>2026-05-03T13:02:25.999Z</time></trkpt><trkpt lat="46.23239420794587" lon="11.063322466112554"><ele>294.8333333333333</ele><time>2026-05-03T13:02:26.999Z</time></trkpt><trkpt lat="46.23235294866463" lon="11.063435460826781"><ele>289.0</ele><time>2026-05-03T13:02:27.999Z</time></trkpt><trkpt lat="46.23230002161653" lon="11.063547668068878"><ele>289.0</ele><time>2026-05-03T13:02:28.999Z</time></trkpt><trkpt lat="46.23225066048751" lon="11.063675174402713"><ele>289.0</ele><time>2026-05-03T13:02:29.999Z</time></trkpt><trkpt lat="46.23219937113529" lon="11.063817002508534"><ele>289.0</ele><time>2026-05-03T13:02:30.999Z</time></trkpt><trkpt lat="46.2321478165418" lon="11.063985517647284"><ele>289.0</ele><time>2026-05-03T13:02:31.999Z</time></trkpt><trkpt lat="46.232109904464295" lon="11.064181120943159"><ele>286.25</ele><time>2026-05-03T13:02:32.999Z</time></trkpt><trkpt lat="46.23208964804278" lon="11.064390673564345"><ele>283.5</ele><time>2026-05-03T13:02:33.999Z</time></trkpt><trkpt lat="46.232086863879296" lon="11.064599314011495"><ele>280.75</ele><time>2026-05-03T13:02:34.999Z</time></trkpt><trkpt lat="46.232094329427255" lon="11.064803061889975"><ele>278.0</ele><time>2026-05-03T13:02:35.999Z</time></trkpt><trkpt lat="46.23209684467237" lon="11.064992341233511"><ele>278.0</ele><time>2026-05-03T13:02:36.999Z</time></trkpt><trkpt lat="46.23210439783094" lon="11.065164335702029"><ele>278.0</ele><time>2026-05-03T13:02:37.999Z</time></trkpt><trkpt lat="46.23211006789497" lon="11.065330484341546"><ele>278.0</ele><time>2026-05-03T13:02:38.999Z</time></trkpt><trkpt lat="46.2321091165353" lon="11.065477562903427"><ele>278.0</ele><time>2026-05-03T13:02:39.999Z</time></trkpt><trkpt lat="46.232111744933086" lon="11.065638161767536"><ele>278.0</ele><time>2026-05-03T13:02:40.999Z</time></trkpt><trkpt lat="46.23211970715788" lon="11.065797417689241"><ele>279.6</ele><time>2026-05-03T13:02:41.999Z</time></trkpt><trkpt lat="46.232126381953705" lon="11.065960533854703"><ele>281.20000000000005</ele><time>2026-05-03T13:02:42.998Z</time></trkpt><trkpt lat="46.232138496299875" lon="11.066122527712151"><ele>282.8</ele><time>2026-05-03T13:02:43.998Z</time></trkpt><trkpt lat="46.232146053471176" lon="11.066275780694296"><ele>284.40000000000003</ele><time>2026-05-03T13:02:44.998Z</time></trkpt><trkpt lat="46.23215259647147" lon="11.066428810790407"><ele>286.0</ele><time>2026-05-03T13:02:45.997Z</time></trkpt><trkpt lat="46.23215796528996" lon="11.066585554602257"><ele>284.40000000000003</ele><time>2026-05-03T13:02:46.997Z</time></trkpt><trkpt lat="46.23216185816006" lon="11.066752930746018"><ele>282.8</ele><time>2026-05-03T13:02:47.997Z</time></trkpt><trkpt lat="46.232165217984495" lon="11.066911697556165"><ele>281.20000000000005</ele><time>2026-05-03T13:02:48.996Z</time></trkpt><trkpt lat="46.23217752074199" lon="11.06705030336895"><ele>279.6</ele><time>2026-05-03T13:02:49.996Z</time></trkpt><trkpt lat="46.23219252452326" lon="11.06718139285265"><ele>278.0</ele><time>2026-05-03T13:02:50.995Z</time></trkpt><trkpt lat="46.23220068465448" lon="11.067307864995266"><ele>278.0</ele><time>2026-05-03T13:02:51.996Z</time></trkpt><trkpt lat="46.23218970304635" lon="11.067435076629486"><ele>278.0</ele><time>2026-05-03T13:02:52.996Z</time></trkpt><trkpt lat="46.23215585734846" lon="11.067558035194049"><ele>278.0</ele><time>2026-05-03T13:02:53.995Z</time></trkpt><trkpt lat="46.23209694583444" lon="11.067660856197024"><ele>278.0</ele><time>2026-05-03T13:02:54.995Z</time></trkpt><trkpt lat="46.23201923782858" lon="11.067748970067692"><ele>278.0</ele><time>2026-05-03T13:02:55.995Z</time></trkpt><trkpt lat="46.23193470517661" lon="11.067838855796325"><ele>276.6</ele><time>2026-05-03T13:02:56.995Z</time></trkpt><trkpt lat="46.231845362366464" lon="11.067931083854194"><ele>275.20000000000005</ele><time>2026-05-03T13:02:57.994Z</time></trkpt><trkpt lat="46.23175584160189" lon="11.068035908497361"><ele>273.8</ele><time>2026-05-03T13:02:58.994Z</time></trkpt><trkpt lat="46.231668408281124" lon="11.06813139970919"><ele>272.40000000000003</ele><time>2026-05-03T13:02:59.994Z</time></trkpt><trkpt lat="46.231580708325666" lon="11.068224709344"><ele>271.0</ele><time>2026-05-03T13:03:00.994Z</time></trkpt><trkpt lat="46.23148189219614" lon="11.068317045530959"><ele>280.5</ele><time>2026-05-03T13:03:01.994Z</time></trkpt><trkpt lat="46.23135892219729" lon="11.06839564117697"><ele>290.0</ele><time>2026-05-03T13:03:02.994Z</time></trkpt><trkpt lat="46.23123967875488" lon="11.06846869123602"><ele>299.5</ele><time>2026-05-03T13:03:03.994Z</time></trkpt><trkpt lat="46.23113867361702" lon="11.068546456359064"><ele>309.0</ele><time>2026-05-03T13:03:04.994Z</time></trkpt><trkpt lat="46.231044107627206" lon="11.068642379220043"><ele>309.0</ele><time>2026-05-03T13:03:05.994Z</time></trkpt><trkpt lat="46.23096572784309" lon="11.068745159020057"><ele>309.0</ele><time>2026-05-03T13:03:06.994Z</time></trkpt><trkpt lat="46.23090427466789" lon="11.068858717511572"><ele>309.0</ele><time>2026-05-03T13:03:07.994Z</time></trkpt><trkpt lat="46.23086511738947" lon="11.068997543896169"><ele>309.0</ele><time>2026-05-03T13:03:08.993Z</time></trkpt><trkpt lat="46.23084418568461" lon="11.069155845792645"><ele>309.0</ele><time>2026-05-03T13:03:09.993Z</time></trkpt><trkpt lat="46.230842641449144" lon="11.06931844497967"><ele>308.0</ele><time>2026-05-03T13:03:10.993Z</time></trkpt><trkpt lat="46.23084520319367" lon="11.069472195119626"><ele>307.0</ele><time>2026-05-03T13:03:11.993Z</time></trkpt><trkpt lat="46.23082815710975" lon="11.069620442749516"><ele>306.0</ele><time>2026-05-03T13:03:12.993Z</time></trkpt><trkpt lat="46.230793499965415" lon="11.069761206180448"><ele>305.0</ele><time>2026-05-03T13:03:13.993Z</time></trkpt><trkpt lat="46.230722535544125" lon="11.06989255944108"><ele>304.0</ele><time>2026-05-03T13:03:14.993Z</time></trkpt><trkpt lat="46.23062553207538" lon="11.070011680083562"><ele>239.0</ele><time>2026-05-03T13:03:15.993Z</time></trkpt><trkpt lat="46.22566960192865" lon="11.079621304589658"><ele>243.33333333333334</ele><time>2026-05-03T13:04:16.992Z</time></trkpt><trkpt lat="46.225544662410464" lon="11.079784856428123"><ele>247.66666666666669</ele><time>2026-05-03T13:04:17.992Z</time></trkpt><trkpt lat="46.22541100729718" lon="11.079944097452074"><ele>252.0</ele><time>2026-05-03T13:04:18.992Z</time></trkpt><trkpt lat="46.22527783145049" lon="11.080091598801282"><ele>252.0</ele><time>2026-05-03T13:04:19.992Z</time></trkpt><trkpt lat="46.225144001736844" lon="11.080229250735869"><ele>252.0</ele><time>2026-05-03T13:04:20.992Z</time></trkpt><trkpt lat="46.225013110371755" lon="11.080356239739363"><ele>252.0</ele><time>2026-05-03T13:04:21.992Z</time></trkpt><trkpt lat="46.22488069370094" lon="11.080485511234063"><ele>249.33333333333331</ele><time>2026-05-03T13:04:22.992Z</time></trkpt><trkpt lat="46.22474030876942" lon="11.080609733474766"><ele>246.66666666666666</ele><time>2026-05-03T13:04:23.992Z</time></trkpt><trkpt lat="46.22458821979844" lon="11.080731042024258"><ele>244.0</ele><time>2026-05-03T13:04:24.992Z</time></trkpt><trkpt lat="46.22443961718128" lon="11.080835477541259"><ele>244.0</ele><time>2026-05-03T13:04:25.992Z</time></trkpt><trkpt lat="46.22429549468323" lon="11.080927107446627"><ele>244.0</ele><time>2026-05-03T13:04:26.992Z</time></trkpt><trkpt lat="46.224147476014274" lon="11.081012988043483"><ele>244.0</ele><time>2026-05-03T13:04:27.992Z</time></trkpt><trkpt lat="46.22399321375002" lon="11.08109779902524"><ele>251.66666666666666</ele><time>2026-05-03T13:04:28.992Z</time></trkpt><trkpt lat="46.22383364182214" lon="11.081172234638535"><ele>259.3333333333333</ele><time>2026-05-03T13:04:29.991Z</time></trkpt><trkpt lat="46.22367060537811" lon="11.081232702448526"><ele>267.0</ele><time>2026-05-03T13:04:30.991Z</time></trkpt><trkpt lat="46.22350529117372" lon="11.081284742395692"><ele>267.0</ele><time>2026-05-03T13:04:31.991Z</time></trkpt><trkpt lat="46.223333871609185" lon="11.081337203324118"><ele>267.0</ele><time>2026-05-03T13:04:32.991Z</time></trkpt><trkpt lat="46.223146140651814" lon="11.08136444691501"><ele>267.0</ele><time>2026-05-03T13:04:33.991Z</time></trkpt><trkpt lat="46.22295229323164" lon="11.08140465113854"><ele>295.0</ele><time>2026-05-03T13:04:34.991Z</time></trkpt><trkpt lat="46.22275247804168" lon="11.081436060222448"><ele>323.0</ele><time>2026-05-03T13:04:35.991Z</time></trkpt><trkpt lat="46.22253744827129" lon="11.081454309362586"><ele>351.0</ele><time>2026-05-03T13:04:36.991Z</time></trkpt><trkpt lat="46.22232147051523" lon="11.08146018889628"><ele>373.66666666666663</ele><time>2026-05-03T13:04:37.991Z</time></trkpt><trkpt lat="46.22210710053793" lon="11.08145467137474"><ele>396.3333333333333</ele><time>2026-05-03T13:04:38.991Z</time></trkpt><trkpt lat="46.2218839887453" lon="11.081431446765855"><ele>419.0</ele><time>2026-05-03T13:04:39.991Z</time></trkpt><trkpt lat="46.22164301329449" lon="11.081391801991652"><ele>434.0</ele><time>2026-05-03T13:04:40.991Z</time></trkpt><trkpt lat="46.22139937954364" lon="11.081341933058171"><ele>449.0</ele><time>2026-05-03T13:04:41.991Z</time></trkpt><trkpt lat="46.22116484130078" lon="11.081270962373951"><ele>507.0</ele><time>2026-05-03T13:04:42.991Z</time></trkpt><trkpt lat="46.219342316516375" lon="11.080445061697771"><ele>531.0</ele><time>2026-05-03T13:04:48.107Z</time></trkpt><trkpt lat="46.21860594463628" lon="11.080421935177723"><ele>557.0</ele><time>2026-05-03T13:04:49.111Z</time></trkpt><trkpt lat="46.217882386828414" lon="11.080605464158609"><ele>589.0</ele><time>2026-05-03T13:04:50.111Z</time></trkpt><trkpt lat="46.21717144202508" lon="11.080744444071183"><ele>616.0</ele><time>2026-05-03T13:04:51.108Z</time></trkpt><trkpt lat="46.21645586577342" lon="11.080872325451873"><ele>616.0</ele><time>2026-05-03T13:04:52.11Z</time></trkpt><trkpt lat="46.21574072579344" lon="11.080995405426306"><ele>640.0</ele><time>2026-05-03T13:04:53.111Z</time></trkpt><trkpt lat="46.215027449272924" lon="11.08113566217906"><ele>661.0</ele><time>2026-05-03T13:04:54.111Z</time></trkpt><trkpt lat="46.21431682485598" lon="11.081296909713263"><ele>693.0</ele><time>2026-05-03T13:04:55.111Z</time></trkpt><trkpt lat="46.213605979644434" lon="11.081432444264703"><ele>719.0</ele><time>2026-05-03T13:04:56.107Z</time></trkpt><trkpt lat="46.21289029799183" lon="11.08156513645053"><ele>709.0</ele><time>2026-05-03T13:04:57.11Z</time></trkpt><trkpt lat="46.21217496629204" lon="11.081689051234761"><ele>729.0</ele><time>2026-05-03T13:04:58.111Z</time></trkpt><trkpt lat="46.21146241974487" lon="11.08183519930994"><ele>729.0</ele><time>2026-05-03T13:04:59.111Z</time></trkpt><trkpt lat="46.2107518370361" lon="11.081991990307897"><ele>753.0</ele><time>2026-05-03T13:05:00.11Z</time></trkpt><trkpt lat="46.21004428294197" lon="11.082179391088188"><ele>777.0</ele><time>2026-05-03T13:05:01.109Z</time></trkpt><trkpt lat="46.20934121315803" lon="11.082396121458311"><ele>738.0</ele><time>2026-05-03T13:05:02.108Z</time></trkpt><trkpt lat="46.208642588681826" lon="11.08265114234233"><ele>729.0</ele><time>2026-05-03T13:05:03.11Z</time></trkpt><trkpt lat="46.207951237300996" lon="11.082930094283817"><ele>700.0</ele><time>2026-05-03T13:05:04.107Z</time></trkpt><trkpt lat="46.20726378240745" lon="11.083243155379169"><ele>674.0</ele><time>2026-05-03T13:05:05.109Z</time></trkpt><trkpt lat="46.20658737065206" lon="11.083593005904815"><ele>659.0</ele><time>2026-05-03T13:05:06.108Z</time></trkpt><trkpt lat="46.205916086936355" lon="11.083972321205273"><ele>654.0</ele><time>2026-05-03T13:05:07.11Z</time></trkpt><trkpt lat="46.20525456182142" lon="11.08437623641182"><ele>676.0</ele><time>2026-05-03T13:05:08.108Z</time></trkpt><trkpt lat="46.204604286579965" lon="11.084817418078309"><ele>650.0</ele><time>2026-05-03T13:05:09.107Z</time></trkpt><trkpt lat="46.203961305922014" lon="11.08528398394605"><ele>641.0</ele><time>2026-05-03T13:05:10.108Z</time></trkpt><trkpt lat="46.203329561737206" lon="11.08577941616483"><ele>652.0</ele><time>2026-05-03T13:05:11.107Z</time></trkpt><trkpt lat="46.202703521326875" lon="11.086298353190983"><ele>687.0</ele><time>2026-05-03T13:05:12.111Z</time></trkpt><trkpt lat="46.20209032157254" lon="11.086840162896628"><ele>703.0</ele><time>2026-05-03T13:05:13.11Z</time></trkpt><trkpt lat="46.20147836687438" lon="11.087386358927617"><ele>747.0</ele><time>2026-05-03T13:05:14.111Z</time></trkpt><trkpt lat="46.20086966119841" lon="11.087937503309162"><ele>810.0</ele><time>2026-05-03T13:05:15.11Z</time></trkpt><trkpt lat="46.200258981094954" lon="11.088488323963569"><ele>810.0</ele><time>2026-05-03T13:05:16.111Z</time></trkpt><trkpt lat="46.193685984278524" lon="11.094814672802801"><ele>810.0</ele><time>2026-05-03T13:05:27.107Z</time></trkpt><trkpt lat="46.193139433986204" lon="11.095265497880309"><ele>810.0</ele><time>2026-05-03T13:05:28.108Z</time></trkpt><trkpt lat="46.19259396831004" lon="11.095721888079195"><ele>208.0</ele><time>2026-05-03T13:05:29.11Z</time></trkpt><trkpt lat="46.19191496915955" lon="11.096957575372771"><ele>209.0</ele><time>2026-05-03T13:06:38.75Z</time></trkpt><trkpt lat="46.19150098996137" lon="11.097467856957168"><ele>209.0</ele><time>2026-05-03T13:06:41.99Z</time></trkpt><trkpt lat="46.19134554451622" lon="11.097470596292254"><ele>209.0</ele><time>2026-05-03T13:06:42.99Z</time></trkpt><trkpt lat="46.19126293190478" lon="11.097804959949704"><ele>209.0</ele><time>2026-05-03T13:06:43.99Z</time></trkpt><trkpt lat="46.19118627247764" lon="11.098134271924444"><ele>208.5</ele><time>2026-05-03T13:06:44.99Z</time></trkpt><trkpt lat="46.1911427372743" lon="11.09845914829842"><ele>208.0</ele><time>2026-05-03T13:06:45.99Z</time></trkpt><trkpt lat="46.19112609273562" lon="11.098816251984967"><ele>208.5</ele><time>2026-05-03T13:06:46.99Z</time></trkpt><trkpt lat="46.19113572363817" lon="11.099152073316045"><ele>209.0</ele><time>2026-05-03T13:06:47.99Z</time></trkpt><trkpt lat="46.1911463577296" lon="11.099480830880793"><ele>209.0</ele><time>2026-05-03T13:06:48.991Z</time></trkpt><trkpt lat="46.19115156614204" lon="11.099799869065588"><ele>209.0</ele><time>2026-05-03T13:06:49.991Z</time></trkpt><trkpt lat="46.191132804287875" lon="11.100121542743839"><ele>209.0</ele><time>2026-05-03T13:06:50.991Z</time></trkpt><trkpt lat="46.19108479876173" lon="11.100431631043708"><ele>209.0</ele><time>2026-05-03T13:06:51.99Z</time></trkpt><trkpt lat="46.190982825524166" lon="11.100724910676957"><ele>209.0</ele><time>2026-05-03T13:06:52.99Z</time></trkpt><trkpt lat="46.19087685156746" lon="11.100997082319383"><ele>209.0</ele><time>2026-05-03T13:06:53.99Z</time></trkpt><trkpt lat="46.19074856447206" lon="11.10125382901952"><ele>208.33333333333334</ele><time>2026-05-03T13:06:54.991Z</time></trkpt><trkpt lat="46.19059472572057" lon="11.101493170557463"><ele>207.66666666666669</ele><time>2026-05-03T13:06:55.991Z</time></trkpt><trkpt lat="46.19042541878317" lon="11.101696186679883"><ele>207.0</ele><time>2026-05-03T13:06:56.991Z</time></trkpt><trkpt lat="46.190250216940996" lon="11.101859255495"><ele>206.66666666666669</ele><time>2026-05-03T13:06:57.991Z</time></trkpt><trkpt lat="46.190072625480475" lon="11.1019895459007"><ele>206.33333333333334</ele><time>2026-05-03T13:06:58.991Z</time></trkpt><trkpt lat="46.189895459559246" lon="11.102081252104323"><ele>206.0</ele><time>2026-05-03T13:06:59.99Z</time></trkpt><trkpt lat="46.18970218285064" lon="11.102149013712534"><ele>207.33333333333334</ele><time>2026-05-03T13:07:00.99Z</time></trkpt><trkpt lat="46.18950799145208" lon="11.10218389586603"><ele>208.66666666666669</ele><time>2026-05-03T13:07:01.99Z</time></trkpt><trkpt lat="46.18932491089581" lon="11.102193440000995"><ele>210.0</ele><time>2026-05-03T13:07:02.99Z</time></trkpt><trkpt lat="46.18914250791559" lon="11.102228583733396"><ele>210.0</ele><time>2026-05-03T13:07:03.99Z</time></trkpt><trkpt lat="46.18895960910237" lon="11.102177378319013"><ele>210.0</ele><time>2026-05-03T13:07:04.99Z</time></trkpt><trkpt lat="46.188777976075144" lon="11.102086687278387"><ele>210.0</ele><time>2026-05-03T13:07:05.99Z</time></trkpt><trkpt lat="46.188603327597086" lon="11.10197025535958"><ele>210.0</ele><time>2026-05-03T13:07:06.99Z</time></trkpt><trkpt lat="46.18843184798069" lon="11.101825808912286"><ele>210.0</ele><time>2026-05-03T13:07:07.99Z</time></trkpt><trkpt lat="46.18826608080695" lon="11.101657950812656"><ele>210.0</ele><time>2026-05-03T13:07:08.99Z</time></trkpt><trkpt lat="46.1881102471055" lon="11.101459323522809"><ele>209.33333333333331</ele><time>2026-05-03T13:07:09.99Z</time></trkpt><trkpt lat="46.18797285354654" lon="11.10125593395201"><ele>208.66666666666666</ele><time>2026-05-03T13:07:10.99Z</time></trkpt><trkpt lat="46.18785168951711" lon="11.101052164799643"><ele>208.0</ele><time>2026-05-03T13:07:11.99Z</time></trkpt><trkpt lat="46.18773710432407" lon="11.100845844213598"><ele>206.66666666666666</ele><time>2026-05-03T13:07:12.99Z</time></trkpt><trkpt lat="46.18762087598381" lon="11.100641294966202"><ele>205.33333333333331</ele><time>2026-05-03T13:07:13.99Z</time></trkpt><trkpt lat="46.18749702449716" lon="11.10044108293777"><ele>204.0</ele><time>2026-05-03T13:07:14.99Z</time></trkpt><trkpt lat="46.1873678932946" lon="11.10024275931503"><ele>200.0</ele><time>2026-05-03T13:07:15.99Z</time></trkpt><trkpt lat="46.17522671321396" lon="11.09189487107909"><ele>200.0</ele><time>2026-05-03T13:08:16.989Z</time></trkpt><trkpt lat="46.17502972611799" lon="11.09175875393469"><ele>200.0</ele><time>2026-05-03T13:08:17.989Z</time></trkpt><trkpt lat="46.17482481392197" lon="11.091615573050387"><ele>200.0</ele><time>2026-05-03T13:08:18.989Z</time></trkpt><trkpt lat="46.17461594391856" lon="11.091463193379605"><ele>201.0</ele><time>2026-05-03T13:08:19.989Z</time></trkpt><trkpt lat="46.1744061862796" lon="11.091307374599273"><ele>202.0</ele><time>2026-05-03T13:08:20.989Z</time></trkpt><trkpt lat="46.17421196527686" lon="11.091161974060489"><ele>202.0</ele><time>2026-05-03T13:08:21.989Z</time></trkpt><trkpt lat="46.17402390435426" lon="11.091016476355874"><ele>202.0</ele><time>2026-05-03T13:08:22.989Z</time></trkpt><trkpt lat="46.17383394154599" lon="11.090868829973918"><ele>202.0</ele><time>2026-05-03T13:08:23.989Z</time></trkpt><trkpt lat="46.173643154826486" lon="11.090720745605283"><ele>202.0</ele><time>2026-05-03T13:08:24.989Z</time></trkpt><trkpt lat="46.17344973062985" lon="11.090570446412324"><ele>202.0</ele><time>2026-05-03T13:08:25.989Z</time></trkpt><trkpt lat="46.17325869402615" lon="11.090412456507213"><ele>202.0</ele><time>2026-05-03T13:08:26.989Z</time></trkpt><trkpt lat="46.17307523668483" lon="11.09025589335607"><ele>202.0</ele><time>2026-05-03T13:08:27.989Z</time></trkpt><trkpt lat="46.17290375722577" lon="11.0901096268414"><ele>202.0</ele><time>2026-05-03T13:08:28.989Z</time></trkpt><trkpt lat="46.172733902147414" lon="11.089964669260462"><ele>202.0</ele><time>2026-05-03T13:08:29.989Z</time></trkpt><trkpt lat="46.172557683568336" lon="11.089813642429087"><ele>201.66666666666666</ele><time>2026-05-03T13:08:30.989Z</time></trkpt><trkpt lat="46.17237611232016" lon="11.089654818656067"><ele>201.33333333333331</ele><time>2026-05-03T13:08:31.989Z</time></trkpt><trkpt lat="46.172192240397166" lon="11.08949033390723"><ele>201.0</ele><time>2026-05-03T13:08:32.989Z</time></trkpt><trkpt lat="46.1720175846088" lon="11.089325511779592"><ele>200.66666666666669</ele><time>2026-05-03T13:08:33.989Z</time></trkpt><trkpt lat="46.17183751038888" lon="11.089165851637405"><ele>200.33333333333334</ele><time>2026-05-03T13:08:34.989Z</time></trkpt><trkpt lat="46.171658759153246" lon="11.088996779817247"><ele>200.0</ele><time>2026-05-03T13:08:35.989Z</time></trkpt><trkpt lat="46.1714810379442" lon="11.08882000043483"><ele>200.66666666666669</ele><time>2026-05-03T13:08:36.989Z</time></trkpt><trkpt lat="46.171304310754216" lon="11.08864803604993"><ele>201.33333333333331</ele><time>2026-05-03T13:08:37.989Z</time></trkpt><trkpt lat="46.171139976334814" lon="11.088485905443658"><ele>202.0</ele><time>2026-05-03T13:08:38.989Z</time></trkpt><trkpt lat="46.17098434420132" lon="11.088321424473275"><ele>202.0</ele><time>2026-05-03T13:08:39.989Z</time></trkpt><trkpt lat="46.170828425394454" lon="11.088153413073634"><ele>202.0</ele><time>2026-05-03T13:08:40.989Z</time></trkpt><trkpt lat="46.170675209909824" lon="11.087980795243265"><ele>202.0</ele><time>2026-05-03T13:08:41.989Z</time></trkpt><trkpt lat="46.170526651216676" lon="11.087822964283069"><ele>202.33333333333331</ele><time>2026-05-03T13:08:42.989Z</time></trkpt><trkpt lat="46.17038296677812" lon="11.08766944728438"><ele>202.66666666666669</ele><time>2026-05-03T13:08:43.989Z</time></trkpt><trkpt lat="46.170248356194406" lon="11.087523312841444"><ele>203.0</ele><time>2026-05-03T13:08:44.989Z</time></trkpt><trkpt lat="46.17012044483368" lon="11.087384302933412"><ele>203.0</ele><time>2026-05-03T13:08:45.989Z</time></trkpt><trkpt lat="46.169996898456006" lon="11.087243115859456"><ele>203.0</ele><time>2026-05-03T13:08:46.989Z</time></trkpt><trkpt lat="46.16987531365648" lon="11.087108164373182"><ele>203.0</ele><time>2026-05-03T13:08:47.989Z</time></trkpt><trkpt lat="46.1697534101121" lon="11.086974957993386"><ele>202.0</ele><time>2026-05-03T13:08:48.989Z</time></trkpt><trkpt lat="46.16963224304705" lon="11.086836339669922"><ele>201.0</ele><time>2026-05-03T13:08:49.989Z</time></trkpt><trkpt lat="46.169506946229596" lon="11.086689692925471"><ele>200.0</ele><time>2026-05-03T13:08:50.989Z</time></trkpt><trkpt lat="46.169367743781486" lon="11.086531874753835"><ele>200.0</ele><time>2026-05-03T13:08:51.989Z</time></trkpt><trkpt lat="46.1692199832603" lon="11.086372046712345"><ele>200.0</ele><time>2026-05-03T13:08:52.989Z</time></trkpt><trkpt lat="46.16907559657881" lon="11.086219944657559"><ele>200.0</ele><time>2026-05-03T13:08:53.99Z</time></trkpt><trkpt lat="46.16893101337928" lon="11.086067099577589"><ele>200.0</ele><time>2026-05-03T13:08:54.99Z</time></trkpt><trkpt lat="46.16877729423691" lon="11.085906284927056"><ele>200.0</ele><time>2026-05-03T13:08:55.99Z</time></trkpt><trkpt lat="46.1686159058455" lon="11.085737847321072"><ele>200.0</ele><time>2026-05-03T13:08:56.99Z</time></trkpt><trkpt lat="46.168463539206066" lon="11.085575761801083"><ele>199.66666666666669</ele><time>2026-05-03T13:08:57.99Z</time></trkpt><trkpt lat="46.168311104801326" lon="11.085412378628728"><ele>199.33333333333331</ele><time>2026-05-03T13:08:58.99Z</time></trkpt><trkpt lat="46.16815342159259" lon="11.085242308477307"><ele>199.0</ele><time>2026-05-03T13:08:59.99Z</time></trkpt><trkpt lat="46.16799048142575" lon="11.085067794810886"><ele>199.66666666666666</ele><time>2026-05-03T13:09:00.99Z</time></trkpt><trkpt lat="46.167829716404086" lon="11.08489747463624"><ele>200.33333333333331</ele><time>2026-05-03T13:09:01.99Z</time></trkpt><trkpt lat="46.16767164833079" lon="11.084725223681087"><ele>201.0</ele><time>2026-05-03T13:09:02.99Z</time></trkpt><trkpt lat="46.167512129587905" lon="11.084551416328583"><ele>200.66666666666669</ele><time>2026-05-03T13:09:03.99Z</time></trkpt><trkpt lat="46.16735523401812" lon="11.084378334952278"><ele>200.33333333333334</ele><time>2026-05-03T13:09:04.99Z</time></trkpt><trkpt lat="46.16719101259608" lon="11.084201325761592"><ele>200.0</ele><time>2026-05-03T13:09:05.99Z</time></trkpt><trkpt lat="46.167034387100635" lon="11.08403588819277"><ele>199.0</ele><time>2026-05-03T13:09:06.99Z</time></trkpt><trkpt lat="46.166873526707576" lon="11.08386781387308"><ele>198.0</ele><time>2026-05-03T13:09:07.99Z</time></trkpt><trkpt lat="46.16672582688544" lon="11.083679088905594"><ele>197.0</ele><time>2026-05-03T13:09:08.99Z</time></trkpt><trkpt lat="46.16656324428283" lon="11.083503354995164"><ele>197.66666666666669</ele><time>2026-05-03T13:09:09.99Z</time></trkpt><trkpt lat="46.16639728365064" lon="11.083350636215801"><ele>198.33333333333331</ele><time>2026-05-03T13:09:10.99Z</time></trkpt><trkpt lat="46.16622910774675" lon="11.083166229085482"><ele>199.0</ele><time>2026-05-03T13:09:11.99Z</time></trkpt><trkpt lat="46.16605430238965" lon="11.082977875416612"><ele>199.0</ele><time>2026-05-03T13:09:12.99Z</time></trkpt><trkpt lat="46.16589149747811" lon="11.08278064496875"><ele>199.0</ele><time>2026-05-03T13:09:13.99Z</time></trkpt><trkpt lat="46.16571954491258" lon="11.082602961814901"><ele>199.0</ele><time>2026-05-03T13:09:14.99Z</time></trkpt><trkpt lat="46.16554704709475" lon="11.082430346465028"><ele>197.0</ele><time>2026-05-03T13:09:15.99Z</time></trkpt><trkpt lat="46.1571489211633" lon="11.078559990130811"><ele>197.0</ele><time>2026-05-03T13:10:16.989Z</time></trkpt><trkpt lat="46.15707118910905" lon="11.078517356379272"><ele>197.0</ele><time>2026-05-03T13:10:18.989Z</time></trkpt><trkpt lat="46.15699327334477" lon="11.07839844544207"><ele>197.0</ele><time>2026-05-03T13:10:20.989Z</time></trkpt><trkpt lat="46.15691968514016" lon="11.078249081139056"><ele>197.0</ele><time>2026-05-03T13:10:22.989Z</time></trkpt><trkpt lat="46.15685789382481" lon="11.078178593730328"><ele>197.0</ele><time>2026-05-03T13:10:23.989Z</time></trkpt><trkpt lat="46.156778900569726" lon="11.078128839673418"><ele>197.2</ele><time>2026-05-03T13:10:24.989Z</time></trkpt><trkpt lat="46.15668652809634" lon="11.07809753189503"><ele>197.39999999999998</ele><time>2026-05-03T13:10:25.989Z</time></trkpt><trkpt lat="46.1565828063889" lon="11.078080692735966"><ele>197.60000000000002</ele><time>2026-05-03T13:10:26.989Z</time></trkpt><trkpt lat="46.15648460711192" lon="11.078046829502382"><ele>197.8</ele><time>2026-05-03T13:10:27.989Z</time></trkpt><trkpt lat="46.156389103548186" lon="11.07795074525041"><ele>198.0</ele><time>2026-05-03T13:10:28.989Z</time></trkpt><trkpt lat="46.15630520890917" lon="11.077820873029658"><ele>198.0</ele><time>2026-05-03T13:10:29.989Z</time></trkpt><trkpt lat="46.15621342050682" lon="11.077689150775667"><ele>198.0</ele><time>2026-05-03T13:10:30.989Z</time></trkpt><trkpt lat="46.15609727999067" lon="11.077572623169036"><ele>198.0</ele><time>2026-05-03T13:10:31.989Z</time></trkpt><trkpt lat="46.15596951597131" lon="11.07745685048591"><ele>198.0</ele><time>2026-05-03T13:10:32.989Z</time></trkpt><trkpt lat="46.155832506667984" lon="11.077343900356789"><ele>198.0</ele><time>2026-05-03T13:10:33.989Z</time></trkpt><trkpt lat="46.155690456411484" lon="11.077239928090018"><ele>198.0</ele><time>2026-05-03T13:10:34.989Z</time></trkpt><trkpt lat="46.15554595158774" lon="11.07714769057732"><ele>198.0</ele><time>2026-05-03T13:10:35.989Z</time></trkpt><trkpt lat="46.15539974165602" lon="11.07706475033388"><ele>198.0</ele><time>2026-05-03T13:10:36.989Z</time></trkpt><trkpt lat="46.15525106762303" lon="11.076988792500389"><ele>198.0</ele><time>2026-05-03T13:10:37.989Z</time></trkpt><trkpt lat="46.15510193469083" lon="11.076930025614757"><ele>198.0</ele><time>2026-05-03T13:10:38.989Z</time></trkpt><trkpt lat="46.15495710123754" lon="11.076884350527413"><ele>198.5</ele><time>2026-05-03T13:10:39.989Z</time></trkpt><trkpt lat="46.154808375574305" lon="11.076837849594668"><ele>199.0</ele><time>2026-05-03T13:10:40.989Z</time></trkpt><trkpt lat="46.15466013840763" lon="11.076809051512194"><ele>199.5</ele><time>2026-05-03T13:10:41.989Z</time></trkpt><trkpt lat="46.154516606013445" lon="11.076787079123905"><ele>200.0</ele><time>2026-05-03T13:10:42.989Z</time></trkpt><trkpt lat="46.15437440730204" lon="11.076779853580893"><ele>200.0</ele><time>2026-05-03T13:10:43.989Z</time></trkpt><trkpt lat="46.154237957563" lon="11.07676436297062"><ele>200.0</ele><time>2026-05-03T13:10:44.989Z</time></trkpt><trkpt lat="46.15410498078909" lon="11.076759433636054"><ele>200.0</ele><time>2026-05-03T13:10:45.989Z</time></trkpt><trkpt lat="46.15394566678984" lon="11.076760994376713"><ele>200.0</ele><time>2026-05-03T13:10:46.989Z</time></trkpt><trkpt lat="46.1537737652935" lon="11.076771806849344"><ele>199.66666666666669</ele><time>2026-05-03T13:10:47.989Z</time></trkpt><trkpt lat="46.15360221109519" lon="11.076778986361404"><ele>199.33333333333331</ele><time>2026-05-03T13:10:48.989Z</time></trkpt><trkpt lat="46.15341939182245" lon="11.076790182772168"><ele>199.0</ele><time>2026-05-03T13:10:49.989Z</time></trkpt><trkpt lat="46.15323070462381" lon="11.07679519056805"><ele>198.33333333333331</ele><time>2026-05-03T13:10:50.989Z</time></trkpt><trkpt lat="46.153044411289386" lon="11.076809712772157"><ele>197.66666666666669</ele><time>2026-05-03T13:10:51.989Z</time></trkpt><trkpt lat="46.1528671507954" lon="11.076831630569774"><ele>197.0</ele><time>2026-05-03T13:10:52.989Z</time></trkpt><trkpt lat="46.15268639507994" lon="11.076852803910132"><ele>197.0</ele><time>2026-05-03T13:10:53.989Z</time></trkpt><trkpt lat="46.152505012050504" lon="11.076864014691123"><ele>197.0</ele><time>2026-05-03T13:10:54.989Z</time></trkpt><trkpt lat="46.152337732446846" lon="11.076878155705156"><ele>197.0</ele><time>2026-05-03T13:10:55.989Z</time></trkpt><trkpt lat="46.15216087352806" lon="11.076894139192092"><ele>197.0</ele><time>2026-05-03T13:10:56.989Z</time></trkpt><trkpt lat="46.15198486137756" lon="11.076909381332223"><ele>197.0</ele><time>2026-05-03T13:10:57.989Z</time></trkpt><trkpt lat="46.15180137272987" lon="11.076898449606036"><ele>197.0</ele><time>2026-05-03T13:10:58.99Z</time></trkpt><trkpt lat="46.15162045917939" lon="11.076910864235263"><ele>197.66666666666669</ele><time>2026-05-03T13:10:59.989Z</time></trkpt><trkpt lat="46.1514319663037" lon="11.07692361256589"><ele>198.33333333333331</ele><time>2026-05-03T13:11:00.989Z</time></trkpt><trkpt lat="46.151238535568496" lon="11.07693805230982"><ele>199.0</ele><time>2026-05-03T13:11:01.99Z</time></trkpt><trkpt lat="46.151043953097606" lon="11.07695306891903"><ele>199.0</ele><time>2026-05-03T13:11:02.989Z</time></trkpt><trkpt lat="46.15084764114037" lon="11.076968147458313"><ele>199.0</ele><time>2026-05-03T13:11:03.989Z</time></trkpt><trkpt lat="46.15065611008487" lon="11.076981796230648"><ele>199.0</ele><time>2026-05-03T13:11:04.989Z</time></trkpt><trkpt lat="46.15046792500437" lon="11.076995206569567"><ele>199.0</ele><time>2026-05-03T13:11:05.99Z</time></trkpt><trkpt lat="46.15027538296322" lon="11.077011542706051"><ele>199.0</ele><time>2026-05-03T13:11:06.99Z</time></trkpt><trkpt lat="46.15007858336525" lon="11.077034533783852"><ele>199.0</ele><time>2026-05-03T13:11:07.988Z</time></trkpt><trkpt lat="46.14988944837382" lon="11.077084013142418"><ele>198.33333333333331</ele><time>2026-05-03T13:11:08.989Z</time></trkpt><trkpt lat="46.14969750045972" lon="11.077123678930858"><ele>197.66666666666669</ele><time>2026-05-03T13:11:09.989Z</time></trkpt><trkpt lat="46.14950034503958" lon="11.077189901915915"><ele>197.0</ele><time>2026-05-03T13:11:10.989Z</time></trkpt><trkpt lat="46.149304649824046" lon="11.0772527731912"><ele>197.0</ele><time>2026-05-03T13:11:11.989Z</time></trkpt><trkpt lat="46.149118098009914" lon="11.077330920940485"><ele>197.0</ele><time>2026-05-03T13:11:12.989Z</time></trkpt><trkpt lat="46.148944798706246" lon="11.077417686803104"><ele>197.0</ele><time>2026-05-03T13:11:13.989Z</time></trkpt><trkpt lat="46.14877041906587" lon="11.07752130496047"><ele>196.5</ele><time>2026-05-03T13:11:14.989Z</time></trkpt><trkpt lat="46.14860574533576" lon="11.077632123925602"><ele>196.0</ele><time>2026-05-03T13:11:15.989Z</time></trkpt><trkpt lat="46.13894026393731" lon="11.08436583496081"><ele>196.0</ele><time>2026-05-03T13:12:16.989Z</time></trkpt><trkpt lat="46.138767823046734" lon="11.084405148621714"><ele>196.0</ele><time>2026-05-03T13:12:17.989Z</time></trkpt><trkpt lat="46.13858448240504" lon="11.084435605034832"><ele>196.0</ele><time>2026-05-03T13:12:18.989Z</time></trkpt><trkpt lat="46.13840864630954" lon="11.08444761531937"><ele>196.0</ele><time>2026-05-03T13:12:19.989Z</time></trkpt><trkpt lat="46.13823712713208" lon="11.084445637942217"><ele>196.0</ele><time>2026-05-03T13:12:20.989Z</time></trkpt><trkpt lat="46.13806380813128" lon="11.084430267334122"><ele>196.0</ele><time>2026-05-03T13:12:21.989Z</time></trkpt><trkpt lat="46.13789059263825" lon="11.084400358107919"><ele>195.66666666666666</ele><time>2026-05-03T13:12:22.989Z</time></trkpt><trkpt lat="46.137715424239815" lon="11.084387290274556"><ele>195.33333333333331</ele><time>2026-05-03T13:12:23.988Z</time></trkpt><trkpt lat="46.137558072363106" lon="11.084336463891596"><ele>195.0</ele><time>2026-05-03T13:12:24.988Z</time></trkpt><trkpt lat="46.13740715770215" lon="11.084280603979957"><ele>196.0</ele><time>2026-05-03T13:12:25.988Z</time></trkpt><trkpt lat="46.137255834788476" lon="11.084206843456975"><ele>197.0</ele><time>2026-05-03T13:12:26.988Z</time></trkpt><trkpt lat="46.13710183928462" lon="11.084124133056033"><ele>198.0</ele><time>2026-05-03T13:12:27.988Z</time></trkpt><trkpt lat="46.136942007182654" lon="11.084041746617265"><ele>198.66666666666669</ele><time>2026-05-03T13:12:28.988Z</time></trkpt><trkpt lat="46.13677927807226" lon="11.083955861921707"><ele>199.33333333333334</ele><time>2026-05-03T13:12:29.988Z</time></trkpt><trkpt lat="46.13661617735067" lon="11.083870127945978"><ele>200.0</ele><time>2026-05-03T13:12:30.988Z</time></trkpt><trkpt lat="46.136449935308384" lon="11.083783164649567"><ele>201.0</ele><time>2026-05-03T13:12:31.988Z</time></trkpt><trkpt lat="46.13627577825792" lon="11.083699997375014"><ele>202.0</ele><time>2026-05-03T13:12:32.988Z</time></trkpt><trkpt lat="46.136101594519666" lon="11.08361248440806"><ele>203.0</ele><time>2026-05-03T13:12:33.988Z</time></trkpt><trkpt lat="46.135923328644296" lon="11.083527311161294"><ele>203.0</ele><time>2026-05-03T13:12:34.988Z</time></trkpt><trkpt lat="46.135739372766636" lon="11.083437871533103"><ele>203.0</ele><time>2026-05-03T13:12:35.988Z</time></trkpt><trkpt lat="46.13555291611284" lon="11.08334245516382"><ele>203.0</ele><time>2026-05-03T13:12:36.988Z</time></trkpt><trkpt lat="46.13536164928937" lon="11.083245931024788"><ele>201.66666666666669</ele><time>2026-05-03T13:12:37.988Z</time></trkpt><trkpt lat="46.135171353901214" lon="11.083149317129653"><ele>200.33333333333331</ele><time>2026-05-03T13:12:38.988Z</time></trkpt><trkpt lat="46.134971154561704" lon="11.083047099304078"><ele>199.0</ele><time>2026-05-03T13:12:39.988Z</time></trkpt><trkpt lat="46.134767038474536" lon="11.082947566483057"><ele>198.5</ele><time>2026-05-03T13:12:40.988Z</time></trkpt><trkpt lat="46.13454529603555" lon="11.082843437836914"><ele>198.0</ele><time>2026-05-03T13:12:41.988Z</time></trkpt><trkpt lat="46.13431103796819" lon="11.082726131279477"><ele>198.0</ele><time>2026-05-03T13:12:42.988Z</time></trkpt><trkpt lat="46.13406888765009" lon="11.08260424620735"><ele>198.0</ele><time>2026-05-03T13:12:43.988Z</time></trkpt><trkpt lat="46.133844126395765" lon="11.082489473272334"><ele>198.66666666666669</ele><time>2026-05-03T13:12:44.988Z</time></trkpt><trkpt lat="46.133630495609154" lon="11.08237881812502"><ele>199.33333333333334</ele><time>2026-05-03T13:12:45.988Z</time></trkpt><trkpt lat="46.133419827551016" lon="11.082281311464671"><ele>200.0</ele><time>2026-05-03T13:12:46.988Z</time></trkpt><trkpt lat="46.13321381341268" lon="11.082190968191822"><ele>200.33333333333334</ele><time>2026-05-03T13:12:47.988Z</time></trkpt><trkpt lat="46.13301348272961" lon="11.08211288061149"><ele>200.66666666666669</ele><time>2026-05-03T13:12:48.988Z</time></trkpt><trkpt lat="46.132816942224565" lon="11.082036566777159"><ele>201.0</ele><time>2026-05-03T13:12:49.988Z</time></trkpt><trkpt lat="46.13261720425495" lon="11.081964125625882"><ele>201.0</ele><time>2026-05-03T13:12:50.988Z</time></trkpt><trkpt lat="46.1324128595697" lon="11.081895813222669"><ele>201.0</ele><time>2026-05-03T13:12:51.988Z</time></trkpt><trkpt lat="46.132203615829454" lon="11.081837582608276"><ele>201.0</ele><time>2026-05-03T13:12:52.988Z</time></trkpt><trkpt lat="46.131989269838805" lon="11.081779432045511"><ele>201.0</ele><time>2026-05-03T13:12:53.988Z</time></trkpt><trkpt lat="46.13177574677941" lon="11.081725181887604"><ele>201.0</ele><time>2026-05-03T13:12:54.988Z</time></trkpt><trkpt lat="46.131557047271585" lon="11.081675873893476"><ele>201.0</ele><time>2026-05-03T13:12:55.988Z</time></trkpt><trkpt lat="46.13133760453547" lon="11.081626784859592"><ele>201.0</ele><time>2026-05-03T13:12:56.988Z</time></trkpt><trkpt lat="46.131123038992776" lon="11.081591124698694"><ele>201.0</ele><time>2026-05-03T13:12:57.988Z</time></trkpt><trkpt lat="46.130913932031916" lon="11.081566559067701"><ele>201.0</ele><time>2026-05-03T13:12:58.988Z</time></trkpt><trkpt lat="46.13070235743382" lon="11.081547808560522"><ele>201.0</ele><time>2026-05-03T13:12:59.988Z</time></trkpt><trkpt lat="46.13048884911429" lon="11.081534830340633"><ele>201.0</ele><time>2026-05-03T13:13:00.988Z</time></trkpt><trkpt lat="46.130275073184634" lon="11.08152769863822"><ele>201.0</ele><time>2026-05-03T13:13:01.988Z</time></trkpt><trkpt lat="46.13006270923219" lon="11.081529855982742"><ele>200.0</ele><time>2026-05-03T13:13:02.988Z</time></trkpt><trkpt lat="46.12984648353203" lon="11.08154023841292"><ele>199.0</ele><time>2026-05-03T13:13:03.988Z</time></trkpt><trkpt lat="46.129630935114754" lon="11.081558394151067"><ele>198.0</ele><time>2026-05-03T13:13:04.989Z</time></trkpt><trkpt lat="46.12941497679887" lon="11.08158048831124"><ele>198.0</ele><time>2026-05-03T13:13:05.988Z</time></trkpt><trkpt lat="46.129201590728414" lon="11.081603840913177"><ele>198.0</ele><time>2026-05-03T13:13:06.988Z</time></trkpt><trkpt lat="46.12899139148784" lon="11.081628321194296"><ele>198.0</ele><time>2026-05-03T13:13:07.989Z</time></trkpt><trkpt lat="46.12877991611427" lon="11.08165975541182"><ele>198.0</ele><time>2026-05-03T13:13:08.988Z</time></trkpt><trkpt lat="46.12856566672051" lon="11.081703023275999"><ele>198.0</ele><time>2026-05-03T13:13:09.988Z</time></trkpt><trkpt lat="46.128347170978635" lon="11.08175053835969"><ele>198.0</ele><time>2026-05-03T13:13:10.989Z</time></trkpt><trkpt lat="46.128126293480925" lon="11.08180823294531"><ele>197.66666666666669</ele><time>2026-05-03T13:13:11.988Z</time></trkpt><trkpt lat="46.127910330143" lon="11.081863431758656"><ele>197.33333333333334</ele><time>2026-05-03T13:13:12.988Z</time></trkpt><trkpt lat="46.12770438916123" lon="11.081926322177676"><ele>197.0</ele><time>2026-05-03T13:13:13.989Z</time></trkpt><trkpt lat="46.127496969563985" lon="11.081998008812144"><ele>198.0</ele><time>2026-05-03T13:13:14.988Z</time></trkpt><trkpt lat="46.12728535758726" lon="11.082072745687853"><ele>199.0</ele><time>2026-05-03T13:13:15.988Z</time></trkpt><trkpt lat="46.115844336892096" lon="11.088457902722144"><ele>198.33333333333331</ele><time>2026-05-03T13:14:16.988Z</time></trkpt><trkpt lat="46.11565283579662" lon="11.088399772825676"><ele>197.66666666666669</ele><time>2026-05-03T13:14:17.988Z</time></trkpt><trkpt lat="46.11545864146033" lon="11.088340063384935"><ele>197.0</ele><time>2026-05-03T13:14:18.988Z</time></trkpt><trkpt lat="46.115261192148814" lon="11.088271114877005"><ele>197.0</ele><time>2026-05-03T13:14:19.988Z</time></trkpt><trkpt lat="46.1150588404166" lon="11.088205506308046"><ele>197.0</ele><time>2026-05-03T13:14:20.988Z</time></trkpt><trkpt lat="46.114857502329194" lon="11.088142899622412"><ele>197.0</ele><time>2026-05-03T13:14:21.988Z</time></trkpt><trkpt lat="46.11466421516168" lon="11.088078722615855"><ele>196.0</ele><time>2026-05-03T13:14:22.988Z</time></trkpt><trkpt lat="46.114469011067946" lon="11.08802662952872"><ele>195.0</ele><time>2026-05-03T13:14:23.988Z</time></trkpt><trkpt lat="46.11427601452072" lon="11.087952446101651"><ele>194.0</ele><time>2026-05-03T13:14:24.988Z</time></trkpt><trkpt lat="46.114075196593106" lon="11.087901458571915"><ele>194.66666666666669</ele><time>2026-05-03T13:14:25.988Z</time></trkpt><trkpt lat="46.113872657939666" lon="11.087869731080168"><ele>195.33333333333331</ele><time>2026-05-03T13:14:26.988Z</time></trkpt><trkpt lat="46.11367850782815" lon="11.087855765452177"><ele>196.0</ele><time>2026-05-03T13:14:27.988Z</time></trkpt><trkpt lat="46.113484422310464" lon="11.08785231642076"><ele>196.0</ele><time>2026-05-03T13:14:28.988Z</time></trkpt><trkpt lat="46.113288444061226" lon="11.087861762669583"><ele>196.0</ele><time>2026-05-03T13:14:29.988Z</time></trkpt><trkpt lat="46.11308392235006" lon="11.08789282666086"><ele>196.0</ele><time>2026-05-03T13:14:30.988Z</time></trkpt><trkpt lat="46.112871329346106" lon="11.087944727256207"><ele>195.33333333333331</ele><time>2026-05-03T13:14:31.988Z</time></trkpt><trkpt lat="46.112654280634565" lon="11.088009393442144"><ele>194.66666666666669</ele><time>2026-05-03T13:14:32.988Z</time></trkpt><trkpt lat="46.11243528833131" lon="11.088083619376617"><ele>194.0</ele><time>2026-05-03T13:14:33.988Z</time></trkpt><trkpt lat="46.11222834320345" lon="11.088146654036331"><ele>194.0</ele><time>2026-05-03T13:14:34.988Z</time></trkpt><trkpt lat="46.1120274567028" lon="11.088202428868769"><ele>194.0</ele><time>2026-05-03T13:14:35.988Z</time></trkpt><trkpt lat="46.111831879612595" lon="11.088259044401445"><ele>194.0</ele><time>2026-05-03T13:14:36.988Z</time></trkpt><trkpt lat="46.11163739642571" lon="11.088318585395214"><ele>194.33333333333334</ele><time>2026-05-03T13:14:37.987Z</time></trkpt><trkpt lat="46.111442041311506" lon="11.088374073222305"><ele>194.66666666666669</ele><time>2026-05-03T13:14:38.987Z</time></trkpt><trkpt lat="46.111243484665124" lon="11.088429752763659"><ele>195.0</ele><time>2026-05-03T13:14:39.987Z</time></trkpt><trkpt lat="46.11104486405365" lon="11.088484310699858"><ele>195.0</ele><time>2026-05-03T13:14:40.987Z</time></trkpt><trkpt lat="46.110844547359534" lon="11.088540627765562"><ele>195.0</ele><time>2026-05-03T13:14:41.987Z</time></trkpt><trkpt lat="46.110644769138304" lon="11.088597519570639"><ele>195.0</ele><time>2026-05-03T13:14:42.987Z</time></trkpt><trkpt lat="46.110445032955504" lon="11.088654476006596"><ele>195.0</ele><time>2026-05-03T13:14:43.987Z</time></trkpt><trkpt lat="46.11024529565732" lon="11.088712530871407"><ele>195.0</ele><time>2026-05-03T13:14:44.987Z</time></trkpt><trkpt lat="46.110046443795184" lon="11.088767425518416"><ele>195.0</ele><time>2026-05-03T13:14:45.987Z</time></trkpt><trkpt lat="46.109846269528866" lon="11.088818942452011"><ele>194.66666666666669</ele><time>2026-05-03T13:14:46.987Z</time></trkpt><trkpt lat="46.10964768533358" lon="11.08887454326406"><ele>194.33333333333334</ele><time>2026-05-03T13:14:47.987Z</time></trkpt><trkpt lat="46.109451288647406" lon="11.088934015534248"><ele>194.0</ele><time>2026-05-03T13:14:48.987Z</time></trkpt><trkpt lat="46.109252157348145" lon="11.088992938936455"><ele>194.0</ele><time>2026-05-03T13:14:49.987Z</time></trkpt><trkpt lat="46.10905328377223" lon="11.089052913321543"><ele>194.0</ele><time>2026-05-03T13:14:50.987Z</time></trkpt><trkpt lat="46.10884896215756" lon="11.089112857597081"><ele>194.0</ele><time>2026-05-03T13:14:51.987Z</time></trkpt><trkpt lat="46.10863880633522" lon="11.089170111598479"><ele>194.0</ele><time>2026-05-03T13:14:52.987Z</time></trkpt><trkpt lat="46.10842264365764" lon="11.089226571469966"><ele>194.0</ele><time>2026-05-03T13:14:53.987Z</time></trkpt><trkpt lat="46.10819809158298" lon="11.089294387067016"><ele>194.0</ele><time>2026-05-03T13:14:54.987Z</time></trkpt><trkpt lat="46.10795717491603" lon="11.089368163771201"><ele>192.5</ele><time>2026-05-03T13:14:55.987Z</time></trkpt><trkpt lat="46.10771532404304" lon="11.089438812753663"><ele>191.0</ele><time>2026-05-03T13:14:56.987Z</time></trkpt><trkpt lat="46.10748400051305" lon="11.089504932205427"><ele>192.0</ele><time>2026-05-03T13:14:57.987Z</time></trkpt><trkpt lat="46.107265549609465" lon="11.089563890562285"><ele>193.0</ele><time>2026-05-03T13:14:58.987Z</time></trkpt><trkpt lat="46.107053301306536" lon="11.089620975656683"><ele>194.0</ele><time>2026-05-03T13:14:59.987Z</time></trkpt><trkpt lat="46.10683953977301" lon="11.089683880448233"><ele>194.0</ele><time>2026-05-03T13:15:00.987Z</time></trkpt><trkpt lat="46.10662504540531" lon="11.089756106044135"><ele>194.0</ele><time>2026-05-03T13:15:01.987Z</time></trkpt><trkpt lat="46.10640766068133" lon="11.08982550368661"><ele>194.0</ele><time>2026-05-03T13:15:02.987Z</time></trkpt><trkpt lat="46.10618826290612" lon="11.089892038801421"><ele>193.0</ele><time>2026-05-03T13:15:03.987Z</time></trkpt><trkpt lat="46.105967648486896" lon="11.089959294117513"><ele>192.0</ele><time>2026-05-03T13:15:04.987Z</time></trkpt><trkpt lat="46.10574675029142" lon="11.090027249564741"><ele>192.0</ele><time>2026-05-03T13:15:05.987Z</time></trkpt><trkpt lat="46.105525542603544" lon="11.090095235163743"><ele>192.0</ele><time>2026-05-03T13:15:06.987Z</time></trkpt><trkpt lat="46.105299862418754" lon="11.090164504576062"><ele>192.0</ele><time>2026-05-03T13:15:07.987Z</time></trkpt><trkpt lat="46.105074505801134" lon="11.090233717509804"><ele>192.0</ele><time>2026-05-03T13:15:08.987Z</time></trkpt><trkpt lat="46.10484813652465" lon="11.09030045386179"><ele>191.5</ele><time>2026-05-03T13:15:09.987Z</time></trkpt><trkpt lat="46.10462434296556" lon="11.090370116756317"><ele>191.0</ele><time>2026-05-03T13:15:10.988Z</time></trkpt><trkpt lat="46.104405232904625" lon="11.090436548826352"><ele>191.0</ele><time>2026-05-03T13:15:11.987Z</time></trkpt><trkpt lat="46.104189597879035" lon="11.0905126980009"><ele>191.0</ele><time>2026-05-03T13:15:12.987Z</time></trkpt><trkpt lat="46.1039776405164" lon="11.090596135399068"><ele>191.0</ele><time>2026-05-03T13:15:13.987Z</time></trkpt><trkpt lat="46.10376348335732" lon="11.090689771945492"><ele>191.0</ele><time>2026-05-03T13:15:14.988Z</time></trkpt><trkpt lat="46.10354710852502" lon="11.090794202326776"><ele>191.0</ele><time>2026-05-03T13:15:15.988Z</time></trkpt><trkpt lat="46.092670328345605" lon="11.102494051526255"><ele>191.0</ele><time>2026-05-03T13:16:16.986Z</time></trkpt><trkpt lat="46.09264133251421" lon="11.102752249448592"><ele>191.0</ele><time>2026-05-03T13:16:17.986Z</time></trkpt><trkpt lat="46.092632098455255" lon="11.1029864136397"><ele>191.0</ele><time>2026-05-03T13:16:18.986Z</time></trkpt><trkpt lat="46.09259205151148" lon="11.103177607228046"><ele>191.0</ele><time>2026-05-03T13:16:19.986Z</time></trkpt><trkpt lat="46.092551757170675" lon="11.103321799107615"><ele>191.0</ele><time>2026-05-03T13:16:20.986Z</time></trkpt><trkpt lat="46.09248443420389" lon="11.103416096260988"><ele>191.0</ele><time>2026-05-03T13:16:21.986Z</time></trkpt><trkpt lat="46.092468184248354" lon="11.103540283115256"><ele>191.0</ele><time>2026-05-03T13:16:22.986Z</time></trkpt><trkpt lat="46.092344587736164" lon="11.103659776628577"><ele>191.0</ele><time>2026-05-03T13:16:23.986Z</time></trkpt><trkpt lat="46.0919372948096" lon="11.103434637216704"><ele>191.0</ele><time>2026-05-03T13:16:24.986Z</time></trkpt><trkpt lat="46.09182535473737" lon="11.103426939886557"><ele>191.0</ele><time>2026-05-03T13:16:25.986Z</time></trkpt><trkpt lat="46.09171870954717" lon="11.10339503498702"><ele>191.0</ele><time>2026-05-03T13:16:26.986Z</time></trkpt><trkpt lat="46.09163865294909" lon="11.103313356354658"><ele>191.0</ele><time>2026-05-03T13:16:27.986Z</time></trkpt><trkpt lat="46.091578498757" lon="11.103208750320961"><ele>191.0</ele><time>2026-05-03T13:16:28.986Z</time></trkpt><trkpt lat="46.09154246475669" lon="11.103088661745529"><ele>191.0</ele><time>2026-05-03T13:16:29.986Z</time></trkpt><trkpt lat="46.09152318119926" lon="11.102946972015086"><ele>191.0</ele><time>2026-05-03T13:16:30.986Z</time></trkpt><trkpt lat="46.09151800369213" lon="11.102807110601187"><ele>191.0</ele><time>2026-05-03T13:16:31.986Z</time></trkpt><trkpt lat="46.091540736810636" lon="11.102683691633308"><ele>191.0</ele><time>2026-05-03T13:16:32.986Z</time></trkpt><trkpt lat="46.091582129577134" lon="11.102564773761161"><ele>191.0</ele><time>2026-05-03T13:16:33.986Z</time></trkpt><trkpt lat="46.091643516130084" lon="11.102465052830013"><ele>191.0</ele><time>2026-05-03T13:16:34.986Z</time></trkpt><trkpt lat="46.09171010377595" lon="11.102390222934636"><ele>191.0</ele><time>2026-05-03T13:16:35.986Z</time></trkpt><trkpt lat="46.0917785937842" lon="11.102338443607184"><ele>191.0</ele><time>2026-05-03T13:16:36.986Z</time></trkpt><trkpt lat="46.09184643702662" lon="11.102318863662545"><ele>191.0</ele><time>2026-05-03T13:16:37.986Z</time></trkpt><trkpt lat="46.091917756085444" lon="11.102314707194996"><ele>191.0</ele><time>2026-05-03T13:16:38.986Z</time></trkpt><trkpt lat="46.091995338856094" lon="11.102321350476517"><ele>191.0</ele><time>2026-05-03T13:16:39.986Z</time></trkpt><trkpt lat="46.09207623255644" lon="11.102323468666343"><ele>191.0</ele><time>2026-05-03T13:16:40.986Z</time></trkpt><trkpt lat="46.09216360008944" lon="11.102327767534732"><ele>191.0</ele><time>2026-05-03T13:16:41.986Z</time></trkpt><trkpt lat="46.09225623895288" lon="11.102338695541551"><ele>191.0</ele><time>2026-05-03T13:16:42.986Z</time></trkpt><trkpt lat="46.09235291844955" lon="11.102358585851482"><ele>191.0</ele><time>2026-05-03T13:16:43.986Z</time></trkpt><trkpt lat="46.09245852971938" lon="11.102386210462079"><ele>191.0</ele><time>2026-05-03T13:16:44.986Z</time></trkpt><trkpt lat="46.09256136834546" lon="11.10242715718114"><ele>191.0</ele><time>2026-05-03T13:16:45.986Z</time></trkpt><trkpt lat="46.09265763913581" lon="11.10247596031278"><ele>191.0</ele><time>2026-05-03T13:16:46.986Z</time></trkpt><trkpt lat="46.09278224318875" lon="11.102581961159014"><ele>191.0</ele><time>2026-05-03T13:16:47.986Z</time></trkpt><trkpt lat="46.092887890676224" lon="11.102680552527572"><ele>191.0</ele><time>2026-05-03T13:16:48.986Z</time></trkpt><trkpt lat="46.092998553518946" lon="11.102786817722128"><ele>191.0</ele><time>2026-05-03T13:16:49.986Z</time></trkpt><trkpt lat="46.0931040104335" lon="11.102900630076288"><ele>191.0</ele><time>2026-05-03T13:16:50.986Z</time></trkpt><trkpt lat="46.09320433432316" lon="11.103016614390441"><ele>191.0</ele><time>2026-05-03T13:16:51.986Z</time></trkpt><trkpt lat="46.093294670024584" lon="11.103124716894493"><ele>191.0</ele><time>2026-05-03T13:16:52.986Z</time></trkpt><trkpt lat="46.09337372222035" lon="11.10323754812279"><ele>191.5</ele><time>2026-05-03T13:16:53.986Z</time></trkpt><trkpt lat="46.093442822003176" lon="11.103359153531962"><ele>192.0</ele><time>2026-05-03T13:16:54.986Z</time></trkpt><trkpt lat="46.09351111466981" lon="11.103490163883174"><ele>192.5</ele><time>2026-05-03T13:16:55.986Z</time></trkpt><trkpt lat="46.09357992251378" lon="11.103643397465879"><ele>193.0</ele><time>2026-05-03T13:16:56.986Z</time></trkpt><trkpt lat="46.09365208580329" lon="11.103820685909707"><ele>193.0</ele><time>2026-05-03T13:16:57.986Z</time></trkpt><trkpt lat="46.0937305271012" lon="11.104019537871608"><ele>193.0</ele><time>2026-05-03T13:16:58.986Z</time></trkpt><trkpt lat="46.09380911668425" lon="11.104228305514505"><ele>193.0</ele><time>2026-05-03T13:16:59.986Z</time></trkpt><trkpt lat="46.09388397192321" lon="11.10443822291036"><ele>192.66666666666666</ele><time>2026-05-03T13:17:00.986Z</time></trkpt><trkpt lat="46.09396065019652" lon="11.1046407085194"><ele>192.33333333333331</ele><time>2026-05-03T13:17:01.986Z</time></trkpt><trkpt lat="46.094033432048946" lon="11.10483990003024"><ele>192.0</ele><time>2026-05-03T13:17:02.986Z</time></trkpt><trkpt lat="46.09410598994493" lon="11.105030871864212"><ele>192.0</ele><time>2026-05-03T13:17:03.986Z</time></trkpt><trkpt lat="46.09417646964049" lon="11.105229627788447"><ele>192.0</ele><time>2026-05-03T13:17:04.986Z</time></trkpt><trkpt lat="46.09425246037502" lon="11.105447842403724"><ele>192.0</ele><time>2026-05-03T13:17:05.986Z</time></trkpt><trkpt lat="46.09433042150586" lon="11.105679132503544"><ele>192.66666666666669</ele><time>2026-05-03T13:17:06.986Z</time></trkpt><trkpt lat="46.09441568565832" lon="11.105921239358533"><ele>193.33333333333334</ele><time>2026-05-03T13:17:07.986Z</time></trkpt><trkpt lat="46.09450177641618" lon="11.106173585350552"><ele>194.0</ele><time>2026-05-03T13:17:08.986Z</time></trkpt><trkpt lat="46.09459275548926" lon="11.106433684864495"><ele>194.0</ele><time>2026-05-03T13:17:09.986Z</time></trkpt><trkpt lat="46.09467939994637" lon="11.106693434362471"><ele>194.0</ele><time>2026-05-03T13:17:10.986Z</time></trkpt><trkpt lat="46.0947592331838" lon="11.106936899575885"><ele>194.0</ele><time>2026-05-03T13:17:11.986Z</time></trkpt><trkpt lat="46.09483443800005" lon="11.107163495839341"><ele>194.0</ele><time>2026-05-03T13:17:12.986Z</time></trkpt><trkpt lat="46.09490236659372" lon="11.107380194565572"><ele>194.0</ele><time>2026-05-03T13:17:13.986Z</time></trkpt><trkpt lat="46.09496439624048" lon="11.10758859647591"><ele>194.0</ele><time>2026-05-03T13:17:14.986Z</time></trkpt><trkpt lat="46.09502280079619" lon="11.107816068824402"><ele>192.0</ele><time>2026-05-03T13:17:15.986Z</time></trkpt><trkpt lat="46.09417597346435" lon="11.113824882597614"><ele>192.0</ele><time>2026-05-03T13:18:16.986Z</time></trkpt><trkpt lat="46.0941626584576" lon="11.113914722512973"><ele>192.0</ele><time>2026-05-03T13:18:58.984Z</time></trkpt><trkpt lat="46.09407518003845" lon="11.113977212690475"><ele>192.0</ele><time>2026-05-03T13:19:02.984Z</time></trkpt><trkpt lat="46.09396157279168" lon="11.114029271870848"><ele>192.0</ele><time>2026-05-03T13:19:04.984Z</time></trkpt><trkpt lat="46.09384819421134" lon="11.114080029495211"><ele>192.0</ele><time>2026-05-03T13:19:06.984Z</time></trkpt><trkpt lat="46.09375212966859" lon="11.114128458828326"><ele>191.8</ele><time>2026-05-03T13:19:08.984Z</time></trkpt><trkpt lat="46.0936440198915" lon="11.11418765694132"><ele>191.6</ele><time>2026-05-03T13:19:10.984Z</time></trkpt><trkpt lat="46.09357334303429" lon="11.11422796518278"><ele>191.4</ele><time>2026-05-03T13:19:11.983Z</time></trkpt><trkpt lat="46.09349193805134" lon="11.11427689095118"><ele>191.20000000000002</ele><time>2026-05-03T13:19:12.983Z</time></trkpt><trkpt lat="46.09339619250747" lon="11.114334417596998"><ele>191.0</ele><time>2026-05-03T13:19:13.983Z</time></trkpt><trkpt lat="46.09329248543247" lon="11.114391444239569"><ele>192.0</ele><time>2026-05-03T13:19:14.983Z</time></trkpt><trkpt lat="46.09320831430951" lon="11.114434984562909"><ele>193.0</ele><time>2026-05-03T13:19:15.983Z</time></trkpt><trkpt lat="46.08993591182216" lon="11.116379534338709"><ele>193.4</ele><time>2026-05-03T13:20:16.983Z</time></trkpt><trkpt lat="46.089861784331674" lon="11.116480870324478"><ele>193.8</ele><time>2026-05-03T13:20:20.982Z</time></trkpt><trkpt lat="46.0898020491721" lon="11.11653291534604"><ele>194.2</ele><time>2026-05-03T13:20:21.982Z</time></trkpt><trkpt lat="46.08969632667798" lon="11.116475895600502"><ele>194.6</ele><time>2026-05-03T13:20:22.982Z</time></trkpt><trkpt lat="46.0896052420511" lon="11.116527895920461"><ele>195.0</ele><time>2026-05-03T13:20:23.982Z</time></trkpt><trkpt lat="46.08951951685532" lon="11.116576836539766"><ele>195.0</ele><time>2026-05-03T13:20:24.982Z</time></trkpt><trkpt lat="46.08944370994755" lon="11.116636121499843"><ele>195.0</ele><time>2026-05-03T13:20:25.982Z</time></trkpt><trkpt lat="46.089335943622544" lon="11.116677309941133"><ele>195.0</ele><time>2026-05-03T13:20:26.982Z</time></trkpt><trkpt lat="46.089217769458" lon="11.116736115759435"><ele>195.0</ele><time>2026-05-03T13:20:27.982Z</time></trkpt><trkpt lat="46.08908608111787" lon="11.116798356334996"><ele>195.0</ele><time>2026-05-03T13:20:28.982Z</time></trkpt><trkpt lat="46.08895474213921" lon="11.116869507435942"><ele>195.0</ele><time>2026-05-03T13:20:29.982Z</time></trkpt><trkpt lat="46.088812728311424" lon="11.11694845240531"><ele>195.0</ele><time>2026-05-03T13:20:30.982Z</time></trkpt><trkpt lat="46.08866004498486" lon="11.117044294447219"><ele>195.0</ele><time>2026-05-03T13:20:31.982Z</time></trkpt><trkpt lat="46.08851496978487" lon="11.117104496627631"><ele>195.0</ele><time>2026-05-03T13:20:32.982Z</time></trkpt><trkpt lat="46.08838028033355" lon="11.11716290883481"><ele>195.0</ele><time>2026-05-03T13:20:33.982Z</time></trkpt><trkpt lat="46.088263246045045" lon="11.117242814678871"><ele>195.0</ele><time>2026-05-03T13:20:34.982Z</time></trkpt><trkpt lat="46.08813939373758" lon="11.117332998459922"><ele>194.25</ele><time>2026-05-03T13:20:35.982Z</time></trkpt><trkpt lat="46.088017565413914" lon="11.11742689170191"><ele>193.5</ele><time>2026-05-03T13:20:36.982Z</time></trkpt><trkpt lat="46.087892576647164" lon="11.117510516960312"><ele>192.75</ele><time>2026-05-03T13:20:37.982Z</time></trkpt><trkpt lat="46.087763029534024" lon="11.11758152372571"><ele>192.0</ele><time>2026-05-03T13:20:38.982Z</time></trkpt><trkpt lat="46.08763345527609" lon="11.117666426761799"><ele>192.0</ele><time>2026-05-03T13:20:39.982Z</time></trkpt><trkpt lat="46.08749686742059" lon="11.117752574271277"><ele>192.0</ele><time>2026-05-03T13:20:40.982Z</time></trkpt><trkpt lat="46.0873483880549" lon="11.117840764607362"><ele>192.0</ele><time>2026-05-03T13:20:41.982Z</time></trkpt><trkpt lat="46.08718496168607" lon="11.11791903483987"><ele>192.0</ele><time>2026-05-03T13:20:42.982Z</time></trkpt><trkpt lat="46.087032254182006" lon="11.118018675814382"><ele>192.0</ele><time>2026-05-03T13:20:43.982Z</time></trkpt><trkpt lat="46.08689540247744" lon="11.118100822099374"><ele>192.0</ele><time>2026-05-03T13:20:44.982Z</time></trkpt><trkpt lat="46.08677415935292" lon="11.118162398770451"><ele>192.0</ele><time>2026-05-03T13:20:45.982Z</time></trkpt><trkpt lat="46.086661602868055" lon="11.118220653256808"><ele>191.8</ele><time>2026-05-03T13:20:46.982Z</time></trkpt><trkpt lat="46.086556918785554" lon="11.118253102643052"><ele>191.6</ele><time>2026-05-03T13:20:47.982Z</time></trkpt><trkpt lat="46.08646096552311" lon="11.11829882834008"><ele>191.4</ele><time>2026-05-03T13:20:48.982Z</time></trkpt><trkpt lat="46.08637026668932" lon="11.1183465042224"><ele>191.20000000000002</ele><time>2026-05-03T13:20:49.982Z</time></trkpt><trkpt lat="46.086284141464105" lon="11.118394056152503"><ele>191.0</ele><time>2026-05-03T13:20:50.982Z</time></trkpt><trkpt lat="46.08620051332203" lon="11.11844991053476"><ele>191.0</ele><time>2026-05-03T13:20:51.982Z</time></trkpt><trkpt lat="46.08612516924751" lon="11.118500826981283"><ele>191.0</ele><time>2026-05-03T13:20:52.982Z</time></trkpt><trkpt lat="46.08605835935786" lon="11.118544543780748"><ele>191.0</ele><time>2026-05-03T13:20:53.982Z</time></trkpt><trkpt lat="46.085996730842474" lon="11.118590202226214"><ele>191.0</ele><time>2026-05-03T13:20:54.982Z</time></trkpt><trkpt lat="46.08590824020878" lon="11.118626057181283"><ele>191.0</ele><time>2026-05-03T13:20:56.982Z</time></trkpt><trkpt lat="46.08581298583033" lon="11.118595543797642"><ele>191.0</ele><time>2026-05-03T13:21:12.982Z</time></trkpt><trkpt lat="46.085718282524844" lon="11.118571887708157"><ele>191.0</ele><time>2026-05-03T13:21:14.982Z</time></trkpt><trkpt lat="46.08563932427329" lon="11.118522015963855"><ele>191.0</ele><time>2026-05-03T13:21:15.982Z</time></trkpt><trkpt lat="46.08218251424229" lon="11.115403447071218"><ele>191.5</ele><time>2026-05-03T13:22:16.982Z</time></trkpt><trkpt lat="46.08206754178111" lon="11.115501053198091"><ele>192.0</ele><time>2026-05-03T13:22:17.982Z</time></trkpt><trkpt lat="46.081948288584854" lon="11.115600480675944"><ele>192.5</ele><time>2026-05-03T13:22:18.982Z</time></trkpt><trkpt lat="46.08183307873687" lon="11.115691248119514"><ele>193.0</ele><time>2026-05-03T13:22:19.982Z</time></trkpt><trkpt lat="46.0817301952702" lon="11.115779179063933"><ele>193.0</ele><time>2026-05-03T13:22:20.982Z</time></trkpt><trkpt lat="46.0816325009098" lon="11.115869906534547"><ele>193.0</ele><time>2026-05-03T13:22:21.982Z</time></trkpt><trkpt lat="46.081537660727946" lon="11.115956633809793"><ele>193.0</ele><time>2026-05-03T13:22:22.982Z</time></trkpt><trkpt lat="46.08144069052564" lon="11.116016783297415"><ele>193.0</ele><time>2026-05-03T13:22:23.982Z</time></trkpt><trkpt lat="46.08134803369285" lon="11.116084520174383"><ele>193.0</ele><time>2026-05-03T13:22:24.982Z</time></trkpt><trkpt lat="46.081256647995694" lon="11.116156132714524"><ele>193.4</ele><time>2026-05-03T13:22:25.982Z</time></trkpt><trkpt lat="46.08117103535094" lon="11.116227000284324"><ele>193.8</ele><time>2026-05-03T13:22:26.982Z</time></trkpt><trkpt lat="46.081088517614226" lon="11.116305837579644"><ele>194.2</ele><time>2026-05-03T13:22:27.982Z</time></trkpt><trkpt lat="46.08100293900504" lon="11.11638017735651"><ele>194.6</ele><time>2026-05-03T13:22:28.982Z</time></trkpt><trkpt lat="46.080916460052514" lon="11.11645578930144"><ele>195.0</ele><time>2026-05-03T13:22:29.982Z</time></trkpt><trkpt lat="46.08083124070465" lon="11.116534561316735"><ele>194.2</ele><time>2026-05-03T13:22:30.982Z</time></trkpt><trkpt lat="46.08074724013615" lon="11.116613215009204"><ele>193.4</ele><time>2026-05-03T13:22:31.982Z</time></trkpt><trkpt lat="46.08065935616378" lon="11.116690822529605"><ele>192.60000000000002</ele><time>2026-05-03T13:22:32.982Z</time></trkpt><trkpt lat="46.08056927515788" lon="11.11676387695599"><ele>191.8</ele><time>2026-05-03T13:22:33.982Z</time></trkpt><trkpt lat="46.080478749819044" lon="11.116831513398106"><ele>191.0</ele><time>2026-05-03T13:22:34.982Z</time></trkpt><trkpt lat="46.08038322916146" lon="11.116918244238688"><ele>191.0</ele><time>2026-05-03T13:22:35.982Z</time></trkpt><trkpt lat="46.08028642900193" lon="11.117006913488309"><ele>191.0</ele><time>2026-05-03T13:22:36.982Z</time></trkpt><trkpt lat="46.08019481463268" lon="11.117081898287038"><ele>191.0</ele><time>2026-05-03T13:22:37.982Z</time></trkpt><trkpt lat="46.080119136613526" lon="11.117149420690358"><ele>191.0</ele><time>2026-05-03T13:22:38.982Z</time></trkpt><trkpt lat="46.08003635153533" lon="11.11720107929255"><ele>191.0</ele><time>2026-05-03T13:22:39.982Z</time></trkpt><trkpt lat="46.079951820685395" lon="11.117236644557087"><ele>191.8</ele><time>2026-05-03T13:22:40.982Z</time></trkpt><trkpt lat="46.079857423290214" lon="11.117241655171043"><ele>192.60000000000002</ele><time>2026-05-03T13:22:41.982Z</time></trkpt><trkpt lat="46.079776223922764" lon="11.117143824033185"><ele>193.4</ele><time>2026-05-03T13:22:42.982Z</time></trkpt><trkpt lat="46.07966591529569" lon="11.117169677519357"><ele>194.2</ele><time>2026-05-03T13:22:43.982Z</time></trkpt><trkpt lat="46.07957000355087" lon="11.117081612171013"><ele>195.0</ele><time>2026-05-03T13:22:44.982Z</time></trkpt><trkpt lat="46.07945474433462" lon="11.117015346464681"><ele>195.0</ele><time>2026-05-03T13:22:45.982Z</time></trkpt><trkpt lat="46.079332400216344" lon="11.116948800078998"><ele>195.0</ele><time>2026-05-03T13:22:46.982Z</time></trkpt><trkpt lat="46.07919877069078" lon="11.116873381947388"><ele>195.0</ele><time>2026-05-03T13:22:47.982Z</time></trkpt><trkpt lat="46.07905015642483" lon="11.116791916913169"><ele>195.0</ele><time>2026-05-03T13:22:48.982Z</time></trkpt><trkpt lat="46.078863425772425" lon="11.116689664673782"><ele>195.0</ele><time>2026-05-03T13:22:49.982Z</time></trkpt><trkpt lat="46.07868162428186" lon="11.11659025569109"><ele>195.0</ele><time>2026-05-03T13:22:50.982Z</time></trkpt><trkpt lat="46.078522713609345" lon="11.116503365336287"><ele>195.0</ele><time>2026-05-03T13:22:51.982Z</time></trkpt><trkpt lat="46.07837468360933" lon="11.116422422589407"><ele>194.0</ele><time>2026-05-03T13:22:52.982Z</time></trkpt><trkpt lat="46.07825869091066" lon="11.11635903782131"><ele>193.0</ele><time>2026-05-03T13:22:53.982Z</time></trkpt><trkpt lat="46.07816036350867" lon="11.116269100354671"><ele>192.0</ele><time>2026-05-03T13:22:54.982Z</time></trkpt><trkpt lat="46.07804557422551" lon="11.116216846443034"><ele>191.0</ele><time>2026-05-03T13:22:55.982Z</time></trkpt><trkpt lat="46.07796227444383" lon="11.116157741227752"><ele>191.0</ele><time>2026-05-03T13:22:56.982Z</time></trkpt><trkpt lat="46.07788892200123" lon="11.116121059391762"><ele>191.0</ele><time>2026-05-03T13:22:57.982Z</time></trkpt><trkpt lat="46.07782181187532" lon="11.11609040399708"><ele>191.0</ele><time>2026-05-03T13:22:58.982Z</time></trkpt><trkpt lat="46.07773302280627" lon="11.115971575128967"><ele>191.0</ele><time>2026-05-03T13:23:00.982Z</time></trkpt><trkpt lat="46.07769092971321" lon="11.115896215268203"><ele>191.0</ele><time>2026-05-03T13:23:01.982Z</time></trkpt><trkpt lat="46.077646376801695" lon="11.115815662358342"><ele>191.0</ele><time>2026-05-03T13:23:02.982Z</time></trkpt><trkpt lat="46.07759872423691" lon="11.115749979155334"><ele>191.0</ele><time>2026-05-03T13:23:03.982Z</time></trkpt><trkpt lat="46.07753289008853" lon="11.115741408624496"><ele>191.0</ele><time>2026-05-03T13:23:04.982Z</time></trkpt><trkpt lat="46.07751646992631" lon="11.115570173209793"><ele>191.0</ele><time>2026-05-03T13:23:05.982Z</time></trkpt><trkpt lat="46.077486193250486" lon="11.11545801324962"><ele>191.0</ele><time>2026-05-03T13:23:06.982Z</time></trkpt><trkpt lat="46.07744446226604" lon="11.115335425614079"><ele>191.0</ele><time>2026-05-03T13:23:07.982Z</time></trkpt><trkpt lat="46.07740156613823" lon="11.115200549645373"><ele>191.0</ele><time>2026-05-03T13:23:08.982Z</time></trkpt><trkpt lat="46.07735386919465" lon="11.11504810440951"><ele>191.0</ele><time>2026-05-03T13:23:09.982Z</time></trkpt><trkpt lat="46.07730734691538" lon="11.114889565310001"><ele>191.0</ele><time>2026-05-03T13:23:10.982Z</time></trkpt><trkpt lat="46.077268129684676" lon="11.114768604158249"><ele>191.0</ele><time>2026-05-03T13:23:11.982Z</time></trkpt><trkpt lat="46.07723238809717" lon="11.114668539825832"><ele>191.0</ele><time>2026-05-03T13:23:12.982Z</time></trkpt><trkpt lat="46.07720717822806" lon="11.114574641222164"><ele>191.0</ele><time>2026-05-03T13:23:13.982Z</time></trkpt><trkpt lat="46.07718248757908" lon="11.114488102951402"><ele>191.0</ele><time>2026-05-03T13:23:14.982Z</time></trkpt><trkpt lat="46.0770349073338" lon="11.11404257185771"><ele>191.0</ele><time>2026-05-03T13:24:49.981Z</time></trkpt><trkpt lat="46.07656019815245" lon="11.111404638957259"><ele>190.4</ele><time>2026-05-03T13:34:16.979Z</time></trkpt><trkpt lat="46.07646909551597" lon="11.111425446253653"><ele>189.8</ele><time>2026-05-03T13:34:17.979Z</time></trkpt><trkpt lat="46.0763811193422" lon="11.111473827256049"><ele>189.20000000000002</ele><time>2026-05-03T13:34:18.979Z</time></trkpt><trkpt lat="46.076298225083235" lon="11.11154752199424"><ele>188.60000000000002</ele><time>2026-05-03T13:34:19.979Z</time></trkpt><trkpt lat="46.07622649937962" lon="11.111645335567882"><ele>188.0</ele><time>2026-05-03T13:34:20.979Z</time></trkpt><trkpt lat="46.076160585936215" lon="11.111760601396194"><ele>188.0</ele><time>2026-05-03T13:34:21.979Z</time></trkpt><trkpt lat="46.07610856980965" lon="11.111888700025276"><ele>188.0</ele><time>2026-05-03T13:34:22.979Z</time></trkpt><trkpt lat="46.07607454912205" lon="11.112010535635624"><ele>188.0</ele><time>2026-05-03T13:34:23.979Z</time></trkpt><trkpt lat="46.07605821295509" lon="11.11212954265421"><ele>188.0</ele><time>2026-05-03T13:34:24.979Z</time></trkpt><trkpt lat="46.0760011760951" lon="11.112213013663183"><ele>188.0</ele><time>2026-05-03T13:34:25.979Z</time></trkpt><trkpt lat="46.07595332098903" lon="11.112274694310862"><ele>188.0</ele><time>2026-05-03T13:34:26.979Z</time></trkpt><trkpt lat="46.0759037302138" lon="11.112333982029734"><ele>188.0</ele><time>2026-05-03T13:34:27.979Z</time></trkpt><trkpt lat="46.075839907099386" lon="11.11237408105741"><ele>188.0</ele><time>2026-05-03T13:34:28.979Z</time></trkpt><trkpt lat="46.07576946886125" lon="11.112383732603062"><ele>188.0</ele><time>2026-05-03T13:34:29.979Z</time></trkpt><trkpt lat="46.07568986374732" lon="11.112394574560026"><ele>188.0</ele><time>2026-05-03T13:34:30.979Z</time></trkpt><trkpt lat="46.07560343003289" lon="11.112400261526915"><ele>188.0</ele><time>2026-05-03T13:34:31.979Z</time></trkpt><trkpt lat="46.075504352026584" lon="11.112409294979535"><ele>188.0</ele><time>2026-05-03T13:34:32.978Z</time></trkpt><trkpt lat="46.075396578575" lon="11.11241012678483"><ele>189.25</ele><time>2026-05-03T13:34:33.978Z</time></trkpt><trkpt lat="46.07527899823906" lon="11.112409296865842"><ele>190.5</ele><time>2026-05-03T13:34:34.978Z</time></trkpt><trkpt lat="46.075151517999515" lon="11.112399515952145"><ele>191.75</ele><time>2026-05-03T13:34:35.978Z</time></trkpt><trkpt lat="46.07501736338154" lon="11.112383885612779"><ele>193.0</ele><time>2026-05-03T13:34:36.978Z</time></trkpt><trkpt lat="46.074874469312746" lon="11.11235128744362"><ele>217.0</ele><time>2026-05-03T13:34:37.978Z</time></trkpt><trkpt lat="46.07471951286357" lon="11.112309985483165"><ele>241.0</ele><time>2026-05-03T13:34:38.978Z</time></trkpt><trkpt lat="46.07455296788816" lon="11.11226652443495"><ele>265.0</ele><time>2026-05-03T13:34:39.978Z</time></trkpt><trkpt lat="46.074387778325615" lon="11.11220431414967"><ele>265.0</ele><time>2026-05-03T13:34:40.978Z</time></trkpt><trkpt lat="46.07422331304976" lon="11.112132075330871"><ele>265.0</ele><time>2026-05-03T13:34:41.978Z</time></trkpt><trkpt lat="46.07405280124095" lon="11.112058354736309"><ele>265.0</ele><time>2026-05-03T13:34:42.978Z</time></trkpt><trkpt lat="46.07388026322752" lon="11.111981273151619"><ele>276.0</ele><time>2026-05-03T13:34:43.978Z</time></trkpt><trkpt lat="46.07370574560537" lon="11.11189920067569"><ele>287.0</ele><time>2026-05-03T13:34:44.978Z</time></trkpt><trkpt lat="46.07353296041996" lon="11.111816321618958"><ele>298.0</ele><time>2026-05-03T13:34:45.978Z</time></trkpt><trkpt lat="46.07337292635591" lon="11.111686113548478"><ele>298.5</ele><time>2026-05-03T13:34:46.978Z</time></trkpt><trkpt lat="46.073191803441624" lon="11.111541457340424"><ele>299.0</ele><time>2026-05-03T13:34:48.117Z</time></trkpt><trkpt lat="46.07106986964855" lon="11.109269405476939"><ele>258.0</ele><time>2026-05-03T13:34:53.09Z</time></trkpt><trkpt lat="46.07048496257409" lon="11.108946989987029"><ele>271.0</ele><time>2026-05-03T13:34:54.088Z</time></trkpt><trkpt lat="46.06985981416543" lon="11.108848426194486"><ele>271.0</ele><time>2026-05-03T13:34:55.089Z</time></trkpt><trkpt lat="46.06923869729252" lon="11.108984990074223"><ele>281.0</ele><time>2026-05-03T13:34:56.09Z</time></trkpt><trkpt lat="46.068663800177134" lon="11.109346742179733"><ele>290.0</ele><time>2026-05-03T13:34:57.089Z</time></trkpt><trkpt lat="46.06812156209093" lon="11.109806964044015"><ele>276.0</ele><time>2026-05-03T13:34:58.089Z</time></trkpt><trkpt lat="46.06758110161318" lon="11.110268350654072"><ele>187.0</ele><time>2026-05-03T13:34:59.087Z</time></trkpt><trkpt lat="46.06569679618063" lon="11.111268402509454"><ele>187.0</ele><time>2026-05-03T13:35:03.087Z</time></trkpt><trkpt lat="46.065881719999766" lon="11.111099904872775"><ele>187.0</ele><time>2026-05-03T13:35:26.978Z</time></trkpt><trkpt lat="46.06572716058477" lon="11.111130235640204"><ele>187.0</ele><time>2026-05-03T13:35:27.978Z</time></trkpt><trkpt lat="46.065582789948046" lon="11.111091455636801"><ele>187.0</ele><time>2026-05-03T13:35:28.978Z</time></trkpt><trkpt lat="46.06539039619328" lon="11.111130316076558"><ele>187.0</ele><time>2026-05-03T13:35:29.978Z</time></trkpt><trkpt lat="46.06524233569571" lon="11.111218956509088"><ele>187.0</ele><time>2026-05-03T13:35:30.978Z</time></trkpt><trkpt lat="46.06507549440334" lon="11.111239107580081"><ele>188.33333333333334</ele><time>2026-05-03T13:35:31.978Z</time></trkpt><trkpt lat="46.06490407606198" lon="11.111244355634787"><ele>189.66666666666666</ele><time>2026-05-03T13:35:32.978Z</time></trkpt><trkpt lat="46.06472670878294" lon="11.111236532782238"><ele>191.0</ele><time>2026-05-03T13:35:33.978Z</time></trkpt><trkpt lat="46.064579842099256" lon="11.111218979012083"><ele>191.0</ele><time>2026-05-03T13:35:34.978Z</time></trkpt><trkpt lat="46.06440431829717" lon="11.111197699649475"><ele>191.0</ele><time>2026-05-03T13:35:35.978Z</time></trkpt><trkpt lat="46.064223608490515" lon="11.111174470991246"><ele>191.0</ele><time>2026-05-03T13:35:36.978Z</time></trkpt><trkpt lat="46.06403841763619" lon="11.111150630758495"><ele>190.33333333333331</ele><time>2026-05-03T13:35:37.978Z</time></trkpt><trkpt lat="46.06384995912913" lon="11.111115792019419"><ele>189.66666666666666</ele><time>2026-05-03T13:35:38.978Z</time></trkpt><trkpt lat="46.06367137788968" lon="11.11107296775327"><ele>189.0</ele><time>2026-05-03T13:35:39.978Z</time></trkpt><trkpt lat="46.06349378802607" lon="11.111028449216503"><ele>189.0</ele><time>2026-05-03T13:35:40.978Z</time></trkpt><trkpt lat="46.06331697840579" lon="11.110987875336347"><ele>189.0</ele><time>2026-05-03T13:35:41.978Z</time></trkpt><trkpt lat="46.06314016151422" lon="11.11094378590062"><ele>189.0</ele><time>2026-05-03T13:35:42.978Z</time></trkpt><trkpt lat="46.06296371168" lon="11.110895206803013"><ele>189.0</ele><time>2026-05-03T13:35:43.977Z</time></trkpt><trkpt lat="46.06278648775268" lon="11.110853343934005"><ele>189.0</ele><time>2026-05-03T13:35:44.977Z</time></trkpt><trkpt lat="46.06260839311303" lon="11.110812233295103"><ele>189.0</ele><time>2026-05-03T13:35:45.977Z</time></trkpt><trkpt lat="46.06243019914731" lon="11.110766611642548"><ele>192.0</ele><time>2026-05-03T13:35:46.977Z</time></trkpt><trkpt lat="46.062248974590396" lon="11.110719718053437"><ele>195.0</ele><time>2026-05-03T13:35:47.977Z</time></trkpt><trkpt lat="46.06206130819991" lon="11.110674356646195"><ele>198.0</ele><time>2026-05-03T13:35:48.977Z</time></trkpt><trkpt lat="46.06186390949297" lon="11.110628912576061"><ele>198.0</ele><time>2026-05-03T13:35:49.977Z</time></trkpt><trkpt lat="46.06168279877468" lon="11.110586533290524"><ele>198.0</ele><time>2026-05-03T13:35:50.977Z</time></trkpt><trkpt lat="46.06151548944111" lon="11.110545494857584"><ele>198.0</ele><time>2026-05-03T13:35:51.977Z</time></trkpt><trkpt lat="46.06133879716482" lon="11.110504012072225"><ele>196.5</ele><time>2026-05-03T13:35:52.977Z</time></trkpt><trkpt lat="46.06112151723597" lon="11.110456308951013"><ele>195.0</ele><time>2026-05-03T13:35:53.977Z</time></trkpt><trkpt lat="46.06087103521338" lon="11.110393194779846"><ele>194.5</ele><time>2026-05-03T13:35:54.977Z</time></trkpt><trkpt lat="46.06059463614945" lon="11.110328098250964"><ele>194.0</ele><time>2026-05-03T13:35:55.977Z</time></trkpt><trkpt lat="46.06033352331528" lon="11.110262657467219"><ele>194.0</ele><time>2026-05-03T13:35:56.977Z</time></trkpt><trkpt lat="46.06009034907222" lon="11.110198320441535"><ele>194.0</ele><time>2026-05-03T13:35:57.977Z</time></trkpt><trkpt lat="46.059859993051695" lon="11.11014047746994"><ele>192.0</ele><time>2026-05-03T13:35:58.977Z</time></trkpt><trkpt lat="46.0596280198365" lon="11.11008220005943"><ele>190.0</ele><time>2026-05-03T13:35:59.977Z</time></trkpt><trkpt lat="46.059391201492616" lon="11.110020016738025"><ele>190.0</ele><time>2026-05-03T13:36:00.977Z</time></trkpt><trkpt lat="46.05915117193666" lon="11.109957382802076"><ele>190.0</ele><time>2026-05-03T13:36:01.977Z</time></trkpt><trkpt lat="46.05890782973784" lon="11.109896279680852"><ele>192.0</ele><time>2026-05-03T13:36:02.977Z</time></trkpt><trkpt lat="46.05865124782379" lon="11.109831543553286"><ele>194.0</ele><time>2026-05-03T13:36:03.977Z</time></trkpt><trkpt lat="46.058400458525504" lon="11.109765148824613"><ele>191.0</ele><time>2026-05-03T13:36:04.977Z</time></trkpt><trkpt lat="46.058145942447105" lon="11.109697913993857"><ele>188.0</ele><time>2026-05-03T13:36:05.977Z</time></trkpt><trkpt lat="46.05788868071507" lon="11.109626039685041"><ele>188.0</ele><time>2026-05-03T13:36:06.977Z</time></trkpt><trkpt lat="46.057629680507134" lon="11.10955420942554"><ele>188.0</ele><time>2026-05-03T13:36:07.977Z</time></trkpt><trkpt lat="46.05737246997403" lon="11.109484862383358"><ele>189.5</ele><time>2026-05-03T13:36:08.977Z</time></trkpt><trkpt lat="46.05711562001029" lon="11.109416366447524"><ele>191.0</ele><time>2026-05-03T13:36:09.977Z</time></trkpt><trkpt lat="46.05685787504388" lon="11.10935024628343"><ele>189.5</ele><time>2026-05-03T13:36:10.977Z</time></trkpt><trkpt lat="46.05659881316812" lon="11.1092798258252"><ele>188.0</ele><time>2026-05-03T13:36:11.977Z</time></trkpt><trkpt lat="46.056339005822956" lon="11.109210451132071"><ele>188.0</ele><time>2026-05-03T13:36:12.977Z</time></trkpt><trkpt lat="46.056078857066886" lon="11.109148893226507"><ele>188.0</ele><time>2026-05-03T13:36:13.978Z</time></trkpt><trkpt lat="46.05581845578949" lon="11.109098856179884"><ele>187.0</ele><time>2026-05-03T13:36:14.978Z</time></trkpt><trkpt lat="46.0555495379144" lon="11.109075091793198"><ele>186.0</ele><time>2026-05-03T13:36:15.978Z</time></trkpt><trkpt lat="46.04634510856998" lon="11.115992112556572"><ele>186.0</ele><time>2026-05-03T13:37:16.976Z</time></trkpt><trkpt lat="46.04622679210452" lon="11.116109536071946"><ele>186.0</ele><time>2026-05-03T13:37:17.976Z</time></trkpt><trkpt lat="46.04610484192428" lon="11.116228995906022"><ele>186.0</ele><time>2026-05-03T13:37:18.976Z</time></trkpt><trkpt lat="46.04597842625679" lon="11.116345726258132"><ele>186.0</ele><time>2026-05-03T13:37:19.976Z</time></trkpt><trkpt lat="46.04585399868101" lon="11.116449649632422"><ele>185.66666666666666</ele><time>2026-05-03T13:37:20.976Z</time></trkpt><trkpt lat="46.04572963661784" lon="11.116546834380781"><ele>185.33333333333331</ele><time>2026-05-03T13:37:21.976Z</time></trkpt><trkpt lat="46.045591004964734" lon="11.116637702617032"><ele>185.0</ele><time>2026-05-03T13:37:22.976Z</time></trkpt><trkpt lat="46.04544405238296" lon="11.116713599188111"><ele>186.33333333333331</ele><time>2026-05-03T13:37:23.976Z</time></trkpt><trkpt lat="46.045288266639325" lon="11.116785819709738"><ele>187.66666666666666</ele><time>2026-05-03T13:37:24.976Z</time></trkpt><trkpt lat="46.04512335085122" lon="11.116847577592802"><ele>189.0</ele><time>2026-05-03T13:37:25.976Z</time></trkpt><trkpt lat="46.04496516801703" lon="11.116896888056388"><ele>189.66666666666666</ele><time>2026-05-03T13:37:26.976Z</time></trkpt><trkpt lat="46.0448067312211" lon="11.116949017052082"><ele>190.33333333333331</ele><time>2026-05-03T13:37:27.976Z</time></trkpt><trkpt lat="46.04464575880103" lon="11.117006989289612"><ele>191.0</ele><time>2026-05-03T13:37:28.976Z</time></trkpt><trkpt lat="46.04449174931715" lon="11.117081112178292"><ele>191.0</ele><time>2026-05-03T13:37:29.976Z</time></trkpt><trkpt lat="46.044342513382276" lon="11.117176085547605"><ele>191.0</ele><time>2026-05-03T13:37:30.976Z</time></trkpt><trkpt lat="46.04419239153445" lon="11.117288813682764"><ele>191.0</ele><time>2026-05-03T13:37:31.976Z</time></trkpt><trkpt lat="46.04404534406704" lon="11.117418053659016"><ele>190.0</ele><time>2026-05-03T13:37:32.976Z</time></trkpt><trkpt lat="46.04390033323579" lon="11.11756530427331"><ele>189.0</ele><time>2026-05-03T13:37:33.976Z</time></trkpt><trkpt lat="46.043759303795355" lon="11.117711077284536"><ele>188.0</ele><time>2026-05-03T13:37:34.976Z</time></trkpt><trkpt lat="46.0436245591142" lon="11.117848503284815"><ele>188.0</ele><time>2026-05-03T13:37:35.976Z</time></trkpt><trkpt lat="46.04349159999544" lon="11.117992652054921"><ele>188.0</ele><time>2026-05-03T13:37:36.976Z</time></trkpt><trkpt lat="46.04335815769711" lon="11.118142232001997"><ele>188.0</ele><time>2026-05-03T13:37:37.976Z</time></trkpt><trkpt lat="46.04322187078473" lon="11.118294456993008"><ele>187.66666666666666</ele><time>2026-05-03T13:37:38.976Z</time></trkpt><trkpt lat="46.04308068685461" lon="11.118451297706638"><ele>187.33333333333334</ele><time>2026-05-03T13:37:39.976Z</time></trkpt><trkpt lat="46.042934424026996" lon="11.118617834862063"><ele>187.0</ele><time>2026-05-03T13:37:40.976Z</time></trkpt><trkpt lat="46.04278040803024" lon="11.11879316706344"><ele>187.0</ele><time>2026-05-03T13:37:41.976Z</time></trkpt><trkpt lat="46.04262118879777" lon="11.118971619709408"><ele>187.0</ele><time>2026-05-03T13:37:42.976Z</time></trkpt><trkpt lat="46.0424542940599" lon="11.119158637289157"><ele>187.0</ele><time>2026-05-03T13:37:43.976Z</time></trkpt><trkpt lat="46.042281704198814" lon="11.119353694050975"><ele>188.0</ele><time>2026-05-03T13:37:44.976Z</time></trkpt><trkpt lat="46.042111305341905" lon="11.119537595614577"><ele>189.0</ele><time>2026-05-03T13:37:45.976Z</time></trkpt><trkpt lat="46.04194807164617" lon="11.119713742697298"><ele>190.0</ele><time>2026-05-03T13:37:46.976Z</time></trkpt><trkpt lat="46.041781903233314" lon="11.119902964288555"><ele>188.66666666666669</ele><time>2026-05-03T13:37:47.976Z</time></trkpt><trkpt lat="46.04161490777399" lon="11.120097137196419"><ele>187.33333333333334</ele><time>2026-05-03T13:37:48.976Z</time></trkpt><trkpt lat="46.041443136952644" lon="11.120298235244531"><ele>186.0</ele><time>2026-05-03T13:37:49.976Z</time></trkpt><trkpt lat="46.04126681352084" lon="11.12049022771955"><ele>186.0</ele><time>2026-05-03T13:37:50.976Z</time></trkpt><trkpt lat="46.04108733746829" lon="11.120690242580839"><ele>186.0</ele><time>2026-05-03T13:37:51.976Z</time></trkpt><trkpt lat="46.040908362141074" lon="11.120892199038044"><ele>186.5</ele><time>2026-05-03T13:37:52.976Z</time></trkpt><trkpt lat="46.04072879827024" lon="11.121091467801804"><ele>187.0</ele><time>2026-05-03T13:37:53.976Z</time></trkpt><trkpt lat="46.040545039670846" lon="11.121291595328458"><ele>187.0</ele><time>2026-05-03T13:37:54.976Z</time></trkpt><trkpt lat="46.0403610978783" lon="11.121493569021238"><ele>187.0</ele><time>2026-05-03T13:37:55.976Z</time></trkpt><trkpt lat="46.04017707221172" lon="11.121697433011978"><ele>186.0</ele><time>2026-05-03T13:37:56.976Z</time></trkpt><trkpt lat="46.039995588953936" lon="11.121901297328375"><ele>185.0</ele><time>2026-05-03T13:37:57.976Z</time></trkpt><trkpt lat="46.03981219810509" lon="11.122103115230935"><ele>184.5</ele><time>2026-05-03T13:37:58.976Z</time></trkpt><trkpt lat="46.03962662046667" lon="11.12230262608162"><ele>184.0</ele><time>2026-05-03T13:37:59.976Z</time></trkpt><trkpt lat="46.039436399897525" lon="11.122494481942866"><ele>184.0</ele><time>2026-05-03T13:38:00.976Z</time></trkpt><trkpt lat="46.039240536257815" lon="11.122680412257814"><ele>184.0</ele><time>2026-05-03T13:38:01.976Z</time></trkpt><trkpt lat="46.03904227593761" lon="11.122858554687756"><ele>182.5</ele><time>2026-05-03T13:38:02.976Z</time></trkpt><trkpt lat="46.03884385140424" lon="11.123039095886215"><ele>181.0</ele><time>2026-05-03T13:38:03.976Z</time></trkpt><trkpt lat="46.038643956436196" lon="11.123218781893883"><ele>182.0</ele><time>2026-05-03T13:38:04.976Z</time></trkpt><trkpt lat="46.03844526624977" lon="11.123394756461803"><ele>183.0</ele><time>2026-05-03T13:38:05.976Z</time></trkpt><trkpt lat="46.038247339169686" lon="11.123573891583105"><ele>183.33333333333334</ele><time>2026-05-03T13:38:06.976Z</time></trkpt><trkpt lat="46.0380559988763" lon="11.123744566283886"><ele>183.66666666666669</ele><time>2026-05-03T13:38:07.976Z</time></trkpt><trkpt lat="46.037874051040724" lon="11.123904928007507"><ele>184.0</ele><time>2026-05-03T13:38:08.976Z</time></trkpt><trkpt lat="46.03769783454023" lon="11.124055030654842"><ele>184.33333333333334</ele><time>2026-05-03T13:38:09.976Z</time></trkpt><trkpt lat="46.037530896447784" lon="11.124200734355071"><ele>184.66666666666666</ele><time>2026-05-03T13:38:10.976Z</time></trkpt><trkpt lat="46.03736364468888" lon="11.124336923327705"><ele>185.0</ele><time>2026-05-03T13:38:11.976Z</time></trkpt><trkpt lat="46.03719834498894" lon="11.124457866415094"><ele>185.0</ele><time>2026-05-03T13:38:12.976Z</time></trkpt><trkpt lat="46.03705265385659" lon="11.12456129172579"><ele>185.0</ele><time>2026-05-03T13:38:13.975Z</time></trkpt><trkpt lat="46.03692055527723" lon="11.124646747857607"><ele>185.0</ele><time>2026-05-03T13:38:14.975Z</time></trkpt><trkpt lat="46.03679536785583" lon="11.124726181843409"><ele>185.0</ele><time>2026-05-03T13:38:15.975Z</time></trkpt><trkpt lat="46.035142515685486" lon="11.127554916483474"><ele>185.33333333333331</ele><time>2026-05-03T13:39:16.976Z</time></trkpt><trkpt lat="46.035161999533265" lon="11.127455777949745"><ele>185.66666666666666</ele><time>2026-05-03T13:39:17.976Z</time></trkpt><trkpt lat="46.035201551688644" lon="11.127374021945379"><ele>186.0</ele><time>2026-05-03T13:39:18.976Z</time></trkpt><trkpt lat="46.0352259864203" lon="11.127287681166262"><ele>186.33333333333334</ele><time>2026-05-03T13:39:19.976Z</time></trkpt><trkpt lat="46.03525992711728" lon="11.127159143032992"><ele>186.66666666666669</ele><time>2026-05-03T13:39:21.976Z</time></trkpt><trkpt lat="46.03528656307559" lon="11.127037799896462"><ele>187.0</ele><time>2026-05-03T13:39:23.976Z</time></trkpt><trkpt lat="46.035333579088295" lon="11.126929370919735"><ele>187.0</ele><time>2026-05-03T13:39:25.976Z</time></trkpt><trkpt lat="46.03535943101491" lon="11.126837286676674"><ele>187.0</ele><time>2026-05-03T13:39:29.975Z</time></trkpt><trkpt lat="46.03528495775125" lon="11.126899569671727"><ele>187.0</ele><time>2026-05-03T13:39:47.975Z</time></trkpt><trkpt lat="46.035273665780316" lon="11.127054385917637"><ele>187.0</ele><time>2026-05-03T13:39:49.975Z</time></trkpt><trkpt lat="46.035249139648215" lon="11.127153720531595"><ele>187.0</ele><time>2026-05-03T13:39:50.975Z</time></trkpt><trkpt lat="46.03539582345662" lon="11.127317816403789"><ele>187.0</ele><time>2026-05-03T13:39:51.975Z</time></trkpt><trkpt lat="46.035401353039255" lon="11.127495272473608"><ele>187.0</ele><time>2026-05-03T13:39:52.975Z</time></trkpt><trkpt lat="46.035203356867974" lon="11.127704571680516"><ele>187.0</ele><time>2026-05-03T13:39:53.975Z</time></trkpt><trkpt lat="46.03509963894663" lon="11.127854948384028"><ele>187.0</ele><time>2026-05-03T13:39:54.975Z</time></trkpt><trkpt lat="46.03499253576259" lon="11.12795241591289"><ele>187.0</ele><time>2026-05-03T13:39:55.975Z</time></trkpt><trkpt lat="46.03490331087109" lon="11.128033323837316"><ele>187.0</ele><time>2026-05-03T13:39:56.975Z</time></trkpt><trkpt lat="46.034692833665716" lon="11.127853794906153"><ele>186.8</ele><time>2026-05-03T13:39:57.975Z</time></trkpt><trkpt lat="46.03457262875149" lon="11.127840083501418"><ele>186.6</ele><time>2026-05-03T13:39:58.975Z</time></trkpt><trkpt lat="46.03446835913694" lon="11.12780460220181"><ele>186.4</ele><time>2026-05-03T13:39:59.975Z</time></trkpt><trkpt lat="46.03438345620383" lon="11.127733986036063"><ele>186.20000000000002</ele><time>2026-05-03T13:40:00.975Z</time></trkpt><trkpt lat="46.03432184106327" lon="11.127633099602171"><ele>186.0</ele><time>2026-05-03T13:40:01.975Z</time></trkpt><trkpt lat="46.03429214495042" lon="11.127504618661577"><ele>186.0</ele><time>2026-05-03T13:40:02.975Z</time></trkpt><trkpt lat="46.034302298823" lon="11.127367194138653"><ele>186.0</ele><time>2026-05-03T13:40:03.975Z</time></trkpt><trkpt lat="46.03435019438435" lon="11.127231025442578"><ele>186.0</ele><time>2026-05-03T13:40:04.975Z</time></trkpt><trkpt lat="46.03440972886709" lon="11.12711575028296"><ele>186.0</ele><time>2026-05-03T13:40:05.975Z</time></trkpt><trkpt lat="46.03444973244266" lon="11.126998800145671"><ele>186.0</ele><time>2026-05-03T13:40:06.975Z</time></trkpt><trkpt lat="46.03445760002046" lon="11.126873551737589"><ele>186.0</ele><time>2026-05-03T13:40:07.975Z</time></trkpt><trkpt lat="46.034446473508595" lon="11.126762458478556"><ele>186.0</ele><time>2026-05-03T13:40:08.975Z</time></trkpt><trkpt lat="46.03445121215738" lon="11.126666870354235"><ele>186.0</ele><time>2026-05-03T13:40:10.975Z</time></trkpt><trkpt lat="46.032425943640376" lon="11.132186586327142"><ele>185.66666666666666</ele><time>2026-05-03T13:41:16.975Z</time></trkpt><trkpt lat="46.03247949570467" lon="11.132247308264795"><ele>185.33333333333334</ele><time>2026-05-03T13:41:17.975Z</time></trkpt><trkpt lat="46.03253355548496" lon="11.132296004924017"><ele>185.0</ele><time>2026-05-03T13:41:18.975Z</time></trkpt><trkpt lat="46.032616382157585" lon="11.132326751942712"><ele>184.66666666666669</ele><time>2026-05-03T13:41:20.975Z</time></trkpt><trkpt lat="46.0326189803407" lon="11.132452456635228"><ele>184.33333333333334</ele><time>2026-05-03T13:41:21.974Z</time></trkpt><trkpt lat="46.03267331711833" lon="11.132545210408837"><ele>184.0</ele><time>2026-05-03T13:41:23.974Z</time></trkpt><trkpt lat="46.03280896871328" lon="11.132579676882377"><ele>185.0</ele><time>2026-05-03T13:41:25.974Z</time></trkpt><trkpt lat="46.03292591552442" lon="11.132603681399276"><ele>186.0</ele><time>2026-05-03T13:41:26.974Z</time></trkpt><trkpt lat="46.0330701870177" lon="11.132599543900886"><ele>187.0</ele><time>2026-05-03T13:41:27.974Z</time></trkpt><trkpt lat="46.033235873939084" lon="11.132605098376684"><ele>188.0</ele><time>2026-05-03T13:41:28.974Z</time></trkpt><trkpt lat="46.03338565653086" lon="11.132611005922014"><ele>188.0</ele><time>2026-05-03T13:41:29.974Z</time></trkpt><trkpt lat="46.033521898630475" lon="11.132630095951258"><ele>188.0</ele><time>2026-05-03T13:41:30.974Z</time></trkpt><trkpt lat="46.03362774252131" lon="11.13265883148481"><ele>188.0</ele><time>2026-05-03T13:41:31.974Z</time></trkpt><trkpt lat="46.0337016597144" lon="11.132684961074169"><ele>188.0</ele><time>2026-05-03T13:41:32.974Z</time></trkpt><trkpt lat="46.03379970723175" lon="11.13271769287852"><ele>188.0</ele><time>2026-05-03T13:41:34.974Z</time></trkpt><trkpt lat="46.03386856304729" lon="11.132744667152904"><ele>188.0</ele><time>2026-05-03T13:41:36.974Z</time></trkpt><trkpt lat="46.03393591446763" lon="11.132791194185494"><ele>188.0</ele><time>2026-05-03T13:41:39.974Z</time></trkpt><trkpt lat="46.03404498301542" lon="11.132831866055657"><ele>188.0</ele><time>2026-05-03T13:41:41.974Z</time></trkpt><trkpt lat="46.03417319408602" lon="11.132898509097728"><ele>188.0</ele><time>2026-05-03T13:41:43.974Z</time></trkpt><trkpt lat="46.034244554263516" lon="11.132933282139941"><ele>188.0</ele><time>2026-05-03T13:41:44.974Z</time></trkpt><trkpt lat="46.03433048589473" lon="11.13297349997343"><ele>188.75</ele><time>2026-05-03T13:41:45.974Z</time></trkpt><trkpt lat="46.03443172072812" lon="11.133022912871713"><ele>189.5</ele><time>2026-05-03T13:41:46.974Z</time></trkpt><trkpt lat="46.03454268851156" lon="11.133103081691562"><ele>190.25</ele><time>2026-05-03T13:41:47.974Z</time></trkpt><trkpt lat="46.03466838090737" lon="11.133170346876845"><ele>191.0</ele><time>2026-05-03T13:41:48.974Z</time></trkpt><trkpt lat="46.03480997477387" lon="11.133226531929362"><ele>196.0</ele><time>2026-05-03T13:41:49.974Z</time></trkpt><trkpt lat="46.03495964955157" lon="11.133257843365959"><ele>201.0</ele><time>2026-05-03T13:41:50.974Z</time></trkpt><trkpt lat="46.035104467245894" lon="11.13325994213257"><ele>206.0</ele><time>2026-05-03T13:41:51.974Z</time></trkpt><trkpt lat="46.03524755531987" lon="11.133252167606837"><ele>211.0</ele><time>2026-05-03T13:41:52.974Z</time></trkpt><trkpt lat="46.035386773396546" lon="11.133245871957099"><ele>211.0</ele><time>2026-05-03T13:41:53.974Z</time></trkpt><trkpt lat="46.035524905085126" lon="11.133247657214806"><ele>211.0</ele><time>2026-05-03T13:41:54.974Z</time></trkpt><trkpt lat="46.0356551110972" lon="11.133261483565448"><ele>211.0</ele><time>2026-05-03T13:41:55.974Z</time></trkpt><trkpt lat="46.03577839071193" lon="11.133286210396525"><ele>211.0</ele><time>2026-05-03T13:41:56.974Z</time></trkpt><trkpt lat="46.03590214558031" lon="11.133327021433411"><ele>210.75</ele><time>2026-05-03T13:41:57.974Z</time></trkpt><trkpt lat="46.036038464004534" lon="11.133381947879768"><ele>210.5</ele><time>2026-05-03T13:41:58.974Z</time></trkpt><trkpt lat="46.03616779806805" lon="11.13343834510915"><ele>210.25</ele><time>2026-05-03T13:41:59.974Z</time></trkpt><trkpt lat="46.0362903358775" lon="11.133497652317288"><ele>210.0</ele><time>2026-05-03T13:42:00.974Z</time></trkpt><trkpt lat="46.036420569206626" lon="11.133551300809009"><ele>210.0</ele><time>2026-05-03T13:42:01.974Z</time></trkpt><trkpt lat="46.0365412868757" lon="11.133599536250156"><ele>210.0</ele><time>2026-05-03T13:42:02.974Z</time></trkpt><trkpt lat="46.03664932510953" lon="11.133641234616027"><ele>210.0</ele><time>2026-05-03T13:42:03.974Z</time></trkpt><trkpt lat="46.036748200583816" lon="11.133675651416954"><ele>210.0</ele><time>2026-05-03T13:42:04.974Z</time></trkpt><trkpt lat="46.03684275063194" lon="11.133692701886861"><ele>210.0</ele><time>2026-05-03T13:42:05.974Z</time></trkpt><trkpt lat="46.03693323157524" lon="11.133707480490308"><ele>210.6</ele><time>2026-05-03T13:42:06.974Z</time></trkpt><trkpt lat="46.03702553451689" lon="11.133723841257025"><ele>211.2</ele><time>2026-05-03T13:42:07.974Z</time></trkpt><trkpt lat="46.03712128999215" lon="11.133751609288563"><ele>211.8</ele><time>2026-05-03T13:42:08.974Z</time></trkpt><trkpt lat="46.03722641748974" lon="11.133788847515012"><ele>212.4</ele><time>2026-05-03T13:42:09.974Z</time></trkpt><trkpt lat="46.03733041546731" lon="11.133828764662395"><ele>213.0</ele><time>2026-05-03T13:42:10.974Z</time></trkpt><trkpt lat="46.037436997914234" lon="11.133874576569252"><ele>213.2</ele><time>2026-05-03T13:42:11.974Z</time></trkpt><trkpt lat="46.03753890914288" lon="11.133932264370005"><ele>213.4</ele><time>2026-05-03T13:42:12.974Z</time></trkpt><trkpt lat="46.037641477100614" lon="11.133998909204973"><ele>213.59999999999997</ele><time>2026-05-03T13:42:13.974Z</time></trkpt><trkpt lat="46.037740092922704" lon="11.134073804870743"><ele>213.79999999999998</ele><time>2026-05-03T13:42:14.974Z</time></trkpt><trkpt lat="46.037835152557484" lon="11.134147812283958"><ele>214.0</ele><time>2026-05-03T13:42:15.974Z</time></trkpt><trkpt lat="46.03970639469104" lon="11.137342964204231"><ele>220.66666666666666</ele><time>2026-05-03T13:43:16.973Z</time></trkpt><trkpt lat="46.03971189002121" lon="11.137511420250187"><ele>227.33333333333331</ele><time>2026-05-03T13:43:17.973Z</time></trkpt><trkpt lat="46.03969978185957" lon="11.137618697347396"><ele>234.0</ele><time>2026-05-03T13:43:18.973Z</time></trkpt><trkpt lat="46.039671112676224" lon="11.137704375790983"><ele>240.66666666666669</ele><time>2026-05-03T13:43:19.973Z</time></trkpt><trkpt lat="46.03960598313591" lon="11.137789181645926"><ele>247.33333333333334</ele><time>2026-05-03T13:43:20.973Z</time></trkpt><trkpt lat="46.03951772890614" lon="11.137834515576332"><ele>254.0</ele><time>2026-05-03T13:43:21.973Z</time></trkpt><trkpt lat="46.03940601410483" lon="11.137839645126359"><ele>254.0</ele><time>2026-05-03T13:43:22.973Z</time></trkpt><trkpt lat="46.03929139373043" lon="11.137811852248841"><ele>254.0</ele><time>2026-05-03T13:43:23.973Z</time></trkpt><trkpt lat="46.03917489421498" lon="11.137756037288163"><ele>254.0</ele><time>2026-05-03T13:43:24.973Z</time></trkpt><trkpt lat="46.03905527034492" lon="11.13773421379921"><ele>254.0</ele><time>2026-05-03T13:43:25.973Z</time></trkpt><trkpt lat="46.03894275981075" lon="11.137761605568507"><ele>254.2</ele><time>2026-05-03T13:43:26.973Z</time></trkpt><trkpt lat="46.03884378379541" lon="11.137826276805049"><ele>254.39999999999998</ele><time>2026-05-03T13:43:27.973Z</time></trkpt><trkpt lat="46.03876239727954" lon="11.13792759018277"><ele>254.6</ele><time>2026-05-03T13:43:28.973Z</time></trkpt><trkpt lat="46.03870602597223" lon="11.138061638921833"><ele>254.8</ele><time>2026-05-03T13:43:29.973Z</time></trkpt><trkpt lat="46.0386741690505" lon="11.138217371367508"><ele>255.0</ele><time>2026-05-03T13:43:30.973Z</time></trkpt><trkpt lat="46.03865856611894" lon="11.138395230444917"><ele>257.0</ele><time>2026-05-03T13:43:31.973Z</time></trkpt><trkpt lat="46.03864072653079" lon="11.13857582148"><ele>259.0</ele><time>2026-05-03T13:43:32.973Z</time></trkpt><trkpt lat="46.03862000925599" lon="11.138772000733534"><ele>261.0</ele><time>2026-05-03T13:43:33.973Z</time></trkpt><trkpt lat="46.03860536572889" lon="11.138982274878208"><ele>263.0</ele><time>2026-05-03T13:43:34.973Z</time></trkpt><trkpt lat="46.038593803865425" lon="11.139195474916722"><ele>265.25</ele><time>2026-05-03T13:43:35.973Z</time></trkpt><trkpt lat="46.03860801435484" lon="11.139403450063845"><ele>267.5</ele><time>2026-05-03T13:43:36.973Z</time></trkpt><trkpt lat="46.0386410450034" lon="11.139603590298355"><ele>269.75</ele><time>2026-05-03T13:43:37.973Z</time></trkpt><trkpt lat="46.03871139596936" lon="11.139785794748034"><ele>272.0</ele><time>2026-05-03T13:43:38.973Z</time></trkpt><trkpt lat="46.0388144086505" lon="11.139952147250483"><ele>272.6666666666667</ele><time>2026-05-03T13:43:39.973Z</time></trkpt><trkpt lat="46.03893665072172" lon="11.140102646001756"><ele>273.3333333333333</ele><time>2026-05-03T13:43:40.973Z</time></trkpt><trkpt lat="46.03906988546417" lon="11.140252829681712"><ele>274.0</ele><time>2026-05-03T13:43:41.973Z</time></trkpt><trkpt lat="46.03920321507209" lon="11.140391642763875"><ele>274.0</ele><time>2026-05-03T13:43:42.973Z</time></trkpt><trkpt lat="46.03932678106668" lon="11.140522197640427"><ele>274.0</ele><time>2026-05-03T13:43:43.973Z</time></trkpt><trkpt lat="46.03944009637512" lon="11.140655239231425"><ele>274.0</ele><time>2026-05-03T13:43:44.973Z</time></trkpt><trkpt lat="46.03955310859256" lon="11.140798972301363"><ele>276.25</ele><time>2026-05-03T13:43:45.973Z</time></trkpt><trkpt lat="46.03964884775533" lon="11.140920440506854"><ele>278.5</ele><time>2026-05-03T13:43:46.973Z</time></trkpt><trkpt lat="46.039750892541655" lon="11.141043674731756"><ele>280.75</ele><time>2026-05-03T13:43:47.973Z</time></trkpt><trkpt lat="46.03984825850116" lon="11.141165093597085"><ele>283.0</ele><time>2026-05-03T13:43:48.973Z</time></trkpt><trkpt lat="46.03994024871815" lon="11.141278343015838"><ele>283.0</ele><time>2026-05-03T13:43:49.973Z</time></trkpt><trkpt lat="46.04002457115145" lon="11.14140865017161"><ele>283.0</ele><time>2026-05-03T13:43:50.973Z</time></trkpt><trkpt lat="46.04009595230668" lon="11.14156658751015"><ele>283.0</ele><time>2026-05-03T13:43:51.973Z</time></trkpt><trkpt lat="46.04014891472957" lon="11.141740371717432"><ele>283.0</ele><time>2026-05-03T13:43:52.973Z</time></trkpt><trkpt lat="46.04022029962803" lon="11.141885874553047"><ele>283.75</ele><time>2026-05-03T13:43:53.973Z</time></trkpt><trkpt lat="46.04030606051812" lon="11.142026403085717"><ele>284.5</ele><time>2026-05-03T13:43:54.973Z</time></trkpt><trkpt lat="46.04042283583893" lon="11.142065937792275"><ele>285.25</ele><time>2026-05-03T13:43:55.973Z</time></trkpt><trkpt lat="46.040532623467946" lon="11.14208577735515"><ele>286.0</ele><time>2026-05-03T13:43:56.973Z</time></trkpt><trkpt lat="46.04066348348374" lon="11.142077791810216"><ele>286.0</ele><time>2026-05-03T13:43:57.973Z</time></trkpt><trkpt lat="46.04080531369678" lon="11.142048186769388"><ele>286.0</ele><time>2026-05-03T13:43:58.973Z</time></trkpt><trkpt lat="46.04094417837127" lon="11.141973885496112"><ele>286.0</ele><time>2026-05-03T13:43:59.973Z</time></trkpt><trkpt lat="46.041089231010645" lon="11.141862470188807"><ele>286.0</ele><time>2026-05-03T13:44:00.973Z</time></trkpt><trkpt lat="46.041220594937414" lon="11.141728848208231"><ele>286.0</ele><time>2026-05-03T13:44:01.973Z</time></trkpt><trkpt lat="46.04134521606466" lon="11.141617378208217"><ele>286.0</ele><time>2026-05-03T13:44:02.973Z</time></trkpt><trkpt lat="46.04147497082114" lon="11.14155629422536"><ele>286.0</ele><time>2026-05-03T13:44:03.973Z</time></trkpt><trkpt lat="46.04160394834849" lon="11.14151297654159"><ele>286.40000000000003</ele><time>2026-05-03T13:44:04.973Z</time></trkpt><trkpt lat="46.041722751547105" lon="11.141468143660273"><ele>286.8</ele><time>2026-05-03T13:44:05.973Z</time></trkpt><trkpt lat="46.04181926943292" lon="11.141455563847728"><ele>287.20000000000005</ele><time>2026-05-03T13:44:06.973Z</time></trkpt><trkpt lat="46.04192362955282" lon="11.141515710143818"><ele>287.6</ele><time>2026-05-03T13:44:08.973Z</time></trkpt><trkpt lat="46.04199492610187" lon="11.141566370372677"><ele>288.0</ele><time>2026-05-03T13:44:10.973Z</time></trkpt><trkpt lat="46.04206342336441" lon="11.141629661080763"><ele>288.0</ele><time>2026-05-03T13:44:13.973Z</time></trkpt><trkpt lat="46.04201395262417" lon="11.14182165661529"><ele>288.0</ele><time>2026-05-03T13:44:14.973Z</time></trkpt><trkpt lat="46.035704599569556" lon="11.14573822323113"><ele>307.0</ele><time>2026-05-03T13:45:16.972Z</time></trkpt><trkpt lat="46.03557732123784" lon="11.145786261881906"><ele>326.0</ele><time>2026-05-03T13:45:17.972Z</time></trkpt><trkpt lat="46.03544438977838" lon="11.145838504218172"><ele>345.0</ele><time>2026-05-03T13:45:18.972Z</time></trkpt><trkpt lat="46.03529773668254" lon="11.145907680131549"><ele>364.0</ele><time>2026-05-03T13:45:19.972Z</time></trkpt><trkpt lat="46.035144281247334" lon="11.145983864071795"><ele>364.0</ele><time>2026-05-03T13:45:20.972Z</time></trkpt><trkpt lat="46.03498912104724" lon="11.146064663005761"><ele>364.0</ele><time>2026-05-03T13:45:21.972Z</time></trkpt><trkpt lat="46.03483912015638" lon="11.14612931312158"><ele>364.0</ele><time>2026-05-03T13:45:22.972Z</time></trkpt><trkpt lat="46.0346745868501" lon="11.146146357251528"><ele>364.25</ele><time>2026-05-03T13:45:23.972Z</time></trkpt><trkpt lat="46.03450621141019" lon="11.146166054025702"><ele>364.5</ele><time>2026-05-03T13:45:24.972Z</time></trkpt><trkpt lat="46.03436195547452" lon="11.146158939595626"><ele>364.75</ele><time>2026-05-03T13:45:25.972Z</time></trkpt><trkpt lat="46.03424964155295" lon="11.146176422194056"><ele>365.0</ele><time>2026-05-03T13:45:26.972Z</time></trkpt><trkpt lat="46.034167402877564" lon="11.146190626891325"><ele>363.5</ele><time>2026-05-03T13:45:27.972Z</time></trkpt><trkpt lat="46.034088878913714" lon="11.146169695839802"><ele>362.0</ele><time>2026-05-03T13:45:28.972Z</time></trkpt><trkpt lat="46.03400627655003" lon="11.146189349318723"><ele>360.5</ele><time>2026-05-03T13:45:29.972Z</time></trkpt><trkpt lat="46.0339357316675" lon="11.146198026270218"><ele>359.0</ele><time>2026-05-03T13:45:30.972Z</time></trkpt><trkpt lat="46.033865960145434" lon="11.14619697481132"><ele>357.5</ele><time>2026-05-03T13:45:31.971Z</time></trkpt><trkpt lat="46.03377763982921" lon="11.14619025202864"><ele>356.0</ele><time>2026-05-03T13:45:32.971Z</time></trkpt><trkpt lat="46.03367295816209" lon="11.146240745580037"><ele>356.0</ele><time>2026-05-03T13:45:33.971Z</time></trkpt><trkpt lat="46.03355668682303" lon="11.146309159059898"><ele>356.0</ele><time>2026-05-03T13:45:34.971Z</time></trkpt><trkpt lat="46.03342710182026" lon="11.146360869218405"><ele>356.0</ele><time>2026-05-03T13:45:35.971Z</time></trkpt><trkpt lat="46.03328667896171" lon="11.146425741187628"><ele>356.0</ele><time>2026-05-03T13:45:36.971Z</time></trkpt><trkpt lat="46.033114015416416" lon="11.146540331407289"><ele>358.33333333333337</ele><time>2026-05-03T13:45:37.971Z</time></trkpt><trkpt lat="46.03293166106555" lon="11.146643569038968"><ele>360.6666666666667</ele><time>2026-05-03T13:45:38.971Z</time></trkpt><trkpt lat="46.03275185228108" lon="11.146755813577203"><ele>363.0</ele><time>2026-05-03T13:45:39.971Z</time></trkpt><trkpt lat="46.03258492303417" lon="11.146856809260393"><ele>364.3333333333333</ele><time>2026-05-03T13:45:40.971Z</time></trkpt><trkpt lat="46.03240384303481" lon="11.146899009471149"><ele>365.66666666666663</ele><time>2026-05-03T13:45:41.971Z</time></trkpt><trkpt lat="46.03221903740712" lon="11.146875662579628"><ele>367.0</ele><time>2026-05-03T13:45:42.971Z</time></trkpt><trkpt lat="46.032022806139906" lon="11.146813029790565"><ele>367.0</ele><time>2026-05-03T13:45:43.971Z</time></trkpt><trkpt lat="46.03181575043895" lon="11.14674099114868"><ele>367.0</ele><time>2026-05-03T13:45:44.971Z</time></trkpt><trkpt lat="46.031625534735845" lon="11.146671417177876"><ele>367.0</ele><time>2026-05-03T13:45:45.971Z</time></trkpt><trkpt lat="46.031429535778365" lon="11.146619238761367"><ele>365.3333333333333</ele><time>2026-05-03T13:45:46.971Z</time></trkpt><trkpt lat="46.0312468169781" lon="11.14656424314282"><ele>363.6666666666667</ele><time>2026-05-03T13:45:47.971Z</time></trkpt><trkpt lat="46.03106948471951" lon="11.146506370632007"><ele>362.0</ele><time>2026-05-03T13:45:48.971Z</time></trkpt><trkpt lat="46.030895020166426" lon="11.146452582434982"><ele>362.6666666666667</ele><time>2026-05-03T13:45:49.971Z</time></trkpt><trkpt lat="46.030705347218465" lon="11.146384850742043"><ele>363.3333333333333</ele><time>2026-05-03T13:45:50.971Z</time></trkpt><trkpt lat="46.03051095528858" lon="11.146313450802026"><ele>364.0</ele><time>2026-05-03T13:45:51.971Z</time></trkpt><trkpt lat="46.030315324610115" lon="11.146241826108728"><ele>364.0</ele><time>2026-05-03T13:45:52.971Z</time></trkpt><trkpt lat="46.030111288816705" lon="11.146178716602638"><ele>364.0</ele><time>2026-05-03T13:45:53.971Z</time></trkpt><trkpt lat="46.02990713875917" lon="11.146096704544819"><ele>364.0</ele><time>2026-05-03T13:45:54.971Z</time></trkpt><trkpt lat="46.029710666339895" lon="11.146031793617027"><ele>368.66666666666663</ele><time>2026-05-03T13:45:55.971Z</time></trkpt><trkpt lat="46.02951615974602" lon="11.145977439297438"><ele>373.3333333333333</ele><time>2026-05-03T13:45:56.971Z</time></trkpt><trkpt lat="46.02932877602594" lon="11.145926157353403"><ele>378.0</ele><time>2026-05-03T13:45:57.971Z</time></trkpt><trkpt lat="46.02913554186175" lon="11.145889136599099"><ele>378.0</ele><time>2026-05-03T13:45:58.971Z</time></trkpt><trkpt lat="46.02894464211057" lon="11.145874451365167"><ele>378.0</ele><time>2026-05-03T13:45:59.971Z</time></trkpt><trkpt lat="46.028729023884345" lon="11.14587747970486"><ele>378.0</ele><time>2026-05-03T13:46:00.971Z</time></trkpt><trkpt lat="46.028511361166224" lon="11.145869420207976"><ele>380.5</ele><time>2026-05-03T13:46:01.971Z</time></trkpt><trkpt lat="46.02827520543945" lon="11.145863062505738"><ele>383.0</ele><time>2026-05-03T13:46:02.971Z</time></trkpt><trkpt lat="46.02802885575904" lon="11.145862331519373"><ele>383.0</ele><time>2026-05-03T13:46:03.971Z</time></trkpt><trkpt lat="46.02779709677201" lon="11.145865671981408"><ele>383.0</ele><time>2026-05-03T13:46:04.971Z</time></trkpt><trkpt lat="46.027587910727924" lon="11.145840999523616"><ele>383.0</ele><time>2026-05-03T13:46:05.971Z</time></trkpt><trkpt lat="46.02739560606035" lon="11.145836397037609"><ele>383.6666666666667</ele><time>2026-05-03T13:46:06.971Z</time></trkpt><trkpt lat="46.02720787298583" lon="11.145832374951823"><ele>384.33333333333337</ele><time>2026-05-03T13:46:07.971Z</time></trkpt><trkpt lat="46.02702138660558" lon="11.145829127009106"><ele>385.0</ele><time>2026-05-03T13:46:08.971Z</time></trkpt><trkpt lat="46.02683715414621" lon="11.145824114453706"><ele>385.0</ele><time>2026-05-03T13:46:09.971Z</time></trkpt><trkpt lat="46.02666856245361" lon="11.145831812399392"><ele>385.0</ele><time>2026-05-03T13:46:10.971Z</time></trkpt><trkpt lat="46.02649843588497" lon="11.14587137490823"><ele>385.0</ele><time>2026-05-03T13:46:11.971Z</time></trkpt><trkpt lat="46.02632149104559" lon="11.14591017690259"><ele>383.33333333333337</ele><time>2026-05-03T13:46:12.971Z</time></trkpt><trkpt lat="46.02613996531742" lon="11.145980763896983"><ele>381.6666666666667</ele><time>2026-05-03T13:46:13.971Z</time></trkpt><trkpt lat="46.02595138272119" lon="11.146081299655958"><ele>380.0</ele><time>2026-05-03T13:46:14.971Z</time></trkpt><trkpt lat="46.02575885077211" lon="11.146190480348551"><ele>416.0</ele><time>2026-05-03T13:46:15.971Z</time></trkpt><trkpt lat="46.01728616934122" lon="11.144812193152678"><ele>416.0</ele><time>2026-05-03T13:47:16.97Z</time></trkpt><trkpt lat="46.017172693293915" lon="11.144867539835829"><ele>416.0</ele><time>2026-05-03T13:47:17.97Z</time></trkpt><trkpt lat="46.01706866841039" lon="11.144979880520664"><ele>416.0</ele><time>2026-05-03T13:47:18.97Z</time></trkpt><trkpt lat="46.01697013361572" lon="11.145117715320369"><ele>416.0</ele><time>2026-05-03T13:47:19.97Z</time></trkpt><trkpt lat="46.016855513467206" lon="11.145226303709594"><ele>420.0</ele><time>2026-05-03T13:47:20.97Z</time></trkpt><trkpt lat="46.01675057536071" lon="11.145329095935372"><ele>424.0</ele><time>2026-05-03T13:47:21.97Z</time></trkpt><trkpt lat="46.0166411825009" lon="11.145424378307485"><ele>428.0</ele><time>2026-05-03T13:47:22.97Z</time></trkpt><trkpt lat="46.016528902404005" lon="11.145463253109188"><ele>432.0</ele><time>2026-05-03T13:47:23.97Z</time></trkpt><trkpt lat="46.016412267910276" lon="11.145442291521398"><ele>433.0</ele><time>2026-05-03T13:47:24.97Z</time></trkpt><trkpt lat="46.01630037502892" lon="11.145376973829203"><ele>434.0</ele><time>2026-05-03T13:47:25.97Z</time></trkpt><trkpt lat="46.01619336658091" lon="11.14529124721797"><ele>435.0</ele><time>2026-05-03T13:47:26.97Z</time></trkpt><trkpt lat="46.01609239623985" lon="11.145206374375041"><ele>436.0</ele><time>2026-05-03T13:47:27.97Z</time></trkpt><trkpt lat="46.01600733855312" lon="11.145146108409415"><ele>436.00000000000006</ele><time>2026-05-03T13:47:28.97Z</time></trkpt><trkpt lat="46.01592196256075" lon="11.145124330643403"><ele>436.0</ele><time>2026-05-03T13:47:29.97Z</time></trkpt><trkpt lat="46.015839322744974" lon="11.14511788811455"><ele>436.0</ele><time>2026-05-03T13:47:30.97Z</time></trkpt><trkpt lat="46.01575715350911" lon="11.145143030366773"><ele>436.0</ele><time>2026-05-03T13:47:31.97Z</time></trkpt><trkpt lat="46.015681584875836" lon="11.145206394509268"><ele>436.00000000000006</ele><time>2026-05-03T13:47:32.97Z</time></trkpt><trkpt lat="46.01560517195671" lon="11.145275000248233"><ele>436.0</ele><time>2026-05-03T13:47:33.97Z</time></trkpt><trkpt lat="46.015526999401935" lon="11.145348450409802"><ele>433.5</ele><time>2026-05-03T13:47:34.97Z</time></trkpt><trkpt lat="46.015439840695116" lon="11.145416886693722"><ele>431.0</ele><time>2026-05-03T13:47:35.97Z</time></trkpt><trkpt lat="46.015349389588806" lon="11.145496706211672"><ele>428.5</ele><time>2026-05-03T13:47:36.97Z</time></trkpt><trkpt lat="46.015246050523615" lon="11.145579649994023"><ele>426.0</ele><time>2026-05-03T13:47:37.97Z</time></trkpt><trkpt lat="46.01512987905496" lon="11.145661839306145"><ele>431.0</ele><time>2026-05-03T13:47:38.97Z</time></trkpt><trkpt lat="46.01500018351919" lon="11.14574015724793"><ele>436.0</ele><time>2026-05-03T13:47:39.97Z</time></trkpt><trkpt lat="46.01485944574455" lon="11.145816562897814"><ele>441.0</ele><time>2026-05-03T13:47:40.97Z</time></trkpt><trkpt lat="46.01470538452939" lon="11.145890533965563"><ele>441.0</ele><time>2026-05-03T13:47:41.97Z</time></trkpt><trkpt lat="46.01454339688503" lon="11.145969975981018"><ele>441.0</ele><time>2026-05-03T13:47:42.97Z</time></trkpt><trkpt lat="46.01437559268153" lon="11.146043383747696"><ele>441.0</ele><time>2026-05-03T13:47:43.97Z</time></trkpt><trkpt lat="46.014206854415356" lon="11.146116282193601"><ele>440.0</ele><time>2026-05-03T13:47:44.97Z</time></trkpt><trkpt lat="46.01403167254483" lon="11.146188398082225"><ele>439.0</ele><time>2026-05-03T13:47:45.97Z</time></trkpt><trkpt lat="46.013849235881445" lon="11.146260444939063"><ele>438.0</ele><time>2026-05-03T13:47:46.97Z</time></trkpt><trkpt lat="46.013669939410256" lon="11.146331784875397"><ele>438.0</ele><time>2026-05-03T13:47:47.97Z</time></trkpt><trkpt lat="46.013495730972856" lon="11.14640327190116"><ele>438.0</ele><time>2026-05-03T13:47:48.97Z</time></trkpt><trkpt lat="46.013336363191996" lon="11.146467752345488"><ele>438.0</ele><time>2026-05-03T13:47:49.97Z</time></trkpt><trkpt lat="46.01319542797946" lon="11.146535016408198"><ele>442.0</ele><time>2026-05-03T13:47:50.97Z</time></trkpt><trkpt lat="46.0130728412923" lon="11.146588998306614"><ele>445.99999999999994</ele><time>2026-05-03T13:47:51.97Z</time></trkpt><trkpt lat="46.01295722920865" lon="11.146609988485437"><ele>449.99999999999994</ele><time>2026-05-03T13:47:52.97Z</time></trkpt><trkpt lat="46.01286065260612" lon="11.146652903859726"><ele>454.0</ele><time>2026-05-03T13:47:53.97Z</time></trkpt><trkpt lat="46.01276897737945" lon="11.146686815013231"><ele>458.0</ele><time>2026-05-03T13:47:54.97Z</time></trkpt><trkpt lat="46.01267679028396" lon="11.146743068406899"><ele>458.0</ele><time>2026-05-03T13:47:55.97Z</time></trkpt><trkpt lat="46.01259106237715" lon="11.146820067134914"><ele>458.0</ele><time>2026-05-03T13:47:56.97Z</time></trkpt><trkpt lat="46.012514410153685" lon="11.146926789021439"><ele>458.0</ele><time>2026-05-03T13:47:57.97Z</time></trkpt><trkpt lat="46.01244829645234" lon="11.147078718173407"><ele>458.0</ele><time>2026-05-03T13:47:58.97Z</time></trkpt><trkpt lat="46.01238451088492" lon="11.147247327368115"><ele>458.75</ele><time>2026-05-03T13:47:59.97Z</time></trkpt><trkpt lat="46.01233335530301" lon="11.147433649847159"><ele>459.5</ele><time>2026-05-03T13:48:00.969Z</time></trkpt><trkpt lat="46.012288251127" lon="11.147627328474641"><ele>460.25</ele><time>2026-05-03T13:48:01.969Z</time></trkpt><trkpt lat="46.01222718245155" lon="11.147835480728844"><ele>461.0</ele><time>2026-05-03T13:48:02.969Z</time></trkpt><trkpt lat="46.012187370827654" lon="11.148087943515439"><ele>463.66666666666663</ele><time>2026-05-03T13:48:03.969Z</time></trkpt><trkpt lat="46.01210770785527" lon="11.148341592249697"><ele>466.33333333333337</ele><time>2026-05-03T13:48:04.969Z</time></trkpt><trkpt lat="46.011992248131705" lon="11.1485943876211"><ele>469.0</ele><time>2026-05-03T13:48:05.969Z</time></trkpt><trkpt lat="46.01184243960446" lon="11.148840949561329"><ele>471.6666666666667</ele><time>2026-05-03T13:48:06.969Z</time></trkpt><trkpt lat="46.01167489820777" lon="11.149087756278563"><ele>474.33333333333337</ele><time>2026-05-03T13:48:07.969Z</time></trkpt><trkpt lat="46.01152533417532" lon="11.149295148463148"><ele>477.0</ele><time>2026-05-03T13:48:08.969Z</time></trkpt><trkpt lat="46.011393135078265" lon="11.149488659877452"><ele>477.0</ele><time>2026-05-03T13:48:09.969Z</time></trkpt><trkpt lat="46.0112822281029" lon="11.149643145125607"><ele>477.0</ele><time>2026-05-03T13:48:10.969Z</time></trkpt><trkpt lat="46.0111584320783" lon="11.149745701981546"><ele>477.0</ele><time>2026-05-03T13:48:11.969Z</time></trkpt><trkpt lat="46.01101264521888" lon="11.149768461511712"><ele>477.0</ele><time>2026-05-03T13:48:12.969Z</time></trkpt><trkpt lat="46.01085757915291" lon="11.149746188499726"><ele>480.0</ele><time>2026-05-03T13:48:13.969Z</time></trkpt><trkpt lat="46.0106983471414" lon="11.14966241426631"><ele>483.0</ele><time>2026-05-03T13:48:14.969Z</time></trkpt><trkpt lat="46.010525033725834" lon="11.149541069745688"><ele>486.0</ele><time>2026-05-03T13:48:15.969Z</time></trkpt><trkpt lat="46.00853427444901" lon="11.155356884816607"><ele>502.25</ele><time>2026-05-03T13:49:16.968Z</time></trkpt><trkpt lat="46.00844496200703" lon="11.155321823545364"><ele>518.5</ele><time>2026-05-03T13:49:17.968Z</time></trkpt><trkpt lat="46.008331991127186" lon="11.15538148506238"><ele>534.75</ele><time>2026-05-03T13:49:19.968Z</time></trkpt><trkpt lat="46.008257500611506" lon="11.155482900596366"><ele>551.0</ele><time>2026-05-03T13:49:21.968Z</time></trkpt><trkpt lat="46.00820292039591" lon="11.15567166830395"><ele>551.4</ele><time>2026-05-03T13:49:23.968Z</time></trkpt><trkpt lat="46.008176811508946" lon="11.155794508489103"><ele>551.8</ele><time>2026-05-03T13:49:24.968Z</time></trkpt><trkpt lat="46.0081455175635" lon="11.155930112538153"><ele>552.1999999999999</ele><time>2026-05-03T13:49:25.968Z</time></trkpt><trkpt lat="46.00810832837358" lon="11.156071510377917"><ele>552.6</ele><time>2026-05-03T13:49:26.968Z</time></trkpt><trkpt lat="46.00806927682507" lon="11.156210353691478"><ele>553.0</ele><time>2026-05-03T13:49:27.968Z</time></trkpt><trkpt lat="46.008029154286874" lon="11.156356345327689"><ele>553.0</ele><time>2026-05-03T13:49:28.968Z</time></trkpt><trkpt lat="46.007985668771184" lon="11.156498427315423"><ele>553.0</ele><time>2026-05-03T13:49:29.968Z</time></trkpt><trkpt lat="46.00794423762363" lon="11.156642015802543"><ele>553.0</ele><time>2026-05-03T13:49:30.968Z</time></trkpt><trkpt lat="46.0079058789814" lon="11.156779551057912"><ele>553.0</ele><time>2026-05-03T13:49:31.968Z</time></trkpt><trkpt lat="46.00786787507709" lon="11.15692066053624"><ele>553.0</ele><time>2026-05-03T13:49:32.968Z</time></trkpt><trkpt lat="46.00780580163255" lon="11.15705436829483"><ele>554.0</ele><time>2026-05-03T13:49:33.968Z</time></trkpt><trkpt lat="46.00776362181288" lon="11.15720470390183"><ele>555.0</ele><time>2026-05-03T13:49:34.968Z</time></trkpt><trkpt lat="46.00772069137372" lon="11.15736022962079"><ele>556.0</ele><time>2026-05-03T13:49:35.968Z</time></trkpt><trkpt lat="46.007677371259014" lon="11.157520662951992"><ele>557.0</ele><time>2026-05-03T13:49:36.968Z</time></trkpt><trkpt lat="46.00762978779771" lon="11.15768202119623"><ele>558.75</ele><time>2026-05-03T13:49:37.968Z</time></trkpt><trkpt lat="46.007590144222924" lon="11.157853727934492"><ele>560.5</ele><time>2026-05-03T13:49:38.968Z</time></trkpt><trkpt lat="46.00755839240015" lon="11.158037037772122"><ele>562.25</ele><time>2026-05-03T13:49:39.968Z</time></trkpt><trkpt lat="46.00753039175916" lon="11.158242478134637"><ele>564.0</ele><time>2026-05-03T13:49:40.968Z</time></trkpt><trkpt lat="46.00752664446198" lon="11.158461521234448"><ele>567.6666666666666</ele><time>2026-05-03T13:49:41.968Z</time></trkpt><trkpt lat="46.007529053930064" lon="11.158681411018119"><ele>571.3333333333333</ele><time>2026-05-03T13:49:42.968Z</time></trkpt><trkpt lat="46.007531255481034" lon="11.158909794228698"><ele>575.0</ele><time>2026-05-03T13:49:43.968Z</time></trkpt><trkpt lat="46.00753284591942" lon="11.15914290669955"><ele>573.75</ele><time>2026-05-03T13:49:44.968Z</time></trkpt><trkpt lat="46.007533557592446" lon="11.159368707859754"><ele>572.5</ele><time>2026-05-03T13:49:45.968Z</time></trkpt><trkpt lat="46.00753237764558" lon="11.159581121270726"><ele>571.25</ele><time>2026-05-03T13:49:46.968Z</time></trkpt><trkpt lat="46.00749981590617" lon="11.15976495203174"><ele>570.0</ele><time>2026-05-03T13:49:47.968Z</time></trkpt><trkpt lat="46.00743007642303" lon="11.159928331870637"><ele>570.0</ele><time>2026-05-03T13:49:48.968Z</time></trkpt><trkpt lat="46.00734034890751" lon="11.16007587779833"><ele>570.0</ele><time>2026-05-03T13:49:49.968Z</time></trkpt><trkpt lat="46.00725515913854" lon="11.160211230384395"><ele>570.0</ele><time>2026-05-03T13:49:50.968Z</time></trkpt><trkpt lat="46.00717926144156" lon="11.160358326582164"><ele>570.0</ele><time>2026-05-03T13:49:51.968Z</time></trkpt><trkpt lat="46.00707252484678" lon="11.1604485966456"><ele>570.0</ele><time>2026-05-03T13:49:52.968Z</time></trkpt><trkpt lat="46.00696578971631" lon="11.160558635001959"><ele>570.0</ele><time>2026-05-03T13:49:53.968Z</time></trkpt><trkpt lat="46.00687504854086" lon="11.160696696257515"><ele>570.0</ele><time>2026-05-03T13:49:54.968Z</time></trkpt><trkpt lat="46.006777658927035" lon="11.160857096161793"><ele>570.0</ele><time>2026-05-03T13:49:55.968Z</time></trkpt><trkpt lat="46.00667704017893" lon="11.161005939043335"><ele>570.5</ele><time>2026-05-03T13:49:56.968Z</time></trkpt><trkpt lat="46.00659105229195" lon="11.161149820556457"><ele>571.0</ele><time>2026-05-03T13:49:57.968Z</time></trkpt><trkpt lat="46.006523306759476" lon="11.161308793622785"><ele>571.5</ele><time>2026-05-03T13:49:58.968Z</time></trkpt><trkpt lat="46.006466339964575" lon="11.161460417400503"><ele>572.0</ele><time>2026-05-03T13:49:59.968Z</time></trkpt><trkpt lat="46.00640712209935" lon="11.161595525081381"><ele>574.5</ele><time>2026-05-03T13:50:00.968Z</time></trkpt><trkpt lat="46.00637672618565" lon="11.161737708858864"><ele>577.0</ele><time>2026-05-03T13:50:01.968Z</time></trkpt><trkpt lat="46.00639129241009" lon="11.161922763872596"><ele>579.5</ele><time>2026-05-03T13:50:02.968Z</time></trkpt><trkpt lat="46.00642302866004" lon="11.16211754593604"><ele>582.0</ele><time>2026-05-03T13:50:03.968Z</time></trkpt><trkpt lat="46.006393577417725" lon="11.162358283465682"><ele>583.6666666666666</ele><time>2026-05-03T13:50:04.968Z</time></trkpt><trkpt lat="46.006382002820956" lon="11.162630048942674"><ele>585.3333333333333</ele><time>2026-05-03T13:50:05.968Z</time></trkpt><trkpt lat="46.006374713471274" lon="11.162809398361512"><ele>587.0</ele><time>2026-05-03T13:50:06.968Z</time></trkpt><trkpt lat="46.0063580069114" lon="11.163232140308942"><ele>590.3333333333333</ele><time>2026-05-03T13:50:07.968Z</time></trkpt><trkpt lat="46.00634577730263" lon="11.16348342079794"><ele>593.6666666666666</ele><time>2026-05-03T13:50:08.968Z</time></trkpt><trkpt lat="46.00633692474724" lon="11.163701193449992"><ele>597.0</ele><time>2026-05-03T13:50:09.968Z</time></trkpt><trkpt lat="46.00632798172343" lon="11.163921192002327"><ele>599.3333333333334</ele><time>2026-05-03T13:50:10.968Z</time></trkpt><trkpt lat="46.00630998223077" lon="11.16415479001888"><ele>601.6666666666667</ele><time>2026-05-03T13:50:11.968Z</time></trkpt><trkpt lat="46.006291288282924" lon="11.164377834754342"><ele>604.0</ele><time>2026-05-03T13:50:12.968Z</time></trkpt><trkpt lat="46.006271183578804" lon="11.164600870319136"><ele>604.0</ele><time>2026-05-03T13:50:13.968Z</time></trkpt><trkpt lat="46.00626724251879" lon="11.164789883267694"><ele>604.0</ele><time>2026-05-03T13:50:14.968Z</time></trkpt><trkpt lat="46.00627188957602" lon="11.164967595939563"><ele>604.0</ele><time>2026-05-03T13:50:15.968Z</time></trkpt><trkpt lat="46.005648038495046" lon="11.176795437010023"><ele>618.6666666666667</ele><time>2026-05-03T13:51:16.969Z</time></trkpt><trkpt lat="46.0055975252392" lon="11.177062509944193"><ele>633.3333333333334</ele><time>2026-05-03T13:51:17.969Z</time></trkpt><trkpt lat="46.005566911500516" lon="11.177314842010539"><ele>648.0</ele><time>2026-05-03T13:51:18.969Z</time></trkpt><trkpt lat="46.00551674529785" lon="11.177551371306912"><ele>649.6666666666666</ele><time>2026-05-03T13:51:19.969Z</time></trkpt><trkpt lat="46.00546192929385" lon="11.1777966620387"><ele>651.3333333333333</ele><time>2026-05-03T13:51:20.969Z</time></trkpt><trkpt lat="46.005380058912216" lon="11.178023381652954"><ele>653.0</ele><time>2026-05-03T13:51:21.969Z</time></trkpt><trkpt lat="46.00532358429118" lon="11.1782600825255"><ele>655.6666666666666</ele><time>2026-05-03T13:51:22.969Z</time></trkpt><trkpt lat="46.00528829511854" lon="11.17852952716407"><ele>658.3333333333334</ele><time>2026-05-03T13:51:23.969Z</time></trkpt><trkpt lat="46.005242182338236" lon="11.178800787441878"><ele>661.0</ele><time>2026-05-03T13:51:24.969Z</time></trkpt><trkpt lat="46.00520889372127" lon="11.17904308728608"><ele>662.25</ele><time>2026-05-03T13:51:25.969Z</time></trkpt><trkpt lat="46.00517461196862" lon="11.179264759874597"><ele>663.5</ele><time>2026-05-03T13:51:26.969Z</time></trkpt><trkpt lat="46.005140818247874" lon="11.179474256323855"><ele>664.75</ele><time>2026-05-03T13:51:27.969Z</time></trkpt><trkpt lat="46.00510630721048" lon="11.179670570568307"><ele>666.0</ele><time>2026-05-03T13:51:28.969Z</time></trkpt><trkpt lat="46.005074477958935" lon="11.179849956534152"><ele>667.75</ele><time>2026-05-03T13:51:29.969Z</time></trkpt><trkpt lat="46.00504769280432" lon="11.1800188226178"><ele>669.5</ele><time>2026-05-03T13:51:30.969Z</time></trkpt><trkpt lat="46.00502591351928" lon="11.180184590550494"><ele>671.25</ele><time>2026-05-03T13:51:31.969Z</time></trkpt><trkpt lat="46.00501720600607" lon="11.180358575725565"><ele>673.0</ele><time>2026-05-03T13:51:32.969Z</time></trkpt><trkpt lat="46.00501440664421" lon="11.180541142071288"><ele>674.75</ele><time>2026-05-03T13:51:33.969Z</time></trkpt><trkpt lat="46.005034838843876" lon="11.180732923970535"><ele>676.5</ele><time>2026-05-03T13:51:34.969Z</time></trkpt><trkpt lat="46.0050527975239" lon="11.180927473906488"><ele>678.25</ele><time>2026-05-03T13:51:35.969Z</time></trkpt><trkpt lat="46.00507691086863" lon="11.181125285464782"><ele>680.0</ele><time>2026-05-03T13:51:36.969Z</time></trkpt><trkpt lat="46.00508919734285" lon="11.181305768522488"><ele>680.0</ele><time>2026-05-03T13:51:37.969Z</time></trkpt><trkpt lat="46.005078702586125" lon="11.181462815051793"><ele>680.0</ele><time>2026-05-03T13:51:38.969Z</time></trkpt><trkpt lat="46.00503623064637" lon="11.181645596824573"><ele>680.0</ele><time>2026-05-03T13:51:39.969Z</time></trkpt><trkpt lat="46.00499074533403" lon="11.181864105444243"><ele>680.0</ele><time>2026-05-03T13:51:40.969Z</time></trkpt><trkpt lat="46.004956580971765" lon="11.182094583298605"><ele>678.6666666666666</ele><time>2026-05-03T13:51:41.969Z</time></trkpt><trkpt lat="46.004931237076555" lon="11.182332519789892"><ele>677.3333333333334</ele><time>2026-05-03T13:51:42.969Z</time></trkpt><trkpt lat="46.00491588415593" lon="11.182573593676498"><ele>676.0</ele><time>2026-05-03T13:51:43.969Z</time></trkpt><trkpt lat="46.00490923356598" lon="11.182811197042634"><ele>676.0</ele><time>2026-05-03T13:51:44.969Z</time></trkpt><trkpt lat="46.00491468485303" lon="11.183023513298235"><ele>676.0</ele><time>2026-05-03T13:51:45.969Z</time></trkpt><trkpt lat="46.004920750575934" lon="11.18322401286887"><ele>676.0</ele><time>2026-05-03T13:51:46.969Z</time></trkpt><trkpt lat="46.00492479213714" lon="11.183416700874464"><ele>676.0</ele><time>2026-05-03T13:51:47.969Z</time></trkpt><trkpt lat="46.00492757134619" lon="11.183591813238985"><ele>676.25</ele><time>2026-05-03T13:51:48.969Z</time></trkpt><trkpt lat="46.004934790047905" lon="11.183750905978584"><ele>676.5</ele><time>2026-05-03T13:51:49.969Z</time></trkpt><trkpt lat="46.0049486544056" lon="11.18390633710959"><ele>676.75</ele><time>2026-05-03T13:51:50.969Z</time></trkpt><trkpt lat="46.00497010231349" lon="11.18406895396799"><ele>677.0</ele><time>2026-05-03T13:51:51.969Z</time></trkpt><trkpt lat="46.005001765509405" lon="11.184232223985113"><ele>680.0</ele><time>2026-05-03T13:51:52.969Z</time></trkpt><trkpt lat="46.00504708960424" lon="11.184391977933284"><ele>683.0</ele><time>2026-05-03T13:51:53.969Z</time></trkpt><trkpt lat="46.00510420549508" lon="11.184532398373527"><ele>686.0</ele><time>2026-05-03T13:51:54.969Z</time></trkpt><trkpt lat="46.00515358632474" lon="11.184658178764556"><ele>689.0</ele><time>2026-05-03T13:51:55.969Z</time></trkpt><trkpt lat="46.00519700405514" lon="11.184771594491561"><ele>692.0</ele><time>2026-05-03T13:51:56.969Z</time></trkpt><trkpt lat="46.00523463982356" lon="11.184894021432546"><ele>692.0</ele><time>2026-05-03T13:51:57.969Z</time></trkpt><trkpt lat="46.005259359192" lon="11.185024037414896"><ele>692.0</ele><time>2026-05-03T13:51:58.969Z</time></trkpt><trkpt lat="46.00526947861924" lon="11.18517254144724"><ele>692.0</ele><time>2026-05-03T13:51:59.969Z</time></trkpt><trkpt lat="46.00526954219503" lon="11.18533466586883"><ele>692.0</ele><time>2026-05-03T13:52:00.969Z</time></trkpt><trkpt lat="46.00526554286131" lon="11.185505094746157"><ele>692.0</ele><time>2026-05-03T13:52:01.969Z</time></trkpt><trkpt lat="46.00526161782319" lon="11.185691273008366"><ele>691.75</ele><time>2026-05-03T13:52:02.969Z</time></trkpt><trkpt lat="46.00525980379834" lon="11.185889521781803"><ele>691.5</ele><time>2026-05-03T13:52:03.969Z</time></trkpt><trkpt lat="46.00526906471294" lon="11.186098512926502"><ele>691.25</ele><time>2026-05-03T13:52:04.969Z</time></trkpt><trkpt lat="46.00528266471304" lon="11.186311908345608"><ele>691.0</ele><time>2026-05-03T13:52:05.969Z</time></trkpt><trkpt lat="46.00529815542777" lon="11.186541435312824"><ele>690.6666666666667</ele><time>2026-05-03T13:52:06.969Z</time></trkpt><trkpt lat="46.005318487667104" lon="11.186781268525053"><ele>690.3333333333334</ele><time>2026-05-03T13:52:07.969Z</time></trkpt><trkpt lat="46.005342534010126" lon="11.186999225684685"><ele>690.0</ele><time>2026-05-03T13:52:08.969Z</time></trkpt><trkpt lat="46.00537536372382" lon="11.187190865215012"><ele>690.2</ele><time>2026-05-03T13:52:09.969Z</time></trkpt><trkpt lat="46.00541035455523" lon="11.187368927456122"><ele>690.4</ele><time>2026-05-03T13:52:10.969Z</time></trkpt><trkpt lat="46.00544614164413" lon="11.187516907553213"><ele>690.5999999999999</ele><time>2026-05-03T13:52:11.969Z</time></trkpt><trkpt lat="46.005487682373484" lon="11.18764464816717"><ele>690.8</ele><time>2026-05-03T13:52:12.969Z</time></trkpt><trkpt lat="46.00553392342777" lon="11.187760376802022"><ele>691.0</ele><time>2026-05-03T13:52:13.969Z</time></trkpt><trkpt lat="46.005568651891615" lon="11.187881136614932"><ele>691.0</ele><time>2026-05-03T13:52:14.969Z</time></trkpt><trkpt lat="46.00559875220532" lon="11.187996535659028"><ele>691.0</ele><time>2026-05-03T13:52:15.969Z</time></trkpt><trkpt lat="46.00361551513765" lon="11.196628558964264"><ele>694.0</ele><time>2026-05-03T13:53:16.968Z</time></trkpt><trkpt lat="46.003568550179025" lon="11.196737364413531"><ele>697.0</ele><time>2026-05-03T13:53:18.968Z</time></trkpt><trkpt lat="46.00351809395169" lon="11.196827966883736"><ele>700.0</ele><time>2026-05-03T13:53:21.968Z</time></trkpt><trkpt lat="46.003480836784576" lon="11.19690358306823"><ele>703.0</ele><time>2026-05-03T13:53:23.968Z</time></trkpt><trkpt lat="46.003417136849286" lon="11.197013338080943"><ele>706.0</ele><time>2026-05-03T13:53:25.968Z</time></trkpt><trkpt lat="46.003384138545066" lon="11.197091771512707"><ele>709.0</ele><time>2026-05-03T13:53:26.968Z</time></trkpt><trkpt lat="46.00333801224124" lon="11.197180141904179"><ele>708.2</ele><time>2026-05-03T13:53:27.968Z</time></trkpt><trkpt lat="46.00328657832192" lon="11.197282811276414"><ele>707.4000000000001</ele><time>2026-05-03T13:53:28.968Z</time></trkpt><trkpt lat="46.00323472516962" lon="11.197391377851782"><ele>706.6</ele><time>2026-05-03T13:53:29.968Z</time></trkpt><trkpt lat="46.00318266321555" lon="11.197506306363206"><ele>705.8</ele><time>2026-05-03T13:53:30.968Z</time></trkpt><trkpt lat="46.00312313202393" lon="11.197629181042291"><ele>705.0</ele><time>2026-05-03T13:53:31.968Z</time></trkpt><trkpt lat="46.00305643368279" lon="11.197759159546203"><ele>705.0</ele><time>2026-05-03T13:53:32.968Z</time></trkpt><trkpt lat="46.002994930583434" lon="11.197915896455958"><ele>705.0</ele><time>2026-05-03T13:53:33.968Z</time></trkpt><trkpt lat="46.00293912891813" lon="11.198081460554667"><ele>705.0</ele><time>2026-05-03T13:53:34.968Z</time></trkpt><trkpt lat="46.0029004026212" lon="11.198255065923755"><ele>705.0</ele><time>2026-05-03T13:53:35.968Z</time></trkpt><trkpt lat="46.00287244811945" lon="11.198430239957307"><ele>705.25</ele><time>2026-05-03T13:53:36.968Z</time></trkpt><trkpt lat="46.00284486080639" lon="11.198604244188342"><ele>705.5</ele><time>2026-05-03T13:53:37.968Z</time></trkpt><trkpt lat="46.00278805125284" lon="11.19876834254456"><ele>705.75</ele><time>2026-05-03T13:53:38.968Z</time></trkpt><trkpt lat="46.002763680821076" lon="11.198942356511875"><ele>706.0</ele><time>2026-05-03T13:53:39.968Z</time></trkpt><trkpt lat="46.00273682214413" lon="11.199091892136813"><ele>705.4</ele><time>2026-05-03T13:53:40.968Z</time></trkpt><trkpt lat="46.00270700202163" lon="11.199229129620814"><ele>704.8</ele><time>2026-05-03T13:53:41.968Z</time></trkpt><trkpt lat="46.002666837717264" lon="11.199361923757824"><ele>704.1999999999999</ele><time>2026-05-03T13:53:42.968Z</time></trkpt><trkpt lat="46.00260969648782" lon="11.199483391167528"><ele>703.5999999999999</ele><time>2026-05-03T13:53:43.968Z</time></trkpt><trkpt lat="46.002538776120964" lon="11.199603727972852"><ele>703.0</ele><time>2026-05-03T13:53:44.968Z</time></trkpt><trkpt lat="46.002456279664266" lon="11.199728460565453"><ele>701.25</ele><time>2026-05-03T13:53:45.968Z</time></trkpt><trkpt lat="46.00236787839803" lon="11.199856934133981"><ele>699.5</ele><time>2026-05-03T13:53:46.968Z</time></trkpt><trkpt lat="46.002274401512175" lon="11.199984780253436"><ele>697.75</ele><time>2026-05-03T13:53:47.968Z</time></trkpt><trkpt lat="46.0021684680299" lon="11.20010674961836"><ele>696.0</ele><time>2026-05-03T13:53:48.968Z</time></trkpt><trkpt lat="46.002037427279184" lon="11.200205913881515"><ele>696.0</ele><time>2026-05-03T13:53:49.968Z</time></trkpt><trkpt lat="46.00189546413501" lon="11.20030767397808"><ele>696.0</ele><time>2026-05-03T13:53:50.968Z</time></trkpt><trkpt lat="46.00175141561905" lon="11.200429862573376"><ele>696.0</ele><time>2026-05-03T13:53:51.968Z</time></trkpt><trkpt lat="46.00160184055387" lon="11.200572714694609"><ele>693.3333333333334</ele><time>2026-05-03T13:53:52.967Z</time></trkpt><trkpt lat="46.001453768652866" lon="11.200725794339942"><ele>690.6666666666667</ele><time>2026-05-03T13:53:53.967Z</time></trkpt><trkpt lat="46.0013071394223" lon="11.200887792105528"><ele>688.0</ele><time>2026-05-03T13:53:54.967Z</time></trkpt><trkpt lat="46.00117296913785" lon="11.201045962471582"><ele>688.0</ele><time>2026-05-03T13:53:55.967Z</time></trkpt><trkpt lat="46.001062585472575" lon="11.20124743950921"><ele>688.0</ele><time>2026-05-03T13:53:56.967Z</time></trkpt><trkpt lat="46.00095933919565" lon="11.201451997229526"><ele>688.0</ele><time>2026-05-03T13:53:57.967Z</time></trkpt><trkpt lat="46.00085545205463" lon="11.201665334251437"><ele>686.3333333333334</ele><time>2026-05-03T13:53:58.967Z</time></trkpt><trkpt lat="46.000760160172675" lon="11.201870410106432"><ele>684.6666666666666</ele><time>2026-05-03T13:53:59.967Z</time></trkpt><trkpt lat="46.00067259127802" lon="11.202059446008269"><ele>683.0</ele><time>2026-05-03T13:54:00.967Z</time></trkpt><trkpt lat="46.00058868863592" lon="11.202240836009466"><ele>682.75</ele><time>2026-05-03T13:54:01.967Z</time></trkpt><trkpt lat="46.00050603897679" lon="11.202419285162087"><ele>682.5</ele><time>2026-05-03T13:54:02.967Z</time></trkpt><trkpt lat="46.00042662111804" lon="11.202595087176094"><ele>682.25</ele><time>2026-05-03T13:54:03.967Z</time></trkpt><trkpt lat="46.00035315776474" lon="11.202772520610234"><ele>682.0</ele><time>2026-05-03T13:54:04.967Z</time></trkpt><trkpt lat="46.00028959129301" lon="11.2029311488947"><ele>682.0</ele><time>2026-05-03T13:54:05.967Z</time></trkpt><trkpt lat="46.00024066050346" lon="11.203064993681622"><ele>682.0</ele><time>2026-05-03T13:54:06.967Z</time></trkpt><trkpt lat="46.000194729012165" lon="11.20318894221847"><ele>682.0</ele><time>2026-05-03T13:54:07.967Z</time></trkpt><trkpt lat="46.00014276847907" lon="11.203305303172996"><ele>682.0</ele><time>2026-05-03T13:54:08.967Z</time></trkpt><trkpt lat="46.000071496375796" lon="11.203388652498719"><ele>682.0</ele><time>2026-05-03T13:54:09.967Z</time></trkpt><trkpt lat="45.999992872171596" lon="11.20344204076573"><ele>681.4000000000001</ele><time>2026-05-03T13:54:10.967Z</time></trkpt><trkpt lat="45.999917940976665" lon="11.20349168873888"><ele>680.8000000000001</ele><time>2026-05-03T13:54:11.967Z</time></trkpt><trkpt lat="45.999851837393614" lon="11.203580294248468"><ele>680.2</ele><time>2026-05-03T13:54:12.967Z</time></trkpt><trkpt lat="45.999800671786346" lon="11.203707901154214"><ele>679.6</ele><time>2026-05-03T13:54:13.967Z</time></trkpt><trkpt lat="45.99975190544391" lon="11.20387659632191"><ele>679.0</ele><time>2026-05-03T13:54:14.967Z</time></trkpt><trkpt lat="45.99967386387521" lon="11.204061592907061"><ele>697.0</ele><time>2026-05-03T13:54:15.967Z</time></trkpt><trkpt lat="45.99385737436346" lon="11.217502188693372"><ele>697.0</ele><time>2026-05-03T13:55:16.967Z</time></trkpt><trkpt lat="45.99373105142892" lon="11.217586477657393"><ele>697.0</ele><time>2026-05-03T13:55:17.967Z</time></trkpt><trkpt lat="45.993624053570635" lon="11.217684287138788"><ele>697.0</ele><time>2026-05-03T13:55:18.967Z</time></trkpt><trkpt lat="45.99353288228284" lon="11.217815699614171"><ele>697.0</ele><time>2026-05-03T13:55:19.967Z</time></trkpt><trkpt lat="45.99344753450884" lon="11.217959752263084"><ele>697.0</ele><time>2026-05-03T13:55:20.967Z</time></trkpt><trkpt lat="45.99335313741607" lon="11.218109070694364"><ele>697.0</ele><time>2026-05-03T13:55:21.967Z</time></trkpt><trkpt lat="45.99325346144331" lon="11.218273980524238"><ele>697.0</ele><time>2026-05-03T13:55:22.967Z</time></trkpt><trkpt lat="45.99314740563552" lon="11.218443592338945"><ele>697.3333333333334</ele><time>2026-05-03T13:55:23.967Z</time></trkpt><trkpt lat="45.99303619560016" lon="11.218617947669602"><ele>697.6666666666666</ele><time>2026-05-03T13:55:24.967Z</time></trkpt><trkpt lat="45.992922093369174" lon="11.218801701823928"><ele>698.0</ele><time>2026-05-03T13:55:25.967Z</time></trkpt><trkpt lat="45.99280346634236" lon="11.218990004110594"><ele>698.0</ele><time>2026-05-03T13:55:26.967Z</time></trkpt><trkpt lat="45.99268437135747" lon="11.219186673680113"><ele>698.0</ele><time>2026-05-03T13:55:27.967Z</time></trkpt><trkpt lat="45.992567844651234" lon="11.219366947591435"><ele>698.0</ele><time>2026-05-03T13:55:28.967Z</time></trkpt><trkpt lat="45.99246436353278" lon="11.219518258401834"><ele>697.5</ele><time>2026-05-03T13:55:29.967Z</time></trkpt><trkpt lat="45.99236874914563" lon="11.219635747371358"><ele>697.0</ele><time>2026-05-03T13:55:30.967Z</time></trkpt><trkpt lat="45.99227128455095" lon="11.219739818374832"><ele>696.5</ele><time>2026-05-03T13:55:31.967Z</time></trkpt><trkpt lat="45.99217183698749" lon="11.219814624155736"><ele>696.0</ele><time>2026-05-03T13:55:32.967Z</time></trkpt><trkpt lat="45.992060413791485" lon="11.219860230067598"><ele>696.0</ele><time>2026-05-03T13:55:33.967Z</time></trkpt><trkpt lat="45.991938406978385" lon="11.219870183060891"><ele>696.0</ele><time>2026-05-03T13:55:34.967Z</time></trkpt><trkpt lat="45.991810502200956" lon="11.219847718858112"><ele>696.0</ele><time>2026-05-03T13:55:35.967Z</time></trkpt><trkpt lat="45.991690863171804" lon="11.219801996521712"><ele>696.0</ele><time>2026-05-03T13:55:36.967Z</time></trkpt><trkpt lat="45.99158492262923" lon="11.219759850210952"><ele>699.0</ele><time>2026-05-03T13:55:37.967Z</time></trkpt><trkpt lat="45.99148264014776" lon="11.21972048763723"><ele>702.0</ele><time>2026-05-03T13:55:38.967Z</time></trkpt><trkpt lat="45.99136786703058" lon="11.219688127687746"><ele>705.0</ele><time>2026-05-03T13:55:39.967Z</time></trkpt><trkpt lat="45.991245443615284" lon="11.219653653319519"><ele>708.0</ele><time>2026-05-03T13:55:40.967Z</time></trkpt><trkpt lat="45.99111062334794" lon="11.219617414396199"><ele>708.0</ele><time>2026-05-03T13:55:41.967Z</time></trkpt><trkpt lat="45.99096958211782" lon="11.219571211474948"><ele>708.0</ele><time>2026-05-03T13:55:42.967Z</time></trkpt><trkpt lat="45.990818654071624" lon="11.219519933777693"><ele>708.0</ele><time>2026-05-03T13:55:43.967Z</time></trkpt><trkpt lat="45.99066242505469" lon="11.219464862360345"><ele>707.6666666666666</ele><time>2026-05-03T13:55:44.967Z</time></trkpt><trkpt lat="45.99050064629713" lon="11.219391055968423"><ele>707.3333333333333</ele><time>2026-05-03T13:55:45.967Z</time></trkpt><trkpt lat="45.99034198968038" lon="11.21931488298087"><ele>707.0</ele><time>2026-05-03T13:55:46.967Z</time></trkpt><trkpt lat="45.99019227005547" lon="11.219244604380329"><ele>707.0</ele><time>2026-05-03T13:55:47.967Z</time></trkpt><trkpt lat="45.990053168233096" lon="11.2191873603426"><ele>707.0</ele><time>2026-05-03T13:55:48.967Z</time></trkpt><trkpt lat="45.989930567759494" lon="11.21912774557658"><ele>707.0</ele><time>2026-05-03T13:55:49.967Z</time></trkpt><trkpt lat="45.98982053846447" lon="11.219075531502584"><ele>707.0</ele><time>2026-05-03T13:55:50.967Z</time></trkpt><trkpt lat="45.98971179243904" lon="11.219033396387927"><ele>707.5</ele><time>2026-05-03T13:55:51.967Z</time></trkpt><trkpt lat="45.98959241473441" lon="11.218984965035473"><ele>708.0</ele><time>2026-05-03T13:55:52.967Z</time></trkpt><trkpt lat="45.98946588554499" lon="11.218959660680339"><ele>708.5</ele><time>2026-05-03T13:55:53.967Z</time></trkpt><trkpt lat="45.98933493123718" lon="11.21895224676717"><ele>709.0</ele><time>2026-05-03T13:55:54.967Z</time></trkpt><trkpt lat="45.98922250526385" lon="11.218997575365046"><ele>710.75</ele><time>2026-05-03T13:55:55.967Z</time></trkpt><trkpt lat="45.98911704086254" lon="11.219098793186502"><ele>712.5</ele><time>2026-05-03T13:55:56.967Z</time></trkpt><trkpt lat="45.989030183749776" lon="11.219247254140141"><ele>714.25</ele><time>2026-05-03T13:55:57.967Z</time></trkpt><trkpt lat="45.98895383785795" lon="11.219430254482686"><ele>716.0</ele><time>2026-05-03T13:55:58.967Z</time></trkpt><trkpt lat="45.98888552967185" lon="11.219612189330242"><ele>716.0</ele><time>2026-05-03T13:55:59.967Z</time></trkpt><trkpt lat="45.98882220008616" lon="11.219794258661741"><ele>716.0</ele><time>2026-05-03T13:56:00.967Z</time></trkpt><trkpt lat="45.98875097161334" lon="11.219954944138486"><ele>716.0</ele><time>2026-05-03T13:56:01.967Z</time></trkpt><trkpt lat="45.988683659251166" lon="11.220114430216164"><ele>716.0</ele><time>2026-05-03T13:56:02.967Z</time></trkpt><trkpt lat="45.98862280604648" lon="11.220267301671154"><ele>716.0</ele><time>2026-05-03T13:56:03.967Z</time></trkpt><trkpt lat="45.98856030267811" lon="11.220425967356327"><ele>716.0</ele><time>2026-05-03T13:56:04.967Z</time></trkpt><trkpt lat="45.98850373185051" lon="11.22057591235356"><ele>716.0</ele><time>2026-05-03T13:56:05.967Z</time></trkpt><trkpt lat="45.988453356764055" lon="11.22074240660572"><ele>716.0</ele><time>2026-05-03T13:56:06.967Z</time></trkpt><trkpt lat="45.988416467603216" lon="11.220884510647398"><ele>715.25</ele><time>2026-05-03T13:56:07.967Z</time></trkpt><trkpt lat="45.9884014832423" lon="11.221026949206681"><ele>714.5</ele><time>2026-05-03T13:56:08.967Z</time></trkpt><trkpt lat="45.98839640991558" lon="11.221178148113449"><ele>713.75</ele><time>2026-05-03T13:56:09.967Z</time></trkpt><trkpt lat="45.988438933128435" lon="11.221333028455721"><ele>713.0</ele><time>2026-05-03T13:56:10.967Z</time></trkpt><trkpt lat="45.98852164726013" lon="11.221486251064428"><ele>716.6666666666666</ele><time>2026-05-03T13:56:11.967Z</time></trkpt><trkpt lat="45.98862519169179" lon="11.221646137340876"><ele>720.3333333333334</ele><time>2026-05-03T13:56:12.967Z</time></trkpt><trkpt lat="45.988749239399176" lon="11.22182812073251"><ele>724.0</ele><time>2026-05-03T13:56:13.967Z</time></trkpt><trkpt lat="45.98887796969979" lon="11.22201451418998"><ele>724.0</ele><time>2026-05-03T13:56:14.967Z</time></trkpt><trkpt lat="45.98899645302254" lon="11.222210792692643"><ele>724.0</ele><time>2026-05-03T13:56:15.967Z</time></trkpt><trkpt lat="45.985186435534054" lon="11.232104532663358"><ele>739.6</ele><time>2026-05-03T13:57:16.966Z</time></trkpt><trkpt lat="45.98515647476273" lon="11.23226430217562"><ele>755.2</ele><time>2026-05-03T13:57:17.966Z</time></trkpt><trkpt lat="45.98513342883512" lon="11.232379238098758"><ele>770.8000000000001</ele><time>2026-05-03T13:57:18.966Z</time></trkpt><trkpt lat="45.985060762946674" lon="11.232540429061954"><ele>786.4000000000001</ele><time>2026-05-03T13:57:19.966Z</time></trkpt><trkpt lat="45.98497315057945" lon="11.23249379458292"><ele>802.0</ele><time>2026-05-03T13:57:20.967Z</time></trkpt><trkpt lat="45.984849317681416" lon="11.232548964467037"><ele>808.0</ele><time>2026-05-03T13:57:21.967Z</time></trkpt><trkpt lat="45.9847012121282" lon="11.232575655798906"><ele>814.0</ele><time>2026-05-03T13:57:22.967Z</time></trkpt><trkpt lat="45.98460692702866" lon="11.232736928568558"><ele>820.0</ele><time>2026-05-03T13:57:23.966Z</time></trkpt><trkpt lat="45.98457864222398" lon="11.232952229688141"><ele>826.0</ele><time>2026-05-03T13:57:24.966Z</time></trkpt><trkpt lat="45.98456428443739" lon="11.233087406719722"><ele>823.8</ele><time>2026-05-03T13:57:25.966Z</time></trkpt><trkpt lat="45.98453950929166" lon="11.233209593298486"><ele>821.5999999999999</ele><time>2026-05-03T13:57:26.966Z</time></trkpt><trkpt lat="45.984498849652255" lon="11.23328220790164"><ele>819.4</ele><time>2026-05-03T13:57:27.966Z</time></trkpt><trkpt lat="45.98440989231244" lon="11.233331714777623"><ele>817.2</ele><time>2026-05-03T13:57:28.966Z</time></trkpt><trkpt lat="45.98428418900987" lon="11.23338167779969"><ele>815.0</ele><time>2026-05-03T13:57:29.966Z</time></trkpt><trkpt lat="45.984135127332635" lon="11.23344968926922"><ele>821.3333333333334</ele><time>2026-05-03T13:57:30.966Z</time></trkpt><trkpt lat="45.98398839964965" lon="11.233597372270703"><ele>827.6666666666667</ele><time>2026-05-03T13:57:31.966Z</time></trkpt><trkpt lat="45.983825163201615" lon="11.233785534617162"><ele>834.0</ele><time>2026-05-03T13:57:32.966Z</time></trkpt><trkpt lat="45.98365584818484" lon="11.234019696403983"><ele>834.0</ele><time>2026-05-03T13:57:33.966Z</time></trkpt><trkpt lat="45.98350737629311" lon="11.234241207133465"><ele>834.0</ele><time>2026-05-03T13:57:34.966Z</time></trkpt><trkpt lat="45.98334011828895" lon="11.234418379422484"><ele>834.0</ele><time>2026-05-03T13:57:35.966Z</time></trkpt><trkpt lat="45.98315243218682" lon="11.23457331471287"><ele>836.6666666666667</ele><time>2026-05-03T13:57:36.966Z</time></trkpt><trkpt lat="45.98300061298571" lon="11.234777420223274"><ele>839.3333333333334</ele><time>2026-05-03T13:57:37.966Z</time></trkpt><trkpt lat="45.98284603625333" lon="11.235034793969328"><ele>842.0</ele><time>2026-05-03T13:57:38.966Z</time></trkpt><trkpt lat="45.982691096442856" lon="11.23532891121919"><ele>842.0</ele><time>2026-05-03T13:57:39.966Z</time></trkpt><trkpt lat="45.98255150600002" lon="11.235606164579737"><ele>842.0</ele><time>2026-05-03T13:57:40.966Z</time></trkpt><trkpt lat="45.9824188253909" lon="11.235844600073893"><ele>846.0</ele><time>2026-05-03T13:57:41.966Z</time></trkpt><trkpt lat="45.98229689624092" lon="11.236058612074588"><ele>850.0</ele><time>2026-05-03T13:57:42.966Z</time></trkpt><trkpt lat="45.982185760891596" lon="11.236252988466651"><ele>854.0</ele><time>2026-05-03T13:57:43.966Z</time></trkpt><trkpt lat="45.982083792500035" lon="11.236431281089084"><ele>850.0</ele><time>2026-05-03T13:57:44.966Z</time></trkpt><trkpt lat="45.98198169299476" lon="11.236609215667295"><ele>846.0</ele><time>2026-05-03T13:57:45.966Z</time></trkpt><trkpt lat="45.9818756333422" lon="11.236794263974865"><ele>842.0</ele><time>2026-05-03T13:57:46.966Z</time></trkpt><trkpt lat="45.98177967777964" lon="11.236999396647466"><ele>842.0</ele><time>2026-05-03T13:57:47.966Z</time></trkpt><trkpt lat="45.981695046154464" lon="11.23722169500295"><ele>842.0</ele><time>2026-05-03T13:57:48.966Z</time></trkpt><trkpt lat="45.98161624810258" lon="11.23742664339508"><ele>842.0</ele><time>2026-05-03T13:57:49.966Z</time></trkpt><trkpt lat="45.98152502952664" lon="11.237624290193363"><ele>841.6666666666667</ele><time>2026-05-03T13:57:50.966Z</time></trkpt><trkpt lat="45.98141535456308" lon="11.237812672760723"><ele>841.3333333333333</ele><time>2026-05-03T13:57:51.966Z</time></trkpt><trkpt lat="45.98128700391716" lon="11.237986725734931"><ele>841.0</ele><time>2026-05-03T13:57:52.966Z</time></trkpt><trkpt lat="45.981136849825155" lon="11.238145869313744"><ele>841.0</ele><time>2026-05-03T13:57:53.966Z</time></trkpt><trkpt lat="45.98096817238378" lon="11.238276209994273"><ele>841.0</ele><time>2026-05-03T13:57:54.966Z</time></trkpt><trkpt lat="45.98080372405298" lon="11.238371075995843"><ele>841.0</ele><time>2026-05-03T13:57:55.966Z</time></trkpt><trkpt lat="45.98065011385399" lon="11.23843696494432"><ele>847.0</ele><time>2026-05-03T13:57:56.966Z</time></trkpt><trkpt lat="45.98050118797389" lon="11.238484910948163"><ele>853.0</ele><time>2026-05-03T13:57:57.966Z</time></trkpt><trkpt lat="45.98035269490075" lon="11.238517474384878"><ele>859.0</ele><time>2026-05-03T13:57:58.966Z</time></trkpt><trkpt lat="45.980199299108925" lon="11.238520641481266"><ele>859.0</ele><time>2026-05-03T13:57:59.966Z</time></trkpt><trkpt lat="45.980045211232245" lon="11.238508172926508"><ele>859.0</ele><time>2026-05-03T13:58:00.966Z</time></trkpt><trkpt lat="45.97990544901639" lon="11.23851865867466"><ele>859.0</ele><time>2026-05-03T13:58:01.966Z</time></trkpt><trkpt lat="45.97977070777046" lon="11.238516252553044"><ele>859.0</ele><time>2026-05-03T13:58:02.966Z</time></trkpt><trkpt lat="45.97964146374429" lon="11.238475789676361"><ele>861.0</ele><time>2026-05-03T13:58:03.966Z</time></trkpt><trkpt lat="45.97951135232638" lon="11.23837929974648"><ele>863.0</ele><time>2026-05-03T13:58:04.966Z</time></trkpt><trkpt lat="45.97938630584269" lon="11.238243471569822"><ele>865.0</ele><time>2026-05-03T13:58:05.966Z</time></trkpt><trkpt lat="45.97928378115078" lon="11.23810185928664"><ele>867.0</ele><time>2026-05-03T13:58:06.966Z</time></trkpt><trkpt lat="45.97921460019056" lon="11.237937646082557"><ele>868.75</ele><time>2026-05-03T13:58:07.966Z</time></trkpt><trkpt lat="45.979176748618215" lon="11.237736949886406"><ele>870.5</ele><time>2026-05-03T13:58:08.966Z</time></trkpt><trkpt lat="45.97915868178014" lon="11.237521684528483"><ele>872.25</ele><time>2026-05-03T13:58:09.966Z</time></trkpt><trkpt lat="45.97913798040498" lon="11.237322883517635"><ele>874.0</ele><time>2026-05-03T13:58:10.966Z</time></trkpt><trkpt lat="45.97912698408492" lon="11.237161020986802"><ele>874.4000000000001</ele><time>2026-05-03T13:58:11.966Z</time></trkpt><trkpt lat="45.979099372367784" lon="11.237018610799549"><ele>874.8000000000001</ele><time>2026-05-03T13:58:12.966Z</time></trkpt><trkpt lat="45.97905127509856" lon="11.236883473731634"><ele>875.1999999999999</ele><time>2026-05-03T13:58:13.966Z</time></trkpt><trkpt lat="45.97899336863595" lon="11.236742996900716"><ele>875.5999999999999</ele><time>2026-05-03T13:58:14.966Z</time></trkpt><trkpt lat="45.9789146367317" lon="11.23663459173777"><ele>876.0</ele><time>2026-05-03T13:58:15.966Z</time></trkpt><trkpt lat="45.9715353994682" lon="11.231005368881068"><ele>885.25</ele><time>2026-05-03T13:59:16.965Z</time></trkpt><trkpt lat="45.971395139745" lon="11.231015517751045"><ele>894.5</ele><time>2026-05-03T13:59:17.966Z</time></trkpt><trkpt lat="45.97127926655575" lon="11.231084854467182"><ele>903.75</ele><time>2026-05-03T13:59:18.966Z</time></trkpt><trkpt lat="45.97117367029" lon="11.231155727905213"><ele>913.0</ele><time>2026-05-03T13:59:19.966Z</time></trkpt><trkpt lat="45.971066963771975" lon="11.231136524852671"><ele>913.0</ele><time>2026-05-03T13:59:20.966Z</time></trkpt><trkpt lat="45.970968064925984" lon="11.231063209926436"><ele>913.0</ele><time>2026-05-03T13:59:21.966Z</time></trkpt><trkpt lat="45.970842367217834" lon="11.230969616962662"><ele>913.0</ele><time>2026-05-03T13:59:22.965Z</time></trkpt><trkpt lat="45.97070146500683" lon="11.230857811361822"><ele>913.0</ele><time>2026-05-03T13:59:23.966Z</time></trkpt><trkpt lat="45.970564339136224" lon="11.230753321717907"><ele>913.0</ele><time>2026-05-03T13:59:24.966Z</time></trkpt><trkpt lat="45.97044361639262" lon="11.230670566971812"><ele>913.0</ele><time>2026-05-03T13:59:25.966Z</time></trkpt><trkpt lat="45.9703284178001" lon="11.230622875004316"><ele>913.0</ele><time>2026-05-03T13:59:26.966Z</time></trkpt><trkpt lat="45.97019162427705" lon="11.230709944263449"><ele>913.0</ele><time>2026-05-03T13:59:27.966Z</time></trkpt><trkpt lat="45.9700601135792" lon="11.230756799169571"><ele>909.75</ele><time>2026-05-03T13:59:28.965Z</time></trkpt><trkpt lat="45.96993465872587" lon="11.230704910462265"><ele>906.5</ele><time>2026-05-03T13:59:29.966Z</time></trkpt><trkpt lat="45.96981060641254" lon="11.230631717850216"><ele>903.25</ele><time>2026-05-03T13:59:30.966Z</time></trkpt><trkpt lat="45.96966086084122" lon="11.230554610167276"><ele>900.0</ele><time>2026-05-03T13:59:31.966Z</time></trkpt><trkpt lat="45.96951322597784" lon="11.23047899613502"><ele>901.75</ele><time>2026-05-03T13:59:32.966Z</time></trkpt><trkpt lat="45.969379648698656" lon="11.230410580110307"><ele>903.5</ele><time>2026-05-03T13:59:33.966Z</time></trkpt><trkpt lat="45.96928386003532" lon="11.23034772843203"><ele>905.25</ele><time>2026-05-03T13:59:34.966Z</time></trkpt><trkpt lat="45.96920082122969" lon="11.23025238265322"><ele>907.0</ele><time>2026-05-03T13:59:35.965Z</time></trkpt><trkpt lat="45.9691274739673" lon="11.230113573694641"><ele>907.0</ele><time>2026-05-03T13:59:36.965Z</time></trkpt><trkpt lat="45.969064719628896" lon="11.22992675792806"><ele>907.0</ele><time>2026-05-03T13:59:37.965Z</time></trkpt><trkpt lat="45.96902761279825" lon="11.229759545797771"><ele>907.0</ele><time>2026-05-03T13:59:38.965Z</time></trkpt><trkpt lat="45.96902632918568" lon="11.229598955449898"><ele>907.0</ele><time>2026-05-03T13:59:39.965Z</time></trkpt><trkpt lat="45.96906095893871" lon="11.229419516511046"><ele>913.0</ele><time>2026-05-03T13:59:40.965Z</time></trkpt><trkpt lat="45.969076318448074" lon="11.229215923393351"><ele>919.0</ele><time>2026-05-03T13:59:41.965Z</time></trkpt><trkpt lat="45.96901855376883" lon="11.22899526508413"><ele>925.0</ele><time>2026-05-03T13:59:42.965Z</time></trkpt><trkpt lat="45.96894141109282" lon="11.228796193261289"><ele>930.25</ele><time>2026-05-03T13:59:43.965Z</time></trkpt><trkpt lat="45.96888147692804" lon="11.228640520105541"><ele>935.5</ele><time>2026-05-03T13:59:44.965Z</time></trkpt><trkpt lat="45.96881687462173" lon="11.22846984828907"><ele>940.75</ele><time>2026-05-03T13:59:45.965Z</time></trkpt><trkpt lat="45.96874804699319" lon="11.228289179753046"><ele>946.0</ele><time>2026-05-03T13:59:46.965Z</time></trkpt><trkpt lat="45.96867269679597" lon="11.228111319244418"><ele>941.75</ele><time>2026-05-03T13:59:47.965Z</time></trkpt><trkpt lat="45.968587690276465" lon="11.22795731158168"><ele>937.5</ele><time>2026-05-03T13:59:48.965Z</time></trkpt><trkpt lat="45.96849959608023" lon="11.227828499139035"><ele>933.25</ele><time>2026-05-03T13:59:49.965Z</time></trkpt><trkpt lat="45.96841818393816" lon="11.227714720261064"><ele>929.0</ele><time>2026-05-03T13:59:50.965Z</time></trkpt><trkpt lat="45.96833705661741" lon="11.227618927778625"><ele>929.0</ele><time>2026-05-03T13:59:51.965Z</time></trkpt><trkpt lat="45.96826048112741" lon="11.227524840782635"><ele>929.0000000000001</ele><time>2026-05-03T13:59:52.965Z</time></trkpt><trkpt lat="45.96819191434235" lon="11.227440404068155"><ele>929.0000000000001</ele><time>2026-05-03T13:59:53.965Z</time></trkpt><trkpt lat="45.96812286146359" lon="11.22737066366943"><ele>929.0</ele><time>2026-05-03T13:59:54.965Z</time></trkpt><trkpt lat="45.96804646582241" lon="11.227309925598814"><ele>929.0</ele><time>2026-05-03T13:59:55.965Z</time></trkpt><trkpt lat="45.96796250293808" lon="11.227254682847652"><ele>932.0</ele><time>2026-05-03T13:59:56.965Z</time></trkpt><trkpt lat="45.96787179049609" lon="11.22719756467181"><ele>935.0000000000001</ele><time>2026-05-03T13:59:57.965Z</time></trkpt><trkpt lat="45.96777575147968" lon="11.227139248464528"><ele>938.0000000000001</ele><time>2026-05-03T13:59:58.965Z</time></trkpt><trkpt lat="45.96767674742215" lon="11.227079087438234"><ele>941.0</ele><time>2026-05-03T13:59:59.965Z</time></trkpt><trkpt lat="45.96757458009026" lon="11.227012402335388"><ele>944.0</ele><time>2026-05-03T14:00:00.965Z</time></trkpt><trkpt lat="45.96747352336114" lon="11.226942117471305"><ele>944.0</ele><time>2026-05-03T14:00:01.965Z</time></trkpt><trkpt lat="45.96736779746107" lon="11.226869913009805"><ele>944.0000000000001</ele><time>2026-05-03T14:00:02.965Z</time></trkpt><trkpt lat="45.96726302092035" lon="11.22680879841834"><ele>944.0000000000001</ele><time>2026-05-03T14:00:03.965Z</time></trkpt><trkpt lat="45.96716166240298" lon="11.226791303761102"><ele>944.0</ele><time>2026-05-03T14:00:04.965Z</time></trkpt><trkpt lat="45.96707178023157" lon="11.226829710167795"><ele>944.0</ele><time>2026-05-03T14:00:05.965Z</time></trkpt><trkpt lat="45.966985425628586" lon="11.226883849083272"><ele>944.0</ele><time>2026-05-03T14:00:06.965Z</time></trkpt><trkpt lat="45.9668837379883" lon="11.226973263028976"><ele>944.0</ele><time>2026-05-03T14:00:07.965Z</time></trkpt><trkpt lat="45.96676856297566" lon="11.227075876296354"><ele>944.0</ele><time>2026-05-03T14:00:08.965Z</time></trkpt><trkpt lat="45.966660332086036" lon="11.227163217671121"><ele>944.0</ele><time>2026-05-03T14:00:09.965Z</time></trkpt><trkpt lat="45.96654744562841" lon="11.227217306312312"><ele>946.8000000000001</ele><time>2026-05-03T14:00:10.965Z</time></trkpt><trkpt lat="45.966442425645575" lon="11.227226176599537"><ele>949.6000000000001</ele><time>2026-05-03T14:00:11.965Z</time></trkpt><trkpt lat="45.96633788151215" lon="11.227206900667579"><ele>952.4</ele><time>2026-05-03T14:00:12.965Z</time></trkpt><trkpt lat="45.96624696558201" lon="11.22715471124335"><ele>955.2</ele><time>2026-05-03T14:00:13.965Z</time></trkpt><trkpt lat="45.96615618747791" lon="11.22706920742091"><ele>958.0</ele><time>2026-05-03T14:00:14.965Z</time></trkpt><trkpt lat="45.966065222400516" lon="11.226970255465757"><ele>996.0</ele><time>2026-05-03T14:00:15.965Z</time></trkpt><trkpt lat="45.96221611738045" lon="11.219914502791822"><ele>1000.25</ele><time>2026-05-03T14:01:16.964Z</time></trkpt><trkpt lat="45.96221687325669" lon="11.219735221310051"><ele>1004.5</ele><time>2026-05-03T14:01:17.964Z</time></trkpt><trkpt lat="45.96218358191003" lon="11.219555768859705"><ele>1008.75</ele><time>2026-05-03T14:01:18.964Z</time></trkpt><trkpt lat="45.96210361674431" lon="11.219396073479716"><ele>1013.0</ele><time>2026-05-03T14:01:19.964Z</time></trkpt><trkpt lat="45.96198498517767" lon="11.21929277595539"><ele>1013.0</ele><time>2026-05-03T14:01:20.964Z</time></trkpt><trkpt lat="45.961849566749" lon="11.219201844807671"><ele>1013.0</ele><time>2026-05-03T14:01:21.964Z</time></trkpt><trkpt lat="45.961696060054756" lon="11.219100409087696"><ele>1013.0</ele><time>2026-05-03T14:01:22.965Z</time></trkpt><trkpt lat="45.961548399402474" lon="11.21902848333284"><ele>1013.2</ele><time>2026-05-03T14:01:23.965Z</time></trkpt><trkpt lat="45.961428906301144" lon="11.218934115158389"><ele>1013.4</ele><time>2026-05-03T14:01:24.965Z</time></trkpt><trkpt lat="45.96134218750681" lon="11.218859865619203"><ele>1013.6000000000001</ele><time>2026-05-03T14:01:25.965Z</time></trkpt><trkpt lat="45.96125723170559" lon="11.21884091615979"><ele>1013.8000000000001</ele><time>2026-05-03T14:01:26.966Z</time></trkpt><trkpt lat="45.961174615278416" lon="11.21889792390892"><ele>1014.0</ele><time>2026-05-03T14:01:27.966Z</time></trkpt><trkpt lat="45.96111470362837" lon="11.219019838876303"><ele>1010.75</ele><time>2026-05-03T14:01:28.965Z</time></trkpt><trkpt lat="45.961051398593824" lon="11.219174186516472"><ele>1007.5</ele><time>2026-05-03T14:01:29.965Z</time></trkpt><trkpt lat="45.960990332594626" lon="11.219346825831256"><ele>1004.25</ele><time>2026-05-03T14:01:30.965Z</time></trkpt><trkpt lat="45.96090947428723" lon="11.219450990518183"><ele>1001.0</ele><time>2026-05-03T14:01:31.965Z</time></trkpt><trkpt lat="45.96078589167267" lon="11.21946025532076"><ele>1001.0</ele><time>2026-05-03T14:01:32.965Z</time></trkpt><trkpt lat="45.96064915871327" lon="11.219482217424705"><ele>1001.0</ele><time>2026-05-03T14:01:33.965Z</time></trkpt><trkpt lat="45.960499337523174" lon="11.219508480625771"><ele>1001.0</ele><time>2026-05-03T14:01:34.965Z</time></trkpt><trkpt lat="45.960375573997624" lon="11.219522597389817"><ele>1001.0</ele><time>2026-05-03T14:01:35.965Z</time></trkpt><trkpt lat="45.96028268717496" lon="11.219487686452329"><ele>1001.0</ele><time>2026-05-03T14:01:36.965Z</time></trkpt><trkpt lat="45.96020350398329" lon="11.219398927787262"><ele>1001.0</ele><time>2026-05-03T14:01:37.965Z</time></trkpt><trkpt lat="45.960174393907614" lon="11.21922622045727"><ele>1001.0</ele><time>2026-05-03T14:01:38.965Z</time></trkpt><trkpt lat="45.9601099563178" lon="11.219079899180876"><ele>1001.0</ele><time>2026-05-03T14:01:39.965Z</time></trkpt><trkpt lat="45.9600174610431" lon="11.21899432431901"><ele>1003.75</ele><time>2026-05-03T14:01:40.965Z</time></trkpt><trkpt lat="45.95991603168103" lon="11.218999567522966"><ele>1006.5</ele><time>2026-05-03T14:01:41.965Z</time></trkpt><trkpt lat="45.959803793626534" lon="11.219087251230032"><ele>1009.25</ele><time>2026-05-03T14:01:42.965Z</time></trkpt><trkpt lat="45.95972601060982" lon="11.2192421549292"><ele>1012.0</ele><time>2026-05-03T14:01:43.965Z</time></trkpt><trkpt lat="45.95963386739156" lon="11.219420403035826"><ele>1012.0</ele><time>2026-05-03T14:01:44.965Z</time></trkpt><trkpt lat="45.959524004784704" lon="11.219597726775033"><ele>1012.0</ele><time>2026-05-03T14:01:45.965Z</time></trkpt><trkpt lat="45.9594425900209" lon="11.219731315046342"><ele>1012.0</ele><time>2026-05-03T14:01:46.965Z</time></trkpt><trkpt lat="45.959365951457734" lon="11.219765391251547"><ele>1012.0</ele><time>2026-05-03T14:01:47.965Z</time></trkpt><trkpt lat="45.95929091775779" lon="11.219745276204096"><ele>1012.0</ele><time>2026-05-03T14:01:48.965Z</time></trkpt><trkpt lat="45.95921168502481" lon="11.21968661106534"><ele>1015.8</ele><time>2026-05-03T14:01:49.965Z</time></trkpt><trkpt lat="45.959130240105594" lon="11.21956650804263"><ele>1019.6</ele><time>2026-05-03T14:01:50.965Z</time></trkpt><trkpt lat="45.95904699666762" lon="11.21947655934723"><ele>1023.3999999999999</ele><time>2026-05-03T14:01:51.965Z</time></trkpt><trkpt lat="45.958964445821294" lon="11.219439273349087"><ele>1027.2</ele><time>2026-05-03T14:01:52.965Z</time></trkpt><trkpt lat="45.95887374669105" lon="11.219472449071493"><ele>1031.0</ele><time>2026-05-03T14:01:53.965Z</time></trkpt><trkpt lat="45.9587513872545" lon="11.219575687801406"><ele>1031.0</ele><time>2026-05-03T14:01:54.965Z</time></trkpt><trkpt lat="45.95863728209702" lon="11.21964711372244"><ele>1031.0</ele><time>2026-05-03T14:01:55.965Z</time></trkpt><trkpt lat="45.95855507998359" lon="11.219693343756417"><ele>1031.0</ele><time>2026-05-03T14:01:56.965Z</time></trkpt><trkpt lat="45.95850988637276" lon="11.21976853020641"><ele>1031.0</ele><time>2026-05-03T14:01:57.965Z</time></trkpt><trkpt lat="45.958455279719566" lon="11.219904661310379"><ele>1031.0</ele><time>2026-05-03T14:01:58.965Z</time></trkpt><trkpt lat="45.95847349564238" lon="11.22010423132053"><ele>1023.75</ele><time>2026-05-03T14:01:59.965Z</time></trkpt><trkpt lat="45.958524798433665" lon="11.2202939974348"><ele>1016.5</ele><time>2026-05-03T14:02:00.965Z</time></trkpt><trkpt lat="45.958581892534866" lon="11.220489539214512"><ele>1009.25</ele><time>2026-05-03T14:02:01.965Z</time></trkpt><trkpt lat="45.95861772404641" lon="11.220624917229859"><ele>1002.0</ele><time>2026-05-03T14:02:02.965Z</time></trkpt><trkpt lat="45.95865246121726" lon="11.220801041608784"><ele>1000.75</ele><time>2026-05-03T14:02:03.965Z</time></trkpt><trkpt lat="45.95860488525579" lon="11.220913243054014"><ele>999.5</ele><time>2026-05-03T14:02:04.965Z</time></trkpt><trkpt lat="45.95851011419706" lon="11.22096521627254"><ele>998.25</ele><time>2026-05-03T14:02:05.965Z</time></trkpt><trkpt lat="45.95839712675607" lon="11.22099429790941"><ele>997.0</ele><time>2026-05-03T14:02:06.965Z</time></trkpt><trkpt lat="45.958241378266415" lon="11.220990713730579"><ele>1005.6666666666666</ele><time>2026-05-03T14:02:07.965Z</time></trkpt><trkpt lat="45.95806525293137" lon="11.220984487303983"><ele>1014.3333333333333</ele><time>2026-05-03T14:02:08.965Z</time></trkpt><trkpt lat="45.95788525516869" lon="11.220985574014627"><ele>1023.0</ele><time>2026-05-03T14:02:09.965Z</time></trkpt><trkpt lat="45.95771742201127" lon="11.220998377321722"><ele>1023.0</ele><time>2026-05-03T14:02:10.965Z</time></trkpt><trkpt lat="45.95758606389821" lon="11.220988306167484"><ele>1023.0</ele><time>2026-05-03T14:02:11.965Z</time></trkpt><trkpt lat="45.957477631707405" lon="11.220943718142523"><ele>1023.0</ele><time>2026-05-03T14:02:12.965Z</time></trkpt><trkpt lat="45.957395316492" lon="11.22085953553181"><ele>1023.0</ele><time>2026-05-03T14:02:13.965Z</time></trkpt><trkpt lat="45.95733195538356" lon="11.22072374613803"><ele>1030.5</ele><time>2026-05-03T14:02:14.965Z</time></trkpt><trkpt lat="45.95729181827647" lon="11.220566118104339"><ele>1038.0</ele><time>2026-05-03T14:02:15.965Z</time></trkpt><trkpt lat="45.95384434359404" lon="11.21539774808982"><ele>1046.2</ele><time>2026-05-03T14:03:16.964Z</time></trkpt><trkpt lat="45.95379013400874" lon="11.215266617567845"><ele>1054.4</ele><time>2026-05-03T14:03:17.964Z</time></trkpt><trkpt lat="45.95372440464979" lon="11.215143381313979"><ele>1062.6000000000001</ele><time>2026-05-03T14:03:18.964Z</time></trkpt><trkpt lat="45.95364331393275" lon="11.215045534213163"><ele>1070.8</ele><time>2026-05-03T14:03:19.964Z</time></trkpt><trkpt lat="45.95355431408154" lon="11.214966337425691"><ele>1079.0</ele><time>2026-05-03T14:03:20.964Z</time></trkpt><trkpt lat="45.95345822145596" lon="11.214894908357678"><ele>1080.75</ele><time>2026-05-03T14:03:21.964Z</time></trkpt><trkpt lat="45.953356727420996" lon="11.214815181401095"><ele>1082.5</ele><time>2026-05-03T14:03:22.964Z</time></trkpt><trkpt lat="45.953255163764446" lon="11.214717655184135"><ele>1084.25</ele><time>2026-05-03T14:03:23.964Z</time></trkpt><trkpt lat="45.95316947612634" lon="11.214611834091839"><ele>1086.0</ele><time>2026-05-03T14:03:24.964Z</time></trkpt><trkpt lat="45.953093741359964" lon="11.214506790710972"><ele>1086.0</ele><time>2026-05-03T14:03:25.964Z</time></trkpt><trkpt lat="45.95301378732901" lon="11.214413332397857"><ele>1086.0</ele><time>2026-05-03T14:03:26.964Z</time></trkpt><trkpt lat="45.95291741111635" lon="11.214317150541756"><ele>1086.0</ele><time>2026-05-03T14:03:27.964Z</time></trkpt><trkpt lat="45.95281185283313" lon="11.214255817081238"><ele>1086.0</ele><time>2026-05-03T14:03:28.965Z</time></trkpt><trkpt lat="45.95270703408679" lon="11.214217996447658"><ele>1086.0</ele><time>2026-05-03T14:03:29.965Z</time></trkpt><trkpt lat="45.952627018830874" lon="11.214183751499215"><ele>1086.0</ele><time>2026-05-03T14:03:30.965Z</time></trkpt><trkpt lat="45.952562102174944" lon="11.214126057735442"><ele>1086.0</ele><time>2026-05-03T14:03:31.964Z</time></trkpt><trkpt lat="45.952518474918904" lon="11.214034048670534"><ele>1086.0</ele><time>2026-05-03T14:03:32.964Z</time></trkpt><trkpt lat="45.95250215470735" lon="11.213903391022237"><ele>1086.0</ele><time>2026-05-03T14:03:33.965Z</time></trkpt><trkpt lat="45.95250811262531" lon="11.213741997602066"><ele>1086.0</ele><time>2026-05-03T14:03:34.964Z</time></trkpt><trkpt lat="45.95251932026413" lon="11.213557645221067"><ele>1084.25</ele><time>2026-05-03T14:03:35.964Z</time></trkpt><trkpt lat="45.95251809402991" lon="11.213363375209466"><ele>1082.5</ele><time>2026-05-03T14:03:36.965Z</time></trkpt><trkpt lat="45.95252852063298" lon="11.213160633344021"><ele>1080.75</ele><time>2026-05-03T14:03:37.964Z</time></trkpt><trkpt lat="45.952500396391045" lon="11.212978453958197"><ele>1079.0</ele><time>2026-05-03T14:03:38.964Z</time></trkpt><trkpt lat="45.95247986788035" lon="11.212825307709867"><ele>1079.0</ele><time>2026-05-03T14:03:39.965Z</time></trkpt><trkpt lat="45.95246853380033" lon="11.212707913033618"><ele>1079.0</ele><time>2026-05-03T14:03:40.965Z</time></trkpt><trkpt lat="45.95244964881264" lon="11.212599140625708"><ele>1079.0</ele><time>2026-05-03T14:03:41.965Z</time></trkpt><trkpt lat="45.95243172919517" lon="11.212495805950272"><ele>1079.0</ele><time>2026-05-03T14:03:42.965Z</time></trkpt><trkpt lat="45.95240538062789" lon="11.212370866892744"><ele>1079.0</ele><time>2026-05-03T14:03:43.965Z</time></trkpt><trkpt lat="45.95238001200415" lon="11.21222404845736"><ele>1079.0</ele><time>2026-05-03T14:03:44.965Z</time></trkpt><trkpt lat="45.952361278088674" lon="11.212059534803608"><ele>1081.6000000000001</ele><time>2026-05-03T14:03:45.965Z</time></trkpt><trkpt lat="45.952344134813295" lon="11.211916781858493"><ele>1084.2</ele><time>2026-05-03T14:03:46.965Z</time></trkpt><trkpt lat="45.95232650031815" lon="11.211785050767935"><ele>1086.8000000000002</ele><time>2026-05-03T14:03:47.965Z</time></trkpt><trkpt lat="45.9522934146747" lon="11.21164917703307"><ele>1089.4</ele><time>2026-05-03T14:03:48.965Z</time></trkpt><trkpt lat="45.952241051351564" lon="11.211508677147258"><ele>1092.0</ele><time>2026-05-03T14:03:49.965Z</time></trkpt><trkpt lat="45.95215481939933" lon="11.211380444086045"><ele>1097.0</ele><time>2026-05-03T14:03:50.965Z</time></trkpt><trkpt lat="45.95203899620035" lon="11.211255884645913"><ele>1102.0</ele><time>2026-05-03T14:03:51.965Z</time></trkpt><trkpt lat="45.95190753481389" lon="11.21111300815541"><ele>1107.0</ele><time>2026-05-03T14:03:52.965Z</time></trkpt><trkpt lat="45.951769067455785" lon="11.210959760234282"><ele>1107.3333333333333</ele><time>2026-05-03T14:03:53.965Z</time></trkpt><trkpt lat="45.951632130581636" lon="11.210808737005758"><ele>1107.6666666666665</ele><time>2026-05-03T14:03:54.965Z</time></trkpt><trkpt lat="45.95149455473893" lon="11.210657127653343"><ele>1108.0</ele><time>2026-05-03T14:03:55.965Z</time></trkpt><trkpt lat="45.95136736610409" lon="11.21051656195814"><ele>1108.0</ele><time>2026-05-03T14:03:56.965Z</time></trkpt><trkpt lat="45.95125896489135" lon="11.21039374146573"><ele>1108.0</ele><time>2026-05-03T14:03:57.965Z</time></trkpt><trkpt lat="45.951165665514374" lon="11.210293769288388"><ele>1108.0</ele><time>2026-05-03T14:03:58.964Z</time></trkpt><trkpt lat="45.951076058552964" lon="11.210235291795968"><ele>1108.0</ele><time>2026-05-03T14:03:59.964Z</time></trkpt><trkpt lat="45.95099021168936" lon="11.21021249859498"><ele>1108.0</ele><time>2026-05-03T14:04:00.964Z</time></trkpt><trkpt lat="45.9509017687982" lon="11.21024181741621"><ele>1109.2</ele><time>2026-05-03T14:04:01.964Z</time></trkpt><trkpt lat="45.9508063752893" lon="11.210321979109521"><ele>1110.4</ele><time>2026-05-03T14:04:02.964Z</time></trkpt><trkpt lat="45.9507175979241" lon="11.210448869318132"><ele>1111.6000000000001</ele><time>2026-05-03T14:04:03.964Z</time></trkpt><trkpt lat="45.950666718773725" lon="11.210581329485553"><ele>1112.8</ele><time>2026-05-03T14:04:04.964Z</time></trkpt><trkpt lat="45.950637808499124" lon="11.21069387368802"><ele>1114.0</ele><time>2026-05-03T14:04:05.964Z</time></trkpt><trkpt lat="45.95061254375486" lon="11.21079426359192"><ele>1111.4</ele><time>2026-05-03T14:04:06.964Z</time></trkpt><trkpt lat="45.950553392740005" lon="11.210871396147894"><ele>1108.8000000000002</ele><time>2026-05-03T14:04:07.964Z</time></trkpt><trkpt lat="45.950499767721375" lon="11.210965653474886"><ele>1106.1999999999998</ele><time>2026-05-03T14:04:08.964Z</time></trkpt><trkpt lat="45.95040250238927" lon="11.211026125854719"><ele>1103.6</ele><time>2026-05-03T14:04:09.964Z</time></trkpt><trkpt lat="45.95028877308534" lon="11.211034211889901"><ele>1101.0</ele><time>2026-05-03T14:04:10.964Z</time></trkpt><trkpt lat="45.95017499805952" lon="11.211004046878397"><ele>1101.0</ele><time>2026-05-03T14:04:11.964Z</time></trkpt><trkpt lat="45.950077848609375" lon="11.210930736797676"><ele>1101.0</ele><time>2026-05-03T14:04:12.964Z</time></trkpt><trkpt lat="45.95000242076662" lon="11.210819092943211"><ele>1101.0</ele><time>2026-05-03T14:04:13.964Z</time></trkpt><trkpt lat="45.94995275182942" lon="11.210708993589618"><ele>1101.0</ele><time>2026-05-03T14:04:14.964Z</time></trkpt><trkpt lat="45.949947153852925" lon="11.210589710908872"><ele>1101.0</ele><time>2026-05-03T14:04:15.964Z</time></trkpt><trkpt lat="45.94907480067439" lon="11.20410610456726"><ele>1104.0</ele><time>2026-05-03T14:05:16.964Z</time></trkpt><trkpt lat="45.9489797919337" lon="11.204166417187823"><ele>1107.0</ele><time>2026-05-03T14:05:17.964Z</time></trkpt><trkpt lat="45.948885240286266" lon="11.204259790917241"><ele>1110.0</ele><time>2026-05-03T14:05:18.964Z</time></trkpt><trkpt lat="45.94878075203609" lon="11.204395141688277"><ele>1113.0</ele><time>2026-05-03T14:05:19.964Z</time></trkpt><trkpt lat="45.948658529232205" lon="11.20455400390395"><ele>1113.0</ele><time>2026-05-03T14:05:20.964Z</time></trkpt><trkpt lat="45.94850254153178" lon="11.204703067060494"><ele>1113.0</ele><time>2026-05-03T14:05:21.964Z</time></trkpt><trkpt lat="45.9483408627554" lon="11.2048813645135"><ele>1113.0</ele><time>2026-05-03T14:05:22.964Z</time></trkpt><trkpt lat="45.94821768220918" lon="11.205064272964849"><ele>1120.0</ele><time>2026-05-03T14:05:23.964Z</time></trkpt><trkpt lat="45.94798511171868" lon="11.205626382079629"><ele>1114.6666666666665</ele><time>2026-05-03T14:05:26.964Z</time></trkpt><trkpt lat="45.94793071200473" lon="11.20587229765411"><ele>1109.3333333333333</ele><time>2026-05-03T14:05:27.964Z</time></trkpt><trkpt lat="45.94787592024263" lon="11.206073183126993"><ele>1104.0</ele><time>2026-05-03T14:05:28.964Z</time></trkpt><trkpt lat="45.947812549553525" lon="11.206261910975565"><ele>1104.0</ele><time>2026-05-03T14:05:29.964Z</time></trkpt><trkpt lat="45.94774948922919" lon="11.206442267111383"><ele>1104.0</ele><time>2026-05-03T14:05:30.964Z</time></trkpt><trkpt lat="45.94768762440452" lon="11.206607563587815"><ele>1104.0</ele><time>2026-05-03T14:05:31.964Z</time></trkpt><trkpt lat="45.947626739033765" lon="11.206761381346944"><ele>1104.0</ele><time>2026-05-03T14:05:32.964Z</time></trkpt><trkpt lat="45.947566011180996" lon="11.206905855099684"><ele>1105.0</ele><time>2026-05-03T14:05:33.965Z</time></trkpt><trkpt lat="45.947487448206566" lon="11.207045048153711"><ele>1106.0</ele><time>2026-05-03T14:05:34.964Z</time></trkpt><trkpt lat="45.94739987113397" lon="11.20718387097081"><ele>1107.0</ele><time>2026-05-03T14:05:35.964Z</time></trkpt><trkpt lat="45.94729657347771" lon="11.207277117391483"><ele>1108.0</ele><time>2026-05-03T14:05:36.964Z</time></trkpt><trkpt lat="45.94718577254007" lon="11.207336718007419"><ele>1108.0</ele><time>2026-05-03T14:05:37.965Z</time></trkpt><trkpt lat="45.947072797140656" lon="11.207395271747474"><ele>1108.0</ele><time>2026-05-03T14:05:38.965Z</time></trkpt><trkpt lat="45.946956338210455" lon="11.20745992406828"><ele>1108.0</ele><time>2026-05-03T14:05:39.964Z</time></trkpt><trkpt lat="45.946834167983894" lon="11.207533345681455"><ele>1108.0</ele><time>2026-05-03T14:05:40.964Z</time></trkpt><trkpt lat="45.94670490885125" lon="11.207608819575123"><ele>1126.5</ele><time>2026-05-03T14:05:41.964Z</time></trkpt><trkpt lat="45.94662774689195" lon="11.207671979355837"><ele>1145.0</ele><time>2026-05-03T14:05:43.103Z</time></trkpt><trkpt lat="45.94536282739874" lon="11.208579417468837"><ele>1146.5</ele><time>2026-05-03T14:05:47.072Z</time></trkpt><trkpt lat="45.945060555170656" lon="11.20885791792718"><ele>1148.0</ele><time>2026-05-03T14:05:48.07Z</time></trkpt><trkpt lat="45.94475805709977" lon="11.209136626467243"><ele>1181.5</ele><time>2026-05-03T14:05:49.069Z</time></trkpt><trkpt lat="45.94445493458589" lon="11.209414444084924"><ele>1215.0</ele><time>2026-05-03T14:05:50.069Z</time></trkpt><trkpt lat="45.94415089503816" lon="11.209692517221313"><ele>1229.5</ele><time>2026-05-03T14:05:51.071Z</time></trkpt><trkpt lat="45.943846182692" lon="11.209968336034423"><ele>1244.0</ele><time>2026-05-03T14:05:52.073Z</time></trkpt><trkpt lat="45.943554269954" lon="11.21026917676997"><ele>1063.0</ele><time>2026-05-03T14:05:53.072Z</time></trkpt><trkpt lat="45.9418497027432" lon="11.215905635746454"><ele>1063.0</ele><time>2026-05-03T14:06:16.964Z</time></trkpt><trkpt lat="45.9418522434033" lon="11.216169040460299"><ele>1063.0</ele><time>2026-05-03T14:06:17.964Z</time></trkpt><trkpt lat="45.94174278582301" lon="11.21646466867585"><ele>1063.0</ele><time>2026-05-03T14:06:18.964Z</time></trkpt><trkpt lat="45.94159648463862" lon="11.216713382048457"><ele>1070.3333333333333</ele><time>2026-05-03T14:06:19.964Z</time></trkpt><trkpt lat="45.94151578840267" lon="11.216966015186726"><ele>1077.6666666666667</ele><time>2026-05-03T14:06:20.964Z</time></trkpt><trkpt lat="45.94144099372549" lon="11.217169082398536"><ele>1085.0</ele><time>2026-05-03T14:06:21.964Z</time></trkpt><trkpt lat="45.94133731651516" lon="11.217346398869706"><ele>1085.0</ele><time>2026-05-03T14:06:22.964Z</time></trkpt><trkpt lat="45.941202984087845" lon="11.217486530538316"><ele>1085.0</ele><time>2026-05-03T14:06:23.964Z</time></trkpt><trkpt lat="45.941041913788446" lon="11.21763602329314"><ele>1085.0</ele><time>2026-05-03T14:06:24.964Z</time></trkpt><trkpt lat="45.94086262207016" lon="11.217802203079035"><ele>1085.6666666666667</ele><time>2026-05-03T14:06:25.964Z</time></trkpt><trkpt lat="45.94069220409294" lon="11.217968228352102"><ele>1086.3333333333333</ele><time>2026-05-03T14:06:26.964Z</time></trkpt><trkpt lat="45.94053666182007" lon="11.21811048739725"><ele>1087.0</ele><time>2026-05-03T14:06:27.964Z</time></trkpt><trkpt lat="45.940391005014206" lon="11.218195357812867"><ele>1087.0</ele><time>2026-05-03T14:06:28.964Z</time></trkpt><trkpt lat="45.94023366895311" lon="11.218236075681384"><ele>1087.0</ele><time>2026-05-03T14:06:29.964Z</time></trkpt><trkpt lat="45.94003345949831" lon="11.218288076615158"><ele>1087.0</ele><time>2026-05-03T14:06:30.964Z</time></trkpt><trkpt lat="45.939819547786584" lon="11.218435989845759"><ele>1092.6666666666665</ele><time>2026-05-03T14:06:31.964Z</time></trkpt><trkpt lat="45.93961774407055" lon="11.21858413767945"><ele>1098.3333333333333</ele><time>2026-05-03T14:06:32.964Z</time></trkpt><trkpt lat="45.93945969688623" lon="11.21870311993153"><ele>1104.0</ele><time>2026-05-03T14:06:33.964Z</time></trkpt><trkpt lat="45.939322714500825" lon="11.218780977428912"><ele>1104.0</ele><time>2026-05-03T14:06:34.964Z</time></trkpt><trkpt lat="45.93922265774852" lon="11.218813275533702"><ele>1104.0</ele><time>2026-05-03T14:06:35.964Z</time></trkpt><trkpt lat="45.93911066404472" lon="11.218820923557823"><ele>1104.0</ele><time>2026-05-03T14:06:36.964Z</time></trkpt><trkpt lat="45.93893940985036" lon="11.218822239072333"><ele>1104.0</ele><time>2026-05-03T14:06:37.964Z</time></trkpt><trkpt lat="45.93875920982433" lon="11.21885071623181"><ele>1109.3333333333333</ele><time>2026-05-03T14:06:38.964Z</time></trkpt><trkpt lat="45.93858143284725" lon="11.218909149907057"><ele>1114.6666666666665</ele><time>2026-05-03T14:06:39.964Z</time></trkpt><trkpt lat="45.93843178600342" lon="11.2189326394463"><ele>1120.0</ele><time>2026-05-03T14:06:40.964Z</time></trkpt><trkpt lat="45.93828699821687" lon="11.218933102146005"><ele>1120.25</ele><time>2026-05-03T14:06:41.964Z</time></trkpt><trkpt lat="45.93815304123436" lon="11.218932876143489"><ele>1120.5</ele><time>2026-05-03T14:06:42.964Z</time></trkpt><trkpt lat="45.9380169350628" lon="11.21893502896596"><ele>1120.75</ele><time>2026-05-03T14:06:43.965Z</time></trkpt><trkpt lat="45.93787623672911" lon="11.218950854699294"><ele>1121.0</ele><time>2026-05-03T14:06:44.965Z</time></trkpt><trkpt lat="45.93775328912024" lon="11.218914485388082"><ele>1121.0</ele><time>2026-05-03T14:06:45.965Z</time></trkpt><trkpt lat="45.93763521487603" lon="11.218956369179677"><ele>1121.0</ele><time>2026-05-03T14:06:46.965Z</time></trkpt><trkpt lat="45.937538311199866" lon="11.219034851208963"><ele>1121.0</ele><time>2026-05-03T14:06:47.966Z</time></trkpt><trkpt lat="45.937465706889284" lon="11.219117453573581"><ele>1121.0</ele><time>2026-05-03T14:06:48.966Z</time></trkpt><trkpt lat="45.93740485113787" lon="11.219194600064826"><ele>1121.0</ele><time>2026-05-03T14:06:49.966Z</time></trkpt><trkpt lat="45.937325977880015" lon="11.21929987111336"><ele>1115.0</ele><time>2026-05-03T14:06:50.966Z</time></trkpt><trkpt lat="45.93722622590988" lon="11.219447603958011"><ele>1109.0</ele><time>2026-05-03T14:06:51.966Z</time></trkpt><trkpt lat="45.93711390611325" lon="11.219621420709945"><ele>1103.0</ele><time>2026-05-03T14:06:52.966Z</time></trkpt><trkpt lat="45.93700020494259" lon="11.219794162082618"><ele>1104.25</ele><time>2026-05-03T14:06:53.967Z</time></trkpt><trkpt lat="45.93690243249332" lon="11.219928334796826"><ele>1105.5</ele><time>2026-05-03T14:06:54.967Z</time></trkpt><trkpt lat="45.93680304439699" lon="11.220075106995933"><ele>1106.75</ele><time>2026-05-03T14:06:55.967Z</time></trkpt><trkpt lat="45.9366939056001" lon="11.220241486605357"><ele>1108.0</ele><time>2026-05-03T14:06:56.967Z</time></trkpt><trkpt lat="45.93658634607681" lon="11.220398927625"><ele>1108.0</ele><time>2026-05-03T14:06:57.967Z</time></trkpt><trkpt lat="45.93644568329817" lon="11.22058020953793"><ele>1108.0</ele><time>2026-05-03T14:06:58.967Z</time></trkpt><trkpt lat="45.93634295100787" lon="11.220713764327522"><ele>1108.0</ele><time>2026-05-03T14:06:59.967Z</time></trkpt><trkpt lat="45.93624190810059" lon="11.22081702316336"><ele>1108.5</ele><time>2026-05-03T14:07:00.967Z</time></trkpt><trkpt lat="45.936120428906776" lon="11.220889012406804"><ele>1109.0</ele><time>2026-05-03T14:07:01.967Z</time></trkpt><trkpt lat="45.93598605849009" lon="11.220934475487937"><ele>1109.5</ele><time>2026-05-03T14:07:02.968Z</time></trkpt><trkpt lat="45.93583719689032" lon="11.220936048538267"><ele>1110.0</ele><time>2026-05-03T14:07:03.968Z</time></trkpt><trkpt lat="45.935679441485775" lon="11.220999318094314"><ele>1110.0</ele><time>2026-05-03T14:07:04.968Z</time></trkpt><trkpt lat="45.9355416476946" lon="11.221118432146742"><ele>1110.0</ele><time>2026-05-03T14:07:05.968Z</time></trkpt><trkpt lat="45.93542262498772" lon="11.221200745359043"><ele>1110.0</ele><time>2026-05-03T14:07:06.968Z</time></trkpt><trkpt lat="45.935295750867866" lon="11.221259703029505"><ele>1110.0</ele><time>2026-05-03T14:07:07.968Z</time></trkpt><trkpt lat="45.935173173599864" lon="11.221337018711658"><ele>1110.0</ele><time>2026-05-03T14:07:08.968Z</time></trkpt><trkpt lat="45.93506155259782" lon="11.221427138406149"><ele>1110.0</ele><time>2026-05-03T14:07:09.968Z</time></trkpt><trkpt lat="45.93496726637367" lon="11.221527700360221"><ele>1110.0</ele><time>2026-05-03T14:07:10.968Z</time></trkpt><trkpt lat="45.9348693674305" lon="11.221569013964436"><ele>1110.0</ele><time>2026-05-03T14:07:11.968Z</time></trkpt><trkpt lat="45.93477039570905" lon="11.221587539896161"><ele>1110.0</ele><time>2026-05-03T14:07:12.968Z</time></trkpt><trkpt lat="45.93467427661001" lon="11.221597437828938"><ele>1104.0</ele><time>2026-05-03T14:07:13.968Z</time></trkpt><trkpt lat="45.93457885638591" lon="11.221607743098694"><ele>1098.0</ele><time>2026-05-03T14:07:14.968Z</time></trkpt><trkpt lat="45.934479393806086" lon="11.221663524182382"><ele>1092.0</ele><time>2026-05-03T14:07:15.968Z</time></trkpt><trkpt lat="45.9340526650671" lon="11.226272478457693"><ele>1089.0</ele><time>2026-05-03T14:08:16.969Z</time></trkpt><trkpt lat="45.93410523947601" lon="11.226366550161686"><ele>1086.0</ele><time>2026-05-03T14:08:18.969Z</time></trkpt><trkpt lat="45.9341367488237" lon="11.2264587808965"><ele>1083.0</ele><time>2026-05-03T14:08:19.969Z</time></trkpt><trkpt lat="45.934238267064934" lon="11.226491713348558"><ele>1080.0</ele><time>2026-05-03T14:08:20.969Z</time></trkpt><trkpt lat="45.93432879018528" lon="11.22654717219048"><ele>1077.0</ele><time>2026-05-03T14:08:21.969Z</time></trkpt><trkpt lat="45.93442564599122" lon="11.226595545000924"><ele>1076.3333333333333</ele><time>2026-05-03T14:08:22.969Z</time></trkpt><trkpt lat="45.934514858943906" lon="11.22662618952582"><ele>1075.6666666666667</ele><time>2026-05-03T14:08:23.969Z</time></trkpt><trkpt lat="45.93460822467108" lon="11.226647180211197"><ele>1075.0</ele><time>2026-05-03T14:08:24.969Z</time></trkpt><trkpt lat="45.934696866622915" lon="11.226680598631699"><ele>1074.3333333333335</ele><time>2026-05-03T14:08:25.969Z</time></trkpt><trkpt lat="45.9347690961504" lon="11.226701036559907"><ele>1073.6666666666667</ele><time>2026-05-03T14:08:26.969Z</time></trkpt><trkpt lat="45.93483579190863" lon="11.226719908676984"><ele>1073.0</ele><time>2026-05-03T14:08:27.969Z</time></trkpt><trkpt lat="45.93493294147319" lon="11.226747397945008"><ele>1073.0</ele><time>2026-05-03T14:08:29.969Z</time></trkpt><trkpt lat="45.935003412186276" lon="11.226867707251417"><ele>1073.0</ele><time>2026-05-03T14:08:31.969Z</time></trkpt><trkpt lat="45.93498659475375" lon="11.226973057182935"><ele>1073.0</ele><time>2026-05-03T14:08:32.969Z</time></trkpt><trkpt lat="45.93496474896995" lon="11.227091678169959"><ele>1073.0</ele><time>2026-05-03T14:08:33.969Z</time></trkpt><trkpt lat="45.93494525436143" lon="11.227198704875292"><ele>1073.0</ele><time>2026-05-03T14:08:34.969Z</time></trkpt><trkpt lat="45.93493829813322" lon="11.227304559248735"><ele>1073.0</ele><time>2026-05-03T14:08:35.969Z</time></trkpt><trkpt lat="45.93491388958209" lon="11.227410432226531"><ele>1072.8333333333335</ele><time>2026-05-03T14:08:36.969Z</time></trkpt><trkpt lat="45.934881975189285" lon="11.227519871218755"><ele>1072.6666666666667</ele><time>2026-05-03T14:08:37.969Z</time></trkpt><trkpt lat="45.93484063730778" lon="11.227615297713898"><ele>1072.5</ele><time>2026-05-03T14:08:38.969Z</time></trkpt><trkpt lat="45.93479367183177" lon="11.227700534193863"><ele>1072.3333333333333</ele><time>2026-05-03T14:08:39.969Z</time></trkpt><trkpt lat="45.934724773267504" lon="11.227755181160479"><ele>1072.1666666666665</ele><time>2026-05-03T14:08:40.969Z</time></trkpt><trkpt lat="45.934669899723126" lon="11.227834700585174"><ele>1072.0</ele><time>2026-05-03T14:08:41.969Z</time></trkpt><trkpt lat="45.934591573683626" lon="11.227880752184609"><ele>1072.0</ele><time>2026-05-03T14:08:42.969Z</time></trkpt><trkpt lat="45.934528783696464" lon="11.227958131117994"><ele>1072.0</ele><time>2026-05-03T14:08:43.969Z</time></trkpt><trkpt lat="45.934442346611675" lon="11.228013458803446"><ele>1072.0</ele><time>2026-05-03T14:08:44.969Z</time></trkpt><trkpt lat="45.93436246768059" lon="11.228069495054498"><ele>1072.0</ele><time>2026-05-03T14:08:45.969Z</time></trkpt><trkpt lat="45.93429829356869" lon="11.228152431523556"><ele>1072.0</ele><time>2026-05-03T14:08:46.969Z</time></trkpt><trkpt lat="45.93424150035321" lon="11.228281374444553"><ele>1071.0</ele><time>2026-05-03T14:08:47.969Z</time></trkpt><trkpt lat="45.9342059356142" lon="11.228436151252282"><ele>1070.0</ele><time>2026-05-03T14:08:48.969Z</time></trkpt><trkpt lat="45.93417950799436" lon="11.228614988729614"><ele>1069.0</ele><time>2026-05-03T14:08:49.969Z</time></trkpt><trkpt lat="45.934124599802864" lon="11.228801677410475"><ele>1068.0</ele><time>2026-05-03T14:08:50.969Z</time></trkpt><trkpt lat="45.9340794733864" lon="11.229020378404911"><ele>1067.6666666666667</ele><time>2026-05-03T14:08:51.969Z</time></trkpt><trkpt lat="45.93402625589087" lon="11.229270766682971"><ele>1067.3333333333335</ele><time>2026-05-03T14:08:52.969Z</time></trkpt><trkpt lat="45.933973690375474" lon="11.229511235901452"><ele>1067.0</ele><time>2026-05-03T14:08:53.969Z</time></trkpt><trkpt lat="45.93392650205829" lon="11.229725426000778"><ele>1067.0</ele><time>2026-05-03T14:08:54.969Z</time></trkpt><trkpt lat="45.93388708365094" lon="11.229904348060446"><ele>1067.0</ele><time>2026-05-03T14:08:55.969Z</time></trkpt><trkpt lat="45.93385652237953" lon="11.230066560172244"><ele>1067.0</ele><time>2026-05-03T14:08:56.969Z</time></trkpt><trkpt lat="45.933860762125704" lon="11.230224068046121"><ele>1067.0</ele><time>2026-05-03T14:08:57.969Z</time></trkpt><trkpt lat="45.933879311188775" lon="11.230374298074738"><ele>1067.0</ele><time>2026-05-03T14:08:58.969Z</time></trkpt><trkpt lat="45.93391950561722" lon="11.23051055084768"><ele>1067.0</ele><time>2026-05-03T14:08:59.968Z</time></trkpt><trkpt lat="45.93397619577443" lon="11.230630103507048"><ele>1067.0</ele><time>2026-05-03T14:09:00.968Z</time></trkpt><trkpt lat="45.93404875420367" lon="11.230725041937495"><ele>1067.0</ele><time>2026-05-03T14:09:01.968Z</time></trkpt><trkpt lat="45.93413915120098" lon="11.23081036157294"><ele>1067.0</ele><time>2026-05-03T14:09:02.968Z</time></trkpt><trkpt lat="45.93424900975148" lon="11.230852956028846"><ele>1069.6</ele><time>2026-05-03T14:09:03.968Z</time></trkpt><trkpt lat="45.93436299921576" lon="11.23088050213416"><ele>1072.2</ele><time>2026-05-03T14:09:04.968Z</time></trkpt><trkpt lat="45.93447291745664" lon="11.230918861508009"><ele>1074.8</ele><time>2026-05-03T14:09:05.968Z</time></trkpt><trkpt lat="45.93458249099221" lon="11.23095594384789"><ele>1077.4</ele><time>2026-05-03T14:09:06.968Z</time></trkpt><trkpt lat="45.934683125343305" lon="11.2310050525342"><ele>1080.0</ele><time>2026-05-03T14:09:07.968Z</time></trkpt><trkpt lat="45.93479233330076" lon="11.231089379616021"><ele>1080.0</ele><time>2026-05-03T14:09:08.968Z</time></trkpt><trkpt lat="45.93491728311629" lon="11.231245230504108"><ele>1080.0</ele><time>2026-05-03T14:09:09.968Z</time></trkpt><trkpt lat="45.935075072233985" lon="11.231449603761357"><ele>1080.0</ele><time>2026-05-03T14:09:10.968Z</time></trkpt><trkpt lat="45.93526620729809" lon="11.23169451992995"><ele>1085.6666666666667</ele><time>2026-05-03T14:09:11.968Z</time></trkpt><trkpt lat="45.93544833357358" lon="11.231926773712374"><ele>1091.3333333333335</ele><time>2026-05-03T14:09:12.968Z</time></trkpt><trkpt lat="45.93559207720876" lon="11.232110080581345"><ele>1097.0</ele><time>2026-05-03T14:09:13.968Z</time></trkpt><trkpt lat="45.93573031819647" lon="11.232314201606533"><ele>1073.5</ele><time>2026-05-03T14:09:14.968Z</time></trkpt><trkpt lat="45.935879201820946" lon="11.232481741666518"><ele>1050.0</ele><time>2026-05-03T14:09:15.968Z</time></trkpt><trkpt lat="45.93133515192721" lon="11.244986882533851"><ele>1043.6</ele><time>2026-05-03T14:10:16.968Z</time></trkpt><trkpt lat="45.93124548693252" lon="11.244911848801179"><ele>1037.2</ele><time>2026-05-03T14:10:18.968Z</time></trkpt><trkpt lat="45.931246145793544" lon="11.244807881980218"><ele>1030.8</ele><time>2026-05-03T14:10:19.968Z</time></trkpt><trkpt lat="45.93129490065812" lon="11.24470192214203"><ele>1024.4</ele><time>2026-05-03T14:10:20.968Z</time></trkpt><trkpt lat="45.93136431966544" lon="11.24459838250727"><ele>1018.0</ele><time>2026-05-03T14:10:21.968Z</time></trkpt><trkpt lat="45.931453397952" lon="11.244481066195112"><ele>1017.25</ele><time>2026-05-03T14:10:22.968Z</time></trkpt><trkpt lat="45.93155430036602" lon="11.244346717303888"><ele>1016.5</ele><time>2026-05-03T14:10:23.968Z</time></trkpt><trkpt lat="45.93165061832535" lon="11.244207485516668"><ele>1015.75</ele><time>2026-05-03T14:10:24.968Z</time></trkpt><trkpt lat="45.93173046767176" lon="11.244074312814119"><ele>1015.0</ele><time>2026-05-03T14:10:25.968Z</time></trkpt><trkpt lat="45.931784911794104" lon="11.243925656422796"><ele>1015.0</ele><time>2026-05-03T14:10:26.968Z</time></trkpt><trkpt lat="45.93180950606517" lon="11.243747590133726"><ele>1015.0</ele><time>2026-05-03T14:10:27.968Z</time></trkpt><trkpt lat="45.93180294380496" lon="11.243553543293345"><ele>1015.0</ele><time>2026-05-03T14:10:28.968Z</time></trkpt><trkpt lat="45.931764479444986" lon="11.243338649577273"><ele>1015.0</ele><time>2026-05-03T14:10:29.968Z</time></trkpt><trkpt lat="45.93175744082035" lon="11.243098239708878"><ele>1011.6666666666666</ele><time>2026-05-03T14:10:30.968Z</time></trkpt><trkpt lat="45.93177292376275" lon="11.24285417797446"><ele>1008.3333333333333</ele><time>2026-05-03T14:10:31.968Z</time></trkpt><trkpt lat="45.93181999910851" lon="11.242631473677198"><ele>1005.0</ele><time>2026-05-03T14:10:32.968Z</time></trkpt><trkpt lat="45.931893638140906" lon="11.242424621841954"><ele>998.0</ele><time>2026-05-03T14:10:33.968Z</time></trkpt><trkpt lat="45.93199933206129" lon="11.242235884457267"><ele>991.0</ele><time>2026-05-03T14:10:34.968Z</time></trkpt><trkpt lat="45.932126651215384" lon="11.24207626028658"><ele>984.0</ele><time>2026-05-03T14:10:35.968Z</time></trkpt><trkpt lat="45.93226137242039" lon="11.241939056227363"><ele>984.0</ele><time>2026-05-03T14:10:36.968Z</time></trkpt><trkpt lat="45.93242055569996" lon="11.241879963703147"><ele>984.0</ele><time>2026-05-03T14:10:37.968Z</time></trkpt><trkpt lat="45.932578614697434" lon="11.241819795718241"><ele>984.0</ele><time>2026-05-03T14:10:38.968Z</time></trkpt><trkpt lat="45.932713461392886" lon="11.241749119218538"><ele>983.25</ele><time>2026-05-03T14:10:39.968Z</time></trkpt><trkpt lat="45.932830305702964" lon="11.241633728818018"><ele>982.5</ele><time>2026-05-03T14:10:40.968Z</time></trkpt><trkpt lat="45.93295201688063" lon="11.241537497430585"><ele>981.75</ele><time>2026-05-03T14:10:41.968Z</time></trkpt><trkpt lat="45.933062853757896" lon="11.241384134395593"><ele>981.0</ele><time>2026-05-03T14:10:42.968Z</time></trkpt><trkpt lat="45.93315387949056" lon="11.241197791668954"><ele>981.0</ele><time>2026-05-03T14:10:43.968Z</time></trkpt><trkpt lat="45.933229300231396" lon="11.241005273029437"><ele>981.0</ele><time>2026-05-03T14:10:44.968Z</time></trkpt><trkpt lat="45.93329578774147" lon="11.240829231162117"><ele>981.0</ele><time>2026-05-03T14:10:45.968Z</time></trkpt><trkpt lat="45.933360321541926" lon="11.240658946944649"><ele>981.0</ele><time>2026-05-03T14:10:46.968Z</time></trkpt><trkpt lat="45.933426327150336" lon="11.240484770369948"><ele>984.3333333333333</ele><time>2026-05-03T14:10:47.968Z</time></trkpt><trkpt lat="45.933497954338904" lon="11.240285471102814"><ele>987.6666666666666</ele><time>2026-05-03T14:10:48.968Z</time></trkpt><trkpt lat="45.93356889051246" lon="11.240068876258187"><ele>991.0</ele><time>2026-05-03T14:10:49.968Z</time></trkpt><trkpt lat="45.933649187687834" lon="11.239872588952208"><ele>985.75</ele><time>2026-05-03T14:10:50.968Z</time></trkpt><trkpt lat="45.93372245222527" lon="11.23968753844411"><ele>980.5</ele><time>2026-05-03T14:10:51.968Z</time></trkpt><trkpt lat="45.93379624579606" lon="11.239496720710143"><ele>975.25</ele><time>2026-05-03T14:10:52.968Z</time></trkpt><trkpt lat="45.93386989403111" lon="11.239316080765244"><ele>970.0</ele><time>2026-05-03T14:10:53.968Z</time></trkpt><trkpt lat="45.933944520499075" lon="11.239143550697348"><ele>970.0</ele><time>2026-05-03T14:10:54.968Z</time></trkpt><trkpt lat="45.934000476055914" lon="11.238968170434106"><ele>970.0</ele><time>2026-05-03T14:10:55.968Z</time></trkpt><trkpt lat="45.934056942677934" lon="11.238790148287606"><ele>970.0</ele><time>2026-05-03T14:10:56.968Z</time></trkpt><trkpt lat="45.9341291270714" lon="11.238639901660706"><ele>970.0</ele><time>2026-05-03T14:10:57.968Z</time></trkpt><trkpt lat="45.93421742730964" lon="11.238512747779533"><ele>969.5</ele><time>2026-05-03T14:10:58.968Z</time></trkpt><trkpt lat="45.934322500853646" lon="11.238404613256778"><ele>969.0</ele><time>2026-05-03T14:10:59.968Z</time></trkpt><trkpt lat="45.934437627495136" lon="11.2382743671323"><ele>968.5</ele><time>2026-05-03T14:11:00.968Z</time></trkpt><trkpt lat="45.93455396481474" lon="11.238112900581458"><ele>968.0</ele><time>2026-05-03T14:11:01.968Z</time></trkpt><trkpt lat="45.93464128009987" lon="11.237933583774016"><ele>968.0</ele><time>2026-05-03T14:11:02.968Z</time></trkpt><trkpt lat="45.93471680661238" lon="11.237728709893661"><ele>968.0</ele><time>2026-05-03T14:11:03.968Z</time></trkpt><trkpt lat="45.934786989228364" lon="11.237529803106346"><ele>968.0</ele><time>2026-05-03T14:11:04.968Z</time></trkpt><trkpt lat="45.934855473312275" lon="11.237339781437234"><ele>964.75</ele><time>2026-05-03T14:11:05.968Z</time></trkpt><trkpt lat="45.9349121604174" lon="11.237149354367133"><ele>961.5</ele><time>2026-05-03T14:11:06.968Z</time></trkpt><trkpt lat="45.93495671290241" lon="11.236952778223893"><ele>958.25</ele><time>2026-05-03T14:11:07.968Z</time></trkpt><trkpt lat="45.93498350248766" lon="11.236738514526774"><ele>955.0</ele><time>2026-05-03T14:11:08.968Z</time></trkpt><trkpt lat="45.93499579236391" lon="11.236509757219139"><ele>954.0</ele><time>2026-05-03T14:11:09.968Z</time></trkpt><trkpt lat="45.93498884404284" lon="11.236282294829826"><ele>953.0</ele><time>2026-05-03T14:11:10.968Z</time></trkpt><trkpt lat="45.934972317491166" lon="11.236076930606286"><ele>952.0</ele><time>2026-05-03T14:11:11.968Z</time></trkpt><trkpt lat="45.934954901034295" lon="11.235864012758697"><ele>952.0</ele><time>2026-05-03T14:11:12.968Z</time></trkpt><trkpt lat="45.934937347967455" lon="11.23565721422252"><ele>952.0</ele><time>2026-05-03T14:11:13.968Z</time></trkpt><trkpt lat="45.93490438178183" lon="11.235469337109937"><ele>952.0</ele><time>2026-05-03T14:11:14.968Z</time></trkpt><trkpt lat="45.93490420543481" lon="11.235282161176587"><ele>952.0</ele><time>2026-05-03T14:11:15.968Z</time></trkpt><trkpt lat="45.9333096310896" lon="11.237624143813933"><ele>944.4000000000001</ele><time>2026-05-03T14:12:16.969Z</time></trkpt><trkpt lat="45.93330145352558" lon="11.237521098664388"><ele>936.8000000000001</ele><time>2026-05-03T14:12:17.969Z</time></trkpt><trkpt lat="45.93332844233483" lon="11.23741064600243"><ele>929.2</ele><time>2026-05-03T14:12:18.969Z</time></trkpt><trkpt lat="45.93340167104899" lon="11.237291166507136"><ele>921.6</ele><time>2026-05-03T14:12:19.969Z</time></trkpt><trkpt lat="45.93346178434174" lon="11.23712845531426"><ele>914.0</ele><time>2026-05-03T14:12:20.969Z</time></trkpt><trkpt lat="45.93349920423817" lon="11.236960637429974"><ele>914.0</ele><time>2026-05-03T14:12:21.969Z</time></trkpt><trkpt lat="45.93356076139936" lon="11.236770939266876"><ele>914.0</ele><time>2026-05-03T14:12:22.969Z</time></trkpt><trkpt lat="45.93359549364027" lon="11.236552996687747"><ele>914.0</ele><time>2026-05-03T14:12:23.969Z</time></trkpt><trkpt lat="45.9336294250867" lon="11.2363232534748"><ele>910.3333333333334</ele><time>2026-05-03T14:12:24.969Z</time></trkpt><trkpt lat="45.933669359473384" lon="11.236083568281277"><ele>906.6666666666667</ele><time>2026-05-03T14:12:25.969Z</time></trkpt><trkpt lat="45.93370914328732" lon="11.23585617625885"><ele>903.0</ele><time>2026-05-03T14:12:26.969Z</time></trkpt><trkpt lat="45.93374617957907" lon="11.2356524162908"><ele>903.25</ele><time>2026-05-03T14:12:27.969Z</time></trkpt><trkpt lat="45.9337657307496" lon="11.235468232076736"><ele>903.5</ele><time>2026-05-03T14:12:28.969Z</time></trkpt><trkpt lat="45.933755071876945" lon="11.235290469366545"><ele>903.75</ele><time>2026-05-03T14:12:29.969Z</time></trkpt><trkpt lat="45.933713268971935" lon="11.235120687374435"><ele>904.0</ele><time>2026-05-03T14:12:30.969Z</time></trkpt><trkpt lat="45.93366001754009" lon="11.234954760397116"><ele>903.9999999999999</ele><time>2026-05-03T14:12:31.969Z</time></trkpt><trkpt lat="45.933614190962004" lon="11.234815500763721"><ele>904.0</ele><time>2026-05-03T14:12:32.969Z</time></trkpt><trkpt lat="45.933589096833515" lon="11.234690015414529"><ele>904.0</ele><time>2026-05-03T14:12:33.969Z</time></trkpt><trkpt lat="45.93355241574953" lon="11.23458861175563"><ele>904.0</ele><time>2026-05-03T14:12:34.969Z</time></trkpt><trkpt lat="45.933499640470316" lon="11.234511397656176"><ele>903.9999999999999</ele><time>2026-05-03T14:12:35.969Z</time></trkpt><trkpt lat="45.93342959641635" lon="11.234475911919018"><ele>904.0</ele><time>2026-05-03T14:12:36.969Z</time></trkpt><trkpt lat="45.93336711329369" lon="11.23449131609287"><ele>902.9999999999999</ele><time>2026-05-03T14:12:37.969Z</time></trkpt><trkpt lat="45.93330607244478" lon="11.234563740949719"><ele>902.0</ele><time>2026-05-03T14:12:38.969Z</time></trkpt><trkpt lat="45.93326954095768" lon="11.234697123123699"><ele>901.0</ele><time>2026-05-03T14:12:39.969Z</time></trkpt><trkpt lat="45.93327389049805" lon="11.234834305538858"><ele>900.0</ele><time>2026-05-03T14:12:40.969Z</time></trkpt><trkpt lat="45.93328768270552" lon="11.234947081686775"><ele>898.9999999999999</ele><time>2026-05-03T14:12:41.969Z</time></trkpt><trkpt lat="45.93330205258273" lon="11.235082247056404"><ele>898.0</ele><time>2026-05-03T14:12:42.969Z</time></trkpt><trkpt lat="45.93331664054015" lon="11.23523233494754"><ele>892.4</ele><time>2026-05-03T14:12:43.969Z</time></trkpt><trkpt lat="45.933297399737896" lon="11.235371148990415"><ele>886.8</ele><time>2026-05-03T14:12:44.969Z</time></trkpt><trkpt lat="45.9332442022802" lon="11.23551671154313"><ele>881.2</ele><time>2026-05-03T14:12:45.969Z</time></trkpt><trkpt lat="45.93315471026809" lon="11.235633112581413"><ele>875.6</ele><time>2026-05-03T14:12:46.969Z</time></trkpt><trkpt lat="45.93308487442258" lon="11.235748855579512"><ele>870.0</ele><time>2026-05-03T14:12:47.969Z</time></trkpt><trkpt lat="45.93303471736925" lon="11.235889426511898"><ele>870.0</ele><time>2026-05-03T14:12:48.969Z</time></trkpt><trkpt lat="45.93299135598407" lon="11.236040973230203"><ele>870.0</ele><time>2026-05-03T14:12:49.969Z</time></trkpt><trkpt lat="45.93297351017226" lon="11.236233980684757"><ele>870.0</ele><time>2026-05-03T14:12:50.969Z</time></trkpt><trkpt lat="45.9329418645193" lon="11.236491523860602"><ele>870.0</ele><time>2026-05-03T14:12:51.969Z</time></trkpt><trkpt lat="45.93291018732872" lon="11.236744922819858"><ele>873.6666666666667</ele><time>2026-05-03T14:12:52.969Z</time></trkpt><trkpt lat="45.93287081360942" lon="11.236952194082681"><ele>877.3333333333334</ele><time>2026-05-03T14:12:53.969Z</time></trkpt><trkpt lat="45.9328091677785" lon="11.237150581675431"><ele>881.0</ele><time>2026-05-03T14:12:54.969Z</time></trkpt><trkpt lat="45.932719155643426" lon="11.237337242792831"><ele>884.5999999999999</ele><time>2026-05-03T14:12:55.969Z</time></trkpt><trkpt lat="45.93262586194558" lon="11.237496789600016"><ele>888.1999999999999</ele><time>2026-05-03T14:12:56.968Z</time></trkpt><trkpt lat="45.93255916339564" lon="11.237643675001157"><ele>891.8000000000001</ele><time>2026-05-03T14:12:57.968Z</time></trkpt><trkpt lat="45.93249430858075" lon="11.23774066487501"><ele>895.4000000000001</ele><time>2026-05-03T14:12:58.968Z</time></trkpt><trkpt lat="45.932442879434355" lon="11.237832263849146"><ele>899.0</ele><time>2026-05-03T14:12:59.968Z</time></trkpt><trkpt lat="45.93232309252173" lon="11.237854916687644"><ele>888.5</ele><time>2026-05-03T14:13:01.968Z</time></trkpt><trkpt lat="45.93228455201543" lon="11.237657162150832"><ele>878.0</ele><time>2026-05-03T14:13:03.968Z</time></trkpt><trkpt lat="45.93233862841361" lon="11.237529862819066"><ele>867.5</ele><time>2026-05-03T14:13:04.968Z</time></trkpt><trkpt lat="45.93239946099966" lon="11.237378841539206"><ele>857.0</ele><time>2026-05-03T14:13:05.968Z</time></trkpt><trkpt lat="45.93245067859427" lon="11.237164536862158"><ele>855.5</ele><time>2026-05-03T14:13:06.968Z</time></trkpt><trkpt lat="45.93250298038616" lon="11.236978869660597"><ele>854.0</ele><time>2026-05-03T14:13:07.968Z</time></trkpt><trkpt lat="45.93253226917403" lon="11.236805175925756"><ele>852.5</ele><time>2026-05-03T14:13:08.968Z</time></trkpt><trkpt lat="45.93255130615605" lon="11.236647127295486"><ele>851.0</ele><time>2026-05-03T14:13:09.968Z</time></trkpt><trkpt lat="45.93258898111035" lon="11.236517792469852"><ele>851.5000000000001</ele><time>2026-05-03T14:13:10.968Z</time></trkpt><trkpt lat="45.93260674160513" lon="11.23640170279044"><ele>852.0</ele><time>2026-05-03T14:13:11.968Z</time></trkpt><trkpt lat="45.93262134819113" lon="11.236286781980988"><ele>852.5</ele><time>2026-05-03T14:13:12.968Z</time></trkpt><trkpt lat="45.93260390540647" lon="11.23619225080034"><ele>853.0</ele><time>2026-05-03T14:13:13.968Z</time></trkpt><trkpt lat="45.93254866546395" lon="11.236122218223466"><ele>853.5000000000001</ele><time>2026-05-03T14:13:14.968Z</time></trkpt><trkpt lat="45.93246541378682" lon="11.236067882917807"><ele>854.0</ele><time>2026-05-03T14:13:15.968Z</time></trkpt><trkpt lat="45.92781272355265" lon="11.240789359594512"><ele>846.6</ele><time>2026-05-03T14:14:16.97Z</time></trkpt><trkpt lat="45.92784953152418" lon="11.240645955242783"><ele>839.2</ele><time>2026-05-03T14:14:17.97Z</time></trkpt><trkpt lat="45.92788185493592" lon="11.240514128872759"><ele>831.8000000000001</ele><time>2026-05-03T14:14:18.97Z</time></trkpt><trkpt lat="45.92790211242244" lon="11.240380481368659"><ele>824.4000000000001</ele><time>2026-05-03T14:14:19.97Z</time></trkpt><trkpt lat="45.92790569814245" lon="11.240260960089843"><ele>817.0</ele><time>2026-05-03T14:14:20.97Z</time></trkpt><trkpt lat="45.92789936717309" lon="11.240144665627053"><ele>813.2</ele><time>2026-05-03T14:14:21.97Z</time></trkpt><trkpt lat="45.92786732243072" lon="11.240036233746103"><ele>809.4000000000001</ele><time>2026-05-03T14:14:22.97Z</time></trkpt><trkpt lat="45.927812878327686" lon="11.23994460559809"><ele>805.5999999999999</ele><time>2026-05-03T14:14:23.97Z</time></trkpt><trkpt lat="45.92772511755295" lon="11.2398825952104"><ele>801.8</ele><time>2026-05-03T14:14:24.969Z</time></trkpt><trkpt lat="45.92762940416618" lon="11.239876451011195"><ele>798.0</ele><time>2026-05-03T14:14:25.969Z</time></trkpt><trkpt lat="45.927542179528274" lon="11.239917329299193"><ele>796.5999999999999</ele><time>2026-05-03T14:14:26.969Z</time></trkpt><trkpt lat="45.92744427482907" lon="11.239930642331974"><ele>795.1999999999999</ele><time>2026-05-03T14:14:27.969Z</time></trkpt><trkpt lat="45.927356596234496" lon="11.239983741114793"><ele>793.8</ele><time>2026-05-03T14:14:28.969Z</time></trkpt><trkpt lat="45.927265635031816" lon="11.239990104406937"><ele>792.4</ele><time>2026-05-03T14:14:29.969Z</time></trkpt><trkpt lat="45.92716270516121" lon="11.24001337384884"><ele>791.0</ele><time>2026-05-03T14:14:30.969Z</time></trkpt><trkpt lat="45.927048204914264" lon="11.240017148770416"><ele>791.0</ele><time>2026-05-03T14:14:31.969Z</time></trkpt><trkpt lat="45.92692364977291" lon="11.240001592172082"><ele>791.0</ele><time>2026-05-03T14:14:32.969Z</time></trkpt><trkpt lat="45.926794932254595" lon="11.239987555370734"><ele>791.0</ele><time>2026-05-03T14:14:33.969Z</time></trkpt><trkpt lat="45.926666153601076" lon="11.239976941032992"><ele>791.0</ele><time>2026-05-03T14:14:34.969Z</time></trkpt><trkpt lat="45.9265412613987" lon="11.239978833942887"><ele>790.5</ele><time>2026-05-03T14:14:35.969Z</time></trkpt><trkpt lat="45.92642204801991" lon="11.240027317263223"><ele>790.0</ele><time>2026-05-03T14:14:36.969Z</time></trkpt><trkpt lat="45.92631029262097" lon="11.240083381693765"><ele>789.5</ele><time>2026-05-03T14:14:37.969Z</time></trkpt><trkpt lat="45.9261984730866" lon="11.240166852764993"><ele>789.0</ele><time>2026-05-03T14:14:38.969Z</time></trkpt><trkpt lat="45.926092217288286" lon="11.240282371933743"><ele>789.0</ele><time>2026-05-03T14:14:39.969Z</time></trkpt><trkpt lat="45.92599661152096" lon="11.240421512153125"><ele>789.0</ele><time>2026-05-03T14:14:40.969Z</time></trkpt><trkpt lat="45.92589663159199" lon="11.240585613557666"><ele>789.0</ele><time>2026-05-03T14:14:41.969Z</time></trkpt><trkpt lat="45.925794612089014" lon="11.240745979957836"><ele>789.0</ele><time>2026-05-03T14:14:42.969Z</time></trkpt><trkpt lat="45.925695152103835" lon="11.240901731322161"><ele>786.0</ele><time>2026-05-03T14:14:43.969Z</time></trkpt><trkpt lat="45.925591088594935" lon="11.24106209304103"><ele>783.0</ele><time>2026-05-03T14:14:44.969Z</time></trkpt><trkpt lat="45.925485166710516" lon="11.241230555865256"><ele>780.0</ele><time>2026-05-03T14:14:45.969Z</time></trkpt><trkpt lat="45.92537959399348" lon="11.241386616264737"><ele>777.5</ele><time>2026-05-03T14:14:46.969Z</time></trkpt><trkpt lat="45.92528302240183" lon="11.241545375215834"><ele>775.0</ele><time>2026-05-03T14:14:47.969Z</time></trkpt><trkpt lat="45.92519977368137" lon="11.241697526181179"><ele>772.5</ele><time>2026-05-03T14:14:48.969Z</time></trkpt><trkpt lat="45.925118683350014" lon="11.241846528382101"><ele>770.0</ele><time>2026-05-03T14:14:49.969Z</time></trkpt><trkpt lat="45.9250772782943" lon="11.241989661163421"><ele>769.0</ele><time>2026-05-03T14:14:50.969Z</time></trkpt><trkpt lat="45.92503457435175" lon="11.242133379354993"><ele>768.0</ele><time>2026-05-03T14:14:51.969Z</time></trkpt><trkpt lat="45.92498446453149" lon="11.242273757394374"><ele>767.0</ele><time>2026-05-03T14:14:52.969Z</time></trkpt><trkpt lat="45.9249046572757" lon="11.242379964291294"><ele>766.0</ele><time>2026-05-03T14:14:53.969Z</time></trkpt><trkpt lat="45.92480569710548" lon="11.242481298272553"><ele>765.0</ele><time>2026-05-03T14:14:54.969Z</time></trkpt><trkpt lat="45.92469005741166" lon="11.242568007348734"><ele>765.0</ele><time>2026-05-03T14:14:55.969Z</time></trkpt><trkpt lat="45.924565226231216" lon="11.24265482094461"><ele>765.0</ele><time>2026-05-03T14:14:56.969Z</time></trkpt><trkpt lat="45.924447200758294" lon="11.242736775159152"><ele>765.0</ele><time>2026-05-03T14:14:57.969Z</time></trkpt><trkpt lat="45.92431818814551" lon="11.242836472391962"><ele>765.0</ele><time>2026-05-03T14:14:58.969Z</time></trkpt><trkpt lat="45.92420833850555" lon="11.242958655985642"><ele>766.75</ele><time>2026-05-03T14:14:59.969Z</time></trkpt><trkpt lat="45.92409987290848" lon="11.243100989290218"><ele>768.5</ele><time>2026-05-03T14:15:00.969Z</time></trkpt><trkpt lat="45.924003829197424" lon="11.243251194793972"><ele>770.25</ele><time>2026-05-03T14:15:01.969Z</time></trkpt><trkpt lat="45.92391620916478" lon="11.243433966852535"><ele>772.0</ele><time>2026-05-03T14:15:02.969Z</time></trkpt><trkpt lat="45.92387008463729" lon="11.243656529925637"><ele>772.0</ele><time>2026-05-03T14:15:03.969Z</time></trkpt><trkpt lat="45.923814768964796" lon="11.243886034575596"><ele>772.0</ele><time>2026-05-03T14:15:04.969Z</time></trkpt><trkpt lat="45.923726341916264" lon="11.24411181384235"><ele>772.0</ele><time>2026-05-03T14:15:05.969Z</time></trkpt><trkpt lat="45.92364230653001" lon="11.244336524403282"><ele>771.3333333333333</ele><time>2026-05-03T14:15:06.969Z</time></trkpt><trkpt lat="45.92356171573949" lon="11.24454805695373"><ele>770.6666666666667</ele><time>2026-05-03T14:15:07.969Z</time></trkpt><trkpt lat="45.923482990663594" lon="11.244754435277066"><ele>770.0</ele><time>2026-05-03T14:15:08.969Z</time></trkpt><trkpt lat="45.923406584084795" lon="11.24495069540086"><ele>772.0</ele><time>2026-05-03T14:15:09.969Z</time></trkpt><trkpt lat="45.92332859814497" lon="11.245150327407408"><ele>774.0</ele><time>2026-05-03T14:15:10.969Z</time></trkpt><trkpt lat="45.92327410078449" lon="11.245371099830141"><ele>776.0</ele><time>2026-05-03T14:15:11.969Z</time></trkpt><trkpt lat="45.923250160436346" lon="11.245591263898561"><ele>773.25</ele><time>2026-05-03T14:15:12.969Z</time></trkpt><trkpt lat="45.92323179851747" lon="11.245781877898915"><ele>770.5</ele><time>2026-05-03T14:15:13.969Z</time></trkpt><trkpt lat="45.92321064927196" lon="11.245947373747825"><ele>767.75</ele><time>2026-05-03T14:15:14.969Z</time></trkpt><trkpt lat="45.923178625688664" lon="11.246098564588362"><ele>765.0</ele><time>2026-05-03T14:15:15.969Z</time></trkpt><trkpt lat="45.92202901840902" lon="11.253441788817025"><ele>749.6</ele><time>2026-05-03T14:16:16.969Z</time></trkpt><trkpt lat="45.9221052082522" lon="11.253365074998694"><ele>734.2</ele><time>2026-05-03T14:16:17.969Z</time></trkpt><trkpt lat="45.92221382277768" lon="11.253270165233324"><ele>718.8</ele><time>2026-05-03T14:16:19.969Z</time></trkpt><trkpt lat="45.92231489669468" lon="11.253260441125903"><ele>703.4</ele><time>2026-05-03T14:16:21.969Z</time></trkpt><trkpt lat="45.92235617348278" lon="11.25334574777803"><ele>688.0</ele><time>2026-05-03T14:16:22.969Z</time></trkpt><trkpt lat="45.92235237652612" lon="11.253455562384788"><ele>688.0</ele><time>2026-05-03T14:16:23.969Z</time></trkpt><trkpt lat="45.92228212882277" lon="11.253512070291592"><ele>688.0</ele><time>2026-05-03T14:16:24.969Z</time></trkpt><trkpt lat="45.922207216480516" lon="11.253581726738286"><ele>688.0</ele><time>2026-05-03T14:16:25.969Z</time></trkpt><trkpt lat="45.92211210442412" lon="11.25368917838959"><ele>688.0</ele><time>2026-05-03T14:16:26.969Z</time></trkpt><trkpt lat="45.921983124854464" lon="11.253785042095494"><ele>688.0</ele><time>2026-05-03T14:16:27.969Z</time></trkpt><trkpt lat="45.92185400842574" lon="11.253932267856046"><ele>686.3333333333334</ele><time>2026-05-03T14:16:28.969Z</time></trkpt><trkpt lat="45.92172608574264" lon="11.254123237861887"><ele>684.6666666666666</ele><time>2026-05-03T14:16:29.969Z</time></trkpt><trkpt lat="45.92160545469589" lon="11.254353155416334"><ele>683.0</ele><time>2026-05-03T14:16:30.969Z</time></trkpt><trkpt lat="45.92146584979195" lon="11.254580912348276"><ele>676.6666666666666</ele><time>2026-05-03T14:16:31.969Z</time></trkpt><trkpt lat="45.921314873262" lon="11.254796682509573"><ele>670.3333333333334</ele><time>2026-05-03T14:16:32.969Z</time></trkpt><trkpt lat="45.921179986165214" lon="11.255014715119923"><ele>664.0</ele><time>2026-05-03T14:16:33.969Z</time></trkpt><trkpt lat="45.921055111038896" lon="11.255232201897407"><ele>664.0</ele><time>2026-05-03T14:16:34.969Z</time></trkpt><trkpt lat="45.920950090715415" lon="11.25546100235133"><ele>664.0</ele><time>2026-05-03T14:16:35.969Z</time></trkpt><trkpt lat="45.92088564507219" lon="11.255683668261838"><ele>664.0</ele><time>2026-05-03T14:16:36.969Z</time></trkpt><trkpt lat="45.9208158776684" lon="11.255861386666666"><ele>666.0</ele><time>2026-05-03T14:16:37.969Z</time></trkpt><trkpt lat="45.92073460924484" lon="11.256024371690708"><ele>668.0</ele><time>2026-05-03T14:16:38.969Z</time></trkpt><trkpt lat="45.920643198854684" lon="11.256177714510148"><ele>670.0</ele><time>2026-05-03T14:16:39.969Z</time></trkpt><trkpt lat="45.920553310380306" lon="11.256316927050563"><ele>672.0</ele><time>2026-05-03T14:16:40.969Z</time></trkpt><trkpt lat="45.92047686504307" lon="11.256460581235078"><ele>666.4000000000001</ele><time>2026-05-03T14:16:41.969Z</time></trkpt><trkpt lat="45.920430509398344" lon="11.256605615171779"><ele>660.8000000000001</ele><time>2026-05-03T14:16:42.969Z</time></trkpt><trkpt lat="45.92038445941807" lon="11.256721583702028"><ele>655.2</ele><time>2026-05-03T14:16:43.969Z</time></trkpt><trkpt lat="45.92033443263213" lon="11.256829398358978"><ele>649.6</ele><time>2026-05-03T14:16:44.969Z</time></trkpt><trkpt lat="45.920289566654034" lon="11.256917821959117"><ele>644.0</ele><time>2026-05-03T14:16:45.969Z</time></trkpt><trkpt lat="45.920265939725006" lon="11.257042829332557"><ele>644.0</ele><time>2026-05-03T14:16:46.969Z</time></trkpt><trkpt lat="45.920198461914445" lon="11.25718226349239"><ele>644.0</ele><time>2026-05-03T14:16:47.969Z</time></trkpt><trkpt lat="45.920109333558095" lon="11.257302957843123"><ele>644.0</ele><time>2026-05-03T14:16:48.968Z</time></trkpt><trkpt lat="45.92001710146872" lon="11.257423784933364"><ele>644.0</ele><time>2026-05-03T14:16:50.968Z</time></trkpt><trkpt lat="45.919944602080236" lon="11.25747074378479"><ele>644.0</ele><time>2026-05-03T14:16:52.968Z</time></trkpt><trkpt lat="45.91992973423506" lon="11.257586072150639"><ele>641.25</ele><time>2026-05-03T14:16:53.968Z</time></trkpt><trkpt lat="45.920008990687656" lon="11.257683624740517"><ele>638.5</ele><time>2026-05-03T14:16:54.968Z</time></trkpt><trkpt lat="45.920066596424064" lon="11.257787398291214"><ele>635.75</ele><time>2026-05-03T14:16:55.968Z</time></trkpt><trkpt lat="45.92022075644087" lon="11.257733567737017"><ele>633.0</ele><time>2026-05-03T14:16:56.968Z</time></trkpt><trkpt lat="45.92029196249679" lon="11.257525794655844"><ele>633.0</ele><time>2026-05-03T14:16:57.968Z</time></trkpt><trkpt lat="45.92035132736713" lon="11.257360748261803"><ele>633.0</ele><time>2026-05-03T14:16:58.968Z</time></trkpt><trkpt lat="45.92041158377372" lon="11.25720501588649"><ele>633.0</ele><time>2026-05-03T14:16:59.968Z</time></trkpt><trkpt lat="45.92048636699158" lon="11.257036911969212"><ele>633.0</ele><time>2026-05-03T14:17:00.968Z</time></trkpt><trkpt lat="45.92059102433609" lon="11.256844823863636"><ele>636.6666666666666</ele><time>2026-05-03T14:17:01.968Z</time></trkpt><trkpt lat="45.920731209264005" lon="11.256623171245598"><ele>640.3333333333333</ele><time>2026-05-03T14:17:02.968Z</time></trkpt><trkpt lat="45.920880821855036" lon="11.256393073730042"><ele>644.0</ele><time>2026-05-03T14:17:03.968Z</time></trkpt><trkpt lat="45.920989580417995" lon="11.256223315947235"><ele>644.6</ele><time>2026-05-03T14:17:04.968Z</time></trkpt><trkpt lat="45.921071796675285" lon="11.256091933049909"><ele>645.2</ele><time>2026-05-03T14:17:05.968Z</time></trkpt><trkpt lat="45.921138512127996" lon="11.256006252864978"><ele>645.8000000000001</ele><time>2026-05-03T14:17:06.968Z</time></trkpt><trkpt lat="45.92122251849047" lon="11.25598093097343"><ele>646.4000000000001</ele><time>2026-05-03T14:17:08.968Z</time></trkpt><trkpt lat="45.9212560867599" lon="11.256182459228977"><ele>647.0</ele><time>2026-05-03T14:17:10.968Z</time></trkpt><trkpt lat="45.92118005018778" lon="11.256296148733828"><ele>647.0</ele><time>2026-05-03T14:17:11.968Z</time></trkpt><trkpt lat="45.9210669067345" lon="11.25642686155323"><ele>647.0</ele><time>2026-05-03T14:17:12.968Z</time></trkpt><trkpt lat="45.92092849656485" lon="11.256576182753417"><ele>647.0</ele><time>2026-05-03T14:17:13.968Z</time></trkpt><trkpt lat="45.92079868308773" lon="11.256711020918855"><ele>645.5</ele><time>2026-05-03T14:17:14.968Z</time></trkpt><trkpt lat="45.920688874136985" lon="11.256853268284283"><ele>644.0</ele><time>2026-05-03T14:17:15.968Z</time></trkpt><trkpt lat="45.9160988131274" lon="11.270534977923012"><ele>630.2</ele><time>2026-05-03T14:18:16.969Z</time></trkpt><trkpt lat="45.916057455128716" lon="11.270702381269693"><ele>616.4000000000001</ele><time>2026-05-03T14:18:17.968Z</time></trkpt><trkpt lat="45.91599423322557" lon="11.270859383338827"><ele>602.6</ele><time>2026-05-03T14:18:18.969Z</time></trkpt><trkpt lat="45.91594848576189" lon="11.270981048880437"><ele>588.8</ele><time>2026-05-03T14:18:19.969Z</time></trkpt><trkpt lat="45.91591271684969" lon="11.271100854828935"><ele>575.0</ele><time>2026-05-03T14:18:20.969Z</time></trkpt><trkpt lat="45.91592024847435" lon="11.271244655585948"><ele>575.0</ele><time>2026-05-03T14:18:21.969Z</time></trkpt><trkpt lat="45.915933820892626" lon="11.271399095566995"><ele>575.0</ele><time>2026-05-03T14:18:22.969Z</time></trkpt><trkpt lat="45.91591734332633" lon="11.271559110512355"><ele>575.0</ele><time>2026-05-03T14:18:23.969Z</time></trkpt><trkpt lat="45.91587132423697" lon="11.271681021945218"><ele>575.0</ele><time>2026-05-03T14:18:24.969Z</time></trkpt><trkpt lat="45.915809680870304" lon="11.271818153284412"><ele>575.0</ele><time>2026-05-03T14:18:25.969Z</time></trkpt><trkpt lat="45.91575849305849" lon="11.271996163597072"><ele>577.75</ele><time>2026-05-03T14:18:26.969Z</time></trkpt><trkpt lat="45.915645737302455" lon="11.27208491907759"><ele>580.5</ele><time>2026-05-03T14:18:27.969Z</time></trkpt><trkpt lat="45.91552083856927" lon="11.272126093127635"><ele>583.25</ele><time>2026-05-03T14:18:28.969Z</time></trkpt><trkpt lat="45.91540127349994" lon="11.27214651749771"><ele>586.0</ele><time>2026-05-03T14:18:29.969Z</time></trkpt><trkpt lat="45.91528228245245" lon="11.272135642691671"><ele>586.0</ele><time>2026-05-03T14:18:30.969Z</time></trkpt><trkpt lat="45.91517983112725" lon="11.272224056039699"><ele>586.0</ele><time>2026-05-03T14:18:31.969Z</time></trkpt><trkpt lat="45.91510697166503" lon="11.272321267894315"><ele>586.0</ele><time>2026-05-03T14:18:32.969Z</time></trkpt><trkpt lat="45.91508067840991" lon="11.272459836472052"><ele>586.0</ele><time>2026-05-03T14:18:33.969Z</time></trkpt><trkpt lat="45.915068157299174" lon="11.272638734270105"><ele>586.0</ele><time>2026-05-03T14:18:34.969Z</time></trkpt><trkpt lat="45.91514751391682" lon="11.272844960709206"><ele>584.0</ele><time>2026-05-03T14:18:35.969Z</time></trkpt><trkpt lat="45.91519827352375" lon="11.27305109629831"><ele>582.0</ele><time>2026-05-03T14:18:36.969Z</time></trkpt><trkpt lat="45.91522995157153" lon="11.273218346201904"><ele>580.0</ele><time>2026-05-03T14:18:37.969Z</time></trkpt><trkpt lat="45.91522586415855" lon="11.273377009343266"><ele>578.0</ele><time>2026-05-03T14:18:38.969Z</time></trkpt><trkpt lat="45.915163250881506" lon="11.273519695676212"><ele>578.75</ele><time>2026-05-03T14:18:39.968Z</time></trkpt><trkpt lat="45.915085242806605" lon="11.273607465959369"><ele>579.5</ele><time>2026-05-03T14:18:40.968Z</time></trkpt><trkpt lat="45.914985226101685" lon="11.273735558144049"><ele>580.25</ele><time>2026-05-03T14:18:41.968Z</time></trkpt><trkpt lat="45.914868616676046" lon="11.27385743708559"><ele>581.0</ele><time>2026-05-03T14:18:42.968Z</time></trkpt><trkpt lat="45.91479011829158" lon="11.27398760716519"><ele>578.4</ele><time>2026-05-03T14:18:43.968Z</time></trkpt><trkpt lat="45.91473904202272" lon="11.274089389205434"><ele>575.8</ele><time>2026-05-03T14:18:44.968Z</time></trkpt><trkpt lat="45.91473770996242" lon="11.274204181527988"><ele>573.1999999999999</ele><time>2026-05-03T14:18:45.968Z</time></trkpt><trkpt lat="45.91477532155479" lon="11.274326355766231"><ele>570.6</ele><time>2026-05-03T14:18:46.968Z</time></trkpt><trkpt lat="45.914856785026494" lon="11.274420095197058"><ele>568.0</ele><time>2026-05-03T14:18:47.968Z</time></trkpt><trkpt lat="45.91495844765618" lon="11.274428680316351"><ele>563.5</ele><time>2026-05-03T14:18:48.968Z</time></trkpt><trkpt lat="45.91507803144246" lon="11.274379421353368"><ele>559.0</ele><time>2026-05-03T14:18:49.968Z</time></trkpt><trkpt lat="45.91520771495689" lon="11.274277206195304"><ele>554.5</ele><time>2026-05-03T14:18:50.968Z</time></trkpt><trkpt lat="45.91535372365005" lon="11.274180488683959"><ele>550.0</ele><time>2026-05-03T14:18:51.968Z</time></trkpt><trkpt lat="45.91547279510018" lon="11.274100370496045"><ele>550.0</ele><time>2026-05-03T14:18:52.968Z</time></trkpt><trkpt lat="45.915565108637786" lon="11.27397212050703"><ele>550.0</ele><time>2026-05-03T14:18:53.968Z</time></trkpt><trkpt lat="45.91561638367499" lon="11.273810089759726"><ele>550.0</ele><time>2026-05-03T14:18:54.968Z</time></trkpt><trkpt lat="45.91564745188512" lon="11.273654379251568"><ele>550.0</ele><time>2026-05-03T14:18:55.968Z</time></trkpt><trkpt lat="45.915697434090184" lon="11.273557017509289"><ele>550.0</ele><time>2026-05-03T14:18:56.968Z</time></trkpt><trkpt lat="45.91577144665015" lon="11.273518939531208"><ele>550.0</ele><time>2026-05-03T14:18:57.968Z</time></trkpt><trkpt lat="45.91585922904767" lon="11.273570806163905"><ele>550.0</ele><time>2026-05-03T14:18:58.968Z</time></trkpt><trkpt lat="45.91593812091431" lon="11.273627513458846"><ele>550.0</ele><time>2026-05-03T14:18:59.968Z</time></trkpt><trkpt lat="45.915976648108085" lon="11.273765359679297"><ele>550.0</ele><time>2026-05-03T14:19:00.968Z</time></trkpt><trkpt lat="45.915939757220194" lon="11.273902071517167"><ele>550.0</ele><time>2026-05-03T14:19:01.968Z</time></trkpt><trkpt lat="45.91584751622537" lon="11.274054553375109"><ele>550.0</ele><time>2026-05-03T14:19:02.968Z</time></trkpt><trkpt lat="45.91576409791643" lon="11.274179622791292"><ele>550.0</ele><time>2026-05-03T14:19:03.968Z</time></trkpt><trkpt lat="45.915656549347716" lon="11.274294448455695"><ele>550.0</ele><time>2026-05-03T14:19:04.968Z</time></trkpt><trkpt lat="45.91552879461206" lon="11.274421654934077"><ele>550.0</ele><time>2026-05-03T14:19:05.968Z</time></trkpt><trkpt lat="45.91539080005874" lon="11.274558127802004"><ele>550.0</ele><time>2026-05-03T14:19:06.968Z</time></trkpt><trkpt lat="45.91526883117961" lon="11.274680180288087"><ele>550.0</ele><time>2026-05-03T14:19:07.968Z</time></trkpt><trkpt lat="45.91514947777549" lon="11.274799867610188"><ele>550.0</ele><time>2026-05-03T14:19:08.968Z</time></trkpt><trkpt lat="45.915040316749504" lon="11.274918185156453"><ele>550.0</ele><time>2026-05-03T14:19:09.968Z</time></trkpt><trkpt lat="45.91496379708162" lon="11.275044063346089"><ele>549.6</ele><time>2026-05-03T14:19:10.968Z</time></trkpt><trkpt lat="45.91488993413295" lon="11.275156283922607"><ele>549.2</ele><time>2026-05-03T14:19:11.968Z</time></trkpt><trkpt lat="45.91482216215663" lon="11.275242626879825"><ele>548.8</ele><time>2026-05-03T14:19:12.968Z</time></trkpt><trkpt lat="45.91481274702574" lon="11.275368723387915"><ele>548.4</ele><time>2026-05-03T14:19:13.968Z</time></trkpt><trkpt lat="45.914805701265074" lon="11.27550002597156"><ele>548.0</ele><time>2026-05-03T14:19:14.968Z</time></trkpt><trkpt lat="45.91486941850574" lon="11.275646248659035"><ele>504.0</ele><time>2026-05-03T14:19:15.968Z</time></trkpt><trkpt lat="45.91332600367972" lon="11.285088013985629"><ele>504.0</ele><time>2026-05-03T14:20:16.969Z</time></trkpt><trkpt lat="45.913350182687644" lon="11.285309596547112"><ele>504.0</ele><time>2026-05-03T14:20:17.969Z</time></trkpt><trkpt lat="45.91337072817283" lon="11.28552248810648"><ele>504.0</ele><time>2026-05-03T14:20:18.969Z</time></trkpt><trkpt lat="45.913383342604554" lon="11.285719420082964"><ele>504.0</ele><time>2026-05-03T14:20:19.969Z</time></trkpt><trkpt lat="45.913388128011064" lon="11.285916598964803"><ele>503.0</ele><time>2026-05-03T14:20:20.968Z</time></trkpt><trkpt lat="45.91337566441392" lon="11.286097646079364"><ele>502.0</ele><time>2026-05-03T14:20:21.968Z</time></trkpt><trkpt lat="45.913351860116975" lon="11.286284971707913"><ele>501.0</ele><time>2026-05-03T14:20:22.968Z</time></trkpt><trkpt lat="45.91331029139455" lon="11.286473157221122"><ele>500.0</ele><time>2026-05-03T14:20:23.968Z</time></trkpt><trkpt lat="45.91325544123389" lon="11.286658024039312"><ele>498.75</ele><time>2026-05-03T14:20:24.968Z</time></trkpt><trkpt lat="45.91322092415755" lon="11.286837622756103"><ele>497.5</ele><time>2026-05-03T14:20:25.968Z</time></trkpt><trkpt lat="45.91315350162304" lon="11.287006684768764"><ele>496.25</ele><time>2026-05-03T14:20:26.969Z</time></trkpt><trkpt lat="45.913100946962906" lon="11.287183636402679"><ele>495.0</ele><time>2026-05-03T14:20:27.969Z</time></trkpt><trkpt lat="45.913043760432" lon="11.287370988265081"><ele>493.75</ele><time>2026-05-03T14:20:28.969Z</time></trkpt><trkpt lat="45.9129954364577" lon="11.287548665373246"><ele>492.5</ele><time>2026-05-03T14:20:29.969Z</time></trkpt><trkpt lat="45.912954879322065" lon="11.287719614158739"><ele>491.25</ele><time>2026-05-03T14:20:30.969Z</time></trkpt><trkpt lat="45.912882067081924" lon="11.287889212335394"><ele>490.0</ele><time>2026-05-03T14:20:31.969Z</time></trkpt><trkpt lat="45.9128538428551" lon="11.288101084069083"><ele>489.0</ele><time>2026-05-03T14:20:32.969Z</time></trkpt><trkpt lat="45.91284044566346" lon="11.28832172372813"><ele>488.0</ele><time>2026-05-03T14:20:33.969Z</time></trkpt><trkpt lat="45.91285223519935" lon="11.288564902206028"><ele>487.0</ele><time>2026-05-03T14:20:34.969Z</time></trkpt><trkpt lat="45.912870680387506" lon="11.288810279857417"><ele>485.33333333333337</ele><time>2026-05-03T14:20:35.969Z</time></trkpt><trkpt lat="45.91288940179116" lon="11.289046594722524"><ele>483.66666666666663</ele><time>2026-05-03T14:20:36.969Z</time></trkpt><trkpt lat="45.91291396017931" lon="11.28926833757654"><ele>482.0</ele><time>2026-05-03T14:20:37.969Z</time></trkpt><trkpt lat="45.912934932624175" lon="11.289503926462997"><ele>482.0</ele><time>2026-05-03T14:20:38.969Z</time></trkpt><trkpt lat="45.9129535609451" lon="11.289724173907812"><ele>482.0</ele><time>2026-05-03T14:20:39.969Z</time></trkpt><trkpt lat="45.91298991302262" lon="11.289948986093666"><ele>482.0</ele><time>2026-05-03T14:20:40.969Z</time></trkpt><trkpt lat="45.91304777480589" lon="11.290173076762729"><ele>482.0</ele><time>2026-05-03T14:20:41.969Z</time></trkpt><trkpt lat="45.91310581480844" lon="11.29039664023299"><ele>482.0</ele><time>2026-05-03T14:20:42.969Z</time></trkpt><trkpt lat="45.913164608175016" lon="11.290610893495044"><ele>482.0</ele><time>2026-05-03T14:20:43.969Z</time></trkpt><trkpt lat="45.91321770091016" lon="11.290827448681082"><ele>482.25</ele><time>2026-05-03T14:20:44.969Z</time></trkpt><trkpt lat="45.913260683598075" lon="11.29104350501548"><ele>482.5</ele><time>2026-05-03T14:20:45.969Z</time></trkpt><trkpt lat="45.91328361386967" lon="11.291243774121002"><ele>482.75</ele><time>2026-05-03T14:20:46.969Z</time></trkpt><trkpt lat="45.91330221016004" lon="11.29145183471484"><ele>483.0</ele><time>2026-05-03T14:20:47.969Z</time></trkpt><trkpt lat="45.913338151298596" lon="11.29166040437583"><ele>483.0</ele><time>2026-05-03T14:20:48.969Z</time></trkpt><trkpt lat="45.91336117002986" lon="11.291865708405762"><ele>483.0</ele><time>2026-05-03T14:20:49.969Z</time></trkpt><trkpt lat="45.913377268879735" lon="11.29207682337932"><ele>483.0</ele><time>2026-05-03T14:20:50.969Z</time></trkpt><trkpt lat="45.91336833888536" lon="11.292306994190337"><ele>482.5</ele><time>2026-05-03T14:20:51.969Z</time></trkpt><trkpt lat="45.91334719089649" lon="11.292524858654442"><ele>482.0</ele><time>2026-05-03T14:20:52.969Z</time></trkpt><trkpt lat="45.913298831896455" lon="11.292724055539264"><ele>481.5</ele><time>2026-05-03T14:20:53.969Z</time></trkpt><trkpt lat="45.91328128407411" lon="11.292919269707003"><ele>481.0</ele><time>2026-05-03T14:20:54.969Z</time></trkpt><trkpt lat="45.913246472045" lon="11.29310647448692"><ele>479.75</ele><time>2026-05-03T14:20:55.969Z</time></trkpt><trkpt lat="45.913208910401366" lon="11.293307164310988"><ele>478.5</ele><time>2026-05-03T14:20:56.969Z</time></trkpt><trkpt lat="45.91315703803137" lon="11.293505415295662"><ele>477.25</ele><time>2026-05-03T14:20:57.969Z</time></trkpt><trkpt lat="45.91308756737017" lon="11.29369062066544"><ele>476.0</ele><time>2026-05-03T14:20:58.969Z</time></trkpt><trkpt lat="45.91301180473272" lon="11.293873545509138"><ele>476.0</ele><time>2026-05-03T14:20:59.969Z</time></trkpt><trkpt lat="45.91293416405989" lon="11.294059427509808"><ele>476.0</ele><time>2026-05-03T14:21:00.969Z</time></trkpt><trkpt lat="45.91285813723018" lon="11.294236671598275"><ele>476.0</ele><time>2026-05-03T14:21:01.969Z</time></trkpt><trkpt lat="45.912780071586376" lon="11.294403814895988"><ele>476.0</ele><time>2026-05-03T14:21:02.969Z</time></trkpt><trkpt lat="45.91269514619363" lon="11.294557068791429"><ele>476.0</ele><time>2026-05-03T14:21:03.969Z</time></trkpt><trkpt lat="45.91260235964001" lon="11.294701107530729"><ele>476.0</ele><time>2026-05-03T14:21:04.969Z</time></trkpt><trkpt lat="45.91250873203776" lon="11.294841638009686"><ele>476.0</ele><time>2026-05-03T14:21:05.969Z</time></trkpt><trkpt lat="45.91241658202318" lon="11.294981112106584"><ele>476.0</ele><time>2026-05-03T14:21:06.969Z</time></trkpt><trkpt lat="45.91232817832406" lon="11.295115943813814"><ele>476.25</ele><time>2026-05-03T14:21:07.969Z</time></trkpt><trkpt lat="45.912237886271264" lon="11.295255937979269"><ele>476.5</ele><time>2026-05-03T14:21:08.969Z</time></trkpt><trkpt lat="45.91214251364466" lon="11.295403885547053"><ele>476.75</ele><time>2026-05-03T14:21:09.969Z</time></trkpt><trkpt lat="45.91204861464073" lon="11.29555093012454"><ele>477.0</ele><time>2026-05-03T14:21:10.969Z</time></trkpt><trkpt lat="45.91196640261814" lon="11.295710044324178"><ele>477.25</ele><time>2026-05-03T14:21:11.969Z</time></trkpt><trkpt lat="45.91187678930216" lon="11.295868973232748"><ele>477.5</ele><time>2026-05-03T14:21:12.969Z</time></trkpt><trkpt lat="45.91180010097133" lon="11.296067032775792"><ele>477.75</ele><time>2026-05-03T14:21:13.969Z</time></trkpt><trkpt lat="45.91172946457296" lon="11.296251974437208"><ele>478.0</ele><time>2026-05-03T14:21:14.969Z</time></trkpt><trkpt lat="45.91164458928818" lon="11.296476145199186"><ele>444.0</ele><time>2026-05-03T14:21:15.969Z</time></trkpt><trkpt lat="45.90714279118778" lon="11.31008065274745"><ele>444.0</ele><time>2026-05-03T14:22:16.968Z</time></trkpt><trkpt lat="45.907171291425506" lon="11.31056833896234"><ele>444.0</ele><time>2026-05-03T14:22:17.968Z</time></trkpt><trkpt lat="45.90719396155669" lon="11.311078568774402"><ele>443.0</ele><time>2026-05-03T14:22:18.968Z</time></trkpt><trkpt lat="45.90721283900521" lon="11.311528328148558"><ele>442.0</ele><time>2026-05-03T14:22:19.968Z</time></trkpt><trkpt lat="45.90720437656763" lon="11.312222015759417"><ele>442.6666666666667</ele><time>2026-05-03T14:22:20.969Z</time></trkpt><trkpt lat="45.907251325119994" lon="11.312405340340845"><ele>443.33333333333337</ele><time>2026-05-03T14:22:21.968Z</time></trkpt><trkpt lat="45.907292362370676" lon="11.312725313656335"><ele>444.0</ele><time>2026-05-03T14:22:22.968Z</time></trkpt><trkpt lat="45.90733112421515" lon="11.313003406240393"><ele>444.0</ele><time>2026-05-03T14:22:23.969Z</time></trkpt><trkpt lat="45.90736000431682" lon="11.313262702954013"><ele>444.0</ele><time>2026-05-03T14:22:24.969Z</time></trkpt><trkpt lat="45.907369497053395" lon="11.313483366215152"><ele>444.0</ele><time>2026-05-03T14:22:25.969Z</time></trkpt><trkpt lat="45.907387691101675" lon="11.313624416817866"><ele>444.0</ele><time>2026-05-03T14:22:26.969Z</time></trkpt><trkpt lat="45.90737093739218" lon="11.313723066059111"><ele>444.0</ele><time>2026-05-03T14:22:27.968Z</time></trkpt><trkpt lat="45.907223294124215" lon="11.313865330051218"><ele>444.0</ele><time>2026-05-03T14:22:29.969Z</time></trkpt><trkpt lat="45.90712014027175" lon="11.313788299280258"><ele>444.0</ele><time>2026-05-03T14:22:30.968Z</time></trkpt><trkpt lat="45.90701677754472" lon="11.313715135444287"><ele>444.0</ele><time>2026-05-03T14:22:31.968Z</time></trkpt><trkpt lat="45.906866820565654" lon="11.313642478834605"><ele>445.66666666666663</ele><time>2026-05-03T14:22:32.969Z</time></trkpt><trkpt lat="45.906709422426715" lon="11.313505795090208"><ele>447.3333333333333</ele><time>2026-05-03T14:22:33.968Z</time></trkpt><trkpt lat="45.90652576976629" lon="11.313411306942632"><ele>449.0</ele><time>2026-05-03T14:22:34.968Z</time></trkpt><trkpt lat="45.9062975178616" lon="11.31332276530258"><ele>449.0</ele><time>2026-05-03T14:22:35.968Z</time></trkpt><trkpt lat="45.90609601033015" lon="11.31325697642131"><ele>449.0</ele><time>2026-05-03T14:22:36.968Z</time></trkpt><trkpt lat="45.905923036264205" lon="11.31320280709058"><ele>449.0</ele><time>2026-05-03T14:22:37.968Z</time></trkpt><trkpt lat="45.9057478658293" lon="11.313189262247755"><ele>446.0</ele><time>2026-05-03T14:22:38.968Z</time></trkpt><trkpt lat="45.90556006174147" lon="11.313249512759205"><ele>443.0</ele><time>2026-05-03T14:22:39.968Z</time></trkpt><trkpt lat="45.905367105582286" lon="11.313381848247385"><ele>440.0</ele><time>2026-05-03T14:22:40.968Z</time></trkpt><trkpt lat="45.905166028022" lon="11.313560481310178"><ele>438.0</ele><time>2026-05-03T14:22:41.968Z</time></trkpt><trkpt lat="45.90494605753552" lon="11.313789869799601"><ele>436.0</ele><time>2026-05-03T14:22:42.968Z</time></trkpt><trkpt lat="45.90469983763889" lon="11.314050058245602"><ele>436.0</ele><time>2026-05-03T14:22:43.968Z</time></trkpt><trkpt lat="45.90444456604356" lon="11.314298886923185"><ele>436.0</ele><time>2026-05-03T14:22:44.968Z</time></trkpt><trkpt lat="45.904214187554345" lon="11.31451643992167"><ele>438.0</ele><time>2026-05-03T14:22:45.969Z</time></trkpt><trkpt lat="45.90401362208096" lon="11.314728023597803"><ele>440.0</ele><time>2026-05-03T14:22:46.969Z</time></trkpt><trkpt lat="45.903818977555694" lon="11.314925342477588"><ele>440.0</ele><time>2026-05-03T14:22:47.969Z</time></trkpt><trkpt lat="45.90362851898275" lon="11.31513090184934"><ele>440.0</ele><time>2026-05-03T14:22:48.969Z</time></trkpt><trkpt lat="45.903464446630956" lon="11.315361801569756"><ele>441.66666666666663</ele><time>2026-05-03T14:22:49.969Z</time></trkpt><trkpt lat="45.903339439812115" lon="11.315603044858541"><ele>443.33333333333337</ele><time>2026-05-03T14:22:50.969Z</time></trkpt><trkpt lat="45.90323030665889" lon="11.315890051329834"><ele>445.0</ele><time>2026-05-03T14:22:51.97Z</time></trkpt><trkpt lat="45.90316307578915" lon="11.316168149512048"><ele>442.6666666666667</ele><time>2026-05-03T14:22:52.97Z</time></trkpt><trkpt lat="45.90311434219719" lon="11.316425052640367"><ele>440.33333333333337</ele><time>2026-05-03T14:22:53.97Z</time></trkpt><trkpt lat="45.90311459288341" lon="11.316737600407889"><ele>438.0</ele><time>2026-05-03T14:22:54.97Z</time></trkpt><trkpt lat="45.90311903501704" lon="11.317068112426385"><ele>438.0</ele><time>2026-05-03T14:22:55.97Z</time></trkpt><trkpt lat="45.903133662639" lon="11.317364565923405"><ele>438.0</ele><time>2026-05-03T14:22:56.97Z</time></trkpt><trkpt lat="45.90315774242429" lon="11.317630096334018"><ele>438.0</ele><time>2026-05-03T14:22:57.97Z</time></trkpt><trkpt lat="45.90319437262758" lon="11.317881340151153"><ele>437.33333333333337</ele><time>2026-05-03T14:22:58.97Z</time></trkpt><trkpt lat="45.90325232210406" lon="11.318138950801991"><ele>436.6666666666667</ele><time>2026-05-03T14:22:59.97Z</time></trkpt><trkpt lat="45.90331550169522" lon="11.318402388025177"><ele>436.0</ele><time>2026-05-03T14:23:00.97Z</time></trkpt><trkpt lat="45.90338624791231" lon="11.318641487275032"><ele>435.75</ele><time>2026-05-03T14:23:01.97Z</time></trkpt><trkpt lat="45.90342455368085" lon="11.318839033420296"><ele>435.5</ele><time>2026-05-03T14:23:02.971Z</time></trkpt><trkpt lat="45.903414771799135" lon="11.319025077425408"><ele>435.25</ele><time>2026-05-03T14:23:03.971Z</time></trkpt><trkpt lat="45.90335158480536" lon="11.31921263016719"><ele>435.0</ele><time>2026-05-03T14:23:04.971Z</time></trkpt><trkpt lat="45.903295987488384" lon="11.319413053592154"><ele>435.0</ele><time>2026-05-03T14:23:05.971Z</time></trkpt><trkpt lat="45.903235680062984" lon="11.319653058919009"><ele>435.0</ele><time>2026-05-03T14:23:06.971Z</time></trkpt><trkpt lat="45.90316088879718" lon="11.319864260991343"><ele>435.0</ele><time>2026-05-03T14:23:07.971Z</time></trkpt><trkpt lat="45.90309324606218" lon="11.320108746434885"><ele>432.66666666666663</ele><time>2026-05-03T14:23:08.971Z</time></trkpt><trkpt lat="45.90302081076879" lon="11.320347176019318"><ele>430.3333333333333</ele><time>2026-05-03T14:23:09.971Z</time></trkpt><trkpt lat="45.90294719821317" lon="11.320593678374967"><ele>428.0</ele><time>2026-05-03T14:23:10.971Z</time></trkpt><trkpt lat="45.90286870155094" lon="11.320842513612554"><ele>426.66666666666663</ele><time>2026-05-03T14:23:11.971Z</time></trkpt><trkpt lat="45.902792217912925" lon="11.321097907242143"><ele>425.33333333333337</ele><time>2026-05-03T14:23:12.971Z</time></trkpt><trkpt lat="45.902714163626214" lon="11.321356379533217"><ele>424.0</ele><time>2026-05-03T14:23:13.971Z</time></trkpt><trkpt lat="45.90263262550849" lon="11.321614452266763"><ele>418.0</ele><time>2026-05-03T14:23:14.971Z</time></trkpt><trkpt lat="45.902548106793674" lon="11.321875559106319"><ele>412.0</ele><time>2026-05-03T14:23:15.971Z</time></trkpt><trkpt lat="45.8949398687111" lon="11.336827900090201"><ele>412.0</ele><time>2026-05-03T14:24:16.971Z</time></trkpt><trkpt lat="45.89489916607632" lon="11.337047158801239"><ele>412.0</ele><time>2026-05-03T14:24:17.971Z</time></trkpt><trkpt lat="45.89487193721423" lon="11.337252407804627"><ele>412.0</ele><time>2026-05-03T14:24:18.971Z</time></trkpt><trkpt lat="45.89486580082423" lon="11.337450334681897"><ele>412.0</ele><time>2026-05-03T14:24:19.971Z</time></trkpt><trkpt lat="45.89484222043345" lon="11.33766221406353"><ele>411.6666666666667</ele><time>2026-05-03T14:24:20.971Z</time></trkpt><trkpt lat="45.89485065835151" lon="11.337883922669413"><ele>411.33333333333337</ele><time>2026-05-03T14:24:21.971Z</time></trkpt><trkpt lat="45.8948547219505" lon="11.338108238876083"><ele>411.0</ele><time>2026-05-03T14:24:22.971Z</time></trkpt><trkpt lat="45.89485633697999" lon="11.338342097018925"><ele>411.0</ele><time>2026-05-03T14:24:23.971Z</time></trkpt><trkpt lat="45.894859180064685" lon="11.338579315751534"><ele>411.0</ele><time>2026-05-03T14:24:24.971Z</time></trkpt><trkpt lat="45.894863380362644" lon="11.33882240221714"><ele>411.0</ele><time>2026-05-03T14:24:25.973Z</time></trkpt><trkpt lat="45.89486807218536" lon="11.339067655261934"><ele>410.0</ele><time>2026-05-03T14:24:26.972Z</time></trkpt><trkpt lat="45.89487082216085" lon="11.339322899503129"><ele>409.0</ele><time>2026-05-03T14:24:27.972Z</time></trkpt><trkpt lat="45.894861005654676" lon="11.339591183207526"><ele>408.0</ele><time>2026-05-03T14:24:28.972Z</time></trkpt><trkpt lat="45.89484086333894" lon="11.339868062840345"><ele>406.33333333333337</ele><time>2026-05-03T14:24:29.972Z</time></trkpt><trkpt lat="45.89481755140393" lon="11.340148028185768"><ele>404.6666666666667</ele><time>2026-05-03T14:24:30.972Z</time></trkpt><trkpt lat="45.8947974954725" lon="11.34040322106051"><ele>403.0</ele><time>2026-05-03T14:24:31.973Z</time></trkpt><trkpt lat="45.8947818654311" lon="11.340652987318228"><ele>402.0</ele><time>2026-05-03T14:24:32.972Z</time></trkpt><trkpt lat="45.894763098083885" lon="11.340911091552131"><ele>401.0</ele><time>2026-05-03T14:24:33.972Z</time></trkpt><trkpt lat="45.894746006326095" lon="11.341177642985526"><ele>400.0</ele><time>2026-05-03T14:24:34.973Z</time></trkpt><trkpt lat="45.89473472521019" lon="11.341434627604308"><ele>399.6666666666667</ele><time>2026-05-03T14:24:35.972Z</time></trkpt><trkpt lat="45.894714107187866" lon="11.341709588955045"><ele>399.33333333333337</ele><time>2026-05-03T14:24:36.972Z</time></trkpt><trkpt lat="45.894675084056615" lon="11.342000949553146"><ele>399.0</ele><time>2026-05-03T14:24:37.972Z</time></trkpt><trkpt lat="45.89461942367424" lon="11.34230329950723"><ele>399.0</ele><time>2026-05-03T14:24:38.972Z</time></trkpt><trkpt lat="45.89454191633196" lon="11.342604665277463"><ele>399.0</ele><time>2026-05-03T14:24:39.972Z</time></trkpt><trkpt lat="45.89444216620897" lon="11.342915429993859"><ele>398.0</ele><time>2026-05-03T14:24:40.972Z</time></trkpt><trkpt lat="45.89433983558843" lon="11.34319942437246"><ele>397.0</ele><time>2026-05-03T14:24:41.972Z</time></trkpt><trkpt lat="45.89425088785752" lon="11.343480354062297"><ele>396.0</ele><time>2026-05-03T14:24:42.972Z</time></trkpt><trkpt lat="45.89416921495472" lon="11.343751153596928"><ele>394.66666666666663</ele><time>2026-05-03T14:24:43.972Z</time></trkpt><trkpt lat="45.89409244950801" lon="11.344006866741395"><ele>393.3333333333333</ele><time>2026-05-03T14:24:44.972Z</time></trkpt><trkpt lat="45.89401546461341" lon="11.344250739329516"><ele>392.0</ele><time>2026-05-03T14:24:45.972Z</time></trkpt><trkpt lat="45.8939305687262" lon="11.344482378657172"><ele>392.0</ele><time>2026-05-03T14:24:46.972Z</time></trkpt><trkpt lat="45.893823633488886" lon="11.344711980232072"><ele>392.0</ele><time>2026-05-03T14:24:47.972Z</time></trkpt><trkpt lat="45.89370165822642" lon="11.344934943646345"><ele>392.0</ele><time>2026-05-03T14:24:48.972Z</time></trkpt><trkpt lat="45.893588332372616" lon="11.345146787253466"><ele>392.3333333333333</ele><time>2026-05-03T14:24:49.972Z</time></trkpt><trkpt lat="45.89348083251091" lon="11.345347018761025"><ele>392.66666666666663</ele><time>2026-05-03T14:24:50.972Z</time></trkpt><trkpt lat="45.89337094652176" lon="11.34552628256571"><ele>393.0</ele><time>2026-05-03T14:24:51.972Z</time></trkpt><trkpt lat="45.89322965568606" lon="11.345673372946722"><ele>390.0</ele><time>2026-05-03T14:24:52.972Z</time></trkpt><trkpt lat="45.8930640267017" lon="11.345814064425124"><ele>387.0</ele><time>2026-05-03T14:24:53.972Z</time></trkpt><trkpt lat="45.89289940384039" lon="11.345928391985396"><ele>384.0</ele><time>2026-05-03T14:24:54.972Z</time></trkpt><trkpt lat="45.89273268327562" lon="11.346005467056411"><ele>386.0</ele><time>2026-05-03T14:24:55.972Z</time></trkpt><trkpt lat="45.892578980658136" lon="11.346084384241959"><ele>388.0</ele><time>2026-05-03T14:24:56.972Z</time></trkpt><trkpt lat="45.892450305548195" lon="11.346197021625725"><ele>390.0</ele><time>2026-05-03T14:24:57.972Z</time></trkpt><trkpt lat="45.892340903194" lon="11.346355671253532"><ele>386.0</ele><time>2026-05-03T14:24:58.972Z</time></trkpt><trkpt lat="45.89224403627765" lon="11.346580805089296"><ele>382.0</ele><time>2026-05-03T14:24:59.972Z</time></trkpt><trkpt lat="45.89215097287241" lon="11.346863723868235"><ele>378.0</ele><time>2026-05-03T14:25:00.972Z</time></trkpt><trkpt lat="45.89207612851756" lon="11.347179795896583"><ele>375.0</ele><time>2026-05-03T14:25:01.972Z</time></trkpt><trkpt lat="45.891984958310466" lon="11.347432880834743"><ele>372.0</ele><time>2026-05-03T14:25:02.972Z</time></trkpt><trkpt lat="45.891954634834775" lon="11.34778893650405"><ele>369.0</ele><time>2026-05-03T14:25:03.972Z</time></trkpt><trkpt lat="45.89192258989282" lon="11.348109478620414"><ele>367.6666666666667</ele><time>2026-05-03T14:25:04.972Z</time></trkpt><trkpt lat="45.89189573300678" lon="11.3483846388699"><ele>366.33333333333337</ele><time>2026-05-03T14:25:05.972Z</time></trkpt><trkpt lat="45.891865382804234" lon="11.348647209027359"><ele>365.0</ele><time>2026-05-03T14:25:06.972Z</time></trkpt><trkpt lat="45.89183678076575" lon="11.348912237438544"><ele>365.0</ele><time>2026-05-03T14:25:07.972Z</time></trkpt><trkpt lat="45.8918075396555" lon="11.34917071484567"><ele>365.0</ele><time>2026-05-03T14:25:08.972Z</time></trkpt><trkpt lat="45.89177494718649" lon="11.349396827902144"><ele>365.0</ele><time>2026-05-03T14:25:09.972Z</time></trkpt><trkpt lat="45.89173730681529" lon="11.349595218372249"><ele>366.25</ele><time>2026-05-03T14:25:10.972Z</time></trkpt><trkpt lat="45.8916910073827" lon="11.349779541804445"><ele>367.5</ele><time>2026-05-03T14:25:11.972Z</time></trkpt><trkpt lat="45.89164210359082" lon="11.3499557194254"><ele>368.75</ele><time>2026-05-03T14:25:12.972Z</time></trkpt><trkpt lat="45.89159871772159" lon="11.350116965462956"><ele>370.0</ele><time>2026-05-03T14:25:13.972Z</time></trkpt><trkpt lat="45.891553799052716" lon="11.350265302258816"><ele>370.0</ele><time>2026-05-03T14:25:14.972Z</time></trkpt><trkpt lat="45.89150571433953" lon="11.35039990494525"><ele>370.0</ele><time>2026-05-03T14:25:15.972Z</time></trkpt><trkpt lat="45.88457334866399" lon="11.355717450090715"><ele>365.0</ele><time>2026-05-03T14:26:16.971Z</time></trkpt><trkpt lat="45.88441375582569" lon="11.35572445473728"><ele>360.0</ele><time>2026-05-03T14:26:17.971Z</time></trkpt><trkpt lat="45.88425250313464" lon="11.355731920234343"><ele>355.0</ele><time>2026-05-03T14:26:18.971Z</time></trkpt><trkpt lat="45.88409222555242" lon="11.355744343562742"><ele>354.66666666666663</ele><time>2026-05-03T14:26:19.971Z</time></trkpt><trkpt lat="45.883926326474906" lon="11.355761697474398"><ele>354.3333333333333</ele><time>2026-05-03T14:26:20.971Z</time></trkpt><trkpt lat="45.883748667199704" lon="11.355779525608671"><ele>354.0</ele><time>2026-05-03T14:26:21.971Z</time></trkpt><trkpt lat="45.88356959039896" lon="11.355799091328128"><ele>355.0</ele><time>2026-05-03T14:26:22.971Z</time></trkpt><trkpt lat="45.883400549933704" lon="11.355820608811483"><ele>356.0</ele><time>2026-05-03T14:26:23.971Z</time></trkpt><trkpt lat="45.883241501680565" lon="11.355837990740428"><ele>357.0</ele><time>2026-05-03T14:26:24.971Z</time></trkpt><trkpt lat="45.883073664474466" lon="11.355869584967609"><ele>357.0</ele><time>2026-05-03T14:26:25.971Z</time></trkpt><trkpt lat="45.88290256366437" lon="11.355900170055603"><ele>357.0</ele><time>2026-05-03T14:26:26.971Z</time></trkpt><trkpt lat="45.88273185855113" lon="11.355945118159218"><ele>357.0</ele><time>2026-05-03T14:26:27.971Z</time></trkpt><trkpt lat="45.88256864732759" lon="11.356006499469787"><ele>357.3333333333333</ele><time>2026-05-03T14:26:28.971Z</time></trkpt><trkpt lat="45.88240944370943" lon="11.356083300932324"><ele>357.66666666666663</ele><time>2026-05-03T14:26:29.971Z</time></trkpt><trkpt lat="45.882250913556256" lon="11.356150824581936"><ele>358.0</ele><time>2026-05-03T14:26:30.971Z</time></trkpt><trkpt lat="45.88208669449505" lon="11.356225048823568"><ele>358.0</ele><time>2026-05-03T14:26:31.972Z</time></trkpt><trkpt lat="45.881922085825316" lon="11.356305653017928"><ele>358.0</ele><time>2026-05-03T14:26:32.973Z</time></trkpt><trkpt lat="45.881758781527665" lon="11.356400330825181"><ele>358.0</ele><time>2026-05-03T14:26:33.973Z</time></trkpt><trkpt lat="45.881604503989294" lon="11.356502169394922"><ele>354.3333333333333</ele><time>2026-05-03T14:26:34.973Z</time></trkpt><trkpt lat="45.88145072137891" lon="11.356623198912075"><ele>350.6666666666667</ele><time>2026-05-03T14:26:35.972Z</time></trkpt><trkpt lat="45.8813015315415" lon="11.356752678356738"><ele>347.0</ele><time>2026-05-03T14:26:36.972Z</time></trkpt><trkpt lat="45.8811549003422" lon="11.356898464119867"><ele>347.0</ele><time>2026-05-03T14:26:37.972Z</time></trkpt><trkpt lat="45.88102059525406" lon="11.357060313815493"><ele>347.0</ele><time>2026-05-03T14:26:38.973Z</time></trkpt><trkpt lat="45.88088876850621" lon="11.35723032236198"><ele>347.0</ele><time>2026-05-03T14:26:39.973Z</time></trkpt><trkpt lat="45.88077206083502" lon="11.357398458722615"><ele>347.0</ele><time>2026-05-03T14:26:40.972Z</time></trkpt><trkpt lat="45.88065570209018" lon="11.357561569212873"><ele>347.0</ele><time>2026-05-03T14:26:41.972Z</time></trkpt><trkpt lat="45.88053353152179" lon="11.357709043415095"><ele>347.0</ele><time>2026-05-03T14:26:42.972Z</time></trkpt><trkpt lat="45.88041395925962" lon="11.357849211770256"><ele>347.0</ele><time>2026-05-03T14:26:43.972Z</time></trkpt><trkpt lat="45.88029734700286" lon="11.357987983734377"><ele>347.0</ele><time>2026-05-03T14:26:44.973Z</time></trkpt><trkpt lat="45.880181275023325" lon="11.358125178110322"><ele>347.0</ele><time>2026-05-03T14:26:45.973Z</time></trkpt><trkpt lat="45.88005401678622" lon="11.358249783790681"><ele>346.6666666666667</ele><time>2026-05-03T14:26:46.972Z</time></trkpt><trkpt lat="45.87991266883504" lon="11.35834608995574"><ele>346.3333333333333</ele><time>2026-05-03T14:26:47.972Z</time></trkpt><trkpt lat="45.87974650061709" lon="11.35843785309452"><ele>346.0</ele><time>2026-05-03T14:26:48.972Z</time></trkpt><trkpt lat="45.87956258946537" lon="11.35853986137088"><ele>346.0</ele><time>2026-05-03T14:26:49.972Z</time></trkpt><trkpt lat="45.87937442918099" lon="11.358646854947407"><ele>346.0</ele><time>2026-05-03T14:26:50.972Z</time></trkpt><trkpt lat="45.87920131558568" lon="11.358743618072399"><ele>346.0</ele><time>2026-05-03T14:26:51.972Z</time></trkpt><trkpt lat="45.87903814791563" lon="11.358818475033935"><ele>345.25</ele><time>2026-05-03T14:26:52.972Z</time></trkpt><trkpt lat="45.87888536374112" lon="11.358882481179815"><ele>344.5</ele><time>2026-05-03T14:26:53.972Z</time></trkpt><trkpt lat="45.87874758863911" lon="11.358931756011076"><ele>343.75</ele><time>2026-05-03T14:26:54.972Z</time></trkpt><trkpt lat="45.87861476429803" lon="11.358993850732094"><ele>343.0</ele><time>2026-05-03T14:26:55.972Z</time></trkpt><trkpt lat="45.8784885534197" lon="11.35904743585897"><ele>344.5</ele><time>2026-05-03T14:26:56.972Z</time></trkpt><trkpt lat="45.8783572755882" lon="11.359102185316315"><ele>346.0</ele><time>2026-05-03T14:26:57.972Z</time></trkpt><trkpt lat="45.87821767910557" lon="11.359157346849749"><ele>347.5</ele><time>2026-05-03T14:26:58.972Z</time></trkpt><trkpt lat="45.87807560636521" lon="11.359210872015916"><ele>349.0</ele><time>2026-05-03T14:26:59.972Z</time></trkpt><trkpt lat="45.87792580106245" lon="11.35927607878653"><ele>349.0</ele><time>2026-05-03T14:27:00.972Z</time></trkpt><trkpt lat="45.877767324413135" lon="11.359338098205399"><ele>349.0</ele><time>2026-05-03T14:27:01.972Z</time></trkpt><trkpt lat="45.87760604411688" lon="11.359403503674644"><ele>349.0</ele><time>2026-05-03T14:27:02.972Z</time></trkpt><trkpt lat="45.87744521309941" lon="11.35942510658616"><ele>349.66666666666663</ele><time>2026-05-03T14:27:03.972Z</time></trkpt><trkpt lat="45.87728116585008" lon="11.359449094763214"><ele>350.3333333333333</ele><time>2026-05-03T14:27:04.972Z</time></trkpt><trkpt lat="45.87711240169731" lon="11.359484737123157"><ele>351.0</ele><time>2026-05-03T14:27:05.972Z</time></trkpt><trkpt lat="45.876939820684285" lon="11.359495308374312"><ele>351.0</ele><time>2026-05-03T14:27:06.972Z</time></trkpt><trkpt lat="45.876780235978615" lon="11.35950504067107"><ele>351.0</ele><time>2026-05-03T14:27:07.972Z</time></trkpt><trkpt lat="45.87663037547408" lon="11.35952234811877"><ele>351.0</ele><time>2026-05-03T14:27:08.972Z</time></trkpt><trkpt lat="45.876486657515706" lon="11.35953957453633"><ele>352.6666666666667</ele><time>2026-05-03T14:27:09.972Z</time></trkpt><trkpt lat="45.876339877234436" lon="11.35954384099407"><ele>354.33333333333337</ele><time>2026-05-03T14:27:10.972Z</time></trkpt><trkpt lat="45.87619148198869" lon="11.359558470437818"><ele>356.0</ele><time>2026-05-03T14:27:11.972Z</time></trkpt><trkpt lat="45.87603654818759" lon="11.359577971858656"><ele>357.33333333333337</ele><time>2026-05-03T14:27:12.972Z</time></trkpt><trkpt lat="45.87587901843831" lon="11.359591570639838"><ele>358.6666666666667</ele><time>2026-05-03T14:27:13.972Z</time></trkpt><trkpt lat="45.87571159741903" lon="11.35960663693678"><ele>360.0</ele><time>2026-05-03T14:27:14.972Z</time></trkpt><trkpt lat="45.87553658530166" lon="11.359622921293889"><ele>334.0</ele><time>2026-05-03T14:27:15.972Z</time></trkpt><trkpt lat="45.86683842791859" lon="11.361338125617163"><ele>333.66666666666663</ele><time>2026-05-03T14:28:16.972Z</time></trkpt><trkpt lat="45.86665756008718" lon="11.361325660601441"><ele>333.3333333333333</ele><time>2026-05-03T14:28:17.972Z</time></trkpt><trkpt lat="45.86647186346725" lon="11.361314550135639"><ele>333.0</ele><time>2026-05-03T14:28:18.972Z</time></trkpt><trkpt lat="45.86628263277214" lon="11.361305809757317"><ele>333.0</ele><time>2026-05-03T14:28:19.972Z</time></trkpt><trkpt lat="45.86609096702142" lon="11.361311004177486"><ele>333.0</ele><time>2026-05-03T14:28:20.972Z</time></trkpt><trkpt lat="45.865915073613934" lon="11.361280913068477"><ele>333.0</ele><time>2026-05-03T14:28:21.972Z</time></trkpt><trkpt lat="45.86574432296592" lon="11.36127200289779"><ele>333.3333333333333</ele><time>2026-05-03T14:28:22.972Z</time></trkpt><trkpt lat="45.865568784741" lon="11.36128632094389"><ele>333.66666666666663</ele><time>2026-05-03T14:28:23.972Z</time></trkpt><trkpt lat="45.8653900715049" lon="11.361273590116227"><ele>334.0</ele><time>2026-05-03T14:28:24.972Z</time></trkpt><trkpt lat="45.86520880678202" lon="11.361260085432864"><ele>333.3333333333333</ele><time>2026-05-03T14:28:25.972Z</time></trkpt><trkpt lat="45.865024232389" lon="11.361247964917816"><ele>332.6666666666667</ele><time>2026-05-03T14:28:26.972Z</time></trkpt><trkpt lat="45.86483560164629" lon="11.361240480262461"><ele>332.0</ele><time>2026-05-03T14:28:27.972Z</time></trkpt><trkpt lat="45.86464166376217" lon="11.361230930560561"><ele>332.0</ele><time>2026-05-03T14:28:28.972Z</time></trkpt><trkpt lat="45.864442673134036" lon="11.361214069865767"><ele>332.0</ele><time>2026-05-03T14:28:29.972Z</time></trkpt><trkpt lat="45.864236116458805" lon="11.361197936770957"><ele>332.0</ele><time>2026-05-03T14:28:30.972Z</time></trkpt><trkpt lat="45.86402984713535" lon="11.361180195228988"><ele>333.33333333333337</ele><time>2026-05-03T14:28:31.972Z</time></trkpt><trkpt lat="45.86383672998608" lon="11.361171952050839"><ele>334.6666666666667</ele><time>2026-05-03T14:28:32.972Z</time></trkpt><trkpt lat="45.863650756590985" lon="11.361169042442903"><ele>336.0</ele><time>2026-05-03T14:28:33.972Z</time></trkpt><trkpt lat="45.86346394392713" lon="11.361162517353186"><ele>336.0</ele><time>2026-05-03T14:28:34.972Z</time></trkpt><trkpt lat="45.86327364710353" lon="11.361178955773584"><ele>336.0</ele><time>2026-05-03T14:28:35.972Z</time></trkpt><trkpt lat="45.863087866875375" lon="11.36120952351126"><ele>336.0</ele><time>2026-05-03T14:28:36.972Z</time></trkpt><trkpt lat="45.862894160040085" lon="11.361249744151769"><ele>336.0</ele><time>2026-05-03T14:28:37.973Z</time></trkpt><trkpt lat="45.86268991416228" lon="11.361286150016117"><ele>336.0</ele><time>2026-05-03T14:28:38.972Z</time></trkpt><trkpt lat="45.86247679813491" lon="11.361319083084874"><ele>336.0</ele><time>2026-05-03T14:28:39.972Z</time></trkpt><trkpt lat="45.862254448575605" lon="11.361348602787915"><ele>331.3333333333333</ele><time>2026-05-03T14:28:40.972Z</time></trkpt><trkpt lat="45.862037465918135" lon="11.361372180550333"><ele>326.66666666666663</ele><time>2026-05-03T14:28:41.972Z</time></trkpt><trkpt lat="45.86183540082019" lon="11.361392223291505"><ele>322.0</ele><time>2026-05-03T14:28:42.972Z</time></trkpt><trkpt lat="45.86163675545604" lon="11.361414529059847"><ele>322.0</ele><time>2026-05-03T14:28:43.972Z</time></trkpt><trkpt lat="45.86145421559879" lon="11.361423223060157"><ele>322.0</ele><time>2026-05-03T14:28:44.972Z</time></trkpt><trkpt lat="45.86127349410774" lon="11.361450412857796"><ele>322.0</ele><time>2026-05-03T14:28:45.972Z</time></trkpt><trkpt lat="45.86109711414005" lon="11.361464402519095"><ele>321.3333333333333</ele><time>2026-05-03T14:28:46.972Z</time></trkpt><trkpt lat="45.860919560091496" lon="11.361452394760649"><ele>320.6666666666667</ele><time>2026-05-03T14:28:47.972Z</time></trkpt><trkpt lat="45.86074395705663" lon="11.361462395100357"><ele>320.0</ele><time>2026-05-03T14:28:48.972Z</time></trkpt><trkpt lat="45.86057953605938" lon="11.361469933245662"><ele>320.0</ele><time>2026-05-03T14:28:49.973Z</time></trkpt><trkpt lat="45.86041400705192" lon="11.361478631779452"><ele>320.0</ele><time>2026-05-03T14:28:50.972Z</time></trkpt><trkpt lat="45.860244278733084" lon="11.361491329042755"><ele>320.0</ele><time>2026-05-03T14:28:51.972Z</time></trkpt><trkpt lat="45.8600764267227" lon="11.361505726032377"><ele>319.33333333333337</ele><time>2026-05-03T14:28:52.972Z</time></trkpt><trkpt lat="45.85991708651939" lon="11.361515971094144"><ele>318.6666666666667</ele><time>2026-05-03T14:28:53.972Z</time></trkpt><trkpt lat="45.85975445740747" lon="11.361527064652005"><ele>318.0</ele><time>2026-05-03T14:28:54.972Z</time></trkpt><trkpt lat="45.85959267103141" lon="11.361537557281643"><ele>318.0</ele><time>2026-05-03T14:28:55.972Z</time></trkpt><trkpt lat="45.85942854676617" lon="11.361553407233634"><ele>318.0</ele><time>2026-05-03T14:28:56.972Z</time></trkpt><trkpt lat="45.859270423545084" lon="11.361565415399074"><ele>318.0</ele><time>2026-05-03T14:28:57.972Z</time></trkpt><trkpt lat="45.8591232416951" lon="11.361572813839887"><ele>317.75</ele><time>2026-05-03T14:28:58.972Z</time></trkpt><trkpt lat="45.858981561410815" lon="11.361580954284042"><ele>317.5</ele><time>2026-05-03T14:28:59.972Z</time></trkpt><trkpt lat="45.858844515236285" lon="11.36159006318136"><ele>317.25</ele><time>2026-05-03T14:29:00.972Z</time></trkpt><trkpt lat="45.85871316688975" lon="11.361599140934302"><ele>317.0</ele><time>2026-05-03T14:29:01.972Z</time></trkpt><trkpt lat="45.85858634808387" lon="11.36160826705629"><ele>317.0</ele><time>2026-05-03T14:29:02.972Z</time></trkpt><trkpt lat="45.85846304307538" lon="11.36162161111929"><ele>317.0</ele><time>2026-05-03T14:29:03.972Z</time></trkpt><trkpt lat="45.858338206110396" lon="11.361634511078678"><ele>317.0</ele><time>2026-05-03T14:29:04.972Z</time></trkpt><trkpt lat="45.85822128864787" lon="11.361637720512814"><ele>317.0</ele><time>2026-05-03T14:29:05.972Z</time></trkpt><trkpt lat="45.858096571915176" lon="11.361646470742183"><ele>317.0</ele><time>2026-05-03T14:29:06.972Z</time></trkpt><trkpt lat="45.857980608247985" lon="11.361654840212248"><ele>317.0</ele><time>2026-05-03T14:29:07.972Z</time></trkpt><trkpt lat="45.85786030565365" lon="11.36166756746138"><ele>317.0</ele><time>2026-05-03T14:29:08.972Z</time></trkpt><trkpt lat="45.85773432326231" lon="11.361680400057512"><ele>317.0</ele><time>2026-05-03T14:29:09.972Z</time></trkpt><trkpt lat="45.8576016801104" lon="11.361692127438845"><ele>317.0</ele><time>2026-05-03T14:29:10.972Z</time></trkpt><trkpt lat="45.8574639019339" lon="11.36170368286838"><ele>317.0</ele><time>2026-05-03T14:29:11.972Z</time></trkpt><trkpt lat="45.857324802719546" lon="11.361715377024225"><ele>317.0</ele><time>2026-05-03T14:29:12.972Z</time></trkpt><trkpt lat="45.85719973176279" lon="11.361715847989904"><ele>317.0</ele><time>2026-05-03T14:29:13.972Z</time></trkpt><trkpt lat="45.857079202283046" lon="11.36171495536132"><ele>317.0</ele><time>2026-05-03T14:29:14.972Z</time></trkpt><trkpt lat="45.856963468915836" lon="11.361705111236073"><ele>317.0</ele><time>2026-05-03T14:29:15.972Z</time></trkpt><trkpt lat="45.847053472221695" lon="11.366224913183899"><ele>320.33333333333337</ele><time>2026-05-03T14:30:16.972Z</time></trkpt><trkpt lat="45.846899085633005" lon="11.36624713633299"><ele>323.6666666666667</ele><time>2026-05-03T14:30:17.972Z</time></trkpt><trkpt lat="45.84674658679266" lon="11.366268823717025"><ele>327.0</ele><time>2026-05-03T14:30:18.971Z</time></trkpt><trkpt lat="45.84659400223151" lon="11.366312567103542"><ele>330.3333333333333</ele><time>2026-05-03T14:30:19.971Z</time></trkpt><trkpt lat="45.846441593746746" lon="11.366341765605155"><ele>333.66666666666663</ele><time>2026-05-03T14:30:20.971Z</time></trkpt><trkpt lat="45.84627972966152" lon="11.366384663027125"><ele>337.0</ele><time>2026-05-03T14:30:21.971Z</time></trkpt><trkpt lat="45.846121082005574" lon="11.366431619833978"><ele>330.66666666666663</ele><time>2026-05-03T14:30:22.971Z</time></trkpt><trkpt lat="45.84596079547373" lon="11.366495683106749"><ele>324.3333333333333</ele><time>2026-05-03T14:30:23.971Z</time></trkpt><trkpt lat="45.84579890135078" lon="11.366582532088508"><ele>318.0</ele><time>2026-05-03T14:30:24.971Z</time></trkpt><trkpt lat="45.845638641105424" lon="11.366657640348022"><ele>318.0</ele><time>2026-05-03T14:30:25.971Z</time></trkpt><trkpt lat="45.84548686566822" lon="11.36669017934772"><ele>318.0</ele><time>2026-05-03T14:30:26.971Z</time></trkpt><trkpt lat="45.845341134741034" lon="11.366724622617292"><ele>318.0</ele><time>2026-05-03T14:30:27.971Z</time></trkpt><trkpt lat="45.845198565158235" lon="11.366754083730727"><ele>318.0</ele><time>2026-05-03T14:30:28.971Z</time></trkpt><trkpt lat="45.84506736176571" lon="11.366793434033609"><ele>319.0</ele><time>2026-05-03T14:30:29.971Z</time></trkpt><trkpt lat="45.84492939397839" lon="11.366820089166241"><ele>320.0</ele><time>2026-05-03T14:30:30.971Z</time></trkpt><trkpt lat="45.844798940207546" lon="11.366842826683778"><ele>321.0</ele><time>2026-05-03T14:30:31.971Z</time></trkpt><trkpt lat="45.84466661102631" lon="11.36686631511113"><ele>322.0</ele><time>2026-05-03T14:30:32.971Z</time></trkpt><trkpt lat="45.84453175487921" lon="11.366861943801547"><ele>322.0</ele><time>2026-05-03T14:30:33.971Z</time></trkpt><trkpt lat="45.84439605536242" lon="11.366897720351114"><ele>322.0</ele><time>2026-05-03T14:30:34.971Z</time></trkpt><trkpt lat="45.844254055426" lon="11.366916360886666"><ele>322.0</ele><time>2026-05-03T14:30:35.971Z</time></trkpt><trkpt lat="45.844109346069764" lon="11.36693615699201"><ele>322.0</ele><time>2026-05-03T14:30:36.971Z</time></trkpt><trkpt lat="45.843957459972174" lon="11.366951973305156"><ele>325.0</ele><time>2026-05-03T14:30:37.971Z</time></trkpt><trkpt lat="45.84379572828543" lon="11.366988953833056"><ele>328.0</ele><time>2026-05-03T14:30:38.971Z</time></trkpt><trkpt lat="45.843628535186596" lon="11.367024716530862"><ele>331.0</ele><time>2026-05-03T14:30:39.971Z</time></trkpt><trkpt lat="45.84346988152579" lon="11.367052157988557"><ele>332.3333333333333</ele><time>2026-05-03T14:30:40.971Z</time></trkpt><trkpt lat="45.84330891154678" lon="11.367092028097485"><ele>333.6666666666667</ele><time>2026-05-03T14:30:41.971Z</time></trkpt><trkpt lat="45.843148831715965" lon="11.367148610058383"><ele>335.0</ele><time>2026-05-03T14:30:42.971Z</time></trkpt><trkpt lat="45.8429949969154" lon="11.36723224549443"><ele>330.0</ele><time>2026-05-03T14:30:43.972Z</time></trkpt><trkpt lat="45.842846365546144" lon="11.367328278232115"><ele>325.0</ele><time>2026-05-03T14:30:44.972Z</time></trkpt><trkpt lat="45.84270813576916" lon="11.367424682467412"><ele>320.0</ele><time>2026-05-03T14:30:45.972Z</time></trkpt><trkpt lat="45.84256563634959" lon="11.367510852320395"><ele>320.0</ele><time>2026-05-03T14:30:46.973Z</time></trkpt><trkpt lat="45.84243452420306" lon="11.36759983746801"><ele>320.0</ele><time>2026-05-03T14:30:47.972Z</time></trkpt><trkpt lat="45.8423090335887" lon="11.367696981948948"><ele>320.0</ele><time>2026-05-03T14:30:48.972Z</time></trkpt><trkpt lat="45.84218396350999" lon="11.36780214529592"><ele>320.0</ele><time>2026-05-03T14:30:49.972Z</time></trkpt><trkpt lat="45.842052120624615" lon="11.367917645558512"><ele>315.6666666666667</ele><time>2026-05-03T14:30:50.972Z</time></trkpt><trkpt lat="45.841926708981234" lon="11.368034823644836"><ele>311.3333333333333</ele><time>2026-05-03T14:30:51.972Z</time></trkpt><trkpt lat="45.84180100675174" lon="11.368149898600448"><ele>307.0</ele><time>2026-05-03T14:30:52.972Z</time></trkpt><trkpt lat="45.84166996101031" lon="11.3682695163381"><ele>307.0</ele><time>2026-05-03T14:30:53.972Z</time></trkpt><trkpt lat="45.841544755401074" lon="11.36838907229068"><ele>307.0</ele><time>2026-05-03T14:30:54.972Z</time></trkpt><trkpt lat="45.84142219152197" lon="11.368508545195237"><ele>307.0</ele><time>2026-05-03T14:30:55.972Z</time></trkpt><trkpt lat="45.84129355270185" lon="11.368624270542147"><ele>307.0</ele><time>2026-05-03T14:30:56.972Z</time></trkpt><trkpt lat="45.841164580673656" lon="11.368740579771513"><ele>307.0</ele><time>2026-05-03T14:30:57.972Z</time></trkpt><trkpt lat="45.84103346550656" lon="11.368861284328613"><ele>307.0</ele><time>2026-05-03T14:30:58.972Z</time></trkpt><trkpt lat="45.84090220195454" lon="11.368987016714524"><ele>306.0</ele><time>2026-05-03T14:30:59.972Z</time></trkpt><trkpt lat="45.84077338059884" lon="11.369098652590852"><ele>305.0</ele><time>2026-05-03T14:31:00.972Z</time></trkpt><trkpt lat="45.84066595177128" lon="11.369236648685764"><ele>304.0</ele><time>2026-05-03T14:31:01.972Z</time></trkpt><trkpt lat="45.840555123945926" lon="11.369374660508859"><ele>303.0</ele><time>2026-05-03T14:31:02.972Z</time></trkpt><trkpt lat="45.84044460796149" lon="11.369509646334738"><ele>303.0</ele><time>2026-05-03T14:31:03.972Z</time></trkpt><trkpt lat="45.84033707327137" lon="11.369633504406771"><ele>303.0</ele><time>2026-05-03T14:31:04.972Z</time></trkpt><trkpt lat="45.84022929603899" lon="11.36974811059327"><ele>303.0</ele><time>2026-05-03T14:31:05.972Z</time></trkpt><trkpt lat="45.84011894008481" lon="11.369845785423125"><ele>303.0</ele><time>2026-05-03T14:31:06.972Z</time></trkpt><trkpt lat="45.84000944032732" lon="11.369930051526623"><ele>302.75</ele><time>2026-05-03T14:31:07.972Z</time></trkpt><trkpt lat="45.83990166355888" lon="11.370004531964181"><ele>302.5</ele><time>2026-05-03T14:31:08.972Z</time></trkpt><trkpt lat="45.83978548207071" lon="11.370085863840867"><ele>302.25</ele><time>2026-05-03T14:31:09.972Z</time></trkpt><trkpt lat="45.83965821413659" lon="11.370161069504107"><ele>302.0</ele><time>2026-05-03T14:31:10.972Z</time></trkpt><trkpt lat="45.83952475043944" lon="11.370239436214101"><ele>302.0</ele><time>2026-05-03T14:31:11.972Z</time></trkpt><trkpt lat="45.83938603775725" lon="11.370302220936797"><ele>302.0</ele><time>2026-05-03T14:31:12.972Z</time></trkpt><trkpt lat="45.83923519686394" lon="11.370366568320824"><ele>302.0</ele><time>2026-05-03T14:31:13.972Z</time></trkpt><trkpt lat="45.83907621087769" lon="11.370401570859707"><ele>313.5</ele><time>2026-05-03T14:31:14.972Z</time></trkpt><trkpt lat="45.838905728398046" lon="11.370418846594765"><ele>325.0</ele><time>2026-05-03T14:31:15.972Z</time></trkpt><trkpt lat="45.830018253524536" lon="11.368715623420517"><ele>338.66666666666663</ele><time>2026-05-03T14:32:16.972Z</time></trkpt><trkpt lat="45.82989052409288" lon="11.368651352156188"><ele>352.3333333333333</ele><time>2026-05-03T14:32:17.972Z</time></trkpt><trkpt lat="45.82974042601187" lon="11.36866346315209"><ele>366.0</ele><time>2026-05-03T14:32:18.972Z</time></trkpt><trkpt lat="45.82957716342076" lon="11.36870073627561"><ele>366.0</ele><time>2026-05-03T14:32:19.972Z</time></trkpt><trkpt lat="45.82941006887532" lon="11.36875594834964"><ele>366.0</ele><time>2026-05-03T14:32:20.972Z</time></trkpt><trkpt lat="45.82924862245911" lon="11.368798846317096"><ele>366.0</ele><time>2026-05-03T14:32:21.972Z</time></trkpt><trkpt lat="45.82910534066378" lon="11.368827486769586"><ele>364.0</ele><time>2026-05-03T14:32:22.972Z</time></trkpt><trkpt lat="45.82896748625748" lon="11.368855620632079"><ele>362.0</ele><time>2026-05-03T14:32:23.972Z</time></trkpt><trkpt lat="45.82884552845764" lon="11.368855179576824"><ele>360.0</ele><time>2026-05-03T14:32:24.972Z</time></trkpt><trkpt lat="45.82870940853666" lon="11.368841551012544"><ele>358.0</ele><time>2026-05-03T14:32:25.971Z</time></trkpt><trkpt lat="45.82856487299149" lon="11.368829847589863"><ele>357.3333333333333</ele><time>2026-05-03T14:32:26.971Z</time></trkpt><trkpt lat="45.82841006005932" lon="11.368816533390003"><ele>356.6666666666667</ele><time>2026-05-03T14:32:27.971Z</time></trkpt><trkpt lat="45.82824705386438" lon="11.368804719459293"><ele>356.0</ele><time>2026-05-03T14:32:28.971Z</time></trkpt><trkpt lat="45.828087848488934" lon="11.368803316695573"><ele>356.0</ele><time>2026-05-03T14:32:29.971Z</time></trkpt><trkpt lat="45.82793350741604" lon="11.368806145407637"><ele>356.0</ele><time>2026-05-03T14:32:30.971Z</time></trkpt><trkpt lat="45.827790768077854" lon="11.368813935029282"><ele>356.0</ele><time>2026-05-03T14:32:31.971Z</time></trkpt><trkpt lat="45.82765655694184" lon="11.368821061452127"><ele>356.0</ele><time>2026-05-03T14:32:32.971Z</time></trkpt><trkpt lat="45.82753541907951" lon="11.368819963998675"><ele>354.0</ele><time>2026-05-03T14:32:33.971Z</time></trkpt><trkpt lat="45.82741552334491" lon="11.368810875959435"><ele>352.0</ele><time>2026-05-03T14:32:34.971Z</time></trkpt><trkpt lat="45.82729125009467" lon="11.368802254392287"><ele>350.0</ele><time>2026-05-03T14:32:35.971Z</time></trkpt><trkpt lat="45.82716165579809" lon="11.368787727845627"><ele>348.0</ele><time>2026-05-03T14:32:36.971Z</time></trkpt><trkpt lat="45.827026096924584" lon="11.368764713773118"><ele>348.0</ele><time>2026-05-03T14:32:37.971Z</time></trkpt><trkpt lat="45.826889574485065" lon="11.368753853159435"><ele>348.0</ele><time>2026-05-03T14:32:38.971Z</time></trkpt><trkpt lat="45.826757673288824" lon="11.368703565853439"><ele>348.0</ele><time>2026-05-03T14:32:39.971Z</time></trkpt><trkpt lat="45.826624799753546" lon="11.368649200824192"><ele>348.0</ele><time>2026-05-03T14:32:40.971Z</time></trkpt><trkpt lat="45.82648602831538" lon="11.368588773435945"><ele>344.0</ele><time>2026-05-03T14:32:41.971Z</time></trkpt><trkpt lat="45.8263496049364" lon="11.368519110034871"><ele>340.0</ele><time>2026-05-03T14:32:42.971Z</time></trkpt><trkpt lat="45.82622524043311" lon="11.36844284084392"><ele>336.0</ele><time>2026-05-03T14:32:43.971Z</time></trkpt><trkpt lat="45.82610175694783" lon="11.36837130976955"><ele>332.0</ele><time>2026-05-03T14:32:44.971Z</time></trkpt><trkpt lat="45.82598081422063" lon="11.368304582219645"><ele>328.0</ele><time>2026-05-03T14:32:45.971Z</time></trkpt><trkpt lat="45.82586138793999" lon="11.368239755796488"><ele>324.0</ele><time>2026-05-03T14:32:46.971Z</time></trkpt><trkpt lat="45.825742061866855" lon="11.368169799281608"><ele>320.0</ele><time>2026-05-03T14:32:47.971Z</time></trkpt><trkpt lat="45.82562030265692" lon="11.368097239238807"><ele>316.0</ele><time>2026-05-03T14:32:48.971Z</time></trkpt><trkpt lat="45.82549449817305" lon="11.368027341699378"><ele>318.0</ele><time>2026-05-03T14:32:49.972Z</time></trkpt><trkpt lat="45.82536782977694" lon="11.367957960669687"><ele>320.0</ele><time>2026-05-03T14:32:50.972Z</time></trkpt><trkpt lat="45.82524455877207" lon="11.367883736002415"><ele>322.0</ele><time>2026-05-03T14:32:51.972Z</time></trkpt><trkpt lat="45.82512980637271" lon="11.367809253955906"><ele>324.0</ele><time>2026-05-03T14:32:52.972Z</time></trkpt><trkpt lat="45.82501162635081" lon="11.367740473474022"><ele>324.0</ele><time>2026-05-03T14:32:53.972Z</time></trkpt><trkpt lat="45.824891523639565" lon="11.367673414738691"><ele>324.0</ele><time>2026-05-03T14:32:54.972Z</time></trkpt><trkpt lat="45.824770328424236" lon="11.36760541864362"><ele>324.0</ele><time>2026-05-03T14:32:55.972Z</time></trkpt><trkpt lat="45.82465088019562" lon="11.367532282626787"><ele>324.0</ele><time>2026-05-03T14:32:56.971Z</time></trkpt><trkpt lat="45.82453249968314" lon="11.367454714942845"><ele>324.0</ele><time>2026-05-03T14:32:57.971Z</time></trkpt><trkpt lat="45.82441251559468" lon="11.367375435041629"><ele>324.0</ele><time>2026-05-03T14:32:58.972Z</time></trkpt><trkpt lat="45.82429479171862" lon="11.367288787133905"><ele>324.0</ele><time>2026-05-03T14:32:59.971Z</time></trkpt><trkpt lat="45.82417238006319" lon="11.367198734151831"><ele>324.0</ele><time>2026-05-03T14:33:00.971Z</time></trkpt><trkpt lat="45.82404773625647" lon="11.36709934394821"><ele>325.5</ele><time>2026-05-03T14:33:01.973Z</time></trkpt><trkpt lat="45.82391822122872" lon="11.367000316730202"><ele>327.0</ele><time>2026-05-03T14:33:02.972Z</time></trkpt><trkpt lat="45.8237896088806" lon="11.366893219576447"><ele>328.5</ele><time>2026-05-03T14:33:03.972Z</time></trkpt><trkpt lat="45.82365888137117" lon="11.366782332345055"><ele>330.0</ele><time>2026-05-03T14:33:04.972Z</time></trkpt><trkpt lat="45.82352555084316" lon="11.3666707508965"><ele>329.5</ele><time>2026-05-03T14:33:05.972Z</time></trkpt><trkpt lat="45.823389660533984" lon="11.366553708465595"><ele>329.0</ele><time>2026-05-03T14:33:06.972Z</time></trkpt><trkpt lat="45.82325846378193" lon="11.366452718087267"><ele>328.5</ele><time>2026-05-03T14:33:07.972Z</time></trkpt><trkpt lat="45.823139867557266" lon="11.366363301773184"><ele>328.0</ele><time>2026-05-03T14:33:08.972Z</time></trkpt><trkpt lat="45.82302336529137" lon="11.366281562369812"><ele>328.5</ele><time>2026-05-03T14:33:09.972Z</time></trkpt><trkpt lat="45.822911996495414" lon="11.366203192308124"><ele>329.0</ele><time>2026-05-03T14:33:10.972Z</time></trkpt><trkpt lat="45.82280480494847" lon="11.366125775319794"><ele>329.5</ele><time>2026-05-03T14:33:11.972Z</time></trkpt><trkpt lat="45.82269961885068" lon="11.366057721086841"><ele>330.0</ele><time>2026-05-03T14:33:12.972Z</time></trkpt><trkpt lat="45.822588032095254" lon="11.365985679713642"><ele>330.0</ele><time>2026-05-03T14:33:13.972Z</time></trkpt><trkpt lat="45.822466975687504" lon="11.36590821500484"><ele>330.0</ele><time>2026-05-03T14:33:14.972Z</time></trkpt><trkpt lat="45.82233964032739" lon="11.365828835246994"><ele>330.0</ele><time>2026-05-03T14:33:15.972Z</time></trkpt><trkpt lat="45.81239125881303" lon="11.36253792733695"><ele>324.6666666666667</ele><time>2026-05-03T14:34:16.971Z</time></trkpt><trkpt lat="45.81222606290866" lon="11.362454989665084"><ele>319.33333333333337</ele><time>2026-05-03T14:34:17.971Z</time></trkpt><trkpt lat="45.8120607241658" lon="11.362369944449707"><ele>314.0</ele><time>2026-05-03T14:34:18.971Z</time></trkpt><trkpt lat="45.81189416810274" lon="11.36228508246587"><ele>314.6666666666667</ele><time>2026-05-03T14:34:19.971Z</time></trkpt><trkpt lat="45.81173553568233" lon="11.362174362618633"><ele>315.3333333333333</ele><time>2026-05-03T14:34:20.971Z</time></trkpt><trkpt lat="45.81157113375887" lon="11.362090992406205"><ele>316.0</ele><time>2026-05-03T14:34:21.971Z</time></trkpt><trkpt lat="45.8114091403788" lon="11.362001316391057"><ele>316.0</ele><time>2026-05-03T14:34:22.971Z</time></trkpt><trkpt lat="45.81124984590178" lon="11.361913763448829"><ele>316.0</ele><time>2026-05-03T14:34:23.971Z</time></trkpt><trkpt lat="45.81109663669957" lon="11.361826830630052"><ele>316.0</ele><time>2026-05-03T14:34:24.971Z</time></trkpt><trkpt lat="45.81095083217797" lon="11.36173911146749"><ele>315.3333333333333</ele><time>2026-05-03T14:34:25.971Z</time></trkpt><trkpt lat="45.8108078465128" lon="11.361655501376854"><ele>314.6666666666667</ele><time>2026-05-03T14:34:26.971Z</time></trkpt><trkpt lat="45.810663550084826" lon="11.361576062473528"><ele>314.0</ele><time>2026-05-03T14:34:27.971Z</time></trkpt><trkpt lat="45.81052840623948" lon="11.361503424398718"><ele>314.0</ele><time>2026-05-03T14:34:28.971Z</time></trkpt><trkpt lat="45.81039925423376" lon="11.361436656648873"><ele>314.0</ele><time>2026-05-03T14:34:29.971Z</time></trkpt><trkpt lat="45.810262686426064" lon="11.361361873047686"><ele>314.0</ele><time>2026-05-03T14:34:30.971Z</time></trkpt><trkpt lat="45.81012579024368" lon="11.361284522500272"><ele>314.0</ele><time>2026-05-03T14:34:31.971Z</time></trkpt><trkpt lat="45.81000119693478" lon="11.36121396080176"><ele>314.0</ele><time>2026-05-03T14:34:32.971Z</time></trkpt><trkpt lat="45.809884171540205" lon="11.36114751206093"><ele>314.0</ele><time>2026-05-03T14:34:33.971Z</time></trkpt><trkpt lat="45.809767180187535" lon="11.36108224869226"><ele>314.0</ele><time>2026-05-03T14:34:34.971Z</time></trkpt><trkpt lat="45.80965548385679" lon="11.361016119624772"><ele>314.0</ele><time>2026-05-03T14:34:35.971Z</time></trkpt><trkpt lat="45.80954858253462" lon="11.360955135154168"><ele>314.0</ele><time>2026-05-03T14:34:36.971Z</time></trkpt><trkpt lat="45.8094388956447" lon="11.360895099235437"><ele>314.0</ele><time>2026-05-03T14:34:37.971Z</time></trkpt><trkpt lat="45.80932661666334" lon="11.360835162314821"><ele>314.0</ele><time>2026-05-03T14:34:38.971Z</time></trkpt><trkpt lat="45.80921154714847" lon="11.360772647228139"><ele>314.0</ele><time>2026-05-03T14:34:39.971Z</time></trkpt><trkpt lat="45.809094709419426" lon="11.360710572586507"><ele>313.75</ele><time>2026-05-03T14:34:40.971Z</time></trkpt><trkpt lat="45.80898986319511" lon="11.360649559234611"><ele>313.5</ele><time>2026-05-03T14:34:41.971Z</time></trkpt><trkpt lat="45.80889278850836" lon="11.36059060554544"><ele>313.25</ele><time>2026-05-03T14:34:42.971Z</time></trkpt><trkpt lat="45.808780336585464" lon="11.36052803212791"><ele>313.0</ele><time>2026-05-03T14:34:43.971Z</time></trkpt><trkpt lat="45.808658372103764" lon="11.360459940549456"><ele>313.0</ele><time>2026-05-03T14:34:44.971Z</time></trkpt><trkpt lat="45.808536179460724" lon="11.360390530951033"><ele>313.0</ele><time>2026-05-03T14:34:45.971Z</time></trkpt><trkpt lat="45.80840650935835" lon="11.360316704823383"><ele>313.0</ele><time>2026-05-03T14:34:46.971Z</time></trkpt><trkpt lat="45.808266847361494" lon="11.360250053614678"><ele>313.0</ele><time>2026-05-03T14:34:47.971Z</time></trkpt><trkpt lat="45.80811610985791" lon="11.360172274254364"><ele>312.0</ele><time>2026-05-03T14:34:48.971Z</time></trkpt><trkpt lat="45.80795929206863" lon="11.360090433881254"><ele>311.0</ele><time>2026-05-03T14:34:49.971Z</time></trkpt><trkpt lat="45.80779613445647" lon="11.360007931340487"><ele>310.0</ele><time>2026-05-03T14:34:50.971Z</time></trkpt><trkpt lat="45.807626034146644" lon="11.359907640220488"><ele>309.66666666666663</ele><time>2026-05-03T14:34:51.971Z</time></trkpt><trkpt lat="45.80747705727855" lon="11.359803697975352"><ele>309.3333333333333</ele><time>2026-05-03T14:34:52.971Z</time></trkpt><trkpt lat="45.807346765368244" lon="11.359707618037195"><ele>309.0</ele><time>2026-05-03T14:34:53.971Z</time></trkpt><trkpt lat="45.807218067595" lon="11.359635732894363"><ele>309.5</ele><time>2026-05-03T14:34:54.971Z</time></trkpt><trkpt lat="45.807092778163494" lon="11.35956764534091"><ele>310.0</ele><time>2026-05-03T14:34:55.972Z</time></trkpt><trkpt lat="45.80697651976758" lon="11.359508136848833"><ele>310.5</ele><time>2026-05-03T14:34:56.972Z</time></trkpt><trkpt lat="45.80686579443595" lon="11.359455875905752"><ele>311.0</ele><time>2026-05-03T14:34:57.972Z</time></trkpt><trkpt lat="45.80674106711446" lon="11.359411070523663"><ele>311.0</ele><time>2026-05-03T14:34:58.972Z</time></trkpt><trkpt lat="45.80663696800012" lon="11.35936157866474"><ele>311.0</ele><time>2026-05-03T14:34:59.972Z</time></trkpt><trkpt lat="45.806534013538275" lon="11.359320206766526"><ele>311.0</ele><time>2026-05-03T14:35:00.972Z</time></trkpt><trkpt lat="45.806434093523926" lon="11.35928541422946"><ele>311.0</ele><time>2026-05-03T14:35:01.972Z</time></trkpt><trkpt lat="45.8063351535101" lon="11.359259386110947"><ele>311.0</ele><time>2026-05-03T14:35:02.972Z</time></trkpt><trkpt lat="45.80624070594207" lon="11.359242462010569"><ele>311.0</ele><time>2026-05-03T14:35:03.972Z</time></trkpt><trkpt lat="45.806168693939554" lon="11.359227688078459"><ele>311.0</ele><time>2026-05-03T14:35:04.972Z</time></trkpt><trkpt lat="45.80608613412088" lon="11.359220535309692"><ele>311.0</ele><time>2026-05-03T14:35:06.972Z</time></trkpt><trkpt lat="45.806044001472465" lon="11.359147274753614"><ele>311.0</ele><time>2026-05-03T14:35:09.972Z</time></trkpt><trkpt lat="45.80610068254267" lon="11.359099579331813"><ele>311.0</ele><time>2026-05-03T14:35:10.972Z</time></trkpt><trkpt lat="45.80607131805703" lon="11.359003608318645"><ele>311.0</ele><time>2026-05-03T14:35:13.972Z</time></trkpt><trkpt lat="45.80618498965788" lon="11.35892565845403"><ele>311.0</ele><time>2026-05-03T14:39:53.975Z</time></trkpt><trkpt lat="45.80642381503834" lon="11.359017781393444"><ele>311.0</ele><time>2026-05-03T14:44:22.975Z</time></trkpt><trkpt lat="45.80619091956399" lon="11.358933974135335"><ele>311.0</ele><time>2026-05-03T15:41:26Z</time></trkpt><trkpt lat="45.806242328300065" lon="11.35848536307577"><ele>311.0</ele><time>2026-05-03T15:44:17Z</time></trkpt><trkpt lat="45.806325171445515" lon="11.358553411955503"><ele>311.0</ele><time>2026-05-03T15:44:18.999Z</time></trkpt><trkpt lat="45.80637657513358" lon="11.358626092923812"><ele>311.0</ele><time>2026-05-03T15:44:19.999Z</time></trkpt><trkpt lat="45.80644148627605" lon="11.358690575153231"><ele>311.0</ele><time>2026-05-03T15:44:20.999Z</time></trkpt><trkpt lat="45.80651094247382" lon="11.358752309265387"><ele>311.0</ele><time>2026-05-03T15:44:21.999Z</time></trkpt><trkpt lat="45.80657274192209" lon="11.358850956882769"><ele>311.0</ele><time>2026-05-03T15:44:22.999Z</time></trkpt><trkpt lat="45.80664179242812" lon="11.358916778698164"><ele>311.0</ele><time>2026-05-03T15:44:23.999Z</time></trkpt><trkpt lat="45.80672235812185" lon="11.358993482748838"><ele>311.0</ele><time>2026-05-03T15:44:24.999Z</time></trkpt><trkpt lat="45.80688799947976" lon="11.35914859163929"><ele>311.0</ele><time>2026-05-03T15:44:26.999Z</time></trkpt><trkpt lat="45.80696926004105" lon="11.35922519098413"><ele>311.0</ele><time>2026-05-03T15:44:27.999Z</time></trkpt><trkpt lat="45.80703350024636" lon="11.359261845292796"><ele>311.0</ele><time>2026-05-03T15:44:28.999Z</time></trkpt><trkpt lat="45.80706961023419" lon="11.359355130963811"><ele>311.0</ele><time>2026-05-03T15:44:30.999Z</time></trkpt><trkpt lat="45.806893045499095" lon="11.35946795374442"><ele>311.0</ele><time>2026-05-03T15:44:33.999Z</time></trkpt><trkpt lat="45.80680955625186" lon="11.359421669806832"><ele>311.0</ele><time>2026-05-03T15:44:34.999Z</time></trkpt><trkpt lat="45.80671405117339" lon="11.359371287640863"><ele>311.0</ele><time>2026-05-03T15:44:35.999Z</time></trkpt><trkpt lat="45.80660187038195" lon="11.359323321678376"><ele>311.0</ele><time>2026-05-03T15:44:36.999Z</time></trkpt><trkpt lat="45.80648585366709" lon="11.359279473445804"><ele>311.0</ele><time>2026-05-03T15:44:37.999Z</time></trkpt><trkpt lat="45.806354748595474" lon="11.359247034299788"><ele>311.0</ele><time>2026-05-03T15:44:38.999Z</time></trkpt><trkpt lat="45.806219367118025" lon="11.359227896536533"><ele>311.0</ele><time>2026-05-03T15:44:39.999Z</time></trkpt><trkpt lat="45.80609150930136" lon="11.359224032334131"><ele>311.0</ele><time>2026-05-03T15:44:40.999Z</time></trkpt><trkpt lat="45.805975646922505" lon="11.359235556507993"><ele>311.0</ele><time>2026-05-03T15:44:41.999Z</time></trkpt><trkpt lat="45.805866053713" lon="11.35924856339092"><ele>310.8</ele><time>2026-05-03T15:44:42.999Z</time></trkpt><trkpt lat="45.80576100340252" lon="11.359277269555488"><ele>310.6</ele><time>2026-05-03T15:44:43.999Z</time></trkpt><trkpt lat="45.805654495977194" lon="11.359318391425331"><ele>310.4</ele><time>2026-05-03T15:44:44.999Z</time></trkpt><trkpt lat="45.805550310100884" lon="11.359374263154795"><ele>310.2</ele><time>2026-05-03T15:44:45.999Z</time></trkpt><trkpt lat="45.80544539909564" lon="11.35944697469812"><ele>310.0</ele><time>2026-05-03T15:44:46.999Z</time></trkpt><trkpt lat="45.80533687014486" lon="11.359535984962827"><ele>310.0</ele><time>2026-05-03T15:44:47.999Z</time></trkpt><trkpt lat="45.80522376133631" lon="11.35963760889949"><ele>310.0</ele><time>2026-05-03T15:44:48.999Z</time></trkpt><trkpt lat="45.80510927917202" lon="11.359751865317964"><ele>310.0</ele><time>2026-05-03T15:44:49.999Z</time></trkpt><trkpt lat="45.8049989143375" lon="11.359887017851744"><ele>310.0</ele><time>2026-05-03T15:44:50.999Z</time></trkpt><trkpt lat="45.80489297763616" lon="11.360042379116273"><ele>310.0</ele><time>2026-05-03T15:44:51.999Z</time></trkpt><trkpt lat="45.80478814493459" lon="11.360216917995741"><ele>310.0</ele><time>2026-05-03T15:44:52.999Z</time></trkpt><trkpt lat="45.804703037071704" lon="11.360387946309995"><ele>310.0</ele><time>2026-05-03T15:44:53.999Z</time></trkpt><trkpt lat="45.80463276337694" lon="11.360563214213782"><ele>310.0</ele><time>2026-05-03T15:44:54.999Z</time></trkpt><trkpt lat="45.80456348399014" lon="11.360727261774668"><ele>309.75</ele><time>2026-05-03T15:44:55.999Z</time></trkpt><trkpt lat="45.80448958306853" lon="11.360893447004969"><ele>309.5</ele><time>2026-05-03T15:44:56.999Z</time></trkpt><trkpt lat="45.80441950879978" lon="11.361062228111486"><ele>309.25</ele><time>2026-05-03T15:44:57.999Z</time></trkpt><trkpt lat="45.8043545865023" lon="11.361235791977322"><ele>309.0</ele><time>2026-05-03T15:44:58.999Z</time></trkpt><trkpt lat="45.80428108256813" lon="11.361409535593223"><ele>308.75</ele><time>2026-05-03T15:44:59.999Z</time></trkpt><trkpt lat="45.804203627667825" lon="11.361584791389971"><ele>308.5</ele><time>2026-05-03T15:45:00.999Z</time></trkpt><trkpt lat="45.80412861947124" lon="11.36176959569705"><ele>308.25</ele><time>2026-05-03T15:45:01.999Z</time></trkpt><trkpt lat="45.80404962098447" lon="11.361960718084552"><ele>308.0</ele><time>2026-05-03T15:45:02.999Z</time></trkpt><trkpt lat="45.803968260782675" lon="11.36215507200475"><ele>305.6666666666667</ele><time>2026-05-03T15:45:03.999Z</time></trkpt><trkpt lat="45.80388691629789" lon="11.362356385559094"><ele>303.3333333333333</ele><time>2026-05-03T15:45:04.999Z</time></trkpt><trkpt lat="45.80380384124232" lon="11.362563880966508"><ele>301.0</ele><time>2026-05-03T15:45:05.999Z</time></trkpt><trkpt lat="45.803720720490055" lon="11.362781724365961"><ele>301.0</ele><time>2026-05-03T15:45:06.999Z</time></trkpt><trkpt lat="45.80364044412513" lon="11.362992825963854"><ele>301.0</ele><time>2026-05-03T15:45:07.999Z</time></trkpt><trkpt lat="45.80355499536301" lon="11.363193076104444"><ele>301.0</ele><time>2026-05-03T15:45:08.999Z</time></trkpt><trkpt lat="45.80347032123136" lon="11.363386371497578"><ele>298.5</ele><time>2026-05-03T15:45:09.999Z</time></trkpt><trkpt lat="45.803394238603964" lon="11.363574842478895"><ele>296.0</ele><time>2026-05-03T15:45:10.999Z</time></trkpt><trkpt lat="45.80332814415518" lon="11.363761765622343"><ele>293.5</ele><time>2026-05-03T15:45:11.999Z</time></trkpt><trkpt lat="45.803272695150156" lon="11.363962003824483"><ele>291.0</ele><time>2026-05-03T15:45:12.999Z</time></trkpt><trkpt lat="45.803219111805376" lon="11.36416943439843"><ele>291.0</ele><time>2026-05-03T15:45:13.999Z</time></trkpt><trkpt lat="45.80319465240278" lon="11.36440392870318"><ele>291.0</ele><time>2026-05-03T15:45:14.999Z</time></trkpt><trkpt lat="45.803172882469454" lon="11.36462781849234"><ele>291.0</ele><time>2026-05-03T15:45:15.999Z</time></trkpt><trkpt lat="45.80023782205294" lon="11.379894113371542"><ele>280.0</ele><time>2026-05-03T15:46:16.998Z</time></trkpt><trkpt lat="45.80011579440714" lon="11.380145972952668"><ele>269.0</ele><time>2026-05-03T15:46:17.998Z</time></trkpt><trkpt lat="45.799998669494066" lon="11.380399894735088"><ele>258.0</ele><time>2026-05-03T15:46:18.998Z</time></trkpt><trkpt lat="45.79988977990874" lon="11.380636258513654"><ele>258.0</ele><time>2026-05-03T15:46:19.998Z</time></trkpt><trkpt lat="45.79978546347337" lon="11.380864617849141"><ele>258.0</ele><time>2026-05-03T15:46:20.998Z</time></trkpt><trkpt lat="45.79968134390811" lon="11.381093007697219"><ele>258.0</ele><time>2026-05-03T15:46:21.998Z</time></trkpt><trkpt lat="45.79957457125062" lon="11.381317641314663"><ele>259.0</ele><time>2026-05-03T15:46:22.998Z</time></trkpt><trkpt lat="45.799466526197854" lon="11.381547218922588"><ele>260.0</ele><time>2026-05-03T15:46:23.998Z</time></trkpt><trkpt lat="45.79936093195477" lon="11.381779199202997"><ele>261.0</ele><time>2026-05-03T15:46:24.998Z</time></trkpt><trkpt lat="45.799253030580374" lon="11.382010083643342"><ele>259.6666666666667</ele><time>2026-05-03T15:46:25.998Z</time></trkpt><trkpt lat="45.799139034593466" lon="11.382237365584693"><ele>258.33333333333337</ele><time>2026-05-03T15:46:26.998Z</time></trkpt><trkpt lat="45.79902177279876" lon="11.382467574642922"><ele>257.0</ele><time>2026-05-03T15:46:27.998Z</time></trkpt><trkpt lat="45.79890407306645" lon="11.382701403152302"><ele>257.0</ele><time>2026-05-03T15:46:28.998Z</time></trkpt><trkpt lat="45.79878666192398" lon="11.382941536792622"><ele>257.0</ele><time>2026-05-03T15:46:29.998Z</time></trkpt><trkpt lat="45.79867060391289" lon="11.38318995739549"><ele>257.0</ele><time>2026-05-03T15:46:30.998Z</time></trkpt><trkpt lat="45.798553531726256" lon="11.383425808276455"><ele>256.6666666666667</ele><time>2026-05-03T15:46:31.998Z</time></trkpt><trkpt lat="45.79843512065617" lon="11.383640398665134"><ele>256.3333333333333</ele><time>2026-05-03T15:46:32.998Z</time></trkpt><trkpt lat="45.7983296899843" lon="11.383861621099385"><ele>256.0</ele><time>2026-05-03T15:46:33.998Z</time></trkpt><trkpt lat="45.79823051038678" lon="11.384094798424483"><ele>256.0</ele><time>2026-05-03T15:46:34.998Z</time></trkpt><trkpt lat="45.79814496506957" lon="11.38433877923444"><ele>256.0</ele><time>2026-05-03T15:46:35.998Z</time></trkpt><trkpt lat="45.798070817595445" lon="11.384587687073992"><ele>256.0</ele><time>2026-05-03T15:46:36.998Z</time></trkpt><trkpt lat="45.79800281550974" lon="11.384836120057729"><ele>256.3333333333333</ele><time>2026-05-03T15:46:37.998Z</time></trkpt><trkpt lat="45.797940365471646" lon="11.385086321139772"><ele>256.6666666666667</ele><time>2026-05-03T15:46:38.998Z</time></trkpt><trkpt lat="45.797882214433784" lon="11.385339253512154"><ele>257.0</ele><time>2026-05-03T15:46:39.998Z</time></trkpt><trkpt lat="45.79782336304449" lon="11.38558992750537"><ele>255.66666666666669</ele><time>2026-05-03T15:46:40.998Z</time></trkpt><trkpt lat="45.79776180122424" lon="11.38583894265092"><ele>254.33333333333331</ele><time>2026-05-03T15:46:41.998Z</time></trkpt><trkpt lat="45.79770012454051" lon="11.386086709314728"><ele>253.0</ele><time>2026-05-03T15:46:42.998Z</time></trkpt><trkpt lat="45.797639389856926" lon="11.386340791293994"><ele>253.66666666666666</ele><time>2026-05-03T15:46:43.998Z</time></trkpt><trkpt lat="45.79757854792459" lon="11.386598579091446"><ele>254.33333333333331</ele><time>2026-05-03T15:46:44.998Z</time></trkpt><trkpt lat="45.797517336889115" lon="11.386860985584148"><ele>255.0</ele><time>2026-05-03T15:46:45.998Z</time></trkpt><trkpt lat="45.797457220822814" lon="11.387115742247513"><ele>255.33333333333331</ele><time>2026-05-03T15:46:46.998Z</time></trkpt><trkpt lat="45.797400416339286" lon="11.387359073819587"><ele>255.66666666666666</ele><time>2026-05-03T15:46:47.998Z</time></trkpt><trkpt lat="45.797342267576745" lon="11.387604474432003"><ele>256.0</ele><time>2026-05-03T15:46:48.998Z</time></trkpt><trkpt lat="45.797281821710364" lon="11.387844139901912"><ele>257.3333333333333</ele><time>2026-05-03T15:46:49.998Z</time></trkpt><trkpt lat="45.79722581769129" lon="11.388077310865407"><ele>258.6666666666667</ele><time>2026-05-03T15:46:50.998Z</time></trkpt><trkpt lat="45.79717009638866" lon="11.388309851917636"><ele>260.0</ele><time>2026-05-03T15:46:51.998Z</time></trkpt><trkpt lat="45.79711525086396" lon="11.38854052522566"><ele>260.0</ele><time>2026-05-03T15:46:52.998Z</time></trkpt><trkpt lat="45.79706071376685" lon="11.388767709162202"><ele>260.0</ele><time>2026-05-03T15:46:53.998Z</time></trkpt><trkpt lat="45.797008940727466" lon="11.388985521987268"><ele>260.0</ele><time>2026-05-03T15:46:54.998Z</time></trkpt><trkpt lat="45.796960135117544" lon="11.389193335010562"><ele>260.0</ele><time>2026-05-03T15:46:55.998Z</time></trkpt><trkpt lat="45.79691432639115" lon="11.389386016938328"><ele>260.0</ele><time>2026-05-03T15:46:56.998Z</time></trkpt><trkpt lat="45.796871243324894" lon="11.389570909959398"><ele>260.0</ele><time>2026-05-03T15:46:57.998Z</time></trkpt><trkpt lat="45.796824289820876" lon="11.38975189624978"><ele>260.0</ele><time>2026-05-03T15:46:58.998Z</time></trkpt><trkpt lat="45.79677381601713" lon="11.38993899814634"><ele>260.0</ele><time>2026-05-03T15:46:59.998Z</time></trkpt><trkpt lat="45.79672753513394" lon="11.390122118721758"><ele>260.0</ele><time>2026-05-03T15:47:00.998Z</time></trkpt><trkpt lat="45.79667334807539" lon="11.390312886802821"><ele>260.0</ele><time>2026-05-03T15:47:01.998Z</time></trkpt><trkpt lat="45.79659999097537" lon="11.3905040830485"><ele>260.0</ele><time>2026-05-03T15:47:02.998Z</time></trkpt><trkpt lat="45.796513869711674" lon="11.39068412471412"><ele>262.6666666666667</ele><time>2026-05-03T15:47:03.998Z</time></trkpt><trkpt lat="45.79640829589508" lon="11.390854506509173"><ele>265.3333333333333</ele><time>2026-05-03T15:47:04.998Z</time></trkpt><trkpt lat="45.796291677094096" lon="11.390993568119104"><ele>268.0</ele><time>2026-05-03T15:47:05.998Z</time></trkpt><trkpt lat="45.79616560843621" lon="11.391109712306589"><ele>268.0</ele><time>2026-05-03T15:47:06.998Z</time></trkpt><trkpt lat="45.79603170494722" lon="11.39120948904166"><ele>268.0</ele><time>2026-05-03T15:47:07.998Z</time></trkpt><trkpt lat="45.795890107119256" lon="11.391291476231366"><ele>268.0</ele><time>2026-05-03T15:47:08.998Z</time></trkpt><trkpt lat="45.795739696582174" lon="11.39135782881313"><ele>270.66666666666663</ele><time>2026-05-03T15:47:09.998Z</time></trkpt><trkpt lat="45.79558303143661" lon="11.391413784518257"><ele>273.3333333333333</ele><time>2026-05-03T15:47:10.998Z</time></trkpt><trkpt lat="45.79542640968284" lon="11.391467375349706"><ele>276.0</ele><time>2026-05-03T15:47:11.998Z</time></trkpt><trkpt lat="45.79527339264445" lon="11.39151949667235"><ele>274.0</ele><time>2026-05-03T15:47:12.998Z</time></trkpt><trkpt lat="45.79512275875944" lon="11.391576656853248"><ele>272.0</ele><time>2026-05-03T15:47:13.998Z</time></trkpt><trkpt lat="45.79498546523149" lon="11.391631494328019"><ele>270.0</ele><time>2026-05-03T15:47:14.998Z</time></trkpt><trkpt lat="45.794854356774295" lon="11.391685059554483"><ele>268.0</ele><time>2026-05-03T15:47:15.998Z</time></trkpt><trkpt lat="45.791729234488244" lon="11.402863061089397"><ele>279.3333333333333</ele><time>2026-05-03T15:48:16.997Z</time></trkpt><trkpt lat="45.79168469866886" lon="11.403083254065825"><ele>290.6666666666667</ele><time>2026-05-03T15:48:17.997Z</time></trkpt><trkpt lat="45.79164036290406" lon="11.403306585815338"><ele>302.0</ele><time>2026-05-03T15:48:18.997Z</time></trkpt><trkpt lat="45.79159508305756" lon="11.40353564211384"><ele>302.0</ele><time>2026-05-03T15:48:19.997Z</time></trkpt><trkpt lat="45.79154784960909" lon="11.403772955264847"><ele>302.0</ele><time>2026-05-03T15:48:20.997Z</time></trkpt><trkpt lat="45.79149806449548" lon="11.404014565089758"><ele>302.0</ele><time>2026-05-03T15:48:21.997Z</time></trkpt><trkpt lat="45.79145091145223" lon="11.404254795368264"><ele>303.6666666666667</ele><time>2026-05-03T15:48:22.997Z</time></trkpt><trkpt lat="45.79140441503574" lon="11.40449231096488"><ele>305.3333333333333</ele><time>2026-05-03T15:48:23.997Z</time></trkpt><trkpt lat="45.79135612242875" lon="11.404728692873036"><ele>307.0</ele><time>2026-05-03T15:48:24.997Z</time></trkpt><trkpt lat="45.791303022606435" lon="11.404956258289163"><ele>308.3333333333333</ele><time>2026-05-03T15:48:25.997Z</time></trkpt><trkpt lat="45.7912492094356" lon="11.405171476546178"><ele>309.6666666666667</ele><time>2026-05-03T15:48:26.997Z</time></trkpt><trkpt lat="45.79119394577139" lon="11.405379125768286"><ele>311.0</ele><time>2026-05-03T15:48:27.997Z</time></trkpt><trkpt lat="45.791141900249706" lon="11.40557965073192"><ele>311.0</ele><time>2026-05-03T15:48:28.997Z</time></trkpt><trkpt lat="45.79108805076763" lon="11.4057857232886"><ele>311.0</ele><time>2026-05-03T15:48:29.997Z</time></trkpt><trkpt lat="45.79101144938919" lon="11.40599453696346"><ele>311.0</ele><time>2026-05-03T15:48:30.997Z</time></trkpt><trkpt lat="45.79094957365581" lon="11.406214824034265"><ele>311.25</ele><time>2026-05-03T15:48:31.997Z</time></trkpt><trkpt lat="45.79088986566336" lon="11.406427392164685"><ele>311.5</ele><time>2026-05-03T15:48:32.997Z</time></trkpt><trkpt lat="45.790834918235205" lon="11.406621842344071"><ele>311.75</ele><time>2026-05-03T15:48:33.997Z</time></trkpt><trkpt lat="45.79078618622525" lon="11.406793905392814"><ele>312.0</ele><time>2026-05-03T15:48:34.997Z</time></trkpt><trkpt lat="45.79074384675114" lon="11.406951061885042"><ele>312.0</ele><time>2026-05-03T15:48:35.997Z</time></trkpt><trkpt lat="45.790703594956916" lon="11.407098398493737"><ele>312.0</ele><time>2026-05-03T15:48:36.997Z</time></trkpt><trkpt lat="45.790663972135334" lon="11.407242431620093"><ele>312.0</ele><time>2026-05-03T15:48:37.997Z</time></trkpt><trkpt lat="45.79062438956665" lon="11.40738631813398"><ele>312.0</ele><time>2026-05-03T15:48:38.997Z</time></trkpt><trkpt lat="45.79058847368398" lon="11.407533713360793"><ele>312.0</ele><time>2026-05-03T15:48:39.997Z</time></trkpt><trkpt lat="45.79054375515289" lon="11.407682095949568"><ele>311.0</ele><time>2026-05-03T15:48:40.997Z</time></trkpt><trkpt lat="45.79050017478317" lon="11.407836798746631"><ele>310.0</ele><time>2026-05-03T15:48:41.997Z</time></trkpt><trkpt lat="45.79045164241973" lon="11.407995949162697"><ele>309.0</ele><time>2026-05-03T15:48:42.997Z</time></trkpt><trkpt lat="45.79040350282007" lon="11.408159114384162"><ele>308.0</ele><time>2026-05-03T15:48:43.997Z</time></trkpt><trkpt lat="45.79035844140435" lon="11.408318252353311"><ele>307.5</ele><time>2026-05-03T15:48:44.997Z</time></trkpt><trkpt lat="45.79031524911991" lon="11.408472939762634"><ele>307.0</ele><time>2026-05-03T15:48:45.997Z</time></trkpt><trkpt lat="45.790273195941026" lon="11.408625346044104"><ele>306.5</ele><time>2026-05-03T15:48:46.997Z</time></trkpt><trkpt lat="45.790228627122325" lon="11.408777884814207"><ele>306.0</ele><time>2026-05-03T15:48:47.997Z</time></trkpt><trkpt lat="45.79018160637387" lon="11.408932914226934"><ele>305.2</ele><time>2026-05-03T15:48:48.997Z</time></trkpt><trkpt lat="45.79013460614285" lon="11.40908032018946"><ele>304.40000000000003</ele><time>2026-05-03T15:48:49.997Z</time></trkpt><trkpt lat="45.79008967686984" lon="11.40920764732485"><ele>303.6</ele><time>2026-05-03T15:48:50.997Z</time></trkpt><trkpt lat="45.790046643948365" lon="11.409325546274932"><ele>302.8</ele><time>2026-05-03T15:48:51.997Z</time></trkpt><trkpt lat="45.79000388671301" lon="11.409442462802676"><ele>302.0</ele><time>2026-05-03T15:48:52.997Z</time></trkpt><trkpt lat="45.78995866693937" lon="11.409556387325635"><ele>302.0</ele><time>2026-05-03T15:48:53.997Z</time></trkpt><trkpt lat="45.78991464381699" lon="11.409655602118685"><ele>302.0</ele><time>2026-05-03T15:48:54.997Z</time></trkpt><trkpt lat="45.78987468723024" lon="11.409738491346149"><ele>302.0</ele><time>2026-05-03T15:48:55.997Z</time></trkpt><trkpt lat="45.78983678562762" lon="11.409817882569223"><ele>302.0</ele><time>2026-05-03T15:48:56.997Z</time></trkpt><trkpt lat="45.78976473326618" lon="11.409956343499221"><ele>302.0</ele><time>2026-05-03T15:48:58.997Z</time></trkpt><trkpt lat="45.7896798236847" lon="11.410098001327853"><ele>302.0</ele><time>2026-05-03T15:49:00.997Z</time></trkpt><trkpt lat="45.78962294259043" lon="11.410168487182924"><ele>302.0</ele><time>2026-05-03T15:49:01.997Z</time></trkpt><trkpt lat="45.78956281999897" lon="11.41025226116347"><ele>302.0</ele><time>2026-05-03T15:49:02.997Z</time></trkpt><trkpt lat="45.78951481333408" lon="11.410368623978044"><ele>302.0</ele><time>2026-05-03T15:49:03.997Z</time></trkpt><trkpt lat="45.78946009620249" lon="11.4105028325749"><ele>302.0</ele><time>2026-05-03T15:49:04.997Z</time></trkpt><trkpt lat="45.78938688648785" lon="11.410658680662193"><ele>302.0</ele><time>2026-05-03T15:49:05.997Z</time></trkpt><trkpt lat="45.789300083175775" lon="11.410803999178253"><ele>302.0</ele><time>2026-05-03T15:49:06.997Z</time></trkpt><trkpt lat="45.78920745040519" lon="11.410961366578462"><ele>302.0</ele><time>2026-05-03T15:49:07.997Z</time></trkpt><trkpt lat="45.78911002498189" lon="11.411146058074214"><ele>302.0</ele><time>2026-05-03T15:49:08.997Z</time></trkpt><trkpt lat="45.789003827450514" lon="11.411331354025211"><ele>302.0</ele><time>2026-05-03T15:49:09.997Z</time></trkpt><trkpt lat="45.788895306937036" lon="11.411516545555484"><ele>302.0</ele><time>2026-05-03T15:49:10.997Z</time></trkpt><trkpt lat="45.78878821593538" lon="11.411708913577899"><ele>302.0</ele><time>2026-05-03T15:49:11.997Z</time></trkpt><trkpt lat="45.788679695090615" lon="11.41190791304898"><ele>302.0</ele><time>2026-05-03T15:49:12.997Z</time></trkpt><trkpt lat="45.78856432659144" lon="11.412116519638396"><ele>302.0</ele><time>2026-05-03T15:49:13.997Z</time></trkpt><trkpt lat="45.78844480101986" lon="11.412333898953495"><ele>302.0</ele><time>2026-05-03T15:49:14.997Z</time></trkpt><trkpt lat="45.78830807133213" lon="11.4125467760111"><ele>299.0</ele><time>2026-05-03T15:49:15.997Z</time></trkpt><trkpt lat="45.78398399495005" lon="11.423876848376736"><ele>299.0</ele><time>2026-05-03T15:50:16.996Z</time></trkpt><trkpt lat="45.78395294613209" lon="11.42404492871982"><ele>299.0</ele><time>2026-05-03T15:50:17.996Z</time></trkpt><trkpt lat="45.783908548070976" lon="11.424220598882783"><ele>299.0</ele><time>2026-05-03T15:50:18.996Z</time></trkpt><trkpt lat="45.783853126770325" lon="11.424367565363053"><ele>299.0</ele><time>2026-05-03T15:50:19.996Z</time></trkpt><trkpt lat="45.78379394953763" lon="11.424522318209426"><ele>299.0</ele><time>2026-05-03T15:50:20.996Z</time></trkpt><trkpt lat="45.78373021890957" lon="11.424698141107175"><ele>299.0</ele><time>2026-05-03T15:50:21.996Z</time></trkpt><trkpt lat="45.78365864821021" lon="11.424894235268674"><ele>299.0</ele><time>2026-05-03T15:50:22.996Z</time></trkpt><trkpt lat="45.78358571356594" lon="11.425082756399762"><ele>299.0</ele><time>2026-05-03T15:50:23.996Z</time></trkpt><trkpt lat="45.783511200491304" lon="11.425287048839945"><ele>297.6666666666667</ele><time>2026-05-03T15:50:24.996Z</time></trkpt><trkpt lat="45.78343092967443" lon="11.425500565823837"><ele>296.3333333333333</ele><time>2026-05-03T15:50:25.996Z</time></trkpt><trkpt lat="45.78334699701127" lon="11.425719090880259"><ele>295.0</ele><time>2026-05-03T15:50:26.996Z</time></trkpt><trkpt lat="45.783262680586404" lon="11.425934446693217"><ele>295.0</ele><time>2026-05-03T15:50:27.996Z</time></trkpt><trkpt lat="45.78317739414065" lon="11.426153636257157"><ele>295.0</ele><time>2026-05-03T15:50:28.996Z</time></trkpt><trkpt lat="45.78308920621138" lon="11.426379370043087"><ele>295.0</ele><time>2026-05-03T15:50:29.996Z</time></trkpt><trkpt lat="45.782999663568404" lon="11.426618588050301"><ele>295.3333333333333</ele><time>2026-05-03T15:50:30.996Z</time></trkpt><trkpt lat="45.782913193867394" lon="11.426862603374163"><ele>295.6666666666667</ele><time>2026-05-03T15:50:31.996Z</time></trkpt><trkpt lat="45.78283092856433" lon="11.427090785717652"><ele>296.0</ele><time>2026-05-03T15:50:32.996Z</time></trkpt><trkpt lat="45.78274978204655" lon="11.427305805485869"><ele>294.6666666666667</ele><time>2026-05-03T15:50:33.996Z</time></trkpt><trkpt lat="45.782669375424035" lon="11.42751741150662"><ele>293.3333333333333</ele><time>2026-05-03T15:50:34.996Z</time></trkpt><trkpt lat="45.78258793651834" lon="11.427734711286735"><ele>292.0</ele><time>2026-05-03T15:50:35.996Z</time></trkpt><trkpt lat="45.78250287196053" lon="11.427946524876115"><ele>291.66666666666663</ele><time>2026-05-03T15:50:36.996Z</time></trkpt><trkpt lat="45.78241057119079" lon="11.428149860777411"><ele>291.3333333333333</ele><time>2026-05-03T15:50:37.996Z</time></trkpt><trkpt lat="45.78230591585956" lon="11.428346803114874"><ele>291.0</ele><time>2026-05-03T15:50:38.996Z</time></trkpt><trkpt lat="45.78218557817465" lon="11.428528991655563"><ele>291.0</ele><time>2026-05-03T15:50:39.996Z</time></trkpt><trkpt lat="45.78205710497275" lon="11.42869079785232"><ele>291.0</ele><time>2026-05-03T15:50:40.996Z</time></trkpt><trkpt lat="45.78192438351295" lon="11.428828380376915"><ele>291.0</ele><time>2026-05-03T15:50:41.996Z</time></trkpt><trkpt lat="45.781786753265976" lon="11.42894594025055"><ele>290.3333333333333</ele><time>2026-05-03T15:50:42.996Z</time></trkpt><trkpt lat="45.78164262930897" lon="11.429056709550295"><ele>289.66666666666663</ele><time>2026-05-03T15:50:43.996Z</time></trkpt><trkpt lat="45.78149624770627" lon="11.429158796206456"><ele>289.0</ele><time>2026-05-03T15:50:44.996Z</time></trkpt><trkpt lat="45.781345678129924" lon="11.429242410445609"><ele>289.0</ele><time>2026-05-03T15:50:45.996Z</time></trkpt><trkpt lat="45.78118426912821" lon="11.429320570706492"><ele>289.0</ele><time>2026-05-03T15:50:46.996Z</time></trkpt><trkpt lat="45.7810105465762" lon="11.42937570044522"><ele>289.0</ele><time>2026-05-03T15:50:47.996Z</time></trkpt><trkpt lat="45.78084409254294" lon="11.429414396541457"><ele>289.66666666666663</ele><time>2026-05-03T15:50:48.996Z</time></trkpt><trkpt lat="45.78068600290597" lon="11.429426582440817"><ele>290.3333333333333</ele><time>2026-05-03T15:50:49.996Z</time></trkpt><trkpt lat="45.78053020829964" lon="11.429437862675544"><ele>291.0</ele><time>2026-05-03T15:50:50.996Z</time></trkpt><trkpt lat="45.78036654926465" lon="11.42942766866046"><ele>291.0</ele><time>2026-05-03T15:50:51.996Z</time></trkpt><trkpt lat="45.780200516322935" lon="11.429405553783518"><ele>291.0</ele><time>2026-05-03T15:50:52.996Z</time></trkpt><trkpt lat="45.78002699208484" lon="11.429380290580323"><ele>291.0</ele><time>2026-05-03T15:50:53.996Z</time></trkpt><trkpt lat="45.779822912912365" lon="11.429354184860415"><ele>291.0</ele><time>2026-05-03T15:50:54.996Z</time></trkpt><trkpt lat="45.77958116336421" lon="11.429292685058819"><ele>291.0</ele><time>2026-05-03T15:50:55.996Z</time></trkpt><trkpt lat="45.77929901600069" lon="11.429241873949612"><ele>290.0</ele><time>2026-05-03T15:50:56.996Z</time></trkpt><trkpt lat="45.778987356365306" lon="11.429203975164297"><ele>289.0</ele><time>2026-05-03T15:50:57.996Z</time></trkpt><trkpt lat="45.77867596079652" lon="11.429129604901034"><ele>288.0</ele><time>2026-05-03T15:50:58.996Z</time></trkpt><trkpt lat="45.77838885601048" lon="11.429057092086447"><ele>287.0</ele><time>2026-05-03T15:50:59.996Z</time></trkpt><trkpt lat="45.77809892256467" lon="11.428971180980417"><ele>287.0</ele><time>2026-05-03T15:51:00.996Z</time></trkpt><trkpt lat="45.77779087424506" lon="11.428849390228773"><ele>287.0</ele><time>2026-05-03T15:51:01.996Z</time></trkpt><trkpt lat="45.77746609783691" lon="11.428715258731922"><ele>285.0</ele><time>2026-05-03T15:51:02.996Z</time></trkpt><trkpt lat="45.77714622798275" lon="11.428574145999878"><ele>283.0</ele><time>2026-05-03T15:51:03.996Z</time></trkpt><trkpt lat="45.7768518624504" lon="11.428435224477042"><ele>282.0</ele><time>2026-05-03T15:51:04.996Z</time></trkpt><trkpt lat="45.776581644842565" lon="11.428309400275563"><ele>281.0</ele><time>2026-05-03T15:51:05.996Z</time></trkpt><trkpt lat="45.77634570144236" lon="11.428183631271686"><ele>281.0</ele><time>2026-05-03T15:51:06.996Z</time></trkpt><trkpt lat="45.77611256639346" lon="11.428081999690392"><ele>281.0</ele><time>2026-05-03T15:51:07.996Z</time></trkpt><trkpt lat="45.77589138363419" lon="11.427985277841193"><ele>281.0</ele><time>2026-05-03T15:51:08.996Z</time></trkpt><trkpt lat="45.77568114158163" lon="11.427892841913435"><ele>281.0</ele><time>2026-05-03T15:51:09.996Z</time></trkpt><trkpt lat="45.775478911917716" lon="11.427801759549098"><ele>281.0</ele><time>2026-05-03T15:51:10.996Z</time></trkpt><trkpt lat="45.775287214689556" lon="11.427715813095203"><ele>281.6666666666667</ele><time>2026-05-03T15:51:11.996Z</time></trkpt><trkpt lat="45.77510379235143" lon="11.427632248661952"><ele>282.3333333333333</ele><time>2026-05-03T15:51:12.996Z</time></trkpt><trkpt lat="45.77492137359269" lon="11.427551528114407"><ele>283.0</ele><time>2026-05-03T15:51:13.996Z</time></trkpt><trkpt lat="45.77474241313343" lon="11.427473452520434"><ele>283.0</ele><time>2026-05-03T15:51:14.996Z</time></trkpt><trkpt lat="45.77457071008798" lon="11.427371028031182"><ele>283.0</ele><time>2026-05-03T15:51:15.996Z</time></trkpt><trkpt lat="45.76776096712874" lon="11.429478766283214"><ele>284.0</ele><time>2026-05-03T15:52:16.995Z</time></trkpt><trkpt lat="45.76769394236375" lon="11.429599247215592"><ele>285.0</ele><time>2026-05-03T15:52:17.995Z</time></trkpt><trkpt lat="45.76763087199581" lon="11.429716479022332"><ele>286.0</ele><time>2026-05-03T15:52:18.995Z</time></trkpt><trkpt lat="45.76757299726309" lon="11.429827961762486"><ele>287.0</ele><time>2026-05-03T15:52:19.995Z</time></trkpt><trkpt lat="45.76751709887898" lon="11.429938428630114"><ele>288.0</ele><time>2026-05-03T15:52:20.995Z</time></trkpt><trkpt lat="45.76746728570795" lon="11.430044262375691"><ele>288.00000000000006</ele><time>2026-05-03T15:52:21.995Z</time></trkpt><trkpt lat="45.767415528318445" lon="11.430142559824526"><ele>288.0</ele><time>2026-05-03T15:52:22.995Z</time></trkpt><trkpt lat="45.767366426568984" lon="11.43023348291307"><ele>288.0</ele><time>2026-05-03T15:52:23.995Z</time></trkpt><trkpt lat="45.76732360539817" lon="11.430314152499403"><ele>288.0</ele><time>2026-05-03T15:52:24.995Z</time></trkpt><trkpt lat="45.76727993845488" lon="11.430395967585515"><ele>288.0</ele><time>2026-05-03T15:52:25.995Z</time></trkpt><trkpt lat="45.76723762581502" lon="11.430472706941497"><ele>288.00000000000006</ele><time>2026-05-03T15:52:26.995Z</time></trkpt><trkpt lat="45.76719829118474" lon="11.430550547352619"><ele>288.0</ele><time>2026-05-03T15:52:27.995Z</time></trkpt><trkpt lat="45.76715084721602" lon="11.43062031986071"><ele>288.0</ele><time>2026-05-03T15:52:28.995Z</time></trkpt><trkpt lat="45.7670942473147" lon="11.43068853613443"><ele>288.0</ele><time>2026-05-03T15:52:29.995Z</time></trkpt><trkpt lat="45.767023933014585" lon="11.430752451041032"><ele>288.0</ele><time>2026-05-03T15:52:30.995Z</time></trkpt><trkpt lat="45.76694990707347" lon="11.430823326735279"><ele>288.0</ele><time>2026-05-03T15:52:31.995Z</time></trkpt><trkpt lat="45.76687006690123" lon="11.43088858459488"><ele>288.0</ele><time>2026-05-03T15:52:32.995Z</time></trkpt><trkpt lat="45.7667822943056" lon="11.430951977421362"><ele>288.0</ele><time>2026-05-03T15:52:33.995Z</time></trkpt><trkpt lat="45.766693434504425" lon="11.431019484293966"><ele>288.0</ele><time>2026-05-03T15:52:34.995Z</time></trkpt><trkpt lat="45.766605047344704" lon="11.431085431556767"><ele>288.0</ele><time>2026-05-03T15:52:35.995Z</time></trkpt><trkpt lat="45.76652188965861" lon="11.43114574836167"><ele>288.0</ele><time>2026-05-03T15:52:36.995Z</time></trkpt><trkpt lat="45.76644226818743" lon="11.431201234097715"><ele>288.0</ele><time>2026-05-03T15:52:37.995Z</time></trkpt><trkpt lat="45.766368451138575" lon="11.431242925004907"><ele>288.0</ele><time>2026-05-03T15:52:38.995Z</time></trkpt><trkpt lat="45.76629501383366" lon="11.4312797934244"><ele>288.0</ele><time>2026-05-03T15:52:39.995Z</time></trkpt><trkpt lat="45.7662240446474" lon="11.431311617318219"><ele>287.14285714285717</ele><time>2026-05-03T15:52:40.995Z</time></trkpt><trkpt lat="45.766152938673656" lon="11.431340264815951"><ele>286.2857142857143</ele><time>2026-05-03T15:52:41.995Z</time></trkpt><trkpt lat="45.76608221064972" lon="11.431362484799484"><ele>285.42857142857144</ele><time>2026-05-03T15:52:42.995Z</time></trkpt><trkpt lat="45.76601305237906" lon="11.431384815597905"><ele>284.57142857142856</ele><time>2026-05-03T15:52:43.995Z</time></trkpt><trkpt lat="45.76594268734277" lon="11.431401987460708"><ele>283.7142857142857</ele><time>2026-05-03T15:52:44.995Z</time></trkpt><trkpt lat="45.765872155597656" lon="11.43142374567462"><ele>282.8571428571429</ele><time>2026-05-03T15:52:45.995Z</time></trkpt><trkpt lat="45.76579770760609" lon="11.431435922256002"><ele>282.0</ele><time>2026-05-03T15:52:46.995Z</time></trkpt><trkpt lat="45.76571183292895" lon="11.431451336145432"><ele>281.8</ele><time>2026-05-03T15:52:47.995Z</time></trkpt><trkpt lat="45.76561238641351" lon="11.4314733927088"><ele>281.6</ele><time>2026-05-03T15:52:48.995Z</time></trkpt><trkpt lat="45.765502162727344" lon="11.431491029807143"><ele>281.40000000000003</ele><time>2026-05-03T15:52:49.995Z</time></trkpt><trkpt lat="45.7654034939458" lon="11.431514094770598"><ele>281.2</ele><time>2026-05-03T15:52:50.995Z</time></trkpt><trkpt lat="45.765304228122275" lon="11.43155191780767"><ele>281.0</ele><time>2026-05-03T15:52:51.995Z</time></trkpt><trkpt lat="45.765210942546396" lon="11.431550922402387"><ele>281.0</ele><time>2026-05-03T15:52:52.995Z</time></trkpt><trkpt lat="45.76512351190961" lon="11.431575934779824"><ele>281.0</ele><time>2026-05-03T15:52:53.995Z</time></trkpt><trkpt lat="45.76504025441904" lon="11.431594765396024"><ele>281.0</ele><time>2026-05-03T15:52:54.995Z</time></trkpt><trkpt lat="45.76496140801039" lon="11.431618796028907"><ele>281.0</ele><time>2026-05-03T15:52:55.995Z</time></trkpt><trkpt lat="45.764897158290566" lon="11.43164058526048"><ele>281.0</ele><time>2026-05-03T15:52:56.995Z</time></trkpt><trkpt lat="45.76478881546495" lon="11.431679084307222"><ele>281.0</ele><time>2026-05-03T15:52:58.995Z</time></trkpt><trkpt lat="45.76469048801125" lon="11.431732363249079"><ele>281.0</ele><time>2026-05-03T15:53:00.995Z</time></trkpt><trkpt lat="45.76461308066964" lon="11.431822835940988"><ele>281.0</ele><time>2026-05-03T15:53:02.995Z</time></trkpt><trkpt lat="45.764541154496555" lon="11.431962119548652"><ele>281.0</ele><time>2026-05-03T15:53:04.995Z</time></trkpt><trkpt lat="45.764492414874184" lon="11.43205917407256"><ele>281.0</ele><time>2026-05-03T15:53:05.995Z</time></trkpt><trkpt lat="45.76443842069317" lon="11.432174009923306"><ele>281.0</ele><time>2026-05-03T15:53:06.995Z</time></trkpt><trkpt lat="45.76437388485249" lon="11.43230319745843"><ele>280.25</ele><time>2026-05-03T15:53:07.995Z</time></trkpt><trkpt lat="45.76431616189238" lon="11.432452256002202"><ele>279.5</ele><time>2026-05-03T15:53:08.995Z</time></trkpt><trkpt lat="45.76424046265755" lon="11.432597258653363"><ele>278.75</ele><time>2026-05-03T15:53:09.995Z</time></trkpt><trkpt lat="45.7641705752829" lon="11.432757462012038"><ele>278.0</ele><time>2026-05-03T15:53:10.995Z</time></trkpt><trkpt lat="45.764099761668305" lon="11.432922300550155"><ele>277.75</ele><time>2026-05-03T15:53:11.995Z</time></trkpt><trkpt lat="45.764026628266514" lon="11.433089607202286"><ele>277.5</ele><time>2026-05-03T15:53:12.995Z</time></trkpt><trkpt lat="45.763960263872704" lon="11.433241743013637"><ele>277.25</ele><time>2026-05-03T15:53:13.995Z</time></trkpt><trkpt lat="45.763897613549936" lon="11.43338536415134"><ele>277.0</ele><time>2026-05-03T15:53:14.995Z</time></trkpt><trkpt lat="45.7638391305678" lon="11.43351943211057"><ele>263.0</ele><time>2026-05-03T15:53:15.995Z</time></trkpt><trkpt lat="45.760142043584366" lon="11.438454188856959"><ele>263.0</ele><time>2026-05-03T15:54:16.994Z</time></trkpt><trkpt lat="45.760021078421026" lon="11.438445252741763"><ele>263.0</ele><time>2026-05-03T15:54:17.994Z</time></trkpt><trkpt lat="45.75989677799432" lon="11.438435512311196"><ele>263.0</ele><time>2026-05-03T15:54:18.994Z</time></trkpt><trkpt lat="45.75977335296036" lon="11.438426048781885"><ele>263.0</ele><time>2026-05-03T15:54:19.994Z</time></trkpt><trkpt lat="45.75965206232448" lon="11.438420149247396"><ele>263.0</ele><time>2026-05-03T15:54:20.994Z</time></trkpt><trkpt lat="45.759536995232" lon="11.438412651328905"><ele>263.0</ele><time>2026-05-03T15:54:21.994Z</time></trkpt><trkpt lat="45.759423994669454" lon="11.438402358884147"><ele>263.0</ele><time>2026-05-03T15:54:22.994Z</time></trkpt><trkpt lat="45.75931491911404" lon="11.438392664095153"><ele>263.0</ele><time>2026-05-03T15:54:23.994Z</time></trkpt><trkpt lat="45.75920689884173" lon="11.438388531128076"><ele>263.0</ele><time>2026-05-03T15:54:24.994Z</time></trkpt><trkpt lat="45.75910718678876" lon="11.43838082134449"><ele>262.2</ele><time>2026-05-03T15:54:25.994Z</time></trkpt><trkpt lat="45.75900727607283" lon="11.438372671888207"><ele>261.4</ele><time>2026-05-03T15:54:26.994Z</time></trkpt><trkpt lat="45.75890339093459" lon="11.438360720865685"><ele>260.59999999999997</ele><time>2026-05-03T15:54:27.994Z</time></trkpt><trkpt lat="45.75879699156303" lon="11.438351627483248"><ele>259.8</ele><time>2026-05-03T15:54:28.994Z</time></trkpt><trkpt lat="45.758699183709055" lon="11.438344221063355"><ele>259.0</ele><time>2026-05-03T15:54:29.994Z</time></trkpt><trkpt lat="45.758610381897974" lon="11.4383392788807"><ele>258.8333333333333</ele><time>2026-05-03T15:54:30.994Z</time></trkpt><trkpt lat="45.758518291852596" lon="11.438334247646377"><ele>258.66666666666663</ele><time>2026-05-03T15:54:31.994Z</time></trkpt><trkpt lat="45.7584332912733" lon="11.43833121316326"><ele>258.5</ele><time>2026-05-03T15:54:32.994Z</time></trkpt><trkpt lat="45.75835484905898" lon="11.438329757096062"><ele>258.3333333333333</ele><time>2026-05-03T15:54:33.994Z</time></trkpt><trkpt lat="45.75828754683605" lon="11.438301088635814"><ele>258.1666666666667</ele><time>2026-05-03T15:54:34.994Z</time></trkpt><trkpt lat="45.75820219738839" lon="11.438316523875809"><ele>258.0</ele><time>2026-05-03T15:54:36.994Z</time></trkpt><trkpt lat="45.75813080921854" lon="11.43827933500254"><ele>258.0</ele><time>2026-05-03T15:54:39.994Z</time></trkpt><trkpt lat="45.75804713553779" lon="11.438272068556907"><ele>258.0</ele><time>2026-05-03T15:54:42.994Z</time></trkpt><trkpt lat="45.757944476329754" lon="11.43827890821751"><ele>258.0</ele><time>2026-05-03T15:54:45.994Z</time></trkpt><trkpt lat="45.757857945006144" lon="11.438265937091739"><ele>258.0</ele><time>2026-05-03T15:54:47.994Z</time></trkpt><trkpt lat="45.757743043581" lon="11.43823653119537"><ele>258.0</ele><time>2026-05-03T15:54:49.994Z</time></trkpt><trkpt lat="45.7576170501417" lon="11.438178745989665"><ele>257.3333333333333</ele><time>2026-05-03T15:54:51.994Z</time></trkpt><trkpt lat="45.75754645201746" lon="11.438156281106227"><ele>256.6666666666667</ele><time>2026-05-03T15:54:52.994Z</time></trkpt><trkpt lat="45.75744934319514" lon="11.438206319413075"><ele>256.0</ele><time>2026-05-03T15:54:54.994Z</time></trkpt><trkpt lat="45.75741257456565" lon="11.4383033878622"><ele>255.33333333333334</ele><time>2026-05-03T15:54:55.994Z</time></trkpt><trkpt lat="45.75737210983563" lon="11.438423926236881"><ele>254.66666666666669</ele><time>2026-05-03T15:54:56.994Z</time></trkpt><trkpt lat="45.75732233903071" lon="11.438550650560364"><ele>254.0</ele><time>2026-05-03T15:54:57.994Z</time></trkpt><trkpt lat="45.75726170331352" lon="11.438683533686135"><ele>254.0</ele><time>2026-05-03T15:54:58.994Z</time></trkpt><trkpt lat="45.75719789640628" lon="11.438828855436007"><ele>254.0</ele><time>2026-05-03T15:54:59.994Z</time></trkpt><trkpt lat="45.757124203086505" lon="11.43899052710608"><ele>254.0</ele><time>2026-05-03T15:55:00.994Z</time></trkpt><trkpt lat="45.75703909034751" lon="11.439184896573659"><ele>254.0</ele><time>2026-05-03T15:55:01.994Z</time></trkpt><trkpt lat="45.75694709201598" lon="11.439352916351048"><ele>254.0</ele><time>2026-05-03T15:55:02.994Z</time></trkpt><trkpt lat="45.75688072855742" lon="11.43949839771943"><ele>253.99999999999997</ele><time>2026-05-03T15:55:03.994Z</time></trkpt><trkpt lat="45.756827617515064" lon="11.439615815389363"><ele>253.99999999999997</ele><time>2026-05-03T15:55:04.994Z</time></trkpt><trkpt lat="45.75677740347888" lon="11.439727213669714"><ele>254.0</ele><time>2026-05-03T15:55:05.994Z</time></trkpt><trkpt lat="45.7567303998044" lon="11.439831489597054"><ele>254.0</ele><time>2026-05-03T15:55:06.994Z</time></trkpt><trkpt lat="45.75668831203835" lon="11.439924398323562"><ele>253.6</ele><time>2026-05-03T15:55:07.994Z</time></trkpt><trkpt lat="45.75664521494123" lon="11.440018236522418"><ele>253.2</ele><time>2026-05-03T15:55:08.994Z</time></trkpt><trkpt lat="45.75659904058572" lon="11.440118774940387"><ele>252.79999999999998</ele><time>2026-05-03T15:55:09.994Z</time></trkpt><trkpt lat="45.75656122031238" lon="11.440243580030502"><ele>252.39999999999998</ele><time>2026-05-03T15:55:10.994Z</time></trkpt><trkpt lat="45.75650088327915" lon="11.440355413377391"><ele>252.0</ele><time>2026-05-03T15:55:11.994Z</time></trkpt><trkpt lat="45.75644356206654" lon="11.440478968039525"><ele>251.75</ele><time>2026-05-03T15:55:12.994Z</time></trkpt><trkpt lat="45.756387871999735" lon="11.44060853793413"><ele>251.5</ele><time>2026-05-03T15:55:13.994Z</time></trkpt><trkpt lat="45.75632100306231" lon="11.440732160613644"><ele>251.25</ele><time>2026-05-03T15:55:14.994Z</time></trkpt><trkpt lat="45.756270997696966" lon="11.440846822708748"><ele>251.0</ele><time>2026-05-03T15:55:15.994Z</time></trkpt><trkpt lat="45.749916547558506" lon="11.453553306393877"><ele>246.83333333333334</ele><time>2026-05-03T15:56:16.993Z</time></trkpt><trkpt lat="45.74986019323828" lon="11.453655107549366"><ele>242.66666666666669</ele><time>2026-05-03T15:56:17.993Z</time></trkpt><trkpt lat="45.74981889963317" lon="11.4537461540745"><ele>238.5</ele><time>2026-05-03T15:56:18.993Z</time></trkpt><trkpt lat="45.749754095839826" lon="11.453885917156917"><ele>234.33333333333331</ele><time>2026-05-03T15:56:20.993Z</time></trkpt><trkpt lat="45.749716249982015" lon="11.45396973649585"><ele>230.16666666666666</ele><time>2026-05-03T15:56:21.993Z</time></trkpt><trkpt lat="45.74967127843433" lon="11.454066643777015"><ele>226.0</ele><time>2026-05-03T15:56:22.993Z</time></trkpt><trkpt lat="45.74961834205866" lon="11.45417185813958"><ele>225.75</ele><time>2026-05-03T15:56:23.993Z</time></trkpt><trkpt lat="45.74956067773678" lon="11.45430872138446"><ele>225.5</ele><time>2026-05-03T15:56:24.993Z</time></trkpt><trkpt lat="45.7494757410801" lon="11.454455256804339"><ele>225.25</ele><time>2026-05-03T15:56:25.993Z</time></trkpt><trkpt lat="45.74940949676118" lon="11.45463075126078"><ele>225.0</ele><time>2026-05-03T15:56:26.993Z</time></trkpt><trkpt lat="45.74932608377208" lon="11.454794804723962"><ele>225.0</ele><time>2026-05-03T15:56:27.993Z</time></trkpt><trkpt lat="45.74924245521027" lon="11.454964540112302"><ele>225.0</ele><time>2026-05-03T15:56:28.993Z</time></trkpt><trkpt lat="45.749161318356414" lon="11.455127841690365"><ele>225.0</ele><time>2026-05-03T15:56:29.993Z</time></trkpt><trkpt lat="45.74908682329428" lon="11.455287792881421"><ele>225.0</ele><time>2026-05-03T15:56:30.993Z</time></trkpt><trkpt lat="45.74901688884362" lon="11.455428406524181"><ele>224.8</ele><time>2026-05-03T15:56:31.993Z</time></trkpt><trkpt lat="45.74895656225732" lon="11.455532258414554"><ele>224.6</ele><time>2026-05-03T15:56:32.993Z</time></trkpt><trkpt lat="45.748914394052576" lon="11.45562747385484"><ele>224.39999999999998</ele><time>2026-05-03T15:56:33.993Z</time></trkpt><trkpt lat="45.748843048316644" lon="11.455773085818512"><ele>224.2</ele><time>2026-05-03T15:56:35.993Z</time></trkpt><trkpt lat="45.748803146077215" lon="11.455860814878589"><ele>224.0</ele><time>2026-05-03T15:56:36.993Z</time></trkpt><trkpt lat="45.74875686653933" lon="11.45596344137524"><ele>224.0</ele><time>2026-05-03T15:56:37.993Z</time></trkpt><trkpt lat="45.7487017823677" lon="11.456078301859046"><ele>223.99999999999997</ele><time>2026-05-03T15:56:38.993Z</time></trkpt><trkpt lat="45.748641370636065" lon="11.456212247676095"><ele>223.99999999999997</ele><time>2026-05-03T15:56:39.993Z</time></trkpt><trkpt lat="45.74857320165193" lon="11.456334197472291"><ele>224.0</ele><time>2026-05-03T15:56:40.993Z</time></trkpt><trkpt lat="45.74851040424769" lon="11.456430185862441"><ele>224.0</ele><time>2026-05-03T15:56:41.993Z</time></trkpt><trkpt lat="45.74845110895992" lon="11.456497856916055"><ele>223.79999999999998</ele><time>2026-05-03T15:56:42.993Z</time></trkpt><trkpt lat="45.74838059869358" lon="11.456552757805472"><ele>223.59999999999997</ele><time>2026-05-03T15:56:43.993Z</time></trkpt><trkpt lat="45.748295316986514" lon="11.456571767165311"><ele>223.4</ele><time>2026-05-03T15:56:44.993Z</time></trkpt><trkpt lat="45.74819678786943" lon="11.456578539400109"><ele>223.2</ele><time>2026-05-03T15:56:45.993Z</time></trkpt><trkpt lat="45.74809197849759" lon="11.456569661180165"><ele>223.0</ele><time>2026-05-03T15:56:46.993Z</time></trkpt><trkpt lat="45.74798009081734" lon="11.456557605838016"><ele>223.0</ele><time>2026-05-03T15:56:47.993Z</time></trkpt><trkpt lat="45.74786235300004" lon="11.456547330807785"><ele>223.0</ele><time>2026-05-03T15:56:48.993Z</time></trkpt><trkpt lat="45.74775075450564" lon="11.456543460808641"><ele>223.0</ele><time>2026-05-03T15:56:49.993Z</time></trkpt><trkpt lat="45.74763742985758" lon="11.456546005395285"><ele>223.0</ele><time>2026-05-03T15:56:50.993Z</time></trkpt><trkpt lat="45.747528137363986" lon="11.456553505235552"><ele>222.4</ele><time>2026-05-03T15:56:51.993Z</time></trkpt><trkpt lat="45.74741906026603" lon="11.456567201964708"><ele>221.8</ele><time>2026-05-03T15:56:52.993Z</time></trkpt><trkpt lat="45.747314497725554" lon="11.456587101980915"><ele>221.2</ele><time>2026-05-03T15:56:53.993Z</time></trkpt><trkpt lat="45.7472078525917" lon="11.456611589115658"><ele>220.6</ele><time>2026-05-03T15:56:54.993Z</time></trkpt><trkpt lat="45.74710595932893" lon="11.456643798070765"><ele>220.0</ele><time>2026-05-03T15:56:55.993Z</time></trkpt><trkpt lat="45.74700693623513" lon="11.456674246945022"><ele>220.0</ele><time>2026-05-03T15:56:56.993Z</time></trkpt><trkpt lat="45.74691539650888" lon="11.456704812936083"><ele>220.0</ele><time>2026-05-03T15:56:57.993Z</time></trkpt><trkpt lat="45.746825881291784" lon="11.456730047979855"><ele>220.0</ele><time>2026-05-03T15:56:58.993Z</time></trkpt><trkpt lat="45.746746969243084" lon="11.45675997344891"><ele>220.0</ele><time>2026-05-03T15:56:59.993Z</time></trkpt><trkpt lat="45.74666403880299" lon="11.456827533456135"><ele>220.0</ele><time>2026-05-03T15:57:00.993Z</time></trkpt><trkpt lat="45.74657583311799" lon="11.456904388461473"><ele>220.0</ele><time>2026-05-03T15:57:01.993Z</time></trkpt><trkpt lat="45.74648105048131" lon="11.456972805946354"><ele>220.0</ele><time>2026-05-03T15:57:02.993Z</time></trkpt><trkpt lat="45.74638637328949" lon="11.457049170695933"><ele>220.0</ele><time>2026-05-03T15:57:03.993Z</time></trkpt><trkpt lat="45.74628740308395" lon="11.457124835445768"><ele>220.0</ele><time>2026-05-03T15:57:04.993Z</time></trkpt><trkpt lat="45.74618798095048" lon="11.457208240358169"><ele>220.0</ele><time>2026-05-03T15:57:05.993Z</time></trkpt><trkpt lat="45.74609416919349" lon="11.457293243947925"><ele>219.75</ele><time>2026-05-03T15:57:06.993Z</time></trkpt><trkpt lat="45.74599337739555" lon="11.457378387743335"><ele>219.5</ele><time>2026-05-03T15:57:07.993Z</time></trkpt><trkpt lat="45.74589203205468" lon="11.457463833385336"><ele>219.25</ele><time>2026-05-03T15:57:08.993Z</time></trkpt><trkpt lat="45.745790438758576" lon="11.457552018733143"><ele>219.0</ele><time>2026-05-03T15:57:09.993Z</time></trkpt><trkpt lat="45.74569854031836" lon="11.457640740786745"><ele>219.0</ele><time>2026-05-03T15:57:10.993Z</time></trkpt><trkpt lat="45.74562122295361" lon="11.457708912461763"><ele>219.0</ele><time>2026-05-03T15:57:11.993Z</time></trkpt><trkpt lat="45.745549411071686" lon="11.457764661336887"><ele>219.0</ele><time>2026-05-03T15:57:12.993Z</time></trkpt><trkpt lat="45.74547963301312" lon="11.45781494793588"><ele>219.0</ele><time>2026-05-03T15:57:13.993Z</time></trkpt><trkpt lat="45.74541114659963" lon="11.457872899692768"><ele>219.0</ele><time>2026-05-03T15:57:14.993Z</time></trkpt><trkpt lat="45.7453457880119" lon="11.457924932565245"><ele>219.0</ele><time>2026-05-03T15:57:15.993Z</time></trkpt><trkpt lat="45.73906592730843" lon="11.463852394517746"><ele>215.33333333333331</ele><time>2026-05-03T15:58:16.992Z</time></trkpt><trkpt lat="45.738876178535655" lon="11.46395318347122"><ele>211.66666666666666</ele><time>2026-05-03T15:58:17.992Z</time></trkpt><trkpt lat="45.7386724213306" lon="11.464036789684497"><ele>208.0</ele><time>2026-05-03T15:58:18.992Z</time></trkpt><trkpt lat="45.73847198196561" lon="11.464144057544377"><ele>207.66666666666666</ele><time>2026-05-03T15:58:19.992Z</time></trkpt><trkpt lat="45.73826870525626" lon="11.464230140573592"><ele>207.33333333333331</ele><time>2026-05-03T15:58:20.992Z</time></trkpt><trkpt lat="45.738075354629494" lon="11.464290245867096"><ele>207.0</ele><time>2026-05-03T15:58:21.992Z</time></trkpt><trkpt lat="45.73788732925527" lon="11.464336392530175"><ele>207.33333333333331</ele><time>2026-05-03T15:58:22.992Z</time></trkpt><trkpt lat="45.737709344655855" lon="11.46437201689815"><ele>207.66666666666666</ele><time>2026-05-03T15:58:23.992Z</time></trkpt><trkpt lat="45.737547333307795" lon="11.4643909734799"><ele>208.0</ele><time>2026-05-03T15:58:24.992Z</time></trkpt><trkpt lat="45.73739614037929" lon="11.464400690971328"><ele>208.0</ele><time>2026-05-03T15:58:25.992Z</time></trkpt><trkpt lat="45.73724700092007" lon="11.464410801582943"><ele>208.0</ele><time>2026-05-03T15:58:26.992Z</time></trkpt><trkpt lat="45.73708701666994" lon="11.464421309252604"><ele>208.0</ele><time>2026-05-03T15:58:27.992Z</time></trkpt><trkpt lat="45.736901242491264" lon="11.464433333290852"><ele>205.5</ele><time>2026-05-03T15:58:28.992Z</time></trkpt><trkpt lat="45.736683010732634" lon="11.464420801959811"><ele>203.0</ele><time>2026-05-03T15:58:29.992Z</time></trkpt><trkpt lat="45.73643092192976" lon="11.464431177436927"><ele>203.0</ele><time>2026-05-03T15:58:30.992Z</time></trkpt><trkpt lat="45.73614977707039" lon="11.464429220655061"><ele>203.0</ele><time>2026-05-03T15:58:31.992Z</time></trkpt><trkpt lat="45.735832664774854" lon="11.4644301853587"><ele>202.0</ele><time>2026-05-03T15:58:32.992Z</time></trkpt><trkpt lat="45.735493245063346" lon="11.46442378106919"><ele>201.0</ele><time>2026-05-03T15:58:33.992Z</time></trkpt><trkpt lat="45.735164329958884" lon="11.464410374121924"><ele>200.5</ele><time>2026-05-03T15:58:34.992Z</time></trkpt><trkpt lat="45.73486120913012" lon="11.46439578846449"><ele>200.0</ele><time>2026-05-03T15:58:35.992Z</time></trkpt><trkpt lat="45.734572920188754" lon="11.464388307582354"><ele>198.5</ele><time>2026-05-03T15:58:36.992Z</time></trkpt><trkpt lat="45.734307809970645" lon="11.46438786169664"><ele>197.0</ele><time>2026-05-03T15:58:37.992Z</time></trkpt><trkpt lat="45.73405531681976" lon="11.464398490867232"><ele>197.0</ele><time>2026-05-03T15:58:38.992Z</time></trkpt><trkpt lat="45.733809148060594" lon="11.464401345310916"><ele>197.0</ele><time>2026-05-03T15:58:39.992Z</time></trkpt><trkpt lat="45.733576417919544" lon="11.464405957178414"><ele>196.5</ele><time>2026-05-03T15:58:40.992Z</time></trkpt><trkpt lat="45.73334832689564" lon="11.46441740184428"><ele>196.0</ele><time>2026-05-03T15:58:41.992Z</time></trkpt><trkpt lat="45.73311989115784" lon="11.464433001797754"><ele>196.0</ele><time>2026-05-03T15:58:42.992Z</time></trkpt><trkpt lat="45.732890310284674" lon="11.46443114158202"><ele>196.0</ele><time>2026-05-03T15:58:43.992Z</time></trkpt><trkpt lat="45.73266425029354" lon="11.464474917746992"><ele>195.0</ele><time>2026-05-03T15:58:44.992Z</time></trkpt><trkpt lat="45.73244057881063" lon="11.4645367745966"><ele>194.0</ele><time>2026-05-03T15:58:45.992Z</time></trkpt><trkpt lat="45.73221982363632" lon="11.46460317473922"><ele>194.0</ele><time>2026-05-03T15:58:46.992Z</time></trkpt><trkpt lat="45.7320115992507" lon="11.46466605990838"><ele>194.0</ele><time>2026-05-03T15:58:47.992Z</time></trkpt><trkpt lat="45.73180517286535" lon="11.46472706273686"><ele>194.0</ele><time>2026-05-03T15:58:48.992Z</time></trkpt><trkpt lat="45.73159951916396" lon="11.464791962900867"><ele>193.33333333333334</ele><time>2026-05-03T15:58:49.992Z</time></trkpt><trkpt lat="45.7313892658517" lon="11.464851812245875"><ele>192.66666666666669</ele><time>2026-05-03T15:58:50.992Z</time></trkpt><trkpt lat="45.73117588921568" lon="11.46491360478395"><ele>192.0</ele><time>2026-05-03T15:58:51.992Z</time></trkpt><trkpt lat="45.730958905952335" lon="11.464977287071001"><ele>191.33333333333334</ele><time>2026-05-03T15:58:52.992Z</time></trkpt><trkpt lat="45.730738742777746" lon="11.46504641787956"><ele>190.66666666666669</ele><time>2026-05-03T15:58:53.992Z</time></trkpt><trkpt lat="45.73052193528697" lon="11.465112982281275"><ele>190.0</ele><time>2026-05-03T15:58:54.992Z</time></trkpt><trkpt lat="45.73030439187899" lon="11.465172316493822"><ele>189.33333333333334</ele><time>2026-05-03T15:58:55.992Z</time></trkpt><trkpt lat="45.73008625910808" lon="11.465211095227138"><ele>188.66666666666666</ele><time>2026-05-03T15:58:56.992Z</time></trkpt><trkpt lat="45.72988538832029" lon="11.46526191530982"><ele>188.0</ele><time>2026-05-03T15:58:57.992Z</time></trkpt><trkpt lat="45.729688045161616" lon="11.465314250160828"><ele>188.0</ele><time>2026-05-03T15:58:58.992Z</time></trkpt><trkpt lat="45.72949090066219" lon="11.465370071000264"><ele>188.0</ele><time>2026-05-03T15:58:59.992Z</time></trkpt><trkpt lat="45.729297654475296" lon="11.46542781410237"><ele>188.0</ele><time>2026-05-03T15:59:00.992Z</time></trkpt><trkpt lat="45.72910150757711" lon="11.46548647864195"><ele>187.0</ele><time>2026-05-03T15:59:01.992Z</time></trkpt><trkpt lat="45.7288901876469" lon="11.465550819930558"><ele>186.0</ele><time>2026-05-03T15:59:02.992Z</time></trkpt><trkpt lat="45.72866380638986" lon="11.465626415623698"><ele>185.0</ele><time>2026-05-03T15:59:03.992Z</time></trkpt><trkpt lat="45.728417306191474" lon="11.465686562750431"><ele>184.5</ele><time>2026-05-03T15:59:04.992Z</time></trkpt><trkpt lat="45.728158213385164" lon="11.465748156163361"><ele>184.0</ele><time>2026-05-03T15:59:05.992Z</time></trkpt><trkpt lat="45.727919639137056" lon="11.465800271551396"><ele>184.0</ele><time>2026-05-03T15:59:06.992Z</time></trkpt><trkpt lat="45.727696222544346" lon="11.46585554703718"><ele>184.0</ele><time>2026-05-03T15:59:07.992Z</time></trkpt><trkpt lat="45.727485498846896" lon="11.465909909060722"><ele>184.0</ele><time>2026-05-03T15:59:08.992Z</time></trkpt><trkpt lat="45.72728572952914" lon="11.465959860437906"><ele>184.0</ele><time>2026-05-03T15:59:09.992Z</time></trkpt><trkpt lat="45.727096067073305" lon="11.466016584366836"><ele>184.0</ele><time>2026-05-03T15:59:10.992Z</time></trkpt><trkpt lat="45.72691875090641" lon="11.466064501449312"><ele>184.0</ele><time>2026-05-03T15:59:11.992Z</time></trkpt><trkpt lat="45.726753344236016" lon="11.46610960853213"><ele>183.75</ele><time>2026-05-03T15:59:12.992Z</time></trkpt><trkpt lat="45.7266002087241" lon="11.466155026696295"><ele>183.5</ele><time>2026-05-03T15:59:13.992Z</time></trkpt><trkpt lat="45.72645427548591" lon="11.466199485916828"><ele>183.25</ele><time>2026-05-03T15:59:14.992Z</time></trkpt><trkpt lat="45.72631506478749" lon="11.46623678339624"><ele>183.0</ele><time>2026-05-03T15:59:15.992Z</time></trkpt><trkpt lat="45.72055395821601" lon="11.46827376116043"><ele>177.0</ele><time>2026-05-03T16:00:16.991Z</time></trkpt><trkpt lat="45.720355780305816" lon="11.468410071319171"><ele>171.0</ele><time>2026-05-03T16:00:17.991Z</time></trkpt><trkpt lat="45.720108922075106" lon="11.468535172859507"><ele>170.5</ele><time>2026-05-03T16:00:18.991Z</time></trkpt><trkpt lat="45.71985965713181" lon="11.468711091478221"><ele>170.0</ele><time>2026-05-03T16:00:19.991Z</time></trkpt><trkpt lat="45.719632367410505" lon="11.468835113965605"><ele>170.0</ele><time>2026-05-03T16:00:20.991Z</time></trkpt><trkpt lat="45.71942283863896" lon="11.468971078471665"><ele>170.0</ele><time>2026-05-03T16:00:21.991Z</time></trkpt><trkpt lat="45.71922379704399" lon="11.469091280137828"><ele>170.0</ele><time>2026-05-03T16:00:22.991Z</time></trkpt><trkpt lat="45.71903637496781" lon="11.469205681576694"><ele>169.33333333333331</ele><time>2026-05-03T16:00:23.991Z</time></trkpt><trkpt lat="45.71885928774896" lon="11.469326401664523"><ele>168.66666666666666</ele><time>2026-05-03T16:00:24.991Z</time></trkpt><trkpt lat="45.71868170750164" lon="11.469405766155989"><ele>168.0</ele><time>2026-05-03T16:00:25.991Z</time></trkpt><trkpt lat="45.71851697769284" lon="11.469513898324047"><ele>167.66666666666666</ele><time>2026-05-03T16:00:26.991Z</time></trkpt><trkpt lat="45.71835052306895" lon="11.469613720971848"><ele>167.33333333333331</ele><time>2026-05-03T16:00:27.991Z</time></trkpt><trkpt lat="45.7181742636425" lon="11.469721836041057"><ele>167.0</ele><time>2026-05-03T16:00:28.991Z</time></trkpt><trkpt lat="45.71799650390963" lon="11.469829423357437"><ele>167.0</ele><time>2026-05-03T16:00:29.991Z</time></trkpt><trkpt lat="45.71782031183497" lon="11.469937099512618"><ele>167.0</ele><time>2026-05-03T16:00:30.991Z</time></trkpt><trkpt lat="45.71764595881569" lon="11.47004357446347"><ele>167.0</ele><time>2026-05-03T16:00:31.991Z</time></trkpt><trkpt lat="45.71747840925032" lon="11.470147168587097"><ele>166.66666666666666</ele><time>2026-05-03T16:00:32.991Z</time></trkpt><trkpt lat="45.71731223057022" lon="11.47024963267224"><ele>166.33333333333334</ele><time>2026-05-03T16:00:33.991Z</time></trkpt><trkpt lat="45.717147637598494" lon="11.470357460852064"><ele>166.0</ele><time>2026-05-03T16:00:34.991Z</time></trkpt><trkpt lat="45.716972890422475" lon="11.470464099171204"><ele>164.66666666666669</ele><time>2026-05-03T16:00:35.991Z</time></trkpt><trkpt lat="45.71679722670447" lon="11.470570807453118"><ele>163.33333333333334</ele><time>2026-05-03T16:00:36.991Z</time></trkpt><trkpt lat="45.71662127495029" lon="11.470685361199655"><ele>162.0</ele><time>2026-05-03T16:00:37.991Z</time></trkpt><trkpt lat="45.716454317365134" lon="11.470794728368752"><ele>162.0</ele><time>2026-05-03T16:00:38.991Z</time></trkpt><trkpt lat="45.71630763929359" lon="11.470890064933647"><ele>162.0</ele><time>2026-05-03T16:00:39.991Z</time></trkpt><trkpt lat="45.716179374802834" lon="11.470958498877643"><ele>162.0</ele><time>2026-05-03T16:00:40.991Z</time></trkpt><trkpt lat="45.716060397758994" lon="11.47102607830188"><ele>162.0</ele><time>2026-05-03T16:00:41.991Z</time></trkpt><trkpt lat="45.715958549064894" lon="11.471087859514776"><ele>162.16666666666666</ele><time>2026-05-03T16:00:42.991Z</time></trkpt><trkpt lat="45.715870659144564" lon="11.471139675947379"><ele>162.33333333333334</ele><time>2026-05-03T16:00:43.991Z</time></trkpt><trkpt lat="45.71578280522807" lon="11.471181683921461"><ele>162.5</ele><time>2026-05-03T16:00:44.991Z</time></trkpt><trkpt lat="45.71569188696972" lon="11.471199217952995"><ele>162.66666666666669</ele><time>2026-05-03T16:00:45.991Z</time></trkpt><trkpt lat="45.7156116585316" lon="11.471230763761662"><ele>162.83333333333334</ele><time>2026-05-03T16:00:46.991Z</time></trkpt><trkpt lat="45.71555512806409" lon="11.471285093211716"><ele>163.0</ele><time>2026-05-03T16:00:47.991Z</time></trkpt><trkpt lat="45.71556501117584" lon="11.471456823639388"><ele>163.2</ele><time>2026-05-03T16:00:49.991Z</time></trkpt><trkpt lat="45.715619207115076" lon="11.471533274486799"><ele>163.4</ele><time>2026-05-03T16:00:50.991Z</time></trkpt><trkpt lat="45.71571102382862" lon="11.471574034400218"><ele>163.6</ele><time>2026-05-03T16:00:51.991Z</time></trkpt><trkpt lat="45.71577062978223" lon="11.471741246658242"><ele>163.79999999999998</ele><time>2026-05-03T16:00:52.991Z</time></trkpt><trkpt lat="45.71582244291404" lon="11.471887378200485"><ele>164.0</ele><time>2026-05-03T16:00:53.991Z</time></trkpt><trkpt lat="45.715863144256936" lon="11.472045007555005"><ele>163.25</ele><time>2026-05-03T16:00:54.991Z</time></trkpt><trkpt lat="45.71589667532887" lon="11.472221346236799"><ele>162.5</ele><time>2026-05-03T16:00:55.991Z</time></trkpt><trkpt lat="45.715910429502216" lon="11.472414434987146"><ele>161.75</ele><time>2026-05-03T16:00:56.991Z</time></trkpt><trkpt lat="45.7158968392081" lon="11.472629791450961"><ele>161.0</ele><time>2026-05-03T16:00:57.991Z</time></trkpt><trkpt lat="45.71585221100313" lon="11.47285981526468"><ele>160.66666666666666</ele><time>2026-05-03T16:00:58.991Z</time></trkpt><trkpt lat="45.715781444759045" lon="11.473097412104895"><ele>160.33333333333334</ele><time>2026-05-03T16:00:59.991Z</time></trkpt><trkpt lat="45.71570385995" lon="11.473335654628949"><ele>160.0</ele><time>2026-05-03T16:01:00.991Z</time></trkpt><trkpt lat="45.71564146326139" lon="11.473573896715767"><ele>160.0</ele><time>2026-05-03T16:01:01.991Z</time></trkpt><trkpt lat="45.71557532987242" lon="11.473824529063146"><ele>160.0</ele><time>2026-05-03T16:01:02.991Z</time></trkpt><trkpt lat="45.71551030472396" lon="11.474087345089378"><ele>160.0</ele><time>2026-05-03T16:01:03.991Z</time></trkpt><trkpt lat="45.71544104299575" lon="11.474360359538672"><ele>159.66666666666669</ele><time>2026-05-03T16:01:04.991Z</time></trkpt><trkpt lat="45.71536448987548" lon="11.474647870018195"><ele>159.33333333333334</ele><time>2026-05-03T16:01:05.991Z</time></trkpt><trkpt lat="45.71528240127431" lon="11.47495304004877"><ele>159.0</ele><time>2026-05-03T16:01:06.991Z</time></trkpt><trkpt lat="45.71520297949965" lon="11.475266011685457"><ele>158.0</ele><time>2026-05-03T16:01:07.991Z</time></trkpt><trkpt lat="45.715115951474324" lon="11.475588812914559"><ele>157.0</ele><time>2026-05-03T16:01:08.991Z</time></trkpt><trkpt lat="45.715026064720014" lon="11.475917491363274"><ele>157.0</ele><time>2026-05-03T16:01:09.991Z</time></trkpt><trkpt lat="45.71493596901323" lon="11.476238898727217"><ele>157.0</ele><time>2026-05-03T16:01:10.991Z</time></trkpt><trkpt lat="45.714849908834815" lon="11.476554344979304"><ele>157.0</ele><time>2026-05-03T16:01:11.991Z</time></trkpt><trkpt lat="45.71476692443764" lon="11.47685196603054"><ele>157.0</ele><time>2026-05-03T16:01:12.991Z</time></trkpt><trkpt lat="45.71468893514846" lon="11.477142142703952"><ele>157.0</ele><time>2026-05-03T16:01:13.991Z</time></trkpt><trkpt lat="45.71461037373626" lon="11.4774342296783"><ele>156.0</ele><time>2026-05-03T16:01:14.991Z</time></trkpt><trkpt lat="45.71453194482839" lon="11.477727457431213"><ele>155.0</ele><time>2026-05-03T16:01:15.991Z</time></trkpt><trkpt lat="45.7123804470688" lon="11.483463531649294"><ele>154.16666666666666</ele><time>2026-05-03T16:02:16.99Z</time></trkpt><trkpt lat="45.71233613620892" lon="11.483546016028885"><ele>153.33333333333331</ele><time>2026-05-03T16:03:05.99Z</time></trkpt><trkpt lat="45.71229927722059" lon="11.483629054041144"><ele>152.5</ele><time>2026-05-03T16:03:07.99Z</time></trkpt><trkpt lat="45.712232001731444" lon="11.48374306104406"><ele>151.66666666666666</ele><time>2026-05-03T16:03:09.99Z</time></trkpt><trkpt lat="45.71219594394599" lon="11.483818412465473"><ele>150.83333333333334</ele><time>2026-05-03T16:03:10.99Z</time></trkpt><trkpt lat="45.71216522919423" lon="11.483899484808175"><ele>150.0</ele><time>2026-05-03T16:03:11.99Z</time></trkpt><trkpt lat="45.71211151194994" lon="11.483979560638327"><ele>149.66666666666666</ele><time>2026-05-03T16:03:13.99Z</time></trkpt><trkpt lat="45.712213385928145" lon="11.484136614423983"><ele>149.33333333333331</ele><time>2026-05-03T16:03:14.99Z</time></trkpt><trkpt lat="45.71226890820299" lon="11.484211243623474"><ele>149.0</ele><time>2026-05-03T16:03:15.993Z</time></trkpt><trkpt lat="45.71429659138492" lon="11.489369760187154"><ele>148.5</ele><time>2026-05-03T16:04:16.993Z</time></trkpt><trkpt lat="45.71417591896866" lon="11.489477788738732"><ele>148.0</ele><time>2026-05-03T16:04:17.993Z</time></trkpt><trkpt lat="45.71406341101591" lon="11.489597932690268"><ele>147.5</ele><time>2026-05-03T16:04:18.993Z</time></trkpt><trkpt lat="45.71394806968859" lon="11.489695316950392"><ele>147.0</ele><time>2026-05-03T16:04:19.993Z</time></trkpt><trkpt lat="45.71384251185094" lon="11.489806493182238"><ele>147.0</ele><time>2026-05-03T16:04:20.993Z</time></trkpt><trkpt lat="45.7137270198174" lon="11.489910734060505"><ele>147.0</ele><time>2026-05-03T16:04:21.993Z</time></trkpt><trkpt lat="45.71361629713265" lon="11.490026202495777"><ele>147.0</ele><time>2026-05-03T16:04:22.993Z</time></trkpt><trkpt lat="45.71350365881685" lon="11.490120834009726"><ele>147.0</ele><time>2026-05-03T16:04:23.993Z</time></trkpt><trkpt lat="45.713396501495886" lon="11.490225325302701"><ele>147.0</ele><time>2026-05-03T16:04:24.993Z</time></trkpt><trkpt lat="45.71328620900002" lon="11.490315245690057"><ele>147.0</ele><time>2026-05-03T16:04:25.993Z</time></trkpt><trkpt lat="45.71318485596911" lon="11.490426508979223"><ele>147.0</ele><time>2026-05-03T16:04:26.993Z</time></trkpt><trkpt lat="45.71307756472708" lon="11.49052257099716"><ele>147.0</ele><time>2026-05-03T16:04:27.993Z</time></trkpt><trkpt lat="45.71297178958746" lon="11.49061724431562"><ele>146.75</ele><time>2026-05-03T16:04:28.993Z</time></trkpt><trkpt lat="45.712866295731146" lon="11.490713184112463"><ele>146.5</ele><time>2026-05-03T16:04:29.993Z</time></trkpt><trkpt lat="45.71276256242712" lon="11.490801855228156"><ele>146.25</ele><time>2026-05-03T16:04:30.993Z</time></trkpt><trkpt lat="45.712662740151664" lon="11.49089241731304"><ele>146.0</ele><time>2026-05-03T16:04:31.993Z</time></trkpt><trkpt lat="45.71257713580785" lon="11.490976586180226"><ele>146.0</ele><time>2026-05-03T16:04:32.993Z</time></trkpt><trkpt lat="45.71247574575389" lon="11.491063263258038"><ele>146.0</ele><time>2026-05-03T16:04:33.993Z</time></trkpt><trkpt lat="45.71236902927979" lon="11.491162300139505"><ele>146.0</ele><time>2026-05-03T16:04:34.993Z</time></trkpt><trkpt lat="45.712265557931254" lon="11.491257967075086"><ele>146.0</ele><time>2026-05-03T16:04:35.993Z</time></trkpt><trkpt lat="45.71216933884115" lon="11.491346928740688"><ele>145.75</ele><time>2026-05-03T16:04:36.993Z</time></trkpt><trkpt lat="45.71206883777995" lon="11.491427399460557"><ele>145.5</ele><time>2026-05-03T16:04:37.993Z</time></trkpt><trkpt lat="45.711967590615224" lon="11.491518618179285"><ele>145.25</ele><time>2026-05-03T16:04:38.993Z</time></trkpt><trkpt lat="45.71186841967881" lon="11.491611649896285"><ele>145.0</ele><time>2026-05-03T16:04:39.993Z</time></trkpt><trkpt lat="45.71176603405096" lon="11.491707272514475"><ele>145.0</ele><time>2026-05-03T16:04:40.993Z</time></trkpt><trkpt lat="45.711656668808864" lon="11.491809663712687"><ele>145.0</ele><time>2026-05-03T16:04:41.993Z</time></trkpt><trkpt lat="45.71154863698544" lon="11.491911571124872"><ele>145.0</ele><time>2026-05-03T16:04:42.993Z</time></trkpt><trkpt lat="45.71143826178366" lon="11.492018023364698"><ele>145.0</ele><time>2026-05-03T16:04:43.993Z</time></trkpt><trkpt lat="45.711320781087664" lon="11.492134675581733"><ele>144.75</ele><time>2026-05-03T16:04:44.993Z</time></trkpt><trkpt lat="45.71120386276948" lon="11.492244735683187"><ele>144.5</ele><time>2026-05-03T16:04:45.993Z</time></trkpt><trkpt lat="45.71109015434044" lon="11.492350668263843"><ele>144.25</ele><time>2026-05-03T16:04:46.993Z</time></trkpt><trkpt lat="45.71097892216205" lon="11.492454453049792"><ele>144.0</ele><time>2026-05-03T16:04:47.993Z</time></trkpt><trkpt lat="45.71086624605324" lon="11.49256078844001"><ele>144.0</ele><time>2026-05-03T16:04:48.993Z</time></trkpt><trkpt lat="45.71075623246955" lon="11.49266599670185"><ele>144.0</ele><time>2026-05-03T16:04:49.993Z</time></trkpt><trkpt lat="45.710649142308164" lon="11.492764705727838"><ele>144.0</ele><time>2026-05-03T16:04:50.993Z</time></trkpt><trkpt lat="45.71055881206819" lon="11.492855462414981"><ele>144.0</ele><time>2026-05-03T16:04:51.993Z</time></trkpt><trkpt lat="45.710484821388256" lon="11.492929379888958"><ele>144.0</ele><time>2026-05-03T16:04:52.993Z</time></trkpt><trkpt lat="45.71041953860613" lon="11.492989364175855"><ele>144.0</ele><time>2026-05-03T16:04:53.993Z</time></trkpt><trkpt lat="45.71036095208489" lon="11.493037327039287"><ele>144.0</ele><time>2026-05-03T16:04:54.993Z</time></trkpt><trkpt lat="45.710270289929646" lon="11.49310329781403"><ele>144.0</ele><time>2026-05-03T16:04:56.993Z</time></trkpt><trkpt lat="45.710180548908056" lon="11.493131539484958"><ele>144.0</ele><time>2026-05-03T16:04:58.993Z</time></trkpt><trkpt lat="45.7100806208819" lon="11.493145668001452"><ele>144.0</ele><time>2026-05-03T16:05:00.993Z</time></trkpt><trkpt lat="45.71004477280172" lon="11.493276612409513"><ele>144.0</ele><time>2026-05-03T16:05:01.993Z</time></trkpt><trkpt lat="45.71003211116122" lon="11.493370864242367"><ele>144.0</ele><time>2026-05-03T16:05:02.993Z</time></trkpt><trkpt lat="45.710113302798845" lon="11.493507197535257"><ele>144.0</ele><time>2026-05-03T16:05:04.993Z</time></trkpt><trkpt lat="45.710178802912935" lon="11.493527132331831"><ele>144.0</ele><time>2026-05-03T16:05:05.993Z</time></trkpt><trkpt lat="45.71028199399008" lon="11.493650091667467"><ele>144.0</ele><time>2026-05-03T16:05:07.993Z</time></trkpt><trkpt lat="45.7102907397774" lon="11.493767087550758"><ele>143.6</ele><time>2026-05-03T16:05:08.993Z</time></trkpt><trkpt lat="45.710338352701726" lon="11.493885785649363"><ele>143.2</ele><time>2026-05-03T16:05:09.993Z</time></trkpt><trkpt lat="45.71037135356595" lon="11.494023227738719"><ele>142.79999999999998</ele><time>2026-05-03T16:05:10.992Z</time></trkpt><trkpt lat="45.71040970414185" lon="11.494171594948659"><ele>142.4</ele><time>2026-05-03T16:05:11.992Z</time></trkpt><trkpt lat="45.710456192842216" lon="11.494328689191043"><ele>142.0</ele><time>2026-05-03T16:05:12.992Z</time></trkpt><trkpt lat="45.710502883145374" lon="11.494496285634932"><ele>141.0</ele><time>2026-05-03T16:05:13.992Z</time></trkpt><trkpt lat="45.71054627261305" lon="11.494657852496386"><ele>140.0</ele><time>2026-05-03T16:05:14.992Z</time></trkpt><trkpt lat="45.710587820995265" lon="11.494818056692518"><ele>139.0</ele><time>2026-05-03T16:05:15.992Z</time></trkpt><trkpt lat="45.70755782054052" lon="11.504631419309392"><ele>135.0</ele><time>2026-05-03T16:06:16.992Z</time></trkpt><trkpt lat="45.70739825857134" lon="11.504861934896107"><ele>131.0</ele><time>2026-05-03T16:06:17.992Z</time></trkpt><trkpt lat="45.707248520016314" lon="11.505075980573338"><ele>127.0</ele><time>2026-05-03T16:06:18.992Z</time></trkpt><trkpt lat="45.70711088350209" lon="11.505283062729577"><ele>126.66666666666667</ele><time>2026-05-03T16:06:19.992Z</time></trkpt><trkpt lat="45.70697526098299" lon="11.505494110342282"><ele>126.33333333333334</ele><time>2026-05-03T16:06:20.992Z</time></trkpt><trkpt lat="45.70684207383328" lon="11.505693255120265"><ele>126.0</ele><time>2026-05-03T16:06:21.992Z</time></trkpt><trkpt lat="45.706715733877815" lon="11.505892538184893"><ele>126.0</ele><time>2026-05-03T16:06:22.992Z</time></trkpt><trkpt lat="45.70659714899026" lon="11.506079375214835"><ele>126.0</ele><time>2026-05-03T16:06:23.992Z</time></trkpt><trkpt lat="45.70648106638721" lon="11.50625946110053"><ele>126.0</ele><time>2026-05-03T16:06:24.992Z</time></trkpt><trkpt lat="45.706362525509675" lon="11.506448654070963"><ele>126.0</ele><time>2026-05-03T16:06:25.992Z</time></trkpt><trkpt lat="45.706243961039284" lon="11.506645438023323"><ele>126.0</ele><time>2026-05-03T16:06:26.992Z</time></trkpt><trkpt lat="45.7061197115032" lon="11.506840782352581"><ele>126.0</ele><time>2026-05-03T16:06:27.992Z</time></trkpt><trkpt lat="45.705989119419435" lon="11.507039767644814"><ele>125.33333333333334</ele><time>2026-05-03T16:06:28.992Z</time></trkpt><trkpt lat="45.70585356700223" lon="11.50724408825945"><ele>124.66666666666667</ele><time>2026-05-03T16:06:29.992Z</time></trkpt><trkpt lat="45.70571907084116" lon="11.507462316966173"><ele>124.0</ele><time>2026-05-03T16:06:30.992Z</time></trkpt><trkpt lat="45.70558242097182" lon="11.507682494002418"><ele>123.5</ele><time>2026-05-03T16:06:31.992Z</time></trkpt><trkpt lat="45.70543093783605" lon="11.50792706209674"><ele>123.0</ele><time>2026-05-03T16:06:32.992Z</time></trkpt><trkpt lat="45.705244592261046" lon="11.508186797667298"><ele>121.5</ele><time>2026-05-03T16:06:33.992Z</time></trkpt><trkpt lat="45.70506688651487" lon="11.508463141293946"><ele>120.0</ele><time>2026-05-03T16:06:34.992Z</time></trkpt><trkpt lat="45.704892528389365" lon="11.508734279076014"><ele>119.5</ele><time>2026-05-03T16:06:35.992Z</time></trkpt><trkpt lat="45.70473309152717" lon="11.50900874264788"><ele>119.0</ele><time>2026-05-03T16:06:36.992Z</time></trkpt><trkpt lat="45.70457551858937" lon="11.509261261266575"><ele>119.0</ele><time>2026-05-03T16:06:37.992Z</time></trkpt><trkpt lat="45.704421472527635" lon="11.50949723696523"><ele>119.0</ele><time>2026-05-03T16:06:38.992Z</time></trkpt><trkpt lat="45.704274927879155" lon="11.509719459070789"><ele>119.0</ele><time>2026-05-03T16:06:39.992Z</time></trkpt><trkpt lat="45.70412484292424" lon="11.50993970845898"><ele>118.66666666666666</ele><time>2026-05-03T16:06:40.992Z</time></trkpt><trkpt lat="45.7039713138039" lon="11.510154331073613"><ele>118.33333333333334</ele><time>2026-05-03T16:06:41.992Z</time></trkpt><trkpt lat="45.70381759370973" lon="11.510376212869755"><ele>118.0</ele><time>2026-05-03T16:06:42.992Z</time></trkpt><trkpt lat="45.70366359646737" lon="11.510603169409162"><ele>118.33333333333334</ele><time>2026-05-03T16:06:43.992Z</time></trkpt><trkpt lat="45.703509061959494" lon="11.51082941978695"><ele>118.66666666666666</ele><time>2026-05-03T16:06:44.992Z</time></trkpt><trkpt lat="45.70335558682093" lon="11.511062415454134"><ele>119.0</ele><time>2026-05-03T16:06:45.992Z</time></trkpt><trkpt lat="45.703206160905445" lon="11.51129864086872"><ele>119.0</ele><time>2026-05-03T16:06:46.992Z</time></trkpt><trkpt lat="45.70306851320092" lon="11.511535174025004"><ele>119.0</ele><time>2026-05-03T16:06:47.992Z</time></trkpt><trkpt lat="45.70293538709148" lon="11.51178131091887"><ele>119.0</ele><time>2026-05-03T16:06:48.992Z</time></trkpt><trkpt lat="45.702786478475765" lon="11.511990482660115"><ele>118.66666666666666</ele><time>2026-05-03T16:06:49.992Z</time></trkpt><trkpt lat="45.70265731815823" lon="11.512203755425153"><ele>118.33333333333334</ele><time>2026-05-03T16:06:50.992Z</time></trkpt><trkpt lat="45.7025315937777" lon="11.51240458108174"><ele>118.0</ele><time>2026-05-03T16:06:51.992Z</time></trkpt><trkpt lat="45.70241219383275" lon="11.512577182122618"><ele>118.0</ele><time>2026-05-03T16:06:52.992Z</time></trkpt><trkpt lat="45.70229096820281" lon="11.512729839368218"><ele>118.0</ele><time>2026-05-03T16:06:53.992Z</time></trkpt><trkpt lat="45.702174707669776" lon="11.512876409044841"><ele>118.0</ele><time>2026-05-03T16:06:54.992Z</time></trkpt><trkpt lat="45.70203765539308" lon="11.513000802794611"><ele>117.0</ele><time>2026-05-03T16:06:55.992Z</time></trkpt><trkpt lat="45.70188376573254" lon="11.513088369009822"><ele>116.0</ele><time>2026-05-03T16:06:56.992Z</time></trkpt><trkpt lat="45.701717772838876" lon="11.513147718368078"><ele>115.0</ele><time>2026-05-03T16:06:57.992Z</time></trkpt><trkpt lat="45.70154702014218" lon="11.513179369854942"><ele>115.0</ele><time>2026-05-03T16:06:58.992Z</time></trkpt><trkpt lat="45.70138972603862" lon="11.513213898554508"><ele>115.0</ele><time>2026-05-03T16:06:59.992Z</time></trkpt><trkpt lat="45.70126240355848" lon="11.513283628893186"><ele>115.0</ele><time>2026-05-03T16:07:00.992Z</time></trkpt><trkpt lat="45.70115205578133" lon="11.513408824907632"><ele>115.0</ele><time>2026-05-03T16:07:01.992Z</time></trkpt><trkpt lat="45.70104948175544" lon="11.51357895991931"><ele>114.0</ele><time>2026-05-03T16:07:02.992Z</time></trkpt><trkpt lat="45.70093071363251" lon="11.513755750445972"><ele>113.0</ele><time>2026-05-03T16:07:03.992Z</time></trkpt><trkpt lat="45.70078185899815" lon="11.513906931810908"><ele>112.0</ele><time>2026-05-03T16:07:04.992Z</time></trkpt><trkpt lat="45.700611934156385" lon="11.514031611040114"><ele>112.0</ele><time>2026-05-03T16:07:05.992Z</time></trkpt><trkpt lat="45.700436332157494" lon="11.51416159083462"><ele>112.0</ele><time>2026-05-03T16:07:06.992Z</time></trkpt><trkpt lat="45.7002502925167" lon="11.514297956135483"><ele>112.0</ele><time>2026-05-03T16:07:07.992Z</time></trkpt><trkpt lat="45.70006953637926" lon="11.514421498248941"><ele>111.66666666666667</ele><time>2026-05-03T16:07:08.992Z</time></trkpt><trkpt lat="45.699877355717206" lon="11.514557126158458"><ele>111.33333333333334</ele><time>2026-05-03T16:07:09.992Z</time></trkpt><trkpt lat="45.69968067046485" lon="11.514693545280931"><ele>111.0</ele><time>2026-05-03T16:07:10.992Z</time></trkpt><trkpt lat="45.699466784944" lon="11.514802500460467"><ele>111.0</ele><time>2026-05-03T16:07:11.992Z</time></trkpt><trkpt lat="45.69922172074232" lon="11.514875879100929"><ele>111.0</ele><time>2026-05-03T16:07:12.992Z</time></trkpt><trkpt lat="45.698954095737385" lon="11.514907445082473"><ele>111.0</ele><time>2026-05-03T16:07:13.992Z</time></trkpt><trkpt lat="45.69868857853573" lon="11.514898872823336"><ele>111.0</ele><time>2026-05-03T16:07:14.992Z</time></trkpt><trkpt lat="45.69844159446946" lon="11.514886959903302"><ele>96.0</ele><time>2026-05-03T16:07:15.992Z</time></trkpt><trkpt lat="45.68826236976727" lon="11.51378106822674"><ele>96.0</ele><time>2026-05-03T16:08:16.991Z</time></trkpt><trkpt lat="45.688182821851974" lon="11.513807293340241"><ele>96.0</ele><time>2026-05-03T16:08:20.992Z</time></trkpt><trkpt lat="45.688138957710045" lon="11.514007427258324"><ele>96.0</ele><time>2026-05-03T16:08:22.991Z</time></trkpt><trkpt lat="45.688108215507796" lon="11.514142310451737"><ele>96.0</ele><time>2026-05-03T16:08:23.991Z</time></trkpt><trkpt lat="45.68807548078742" lon="11.514316173679166"><ele>96.0</ele><time>2026-05-03T16:08:24.991Z</time></trkpt><trkpt lat="45.68803215465464" lon="11.514534867631317"><ele>96.0</ele><time>2026-05-03T16:08:25.991Z</time></trkpt><trkpt lat="45.68796102697957" lon="11.514790023661375"><ele>96.0</ele><time>2026-05-03T16:08:26.992Z</time></trkpt><trkpt lat="45.687906576609144" lon="11.515085296125768"><ele>95.5</ele><time>2026-05-03T16:08:27.992Z</time></trkpt><trkpt lat="45.687842135607994" lon="11.515385829163142"><ele>95.0</ele><time>2026-05-03T16:08:28.992Z</time></trkpt><trkpt lat="45.68777634742069" lon="11.515706934897175"><ele>95.0</ele><time>2026-05-03T16:08:29.991Z</time></trkpt><trkpt lat="45.68771061681033" lon="11.515997160988277"><ele>95.0</ele><time>2026-05-03T16:08:30.991Z</time></trkpt><trkpt lat="45.687649278443416" lon="11.51628170820168"><ele>95.0</ele><time>2026-05-03T16:08:31.991Z</time></trkpt><trkpt lat="45.68757295469315" lon="11.516560582595933"><ele>95.33333333333334</ele><time>2026-05-03T16:08:32.991Z</time></trkpt><trkpt lat="45.68751046203375" lon="11.516841118323429"><ele>95.66666666666667</ele><time>2026-05-03T16:08:33.991Z</time></trkpt><trkpt lat="45.68744976899933" lon="11.517111033164023"><ele>96.0</ele><time>2026-05-03T16:08:34.991Z</time></trkpt><trkpt lat="45.687389325961504" lon="11.517379646134764"><ele>95.33333333333333</ele><time>2026-05-03T16:08:35.991Z</time></trkpt><trkpt lat="45.68732662351214" lon="11.517650767269485"><ele>94.66666666666666</ele><time>2026-05-03T16:08:36.991Z</time></trkpt><trkpt lat="45.687264609670564" lon="11.517925431035762"><ele>94.0</ele><time>2026-05-03T16:08:37.991Z</time></trkpt><trkpt lat="45.68720731122263" lon="11.518206161173795"><ele>94.0</ele><time>2026-05-03T16:08:38.991Z</time></trkpt><trkpt lat="45.68718008274694" lon="11.518500387956793"><ele>94.0</ele><time>2026-05-03T16:08:39.991Z</time></trkpt><trkpt lat="45.687142345942505" lon="11.518812661532236"><ele>94.0</ele><time>2026-05-03T16:08:40.991Z</time></trkpt><trkpt lat="45.687136755371206" lon="11.51915759369382"><ele>93.5</ele><time>2026-05-03T16:08:41.991Z</time></trkpt><trkpt lat="45.687143999280984" lon="11.5195240124016"><ele>93.0</ele><time>2026-05-03T16:08:42.991Z</time></trkpt><trkpt lat="45.68715402334288" lon="11.519889930008354"><ele>93.0</ele><time>2026-05-03T16:08:43.991Z</time></trkpt><trkpt lat="45.68717911899601" lon="11.520256733320492"><ele>93.0</ele><time>2026-05-03T16:08:44.991Z</time></trkpt><trkpt lat="45.68718916610611" lon="11.520624209226714"><ele>93.0</ele><time>2026-05-03T16:08:45.991Z</time></trkpt><trkpt lat="45.68720292076883" lon="11.520987899370335"><ele>93.0</ele><time>2026-05-03T16:08:46.991Z</time></trkpt><trkpt lat="45.687214657251495" lon="11.521350531257857"><ele>93.0</ele><time>2026-05-03T16:08:47.991Z</time></trkpt><trkpt lat="45.68722575803853" lon="11.521711170956332"><ele>93.0</ele><time>2026-05-03T16:08:48.991Z</time></trkpt><trkpt lat="45.687235911973026" lon="11.522058964791213"><ele>93.0</ele><time>2026-05-03T16:08:49.991Z</time></trkpt><trkpt lat="45.6872325452473" lon="11.52238271615397"><ele>93.0</ele><time>2026-05-03T16:08:50.991Z</time></trkpt><trkpt lat="45.68723880750898" lon="11.5226615955298"><ele>93.0</ele><time>2026-05-03T16:08:51.991Z</time></trkpt><trkpt lat="45.687230604259604" lon="11.522885778733917"><ele>92.33333333333333</ele><time>2026-05-03T16:08:52.991Z</time></trkpt><trkpt lat="45.68721055446396" lon="11.523104274697893"><ele>91.66666666666666</ele><time>2026-05-03T16:08:53.991Z</time></trkpt><trkpt lat="45.687153532401844" lon="11.523320927904857"><ele>91.0</ele><time>2026-05-03T16:08:54.991Z</time></trkpt><trkpt lat="45.6870820809321" lon="11.523555536504597"><ele>91.33333333333333</ele><time>2026-05-03T16:08:55.991Z</time></trkpt><trkpt lat="45.68700511614536" lon="11.523801813483843"><ele>91.66666666666667</ele><time>2026-05-03T16:08:56.991Z</time></trkpt><trkpt lat="45.68692653300926" lon="11.524058123145338"><ele>92.0</ele><time>2026-05-03T16:08:57.991Z</time></trkpt><trkpt lat="45.68684329454857" lon="11.524324020540659"><ele>92.33333333333334</ele><time>2026-05-03T16:08:58.991Z</time></trkpt><trkpt lat="45.68677318549309" lon="11.524603024963257"><ele>92.66666666666667</ele><time>2026-05-03T16:08:59.991Z</time></trkpt><trkpt lat="45.68668786393029" lon="11.524874272321448"><ele>93.0</ele><time>2026-05-03T16:09:00.991Z</time></trkpt><trkpt lat="45.68660062192414" lon="11.525148767417326"><ele>93.66666666666667</ele><time>2026-05-03T16:09:01.991Z</time></trkpt><trkpt lat="45.68651399324772" lon="11.525415523467855"><ele>94.33333333333334</ele><time>2026-05-03T16:09:02.991Z</time></trkpt><trkpt lat="45.68643227642853" lon="11.525671933568093"><ele>95.0</ele><time>2026-05-03T16:09:03.991Z</time></trkpt><trkpt lat="45.68635443938555" lon="11.525911609029144"><ele>95.0</ele><time>2026-05-03T16:09:04.991Z</time></trkpt><trkpt lat="45.68628577264024" lon="11.526142872107567"><ele>95.0</ele><time>2026-05-03T16:09:05.991Z</time></trkpt><trkpt lat="45.68623163957959" lon="11.526385240926933"><ele>95.0</ele><time>2026-05-03T16:09:06.991Z</time></trkpt><trkpt lat="45.68619993751093" lon="11.526647104019204"><ele>95.0</ele><time>2026-05-03T16:09:07.991Z</time></trkpt><trkpt lat="45.68618112293352" lon="11.52692460583529"><ele>95.0</ele><time>2026-05-03T16:09:08.991Z</time></trkpt><trkpt lat="45.686176499951074" lon="11.52720743004198"><ele>95.0</ele><time>2026-05-03T16:09:09.991Z</time></trkpt><trkpt lat="45.68616735133236" lon="11.527479508545074"><ele>94.33333333333334</ele><time>2026-05-03T16:09:10.991Z</time></trkpt><trkpt lat="45.68616005213568" lon="11.527751525583234"><ele>93.66666666666667</ele><time>2026-05-03T16:09:11.991Z</time></trkpt><trkpt lat="45.686153697170326" lon="11.528015704580335"><ele>93.0</ele><time>2026-05-03T16:09:12.991Z</time></trkpt><trkpt lat="45.68615288995494" lon="11.528258762344048"><ele>93.0</ele><time>2026-05-03T16:09:13.991Z</time></trkpt><trkpt lat="45.68615000585538" lon="11.528494940693776"><ele>93.0</ele><time>2026-05-03T16:09:14.991Z</time></trkpt><trkpt lat="45.68614486277281" lon="11.528720338262273"><ele>93.0</ele><time>2026-05-03T16:09:15.991Z</time></trkpt><trkpt lat="45.68172797932172" lon="11.538245571891842"><ele>93.0</ele><time>2026-05-03T16:10:16.991Z</time></trkpt><trkpt lat="45.68165381286025" lon="11.538539802644891"><ele>93.0</ele><time>2026-05-03T16:10:17.991Z</time></trkpt><trkpt lat="45.68157483178045" lon="11.53884724186389"><ele>93.0</ele><time>2026-05-03T16:10:18.991Z</time></trkpt><trkpt lat="45.681491312621766" lon="11.539169286079177"><ele>92.5</ele><time>2026-05-03T16:10:19.99Z</time></trkpt><trkpt lat="45.68139888909902" lon="11.539493693215917"><ele>92.0</ele><time>2026-05-03T16:10:20.99Z</time></trkpt><trkpt lat="45.681309444717186" lon="11.53982494856691"><ele>92.0</ele><time>2026-05-03T16:10:21.99Z</time></trkpt><trkpt lat="45.68121946349376" lon="11.540152105527545"><ele>92.0</ele><time>2026-05-03T16:10:22.99Z</time></trkpt><trkpt lat="45.681133983173844" lon="11.540472523369164"><ele>92.5</ele><time>2026-05-03T16:10:23.991Z</time></trkpt><trkpt lat="45.68104960187926" lon="11.540788402929541"><ele>93.0</ele><time>2026-05-03T16:10:24.991Z</time></trkpt><trkpt lat="45.68096815021583" lon="11.541101691540897"><ele>93.0</ele><time>2026-05-03T16:10:25.99Z</time></trkpt><trkpt lat="45.68088923414811" lon="11.541412374403047"><ele>93.0</ele><time>2026-05-03T16:10:26.99Z</time></trkpt><trkpt lat="45.68081216948283" lon="11.541714521009991"><ele>93.0</ele><time>2026-05-03T16:10:27.99Z</time></trkpt><trkpt lat="45.680734735394566" lon="11.542001392536276"><ele>93.0</ele><time>2026-05-03T16:10:28.991Z</time></trkpt><trkpt lat="45.68065585693396" lon="11.542289337420637"><ele>93.0</ele><time>2026-05-03T16:10:29.99Z</time></trkpt><trkpt lat="45.68058088058" lon="11.54258032520179"><ele>93.33333333333333</ele><time>2026-05-03T16:10:30.99Z</time></trkpt><trkpt lat="45.68050091517449" lon="11.542878360312267"><ele>93.66666666666666</ele><time>2026-05-03T16:10:31.991Z</time></trkpt><trkpt lat="45.68040832895695" lon="11.54317215950969"><ele>94.0</ele><time>2026-05-03T16:10:32.99Z</time></trkpt><trkpt lat="45.68030030711173" lon="11.543437769837125"><ele>94.0</ele><time>2026-05-03T16:10:33.99Z</time></trkpt><trkpt lat="45.68019164497422" lon="11.543684156664604"><ele>94.0</ele><time>2026-05-03T16:10:34.99Z</time></trkpt><trkpt lat="45.68007901382715" lon="11.543931035104364"><ele>94.0</ele><time>2026-05-03T16:10:35.99Z</time></trkpt><trkpt lat="45.67996629583039" lon="11.544178145373495"><ele>93.66666666666666</ele><time>2026-05-03T16:10:36.99Z</time></trkpt><trkpt lat="45.679853861212685" lon="11.544428940808183"><ele>93.33333333333333</ele><time>2026-05-03T16:10:37.99Z</time></trkpt><trkpt lat="45.679741076184015" lon="11.544686155634182"><ele>93.0</ele><time>2026-05-03T16:10:38.99Z</time></trkpt><trkpt lat="45.67962611439968" lon="11.544944487241075"><ele>93.0</ele><time>2026-05-03T16:10:39.99Z</time></trkpt><trkpt lat="45.67951275955209" lon="11.545203808787988"><ele>93.0</ele><time>2026-05-03T16:10:40.99Z</time></trkpt><trkpt lat="45.67940687738105" lon="11.545446594586496"><ele>93.0</ele><time>2026-05-03T16:10:41.99Z</time></trkpt><trkpt lat="45.67930518354434" lon="11.545675536800857"><ele>92.66666666666667</ele><time>2026-05-03T16:10:42.99Z</time></trkpt><trkpt lat="45.679209594701724" lon="11.54589099021474"><ele>92.33333333333334</ele><time>2026-05-03T16:10:43.99Z</time></trkpt><trkpt lat="45.6791047581932" lon="11.54608510297259"><ele>92.0</ele><time>2026-05-03T16:10:44.99Z</time></trkpt><trkpt lat="45.67901372261623" lon="11.546283111327677"><ele>92.0</ele><time>2026-05-03T16:10:45.99Z</time></trkpt><trkpt lat="45.678917575211194" lon="11.546491189790528"><ele>92.0</ele><time>2026-05-03T16:10:46.99Z</time></trkpt><trkpt lat="45.67881790946867" lon="11.546709004651879"><ele>92.0</ele><time>2026-05-03T16:10:47.99Z</time></trkpt><trkpt lat="45.67873737064432" lon="11.54695369996488"><ele>92.33333333333334</ele><time>2026-05-03T16:10:48.99Z</time></trkpt><trkpt lat="45.67864567903229" lon="11.547184085114607"><ele>92.66666666666667</ele><time>2026-05-03T16:10:49.99Z</time></trkpt><trkpt lat="45.67855906730862" lon="11.547391066127632"><ele>93.0</ele><time>2026-05-03T16:10:50.99Z</time></trkpt><trkpt lat="45.67846611333225" lon="11.54759072795317"><ele>93.0</ele><time>2026-05-03T16:10:51.99Z</time></trkpt><trkpt lat="45.678364614946" lon="11.547804451315006"><ele>93.0</ele><time>2026-05-03T16:10:52.99Z</time></trkpt><trkpt lat="45.678230526231296" lon="11.547989190090838"><ele>93.0</ele><time>2026-05-03T16:10:53.99Z</time></trkpt><trkpt lat="45.67813703058168" lon="11.548192197055153"><ele>93.0</ele><time>2026-05-03T16:10:54.99Z</time></trkpt><trkpt lat="45.67805199995054" lon="11.548376823935431"><ele>93.0</ele><time>2026-05-03T16:10:55.99Z</time></trkpt><trkpt lat="45.67797929976581" lon="11.548534677736223"><ele>93.0</ele><time>2026-05-03T16:10:56.99Z</time></trkpt><trkpt lat="45.67793010989083" lon="11.548679079291723"><ele>93.0</ele><time>2026-05-03T16:10:57.99Z</time></trkpt><trkpt lat="45.67785877700099" lon="11.548801310125233"><ele>93.0</ele><time>2026-05-03T16:10:58.99Z</time></trkpt><trkpt lat="45.67779398882554" lon="11.548930394276876"><ele>93.0</ele><time>2026-05-03T16:10:59.99Z</time></trkpt><trkpt lat="45.677730760283964" lon="11.549060349070226"><ele>93.0</ele><time>2026-05-03T16:11:00.99Z</time></trkpt><trkpt lat="45.67766707318434" lon="11.549189259217748"><ele>93.0</ele><time>2026-05-03T16:11:01.99Z</time></trkpt><trkpt lat="45.67759610983626" lon="11.54933355146371"><ele>92.75</ele><time>2026-05-03T16:11:02.99Z</time></trkpt><trkpt lat="45.67752432348153" lon="11.549480424026811"><ele>92.5</ele><time>2026-05-03T16:11:03.99Z</time></trkpt><trkpt lat="45.67745049997459" lon="11.549637780539843"><ele>92.25</ele><time>2026-05-03T16:11:04.99Z</time></trkpt><trkpt lat="45.67737794209232" lon="11.549800089025831"><ele>92.0</ele><time>2026-05-03T16:11:05.99Z</time></trkpt><trkpt lat="45.67730609273578" lon="11.549966459465624"><ele>92.0</ele><time>2026-05-03T16:11:06.99Z</time></trkpt><trkpt lat="45.677235723710545" lon="11.550122257388878"><ele>92.0</ele><time>2026-05-03T16:11:07.99Z</time></trkpt><trkpt lat="45.677167198278596" lon="11.55027169801213"><ele>92.0</ele><time>2026-05-03T16:11:08.99Z</time></trkpt><trkpt lat="45.67709159103552" lon="11.550438399139573"><ele>92.0</ele><time>2026-05-03T16:11:09.989Z</time></trkpt><trkpt lat="45.67700401850082" lon="11.550629957992843"><ele>91.66666666666667</ele><time>2026-05-03T16:11:10.989Z</time></trkpt><trkpt lat="45.676919059883744" lon="11.550834363654396"><ele>91.33333333333333</ele><time>2026-05-03T16:11:11.989Z</time></trkpt><trkpt lat="45.676823939468626" lon="11.55106129199476"><ele>91.0</ele><time>2026-05-03T16:11:12.989Z</time></trkpt><trkpt lat="45.67671423580161" lon="11.551308972645723"><ele>91.0</ele><time>2026-05-03T16:11:13.989Z</time></trkpt><trkpt lat="45.676595295110396" lon="11.551565911731187"><ele>91.0</ele><time>2026-05-03T16:11:14.989Z</time></trkpt><trkpt lat="45.676481076223844" lon="11.551819048873558"><ele>91.0</ele><time>2026-05-03T16:11:15.989Z</time></trkpt><trkpt lat="45.66764536445233" lon="11.563102049304288"><ele>88.0</ele><time>2026-05-03T16:12:16.989Z</time></trkpt><trkpt lat="45.667432205232735" lon="11.563141207962284"><ele>85.0</ele><time>2026-05-03T16:12:17.989Z</time></trkpt><trkpt lat="45.66722894040277" lon="11.563177711642886"><ele>82.0</ele><time>2026-05-03T16:12:18.989Z</time></trkpt><trkpt lat="45.66703392959469" lon="11.563209914077273"><ele>81.66666666666666</ele><time>2026-05-03T16:12:19.989Z</time></trkpt><trkpt lat="45.66685370126484" lon="11.56323500793546"><ele>81.33333333333333</ele><time>2026-05-03T16:12:20.989Z</time></trkpt><trkpt lat="45.66669768420992" lon="11.56325607393372"><ele>81.0</ele><time>2026-05-03T16:12:21.989Z</time></trkpt><trkpt lat="45.66654515603442" lon="11.563273190490987"><ele>81.0</ele><time>2026-05-03T16:12:22.989Z</time></trkpt><trkpt lat="45.66639904059783" lon="11.56327692262194"><ele>81.0</ele><time>2026-05-03T16:12:23.989Z</time></trkpt><trkpt lat="45.666260720257085" lon="11.563282495967865"><ele>81.0</ele><time>2026-05-03T16:12:24.989Z</time></trkpt><trkpt lat="45.66611623834163" lon="11.563321873604986"><ele>81.0</ele><time>2026-05-03T16:12:25.989Z</time></trkpt><trkpt lat="45.66596404451359" lon="11.563380852121377"><ele>80.66666666666667</ele><time>2026-05-03T16:12:26.989Z</time></trkpt><trkpt lat="45.66580276752777" lon="11.56340263098227"><ele>80.33333333333334</ele><time>2026-05-03T16:12:27.989Z</time></trkpt><trkpt lat="45.66564987610266" lon="11.563439606319529"><ele>80.0</ele><time>2026-05-03T16:12:28.989Z</time></trkpt><trkpt lat="45.665501856567744" lon="11.563476117395563"><ele>80.0</ele><time>2026-05-03T16:12:29.989Z</time></trkpt><trkpt lat="45.66535226301347" lon="11.563513203754628"><ele>80.0</ele><time>2026-05-03T16:12:30.989Z</time></trkpt><trkpt lat="45.66520470991382" lon="11.563549616096063"><ele>80.0</ele><time>2026-05-03T16:12:31.989Z</time></trkpt><trkpt lat="45.66505686001049" lon="11.56358599224141"><ele>79.66666666666667</ele><time>2026-05-03T16:12:32.99Z</time></trkpt><trkpt lat="45.664907468764895" lon="11.563647514143879"><ele>79.33333333333333</ele><time>2026-05-03T16:12:33.99Z</time></trkpt><trkpt lat="45.66474672968997" lon="11.563686710363704"><ele>79.0</ele><time>2026-05-03T16:12:34.99Z</time></trkpt><trkpt lat="45.66457560316697" lon="11.56373411936017"><ele>79.33333333333333</ele><time>2026-05-03T16:12:35.989Z</time></trkpt><trkpt lat="45.66440179544967" lon="11.563801459905113"><ele>79.66666666666667</ele><time>2026-05-03T16:12:36.989Z</time></trkpt><trkpt lat="45.664219540648006" lon="11.563881994018818"><ele>80.0</ele><time>2026-05-03T16:12:37.989Z</time></trkpt><trkpt lat="45.66404036734823" lon="11.563978086661194"><ele>80.0</ele><time>2026-05-03T16:12:38.989Z</time></trkpt><trkpt lat="45.663853991210054" lon="11.564077800126801"><ele>80.0</ele><time>2026-05-03T16:12:39.989Z</time></trkpt><trkpt lat="45.66366172980723" lon="11.564181128746604"><ele>80.0</ele><time>2026-05-03T16:12:40.989Z</time></trkpt><trkpt lat="45.66346050188704" lon="11.564284336994207"><ele>79.66666666666667</ele><time>2026-05-03T16:12:41.989Z</time></trkpt><trkpt lat="45.663249657493225" lon="11.564382026003656"><ele>79.33333333333333</ele><time>2026-05-03T16:12:42.989Z</time></trkpt><trkpt lat="45.663035720218694" lon="11.564488221179257"><ele>79.0</ele><time>2026-05-03T16:12:43.989Z</time></trkpt><trkpt lat="45.66281737816764" lon="11.564598524315553"><ele>78.0</ele><time>2026-05-03T16:12:44.989Z</time></trkpt><trkpt lat="45.66260100411087" lon="11.56471440737964"><ele>77.0</ele><time>2026-05-03T16:12:45.989Z</time></trkpt><trkpt lat="45.6623814048335" lon="11.564825654606627"><ele>77.0</ele><time>2026-05-03T16:12:46.989Z</time></trkpt><trkpt lat="45.66216211845169" lon="11.564934269488832"><ele>77.0</ele><time>2026-05-03T16:12:47.989Z</time></trkpt><trkpt lat="45.66194108374987" lon="11.565043928724233"><ele>77.0</ele><time>2026-05-03T16:12:48.989Z</time></trkpt><trkpt lat="45.661722083661054" lon="11.565157062394434"><ele>77.0</ele><time>2026-05-03T16:12:49.989Z</time></trkpt><trkpt lat="45.66150479953366" lon="11.56526976193897"><ele>76.5</ele><time>2026-05-03T16:12:50.989Z</time></trkpt><trkpt lat="45.66128815413398" lon="11.56538040244915"><ele>76.0</ele><time>2026-05-03T16:12:51.989Z</time></trkpt><trkpt lat="45.66107599824672" lon="11.56548431994251"><ele>76.0</ele><time>2026-05-03T16:12:52.989Z</time></trkpt><trkpt lat="45.66086984193483" lon="11.56558605517748"><ele>76.0</ele><time>2026-05-03T16:12:53.989Z</time></trkpt><trkpt lat="45.66067528744801" lon="11.565676040193903"><ele>76.0</ele><time>2026-05-03T16:12:54.989Z</time></trkpt><trkpt lat="45.66048184938908" lon="11.565762949601991"><ele>76.0</ele><time>2026-05-03T16:12:55.989Z</time></trkpt><trkpt lat="45.6602865504743" lon="11.565853383521505"><ele>76.0</ele><time>2026-05-03T16:12:56.989Z</time></trkpt><trkpt lat="45.660095819307294" lon="11.56595020904271"><ele>76.0</ele><time>2026-05-03T16:12:57.989Z</time></trkpt><trkpt lat="45.6599236914532" lon="11.56603898418894"><ele>75.33333333333333</ele><time>2026-05-03T16:12:58.989Z</time></trkpt><trkpt lat="45.659768455583546" lon="11.566124374094835"><ele>74.66666666666667</ele><time>2026-05-03T16:12:59.989Z</time></trkpt><trkpt lat="45.65962549034113" lon="11.56620535598775"><ele>74.0</ele><time>2026-05-03T16:13:00.989Z</time></trkpt><trkpt lat="45.659489350121234" lon="11.566274880376437"><ele>73.5</ele><time>2026-05-03T16:13:01.989Z</time></trkpt><trkpt lat="45.659364083278994" lon="11.56632011523608"><ele>73.0</ele><time>2026-05-03T16:13:02.989Z</time></trkpt><trkpt lat="45.659245711052456" lon="11.566333659869754"><ele>72.5</ele><time>2026-05-03T16:13:03.989Z</time></trkpt><trkpt lat="45.65914024919457" lon="11.566302888478713"><ele>72.0</ele><time>2026-05-03T16:13:04.989Z</time></trkpt><trkpt lat="45.659042702725266" lon="11.566342828327052"><ele>72.0</ele><time>2026-05-03T16:13:05.989Z</time></trkpt><trkpt lat="45.658971595667424" lon="11.566426836322808"><ele>72.0</ele><time>2026-05-03T16:13:06.989Z</time></trkpt><trkpt lat="45.65888721244043" lon="11.566448228468452"><ele>72.0</ele><time>2026-05-03T16:13:07.989Z</time></trkpt><trkpt lat="45.65892617922768" lon="11.566688970159886"><ele>72.0</ele><time>2026-05-03T16:13:08.989Z</time></trkpt><trkpt lat="45.65897484511832" lon="11.566860366510966"><ele>72.33333333333333</ele><time>2026-05-03T16:13:09.989Z</time></trkpt><trkpt lat="45.658962847571566" lon="11.56704880178511"><ele>72.66666666666666</ele><time>2026-05-03T16:13:10.989Z</time></trkpt><trkpt lat="45.65895012394293" lon="11.567254756271064"><ele>73.0</ele><time>2026-05-03T16:13:11.989Z</time></trkpt><trkpt lat="45.658845945375596" lon="11.56747353676045"><ele>73.0</ele><time>2026-05-03T16:13:12.989Z</time></trkpt><trkpt lat="45.65876012273891" lon="11.567708279783492"><ele>73.0</ele><time>2026-05-03T16:13:13.989Z</time></trkpt><trkpt lat="45.6586596335272" lon="11.567971421664042"><ele>73.0</ele><time>2026-05-03T16:13:14.989Z</time></trkpt><trkpt lat="45.65855010190083" lon="11.568263379664234"><ele>69.0</ele><time>2026-05-03T16:13:15.989Z</time></trkpt><trkpt lat="45.65029237112277" lon="11.57962969353733"><ele>69.0</ele><time>2026-05-03T16:14:16.989Z</time></trkpt><trkpt lat="45.65038559009277" lon="11.579764859347687"><ele>69.0</ele><time>2026-05-03T16:14:17.989Z</time></trkpt><trkpt lat="45.65047776002974" lon="11.57991250122671"><ele>69.0</ele><time>2026-05-03T16:14:18.989Z</time></trkpt><trkpt lat="45.65058099818623" lon="11.580064733390026"><ele>69.0</ele><time>2026-05-03T16:14:19.989Z</time></trkpt><trkpt lat="45.650690778067464" lon="11.580221434671842"><ele>69.66666666666667</ele><time>2026-05-03T16:14:20.989Z</time></trkpt><trkpt lat="45.65079915097272" lon="11.580387718468605"><ele>70.33333333333334</ele><time>2026-05-03T16:14:21.989Z</time></trkpt><trkpt lat="45.6509118205518" lon="11.580563530702873"><ele>71.0</ele><time>2026-05-03T16:14:22.989Z</time></trkpt><trkpt lat="45.65103355567114" lon="11.580746042702044"><ele>70.0</ele><time>2026-05-03T16:14:23.989Z</time></trkpt><trkpt lat="45.651161928143104" lon="11.580933923102986"><ele>69.0</ele><time>2026-05-03T16:14:24.988Z</time></trkpt><trkpt lat="45.6512956461165" lon="11.581131208027692"><ele>68.0</ele><time>2026-05-03T16:14:25.988Z</time></trkpt><trkpt lat="45.65142995810286" lon="11.581330224583585"><ele>67.66666666666667</ele><time>2026-05-03T16:14:26.988Z</time></trkpt><trkpt lat="45.65157128903377" lon="11.581536367029038"><ele>67.33333333333333</ele><time>2026-05-03T16:14:27.988Z</time></trkpt><trkpt lat="45.65171462794878" lon="11.581750663452627"><ele>67.0</ele><time>2026-05-03T16:14:28.988Z</time></trkpt><trkpt lat="45.651846710887774" lon="11.581957597005372"><ele>67.33333333333333</ele><time>2026-05-03T16:14:29.988Z</time></trkpt><trkpt lat="45.65197634453643" lon="11.582153044437849"><ele>67.66666666666667</ele><time>2026-05-03T16:14:30.988Z</time></trkpt><trkpt lat="45.6520939736367" lon="11.582338003646017"><ele>68.0</ele><time>2026-05-03T16:14:31.989Z</time></trkpt><trkpt lat="45.652209620274014" lon="11.582529636199702"><ele>68.0</ele><time>2026-05-03T16:14:32.988Z</time></trkpt><trkpt lat="45.65232614727374" lon="11.582733513757484"><ele>68.0</ele><time>2026-05-03T16:14:33.988Z</time></trkpt><trkpt lat="45.65243247756738" lon="11.582941340048384"><ele>68.0</ele><time>2026-05-03T16:14:34.989Z</time></trkpt><trkpt lat="45.65253660288129" lon="11.583128034971717"><ele>68.0</ele><time>2026-05-03T16:14:35.989Z</time></trkpt><trkpt lat="45.65263480745186" lon="11.583305115285764"><ele>68.0</ele><time>2026-05-03T16:14:36.989Z</time></trkpt><trkpt lat="45.65271106175614" lon="11.583462637038956"><ele>68.0</ele><time>2026-05-03T16:14:37.989Z</time></trkpt><trkpt lat="45.65277644160496" lon="11.58361385509416"><ele>68.0</ele><time>2026-05-03T16:14:38.989Z</time></trkpt><trkpt lat="45.65281560545797" lon="11.583770818044421"><ele>68.0</ele><time>2026-05-03T16:14:39.989Z</time></trkpt><trkpt lat="45.6528347442881" lon="11.583941081164175"><ele>68.0</ele><time>2026-05-03T16:14:40.988Z</time></trkpt><trkpt lat="45.65286368829975" lon="11.584097233160524"><ele>68.0</ele><time>2026-05-03T16:14:41.988Z</time></trkpt><trkpt lat="45.652912632110514" lon="11.584232407499954"><ele>68.0</ele><time>2026-05-03T16:14:42.988Z</time></trkpt><trkpt lat="45.65298989201598" lon="11.584342292314902"><ele>68.0</ele><time>2026-05-03T16:14:43.988Z</time></trkpt><trkpt lat="45.65309145745493" lon="11.584409865275772"><ele>68.0</ele><time>2026-05-03T16:14:44.988Z</time></trkpt><trkpt lat="45.65320343155787" lon="11.584473223945452"><ele>68.0</ele><time>2026-05-03T16:14:45.988Z</time></trkpt><trkpt lat="45.65332317678041" lon="11.584575905498752"><ele>68.0</ele><time>2026-05-03T16:14:46.988Z</time></trkpt><trkpt lat="45.65342608689367" lon="11.584733704989594"><ele>68.0</ele><time>2026-05-03T16:14:47.988Z</time></trkpt><trkpt lat="45.65352499403153" lon="11.584922089195414"><ele>68.33333333333334</ele><time>2026-05-03T16:14:48.988Z</time></trkpt><trkpt lat="45.65363305253354" lon="11.585130866361528"><ele>68.66666666666667</ele><time>2026-05-03T16:14:49.988Z</time></trkpt><trkpt lat="45.65374633875653" lon="11.585342499457422"><ele>69.0</ele><time>2026-05-03T16:14:50.988Z</time></trkpt><trkpt lat="45.653864144646576" lon="11.585556529586164"><ele>69.0</ele><time>2026-05-03T16:14:51.988Z</time></trkpt><trkpt lat="45.653987648372535" lon="11.58578095946283"><ele>69.0</ele><time>2026-05-03T16:14:52.988Z</time></trkpt><trkpt lat="45.6541150029081" lon="11.58601312633633"><ele>69.0</ele><time>2026-05-03T16:14:53.988Z</time></trkpt><trkpt lat="45.654240174549955" lon="11.586244635455662"><ele>68.0</ele><time>2026-05-03T16:14:54.988Z</time></trkpt><trkpt lat="45.65436894618593" lon="11.586480471579234"><ele>67.0</ele><time>2026-05-03T16:14:55.988Z</time></trkpt><trkpt lat="45.654503299631365" lon="11.586724494769742"><ele>66.0</ele><time>2026-05-03T16:14:56.988Z</time></trkpt><trkpt lat="45.65464170041037" lon="11.586970008846267"><ele>66.0</ele><time>2026-05-03T16:14:57.988Z</time></trkpt><trkpt lat="45.65477072484536" lon="11.587200436063123"><ele>66.0</ele><time>2026-05-03T16:14:58.988Z</time></trkpt><trkpt lat="45.654913733185246" lon="11.58745621819352"><ele>66.0</ele><time>2026-05-03T16:14:59.988Z</time></trkpt><trkpt lat="45.65505725336966" lon="11.587723592587448"><ele>66.0</ele><time>2026-05-03T16:15:00.988Z</time></trkpt><trkpt lat="45.655200113162515" lon="11.587989844807295"><ele>66.0</ele><time>2026-05-03T16:15:01.988Z</time></trkpt><trkpt lat="45.65533657253294" lon="11.588248820929625"><ele>66.0</ele><time>2026-05-03T16:15:02.988Z</time></trkpt><trkpt lat="45.65547850516527" lon="11.588510132458604"><ele>66.0</ele><time>2026-05-03T16:15:03.988Z</time></trkpt><trkpt lat="45.65561462297402" lon="11.588776558873569"><ele>65.5</ele><time>2026-05-03T16:15:04.988Z</time></trkpt><trkpt lat="45.655758863837015" lon="11.589042775502486"><ele>65.0</ele><time>2026-05-03T16:15:05.988Z</time></trkpt><trkpt lat="45.655905626568284" lon="11.589309030047223"><ele>65.0</ele><time>2026-05-03T16:15:06.988Z</time></trkpt><trkpt lat="45.65605248466621" lon="11.589573601415712"><ele>65.0</ele><time>2026-05-03T16:15:07.988Z</time></trkpt><trkpt lat="45.65620190278717" lon="11.589840981740187"><ele>65.0</ele><time>2026-05-03T16:15:08.988Z</time></trkpt><trkpt lat="45.656349511483874" lon="11.590112068358327"><ele>65.0</ele><time>2026-05-03T16:15:09.988Z</time></trkpt><trkpt lat="45.656498020137256" lon="11.590384116841273"><ele>65.33333333333334</ele><time>2026-05-03T16:15:10.988Z</time></trkpt><trkpt lat="45.656641168960014" lon="11.590643106021192"><ele>65.66666666666667</ele><time>2026-05-03T16:15:11.988Z</time></trkpt><trkpt lat="45.656774112774485" lon="11.59088691868944"><ele>66.0</ele><time>2026-05-03T16:15:12.988Z</time></trkpt><trkpt lat="45.656902039752985" lon="11.591117903136707"><ele>66.0</ele><time>2026-05-03T16:15:13.988Z</time></trkpt><trkpt lat="45.65702782451827" lon="11.591333720134529"><ele>66.0</ele><time>2026-05-03T16:15:14.988Z</time></trkpt><trkpt lat="45.657144219848846" lon="11.591543851952434"><ele>66.0</ele><time>2026-05-03T16:15:15.988Z</time></trkpt><trkpt lat="45.651039319908385" lon="11.597513129035962"><ele>65.0</ele><time>2026-05-03T16:16:16.988Z</time></trkpt><trkpt lat="45.65100975828732" lon="11.59769375587811"><ele>64.0</ele><time>2026-05-03T16:16:17.988Z</time></trkpt><trkpt lat="45.650992888833336" lon="11.597880281855142"><ele>63.0</ele><time>2026-05-03T16:16:18.988Z</time></trkpt><trkpt lat="45.65100955014663" lon="11.598083526053406"><ele>62.0</ele><time>2026-05-03T16:16:19.988Z</time></trkpt><trkpt lat="45.65105703032743" lon="11.598303627575817"><ele>62.0</ele><time>2026-05-03T16:16:20.988Z</time></trkpt><trkpt lat="45.65112308716045" lon="11.598516448346325"><ele>62.0</ele><time>2026-05-03T16:16:21.988Z</time></trkpt><trkpt lat="45.65120629916846" lon="11.598719161525809"><ele>62.0</ele><time>2026-05-03T16:16:22.988Z</time></trkpt><trkpt lat="45.65126858517532" lon="11.598906335291918"><ele>61.5</ele><time>2026-05-03T16:16:23.988Z</time></trkpt><trkpt lat="45.65132191904365" lon="11.599077120429294"><ele>61.0</ele><time>2026-05-03T16:16:24.988Z</time></trkpt><trkpt lat="45.651376101059256" lon="11.599244656080693"><ele>60.5</ele><time>2026-05-03T16:16:25.988Z</time></trkpt><trkpt lat="45.651418724002276" lon="11.599417658263308"><ele>60.0</ele><time>2026-05-03T16:16:26.988Z</time></trkpt><trkpt lat="45.651415593538545" lon="11.599607613503853"><ele>59.75</ele><time>2026-05-03T16:16:27.988Z</time></trkpt><trkpt lat="45.651397778985924" lon="11.599792406974842"><ele>59.5</ele><time>2026-05-03T16:16:28.988Z</time></trkpt><trkpt lat="45.651366332770074" lon="11.599998587731841"><ele>59.25</ele><time>2026-05-03T16:16:29.988Z</time></trkpt><trkpt lat="45.651331523480685" lon="11.600216484237393"><ele>59.0</ele><time>2026-05-03T16:16:30.988Z</time></trkpt><trkpt lat="45.6512971231649" lon="11.60043182150096"><ele>58.66666666666667</ele><time>2026-05-03T16:16:31.987Z</time></trkpt><trkpt lat="45.65125814673645" lon="11.600666461959783"><ele>58.33333333333333</ele><time>2026-05-03T16:16:32.987Z</time></trkpt><trkpt lat="45.65121929563692" lon="11.6009065743715"><ele>58.0</ele><time>2026-05-03T16:16:33.987Z</time></trkpt><trkpt lat="45.651181498493735" lon="11.60114891494586"><ele>57.666666666666664</ele><time>2026-05-03T16:16:34.987Z</time></trkpt><trkpt lat="45.651169041433306" lon="11.601387352609061"><ele>57.33333333333333</ele><time>2026-05-03T16:16:35.987Z</time></trkpt><trkpt lat="45.65114290429756" lon="11.601640521375675"><ele>57.0</ele><time>2026-05-03T16:16:36.987Z</time></trkpt><trkpt lat="45.651112646487455" lon="11.601918181317597"><ele>57.33333333333333</ele><time>2026-05-03T16:16:37.988Z</time></trkpt><trkpt lat="45.651090976623024" lon="11.602196025593518"><ele>57.666666666666664</ele><time>2026-05-03T16:16:38.987Z</time></trkpt><trkpt lat="45.65106834491706" lon="11.602481081075593"><ele>58.0</ele><time>2026-05-03T16:16:39.987Z</time></trkpt><trkpt lat="45.65104567015744" lon="11.602764984949859"><ele>57.666666666666664</ele><time>2026-05-03T16:16:40.988Z</time></trkpt><trkpt lat="45.65102414260943" lon="11.603034525001823"><ele>57.33333333333333</ele><time>2026-05-03T16:16:41.987Z</time></trkpt><trkpt lat="45.65101874924589" lon="11.603287456469888"><ele>57.0</ele><time>2026-05-03T16:16:42.987Z</time></trkpt><trkpt lat="45.650989193653494" lon="11.603525136320517"><ele>57.33333333333333</ele><time>2026-05-03T16:16:43.988Z</time></trkpt><trkpt lat="45.65092519781784" lon="11.60373818368636"><ele>57.666666666666664</ele><time>2026-05-03T16:16:44.987Z</time></trkpt><trkpt lat="45.65087405338753" lon="11.603943859602685"><ele>58.0</ele><time>2026-05-03T16:16:45.987Z</time></trkpt><trkpt lat="45.650827259376655" lon="11.604132040445648"><ele>57.99999999999999</ele><time>2026-05-03T16:16:46.988Z</time></trkpt><trkpt lat="45.65078514586028" lon="11.604297511108758"><ele>58.0</ele><time>2026-05-03T16:16:47.987Z</time></trkpt><trkpt lat="45.650749127270025" lon="11.604435907972237"><ele>58.0</ele><time>2026-05-03T16:16:48.987Z</time></trkpt><trkpt lat="45.65072409715928" lon="11.604542345387324"><ele>58.0</ele><time>2026-05-03T16:16:49.987Z</time></trkpt><trkpt lat="45.650713323697794" lon="11.604642271748384"><ele>57.99999999999999</ele><time>2026-05-03T16:16:50.988Z</time></trkpt><trkpt lat="45.650682490256195" lon="11.604726170777584"><ele>58.0</ele><time>2026-05-03T16:16:52.988Z</time></trkpt><trkpt lat="45.65067006692801" lon="11.604841596814582"><ele>57.8</ele><time>2026-05-03T16:16:55.988Z</time></trkpt><trkpt lat="45.65056190353124" lon="11.604900881342477"><ele>57.599999999999994</ele><time>2026-05-03T16:16:57.988Z</time></trkpt><trkpt lat="45.65048068016963" lon="11.604920414282535"><ele>57.400000000000006</ele><time>2026-05-03T16:16:58.988Z</time></trkpt><trkpt lat="45.650380353402326" lon="11.604944992678142"><ele>57.2</ele><time>2026-05-03T16:16:59.988Z</time></trkpt><trkpt lat="45.65026344845183" lon="11.60498512144211"><ele>57.0</ele><time>2026-05-03T16:17:00.988Z</time></trkpt><trkpt lat="45.65013303540692" lon="11.605036664245205"><ele>57.0</ele><time>2026-05-03T16:17:01.988Z</time></trkpt><trkpt lat="45.64999345884236" lon="11.605096814813786"><ele>57.0</ele><time>2026-05-03T16:17:02.988Z</time></trkpt><trkpt lat="45.64983862342273" lon="11.605165218588173"><ele>57.0</ele><time>2026-05-03T16:17:03.988Z</time></trkpt><trkpt lat="45.649677495799544" lon="11.60523550330875"><ele>57.0</ele><time>2026-05-03T16:17:04.988Z</time></trkpt><trkpt lat="45.64951887936682" lon="11.605295549556665"><ele>57.0</ele><time>2026-05-03T16:17:05.988Z</time></trkpt><trkpt lat="45.64933918653517" lon="11.605355729951595"><ele>57.0</ele><time>2026-05-03T16:17:06.988Z</time></trkpt><trkpt lat="45.64915079354575" lon="11.60541267773024"><ele>56.33333333333333</ele><time>2026-05-03T16:17:07.988Z</time></trkpt><trkpt lat="45.648966385530656" lon="11.60548476051609"><ele>55.666666666666664</ele><time>2026-05-03T16:17:08.988Z</time></trkpt><trkpt lat="45.6487710260912" lon="11.605559071432161"><ele>55.0</ele><time>2026-05-03T16:17:09.988Z</time></trkpt><trkpt lat="45.6485646314171" lon="11.605608730799286"><ele>54.33333333333333</ele><time>2026-05-03T16:17:10.988Z</time></trkpt><trkpt lat="45.64837626806585" lon="11.605698027530288"><ele>53.66666666666667</ele><time>2026-05-03T16:17:11.988Z</time></trkpt><trkpt lat="45.648202122411945" lon="11.605757379126825"><ele>53.0</ele><time>2026-05-03T16:17:12.988Z</time></trkpt><trkpt lat="45.648051996114845" lon="11.605814198272995"><ele>53.0</ele><time>2026-05-03T16:17:13.988Z</time></trkpt><trkpt lat="45.64792547826062" lon="11.60585887761756"><ele>53.0</ele><time>2026-05-03T16:17:14.988Z</time></trkpt><trkpt lat="45.64780338759379" lon="11.605896247755696"><ele>53.0</ele><time>2026-05-03T16:17:15.988Z</time></trkpt><trkpt lat="45.64103896663054" lon="11.609577449681474"><ele>53.0</ele><time>2026-05-03T16:18:16.987Z</time></trkpt><trkpt lat="45.64110992629445" lon="11.609739269159968"><ele>53.0</ele><time>2026-05-03T16:18:17.987Z</time></trkpt><trkpt lat="45.641192863337324" lon="11.609919915159747"><ele>53.0</ele><time>2026-05-03T16:18:18.987Z</time></trkpt><trkpt lat="45.641260987564976" lon="11.610119561544243"><ele>53.0</ele><time>2026-05-03T16:18:19.987Z</time></trkpt><trkpt lat="45.64130684835621" lon="11.610320950339114"><ele>52.0</ele><time>2026-05-03T16:18:20.987Z</time></trkpt><trkpt lat="45.64137006748373" lon="11.610523553599984"><ele>51.0</ele><time>2026-05-03T16:18:21.987Z</time></trkpt><trkpt lat="45.64142957010518" lon="11.610712243705228"><ele>50.0</ele><time>2026-05-03T16:18:22.987Z</time></trkpt><trkpt lat="45.6414755644506" lon="11.61085387785639"><ele>49.0</ele><time>2026-05-03T16:18:23.987Z</time></trkpt><trkpt lat="45.64148478201834" lon="11.610951766221861"><ele>49.0</ele><time>2026-05-03T16:18:24.987Z</time></trkpt><trkpt lat="45.64142596025986" lon="11.611034063662514"><ele>49.0</ele><time>2026-05-03T16:18:26.987Z</time></trkpt><trkpt lat="45.641354348074216" lon="11.611029266099536"><ele>49.0</ele><time>2026-05-03T16:18:27.987Z</time></trkpt><trkpt lat="45.64124913266627" lon="11.611050422692227"><ele>49.0</ele><time>2026-05-03T16:18:28.987Z</time></trkpt><trkpt lat="45.64112083595787" lon="11.611094989541172"><ele>49.0</ele><time>2026-05-03T16:18:29.987Z</time></trkpt><trkpt lat="45.640967688166924" lon="11.611130639227744"><ele>49.25</ele><time>2026-05-03T16:18:30.987Z</time></trkpt><trkpt lat="45.64081464530689" lon="11.61115365629895"><ele>49.5</ele><time>2026-05-03T16:18:31.987Z</time></trkpt><trkpt lat="45.64068104797534" lon="11.611234205116677"><ele>49.75</ele><time>2026-05-03T16:18:32.987Z</time></trkpt><trkpt lat="45.64057851152876" lon="11.611358921136196"><ele>50.0</ele><time>2026-05-03T16:18:33.987Z</time></trkpt><trkpt lat="45.640492361633015" lon="11.611530220629763"><ele>50.0</ele><time>2026-05-03T16:18:34.987Z</time></trkpt><trkpt lat="45.64040173128017" lon="11.611737972414389"><ele>50.0</ele><time>2026-05-03T16:18:35.987Z</time></trkpt><trkpt lat="45.64030451197498" lon="11.611947997614843"><ele>50.0</ele><time>2026-05-03T16:18:36.987Z</time></trkpt><trkpt lat="45.64019873289274" lon="11.612161604163475"><ele>50.0</ele><time>2026-05-03T16:18:37.987Z</time></trkpt><trkpt lat="45.64008152454914" lon="11.612400861699001"><ele>50.0</ele><time>2026-05-03T16:18:38.987Z</time></trkpt><trkpt lat="45.63996498481709" lon="11.61264451465317"><ele>50.0</ele><time>2026-05-03T16:18:39.987Z</time></trkpt><trkpt lat="45.63984607650169" lon="11.61289437343962"><ele>50.0</ele><time>2026-05-03T16:18:40.987Z</time></trkpt><trkpt lat="45.63971495300898" lon="11.613147415231209"><ele>50.0</ele><time>2026-05-03T16:18:41.987Z</time></trkpt><trkpt lat="45.63957309940042" lon="11.613407760655695"><ele>50.0</ele><time>2026-05-03T16:18:42.987Z</time></trkpt><trkpt lat="45.63943522114819" lon="11.613651623377859"><ele>50.0</ele><time>2026-05-03T16:18:43.986Z</time></trkpt><trkpt lat="45.63929517647726" lon="11.613888334583693"><ele>50.0</ele><time>2026-05-03T16:18:44.987Z</time></trkpt><trkpt lat="45.63916207784505" lon="11.614122685356536"><ele>50.0</ele><time>2026-05-03T16:18:45.987Z</time></trkpt><trkpt lat="45.63903102570021" lon="11.614356248525395"><ele>50.0</ele><time>2026-05-03T16:18:46.987Z</time></trkpt><trkpt lat="45.6389028963915" lon="11.614586888727363"><ele>50.0</ele><time>2026-05-03T16:18:47.987Z</time></trkpt><trkpt lat="45.63876987033976" lon="11.614781010573795"><ele>50.0</ele><time>2026-05-03T16:18:48.987Z</time></trkpt><trkpt lat="45.638647771955995" lon="11.614988882595489"><ele>50.0</ele><time>2026-05-03T16:18:49.986Z</time></trkpt><trkpt lat="45.6385303495799" lon="11.615199524478882"><ele>50.0</ele><time>2026-05-03T16:18:50.986Z</time></trkpt><trkpt lat="45.63840552018533" lon="11.615395550225058"><ele>50.0</ele><time>2026-05-03T16:18:51.986Z</time></trkpt><trkpt lat="45.63827062443339" lon="11.615579041018027"><ele>50.0</ele><time>2026-05-03T16:18:52.986Z</time></trkpt><trkpt lat="45.63811307235269" lon="11.615735575709468"><ele>50.0</ele><time>2026-05-03T16:18:53.987Z</time></trkpt><trkpt lat="45.63795452463868" lon="11.615895790675284"><ele>50.0</ele><time>2026-05-03T16:18:54.987Z</time></trkpt><trkpt lat="45.63780287072176" lon="11.616038427787377"><ele>50.0</ele><time>2026-05-03T16:18:55.987Z</time></trkpt><trkpt lat="45.637653872996445" lon="11.616190881042968"><ele>50.0</ele><time>2026-05-03T16:18:56.987Z</time></trkpt><trkpt lat="45.63751670741925" lon="11.616324229797845"><ele>49.75</ele><time>2026-05-03T16:18:57.987Z</time></trkpt><trkpt lat="45.63740702231902" lon="11.616446496654829"><ele>49.5</ele><time>2026-05-03T16:18:58.987Z</time></trkpt><trkpt lat="45.63732051021894" lon="11.616601573940725"><ele>49.25</ele><time>2026-05-03T16:18:59.987Z</time></trkpt><trkpt lat="45.63726801320517" lon="11.616788190288403"><ele>49.0</ele><time>2026-05-03T16:19:00.987Z</time></trkpt><trkpt lat="45.63723048541482" lon="11.61700283455556"><ele>49.0</ele><time>2026-05-03T16:19:01.987Z</time></trkpt><trkpt lat="45.63721024120359" lon="11.617230591773456"><ele>49.0</ele><time>2026-05-03T16:19:02.987Z</time></trkpt><trkpt lat="45.63718895274961" lon="11.617457917260055"><ele>49.0</ele><time>2026-05-03T16:19:03.987Z</time></trkpt><trkpt lat="45.637181839835016" lon="11.617704479907777"><ele>49.0</ele><time>2026-05-03T16:19:04.987Z</time></trkpt><trkpt lat="45.6371410516049" lon="11.61796032840941"><ele>49.0</ele><time>2026-05-03T16:19:05.987Z</time></trkpt><trkpt lat="45.63711577416427" lon="11.618232258480027"><ele>49.0</ele><time>2026-05-03T16:19:06.987Z</time></trkpt><trkpt lat="45.63709014106109" lon="11.618515443103657"><ele>48.33333333333333</ele><time>2026-05-03T16:19:07.987Z</time></trkpt><trkpt lat="45.63706367393685" lon="11.618803499075732"><ele>47.666666666666664</ele><time>2026-05-03T16:19:08.987Z</time></trkpt><trkpt lat="45.6370353944243" lon="11.619096099002167"><ele>47.0</ele><time>2026-05-03T16:19:09.987Z</time></trkpt><trkpt lat="45.637010193249225" lon="11.61939304825049"><ele>47.0</ele><time>2026-05-03T16:19:10.987Z</time></trkpt><trkpt lat="45.636984179769684" lon="11.619676554565993"><ele>47.0</ele><time>2026-05-03T16:19:11.987Z</time></trkpt><trkpt lat="45.63696002148423" lon="11.619932886918496"><ele>47.0</ele><time>2026-05-03T16:19:12.987Z</time></trkpt><trkpt lat="45.63693726434604" lon="11.620172430574572"><ele>47.0</ele><time>2026-05-03T16:19:13.987Z</time></trkpt><trkpt lat="45.63690923607172" lon="11.620396287549605"><ele>47.0</ele><time>2026-05-03T16:19:14.987Z</time></trkpt><trkpt lat="45.63687482396149" lon="11.620621023270656"><ele>47.0</ele><time>2026-05-03T16:19:15.986Z</time></trkpt><trkpt lat="45.63267757387965" lon="11.62756345111402"><ele>47.33333333333333</ele><time>2026-05-03T16:20:16.986Z</time></trkpt><trkpt lat="45.63269800206795" lon="11.627805623470385"><ele>47.666666666666664</ele><time>2026-05-03T16:20:17.986Z</time></trkpt><trkpt lat="45.632715084998246" lon="11.628050754429854"><ele>48.0</ele><time>2026-05-03T16:20:18.986Z</time></trkpt><trkpt lat="45.632729966745245" lon="11.628320782673242"><ele>48.0</ele><time>2026-05-03T16:20:19.986Z</time></trkpt><trkpt lat="45.632741020493164" lon="11.628574479826378"><ele>48.0</ele><time>2026-05-03T16:20:20.986Z</time></trkpt><trkpt lat="45.63275026300579" lon="11.62882660829246"><ele>48.0</ele><time>2026-05-03T16:20:21.986Z</time></trkpt><trkpt lat="45.6327628642949" lon="11.629075952739619"><ele>48.0</ele><time>2026-05-03T16:20:22.986Z</time></trkpt><trkpt lat="45.632777512076956" lon="11.629311412489967"><ele>48.0</ele><time>2026-05-03T16:20:23.986Z</time></trkpt><trkpt lat="45.63279827133475" lon="11.629537540915251"><ele>48.0</ele><time>2026-05-03T16:20:24.986Z</time></trkpt><trkpt lat="45.632832943258315" lon="11.62975521671409"><ele>48.0</ele><time>2026-05-03T16:20:25.986Z</time></trkpt><trkpt lat="45.6328827833304" lon="11.629990049877971"><ele>48.0</ele><time>2026-05-03T16:20:26.986Z</time></trkpt><trkpt lat="45.63293908049326" lon="11.630217146726327"><ele>48.0</ele><time>2026-05-03T16:20:27.986Z</time></trkpt><trkpt lat="45.6330011268306" lon="11.630429123446953"><ele>47.666666666666664</ele><time>2026-05-03T16:20:28.986Z</time></trkpt><trkpt lat="45.63306096376656" lon="11.630643677047898"><ele>47.33333333333333</ele><time>2026-05-03T16:20:29.986Z</time></trkpt><trkpt lat="45.63312430520771" lon="11.630866122410847"><ele>47.0</ele><time>2026-05-03T16:20:30.986Z</time></trkpt><trkpt lat="45.633187880910164" lon="11.631089817510691"><ele>46.666666666666664</ele><time>2026-05-03T16:20:31.986Z</time></trkpt><trkpt lat="45.633250487617644" lon="11.63131785040091"><ele>46.333333333333336</ele><time>2026-05-03T16:20:32.986Z</time></trkpt><trkpt lat="45.633307277445894" lon="11.631552633050436"><ele>46.0</ele><time>2026-05-03T16:20:33.986Z</time></trkpt><trkpt lat="45.633341834060296" lon="11.631779261803858"><ele>47.0</ele><time>2026-05-03T16:20:34.986Z</time></trkpt><trkpt lat="45.6333438082758" lon="11.632021996804708"><ele>48.0</ele><time>2026-05-03T16:20:35.986Z</time></trkpt><trkpt lat="45.633317838075655" lon="11.632295650926103"><ele>49.0</ele><time>2026-05-03T16:20:36.986Z</time></trkpt><trkpt lat="45.63328940555218" lon="11.6325978506565"><ele>48.666666666666664</ele><time>2026-05-03T16:20:37.986Z</time></trkpt><trkpt lat="45.63323518119076" lon="11.632899284096352"><ele>48.33333333333333</ele><time>2026-05-03T16:20:38.986Z</time></trkpt><trkpt lat="45.633196325070095" lon="11.633203109458462"><ele>48.0</ele><time>2026-05-03T16:20:39.986Z</time></trkpt><trkpt lat="45.633152732686206" lon="11.633507146617074"><ele>48.0</ele><time>2026-05-03T16:20:40.986Z</time></trkpt><trkpt lat="45.633113286087585" lon="11.633817492955549"><ele>48.0</ele><time>2026-05-03T16:20:41.986Z</time></trkpt><trkpt lat="45.63308322091864" lon="11.634126743700307"><ele>48.0</ele><time>2026-05-03T16:20:42.986Z</time></trkpt><trkpt lat="45.63305347248884" lon="11.634444516568788"><ele>48.0</ele><time>2026-05-03T16:20:43.986Z</time></trkpt><trkpt lat="45.63303430975548" lon="11.634749002546315"><ele>48.0</ele><time>2026-05-03T16:20:44.986Z</time></trkpt><trkpt lat="45.633021351956906" lon="11.635033406154283"><ele>48.0</ele><time>2026-05-03T16:20:45.986Z</time></trkpt><trkpt lat="45.6329826084065" lon="11.635319181128033"><ele>48.0</ele><time>2026-05-03T16:20:46.986Z</time></trkpt><trkpt lat="45.63295891526292" lon="11.635610215993626"><ele>48.0</ele><time>2026-05-03T16:20:47.986Z</time></trkpt><trkpt lat="45.63293470657465" lon="11.635907583582261"><ele>48.0</ele><time>2026-05-03T16:20:48.986Z</time></trkpt><trkpt lat="45.63291007094804" lon="11.636208469050459"><ele>48.0</ele><time>2026-05-03T16:20:49.985Z</time></trkpt><trkpt lat="45.6328854338964" lon="11.636513323309075"><ele>48.0</ele><time>2026-05-03T16:20:50.985Z</time></trkpt><trkpt lat="45.63287639923736" lon="11.63683035793506"><ele>48.0</ele><time>2026-05-03T16:20:51.986Z</time></trkpt><trkpt lat="45.6328341676114" lon="11.63715132043719"><ele>48.0</ele><time>2026-05-03T16:20:52.986Z</time></trkpt><trkpt lat="45.63280779454198" lon="11.637484807721613"><ele>48.0</ele><time>2026-05-03T16:20:53.986Z</time></trkpt><trkpt lat="45.63279708777437" lon="11.637822553107792"><ele>47.5</ele><time>2026-05-03T16:20:54.986Z</time></trkpt><trkpt lat="45.63276583833142" lon="11.638160256232053"><ele>47.0</ele><time>2026-05-03T16:20:55.986Z</time></trkpt><trkpt lat="45.63273664872179" lon="11.638482484896935"><ele>46.666666666666664</ele><time>2026-05-03T16:20:56.986Z</time></trkpt><trkpt lat="45.632709254447136" lon="11.63879019973273"><ele>46.333333333333336</ele><time>2026-05-03T16:20:57.985Z</time></trkpt><trkpt lat="45.63268671308802" lon="11.639099578690194"><ele>46.0</ele><time>2026-05-03T16:20:58.986Z</time></trkpt><trkpt lat="45.63266652870743" lon="11.639410755016756"><ele>46.66666666666667</ele><time>2026-05-03T16:20:59.986Z</time></trkpt><trkpt lat="45.63265034648801" lon="11.639721992832591"><ele>47.333333333333336</ele><time>2026-05-03T16:21:00.986Z</time></trkpt><trkpt lat="45.632636644203615" lon="11.640035267465151"><ele>48.0</ele><time>2026-05-03T16:21:01.986Z</time></trkpt><trkpt lat="45.632602017669136" lon="11.640346428943863"><ele>48.0</ele><time>2026-05-03T16:21:02.986Z</time></trkpt><trkpt lat="45.63259975474645" lon="11.640660714248636"><ele>48.0</ele><time>2026-05-03T16:21:03.986Z</time></trkpt><trkpt lat="45.632570741256906" lon="11.640972823255373"><ele>48.0</ele><time>2026-05-03T16:21:04.986Z</time></trkpt><trkpt lat="45.63255081894515" lon="11.641291143767083"><ele>48.0</ele><time>2026-05-03T16:21:05.986Z</time></trkpt><trkpt lat="45.63253402537246" lon="11.641621116969842"><ele>48.0</ele><time>2026-05-03T16:21:06.986Z</time></trkpt><trkpt lat="45.63251474576425" lon="11.641954979219902"><ele>47.0</ele><time>2026-05-03T16:21:07.986Z</time></trkpt><trkpt lat="45.63249634606395" lon="11.642296309148984"><ele>46.0</ele><time>2026-05-03T16:21:08.986Z</time></trkpt><trkpt lat="45.63247935822013" lon="11.642646580379838"><ele>46.5</ele><time>2026-05-03T16:21:09.986Z</time></trkpt><trkpt lat="45.632461084144055" lon="11.642992176659913"><ele>47.0</ele><time>2026-05-03T16:21:10.986Z</time></trkpt><trkpt lat="45.6324362882756" lon="11.643358304458161"><ele>47.0</ele><time>2026-05-03T16:21:11.986Z</time></trkpt><trkpt lat="45.632408755718075" lon="11.643732416556274"><ele>47.0</ele><time>2026-05-03T16:21:12.986Z</time></trkpt><trkpt lat="45.632382593211524" lon="11.644097347289684"><ele>47.0</ele><time>2026-05-03T16:21:13.986Z</time></trkpt><trkpt lat="45.632358471287816" lon="11.644438796095457"><ele>47.0</ele><time>2026-05-03T16:21:14.986Z</time></trkpt><trkpt lat="45.63233337612203" lon="11.64476330216828"><ele>50.0</ele><time>2026-05-03T16:21:15.986Z</time></trkpt><trkpt lat="45.63271721914985" lon="11.657783003272296"><ele>49.833333333333336</ele><time>2026-05-03T16:22:16.985Z</time></trkpt><trkpt lat="45.63264983806046" lon="11.6578419738834"><ele>49.66666666666667</ele><time>2026-05-03T16:22:17.985Z</time></trkpt><trkpt lat="45.63258458194654" lon="11.657873267664579"><ele>49.5</ele><time>2026-05-03T16:22:18.985Z</time></trkpt><trkpt lat="45.63248549327444" lon="11.657916724335871"><ele>49.33333333333333</ele><time>2026-05-03T16:22:20.985Z</time></trkpt><trkpt lat="45.632390149391526" lon="11.65797645535792"><ele>49.166666666666664</ele><time>2026-05-03T16:22:22.985Z</time></trkpt><trkpt lat="45.63232869237431" lon="11.658016083887821"><ele>49.0</ele><time>2026-05-03T16:22:23.985Z</time></trkpt><trkpt lat="45.632256345750065" lon="11.658051118194736"><ele>49.0</ele><time>2026-05-03T16:22:24.985Z</time></trkpt><trkpt lat="45.632176200127006" lon="11.65809452843509"><ele>49.0</ele><time>2026-05-03T16:22:25.985Z</time></trkpt><trkpt lat="45.632075664863834" lon="11.658120671072334"><ele>49.0</ele><time>2026-05-03T16:22:26.985Z</time></trkpt><trkpt lat="45.63196656126809" lon="11.658169261298875"><ele>49.0</ele><time>2026-05-03T16:22:27.985Z</time></trkpt><trkpt lat="45.631841062017095" lon="11.658225387087203"><ele>49.0</ele><time>2026-05-03T16:22:28.985Z</time></trkpt><trkpt lat="45.63172283182949" lon="11.658303208434164"><ele>49.0</ele><time>2026-05-03T16:22:29.985Z</time></trkpt><trkpt lat="45.631575948813634" lon="11.658373171424019"><ele>49.0</ele><time>2026-05-03T16:22:30.985Z</time></trkpt><trkpt lat="45.63143458506921" lon="11.658417179993705"><ele>49.0</ele><time>2026-05-03T16:22:31.985Z</time></trkpt><trkpt lat="45.63129871638273" lon="11.658486209506135"><ele>49.0</ele><time>2026-05-03T16:22:32.985Z</time></trkpt><trkpt lat="45.63114707135279" lon="11.658557260411998"><ele>48.666666666666664</ele><time>2026-05-03T16:22:33.985Z</time></trkpt><trkpt lat="45.63098034972363" lon="11.658630964531891"><ele>48.33333333333333</ele><time>2026-05-03T16:22:34.985Z</time></trkpt><trkpt lat="45.630808446165325" lon="11.658709232016745"><ele>48.0</ele><time>2026-05-03T16:22:35.985Z</time></trkpt><trkpt lat="45.63063788089117" lon="11.658785353826476"><ele>48.0</ele><time>2026-05-03T16:22:36.985Z</time></trkpt><trkpt lat="45.630472782043704" lon="11.65886576281474"><ele>48.0</ele><time>2026-05-03T16:22:37.985Z</time></trkpt><trkpt lat="45.630306391136685" lon="11.658941336166508"><ele>48.0</ele><time>2026-05-03T16:22:38.985Z</time></trkpt><trkpt lat="45.63013633861407" lon="11.659017193542546"><ele>48.0</ele><time>2026-05-03T16:22:39.985Z</time></trkpt><trkpt lat="45.62996113497273" lon="11.659091648857785"><ele>48.0</ele><time>2026-05-03T16:22:40.985Z</time></trkpt><trkpt lat="45.62978735685719" lon="11.659168423510147"><ele>48.0</ele><time>2026-05-03T16:22:41.985Z</time></trkpt><trkpt lat="45.6296147780064" lon="11.659248269970306"><ele>47.333333333333336</ele><time>2026-05-03T16:22:42.985Z</time></trkpt><trkpt lat="45.62943886813277" lon="11.65932191954561"><ele>46.66666666666667</ele><time>2026-05-03T16:22:43.985Z</time></trkpt><trkpt lat="45.62925624237931" lon="11.659394215792672"><ele>46.0</ele><time>2026-05-03T16:22:44.985Z</time></trkpt><trkpt lat="45.62906486707724" lon="11.659448196774521"><ele>46.0</ele><time>2026-05-03T16:22:45.985Z</time></trkpt><trkpt lat="45.62886674033467" lon="11.65948664908943"><ele>46.0</ele><time>2026-05-03T16:22:46.985Z</time></trkpt><trkpt lat="45.62866435241467" lon="11.659511185865018"><ele>46.0</ele><time>2026-05-03T16:22:47.985Z</time></trkpt><trkpt lat="45.62846705821861" lon="11.65952597399454"><ele>46.0</ele><time>2026-05-03T16:22:48.985Z</time></trkpt><trkpt lat="45.62826835452087" lon="11.65954200357914"><ele>46.0</ele><time>2026-05-03T16:22:49.985Z</time></trkpt><trkpt lat="45.628069686642185" lon="11.659555086718632"><ele>46.0</ele><time>2026-05-03T16:22:50.985Z</time></trkpt><trkpt lat="45.62786816392026" lon="11.659569655577672"><ele>45.0</ele><time>2026-05-03T16:22:51.985Z</time></trkpt><trkpt lat="45.62766507160287" lon="11.659584748603946"><ele>44.0</ele><time>2026-05-03T16:22:52.985Z</time></trkpt><trkpt lat="45.627461663677366" lon="11.659598055596648"><ele>43.0</ele><time>2026-05-03T16:22:53.985Z</time></trkpt><trkpt lat="45.62725290993942" lon="11.659613532702151"><ele>43.0</ele><time>2026-05-03T16:22:54.985Z</time></trkpt><trkpt lat="45.62704117966145" lon="11.659632136049733"><ele>43.0</ele><time>2026-05-03T16:22:55.985Z</time></trkpt><trkpt lat="45.626827290907265" lon="11.659654270347565"><ele>43.0</ele><time>2026-05-03T16:22:56.985Z</time></trkpt><trkpt lat="45.62661166942318" lon="11.659684032190142"><ele>43.66666666666667</ele><time>2026-05-03T16:22:57.985Z</time></trkpt><trkpt lat="45.6263959791274" lon="11.65972117810893"><ele>44.333333333333336</ele><time>2026-05-03T16:22:58.985Z</time></trkpt><trkpt lat="45.62617880461367" lon="11.659764241765828"><ele>45.0</ele><time>2026-05-03T16:22:59.985Z</time></trkpt><trkpt lat="45.62595741160497" lon="11.65981412206468"><ele>45.333333333333336</ele><time>2026-05-03T16:23:00.985Z</time></trkpt><trkpt lat="45.6257360674417" lon="11.65986807576164"><ele>45.66666666666667</ele><time>2026-05-03T16:23:01.986Z</time></trkpt><trkpt lat="45.625523902435674" lon="11.659919526109924"><ele>46.0</ele><time>2026-05-03T16:23:02.986Z</time></trkpt><trkpt lat="45.6253214487463" lon="11.659977839938795"><ele>46.333333333333336</ele><time>2026-05-03T16:23:03.984Z</time></trkpt><trkpt lat="45.62512851966541" lon="11.660061761765064"><ele>46.666666666666664</ele><time>2026-05-03T16:23:04.985Z</time></trkpt><trkpt lat="45.62494560832887" lon="11.660169847621319"><ele>47.0</ele><time>2026-05-03T16:23:05.985Z</time></trkpt><trkpt lat="45.62476085268426" lon="11.660306354624016"><ele>47.0</ele><time>2026-05-03T16:23:06.985Z</time></trkpt><trkpt lat="45.624573214721934" lon="11.660467329155566"><ele>47.0</ele><time>2026-05-03T16:23:07.985Z</time></trkpt><trkpt lat="45.62439622369877" lon="11.660641896672916"><ele>47.0</ele><time>2026-05-03T16:23:08.985Z</time></trkpt><trkpt lat="45.6242185582243" lon="11.660806427079232"><ele>46.666666666666664</ele><time>2026-05-03T16:23:09.985Z</time></trkpt><trkpt lat="45.624049280389585" lon="11.660953320389543"><ele>46.333333333333336</ele><time>2026-05-03T16:23:10.985Z</time></trkpt><trkpt lat="45.623900089216164" lon="11.661091274501167"><ele>46.0</ele><time>2026-05-03T16:23:11.985Z</time></trkpt><trkpt lat="45.623750096946615" lon="11.66123010028843"><ele>45.66666666666667</ele><time>2026-05-03T16:23:12.985Z</time></trkpt><trkpt lat="45.623599074089896" lon="11.661368115345557"><ele>45.333333333333336</ele><time>2026-05-03T16:23:13.985Z</time></trkpt><trkpt lat="45.62345278397948" lon="11.661499778480307"><ele>45.0</ele><time>2026-05-03T16:23:14.985Z</time></trkpt><trkpt lat="45.6233099084433" lon="11.661629644531448"><ele>44.0</ele><time>2026-05-03T16:23:15.985Z</time></trkpt><trkpt lat="45.62240042013047" lon="11.672440198515593"><ele>44.0</ele><time>2026-05-03T16:24:16.984Z</time></trkpt><trkpt lat="45.62240912449095" lon="11.67254042173701"><ele>44.0</ele><time>2026-05-03T16:24:17.984Z</time></trkpt><trkpt lat="45.62237956462326" lon="11.672645994750567"><ele>44.0</ele><time>2026-05-03T16:24:18.984Z</time></trkpt><trkpt lat="45.622310749077215" lon="11.672726501505165"><ele>44.0</ele><time>2026-05-03T16:24:19.984Z</time></trkpt><trkpt lat="45.622211545023504" lon="11.672756470433743"><ele>44.0</ele><time>2026-05-03T16:24:20.984Z</time></trkpt><trkpt lat="45.62212915031458" lon="11.67279501941409"><ele>44.0</ele><time>2026-05-03T16:24:21.984Z</time></trkpt><trkpt lat="45.622036827300086" lon="11.672860017136882"><ele>44.25</ele><time>2026-05-03T16:24:22.984Z</time></trkpt><trkpt lat="45.62193469394917" lon="11.672963084302385"><ele>44.5</ele><time>2026-05-03T16:24:23.984Z</time></trkpt><trkpt lat="45.62182507073917" lon="11.673073757325064"><ele>44.75</ele><time>2026-05-03T16:24:24.984Z</time></trkpt><trkpt lat="45.62170709828359" lon="11.673179557842957"><ele>45.0</ele><time>2026-05-03T16:24:25.984Z</time></trkpt><trkpt lat="45.621572052579026" lon="11.673289525314713"><ele>45.0</ele><time>2026-05-03T16:24:26.984Z</time></trkpt><trkpt lat="45.62141258385889" lon="11.673384666858498"><ele>45.0</ele><time>2026-05-03T16:24:27.984Z</time></trkpt><trkpt lat="45.62124260064634" lon="11.673456595395232"><ele>45.0</ele><time>2026-05-03T16:24:28.984Z</time></trkpt><trkpt lat="45.62107095474951" lon="11.673546788090027"><ele>45.0</ele><time>2026-05-03T16:24:29.984Z</time></trkpt><trkpt lat="45.620909455118046" lon="11.673627993183656"><ele>45.0</ele><time>2026-05-03T16:24:30.984Z</time></trkpt><trkpt lat="45.62075609545485" lon="11.673712179753025"><ele>45.0</ele><time>2026-05-03T16:24:31.984Z</time></trkpt><trkpt lat="45.6206092348247" lon="11.673822370446414"><ele>45.0</ele><time>2026-05-03T16:24:32.984Z</time></trkpt><trkpt lat="45.62047682706361" lon="11.673958392344751"><ele>45.0</ele><time>2026-05-03T16:24:33.984Z</time></trkpt><trkpt lat="45.62035673808488" lon="11.674077722930416"><ele>45.0</ele><time>2026-05-03T16:24:34.984Z</time></trkpt><trkpt lat="45.62022211539168" lon="11.674166274121903"><ele>45.0</ele><time>2026-05-03T16:24:35.984Z</time></trkpt><trkpt lat="45.62010975767505" lon="11.674297696498048"><ele>45.0</ele><time>2026-05-03T16:24:36.984Z</time></trkpt><trkpt lat="45.619999868875695" lon="11.674399881392562"><ele>45.0</ele><time>2026-05-03T16:24:37.984Z</time></trkpt><trkpt lat="45.61986569038587" lon="11.674498227675087"><ele>45.0</ele><time>2026-05-03T16:24:38.984Z</time></trkpt><trkpt lat="45.61973588314021" lon="11.67458759602089"><ele>45.0</ele><time>2026-05-03T16:24:39.984Z</time></trkpt><trkpt lat="45.619614949808835" lon="11.674675147895567"><ele>45.0</ele><time>2026-05-03T16:24:40.984Z</time></trkpt><trkpt lat="45.61950261127997" lon="11.674768857482526"><ele>45.0</ele><time>2026-05-03T16:24:41.984Z</time></trkpt><trkpt lat="45.61940526568334" lon="11.674840416844631"><ele>45.0</ele><time>2026-05-03T16:24:42.984Z</time></trkpt><trkpt lat="45.619328466111575" lon="11.674896872936243"><ele>44.333333333333336</ele><time>2026-05-03T16:24:43.984Z</time></trkpt><trkpt lat="45.61926608055978" lon="11.674945352893754"><ele>43.666666666666664</ele><time>2026-05-03T16:24:44.984Z</time></trkpt><trkpt lat="45.61920529577288" lon="11.674984221631489"><ele>43.0</ele><time>2026-05-03T16:24:45.984Z</time></trkpt><trkpt lat="45.61911868218513" lon="11.675063588899647"><ele>42.33333333333333</ele><time>2026-05-03T16:24:47.984Z</time></trkpt><trkpt lat="45.619012253127394" lon="11.675072644954062"><ele>41.666666666666664</ele><time>2026-05-03T16:24:49.984Z</time></trkpt><trkpt lat="45.61894923931014" lon="11.67506381827302"><ele>41.0</ele><time>2026-05-03T16:24:50.984Z</time></trkpt><trkpt lat="45.618876410758794" lon="11.67508649215158"><ele>41.0</ele><time>2026-05-03T16:24:51.984Z</time></trkpt><trkpt lat="45.61879455137683" lon="11.675214220862042"><ele>41.0</ele><time>2026-05-03T16:24:53.984Z</time></trkpt><trkpt lat="45.618811281919534" lon="11.675419689239602"><ele>41.0</ele><time>2026-05-03T16:24:55.984Z</time></trkpt><trkpt lat="45.61886211715204" lon="11.675522115052022"><ele>41.0</ele><time>2026-05-03T16:24:56.984Z</time></trkpt><trkpt lat="45.61893361094096" lon="11.675635651893453"><ele>41.25</ele><time>2026-05-03T16:24:57.984Z</time></trkpt><trkpt lat="45.61897469111841" lon="11.675791239549715"><ele>41.5</ele><time>2026-05-03T16:24:58.984Z</time></trkpt><trkpt lat="45.61898998032215" lon="11.675971820475858"><ele>41.75</ele><time>2026-05-03T16:24:59.984Z</time></trkpt><trkpt lat="45.61900502261726" lon="11.676159294239882"><ele>42.0</ele><time>2026-05-03T16:25:00.985Z</time></trkpt><trkpt lat="45.619026904247676" lon="11.676363057691326"><ele>42.333333333333336</ele><time>2026-05-03T16:25:01.984Z</time></trkpt><trkpt lat="45.61905179094994" lon="11.67659424390494"><ele>42.66666666666667</ele><time>2026-05-03T16:25:02.984Z</time></trkpt><trkpt lat="45.619079534503115" lon="11.676840978805428"><ele>43.0</ele><time>2026-05-03T16:25:03.984Z</time></trkpt><trkpt lat="45.619107456134664" lon="11.677103690125216"><ele>43.0</ele><time>2026-05-03T16:25:04.984Z</time></trkpt><trkpt lat="45.61913313549986" lon="11.677378721422508"><ele>43.0</ele><time>2026-05-03T16:25:05.984Z</time></trkpt><trkpt lat="45.61914359825591" lon="11.677667351934431"><ele>43.0</ele><time>2026-05-03T16:25:06.984Z</time></trkpt><trkpt lat="45.61916994902636" lon="11.677950456216948"><ele>43.0</ele><time>2026-05-03T16:25:07.984Z</time></trkpt><trkpt lat="45.61919663413884" lon="11.678237152671665"><ele>43.0</ele><time>2026-05-03T16:25:08.984Z</time></trkpt><trkpt lat="45.61922373014772" lon="11.678527399860357"><ele>43.0</ele><time>2026-05-03T16:25:09.984Z</time></trkpt><trkpt lat="45.61925070241652" lon="11.678812889152866"><ele>43.0</ele><time>2026-05-03T16:25:10.984Z</time></trkpt><trkpt lat="45.619295086354306" lon="11.679091894688444"><ele>43.0</ele><time>2026-05-03T16:25:11.984Z</time></trkpt><trkpt lat="45.619324733226044" lon="11.679373623151562"><ele>43.0</ele><time>2026-05-03T16:25:12.984Z</time></trkpt><trkpt lat="45.619386908046245" lon="11.6796545123039"><ele>43.0</ele><time>2026-05-03T16:25:13.984Z</time></trkpt><trkpt lat="45.619498426215316" lon="11.679905533060186"><ele>43.0</ele><time>2026-05-03T16:25:14.984Z</time></trkpt><trkpt lat="45.61963452808791" lon="11.680137967169637"><ele>43.0</ele><time>2026-05-03T16:25:15.984Z</time></trkpt><trkpt lat="45.62118522468872" lon="11.696332354815715"><ele>43.0</ele><time>2026-05-03T16:26:16.983Z</time></trkpt><trkpt lat="45.621177860980325" lon="11.696510783989345"><ele>43.0</ele><time>2026-05-03T16:26:17.983Z</time></trkpt><trkpt lat="45.62117447222904" lon="11.696692784059593"><ele>43.0</ele><time>2026-05-03T16:26:18.983Z</time></trkpt><trkpt lat="45.62116910858078" lon="11.696861093057041"><ele>43.0</ele><time>2026-05-03T16:26:19.983Z</time></trkpt><trkpt lat="45.62116175733421" lon="11.697017172298638"><ele>43.16666666666667</ele><time>2026-05-03T16:26:20.983Z</time></trkpt><trkpt lat="45.62115520423821" lon="11.697168641458708"><ele>43.333333333333336</ele><time>2026-05-03T16:26:21.983Z</time></trkpt><trkpt lat="45.6211462919946" lon="11.697312688830282"><ele>43.5</ele><time>2026-05-03T16:26:22.983Z</time></trkpt><trkpt lat="45.621140474601106" lon="11.697439589386482"><ele>43.666666666666664</ele><time>2026-05-03T16:26:23.983Z</time></trkpt><trkpt lat="45.62113495775941" lon="11.697548412409846"><ele>43.83333333333333</ele><time>2026-05-03T16:26:24.983Z</time></trkpt><trkpt lat="45.62112964047526" lon="11.69763886079491"><ele>44.0</ele><time>2026-05-03T16:26:25.983Z</time></trkpt><trkpt lat="45.6211054749333" lon="11.697799915711672"><ele>43.33333333333333</ele><time>2026-05-03T16:26:27.983Z</time></trkpt><trkpt lat="45.62106856074487" lon="11.697888846660794"><ele>42.666666666666664</ele><time>2026-05-03T16:26:28.983Z</time></trkpt><trkpt lat="45.621014368563756" lon="11.697966298215611"><ele>42.0</ele><time>2026-05-03T16:26:29.983Z</time></trkpt><trkpt lat="45.62094912174043" lon="11.698037889918588"><ele>41.333333333333336</ele><time>2026-05-03T16:26:30.983Z</time></trkpt><trkpt lat="45.62086657603989" lon="11.698092209085905"><ele>40.66666666666667</ele><time>2026-05-03T16:26:31.983Z</time></trkpt><trkpt lat="45.620769258770196" lon="11.698110680701932"><ele>40.0</ele><time>2026-05-03T16:26:32.983Z</time></trkpt><trkpt lat="45.62066296636184" lon="11.69810777908972"><ele>40.0</ele><time>2026-05-03T16:26:33.983Z</time></trkpt><trkpt lat="45.62054828982667" lon="11.69809094433836"><ele>40.0</ele><time>2026-05-03T16:26:34.983Z</time></trkpt><trkpt lat="45.62042292340908" lon="11.698071579134302"><ele>40.0</ele><time>2026-05-03T16:26:35.983Z</time></trkpt><trkpt lat="45.620282253433814" lon="11.698052666390293"><ele>40.0</ele><time>2026-05-03T16:26:36.983Z</time></trkpt><trkpt lat="45.62013310659297" lon="11.698035869047088"><ele>39.66666666666667</ele><time>2026-05-03T16:26:37.983Z</time></trkpt><trkpt lat="45.61997930174948" lon="11.698023516410146"><ele>39.333333333333336</ele><time>2026-05-03T16:26:38.983Z</time></trkpt><trkpt lat="45.6198191351535" lon="11.698008760172945"><ele>39.0</ele><time>2026-05-03T16:26:39.983Z</time></trkpt><trkpt lat="45.61965142884613" lon="11.69799194322236"><ele>39.333333333333336</ele><time>2026-05-03T16:26:40.983Z</time></trkpt><trkpt lat="45.619480071372806" lon="11.697981152108447"><ele>39.66666666666667</ele><time>2026-05-03T16:26:41.983Z</time></trkpt><trkpt lat="45.61931195954299" lon="11.69797067583244"><ele>40.0</ele><time>2026-05-03T16:26:42.983Z</time></trkpt><trkpt lat="45.619139683723475" lon="11.69795794893947"><ele>40.0</ele><time>2026-05-03T16:26:43.983Z</time></trkpt><trkpt lat="45.618965181522896" lon="11.697940667923412"><ele>40.0</ele><time>2026-05-03T16:26:44.983Z</time></trkpt><trkpt lat="45.61879330843499" lon="11.697924701252086"><ele>40.0</ele><time>2026-05-03T16:26:45.983Z</time></trkpt><trkpt lat="45.61864183916627" lon="11.697911242458423"><ele>40.5</ele><time>2026-05-03T16:26:46.983Z</time></trkpt><trkpt lat="45.61851118368506" lon="11.697905199361395"><ele>41.0</ele><time>2026-05-03T16:26:47.983Z</time></trkpt><trkpt lat="45.61839116099257" lon="11.697895695790162"><ele>41.5</ele><time>2026-05-03T16:26:48.983Z</time></trkpt><trkpt lat="45.61827509218548" lon="11.697884075151736"><ele>42.0</ele><time>2026-05-03T16:26:49.983Z</time></trkpt><trkpt lat="45.618161228448635" lon="11.697871706411073"><ele>42.0</ele><time>2026-05-03T16:26:50.983Z</time></trkpt><trkpt lat="45.618044695651655" lon="11.697857906794997"><ele>42.0</ele><time>2026-05-03T16:26:51.983Z</time></trkpt><trkpt lat="45.6179179315751" lon="11.697850973887805"><ele>42.0</ele><time>2026-05-03T16:26:52.983Z</time></trkpt><trkpt lat="45.61779735315097" lon="11.697842072829266"><ele>42.0</ele><time>2026-05-03T16:26:53.983Z</time></trkpt><trkpt lat="45.61769749695935" lon="11.69782958590117"><ele>42.0</ele><time>2026-05-03T16:26:54.983Z</time></trkpt><trkpt lat="45.61761065526037" lon="11.697831130011275"><ele>42.0</ele><time>2026-05-03T16:26:55.983Z</time></trkpt><trkpt lat="45.61753747165972" lon="11.69780134753449"><ele>42.0</ele><time>2026-05-03T16:26:56.983Z</time></trkpt><trkpt lat="45.6174345553677" lon="11.698056988984252"><ele>42.0</ele><time>2026-05-03T16:26:58.983Z</time></trkpt><trkpt lat="45.6174262816019" lon="11.698220762279368"><ele>42.0</ele><time>2026-05-03T16:26:59.983Z</time></trkpt><trkpt lat="45.617431374782385" lon="11.698399935451118"><ele>42.0</ele><time>2026-05-03T16:27:00.983Z</time></trkpt><trkpt lat="45.61742939483436" lon="11.698581833221825"><ele>42.0</ele><time>2026-05-03T16:27:01.983Z</time></trkpt><trkpt lat="45.617418067395406" lon="11.698781123565071"><ele>42.0</ele><time>2026-05-03T16:27:02.983Z</time></trkpt><trkpt lat="45.61739802553488" lon="11.69899704913962"><ele>42.0</ele><time>2026-05-03T16:27:03.983Z</time></trkpt><trkpt lat="45.6173496177009" lon="11.699218083092482"><ele>42.0</ele><time>2026-05-03T16:27:04.983Z</time></trkpt><trkpt lat="45.617325033812136" lon="11.699460957138118"><ele>42.0</ele><time>2026-05-03T16:27:05.983Z</time></trkpt><trkpt lat="45.61728989851997" lon="11.69969417924081"><ele>42.0</ele><time>2026-05-03T16:27:06.983Z</time></trkpt><trkpt lat="45.61725782746633" lon="11.699926782809197"><ele>42.0</ele><time>2026-05-03T16:27:07.983Z</time></trkpt><trkpt lat="45.61721990323434" lon="11.700166982872025"><ele>42.0</ele><time>2026-05-03T16:27:08.983Z</time></trkpt><trkpt lat="45.61717804581597" lon="11.700403988147947"><ele>42.0</ele><time>2026-05-03T16:27:09.983Z</time></trkpt><trkpt lat="45.61712676304281" lon="11.700645127966396"><ele>42.0</ele><time>2026-05-03T16:27:10.983Z</time></trkpt><trkpt lat="45.61702415287879" lon="11.700853088146031"><ele>42.0</ele><time>2026-05-03T16:27:11.983Z</time></trkpt><trkpt lat="45.61690344897927" lon="11.701043537406486"><ele>42.333333333333336</ele><time>2026-05-03T16:27:12.983Z</time></trkpt><trkpt lat="45.616749578921606" lon="11.701211965341292"><ele>42.66666666666667</ele><time>2026-05-03T16:27:13.983Z</time></trkpt><trkpt lat="45.61658291160425" lon="11.701378730099014"><ele>43.0</ele><time>2026-05-03T16:27:14.983Z</time></trkpt><trkpt lat="45.616427233997996" lon="11.701557141665786"><ele>35.0</ele><time>2026-05-03T16:27:15.983Z</time></trkpt><trkpt lat="45.60684725973455" lon="11.711276648944656"><ele>35.0</ele><time>2026-05-03T16:28:16.982Z</time></trkpt><trkpt lat="45.60671316004773" lon="11.711418993811394"><ele>35.0</ele><time>2026-05-03T16:28:17.982Z</time></trkpt><trkpt lat="45.60657872436282" lon="11.711553404006999"><ele>35.0</ele><time>2026-05-03T16:28:18.982Z</time></trkpt><trkpt lat="45.60644066767621" lon="11.711694193501927"><ele>35.0</ele><time>2026-05-03T16:28:19.982Z</time></trkpt><trkpt lat="45.606301481963065" lon="11.71183497829887"><ele>35.0</ele><time>2026-05-03T16:28:20.982Z</time></trkpt><trkpt lat="45.60615758206811" lon="11.71197873427744"><ele>35.0</ele><time>2026-05-03T16:28:21.982Z</time></trkpt><trkpt lat="45.60601057784276" lon="11.71212545135535"><ele>35.33333333333333</ele><time>2026-05-03T16:28:22.982Z</time></trkpt><trkpt lat="45.60585928159772" lon="11.712274838185001"><ele>35.666666666666664</ele><time>2026-05-03T16:28:23.982Z</time></trkpt><trkpt lat="45.60570282808209" lon="11.71242893411751"><ele>36.0</ele><time>2026-05-03T16:28:24.982Z</time></trkpt><trkpt lat="45.60553730267406" lon="11.71259212841914"><ele>36.0</ele><time>2026-05-03T16:28:25.982Z</time></trkpt><trkpt lat="45.60536732778233" lon="11.712764335017233"><ele>36.0</ele><time>2026-05-03T16:28:26.982Z</time></trkpt><trkpt lat="45.60519217444187" lon="11.712951596043782"><ele>36.0</ele><time>2026-05-03T16:28:27.982Z</time></trkpt><trkpt lat="45.60500874074338" lon="11.713138288013635"><ele>36.5</ele><time>2026-05-03T16:28:28.982Z</time></trkpt><trkpt lat="45.60481678746014" lon="11.713334659237335"><ele>37.0</ele><time>2026-05-03T16:28:29.982Z</time></trkpt><trkpt lat="45.6046193833607" lon="11.713541870340283"><ele>36.5</ele><time>2026-05-03T16:28:30.982Z</time></trkpt><trkpt lat="45.60442093351612" lon="11.713750612326841"><ele>36.0</ele><time>2026-05-03T16:28:31.982Z</time></trkpt><trkpt lat="45.60422215380283" lon="11.713947370881739"><ele>36.0</ele><time>2026-05-03T16:28:32.982Z</time></trkpt><trkpt lat="45.60402589217997" lon="11.714139297798798"><ele>36.0</ele><time>2026-05-03T16:28:33.982Z</time></trkpt><trkpt lat="45.60383501478042" lon="11.714334252713597"><ele>37.0</ele><time>2026-05-03T16:28:34.982Z</time></trkpt><trkpt lat="45.603652278748434" lon="11.714516514736387"><ele>38.0</ele><time>2026-05-03T16:28:35.982Z</time></trkpt><trkpt lat="45.60344587127262" lon="11.714720831476498"><ele>38.0</ele><time>2026-05-03T16:28:36.982Z</time></trkpt><trkpt lat="45.60323004607128" lon="11.71491890006206"><ele>38.0</ele><time>2026-05-03T16:28:37.982Z</time></trkpt><trkpt lat="45.60301025040785" lon="11.715140726505785"><ele>37.0</ele><time>2026-05-03T16:28:38.982Z</time></trkpt><trkpt lat="45.60277818075076" lon="11.715375051597244"><ele>36.0</ele><time>2026-05-03T16:28:39.982Z</time></trkpt><trkpt lat="45.60253450168181" lon="11.715622272560443"><ele>36.0</ele><time>2026-05-03T16:28:40.982Z</time></trkpt><trkpt lat="45.60229609894817" lon="11.715891263103424"><ele>36.0</ele><time>2026-05-03T16:28:41.982Z</time></trkpt><trkpt lat="45.60204602162994" lon="11.716132987857497"><ele>35.5</ele><time>2026-05-03T16:28:42.982Z</time></trkpt><trkpt lat="45.601801455058286" lon="11.716374355055528"><ele>35.0</ele><time>2026-05-03T16:28:43.982Z</time></trkpt><trkpt lat="45.601553980662764" lon="11.716626846669522"><ele>35.0</ele><time>2026-05-03T16:28:44.982Z</time></trkpt><trkpt lat="45.60129992025318" lon="11.71688829752649"><ele>35.0</ele><time>2026-05-03T16:28:45.982Z</time></trkpt><trkpt lat="45.601039280439025" lon="11.717151087936092"><ele>34.5</ele><time>2026-05-03T16:28:46.982Z</time></trkpt><trkpt lat="45.60079747183438" lon="11.71739345897844"><ele>34.0</ele><time>2026-05-03T16:28:47.982Z</time></trkpt><trkpt lat="45.60057348264219" lon="11.717621367922238"><ele>33.5</ele><time>2026-05-03T16:28:48.982Z</time></trkpt><trkpt lat="45.600358912033144" lon="11.717839178980848"><ele>33.0</ele><time>2026-05-03T16:28:49.982Z</time></trkpt><trkpt lat="45.600155202244764" lon="11.718043612251408"><ele>34.0</ele><time>2026-05-03T16:28:50.982Z</time></trkpt><trkpt lat="45.59996273635996" lon="11.71823519661338"><ele>35.0</ele><time>2026-05-03T16:28:51.982Z</time></trkpt><trkpt lat="45.59977950827331" lon="11.718423777805919"><ele>35.0</ele><time>2026-05-03T16:28:52.982Z</time></trkpt><trkpt lat="45.5995954934281" lon="11.718613194246615"><ele>35.0</ele><time>2026-05-03T16:28:53.982Z</time></trkpt><trkpt lat="45.59940946956268" lon="11.718807242945568"><ele>34.666666666666664</ele><time>2026-05-03T16:28:54.982Z</time></trkpt><trkpt lat="45.5992302973859" lon="11.718989163344062"><ele>34.333333333333336</ele><time>2026-05-03T16:28:55.982Z</time></trkpt><trkpt lat="45.59906386033717" lon="11.719157724010381"><ele>34.0</ele><time>2026-05-03T16:28:56.982Z</time></trkpt><trkpt lat="45.59890888972832" lon="11.719297605170159"><ele>34.333333333333336</ele><time>2026-05-03T16:28:57.982Z</time></trkpt><trkpt lat="45.598768081848576" lon="11.719446347684178"><ele>34.666666666666664</ele><time>2026-05-03T16:28:58.982Z</time></trkpt><trkpt lat="45.59863224065435" lon="11.719592547441994"><ele>35.0</ele><time>2026-05-03T16:28:59.982Z</time></trkpt><trkpt lat="45.59850133987712" lon="11.719729070936756"><ele>35.0</ele><time>2026-05-03T16:29:00.982Z</time></trkpt><trkpt lat="45.5983760126583" lon="11.719843759564649"><ele>35.0</ele><time>2026-05-03T16:29:01.982Z</time></trkpt><trkpt lat="45.59827573446398" lon="11.719963996197874"><ele>35.0</ele><time>2026-05-03T16:29:02.982Z</time></trkpt><trkpt lat="45.598187592468754" lon="11.72006155980648"><ele>35.0</ele><time>2026-05-03T16:29:03.982Z</time></trkpt><trkpt lat="45.59809078104432" lon="11.720137229325594"><ele>35.0</ele><time>2026-05-03T16:29:04.982Z</time></trkpt><trkpt lat="45.59800725640627" lon="11.720208109508212"><ele>35.0</ele><time>2026-05-03T16:29:05.982Z</time></trkpt><trkpt lat="45.59794505762205" lon="11.72026752755637"><ele>35.0</ele><time>2026-05-03T16:29:06.982Z</time></trkpt><trkpt lat="45.597884535179524" lon="11.720318488571712"><ele>35.0</ele><time>2026-05-03T16:29:07.982Z</time></trkpt><trkpt lat="45.597829047843675" lon="11.72037370321703"><ele>35.0</ele><time>2026-05-03T16:29:08.982Z</time></trkpt><trkpt lat="45.597752415736245" lon="11.72045287974314"><ele>35.0</ele><time>2026-05-03T16:29:10.982Z</time></trkpt><trkpt lat="45.59769680107345" lon="11.72051593521318"><ele>34.5</ele><time>2026-05-03T16:29:12.982Z</time></trkpt><trkpt lat="45.59763972168455" lon="11.720582022990616"><ele>34.0</ele><time>2026-05-03T16:29:15.982Z</time></trkpt><trkpt lat="45.589160091246484" lon="11.729398195421004"><ele>33.5</ele><time>2026-05-03T16:30:16.981Z</time></trkpt><trkpt lat="45.58892632515371" lon="11.72963700140557"><ele>33.0</ele><time>2026-05-03T16:30:17.981Z</time></trkpt><trkpt lat="45.58868867664579" lon="11.729879773516283"><ele>32.5</ele><time>2026-05-03T16:30:18.981Z</time></trkpt><trkpt lat="45.588443076350636" lon="11.730129787447542"><ele>32.0</ele><time>2026-05-03T16:30:19.981Z</time></trkpt><trkpt lat="45.58818936192482" lon="11.730387516345361"><ele>32.0</ele><time>2026-05-03T16:30:20.981Z</time></trkpt><trkpt lat="45.58792176284559" lon="11.730659350398023"><ele>32.0</ele><time>2026-05-03T16:30:21.981Z</time></trkpt><trkpt lat="45.587645488477804" lon="11.730939996490992"><ele>33.0</ele><time>2026-05-03T16:30:22.981Z</time></trkpt><trkpt lat="45.58738902602163" lon="11.731223223294478"><ele>34.0</ele><time>2026-05-03T16:30:23.981Z</time></trkpt><trkpt lat="45.587126762620414" lon="11.731469400885855"><ele>33.5</ele><time>2026-05-03T16:30:24.981Z</time></trkpt><trkpt lat="45.58687739219354" lon="11.731714110900075"><ele>33.0</ele><time>2026-05-03T16:30:25.981Z</time></trkpt><trkpt lat="45.586635169243976" lon="11.731958601516682"><ele>32.5</ele><time>2026-05-03T16:30:26.981Z</time></trkpt><trkpt lat="45.58639570349962" lon="11.73220689319154"><ele>32.0</ele><time>2026-05-03T16:30:27.981Z</time></trkpt><trkpt lat="45.586154571470985" lon="11.732457050854515"><ele>32.0</ele><time>2026-05-03T16:30:28.981Z</time></trkpt><trkpt lat="45.58591169187998" lon="11.732712988545142"><ele>32.0</ele><time>2026-05-03T16:30:29.981Z</time></trkpt><trkpt lat="45.58566671163447" lon="11.732968946610116"><ele>32.0</ele><time>2026-05-03T16:30:30.981Z</time></trkpt><trkpt lat="45.58542244893794" lon="11.73320232564951"><ele>32.0</ele><time>2026-05-03T16:30:31.981Z</time></trkpt><trkpt lat="45.58519581155069" lon="11.733424943980593"><ele>31.5</ele><time>2026-05-03T16:30:32.981Z</time></trkpt><trkpt lat="45.58498930242499" lon="11.73363227131074"><ele>31.0</ele><time>2026-05-03T16:30:33.981Z</time></trkpt><trkpt lat="45.584798140210324" lon="11.733830477759053"><ele>31.0</ele><time>2026-05-03T16:30:34.981Z</time></trkpt><trkpt lat="45.584621438148744" lon="11.734012517797051"><ele>31.0</ele><time>2026-05-03T16:30:35.981Z</time></trkpt><trkpt lat="45.584457806358394" lon="11.73418408760342"><ele>31.0</ele><time>2026-05-03T16:30:36.981Z</time></trkpt><trkpt lat="45.584306518040655" lon="11.734344024503807"><ele>32.0</ele><time>2026-05-03T16:30:37.981Z</time></trkpt><trkpt lat="45.58416261642855" lon="11.734501390630166"><ele>33.0</ele><time>2026-05-03T16:30:38.981Z</time></trkpt><trkpt lat="45.58403072060681" lon="11.734660796972614"><ele>34.0</ele><time>2026-05-03T16:30:39.981Z</time></trkpt><trkpt lat="45.583917337846906" lon="11.73481897576658"><ele>34.0</ele><time>2026-05-03T16:30:40.981Z</time></trkpt><trkpt lat="45.583815841378566" lon="11.7349401706013"><ele>34.0</ele><time>2026-05-03T16:30:41.981Z</time></trkpt><trkpt lat="45.58372688738699" lon="11.73505628736981"><ele>34.0</ele><time>2026-05-03T16:30:42.981Z</time></trkpt><trkpt lat="45.58364726635967" lon="11.735161219346656"><ele>34.0</ele><time>2026-05-03T16:30:43.981Z</time></trkpt><trkpt lat="45.58356430772141" lon="11.735243642805676"><ele>33.6</ele><time>2026-05-03T16:30:44.981Z</time></trkpt><trkpt lat="45.58346938993997" lon="11.735269753241003"><ele>33.2</ele><time>2026-05-03T16:30:45.981Z</time></trkpt><trkpt lat="45.58337823076879" lon="11.73527919548984"><ele>32.800000000000004</ele><time>2026-05-03T16:30:46.981Z</time></trkpt><trkpt lat="45.58332727452587" lon="11.73535925409447"><ele>32.4</ele><time>2026-05-03T16:30:48.981Z</time></trkpt><trkpt lat="45.58338528708803" lon="11.735453158492797"><ele>32.0</ele><time>2026-05-03T16:30:50.981Z</time></trkpt><trkpt lat="45.583441259220564" lon="11.735584815054759"><ele>32.0</ele><time>2026-05-03T16:30:51.981Z</time></trkpt><trkpt lat="45.58356115385222" lon="11.735572181526434"><ele>32.0</ele><time>2026-05-03T16:30:52.981Z</time></trkpt><trkpt lat="45.5834883231542" lon="11.735805750487819"><ele>32.0</ele><time>2026-05-03T16:30:53.981Z</time></trkpt><trkpt lat="45.583520264864354" lon="11.735963075901854"><ele>32.0</ele><time>2026-05-03T16:30:54.981Z</time></trkpt><trkpt lat="45.58341151782032" lon="11.736096998830458"><ele>32.2</ele><time>2026-05-03T16:30:55.981Z</time></trkpt><trkpt lat="45.5833667279184" lon="11.736263241264695"><ele>32.400000000000006</ele><time>2026-05-03T16:30:56.981Z</time></trkpt><trkpt lat="45.58331915752681" lon="11.736395549225824"><ele>32.599999999999994</ele><time>2026-05-03T16:30:57.981Z</time></trkpt><trkpt lat="45.58327587357703" lon="11.73651429527708"><ele>32.8</ele><time>2026-05-03T16:30:58.981Z</time></trkpt><trkpt lat="45.58323919375561" lon="11.736613642439435"><ele>33.0</ele><time>2026-05-03T16:30:59.981Z</time></trkpt><trkpt lat="45.583214464172656" lon="11.736775856690002"><ele>32.75</ele><time>2026-05-03T16:31:00.981Z</time></trkpt><trkpt lat="45.58319645620785" lon="11.736950375023923"><ele>32.5</ele><time>2026-05-03T16:31:01.981Z</time></trkpt><trkpt lat="45.58318273392449" lon="11.737141179740766"><ele>32.25</ele><time>2026-05-03T16:31:02.981Z</time></trkpt><trkpt lat="45.583169621250725" lon="11.737342301256543"><ele>32.0</ele><time>2026-05-03T16:31:03.981Z</time></trkpt><trkpt lat="45.583155936724914" lon="11.737530847349635"><ele>32.0</ele><time>2026-05-03T16:31:04.981Z</time></trkpt><trkpt lat="45.58314214569137" lon="11.7377052603187"><ele>32.0</ele><time>2026-05-03T16:31:05.981Z</time></trkpt><trkpt lat="45.58314269155117" lon="11.737872602576921"><ele>32.0</ele><time>2026-05-03T16:31:06.981Z</time></trkpt><trkpt lat="45.58311960914932" lon="11.738029195713995"><ele>32.0</ele><time>2026-05-03T16:31:07.981Z</time></trkpt><trkpt lat="45.58310156563542" lon="11.738154427518234"><ele>32.0</ele><time>2026-05-03T16:31:08.981Z</time></trkpt><trkpt lat="45.583084719091474" lon="11.738250206522373"><ele>32.33333333333333</ele><time>2026-05-03T16:31:09.981Z</time></trkpt><trkpt lat="45.583064104383894" lon="11.738396165181149"><ele>32.666666666666664</ele><time>2026-05-03T16:31:11.981Z</time></trkpt><trkpt lat="45.583044536223895" lon="11.73849020847052"><ele>33.0</ele><time>2026-05-03T16:31:13.981Z</time></trkpt><trkpt lat="45.58667408587985" lon="11.744356489361087"><ele>32.5</ele><time>2026-05-03T16:32:16.982Z</time></trkpt><trkpt lat="45.58676235491972" lon="11.744509795913967"><ele>32.0</ele><time>2026-05-03T16:32:17.982Z</time></trkpt><trkpt lat="45.58683848995765" lon="11.74468589875319"><ele>31.5</ele><time>2026-05-03T16:32:18.982Z</time></trkpt><trkpt lat="45.586893828072995" lon="11.744883902901808"><ele>31.0</ele><time>2026-05-03T16:32:19.982Z</time></trkpt><trkpt lat="45.58691284656368" lon="11.745104384220017"><ele>30.25</ele><time>2026-05-03T16:32:20.982Z</time></trkpt><trkpt lat="45.58693113697742" lon="11.745319118402428"><ele>29.5</ele><time>2026-05-03T16:32:21.982Z</time></trkpt><trkpt lat="45.586947624251394" lon="11.745512684359117"><ele>28.75</ele><time>2026-05-03T16:32:22.982Z</time></trkpt><trkpt lat="45.586963726793705" lon="11.745712736123195"><ele>28.0</ele><time>2026-05-03T16:32:23.982Z</time></trkpt><trkpt lat="45.586995594651725" lon="11.74590019226749"><ele>28.0</ele><time>2026-05-03T16:32:24.982Z</time></trkpt><trkpt lat="45.586996544231106" lon="11.746093928649561"><ele>28.0</ele><time>2026-05-03T16:32:25.982Z</time></trkpt><trkpt lat="45.587032525813264" lon="11.746287728616299"><ele>28.0</ele><time>2026-05-03T16:32:26.982Z</time></trkpt><trkpt lat="45.587057343159" lon="11.746489344353819"><ele>28.0</ele><time>2026-05-03T16:32:27.982Z</time></trkpt><trkpt lat="45.58708395163648" lon="11.746690247056298"><ele>28.0</ele><time>2026-05-03T16:32:28.982Z</time></trkpt><trkpt lat="45.58712702013252" lon="11.746891578663186"><ele>28.0</ele><time>2026-05-03T16:32:29.982Z</time></trkpt><trkpt lat="45.58716522253196" lon="11.747094942554083"><ele>28.0</ele><time>2026-05-03T16:32:30.982Z</time></trkpt><trkpt lat="45.58720706159904" lon="11.7473073607363"><ele>28.0</ele><time>2026-05-03T16:32:31.982Z</time></trkpt><trkpt lat="45.587251493096204" lon="11.747526693082932"><ele>27.666666666666668</ele><time>2026-05-03T16:32:32.982Z</time></trkpt><trkpt lat="45.58729414071086" lon="11.74774689950778"><ele>27.333333333333336</ele><time>2026-05-03T16:32:33.981Z</time></trkpt><trkpt lat="45.58733945461608" lon="11.747970737034905"><ele>27.0</ele><time>2026-05-03T16:32:34.981Z</time></trkpt><trkpt lat="45.58736463385168" lon="11.748201584157766"><ele>27.0</ele><time>2026-05-03T16:32:35.981Z</time></trkpt><trkpt lat="45.58741683779014" lon="11.74842893548152"><ele>27.0</ele><time>2026-05-03T16:32:36.981Z</time></trkpt><trkpt lat="45.587470872191695" lon="11.748667265329814"><ele>27.0</ele><time>2026-05-03T16:32:37.981Z</time></trkpt><trkpt lat="45.5875212122476" lon="11.74889859237997"><ele>27.333333333333336</ele><time>2026-05-03T16:32:38.981Z</time></trkpt><trkpt lat="45.58756868623661" lon="11.749125802313637"><ele>27.666666666666668</ele><time>2026-05-03T16:32:39.981Z</time></trkpt><trkpt lat="45.587620512975064" lon="11.749349775010634"><ele>28.0</ele><time>2026-05-03T16:32:40.981Z</time></trkpt><trkpt lat="45.58766787065548" lon="11.749560259902024"><ele>28.333333333333336</ele><time>2026-05-03T16:32:41.981Z</time></trkpt><trkpt lat="45.58772036300207" lon="11.749775203117737"><ele>28.666666666666664</ele><time>2026-05-03T16:32:42.981Z</time></trkpt><trkpt lat="45.58777863318336" lon="11.74998964709234"><ele>29.0</ele><time>2026-05-03T16:32:43.981Z</time></trkpt><trkpt lat="45.587837422057774" lon="11.750191242904583"><ele>28.75</ele><time>2026-05-03T16:32:44.981Z</time></trkpt><trkpt lat="45.58789248488777" lon="11.750379263099433"><ele>28.5</ele><time>2026-05-03T16:32:45.981Z</time></trkpt><trkpt lat="45.58794951244956" lon="11.750566335627495"><ele>28.25</ele><time>2026-05-03T16:32:46.981Z</time></trkpt><trkpt lat="45.58801219929809" lon="11.750753236813829"><ele>28.0</ele><time>2026-05-03T16:32:47.981Z</time></trkpt><trkpt lat="45.58807887475917" lon="11.750938514541158"><ele>28.5</ele><time>2026-05-03T16:32:48.981Z</time></trkpt><trkpt lat="45.58814711562623" lon="11.751123995665413"><ele>29.0</ele><time>2026-05-03T16:32:49.981Z</time></trkpt><trkpt lat="45.5882179139642" lon="11.751311849380269"><ele>29.5</ele><time>2026-05-03T16:32:50.981Z</time></trkpt><trkpt lat="45.58829266781546" lon="11.751502448043391"><ele>30.0</ele><time>2026-05-03T16:32:51.981Z</time></trkpt><trkpt lat="45.588372803805136" lon="11.751692620665366"><ele>29.666666666666664</ele><time>2026-05-03T16:32:52.981Z</time></trkpt><trkpt lat="45.588456412239246" lon="11.751880488221301"><ele>29.333333333333332</ele><time>2026-05-03T16:32:53.981Z</time></trkpt><trkpt lat="45.58854376696375" lon="11.752068604575623"><ele>29.0</ele><time>2026-05-03T16:32:54.981Z</time></trkpt><trkpt lat="45.58863241413277" lon="11.75226281660241"><ele>29.0</ele><time>2026-05-03T16:32:55.981Z</time></trkpt><trkpt lat="45.58872168099231" lon="11.752459208807698"><ele>29.0</ele><time>2026-05-03T16:32:56.981Z</time></trkpt><trkpt lat="45.588805220207874" lon="11.752659409891322"><ele>29.0</ele><time>2026-05-03T16:32:57.981Z</time></trkpt><trkpt lat="45.58886580827993" lon="11.752857573963599"><ele>29.0</ele><time>2026-05-03T16:32:58.981Z</time></trkpt><trkpt lat="45.58891257675806" lon="11.753053417050834"><ele>29.0</ele><time>2026-05-03T16:32:59.981Z</time></trkpt><trkpt lat="45.58894986715887" lon="11.753260013946447"><ele>29.0</ele><time>2026-05-03T16:33:00.981Z</time></trkpt><trkpt lat="45.58896816911039" lon="11.753466194230835"><ele>29.0</ele><time>2026-05-03T16:33:01.981Z</time></trkpt><trkpt lat="45.588974476609756" lon="11.753668738053213"><ele>29.0</ele><time>2026-05-03T16:33:02.981Z</time></trkpt><trkpt lat="45.58897015810284" lon="11.753892051173258"><ele>29.0</ele><time>2026-05-03T16:33:03.981Z</time></trkpt><trkpt lat="45.58894324700543" lon="11.754125189197222"><ele>29.0</ele><time>2026-05-03T16:33:04.981Z</time></trkpt><trkpt lat="45.58892155736851" lon="11.75437766454082"><ele>28.333333333333332</ele><time>2026-05-03T16:33:05.981Z</time></trkpt><trkpt lat="45.588912938458506" lon="11.754637717043057"><ele>27.666666666666664</ele><time>2026-05-03T16:33:06.981Z</time></trkpt><trkpt lat="45.58889146507517" lon="11.754874080025173"><ele>27.0</ele><time>2026-05-03T16:33:07.981Z</time></trkpt><trkpt lat="45.588871454282845" lon="11.755096018249684"><ele>27.0</ele><time>2026-05-03T16:33:08.981Z</time></trkpt><trkpt lat="45.588838856535325" lon="11.755310924961185"><ele>27.0</ele><time>2026-05-03T16:33:09.981Z</time></trkpt><trkpt lat="45.588822837956926" lon="11.755537209037819"><ele>27.0</ele><time>2026-05-03T16:33:10.981Z</time></trkpt><trkpt lat="45.58880434731505" lon="11.755756647900272"><ele>27.0</ele><time>2026-05-03T16:33:11.981Z</time></trkpt><trkpt lat="45.588784200244724" lon="11.755962205677866"><ele>27.0</ele><time>2026-05-03T16:33:12.981Z</time></trkpt><trkpt lat="45.5887669897089" lon="11.756154171010108"><ele>27.0</ele><time>2026-05-03T16:33:13.981Z</time></trkpt><trkpt lat="45.58875500112677" lon="11.756342223430844"><ele>27.0</ele><time>2026-05-03T16:33:14.981Z</time></trkpt><trkpt lat="45.58874681379735" lon="11.75652472089787"><ele>26.0</ele><time>2026-05-03T16:33:15.981Z</time></trkpt><trkpt lat="45.5889563364401" lon="11.758703581185372"><ele>26.0</ele><time>2026-05-03T16:34:16.981Z</time></trkpt><trkpt lat="45.588961779407775" lon="11.758903534513793"><ele>26.0</ele><time>2026-05-03T16:34:18.981Z</time></trkpt><trkpt lat="45.58895017215121" lon="11.759015088126134"><ele>26.0</ele><time>2026-05-03T16:34:19.981Z</time></trkpt><trkpt lat="45.58893578223409" lon="11.759130782314191"><ele>26.0</ele><time>2026-05-03T16:34:20.981Z</time></trkpt><trkpt lat="45.58891217916103" lon="11.759264182291233"><ele>26.0</ele><time>2026-05-03T16:34:21.981Z</time></trkpt><trkpt lat="45.58886261996191" lon="11.759395589231628"><ele>25.6</ele><time>2026-05-03T16:34:22.981Z</time></trkpt><trkpt lat="45.588833344042094" lon="11.759534325067827"><ele>25.200000000000003</ele><time>2026-05-03T16:34:23.981Z</time></trkpt><trkpt lat="45.58880371187362" lon="11.759677988437714"><ele>24.799999999999997</ele><time>2026-05-03T16:34:24.981Z</time></trkpt><trkpt lat="45.58877286944452" lon="11.759829014238514"><ele>24.4</ele><time>2026-05-03T16:34:25.981Z</time></trkpt><trkpt lat="45.58873984376452" lon="11.75998921538462"><ele>24.0</ele><time>2026-05-03T16:34:26.981Z</time></trkpt><trkpt lat="45.58869269097225" lon="11.760144090930627"><ele>24.5</ele><time>2026-05-03T16:34:27.981Z</time></trkpt><trkpt lat="45.588660499358795" lon="11.760298225499666"><ele>25.0</ele><time>2026-05-03T16:34:28.981Z</time></trkpt><trkpt lat="45.588626909233206" lon="11.760453673169463"><ele>25.5</ele><time>2026-05-03T16:34:29.981Z</time></trkpt><trkpt lat="45.58858857121375" lon="11.760616239768783"><ele>26.0</ele><time>2026-05-03T16:34:30.981Z</time></trkpt><trkpt lat="45.588552098896315" lon="11.760779144767852"><ele>26.0</ele><time>2026-05-03T16:34:31.981Z</time></trkpt><trkpt lat="45.58851594808282" lon="11.760948548512953"><ele>26.0</ele><time>2026-05-03T16:34:32.981Z</time></trkpt><trkpt lat="45.58847653957259" lon="11.761123119954252"><ele>26.0</ele><time>2026-05-03T16:34:33.981Z</time></trkpt><trkpt lat="45.588438106511845" lon="11.761299118571653"><ele>26.0</ele><time>2026-05-03T16:34:34.981Z</time></trkpt><trkpt lat="45.588400589306204" lon="11.761474233773018"><ele>27.0</ele><time>2026-05-03T16:34:35.981Z</time></trkpt><trkpt lat="45.58836414950495" lon="11.761640046280332"><ele>28.0</ele><time>2026-05-03T16:34:36.981Z</time></trkpt><trkpt lat="45.588325415679336" lon="11.761798263897628"><ele>29.0</ele><time>2026-05-03T16:34:37.981Z</time></trkpt><trkpt lat="45.588290563010325" lon="11.761958007231772"><ele>30.0</ele><time>2026-05-03T16:34:38.981Z</time></trkpt><trkpt lat="45.58825713661079" lon="11.762116156825888"><ele>30.0</ele><time>2026-05-03T16:34:39.981Z</time></trkpt><trkpt lat="45.58822583939911" lon="11.762272423960175"><ele>30.0</ele><time>2026-05-03T16:34:40.981Z</time></trkpt><trkpt lat="45.58819876787941" lon="11.762435165216038"><ele>30.0</ele><time>2026-05-03T16:34:41.981Z</time></trkpt><trkpt lat="45.58816321848275" lon="11.762604012099999"><ele>30.0</ele><time>2026-05-03T16:34:42.981Z</time></trkpt><trkpt lat="45.588162506656225" lon="11.762781598071621"><ele>29.5</ele><time>2026-05-03T16:34:43.981Z</time></trkpt><trkpt lat="45.588184980986824" lon="11.762964536310552"><ele>29.0</ele><time>2026-05-03T16:34:44.981Z</time></trkpt><trkpt lat="45.58822961942264" lon="11.763142771159904"><ele>28.5</ele><time>2026-05-03T16:34:45.981Z</time></trkpt><trkpt lat="45.58828270999627" lon="11.763309914037878"><ele>28.0</ele><time>2026-05-03T16:34:46.981Z</time></trkpt><trkpt lat="45.5883560392307" lon="11.76347589781287"><ele>28.5</ele><time>2026-05-03T16:34:47.981Z</time></trkpt><trkpt lat="45.58843069589749" lon="11.763637630401124"><ele>29.0</ele><time>2026-05-03T16:34:48.981Z</time></trkpt><trkpt lat="45.588516677819996" lon="11.763791533872487"><ele>29.5</ele><time>2026-05-03T16:34:49.981Z</time></trkpt><trkpt lat="45.58859655191279" lon="11.763959465596047"><ele>30.0</ele><time>2026-05-03T16:34:50.981Z</time></trkpt><trkpt lat="45.588668517498995" lon="11.764118425570686"><ele>29.5</ele><time>2026-05-03T16:34:51.981Z</time></trkpt><trkpt lat="45.588724051637314" lon="11.76428410472498"><ele>29.0</ele><time>2026-05-03T16:34:52.981Z</time></trkpt><trkpt lat="45.588766647271946" lon="11.764456458101755"><ele>28.5</ele><time>2026-05-03T16:34:53.981Z</time></trkpt><trkpt lat="45.5887826960307" lon="11.76463424617666"><ele>28.0</ele><time>2026-05-03T16:34:54.981Z</time></trkpt><trkpt lat="45.58877804155586" lon="11.764790391395906"><ele>28.0</ele><time>2026-05-03T16:34:55.981Z</time></trkpt><trkpt lat="45.58876327798648" lon="11.764953058996657"><ele>28.0</ele><time>2026-05-03T16:34:56.981Z</time></trkpt><trkpt lat="45.58873826354378" lon="11.765121056889946"><ele>28.0</ele><time>2026-05-03T16:34:57.981Z</time></trkpt><trkpt lat="45.58870312093523" lon="11.765295475144365"><ele>28.0</ele><time>2026-05-03T16:34:58.981Z</time></trkpt><trkpt lat="45.58866557838645" lon="11.765476220305178"><ele>28.25</ele><time>2026-05-03T16:34:59.981Z</time></trkpt><trkpt lat="45.58863413792918" lon="11.765647722878949"><ele>28.5</ele><time>2026-05-03T16:35:00.981Z</time></trkpt><trkpt lat="45.58860049618527" lon="11.765816341712451"><ele>28.75</ele><time>2026-05-03T16:35:01.981Z</time></trkpt><trkpt lat="45.58856403049659" lon="11.765989681467891"><ele>29.0</ele><time>2026-05-03T16:35:02.981Z</time></trkpt><trkpt lat="45.58852530361893" lon="11.766165504056762"><ele>29.25</ele><time>2026-05-03T16:35:03.981Z</time></trkpt><trkpt lat="45.58848989470645" lon="11.766342717129946"><ele>29.5</ele><time>2026-05-03T16:35:04.981Z</time></trkpt><trkpt lat="45.5884559154877" lon="11.766521030567127"><ele>29.75</ele><time>2026-05-03T16:35:05.981Z</time></trkpt><trkpt lat="45.58842137832656" lon="11.76666620478431"><ele>30.0</ele><time>2026-05-03T16:35:06.981Z</time></trkpt><trkpt lat="45.58839138600582" lon="11.76680762173366"><ele>30.0</ele><time>2026-05-03T16:35:07.981Z</time></trkpt><trkpt lat="45.588353529064776" lon="11.766945780315092"><ele>30.0</ele><time>2026-05-03T16:35:08.981Z</time></trkpt><trkpt lat="45.58829788063665" lon="11.7670922518437"><ele>30.0</ele><time>2026-05-03T16:35:09.981Z</time></trkpt><trkpt lat="45.58822401149508" lon="11.767222739516594"><ele>30.0</ele><time>2026-05-03T16:35:10.981Z</time></trkpt><trkpt lat="45.58812748695862" lon="11.767341476646008"><ele>30.0</ele><time>2026-05-03T16:35:11.981Z</time></trkpt><trkpt lat="45.588009296433945" lon="11.767435510425967"><ele>30.0</ele><time>2026-05-03T16:35:12.981Z</time></trkpt><trkpt lat="45.58786029530736" lon="11.767491684183643"><ele>30.0</ele><time>2026-05-03T16:35:13.981Z</time></trkpt><trkpt lat="45.58769470419492" lon="11.76753160164139"><ele>30.0</ele><time>2026-05-03T16:35:14.981Z</time></trkpt><trkpt lat="45.58752502392126" lon="11.767593108412653"><ele>30.0</ele><time>2026-05-03T16:35:15.981Z</time></trkpt><trkpt lat="45.58325061768782" lon="11.778819118258825"><ele>28.0</ele><time>2026-05-03T16:36:16.98Z</time></trkpt><trkpt lat="45.58316178459163" lon="11.779060621583469"><ele>26.0</ele><time>2026-05-03T16:36:17.98Z</time></trkpt><trkpt lat="45.58305537645597" lon="11.779289436102555"><ele>24.0</ele><time>2026-05-03T16:36:18.98Z</time></trkpt><trkpt lat="45.58292300315272" lon="11.779505546060289"><ele>24.0</ele><time>2026-05-03T16:36:19.98Z</time></trkpt><trkpt lat="45.58276802390338" lon="11.779715608921961"><ele>24.0</ele><time>2026-05-03T16:36:20.98Z</time></trkpt><trkpt lat="45.58260902480739" lon="11.77993114681901"><ele>24.0</ele><time>2026-05-03T16:36:21.98Z</time></trkpt><trkpt lat="45.58245529367256" lon="11.780136900615926"><ele>24.0</ele><time>2026-05-03T16:36:22.98Z</time></trkpt><trkpt lat="45.58230419145586" lon="11.780336768325837"><ele>24.0</ele><time>2026-05-03T16:36:23.98Z</time></trkpt><trkpt lat="45.58215088646172" lon="11.780539549738675"><ele>24.0</ele><time>2026-05-03T16:36:24.98Z</time></trkpt><trkpt lat="45.58199700703922" lon="11.780744068222969"><ele>24.666666666666664</ele><time>2026-05-03T16:36:25.98Z</time></trkpt><trkpt lat="45.581839178258626" lon="11.780953005517755"><ele>25.333333333333332</ele><time>2026-05-03T16:36:26.98Z</time></trkpt><trkpt lat="45.581671371759676" lon="11.781173846393648"><ele>26.0</ele><time>2026-05-03T16:36:27.98Z</time></trkpt><trkpt lat="45.581506871523985" lon="11.781390336351746"><ele>26.0</ele><time>2026-05-03T16:36:28.98Z</time></trkpt><trkpt lat="45.58135735106642" lon="11.781586929784853"><ele>26.0</ele><time>2026-05-03T16:36:29.98Z</time></trkpt><trkpt lat="45.58122145864297" lon="11.781772417054809"><ele>26.0</ele><time>2026-05-03T16:36:30.98Z</time></trkpt><trkpt lat="45.581098235416555" lon="11.78196649684437"><ele>25.666666666666664</ele><time>2026-05-03T16:36:31.98Z</time></trkpt><trkpt lat="45.5809754415213" lon="11.782189094373303"><ele>25.333333333333336</ele><time>2026-05-03T16:36:32.98Z</time></trkpt><trkpt lat="45.58087071848251" lon="11.782430502166847"><ele>25.0</ele><time>2026-05-03T16:36:33.98Z</time></trkpt><trkpt lat="45.58078875801219" lon="11.782692450175995"><ele>25.0</ele><time>2026-05-03T16:36:34.98Z</time></trkpt><trkpt lat="45.58073249653752" lon="11.782958440346947"><ele>25.0</ele><time>2026-05-03T16:36:35.98Z</time></trkpt><trkpt lat="45.58069850583308" lon="11.783231025423454"><ele>25.0</ele><time>2026-05-03T16:36:36.98Z</time></trkpt><trkpt lat="45.58070104286972" lon="11.783499990289132"><ele>25.333333333333336</ele><time>2026-05-03T16:36:37.98Z</time></trkpt><trkpt lat="45.580704804452054" lon="11.783759341047485"><ele>25.666666666666664</ele><time>2026-05-03T16:36:38.98Z</time></trkpt><trkpt lat="45.580734257587984" lon="11.784016814826934"><ele>26.0</ele><time>2026-05-03T16:36:39.98Z</time></trkpt><trkpt lat="45.58078368658933" lon="11.784274818190008"><ele>25.666666666666664</ele><time>2026-05-03T16:36:40.98Z</time></trkpt><trkpt lat="45.580856950683334" lon="11.784538880687311"><ele>25.333333333333336</ele><time>2026-05-03T16:36:41.98Z</time></trkpt><trkpt lat="45.58094918471324" lon="11.78479651478382"><ele>25.0</ele><time>2026-05-03T16:36:42.98Z</time></trkpt><trkpt lat="45.58104692794526" lon="11.785055212814488"><ele>24.666666666666668</ele><time>2026-05-03T16:36:43.98Z</time></trkpt><trkpt lat="45.58115328830203" lon="11.785308305606888"><ele>24.333333333333336</ele><time>2026-05-03T16:36:44.98Z</time></trkpt><trkpt lat="45.581264481765196" lon="11.785560413969307"><ele>24.0</ele><time>2026-05-03T16:36:45.98Z</time></trkpt><trkpt lat="45.581347487945266" lon="11.78583857812933"><ele>24.0</ele><time>2026-05-03T16:36:46.98Z</time></trkpt><trkpt lat="45.581431216373076" lon="11.786116321928992"><ele>24.0</ele><time>2026-05-03T16:36:47.98Z</time></trkpt><trkpt lat="45.581503753505686" lon="11.786418132743531"><ele>24.0</ele><time>2026-05-03T16:36:48.98Z</time></trkpt><trkpt lat="45.58156729943258" lon="11.786719968904919"><ele>24.333333333333336</ele><time>2026-05-03T16:36:49.98Z</time></trkpt><trkpt lat="45.58164484216619" lon="11.787008174124898"><ele>24.666666666666668</ele><time>2026-05-03T16:36:50.98Z</time></trkpt><trkpt lat="45.58170710108946" lon="11.787309234044839"><ele>25.0</ele><time>2026-05-03T16:36:51.98Z</time></trkpt><trkpt lat="45.58177049782603" lon="11.787630258892209"><ele>25.0</ele><time>2026-05-03T16:36:52.98Z</time></trkpt><trkpt lat="45.581832899580895" lon="11.787953408466647"><ele>25.0</ele><time>2026-05-03T16:36:53.98Z</time></trkpt><trkpt lat="45.581899143709656" lon="11.788271068635542"><ele>24.5</ele><time>2026-05-03T16:36:54.98Z</time></trkpt><trkpt lat="45.58196589645781" lon="11.788585600308682"><ele>24.0</ele><time>2026-05-03T16:36:55.98Z</time></trkpt><trkpt lat="45.582030875338276" lon="11.788901145026184"><ele>24.0</ele><time>2026-05-03T16:36:56.98Z</time></trkpt><trkpt lat="45.582095928486034" lon="11.789222056365519"><ele>24.0</ele><time>2026-05-03T16:36:57.98Z</time></trkpt><trkpt lat="45.582164600221994" lon="11.789546607216192"><ele>24.0</ele><time>2026-05-03T16:36:58.98Z</time></trkpt><trkpt lat="45.582229134994925" lon="11.789873287335318"><ele>24.0</ele><time>2026-05-03T16:36:59.98Z</time></trkpt><trkpt lat="45.58229710163412" lon="11.790203787689695"><ele>25.0</ele><time>2026-05-03T16:37:00.98Z</time></trkpt><trkpt lat="45.58236706562909" lon="11.79052857618513"><ele>26.0</ele><time>2026-05-03T16:37:01.98Z</time></trkpt><trkpt lat="45.58243515719881" lon="11.790831778009945"><ele>26.333333333333332</ele><time>2026-05-03T16:37:02.98Z</time></trkpt><trkpt lat="45.58249977784711" lon="11.791113130327247"><ele>26.666666666666664</ele><time>2026-05-03T16:37:03.98Z</time></trkpt><trkpt lat="45.58256523242829" lon="11.79138621851142"><ele>27.0</ele><time>2026-05-03T16:37:04.98Z</time></trkpt><trkpt lat="45.58263112468881" lon="11.791639734774073"><ele>28.0</ele><time>2026-05-03T16:37:05.98Z</time></trkpt><trkpt lat="45.58269617291436" lon="11.791886391748973"><ele>29.0</ele><time>2026-05-03T16:37:06.98Z</time></trkpt><trkpt lat="45.582760640142375" lon="11.792138910067251"><ele>30.0</ele><time>2026-05-03T16:37:07.98Z</time></trkpt><trkpt lat="45.5828202690762" lon="11.79239761838764"><ele>29.666666666666664</ele><time>2026-05-03T16:37:08.98Z</time></trkpt><trkpt lat="45.582862730544576" lon="11.79265526761656"><ele>29.333333333333332</ele><time>2026-05-03T16:37:09.98Z</time></trkpt><trkpt lat="45.58290369558814" lon="11.792912740485525"><ele>29.0</ele><time>2026-05-03T16:37:10.98Z</time></trkpt><trkpt lat="45.582936596696754" lon="11.793178958132438"><ele>28.666666666666664</ele><time>2026-05-03T16:37:11.98Z</time></trkpt><trkpt lat="45.58296745708074" lon="11.793450077373683"><ele>28.333333333333336</ele><time>2026-05-03T16:37:12.98Z</time></trkpt><trkpt lat="45.58299643299421" lon="11.79372161655745"><ele>28.0</ele><time>2026-05-03T16:37:13.98Z</time></trkpt><trkpt lat="45.583039772144986" lon="11.793976663956007"><ele>28.0</ele><time>2026-05-03T16:37:14.98Z</time></trkpt><trkpt lat="45.58311286023113" lon="11.794219324490582"><ele>28.0</ele><time>2026-05-03T16:37:15.98Z</time></trkpt><trkpt lat="45.58797008950034" lon="11.805739479623346"><ele>28.4</ele><time>2026-05-03T16:38:16.98Z</time></trkpt><trkpt lat="45.58797984594931" lon="11.805911992820974"><ele>28.799999999999997</ele><time>2026-05-03T16:38:59.979Z</time></trkpt><trkpt lat="45.587974319324374" lon="11.806015396023952"><ele>29.2</ele><time>2026-05-03T16:39:00.979Z</time></trkpt><trkpt lat="45.587966713249656" lon="11.80614317731688"><ele>29.6</ele><time>2026-05-03T16:39:01.979Z</time></trkpt><trkpt lat="45.58796039468655" lon="11.80630185570808"><ele>30.0</ele><time>2026-05-03T16:39:02.979Z</time></trkpt><trkpt lat="45.5879317816443" lon="11.80649635157918"><ele>30.0</ele><time>2026-05-03T16:39:03.979Z</time></trkpt><trkpt lat="45.58796783884471" lon="11.806730182424255"><ele>30.0</ele><time>2026-05-03T16:39:04.979Z</time></trkpt><trkpt lat="45.5879653568658" lon="11.807030457661929"><ele>30.0</ele><time>2026-05-03T16:39:05.979Z</time></trkpt><trkpt lat="45.5879631253491" lon="11.807385426265656"><ele>30.5</ele><time>2026-05-03T16:39:06.979Z</time></trkpt><trkpt lat="45.587957512357974" lon="11.807773842615877"><ele>31.0</ele><time>2026-05-03T16:39:07.979Z</time></trkpt><trkpt lat="45.587912658239844" lon="11.808209749332374"><ele>31.0</ele><time>2026-05-03T16:39:08.979Z</time></trkpt><trkpt lat="45.58790562482339" lon="11.808679229932162"><ele>31.0</ele><time>2026-05-03T16:39:09.979Z</time></trkpt><trkpt lat="45.58789921723154" lon="11.809167587499985"><ele>30.5</ele><time>2026-05-03T16:39:10.979Z</time></trkpt><trkpt lat="45.587892516226304" lon="11.809645650924674"><ele>30.0</ele><time>2026-05-03T16:39:11.979Z</time></trkpt><trkpt lat="45.587891370390615" lon="11.810067680571823"><ele>30.0</ele><time>2026-05-03T16:39:12.979Z</time></trkpt><trkpt lat="45.587876781675156" lon="11.810480317531766"><ele>30.0</ele><time>2026-05-03T16:39:13.979Z</time></trkpt><trkpt lat="45.587876718781374" lon="11.810892355998693"><ele>30.0</ele><time>2026-05-03T16:39:14.979Z</time></trkpt><trkpt lat="45.58787145320056" lon="11.811298195710073"><ele>30.0</ele><time>2026-05-03T16:39:15.979Z</time></trkpt><trkpt lat="45.58760151629698" lon="11.83076943840491"><ele>29.0</ele><time>2026-05-03T16:40:16.98Z</time></trkpt><trkpt lat="45.587597297079654" lon="11.831084185129797"><ele>28.0</ele><time>2026-05-03T16:40:17.98Z</time></trkpt><trkpt lat="45.58759006649686" lon="11.831410578789006"><ele>27.0</ele><time>2026-05-03T16:40:18.98Z</time></trkpt><trkpt lat="45.58758443846598" lon="11.83174243350549"><ele>27.5</ele><time>2026-05-03T16:40:19.98Z</time></trkpt><trkpt lat="45.58757913173372" lon="11.83207543405656"><ele>28.0</ele><time>2026-05-03T16:40:20.98Z</time></trkpt><trkpt lat="45.587576732680084" lon="11.832405151287729"><ele>28.0</ele><time>2026-05-03T16:40:21.98Z</time></trkpt><trkpt lat="45.58757565232984" lon="11.832720135427136"><ele>28.0</ele><time>2026-05-03T16:40:22.98Z</time></trkpt><trkpt lat="45.58757078590223" lon="11.833028574525844"><ele>28.0</ele><time>2026-05-03T16:40:23.98Z</time></trkpt><trkpt lat="45.58756416022324" lon="11.833346504209457"><ele>28.333333333333336</ele><time>2026-05-03T16:40:24.98Z</time></trkpt><trkpt lat="45.58755942759924" lon="11.833663565994751"><ele>28.666666666666664</ele><time>2026-05-03T16:40:25.98Z</time></trkpt><trkpt lat="45.587550907989545" lon="11.833984593570417"><ele>29.0</ele><time>2026-05-03T16:40:26.98Z</time></trkpt><trkpt lat="45.58754326509862" lon="11.834311410707592"><ele>29.5</ele><time>2026-05-03T16:40:27.98Z</time></trkpt><trkpt lat="45.58753864192359" lon="11.834637015108337"><ele>30.0</ele><time>2026-05-03T16:40:28.98Z</time></trkpt><trkpt lat="45.587536712823464" lon="11.83496050616122"><ele>29.333333333333336</ele><time>2026-05-03T16:40:29.98Z</time></trkpt><trkpt lat="45.58753010918321" lon="11.835265241557414"><ele>28.666666666666668</ele><time>2026-05-03T16:40:30.98Z</time></trkpt><trkpt lat="45.587524916767464" lon="11.83556072668383"><ele>28.0</ele><time>2026-05-03T16:40:31.98Z</time></trkpt><trkpt lat="45.58751793801677" lon="11.835860129270891"><ele>27.666666666666668</ele><time>2026-05-03T16:40:32.98Z</time></trkpt><trkpt lat="45.58751132730588" lon="11.83616318714512"><ele>27.333333333333336</ele><time>2026-05-03T16:40:33.98Z</time></trkpt><trkpt lat="45.58749337850276" lon="11.836476566589626"><ele>27.0</ele><time>2026-05-03T16:40:34.979Z</time></trkpt><trkpt lat="45.58746334921841" lon="11.836793994870632"><ele>27.0</ele><time>2026-05-03T16:40:35.979Z</time></trkpt><trkpt lat="45.58741975214294" lon="11.837121945082602"><ele>27.0</ele><time>2026-05-03T16:40:36.979Z</time></trkpt><trkpt lat="45.587363354814556" lon="11.837452792010387"><ele>28.0</ele><time>2026-05-03T16:40:37.979Z</time></trkpt><trkpt lat="45.58730257619761" lon="11.83777427499119"><ele>29.0</ele><time>2026-05-03T16:40:38.979Z</time></trkpt><trkpt lat="45.58723732858312" lon="11.838113265646466"><ele>29.0</ele><time>2026-05-03T16:40:39.979Z</time></trkpt><trkpt lat="45.58717062697926" lon="11.838453347730239"><ele>29.0</ele><time>2026-05-03T16:40:40.979Z</time></trkpt><trkpt lat="45.58710937318346" lon="11.838784618708997"><ele>29.5</ele><time>2026-05-03T16:40:41.979Z</time></trkpt><trkpt lat="45.587044492849245" lon="11.839114559741885"><ele>30.0</ele><time>2026-05-03T16:40:42.979Z</time></trkpt><trkpt lat="45.58698227776559" lon="11.839443692580645"><ele>29.0</ele><time>2026-05-03T16:40:43.979Z</time></trkpt><trkpt lat="45.58692243694298" lon="11.839770925703375"><ele>28.0</ele><time>2026-05-03T16:40:44.979Z</time></trkpt><trkpt lat="45.586866099241874" lon="11.840097387423764"><ele>28.0</ele><time>2026-05-03T16:40:45.979Z</time></trkpt><trkpt lat="45.58680826046534" lon="11.840416112182465"><ele>28.0</ele><time>2026-05-03T16:40:46.979Z</time></trkpt><trkpt lat="45.58675052517956" lon="11.840711894028086"><ele>28.0</ele><time>2026-05-03T16:40:47.979Z</time></trkpt><trkpt lat="45.58669412531158" lon="11.841001610374217"><ele>28.333333333333336</ele><time>2026-05-03T16:40:48.979Z</time></trkpt><trkpt lat="45.58663674358907" lon="11.841293151827404"><ele>28.666666666666664</ele><time>2026-05-03T16:40:49.979Z</time></trkpt><trkpt lat="45.586587072230806" lon="11.841567963306954"><ele>29.0</ele><time>2026-05-03T16:40:50.979Z</time></trkpt><trkpt lat="45.58653744013071" lon="11.841832532933322"><ele>29.0</ele><time>2026-05-03T16:40:51.979Z</time></trkpt><trkpt lat="45.58649198493472" lon="11.842090700446796"><ele>29.0</ele><time>2026-05-03T16:40:52.979Z</time></trkpt><trkpt lat="45.58644652693517" lon="11.842329840100954"><ele>29.0</ele><time>2026-05-03T16:40:53.979Z</time></trkpt><trkpt lat="45.58640341774721" lon="11.842559859486975"><ele>28.333333333333332</ele><time>2026-05-03T16:40:54.979Z</time></trkpt><trkpt lat="45.586356229323115" lon="11.842771491258464"><ele>27.666666666666664</ele><time>2026-05-03T16:40:55.979Z</time></trkpt><trkpt lat="45.58631523226268" lon="11.842984740059368"><ele>27.0</ele><time>2026-05-03T16:40:56.979Z</time></trkpt><trkpt lat="45.58628210522354" lon="11.843190612983662"><ele>27.0</ele><time>2026-05-03T16:40:57.979Z</time></trkpt><trkpt lat="45.586249046044486" lon="11.843376453925167"><ele>27.0</ele><time>2026-05-03T16:40:58.979Z</time></trkpt><trkpt lat="45.58621774759168" lon="11.843546794394507"><ele>27.0</ele><time>2026-05-03T16:40:59.979Z</time></trkpt><trkpt lat="45.58618978199687" lon="11.843675576782159"><ele>27.0</ele><time>2026-05-03T16:41:00.979Z</time></trkpt><trkpt lat="45.586154021486415" lon="11.843821638546085"><ele>27.333333333333332</ele><time>2026-05-03T16:41:02.979Z</time></trkpt><trkpt lat="45.5861057043977" lon="11.843948876607703"><ele>27.666666666666664</ele><time>2026-05-03T16:41:04.979Z</time></trkpt><trkpt lat="45.58607176576384" lon="11.844029279798225"><ele>28.0</ele><time>2026-05-03T16:41:05.979Z</time></trkpt><trkpt lat="45.58605648518259" lon="11.844121724621424"><ele>28.333333333333332</ele><time>2026-05-03T16:41:06.979Z</time></trkpt><trkpt lat="45.58605740541312" lon="11.844246474530028"><ele>28.666666666666664</ele><time>2026-05-03T16:41:07.979Z</time></trkpt><trkpt lat="45.58605757369562" lon="11.84438537390569"><ele>29.0</ele><time>2026-05-03T16:41:08.979Z</time></trkpt><trkpt lat="45.5860471565138" lon="11.84452835276055"><ele>29.0</ele><time>2026-05-03T16:41:09.979Z</time></trkpt><trkpt lat="45.5859924605422" lon="11.844681076426376"><ele>29.0</ele><time>2026-05-03T16:41:10.979Z</time></trkpt><trkpt lat="45.58596193355353" lon="11.84484674236763"><ele>29.0</ele><time>2026-05-03T16:41:11.979Z</time></trkpt><trkpt lat="45.58594659998512" lon="11.845014913697893"><ele>29.0</ele><time>2026-05-03T16:41:12.979Z</time></trkpt><trkpt lat="45.58590138590757" lon="11.845197091608982"><ele>29.0</ele><time>2026-05-03T16:41:13.979Z</time></trkpt><trkpt lat="45.585866261326764" lon="11.845403600817534"><ele>29.0</ele><time>2026-05-03T16:41:14.979Z</time></trkpt><trkpt lat="45.58581897112035" lon="11.845632315717827"><ele>29.0</ele><time>2026-05-03T16:41:15.979Z</time></trkpt><trkpt lat="45.58352539366986" lon="11.859213086063829"><ele>29.25</ele><time>2026-05-03T16:42:16.979Z</time></trkpt><trkpt lat="45.58349165017601" lon="11.859414346815417"><ele>29.5</ele><time>2026-05-03T16:42:17.979Z</time></trkpt><trkpt lat="45.58345446707232" lon="11.859600021369792"><ele>29.75</ele><time>2026-05-03T16:42:18.979Z</time></trkpt><trkpt lat="45.58341712234372" lon="11.85977274773776"><ele>30.0</ele><time>2026-05-03T16:42:19.979Z</time></trkpt><trkpt lat="45.58338957344248" lon="11.85993785117412"><ele>30.0</ele><time>2026-05-03T16:42:20.979Z</time></trkpt><trkpt lat="45.58336040352193" lon="11.860104843771412"><ele>30.0</ele><time>2026-05-03T16:42:21.979Z</time></trkpt><trkpt lat="45.58333107463548" lon="11.860276931972559"><ele>30.0</ele><time>2026-05-03T16:42:22.979Z</time></trkpt><trkpt lat="45.58330578421364" lon="11.86046274757201"><ele>30.0</ele><time>2026-05-03T16:42:23.979Z</time></trkpt><trkpt lat="45.583276489358234" lon="11.860654703355046"><ele>29.75</ele><time>2026-05-03T16:42:24.979Z</time></trkpt><trkpt lat="45.58324102202031" lon="11.860835432540792"><ele>29.5</ele><time>2026-05-03T16:42:25.979Z</time></trkpt><trkpt lat="45.58318421108237" lon="11.861002754582593"><ele>29.25</ele><time>2026-05-03T16:42:26.979Z</time></trkpt><trkpt lat="45.58310710782289" lon="11.86117350452"><ele>29.0</ele><time>2026-05-03T16:42:27.979Z</time></trkpt><trkpt lat="45.58302722629647" lon="11.86135195045937"><ele>29.0</ele><time>2026-05-03T16:42:28.979Z</time></trkpt><trkpt lat="45.58293837163455" lon="11.861533189913592"><ele>29.0</ele><time>2026-05-03T16:42:29.979Z</time></trkpt><trkpt lat="45.582859247757554" lon="11.861745080467276"><ele>29.0</ele><time>2026-05-03T16:42:30.979Z</time></trkpt><trkpt lat="45.58278110783612" lon="11.861975496562344"><ele>29.0</ele><time>2026-05-03T16:42:31.979Z</time></trkpt><trkpt lat="45.58272609120896" lon="11.862249441238449"><ele>29.0</ele><time>2026-05-03T16:42:32.979Z</time></trkpt><trkpt lat="45.58268358544379" lon="11.86256120767301"><ele>29.0</ele><time>2026-05-03T16:42:33.979Z</time></trkpt><trkpt lat="45.582676031265834" lon="11.862887749924502"><ele>29.0</ele><time>2026-05-03T16:42:34.979Z</time></trkpt><trkpt lat="45.582638593602645" lon="11.863160139977259"><ele>29.0</ele><time>2026-05-03T16:42:35.979Z</time></trkpt><trkpt lat="45.582603958360345" lon="11.863406777077552"><ele>29.0</ele><time>2026-05-03T16:42:36.979Z</time></trkpt><trkpt lat="45.5825581339444" lon="11.863641245761011"><ele>29.0</ele><time>2026-05-03T16:42:37.979Z</time></trkpt><trkpt lat="45.582517378016036" lon="11.863861315361559"><ele>29.0</ele><time>2026-05-03T16:42:38.979Z</time></trkpt><trkpt lat="45.58245109455545" lon="11.864073281529679"><ele>29.0</ele><time>2026-05-03T16:42:39.979Z</time></trkpt><trkpt lat="45.58240593459151" lon="11.864286118071801"><ele>29.0</ele><time>2026-05-03T16:42:40.979Z</time></trkpt><trkpt lat="45.582365906675626" lon="11.864499082657177"><ele>29.0</ele><time>2026-05-03T16:42:41.979Z</time></trkpt><trkpt lat="45.58233023692943" lon="11.864710976002112"><ele>29.0</ele><time>2026-05-03T16:42:42.979Z</time></trkpt><trkpt lat="45.58229191546944" lon="11.864925946515498"><ele>28.75</ele><time>2026-05-03T16:42:43.979Z</time></trkpt><trkpt lat="45.58225170735374" lon="11.865141419960262"><ele>28.5</ele><time>2026-05-03T16:42:44.979Z</time></trkpt><trkpt lat="45.58221814955663" lon="11.86532850016602"><ele>28.25</ele><time>2026-05-03T16:42:45.979Z</time></trkpt><trkpt lat="45.582185772383134" lon="11.86549530869308"><ele>28.0</ele><time>2026-05-03T16:42:46.979Z</time></trkpt><trkpt lat="45.58215677156956" lon="11.86564912451739"><ele>28.0</ele><time>2026-05-03T16:42:47.979Z</time></trkpt><trkpt lat="45.58212125411305" lon="11.86578879594244"><ele>27.999999999999996</ele><time>2026-05-03T16:42:48.979Z</time></trkpt><trkpt lat="45.58206975394987" lon="11.865921020988454"><ele>27.999999999999996</ele><time>2026-05-03T16:42:49.979Z</time></trkpt><trkpt lat="45.58200880558366" lon="11.866036648741204"><ele>28.0</ele><time>2026-05-03T16:42:50.979Z</time></trkpt><trkpt lat="45.581933957845166" lon="11.866136436782186"><ele>28.0</ele><time>2026-05-03T16:42:51.979Z</time></trkpt><trkpt lat="45.58188564126556" lon="11.86624559277501"><ele>27.799999999999997</ele><time>2026-05-03T16:42:52.979Z</time></trkpt><trkpt lat="45.58187165275389" lon="11.866360226231405"><ele>27.599999999999998</ele><time>2026-05-03T16:42:53.979Z</time></trkpt><trkpt lat="45.58188616555581" lon="11.866481470953369"><ele>27.400000000000002</ele><time>2026-05-03T16:42:54.979Z</time></trkpt><trkpt lat="45.581912636019666" lon="11.86663459245984"><ele>27.200000000000003</ele><time>2026-05-03T16:42:55.979Z</time></trkpt><trkpt lat="45.58192281210086" lon="11.866807109951335"><ele>27.0</ele><time>2026-05-03T16:42:56.979Z</time></trkpt><trkpt lat="45.581876029042995" lon="11.866989302906378"><ele>27.0</ele><time>2026-05-03T16:42:57.979Z</time></trkpt><trkpt lat="45.5818319547362" lon="11.867199493344378"><ele>27.0</ele><time>2026-05-03T16:42:58.979Z</time></trkpt><trkpt lat="45.581790002767455" lon="11.867426383135598"><ele>27.0</ele><time>2026-05-03T16:42:59.979Z</time></trkpt><trkpt lat="45.58174659003152" lon="11.86765286640519"><ele>26.666666666666664</ele><time>2026-05-03T16:43:00.979Z</time></trkpt><trkpt lat="45.58170256178754" lon="11.86788304213878"><ele>26.333333333333332</ele><time>2026-05-03T16:43:01.979Z</time></trkpt><trkpt lat="45.58165708822783" lon="11.868120773871322"><ele>26.0</ele><time>2026-05-03T16:43:02.979Z</time></trkpt><trkpt lat="45.581611839732744" lon="11.868346146086324"><ele>26.0</ele><time>2026-05-03T16:43:03.979Z</time></trkpt><trkpt lat="45.581564796575336" lon="11.86858094408405"><ele>26.0</ele><time>2026-05-03T16:43:04.979Z</time></trkpt><trkpt lat="45.58151637313456" lon="11.868820222099194"><ele>26.0</ele><time>2026-05-03T16:43:05.979Z</time></trkpt><trkpt lat="45.58146511053289" lon="11.869071981038845"><ele>26.0</ele><time>2026-05-03T16:43:06.979Z</time></trkpt><trkpt lat="45.581412958208034" lon="11.86932810953123"><ele>26.0</ele><time>2026-05-03T16:43:07.979Z</time></trkpt><trkpt lat="45.581360007880185" lon="11.869590441809152"><ele>26.0</ele><time>2026-05-03T16:43:08.979Z</time></trkpt><trkpt lat="45.58130524800999" lon="11.869870875127122"><ele>25.666666666666664</ele><time>2026-05-03T16:43:09.979Z</time></trkpt><trkpt lat="45.58124782258701" lon="11.870164959148035"><ele>25.333333333333336</ele><time>2026-05-03T16:43:10.979Z</time></trkpt><trkpt lat="45.581189295622025" lon="11.870464684301732"><ele>25.0</ele><time>2026-05-03T16:43:11.979Z</time></trkpt><trkpt lat="45.58113254492359" lon="11.87075354080224"><ele>24.666666666666668</ele><time>2026-05-03T16:43:12.979Z</time></trkpt><trkpt lat="45.58107682779033" lon="11.871037028142847"><ele>24.333333333333336</ele><time>2026-05-03T16:43:13.979Z</time></trkpt><trkpt lat="45.58101818796498" lon="11.871329210843175"><ele>24.0</ele><time>2026-05-03T16:43:14.979Z</time></trkpt><trkpt lat="45.58095978569885" lon="11.871616909210985"><ele>25.0</ele><time>2026-05-03T16:43:15.979Z</time></trkpt><trkpt lat="45.57525766939157" lon="11.887222465642205"><ele>25.0</ele><time>2026-05-03T16:44:16.979Z</time></trkpt><trkpt lat="45.57516597617562" lon="11.88743043314901"><ele>25.0</ele><time>2026-05-03T16:44:17.979Z</time></trkpt><trkpt lat="45.575078147872055" lon="11.887631889616749"><ele>25.0</ele><time>2026-05-03T16:44:18.979Z</time></trkpt><trkpt lat="45.57499273278009" lon="11.887826623332664"><ele>24.5</ele><time>2026-05-03T16:44:19.979Z</time></trkpt><trkpt lat="45.574917253794986" lon="11.88801563949928"><ele>24.0</ele><time>2026-05-03T16:44:20.979Z</time></trkpt><trkpt lat="45.5748386824595" lon="11.888182408602319"><ele>23.5</ele><time>2026-05-03T16:44:21.979Z</time></trkpt><trkpt lat="45.57476500977719" lon="11.888328817636971"><ele>23.0</ele><time>2026-05-03T16:44:22.979Z</time></trkpt><trkpt lat="45.57468605460825" lon="11.88845530990214"><ele>23.0</ele><time>2026-05-03T16:44:23.979Z</time></trkpt><trkpt lat="45.57460545215942" lon="11.88856433269237"><ele>23.0</ele><time>2026-05-03T16:44:24.979Z</time></trkpt><trkpt lat="45.57452392277112" lon="11.888666494903605"><ele>23.0</ele><time>2026-05-03T16:44:25.979Z</time></trkpt><trkpt lat="45.5744751731362" lon="11.888784735144773"><ele>23.0</ele><time>2026-05-03T16:44:26.979Z</time></trkpt><trkpt lat="45.57444588211339" lon="11.88894156032271"><ele>23.0</ele><time>2026-05-03T16:44:27.979Z</time></trkpt><trkpt lat="45.57440422888443" lon="11.889091441859367"><ele>23.25</ele><time>2026-05-03T16:44:28.979Z</time></trkpt><trkpt lat="45.57434159175545" lon="11.889221460416119"><ele>23.5</ele><time>2026-05-03T16:44:29.979Z</time></trkpt><trkpt lat="45.574244733834" lon="11.88934834889703"><ele>23.75</ele><time>2026-05-03T16:44:30.979Z</time></trkpt><trkpt lat="45.574121170717895" lon="11.889503137642816"><ele>24.0</ele><time>2026-05-03T16:44:31.979Z</time></trkpt><trkpt lat="45.57400624793512" lon="11.889665218202582"><ele>24.0</ele><time>2026-05-03T16:44:32.979Z</time></trkpt><trkpt lat="45.57388435327753" lon="11.889828133100258"><ele>24.0</ele><time>2026-05-03T16:44:33.979Z</time></trkpt><trkpt lat="45.57375525343372" lon="11.889997969703774"><ele>24.0</ele><time>2026-05-03T16:44:34.979Z</time></trkpt><trkpt lat="45.57362732832846" lon="11.890181863299592"><ele>23.666666666666668</ele><time>2026-05-03T16:44:35.979Z</time></trkpt><trkpt lat="45.57348967571729" lon="11.89038391494131"><ele>23.333333333333336</ele><time>2026-05-03T16:44:36.979Z</time></trkpt><trkpt lat="45.573331740475254" lon="11.890596932492056"><ele>23.0</ele><time>2026-05-03T16:44:37.979Z</time></trkpt><trkpt lat="45.573171874993164" lon="11.890831833381759"><ele>23.0</ele><time>2026-05-03T16:44:38.979Z</time></trkpt><trkpt lat="45.573011430151496" lon="11.891072988077317"><ele>23.0</ele><time>2026-05-03T16:44:39.979Z</time></trkpt><trkpt lat="45.57284514424826" lon="11.891319070805183"><ele>23.0</ele><time>2026-05-03T16:44:40.979Z</time></trkpt><trkpt lat="45.57268841489638" lon="11.891555571932173"><ele>23.0</ele><time>2026-05-03T16:44:41.979Z</time></trkpt><trkpt lat="45.5725294762552" lon="11.891788587558166"><ele>23.5</ele><time>2026-05-03T16:44:42.979Z</time></trkpt><trkpt lat="45.57237061881014" lon="11.8920164076532"><ele>24.0</ele><time>2026-05-03T16:44:43.979Z</time></trkpt><trkpt lat="45.572207739509516" lon="11.892243094895253"><ele>24.0</ele><time>2026-05-03T16:44:44.979Z</time></trkpt><trkpt lat="45.5720438717942" lon="11.892473908338651"><ele>24.0</ele><time>2026-05-03T16:44:45.979Z</time></trkpt><trkpt lat="45.571876847354226" lon="11.892707892787342"><ele>23.5</ele><time>2026-05-03T16:44:46.979Z</time></trkpt><trkpt lat="45.57170467511105" lon="11.892946814979126"><ele>23.0</ele><time>2026-05-03T16:44:47.979Z</time></trkpt><trkpt lat="45.57153866897558" lon="11.893187161085033"><ele>24.0</ele><time>2026-05-03T16:44:48.979Z</time></trkpt><trkpt lat="45.57136831417879" lon="11.893430165665672"><ele>25.0</ele><time>2026-05-03T16:44:49.979Z</time></trkpt><trkpt lat="45.57119759672349" lon="11.893672931227657"><ele>25.0</ele><time>2026-05-03T16:44:50.979Z</time></trkpt><trkpt lat="45.571038616545124" lon="11.893908123239123"><ele>25.0</ele><time>2026-05-03T16:44:51.979Z</time></trkpt><trkpt lat="45.570895081349995" lon="11.894123817986825"><ele>25.0</ele><time>2026-05-03T16:44:52.979Z</time></trkpt><trkpt lat="45.57076450618117" lon="11.894315839898823"><ele>25.0</ele><time>2026-05-03T16:44:53.979Z</time></trkpt><trkpt lat="45.57063875643683" lon="11.894497281326439"><ele>25.0</ele><time>2026-05-03T16:44:54.979Z</time></trkpt><trkpt lat="45.57052852335056" lon="11.894703580592596"><ele>25.0</ele><time>2026-05-03T16:44:55.979Z</time></trkpt><trkpt lat="45.5704361857014" lon="11.894955602003192"><ele>24.333333333333336</ele><time>2026-05-03T16:44:56.979Z</time></trkpt><trkpt lat="45.570343772925334" lon="11.895240068752958"><ele>23.666666666666668</ele><time>2026-05-03T16:44:57.979Z</time></trkpt><trkpt lat="45.57026594059392" lon="11.895549198609343"><ele>23.0</ele><time>2026-05-03T16:44:58.979Z</time></trkpt><trkpt lat="45.570199955948034" lon="11.89587292833541"><ele>22.666666666666668</ele><time>2026-05-03T16:44:59.979Z</time></trkpt><trkpt lat="45.57015231911017" lon="11.896165254355306"><ele>22.333333333333332</ele><time>2026-05-03T16:45:00.979Z</time></trkpt><trkpt lat="45.57010094841565" lon="11.896443856324016"><ele>22.0</ele><time>2026-05-03T16:45:01.979Z</time></trkpt><trkpt lat="45.570044872516824" lon="11.89670823481555"><ele>22.333333333333332</ele><time>2026-05-03T16:45:02.979Z</time></trkpt><trkpt lat="45.569990155564106" lon="11.896961968517347"><ele>22.666666666666668</ele><time>2026-05-03T16:45:03.979Z</time></trkpt><trkpt lat="45.56993138619125" lon="11.897223333207666"><ele>23.0</ele><time>2026-05-03T16:45:04.979Z</time></trkpt><trkpt lat="45.56986985352663" lon="11.89748776892594"><ele>23.333333333333336</ele><time>2026-05-03T16:45:05.979Z</time></trkpt><trkpt lat="45.569807045722705" lon="11.897764655104362"><ele>23.666666666666668</ele><time>2026-05-03T16:45:06.979Z</time></trkpt><trkpt lat="45.569745894433886" lon="11.898047452999787"><ele>24.0</ele><time>2026-05-03T16:45:07.979Z</time></trkpt><trkpt lat="45.56968066745068" lon="11.898335879527066"><ele>23.333333333333332</ele><time>2026-05-03T16:45:08.979Z</time></trkpt><trkpt lat="45.5696134323511" lon="11.898603481419805"><ele>22.666666666666664</ele><time>2026-05-03T16:45:09.979Z</time></trkpt><trkpt lat="45.5695377290901" lon="11.89883389625711"><ele>22.0</ele><time>2026-05-03T16:45:10.979Z</time></trkpt><trkpt lat="45.56944670813039" lon="11.899057320673402"><ele>22.0</ele><time>2026-05-03T16:45:11.979Z</time></trkpt><trkpt lat="45.5693523387656" lon="11.899240816917509"><ele>22.0</ele><time>2026-05-03T16:45:12.979Z</time></trkpt><trkpt lat="45.56925553989654" lon="11.899392710133675"><ele>22.0</ele><time>2026-05-03T16:45:13.979Z</time></trkpt><trkpt lat="45.56913868088264" lon="11.899534671517278"><ele>22.0</ele><time>2026-05-03T16:45:14.979Z</time></trkpt><trkpt lat="45.56901239920389" lon="11.899643851230266"><ele>22.0</ele><time>2026-05-03T16:45:15.979Z</time></trkpt><trkpt lat="45.562922366304214" lon="11.906312539511074"><ele>22.0</ele><time>2026-05-03T16:46:16.979Z</time></trkpt><trkpt lat="45.5628376165004" lon="11.906269411657673"><ele>22.0</ele><time>2026-05-03T16:46:17.979Z</time></trkpt><trkpt lat="45.56275008275915" lon="11.906282572555796"><ele>22.0</ele><time>2026-05-03T16:46:18.979Z</time></trkpt><trkpt lat="45.56264283934721" lon="11.90634667379986"><ele>22.0</ele><time>2026-05-03T16:46:19.979Z</time></trkpt><trkpt lat="45.562523336435014" lon="11.90642824487869"><ele>22.0</ele><time>2026-05-03T16:46:20.979Z</time></trkpt><trkpt lat="45.5624019280352" lon="11.906482884320821"><ele>22.0</ele><time>2026-05-03T16:46:21.979Z</time></trkpt><trkpt lat="45.56229155716173" lon="11.906559722455713"><ele>22.0</ele><time>2026-05-03T16:46:22.979Z</time></trkpt><trkpt lat="45.56216384422985" lon="11.906632087201162"><ele>22.0</ele><time>2026-05-03T16:46:23.979Z</time></trkpt><trkpt lat="45.56203249696699" lon="11.906700049301705"><ele>22.0</ele><time>2026-05-03T16:46:24.979Z</time></trkpt><trkpt lat="45.56190202306731" lon="11.906749867480777"><ele>22.0</ele><time>2026-05-03T16:46:25.979Z</time></trkpt><trkpt lat="45.56178961103039" lon="11.906807788782382"><ele>22.0</ele><time>2026-05-03T16:46:26.979Z</time></trkpt><trkpt lat="45.56167226840944" lon="11.906890228167276"><ele>22.0</ele><time>2026-05-03T16:46:27.979Z</time></trkpt><trkpt lat="45.56154240442634" lon="11.906967242600258"><ele>22.0</ele><time>2026-05-03T16:46:28.979Z</time></trkpt><trkpt lat="45.561414351287496" lon="11.907058210138707"><ele>22.0</ele><time>2026-05-03T16:46:29.978Z</time></trkpt><trkpt lat="45.56127944571901" lon="11.907155596366554"><ele>22.0</ele><time>2026-05-03T16:46:30.978Z</time></trkpt><trkpt lat="45.56115043992466" lon="11.907256399143288"><ele>22.0</ele><time>2026-05-03T16:46:31.978Z</time></trkpt><trkpt lat="45.56102380593952" lon="11.907367800903598"><ele>22.0</ele><time>2026-05-03T16:46:32.978Z</time></trkpt><trkpt lat="45.56089204670571" lon="11.907497974833714"><ele>22.333333333333332</ele><time>2026-05-03T16:46:33.978Z</time></trkpt><trkpt lat="45.56075431911048" lon="11.907647113932034"><ele>22.666666666666668</ele><time>2026-05-03T16:46:34.978Z</time></trkpt><trkpt lat="45.56059469025132" lon="11.907794923947597"><ele>23.0</ele><time>2026-05-03T16:46:35.978Z</time></trkpt><trkpt lat="45.56042810425501" lon="11.907974629860481"><ele>22.333333333333336</ele><time>2026-05-03T16:46:36.978Z</time></trkpt><trkpt lat="45.560260240155586" lon="11.908153610159625"><ele>21.666666666666668</ele><time>2026-05-03T16:46:37.978Z</time></trkpt><trkpt lat="45.56010710631316" lon="11.90831462887628"><ele>21.0</ele><time>2026-05-03T16:46:38.978Z</time></trkpt><trkpt lat="45.55995447251633" lon="11.908475334158675"><ele>21.0</ele><time>2026-05-03T16:46:39.978Z</time></trkpt><trkpt lat="45.55979470947476" lon="11.908642089344857"><ele>21.0</ele><time>2026-05-03T16:46:40.978Z</time></trkpt><trkpt lat="45.55962214498511" lon="11.908799505915882"><ele>21.0</ele><time>2026-05-03T16:46:41.978Z</time></trkpt><trkpt lat="45.55944561332385" lon="11.908951937661916"><ele>21.0</ele><time>2026-05-03T16:46:42.978Z</time></trkpt><trkpt lat="45.55926549519272" lon="11.909104262340003"><ele>21.0</ele><time>2026-05-03T16:46:43.978Z</time></trkpt><trkpt lat="45.55908410318072" lon="11.909257358094417"><ele>21.0</ele><time>2026-05-03T16:46:44.978Z</time></trkpt><trkpt lat="45.55891725621967" lon="11.909408792614803"><ele>21.333333333333332</ele><time>2026-05-03T16:46:45.978Z</time></trkpt><trkpt lat="45.558754514085514" lon="11.90954570674135"><ele>21.666666666666664</ele><time>2026-05-03T16:46:46.978Z</time></trkpt><trkpt lat="45.5585967352616" lon="11.909673106346972"><ele>22.0</ele><time>2026-05-03T16:46:47.978Z</time></trkpt><trkpt lat="45.55844478565327" lon="11.909797600915491"><ele>22.0</ele><time>2026-05-03T16:46:48.978Z</time></trkpt><trkpt lat="45.55830233965114" lon="11.909926853010232"><ele>22.0</ele><time>2026-05-03T16:46:49.978Z</time></trkpt><trkpt lat="45.55816498890702" lon="11.910048168071683"><ele>22.0</ele><time>2026-05-03T16:46:50.978Z</time></trkpt><trkpt lat="45.558031729508215" lon="11.910157188518632"><ele>22.0</ele><time>2026-05-03T16:46:51.978Z</time></trkpt><trkpt lat="45.557907677067114" lon="11.910258279109385"><ele>22.0</ele><time>2026-05-03T16:46:52.978Z</time></trkpt><trkpt lat="45.55778537922614" lon="11.910356203188725"><ele>22.0</ele><time>2026-05-03T16:46:53.978Z</time></trkpt><trkpt lat="45.557656599483664" lon="11.91045226987646"><ele>22.0</ele><time>2026-05-03T16:46:54.978Z</time></trkpt><trkpt lat="45.55752594686755" lon="11.910537913266289"><ele>22.25</ele><time>2026-05-03T16:46:55.978Z</time></trkpt><trkpt lat="45.55739760467643" lon="11.910605357512797"><ele>22.5</ele><time>2026-05-03T16:46:56.978Z</time></trkpt><trkpt lat="45.55727264263744" lon="11.910666062103067"><ele>22.75</ele><time>2026-05-03T16:46:57.978Z</time></trkpt><trkpt lat="45.557153597281335" lon="11.910717113958356"><ele>23.0</ele><time>2026-05-03T16:46:58.978Z</time></trkpt><trkpt lat="45.55703950444042" lon="11.910763127197786"><ele>22.599999999999998</ele><time>2026-05-03T16:46:59.978Z</time></trkpt><trkpt lat="45.55693125664098" lon="11.910804113559"><ele>22.2</ele><time>2026-05-03T16:47:00.978Z</time></trkpt><trkpt lat="45.55682125346572" lon="11.910842757938665"><ele>21.8</ele><time>2026-05-03T16:47:01.978Z</time></trkpt><trkpt lat="45.55671829797647" lon="11.910875532121137"><ele>21.4</ele><time>2026-05-03T16:47:02.978Z</time></trkpt><trkpt lat="45.55661659036166" lon="11.91090916047549"><ele>21.0</ele><time>2026-05-03T16:47:03.978Z</time></trkpt><trkpt lat="45.55650934080922" lon="11.910942743041955"><ele>21.0</ele><time>2026-05-03T16:47:04.978Z</time></trkpt><trkpt lat="45.556400137376954" lon="11.910980194627754"><ele>21.0</ele><time>2026-05-03T16:47:05.978Z</time></trkpt><trkpt lat="45.55630094087391" lon="11.911014420918546"><ele>21.0</ele><time>2026-05-03T16:47:06.978Z</time></trkpt><trkpt lat="45.55621052090428" lon="11.911045250082616"><ele>21.0</ele><time>2026-05-03T16:47:07.978Z</time></trkpt><trkpt lat="45.55612541442349" lon="11.911070676512798"><ele>21.0</ele><time>2026-05-03T16:47:08.978Z</time></trkpt><trkpt lat="45.55603968849807" lon="11.911097757219517"><ele>20.5</ele><time>2026-05-03T16:47:09.978Z</time></trkpt><trkpt lat="45.55594214665718" lon="11.911130548770073"><ele>20.0</ele><time>2026-05-03T16:47:10.978Z</time></trkpt><trkpt lat="45.5558378075035" lon="11.911173947026498"><ele>19.5</ele><time>2026-05-03T16:47:11.978Z</time></trkpt><trkpt lat="45.55572190260957" lon="11.911221983034826"><ele>19.0</ele><time>2026-05-03T16:47:12.978Z</time></trkpt><trkpt lat="45.555590866586655" lon="11.911267852811395"><ele>19.0</ele><time>2026-05-03T16:47:13.978Z</time></trkpt><trkpt lat="45.55544785004858" lon="11.911313280858781"><ele>19.0</ele><time>2026-05-03T16:47:14.978Z</time></trkpt><trkpt lat="45.555294691583846" lon="11.911364511480174"><ele>19.0</ele><time>2026-05-03T16:47:15.978Z</time></trkpt><trkpt lat="45.54362857631216" lon="11.911887954323628"><ele>19.333333333333332</ele><time>2026-05-03T16:48:16.979Z</time></trkpt><trkpt lat="45.54344116068849" lon="11.91186868189451"><ele>19.666666666666668</ele><time>2026-05-03T16:48:17.978Z</time></trkpt><trkpt lat="45.5432629033041" lon="11.911848518634834"><ele>20.0</ele><time>2026-05-03T16:48:18.978Z</time></trkpt><trkpt lat="45.543080644722345" lon="11.911831551003438"><ele>20.0</ele><time>2026-05-03T16:48:19.978Z</time></trkpt><trkpt lat="45.54289298206235" lon="11.911814564274197"><ele>20.0</ele><time>2026-05-03T16:48:20.978Z</time></trkpt><trkpt lat="45.54270843424769" lon="11.91179336516563"><ele>20.0</ele><time>2026-05-03T16:48:21.978Z</time></trkpt><trkpt lat="45.542532474031454" lon="11.911773005796668"><ele>20.0</ele><time>2026-05-03T16:48:22.978Z</time></trkpt><trkpt lat="45.54237088550868" lon="11.911754794391507"><ele>20.0</ele><time>2026-05-03T16:48:23.978Z</time></trkpt><trkpt lat="45.54222967102741" lon="11.91173883960474"><ele>20.0</ele><time>2026-05-03T16:48:24.978Z</time></trkpt><trkpt lat="45.54210131641411" lon="11.911739073193486"><ele>20.0</ele><time>2026-05-03T16:48:25.978Z</time></trkpt><trkpt lat="45.541995311471695" lon="11.911734327738369"><ele>20.0</ele><time>2026-05-03T16:48:26.978Z</time></trkpt><trkpt lat="45.54190236190837" lon="11.911724564023011"><ele>20.0</ele><time>2026-05-03T16:48:27.978Z</time></trkpt><trkpt lat="45.54182539466141" lon="11.91170258006452"><ele>20.0</ele><time>2026-05-03T16:48:28.978Z</time></trkpt><trkpt lat="45.54175852427496" lon="11.911666197631254"><ele>20.0</ele><time>2026-05-03T16:48:29.978Z</time></trkpt><trkpt lat="45.54167040243112" lon="11.911643142765758"><ele>20.0</ele><time>2026-05-03T16:48:31.978Z</time></trkpt><trkpt lat="45.54161990834013" lon="11.911701299924468"><ele>20.0</ele><time>2026-05-03T16:48:41.978Z</time></trkpt><trkpt lat="45.541590027406265" lon="11.91185964753374"><ele>20.0</ele><time>2026-05-03T16:48:43.978Z</time></trkpt><trkpt lat="45.541605113537535" lon="11.911977242631794"><ele>20.0</ele><time>2026-05-03T16:48:44.978Z</time></trkpt><trkpt lat="45.54161652811462" lon="11.912120653013453"><ele>20.0</ele><time>2026-05-03T16:48:45.978Z</time></trkpt><trkpt lat="45.54163223752881" lon="11.912283984158389"><ele>20.0</ele><time>2026-05-03T16:48:46.978Z</time></trkpt><trkpt lat="45.54164690427894" lon="11.912446749838315"><ele>20.0</ele><time>2026-05-03T16:48:47.978Z</time></trkpt><trkpt lat="45.54165927626473" lon="11.912606304578219"><ele>20.0</ele><time>2026-05-03T16:48:48.978Z</time></trkpt><trkpt lat="45.54167091610081" lon="11.912771630574474"><ele>20.0</ele><time>2026-05-03T16:48:49.978Z</time></trkpt><trkpt lat="45.5416801511179" lon="11.912938081474483"><ele>20.0</ele><time>2026-05-03T16:48:50.978Z</time></trkpt><trkpt lat="45.54169081578449" lon="11.913118549418195"><ele>20.0</ele><time>2026-05-03T16:48:51.978Z</time></trkpt><trkpt lat="45.54170805831933" lon="11.91332363859727"><ele>20.0</ele><time>2026-05-03T16:48:52.978Z</time></trkpt><trkpt lat="45.54172888253948" lon="11.913532949297991"><ele>20.0</ele><time>2026-05-03T16:48:53.978Z</time></trkpt><trkpt lat="45.54173672938259" lon="11.91373849319855"><ele>20.0</ele><time>2026-05-03T16:48:54.978Z</time></trkpt><trkpt lat="45.54172192727432" lon="11.913941814561728"><ele>20.0</ele><time>2026-05-03T16:48:55.978Z</time></trkpt><trkpt lat="45.54168164974856" lon="11.914148666795013"><ele>19.5</ele><time>2026-05-03T16:48:56.978Z</time></trkpt><trkpt lat="45.54163877859537" lon="11.914366759710282"><ele>19.0</ele><time>2026-05-03T16:48:57.978Z</time></trkpt><trkpt lat="45.54159811195412" lon="11.914570067226352"><ele>18.5</ele><time>2026-05-03T16:48:58.978Z</time></trkpt><trkpt lat="45.54156471339199" lon="11.914758283352972"><ele>18.0</ele><time>2026-05-03T16:48:59.978Z</time></trkpt><trkpt lat="45.54151555983974" lon="11.914936214846394"><ele>18.5</ele><time>2026-05-03T16:49:00.978Z</time></trkpt><trkpt lat="45.54147784944954" lon="11.915122343607951"><ele>19.0</ele><time>2026-05-03T16:49:01.978Z</time></trkpt><trkpt lat="45.54143413002852" lon="11.915320373946775"><ele>19.5</ele><time>2026-05-03T16:49:02.978Z</time></trkpt><trkpt lat="45.541393100925035" lon="11.915518512489705"><ele>20.0</ele><time>2026-05-03T16:49:03.978Z</time></trkpt><trkpt lat="45.541353357694916" lon="11.915716708606212"><ele>20.0</ele><time>2026-05-03T16:49:04.978Z</time></trkpt><trkpt lat="45.54131642794114" lon="11.915905622937316"><ele>20.0</ele><time>2026-05-03T16:49:05.978Z</time></trkpt><trkpt lat="45.541289889457346" lon="11.916090990987351"><ele>20.0</ele><time>2026-05-03T16:49:06.978Z</time></trkpt><trkpt lat="45.541259856974975" lon="11.916266669878656"><ele>20.0</ele><time>2026-05-03T16:49:07.978Z</time></trkpt><trkpt lat="45.54122292916209" lon="11.916424239790459"><ele>20.0</ele><time>2026-05-03T16:49:08.978Z</time></trkpt><trkpt lat="45.541192919676405" lon="11.916568543513387"><ele>20.0</ele><time>2026-05-03T16:49:09.978Z</time></trkpt><trkpt lat="45.5411702756396" lon="11.916678403860818"><ele>20.0</ele><time>2026-05-03T16:49:10.978Z</time></trkpt><trkpt lat="45.54114823043779" lon="11.91679086913725"><ele>20.0</ele><time>2026-05-03T16:49:12.978Z</time></trkpt><trkpt lat="45.54113963095481" lon="11.916888334139882"><ele>20.0</ele><time>2026-05-03T16:49:14.978Z</time></trkpt><trkpt lat="45.5416517320976" lon="11.92188851536762"><ele>20.0</ele><time>2026-05-03T16:50:16.979Z</time></trkpt><trkpt lat="45.541552002488466" lon="11.921865511339242"><ele>20.0</ele><time>2026-05-03T16:50:17.978Z</time></trkpt><trkpt lat="45.54143669604076" lon="11.921833297840863"><ele>20.0</ele><time>2026-05-03T16:50:18.978Z</time></trkpt><trkpt lat="45.54131500135082" lon="11.921793977051092"><ele>20.0</ele><time>2026-05-03T16:50:19.978Z</time></trkpt><trkpt lat="45.54118088233194" lon="11.921743595319962"><ele>20.0</ele><time>2026-05-03T16:50:20.978Z</time></trkpt><trkpt lat="45.54104852872751" lon="11.921691919660557"><ele>20.0</ele><time>2026-05-03T16:50:21.978Z</time></trkpt><trkpt lat="45.5409146660935" lon="11.921641355165852"><ele>20.0</ele><time>2026-05-03T16:50:22.979Z</time></trkpt><trkpt lat="45.54078486976588" lon="11.921588653853561"><ele>20.0</ele><time>2026-05-03T16:50:23.979Z</time></trkpt><trkpt lat="45.54065996631043" lon="11.921538841091381"><ele>20.0</ele><time>2026-05-03T16:50:24.979Z</time></trkpt><trkpt lat="45.54053879393239" lon="11.921487970606243"><ele>20.0</ele><time>2026-05-03T16:50:25.979Z</time></trkpt><trkpt lat="45.54042346187208" lon="11.921412403818735"><ele>20.0</ele><time>2026-05-03T16:50:26.979Z</time></trkpt><trkpt lat="45.54030303670211" lon="11.921354687828723"><ele>20.0</ele><time>2026-05-03T16:50:27.979Z</time></trkpt><trkpt lat="45.540173306930356" lon="11.921335266452793"><ele>19.6</ele><time>2026-05-03T16:50:28.979Z</time></trkpt><trkpt lat="45.54005113384733" lon="11.921287067103648"><ele>19.2</ele><time>2026-05-03T16:50:29.979Z</time></trkpt><trkpt lat="45.53993357215456" lon="11.921242988969063"><ele>18.8</ele><time>2026-05-03T16:50:30.979Z</time></trkpt><trkpt lat="45.53983146575381" lon="11.921199108625139"><ele>18.4</ele><time>2026-05-03T16:50:31.979Z</time></trkpt><trkpt lat="45.539770054972905" lon="11.921169881840076"><ele>18.0</ele><time>2026-05-03T16:50:32.979Z</time></trkpt><trkpt lat="45.539699604018516" lon="11.921139765138719"><ele>18.0</ele><time>2026-05-03T16:50:34.979Z</time></trkpt><trkpt lat="45.539556009263976" lon="11.921104483245225"><ele>18.0</ele><time>2026-05-03T16:50:36.979Z</time></trkpt><trkpt lat="45.5394530728453" lon="11.921070364967845"><ele>18.0</ele><time>2026-05-03T16:50:37.979Z</time></trkpt><trkpt lat="45.53933832226508" lon="11.921026761056831"><ele>18.0</ele><time>2026-05-03T16:50:38.979Z</time></trkpt><trkpt lat="45.539214365136715" lon="11.920974885489503"><ele>17.8</ele><time>2026-05-03T16:50:39.979Z</time></trkpt><trkpt lat="45.539087131308904" lon="11.920922473355876"><ele>17.6</ele><time>2026-05-03T16:50:40.979Z</time></trkpt><trkpt lat="45.538967570639976" lon="11.920869490817154"><ele>17.4</ele><time>2026-05-03T16:50:41.979Z</time></trkpt><trkpt lat="45.5388703508474" lon="11.920820324079926"><ele>17.2</ele><time>2026-05-03T16:50:42.979Z</time></trkpt><trkpt lat="45.538800104720906" lon="11.920776431501642"><ele>17.0</ele><time>2026-05-03T16:50:43.979Z</time></trkpt><trkpt lat="45.53873568419305" lon="11.920769097580585"><ele>17.2</ele><time>2026-05-03T16:50:44.979Z</time></trkpt><trkpt lat="45.53865062259915" lon="11.920879147866708"><ele>17.4</ele><time>2026-05-03T16:50:47.978Z</time></trkpt><trkpt lat="45.538602670333795" lon="11.921006371264198"><ele>17.6</ele><time>2026-05-03T16:50:48.978Z</time></trkpt><trkpt lat="45.53855690376178" lon="11.921145181532442"><ele>17.8</ele><time>2026-05-03T16:50:49.978Z</time></trkpt><trkpt lat="45.538511219744095" lon="11.92129300630969"><ele>18.0</ele><time>2026-05-03T16:50:50.978Z</time></trkpt><trkpt lat="45.53847326326704" lon="11.921435778805192"><ele>18.0</ele><time>2026-05-03T16:50:51.978Z</time></trkpt><trkpt lat="45.53843454528082" lon="11.921593685823135"><ele>18.0</ele><time>2026-05-03T16:50:52.978Z</time></trkpt><trkpt lat="45.53839551293985" lon="11.92177035798583"><ele>18.0</ele><time>2026-05-03T16:50:53.978Z</time></trkpt><trkpt lat="45.53835436378902" lon="11.921962176598527"><ele>18.0</ele><time>2026-05-03T16:50:54.978Z</time></trkpt><trkpt lat="45.53830852876989" lon="11.922156575945218"><ele>18.0</ele><time>2026-05-03T16:50:55.978Z</time></trkpt><trkpt lat="45.53825997660357" lon="11.922364401198111"><ele>18.0</ele><time>2026-05-03T16:50:56.978Z</time></trkpt><trkpt lat="45.53820991875401" lon="11.922607742230396"><ele>18.0</ele><time>2026-05-03T16:50:57.978Z</time></trkpt><trkpt lat="45.53812643995775" lon="11.922838926177063"><ele>18.333333333333332</ele><time>2026-05-03T16:50:58.978Z</time></trkpt><trkpt lat="45.538063845926274" lon="11.92311453771806"><ele>18.666666666666664</ele><time>2026-05-03T16:50:59.978Z</time></trkpt><trkpt lat="45.53802595019179" lon="11.923449353683017"><ele>19.0</ele><time>2026-05-03T16:51:00.978Z</time></trkpt><trkpt lat="45.53794892686372" lon="11.923794044995514"><ele>19.0</ele><time>2026-05-03T16:51:01.978Z</time></trkpt><trkpt lat="45.53787060875217" lon="11.924180284842487"><ele>19.0</ele><time>2026-05-03T16:51:02.978Z</time></trkpt><trkpt lat="45.53777888378855" lon="11.924564418017827"><ele>19.0</ele><time>2026-05-03T16:51:03.978Z</time></trkpt><trkpt lat="45.53766260293761" lon="11.92488195216272"><ele>19.0</ele><time>2026-05-03T16:51:04.978Z</time></trkpt><trkpt lat="45.53760187882236" lon="11.925149984056194"><ele>19.0</ele><time>2026-05-03T16:51:05.978Z</time></trkpt><trkpt lat="45.537547454926084" lon="11.925390207073256"><ele>19.0</ele><time>2026-05-03T16:51:06.978Z</time></trkpt><trkpt lat="45.53749657861535" lon="11.92562217536688"><ele>19.0</ele><time>2026-05-03T16:51:07.978Z</time></trkpt><trkpt lat="45.53746057502043" lon="11.925858581986528"><ele>19.0</ele><time>2026-05-03T16:51:08.978Z</time></trkpt><trkpt lat="45.53739771752756" lon="11.92609395634969"><ele>19.333333333333332</ele><time>2026-05-03T16:51:09.978Z</time></trkpt><trkpt lat="45.53735462442694" lon="11.926345709893877"><ele>19.666666666666668</ele><time>2026-05-03T16:51:10.978Z</time></trkpt><trkpt lat="45.5373347823272" lon="11.926609500451491"><ele>20.0</ele><time>2026-05-03T16:51:11.978Z</time></trkpt><trkpt lat="45.537299565462206" lon="11.926860403392586"><ele>20.333333333333336</ele><time>2026-05-03T16:51:12.978Z</time></trkpt><trkpt lat="45.5372782707185" lon="11.927107283144068"><ele>20.666666666666668</ele><time>2026-05-03T16:51:13.978Z</time></trkpt><trkpt lat="45.537263935289744" lon="11.927341393641258"><ele>21.0</ele><time>2026-05-03T16:51:14.978Z</time></trkpt><trkpt lat="45.53725682329734" lon="11.927565761847726"><ele>18.0</ele><time>2026-05-03T16:51:15.978Z</time></trkpt><trkpt lat="45.53534479557108" lon="11.940659880397332"><ele>18.333333333333332</ele><time>2026-05-03T16:52:16.978Z</time></trkpt><trkpt lat="45.53528903569681" lon="11.940950435853598"><ele>18.666666666666664</ele><time>2026-05-03T16:52:17.978Z</time></trkpt><trkpt lat="45.53523689870495" lon="11.941220060581891"><ele>19.0</ele><time>2026-05-03T16:52:18.978Z</time></trkpt><trkpt lat="45.535186128536175" lon="11.941491421588179"><ele>19.0</ele><time>2026-05-03T16:52:19.978Z</time></trkpt><trkpt lat="45.53513424424074" lon="11.941761831276882"><ele>19.0</ele><time>2026-05-03T16:52:20.978Z</time></trkpt><trkpt lat="45.53508760407769" lon="11.942037185611447"><ele>19.0</ele><time>2026-05-03T16:52:21.978Z</time></trkpt><trkpt lat="45.535041909873016" lon="11.94232208647266"><ele>18.666666666666664</ele><time>2026-05-03T16:52:22.978Z</time></trkpt><trkpt lat="45.53500060336807" lon="11.942595428369414"><ele>18.333333333333332</ele><time>2026-05-03T16:52:23.978Z</time></trkpt><trkpt lat="45.53495373324165" lon="11.942848200933245"><ele>18.0</ele><time>2026-05-03T16:52:24.978Z</time></trkpt><trkpt lat="45.534908702777265" lon="11.943089392931336"><ele>18.0</ele><time>2026-05-03T16:52:25.978Z</time></trkpt><trkpt lat="45.53486440423485" lon="11.943314892004572"><ele>18.0</ele><time>2026-05-03T16:52:26.978Z</time></trkpt><trkpt lat="45.53481953050496" lon="11.943529286708578"><ele>18.0</ele><time>2026-05-03T16:52:27.978Z</time></trkpt><trkpt lat="45.534782564407394" lon="11.943735030973496"><ele>18.0</ele><time>2026-05-03T16:52:28.978Z</time></trkpt><trkpt lat="45.534747518354216" lon="11.943926553690456"><ele>18.0</ele><time>2026-05-03T16:52:29.978Z</time></trkpt><trkpt lat="45.53470359948576" lon="11.9441174726456"><ele>18.0</ele><time>2026-05-03T16:52:30.978Z</time></trkpt><trkpt lat="45.53466128724207" lon="11.944319694437812"><ele>18.0</ele><time>2026-05-03T16:52:31.978Z</time></trkpt><trkpt lat="45.5346269604442" lon="11.94455014257464"><ele>18.0</ele><time>2026-05-03T16:52:32.978Z</time></trkpt><trkpt lat="45.534590161890094" lon="11.944793096325089"><ele>18.0</ele><time>2026-05-03T16:52:33.978Z</time></trkpt><trkpt lat="45.53454739070897" lon="11.945051753247004"><ele>18.0</ele><time>2026-05-03T16:52:34.978Z</time></trkpt><trkpt lat="45.53450350221494" lon="11.945327233111314"><ele>17.666666666666668</ele><time>2026-05-03T16:52:35.978Z</time></trkpt><trkpt lat="45.53445327506581" lon="11.945601904012829"><ele>17.333333333333336</ele><time>2026-05-03T16:52:36.978Z</time></trkpt><trkpt lat="45.53440006375188" lon="11.94589337355494"><ele>17.0</ele><time>2026-05-03T16:52:37.978Z</time></trkpt><trkpt lat="45.53434260208262" lon="11.946206131038027"><ele>18.5</ele><time>2026-05-03T16:52:38.978Z</time></trkpt><trkpt lat="45.53428466039456" lon="11.94653944554192"><ele>20.0</ele><time>2026-05-03T16:52:39.978Z</time></trkpt><trkpt lat="45.53419724836533" lon="11.946910345704572"><ele>20.0</ele><time>2026-05-03T16:52:40.978Z</time></trkpt><trkpt lat="45.53413018440356" lon="11.947258215683629"><ele>20.0</ele><time>2026-05-03T16:52:41.978Z</time></trkpt><trkpt lat="45.53406422971468" lon="11.947584774999568"><ele>19.666666666666668</ele><time>2026-05-03T16:52:42.978Z</time></trkpt><trkpt lat="45.53400481228855" lon="11.947883164957586"><ele>19.333333333333332</ele><time>2026-05-03T16:52:43.978Z</time></trkpt><trkpt lat="45.53393556061372" lon="11.948165305334985"><ele>19.0</ele><time>2026-05-03T16:52:44.978Z</time></trkpt><trkpt lat="45.53387431166756" lon="11.948434116790404"><ele>17.666666666666664</ele><time>2026-05-03T16:52:45.978Z</time></trkpt><trkpt lat="45.533832500145046" lon="11.94867519813648"><ele>16.333333333333332</ele><time>2026-05-03T16:52:46.978Z</time></trkpt><trkpt lat="45.53381333522599" lon="11.948902098961957"><ele>15.0</ele><time>2026-05-03T16:52:47.978Z</time></trkpt><trkpt lat="45.533795004851896" lon="11.949108642531385"><ele>15.25</ele><time>2026-05-03T16:52:48.978Z</time></trkpt><trkpt lat="45.53376931718685" lon="11.94930078686151"><ele>15.5</ele><time>2026-05-03T16:52:49.978Z</time></trkpt><trkpt lat="45.53374626509509" lon="11.949466001131636"><ele>15.75</ele><time>2026-05-03T16:52:50.978Z</time></trkpt><trkpt lat="45.53372450353505" lon="11.949620023043849"><ele>16.0</ele><time>2026-05-03T16:52:51.978Z</time></trkpt><trkpt lat="45.53370343161246" lon="11.949762340654935"><ele>15.999999999999998</ele><time>2026-05-03T16:52:52.978Z</time></trkpt><trkpt lat="45.53366716117357" lon="11.949898986341264"><ele>16.0</ele><time>2026-05-03T16:52:53.978Z</time></trkpt><trkpt lat="45.533646182629724" lon="11.950036646248883"><ele>16.0</ele><time>2026-05-03T16:52:54.978Z</time></trkpt><trkpt lat="45.533642043112856" lon="11.950162793627387"><ele>16.0</ele><time>2026-05-03T16:52:55.978Z</time></trkpt><trkpt lat="45.53364784429382" lon="11.950277737084322"><ele>15.999999999999998</ele><time>2026-05-03T16:52:56.978Z</time></trkpt><trkpt lat="45.53365695524835" lon="11.950384265197462"><ele>16.0</ele><time>2026-05-03T16:52:57.978Z</time></trkpt><trkpt lat="45.53366560321725" lon="11.950485379899792"><ele>15.999999999999998</ele><time>2026-05-03T16:52:58.978Z</time></trkpt><trkpt lat="45.53367205175788" lon="11.950577526402226"><ele>16.0</ele><time>2026-05-03T16:52:59.978Z</time></trkpt><trkpt lat="45.53363676402331" lon="11.9506910273357"><ele>16.0</ele><time>2026-05-03T16:53:00.978Z</time></trkpt><trkpt lat="45.533610765068254" lon="11.950804779217092"><ele>16.0</ele><time>2026-05-03T16:53:01.978Z</time></trkpt><trkpt lat="45.53358126820165" lon="11.950931369743333"><ele>15.999999999999998</ele><time>2026-05-03T16:53:02.978Z</time></trkpt><trkpt lat="45.53353835745319" lon="11.951061572616668"><ele>16.0</ele><time>2026-05-03T16:53:03.978Z</time></trkpt><trkpt lat="45.533454749563326" lon="11.951176893819753"><ele>16.2</ele><time>2026-05-03T16:53:04.978Z</time></trkpt><trkpt lat="45.533415128736046" lon="11.951316437441438"><ele>16.400000000000002</ele><time>2026-05-03T16:53:05.978Z</time></trkpt><trkpt lat="45.53338412032495" lon="11.951468413935364"><ele>16.6</ele><time>2026-05-03T16:53:06.978Z</time></trkpt><trkpt lat="45.53335353865466" lon="11.951625982974782"><ele>16.8</ele><time>2026-05-03T16:53:07.978Z</time></trkpt><trkpt lat="45.53332573348803" lon="11.951778823942002"><ele>17.0</ele><time>2026-05-03T16:53:08.978Z</time></trkpt><trkpt lat="45.5332974160411" lon="11.951934967383508"><ele>17.0</ele><time>2026-05-03T16:53:09.978Z</time></trkpt><trkpt lat="45.53326660299522" lon="11.952104871604424"><ele>17.0</ele><time>2026-05-03T16:53:10.978Z</time></trkpt><trkpt lat="45.53323675107715" lon="11.952269476139307"><ele>17.0</ele><time>2026-05-03T16:53:11.978Z</time></trkpt><trkpt lat="45.53320842960687" lon="11.952425641694024"><ele>17.0</ele><time>2026-05-03T16:53:12.978Z</time></trkpt><trkpt lat="45.53318105752145" lon="11.952576572300181"><ele>17.0</ele><time>2026-05-03T16:53:13.978Z</time></trkpt><trkpt lat="45.53315242400053" lon="11.952732726374169"><ele>17.0</ele><time>2026-05-03T16:53:14.978Z</time></trkpt><trkpt lat="45.5331235958194" lon="11.952889949957182"><ele>17.0</ele><time>2026-05-03T16:53:15.978Z</time></trkpt><trkpt lat="45.53119279235767" lon="11.963447910822424"><ele>16.833333333333336</ele><time>2026-05-03T16:54:16.977Z</time></trkpt><trkpt lat="45.531166647963666" lon="11.96357922096951"><ele>16.666666666666668</ele><time>2026-05-03T16:54:17.977Z</time></trkpt><trkpt lat="45.53114222342938" lon="11.963700520305547"><ele>16.5</ele><time>2026-05-03T16:54:18.977Z</time></trkpt><trkpt lat="45.5311211187675" lon="11.963810361073895"><ele>16.333333333333332</ele><time>2026-05-03T16:54:19.977Z</time></trkpt><trkpt lat="45.5311015549147" lon="11.963913883632184"><ele>16.166666666666664</ele><time>2026-05-03T16:54:20.977Z</time></trkpt><trkpt lat="45.53108697538557" lon="11.964005391634922"><ele>16.0</ele><time>2026-05-03T16:54:21.977Z</time></trkpt><trkpt lat="45.53106500167153" lon="11.964127692198348"><ele>16.2</ele><time>2026-05-03T16:54:23.978Z</time></trkpt><trkpt lat="45.53104295345165" lon="11.964251815394833"><ele>16.400000000000002</ele><time>2026-05-03T16:54:49.977Z</time></trkpt><trkpt lat="45.531015592457265" lon="11.964400046881032"><ele>16.6</ele><time>2026-05-03T16:54:51.977Z</time></trkpt><trkpt lat="45.530984108017655" lon="11.964570617612292"><ele>16.8</ele><time>2026-05-03T16:54:53.977Z</time></trkpt><trkpt lat="45.530966132282686" lon="11.964677035462994"><ele>17.0</ele><time>2026-05-03T16:54:54.977Z</time></trkpt><trkpt lat="45.53094814622851" lon="11.964784322736431"><ele>17.0</ele><time>2026-05-03T16:54:55.977Z</time></trkpt><trkpt lat="45.53093972075321" lon="11.964895032090165"><ele>17.0</ele><time>2026-05-03T16:54:56.977Z</time></trkpt><trkpt lat="45.53093044932906" lon="11.964992511889472"><ele>17.0</ele><time>2026-05-03T16:54:57.977Z</time></trkpt><trkpt lat="45.530898713347874" lon="11.965084684959935"><ele>17.0</ele><time>2026-05-03T16:54:58.977Z</time></trkpt><trkpt lat="45.53087853883944" lon="11.965203512976665"><ele>17.0</ele><time>2026-05-03T16:54:59.977Z</time></trkpt><trkpt lat="45.530855711212816" lon="11.96533267346785"><ele>17.0</ele><time>2026-05-03T16:55:00.977Z</time></trkpt><trkpt lat="45.53082626676207" lon="11.965493347979324"><ele>17.0</ele><time>2026-05-03T16:55:01.977Z</time></trkpt><trkpt lat="45.53078885204822" lon="11.96569751516823"><ele>17.0</ele><time>2026-05-03T16:55:02.977Z</time></trkpt><trkpt lat="45.530744395217354" lon="11.965940555233303"><ele>17.0</ele><time>2026-05-03T16:55:03.977Z</time></trkpt><trkpt lat="45.53070386231547" lon="11.966162554294181"><ele>17.0</ele><time>2026-05-03T16:55:04.977Z</time></trkpt><trkpt lat="45.53067070644655" lon="11.96634414916568"><ele>17.0</ele><time>2026-05-03T16:55:05.977Z</time></trkpt><trkpt lat="45.53063769503839" lon="11.966511382457243"><ele>17.0</ele><time>2026-05-03T16:55:06.977Z</time></trkpt><trkpt lat="45.53061324462028" lon="11.966673064254833"><ele>17.0</ele><time>2026-05-03T16:55:07.977Z</time></trkpt><trkpt lat="45.53058707209055" lon="11.96682065983918"><ele>17.0</ele><time>2026-05-03T16:55:08.977Z</time></trkpt><trkpt lat="45.530560785724774" lon="11.966973000635912"><ele>17.0</ele><time>2026-05-03T16:55:09.977Z</time></trkpt><trkpt lat="45.530539317902246" lon="11.967104067812487"><ele>17.0</ele><time>2026-05-03T16:55:10.977Z</time></trkpt><trkpt lat="45.53051820322132" lon="11.967217902142051"><ele>17.0</ele><time>2026-05-03T16:55:11.977Z</time></trkpt><trkpt lat="45.530504847895486" lon="11.967321820756395"><ele>17.0</ele><time>2026-05-03T16:55:12.977Z</time></trkpt><trkpt lat="45.53046947418679" lon="11.967449507520843"><ele>17.0</ele><time>2026-05-03T16:55:13.977Z</time></trkpt><trkpt lat="45.53044495676069" lon="11.967577316234005"><ele>17.0</ele><time>2026-05-03T16:55:15.977Z</time></trkpt><trkpt lat="45.53464260903644" lon="11.970833350129228"><ele>17.0</ele><time>2026-05-03T16:56:18.976Z</time></trkpt></trkseg></trk></gpx>